<?xml version="1.0" encoding="UTF-8" standalone="no" ?>
<gpx xmlns="http://www.topografix.com/GPX/1/1" xmlns:xsi="http://www.w3.org/2001/XMLSchema-instance" xsi:schemaLocation="http://www.topografix.com/GPX/1/1 http://www.topografix.com/GPX/1/1/gpx.xsd" version="1.1" creator="VisuGPX - https://www.visugpx.com">
  <metadata>
    <name>Les Mées</name>
  </metadata>
  <trk>
    <name><![CDATA[Les Mées_1]]></name>
    <trkseg>
      <trkpt lat="44.02919" lon="5.97567">
        <ele>429</ele>
        <time>2021-12-21T09:19:46.000Z</time>
      </trkpt>
      <trkpt lat="44.02923" lon="5.97569">
        <ele>436</ele>
        <time>2021-12-21T09:19:47.000Z</time>
      </trkpt>
      <trkpt lat="44.02923" lon="5.97568">
        <ele>435</ele>
        <time>2021-12-21T09:19:48.000Z</time>
      </trkpt>
      <trkpt lat="44.02923" lon="5.97569">
        <ele>434</ele>
        <time>2021-12-21T09:19:49.000Z</time>
      </trkpt>
      <trkpt lat="44.02923" lon="5.97569">
        <ele>434</ele>
        <time>2021-12-21T09:19:50.000Z</time>
      </trkpt>
      <trkpt lat="44.02922" lon="5.97569">
        <ele>433</ele>
        <time>2021-12-21T09:19:51.000Z</time>
      </trkpt>
      <trkpt lat="44.02922" lon="5.97568">
        <ele>433</ele>
        <time>2021-12-21T09:19:52.000Z</time>
      </trkpt>
      <trkpt lat="44.02921" lon="5.97568">
        <ele>432</ele>
        <time>2021-12-21T09:19:53.000Z</time>
      </trkpt>
      <trkpt lat="44.02921" lon="5.97568">
        <ele>432</ele>
        <time>2021-12-21T09:19:54.000Z</time>
      </trkpt>
      <trkpt lat="44.02921" lon="5.97568">
        <ele>431</ele>
        <time>2021-12-21T09:19:55.000Z</time>
      </trkpt>
      <trkpt lat="44.02921" lon="5.97568">
        <ele>431</ele>
        <time>2021-12-21T09:19:56.000Z</time>
      </trkpt>
      <trkpt lat="44.02921" lon="5.97568">
        <ele>431</ele>
        <time>2021-12-21T09:19:57.000Z</time>
      </trkpt>
      <trkpt lat="44.0292" lon="5.97569">
        <ele>431</ele>
        <time>2021-12-21T09:19:58.000Z</time>
      </trkpt>
      <trkpt lat="44.0292" lon="5.97568">
        <ele>431</ele>
        <time>2021-12-21T09:19:59.000Z</time>
      </trkpt>
      <trkpt lat="44.0292" lon="5.97568">
        <ele>430</ele>
        <time>2021-12-21T09:20:00.000Z</time>
      </trkpt>
      <trkpt lat="44.0292" lon="5.97568">
        <ele>430</ele>
        <time>2021-12-21T09:20:01.000Z</time>
      </trkpt>
      <trkpt lat="44.0292" lon="5.97568">
        <ele>430</ele>
        <time>2021-12-21T09:20:02.000Z</time>
      </trkpt>
      <trkpt lat="44.0292" lon="5.97568">
        <ele>430</ele>
        <time>2021-12-21T09:20:03.000Z</time>
      </trkpt>
      <trkpt lat="44.0292" lon="5.97568">
        <ele>430</ele>
        <time>2021-12-21T09:20:04.000Z</time>
      </trkpt>
      <trkpt lat="44.0292" lon="5.97568">
        <ele>430</ele>
        <time>2021-12-21T09:20:05.000Z</time>
      </trkpt>
      <trkpt lat="44.02921" lon="5.97568">
        <ele>431</ele>
        <time>2021-12-21T09:20:06.000Z</time>
      </trkpt>
      <trkpt lat="44.02921" lon="5.97568">
        <ele>431</ele>
        <time>2021-12-21T09:20:07.000Z</time>
      </trkpt>
      <trkpt lat="44.02921" lon="5.97568">
        <ele>431</ele>
        <time>2021-12-21T09:20:08.000Z</time>
      </trkpt>
      <trkpt lat="44.02921" lon="5.97568">
        <ele>432</ele>
        <time>2021-12-21T09:20:09.000Z</time>
      </trkpt>
      <trkpt lat="44.02922" lon="5.97568">
        <ele>432</ele>
        <time>2021-12-21T09:20:10.000Z</time>
      </trkpt>
      <trkpt lat="44.02922" lon="5.97568">
        <ele>432</ele>
        <time>2021-12-21T09:20:11.000Z</time>
      </trkpt>
      <trkpt lat="44.02922" lon="5.97568">
        <ele>433</ele>
        <time>2021-12-21T09:20:12.000Z</time>
      </trkpt>
      <trkpt lat="44.02922" lon="5.97568">
        <ele>433</ele>
        <time>2021-12-21T09:20:13.000Z</time>
      </trkpt>
      <trkpt lat="44.02922" lon="5.97568">
        <ele>433</ele>
        <time>2021-12-21T09:20:14.000Z</time>
      </trkpt>
      <trkpt lat="44.02922" lon="5.97568">
        <ele>433</ele>
        <time>2021-12-21T09:20:15.000Z</time>
      </trkpt>
      <trkpt lat="44.02922" lon="5.97568">
        <ele>433</ele>
        <time>2021-12-21T09:20:16.000Z</time>
      </trkpt>
      <trkpt lat="44.02922" lon="5.97568">
        <ele>433</ele>
        <time>2021-12-21T09:20:17.000Z</time>
      </trkpt>
      <trkpt lat="44.02922" lon="5.97568">
        <ele>434</ele>
        <time>2021-12-21T09:20:18.000Z</time>
      </trkpt>
      <trkpt lat="44.02922" lon="5.97568">
        <ele>434</ele>
        <time>2021-12-21T09:20:19.000Z</time>
      </trkpt>
      <trkpt lat="44.02922" lon="5.97568">
        <ele>434</ele>
        <time>2021-12-21T09:20:20.000Z</time>
      </trkpt>
      <trkpt lat="44.02922" lon="5.97568">
        <ele>434</ele>
        <time>2021-12-21T09:20:21.000Z</time>
      </trkpt>
      <trkpt lat="44.02922" lon="5.97568">
        <ele>434</ele>
        <time>2021-12-21T09:20:22.000Z</time>
      </trkpt>
      <trkpt lat="44.02922" lon="5.97568">
        <ele>434</ele>
        <time>2021-12-21T09:20:23.000Z</time>
      </trkpt>
      <trkpt lat="44.02921" lon="5.97568">
        <ele>434</ele>
        <time>2021-12-21T09:20:24.000Z</time>
      </trkpt>
      <trkpt lat="44.02921" lon="5.97568">
        <ele>434</ele>
        <time>2021-12-21T09:20:25.000Z</time>
      </trkpt>
      <trkpt lat="44.02921" lon="5.97568">
        <ele>434</ele>
        <time>2021-12-21T09:20:26.000Z</time>
      </trkpt>
      <trkpt lat="44.02921" lon="5.97567">
        <ele>434</ele>
        <time>2021-12-21T09:20:27.000Z</time>
      </trkpt>
      <trkpt lat="44.02921" lon="5.97567">
        <ele>434</ele>
        <time>2021-12-21T09:20:28.000Z</time>
      </trkpt>
      <trkpt lat="44.02921" lon="5.97567">
        <ele>434</ele>
        <time>2021-12-21T09:20:29.000Z</time>
      </trkpt>
      <trkpt lat="44.02921" lon="5.97567">
        <ele>434</ele>
        <time>2021-12-21T09:20:30.000Z</time>
      </trkpt>
      <trkpt lat="44.02921" lon="5.97567">
        <ele>434</ele>
        <time>2021-12-21T09:20:31.000Z</time>
      </trkpt>
      <trkpt lat="44.02921" lon="5.97567">
        <ele>434</ele>
        <time>2021-12-21T09:20:32.000Z</time>
      </trkpt>
      <trkpt lat="44.02921" lon="5.97567">
        <ele>434</ele>
        <time>2021-12-21T09:20:33.000Z</time>
      </trkpt>
      <trkpt lat="44.02921" lon="5.97567">
        <ele>434</ele>
        <time>2021-12-21T09:20:34.000Z</time>
      </trkpt>
      <trkpt lat="44.02921" lon="5.97567">
        <ele>434</ele>
        <time>2021-12-21T09:20:35.000Z</time>
      </trkpt>
      <trkpt lat="44.02921" lon="5.97567">
        <ele>434</ele>
        <time>2021-12-21T09:20:36.000Z</time>
      </trkpt>
      <trkpt lat="44.02921" lon="5.97567">
        <ele>434</ele>
        <time>2021-12-21T09:20:37.000Z</time>
      </trkpt>
      <trkpt lat="44.02921" lon="5.97567">
        <ele>434</ele>
        <time>2021-12-21T09:20:38.000Z</time>
      </trkpt>
      <trkpt lat="44.02921" lon="5.97567">
        <ele>434</ele>
        <time>2021-12-21T09:20:39.000Z</time>
      </trkpt>
      <trkpt lat="44.02921" lon="5.97567">
        <ele>434</ele>
        <time>2021-12-21T09:20:40.000Z</time>
      </trkpt>
      <trkpt lat="44.02921" lon="5.97566">
        <ele>434</ele>
        <time>2021-12-21T09:20:41.000Z</time>
      </trkpt>
      <trkpt lat="44.02921" lon="5.97566">
        <ele>434</ele>
        <time>2021-12-21T09:20:42.000Z</time>
      </trkpt>
      <trkpt lat="44.02921" lon="5.97566">
        <ele>434</ele>
        <time>2021-12-21T09:20:43.000Z</time>
      </trkpt>
      <trkpt lat="44.02921" lon="5.97566">
        <ele>434</ele>
        <time>2021-12-21T09:20:44.000Z</time>
      </trkpt>
      <trkpt lat="44.02921" lon="5.97566">
        <ele>434</ele>
        <time>2021-12-21T09:20:45.000Z</time>
      </trkpt>
      <trkpt lat="44.02921" lon="5.97566">
        <ele>434</ele>
        <time>2021-12-21T09:20:46.000Z</time>
      </trkpt>
      <trkpt lat="44.02921" lon="5.97566">
        <ele>433</ele>
        <time>2021-12-21T09:20:47.000Z</time>
      </trkpt>
      <trkpt lat="44.0292" lon="5.97566">
        <ele>433</ele>
        <time>2021-12-21T09:20:48.000Z</time>
      </trkpt>
      <trkpt lat="44.0292" lon="5.97566">
        <ele>433</ele>
        <time>2021-12-21T09:20:49.000Z</time>
      </trkpt>
      <trkpt lat="44.0292" lon="5.97566">
        <ele>433</ele>
        <time>2021-12-21T09:20:50.000Z</time>
      </trkpt>
      <trkpt lat="44.0292" lon="5.97566">
        <ele>433</ele>
        <time>2021-12-21T09:20:51.000Z</time>
      </trkpt>
      <trkpt lat="44.0292" lon="5.97565">
        <ele>433</ele>
        <time>2021-12-21T09:20:52.000Z</time>
      </trkpt>
      <trkpt lat="44.0292" lon="5.97565">
        <ele>433</ele>
        <time>2021-12-21T09:20:53.000Z</time>
      </trkpt>
      <trkpt lat="44.0292" lon="5.97565">
        <ele>433</ele>
        <time>2021-12-21T09:20:54.000Z</time>
      </trkpt>
      <trkpt lat="44.0292" lon="5.97565">
        <ele>433</ele>
        <time>2021-12-21T09:20:55.000Z</time>
      </trkpt>
      <trkpt lat="44.0292" lon="5.97564">
        <ele>433</ele>
        <time>2021-12-21T09:20:56.000Z</time>
      </trkpt>
      <trkpt lat="44.0292" lon="5.97564">
        <ele>433</ele>
        <time>2021-12-21T09:20:57.000Z</time>
      </trkpt>
      <trkpt lat="44.0292" lon="5.97564">
        <ele>433</ele>
        <time>2021-12-21T09:20:58.000Z</time>
      </trkpt>
      <trkpt lat="44.0292" lon="5.97564">
        <ele>432</ele>
        <time>2021-12-21T09:20:59.000Z</time>
      </trkpt>
      <trkpt lat="44.0292" lon="5.97564">
        <ele>432</ele>
        <time>2021-12-21T09:21:00.000Z</time>
      </trkpt>
      <trkpt lat="44.0292" lon="5.97564">
        <ele>432</ele>
        <time>2021-12-21T09:21:01.000Z</time>
      </trkpt>
      <trkpt lat="44.0292" lon="5.97564">
        <ele>432</ele>
        <time>2021-12-21T09:21:02.000Z</time>
      </trkpt>
      <trkpt lat="44.0292" lon="5.97564">
        <ele>432</ele>
        <time>2021-12-21T09:21:03.000Z</time>
      </trkpt>
      <trkpt lat="44.02919" lon="5.97564">
        <ele>432</ele>
        <time>2021-12-21T09:21:04.000Z</time>
      </trkpt>
      <trkpt lat="44.02919" lon="5.97564">
        <ele>432</ele>
        <time>2021-12-21T09:21:05.000Z</time>
      </trkpt>
      <trkpt lat="44.02919" lon="5.97564">
        <ele>432</ele>
        <time>2021-12-21T09:21:06.000Z</time>
      </trkpt>
      <trkpt lat="44.02919" lon="5.97564">
        <ele>431</ele>
        <time>2021-12-21T09:21:07.000Z</time>
      </trkpt>
      <trkpt lat="44.02919" lon="5.97564">
        <ele>431</ele>
        <time>2021-12-21T09:21:08.000Z</time>
      </trkpt>
      <trkpt lat="44.02919" lon="5.97564">
        <ele>431</ele>
        <time>2021-12-21T09:21:09.000Z</time>
      </trkpt>
      <trkpt lat="44.02919" lon="5.97564">
        <ele>431</ele>
        <time>2021-12-21T09:21:10.000Z</time>
      </trkpt>
      <trkpt lat="44.02919" lon="5.97564">
        <ele>431</ele>
        <time>2021-12-21T09:21:11.000Z</time>
      </trkpt>
      <trkpt lat="44.02919" lon="5.97564">
        <ele>431</ele>
        <time>2021-12-21T09:21:12.000Z</time>
      </trkpt>
      <trkpt lat="44.02919" lon="5.97564">
        <ele>431</ele>
        <time>2021-12-21T09:21:13.000Z</time>
      </trkpt>
      <trkpt lat="44.02919" lon="5.97564">
        <ele>431</ele>
        <time>2021-12-21T09:21:14.000Z</time>
      </trkpt>
      <trkpt lat="44.02919" lon="5.97564">
        <ele>431</ele>
        <time>2021-12-21T09:21:15.000Z</time>
      </trkpt>
      <trkpt lat="44.02919" lon="5.97564">
        <ele>431</ele>
        <time>2021-12-21T09:21:16.000Z</time>
      </trkpt>
      <trkpt lat="44.02919" lon="5.97564">
        <ele>431</ele>
        <time>2021-12-21T09:21:17.000Z</time>
      </trkpt>
      <trkpt lat="44.02919" lon="5.97564">
        <ele>431</ele>
        <time>2021-12-21T09:21:18.000Z</time>
      </trkpt>
      <trkpt lat="44.02919" lon="5.97564">
        <ele>431</ele>
        <time>2021-12-21T09:21:19.000Z</time>
      </trkpt>
      <trkpt lat="44.02919" lon="5.97564">
        <ele>431</ele>
        <time>2021-12-21T09:21:20.000Z</time>
      </trkpt>
      <trkpt lat="44.02918" lon="5.97564">
        <ele>431</ele>
        <time>2021-12-21T09:21:21.000Z</time>
      </trkpt>
      <trkpt lat="44.02918" lon="5.97564">
        <ele>431</ele>
        <time>2021-12-21T09:21:22.000Z</time>
      </trkpt>
      <trkpt lat="44.02918" lon="5.97564">
        <ele>431</ele>
        <time>2021-12-21T09:21:23.000Z</time>
      </trkpt>
      <trkpt lat="44.02918" lon="5.97564">
        <ele>431</ele>
        <time>2021-12-21T09:21:24.000Z</time>
      </trkpt>
      <trkpt lat="44.02918" lon="5.97564">
        <ele>431</ele>
        <time>2021-12-21T09:21:25.000Z</time>
      </trkpt>
      <trkpt lat="44.02918" lon="5.97564">
        <ele>431</ele>
        <time>2021-12-21T09:21:26.000Z</time>
      </trkpt>
      <trkpt lat="44.02918" lon="5.97564">
        <ele>431</ele>
        <time>2021-12-21T09:21:27.000Z</time>
      </trkpt>
      <trkpt lat="44.02917" lon="5.97564">
        <ele>431</ele>
        <time>2021-12-21T09:21:28.000Z</time>
      </trkpt>
      <trkpt lat="44.02917" lon="5.97564">
        <ele>431</ele>
        <time>2021-12-21T09:21:29.000Z</time>
      </trkpt>
      <trkpt lat="44.02917" lon="5.97564">
        <ele>430</ele>
        <time>2021-12-21T09:21:30.000Z</time>
      </trkpt>
      <trkpt lat="44.02917" lon="5.97564">
        <ele>430</ele>
        <time>2021-12-21T09:21:31.000Z</time>
      </trkpt>
      <trkpt lat="44.02917" lon="5.97564">
        <ele>430</ele>
        <time>2021-12-21T09:21:32.000Z</time>
      </trkpt>
      <trkpt lat="44.02917" lon="5.97564">
        <ele>430</ele>
        <time>2021-12-21T09:21:33.000Z</time>
      </trkpt>
      <trkpt lat="44.02917" lon="5.97564">
        <ele>430</ele>
        <time>2021-12-21T09:21:34.000Z</time>
      </trkpt>
      <trkpt lat="44.02917" lon="5.97564">
        <ele>430</ele>
        <time>2021-12-21T09:21:35.000Z</time>
      </trkpt>
      <trkpt lat="44.02917" lon="5.97564">
        <ele>430</ele>
        <time>2021-12-21T09:21:36.000Z</time>
      </trkpt>
      <trkpt lat="44.02917" lon="5.97564">
        <ele>430</ele>
        <time>2021-12-21T09:21:37.000Z</time>
      </trkpt>
      <trkpt lat="44.02917" lon="5.97564">
        <ele>430</ele>
        <time>2021-12-21T09:21:38.000Z</time>
      </trkpt>
      <trkpt lat="44.02917" lon="5.97564">
        <ele>430</ele>
        <time>2021-12-21T09:21:39.000Z</time>
      </trkpt>
      <trkpt lat="44.02917" lon="5.97564">
        <ele>430</ele>
        <time>2021-12-21T09:21:40.000Z</time>
      </trkpt>
      <trkpt lat="44.02917" lon="5.97564">
        <ele>430</ele>
        <time>2021-12-21T09:21:41.000Z</time>
      </trkpt>
      <trkpt lat="44.02917" lon="5.97564">
        <ele>430</ele>
        <time>2021-12-21T09:21:42.000Z</time>
      </trkpt>
      <trkpt lat="44.02917" lon="5.97564">
        <ele>430</ele>
        <time>2021-12-21T09:21:43.000Z</time>
      </trkpt>
      <trkpt lat="44.02916" lon="5.97564">
        <ele>430</ele>
        <time>2021-12-21T09:21:44.000Z</time>
      </trkpt>
      <trkpt lat="44.02916" lon="5.97564">
        <ele>430</ele>
        <time>2021-12-21T09:21:45.000Z</time>
      </trkpt>
      <trkpt lat="44.02916" lon="5.97564">
        <ele>430</ele>
        <time>2021-12-21T09:21:46.000Z</time>
      </trkpt>
      <trkpt lat="44.02916" lon="5.97564">
        <ele>430</ele>
        <time>2021-12-21T09:21:47.000Z</time>
      </trkpt>
      <trkpt lat="44.02916" lon="5.97564">
        <ele>430</ele>
        <time>2021-12-21T09:21:48.000Z</time>
      </trkpt>
      <trkpt lat="44.02916" lon="5.97564">
        <ele>430</ele>
        <time>2021-12-21T09:21:49.000Z</time>
      </trkpt>
      <trkpt lat="44.02916" lon="5.97564">
        <ele>430</ele>
        <time>2021-12-21T09:21:50.000Z</time>
      </trkpt>
      <trkpt lat="44.02916" lon="5.97564">
        <ele>430</ele>
        <time>2021-12-21T09:21:51.000Z</time>
      </trkpt>
      <trkpt lat="44.02916" lon="5.97564">
        <ele>430</ele>
        <time>2021-12-21T09:21:52.000Z</time>
      </trkpt>
      <trkpt lat="44.02916" lon="5.97564">
        <ele>430</ele>
        <time>2021-12-21T09:21:53.000Z</time>
      </trkpt>
      <trkpt lat="44.02916" lon="5.97564">
        <ele>430</ele>
        <time>2021-12-21T09:21:54.000Z</time>
      </trkpt>
      <trkpt lat="44.02916" lon="5.97564">
        <ele>430</ele>
        <time>2021-12-21T09:21:55.000Z</time>
      </trkpt>
      <trkpt lat="44.02917" lon="5.97564">
        <ele>430</ele>
        <time>2021-12-21T09:21:56.000Z</time>
      </trkpt>
      <trkpt lat="44.02916" lon="5.97564">
        <ele>429</ele>
        <time>2021-12-21T09:21:57.000Z</time>
      </trkpt>
      <trkpt lat="44.02916" lon="5.97564">
        <ele>429</ele>
        <time>2021-12-21T09:21:58.000Z</time>
      </trkpt>
      <trkpt lat="44.02916" lon="5.97564">
        <ele>429</ele>
        <time>2021-12-21T09:21:59.000Z</time>
      </trkpt>
      <trkpt lat="44.02916" lon="5.97564">
        <ele>429</ele>
        <time>2021-12-21T09:22:00.000Z</time>
      </trkpt>
      <trkpt lat="44.02916" lon="5.97564">
        <ele>429</ele>
        <time>2021-12-21T09:22:01.000Z</time>
      </trkpt>
      <trkpt lat="44.02916" lon="5.97565">
        <ele>429</ele>
        <time>2021-12-21T09:22:02.000Z</time>
      </trkpt>
      <trkpt lat="44.02916" lon="5.97565">
        <ele>429</ele>
        <time>2021-12-21T09:22:03.000Z</time>
      </trkpt>
      <trkpt lat="44.02916" lon="5.97565">
        <ele>429</ele>
        <time>2021-12-21T09:22:04.000Z</time>
      </trkpt>
      <trkpt lat="44.02916" lon="5.97565">
        <ele>429</ele>
        <time>2021-12-21T09:22:05.000Z</time>
      </trkpt>
      <trkpt lat="44.02916" lon="5.97565">
        <ele>429</ele>
        <time>2021-12-21T09:22:06.000Z</time>
      </trkpt>
      <trkpt lat="44.02916" lon="5.97565">
        <ele>429</ele>
        <time>2021-12-21T09:22:07.000Z</time>
      </trkpt>
      <trkpt lat="44.02916" lon="5.97565">
        <ele>429</ele>
        <time>2021-12-21T09:22:08.000Z</time>
      </trkpt>
      <trkpt lat="44.02916" lon="5.97565">
        <ele>429</ele>
        <time>2021-12-21T09:22:09.000Z</time>
      </trkpt>
      <trkpt lat="44.02916" lon="5.97565">
        <ele>429</ele>
        <time>2021-12-21T09:22:10.000Z</time>
      </trkpt>
      <trkpt lat="44.02916" lon="5.97565">
        <ele>429</ele>
        <time>2021-12-21T09:22:11.000Z</time>
      </trkpt>
      <trkpt lat="44.02916" lon="5.97565">
        <ele>429</ele>
        <time>2021-12-21T09:22:12.000Z</time>
      </trkpt>
      <trkpt lat="44.02916" lon="5.97565">
        <ele>429</ele>
        <time>2021-12-21T09:22:13.000Z</time>
      </trkpt>
      <trkpt lat="44.02916" lon="5.97565">
        <ele>429</ele>
        <time>2021-12-21T09:22:14.000Z</time>
      </trkpt>
      <trkpt lat="44.02916" lon="5.97565">
        <ele>429</ele>
        <time>2021-12-21T09:22:15.000Z</time>
      </trkpt>
      <trkpt lat="44.02916" lon="5.97565">
        <ele>429</ele>
        <time>2021-12-21T09:22:16.000Z</time>
      </trkpt>
      <trkpt lat="44.02916" lon="5.97565">
        <ele>429</ele>
        <time>2021-12-21T09:22:17.000Z</time>
      </trkpt>
      <trkpt lat="44.02916" lon="5.97565">
        <ele>429</ele>
        <time>2021-12-21T09:22:18.000Z</time>
      </trkpt>
      <trkpt lat="44.02916" lon="5.97565">
        <ele>429</ele>
        <time>2021-12-21T09:22:19.000Z</time>
      </trkpt>
      <trkpt lat="44.02916" lon="5.97565">
        <ele>429</ele>
        <time>2021-12-21T09:22:20.000Z</time>
      </trkpt>
      <trkpt lat="44.02917" lon="5.97566">
        <ele>429</ele>
        <time>2021-12-21T09:22:21.000Z</time>
      </trkpt>
      <trkpt lat="44.02917" lon="5.97566">
        <ele>429</ele>
        <time>2021-12-21T09:22:22.000Z</time>
      </trkpt>
      <trkpt lat="44.02917" lon="5.97566">
        <ele>429</ele>
        <time>2021-12-21T09:22:23.000Z</time>
      </trkpt>
      <trkpt lat="44.02917" lon="5.97566">
        <ele>429</ele>
        <time>2021-12-21T09:22:24.000Z</time>
      </trkpt>
      <trkpt lat="44.02917" lon="5.97566">
        <ele>429</ele>
        <time>2021-12-21T09:22:25.000Z</time>
      </trkpt>
      <trkpt lat="44.02917" lon="5.97566">
        <ele>429</ele>
        <time>2021-12-21T09:22:26.000Z</time>
      </trkpt>
      <trkpt lat="44.02917" lon="5.97566">
        <ele>429</ele>
        <time>2021-12-21T09:22:27.000Z</time>
      </trkpt>
      <trkpt lat="44.02917" lon="5.97566">
        <ele>429</ele>
        <time>2021-12-21T09:22:28.000Z</time>
      </trkpt>
      <trkpt lat="44.02917" lon="5.97566">
        <ele>429</ele>
        <time>2021-12-21T09:22:29.000Z</time>
      </trkpt>
      <trkpt lat="44.02917" lon="5.97566">
        <ele>429</ele>
        <time>2021-12-21T09:22:30.000Z</time>
      </trkpt>
      <trkpt lat="44.02918" lon="5.97566">
        <ele>429</ele>
        <time>2021-12-21T09:22:31.000Z</time>
      </trkpt>
      <trkpt lat="44.02917" lon="5.97566">
        <ele>429</ele>
        <time>2021-12-21T09:22:32.000Z</time>
      </trkpt>
      <trkpt lat="44.02917" lon="5.97566">
        <ele>429</ele>
        <time>2021-12-21T09:22:33.000Z</time>
      </trkpt>
      <trkpt lat="44.02917" lon="5.97566">
        <ele>429</ele>
        <time>2021-12-21T09:22:34.000Z</time>
      </trkpt>
      <trkpt lat="44.02918" lon="5.97566">
        <ele>429</ele>
        <time>2021-12-21T09:22:35.000Z</time>
      </trkpt>
      <trkpt lat="44.02918" lon="5.97566">
        <ele>429</ele>
        <time>2021-12-21T09:22:36.000Z</time>
      </trkpt>
      <trkpt lat="44.02917" lon="5.97567">
        <ele>429</ele>
        <time>2021-12-21T09:22:37.000Z</time>
      </trkpt>
      <trkpt lat="44.02917" lon="5.97567">
        <ele>429</ele>
        <time>2021-12-21T09:22:38.000Z</time>
      </trkpt>
      <trkpt lat="44.02917" lon="5.97567">
        <ele>429</ele>
        <time>2021-12-21T09:22:39.000Z</time>
      </trkpt>
      <trkpt lat="44.02917" lon="5.97567">
        <ele>429</ele>
        <time>2021-12-21T09:22:40.000Z</time>
      </trkpt>
      <trkpt lat="44.02917" lon="5.97567">
        <ele>429</ele>
        <time>2021-12-21T09:22:41.000Z</time>
      </trkpt>
      <trkpt lat="44.02917" lon="5.97566">
        <ele>429</ele>
        <time>2021-12-21T09:22:42.000Z</time>
      </trkpt>
      <trkpt lat="44.02917" lon="5.97566">
        <ele>429</ele>
        <time>2021-12-21T09:22:43.000Z</time>
      </trkpt>
      <trkpt lat="44.02918" lon="5.97566">
        <ele>429</ele>
        <time>2021-12-21T09:22:44.000Z</time>
      </trkpt>
      <trkpt lat="44.02918" lon="5.97566">
        <ele>429</ele>
        <time>2021-12-21T09:22:45.000Z</time>
      </trkpt>
      <trkpt lat="44.02918" lon="5.97566">
        <ele>429</ele>
        <time>2021-12-21T09:22:46.000Z</time>
      </trkpt>
      <trkpt lat="44.02918" lon="5.97566">
        <ele>429</ele>
        <time>2021-12-21T09:22:47.000Z</time>
      </trkpt>
      <trkpt lat="44.02918" lon="5.97566">
        <ele>429</ele>
        <time>2021-12-21T09:22:48.000Z</time>
      </trkpt>
      <trkpt lat="44.02918" lon="5.97566">
        <ele>429</ele>
        <time>2021-12-21T09:22:49.000Z</time>
      </trkpt>
      <trkpt lat="44.02918" lon="5.97566">
        <ele>429</ele>
        <time>2021-12-21T09:22:50.000Z</time>
      </trkpt>
      <trkpt lat="44.02918" lon="5.97566">
        <ele>429</ele>
        <time>2021-12-21T09:22:51.000Z</time>
      </trkpt>
      <trkpt lat="44.02918" lon="5.97566">
        <ele>429</ele>
        <time>2021-12-21T09:22:52.000Z</time>
      </trkpt>
      <trkpt lat="44.02918" lon="5.97566">
        <ele>429</ele>
        <time>2021-12-21T09:22:53.000Z</time>
      </trkpt>
      <trkpt lat="44.02918" lon="5.97566">
        <ele>429</ele>
        <time>2021-12-21T09:22:54.000Z</time>
      </trkpt>
      <trkpt lat="44.02918" lon="5.97566">
        <ele>429</ele>
        <time>2021-12-21T09:22:55.000Z</time>
      </trkpt>
      <trkpt lat="44.02918" lon="5.97566">
        <ele>429</ele>
        <time>2021-12-21T09:22:56.000Z</time>
      </trkpt>
      <trkpt lat="44.02918" lon="5.97566">
        <ele>429</ele>
        <time>2021-12-21T09:22:57.000Z</time>
      </trkpt>
      <trkpt lat="44.02918" lon="5.97566">
        <ele>429</ele>
        <time>2021-12-21T09:22:58.000Z</time>
      </trkpt>
      <trkpt lat="44.02918" lon="5.97566">
        <ele>429</ele>
        <time>2021-12-21T09:22:59.000Z</time>
      </trkpt>
      <trkpt lat="44.02918" lon="5.97566">
        <ele>429</ele>
        <time>2021-12-21T09:23:00.000Z</time>
      </trkpt>
      <trkpt lat="44.02918" lon="5.97566">
        <ele>429</ele>
        <time>2021-12-21T09:23:01.000Z</time>
      </trkpt>
      <trkpt lat="44.02917" lon="5.97566">
        <ele>429</ele>
        <time>2021-12-21T09:23:02.000Z</time>
      </trkpt>
      <trkpt lat="44.02917" lon="5.97566">
        <ele>429</ele>
        <time>2021-12-21T09:23:03.000Z</time>
      </trkpt>
      <trkpt lat="44.02917" lon="5.97566">
        <ele>429</ele>
        <time>2021-12-21T09:23:04.000Z</time>
      </trkpt>
      <trkpt lat="44.02917" lon="5.97565">
        <ele>429</ele>
        <time>2021-12-21T09:23:05.000Z</time>
      </trkpt>
      <trkpt lat="44.02917" lon="5.97565">
        <ele>429</ele>
        <time>2021-12-21T09:23:06.000Z</time>
      </trkpt>
      <trkpt lat="44.02917" lon="5.97565">
        <ele>429</ele>
        <time>2021-12-21T09:23:07.000Z</time>
      </trkpt>
      <trkpt lat="44.02917" lon="5.97565">
        <ele>429</ele>
        <time>2021-12-21T09:23:08.000Z</time>
      </trkpt>
      <trkpt lat="44.02918" lon="5.97565">
        <ele>429</ele>
        <time>2021-12-21T09:23:09.000Z</time>
      </trkpt>
      <trkpt lat="44.02918" lon="5.97565">
        <ele>429</ele>
        <time>2021-12-21T09:23:10.000Z</time>
      </trkpt>
      <trkpt lat="44.02917" lon="5.97566">
        <ele>429</ele>
        <time>2021-12-21T09:23:11.000Z</time>
      </trkpt>
      <trkpt lat="44.02918" lon="5.97566">
        <ele>429</ele>
        <time>2021-12-21T09:23:12.000Z</time>
      </trkpt>
      <trkpt lat="44.02918" lon="5.97566">
        <ele>429</ele>
        <time>2021-12-21T09:23:13.000Z</time>
      </trkpt>
      <trkpt lat="44.02918" lon="5.97566">
        <ele>429</ele>
        <time>2021-12-21T09:23:14.000Z</time>
      </trkpt>
      <trkpt lat="44.02918" lon="5.97566">
        <ele>429</ele>
        <time>2021-12-21T09:23:15.000Z</time>
      </trkpt>
      <trkpt lat="44.02918" lon="5.97566">
        <ele>429</ele>
        <time>2021-12-21T09:23:16.000Z</time>
      </trkpt>
      <trkpt lat="44.02918" lon="5.97566">
        <ele>429</ele>
        <time>2021-12-21T09:23:17.000Z</time>
      </trkpt>
      <trkpt lat="44.02918" lon="5.97565">
        <ele>429</ele>
        <time>2021-12-21T09:23:18.000Z</time>
      </trkpt>
      <trkpt lat="44.02918" lon="5.97566">
        <ele>429</ele>
        <time>2021-12-21T09:23:19.000Z</time>
      </trkpt>
      <trkpt lat="44.02917" lon="5.97566">
        <ele>430</ele>
        <time>2021-12-21T09:23:20.000Z</time>
      </trkpt>
      <trkpt lat="44.02917" lon="5.97566">
        <ele>430</ele>
        <time>2021-12-21T09:23:21.000Z</time>
      </trkpt>
      <trkpt lat="44.02917" lon="5.97567">
        <ele>429</ele>
        <time>2021-12-21T09:23:22.000Z</time>
      </trkpt>
      <trkpt lat="44.02917" lon="5.97567">
        <ele>429</ele>
        <time>2021-12-21T09:23:23.000Z</time>
      </trkpt>
      <trkpt lat="44.02917" lon="5.97567">
        <ele>429</ele>
        <time>2021-12-21T09:23:24.000Z</time>
      </trkpt>
      <trkpt lat="44.02917" lon="5.97567">
        <ele>429</ele>
        <time>2021-12-21T09:23:25.000Z</time>
      </trkpt>
      <trkpt lat="44.02917" lon="5.97567">
        <ele>429</ele>
        <time>2021-12-21T09:23:26.000Z</time>
      </trkpt>
      <trkpt lat="44.02917" lon="5.97567">
        <ele>429</ele>
        <time>2021-12-21T09:23:27.000Z</time>
      </trkpt>
      <trkpt lat="44.02917" lon="5.97567">
        <ele>429</ele>
        <time>2021-12-21T09:23:28.000Z</time>
      </trkpt>
      <trkpt lat="44.02918" lon="5.97567">
        <ele>429</ele>
        <time>2021-12-21T09:23:29.000Z</time>
      </trkpt>
      <trkpt lat="44.02918" lon="5.97567">
        <ele>429</ele>
        <time>2021-12-21T09:23:30.000Z</time>
      </trkpt>
      <trkpt lat="44.02917" lon="5.97567">
        <ele>429</ele>
        <time>2021-12-21T09:23:31.000Z</time>
      </trkpt>
      <trkpt lat="44.02917" lon="5.97567">
        <ele>429</ele>
        <time>2021-12-21T09:23:32.000Z</time>
      </trkpt>
      <trkpt lat="44.02918" lon="5.97567">
        <ele>429</ele>
        <time>2021-12-21T09:23:33.000Z</time>
      </trkpt>
      <trkpt lat="44.02918" lon="5.97567">
        <ele>429</ele>
        <time>2021-12-21T09:23:34.000Z</time>
      </trkpt>
      <trkpt lat="44.02918" lon="5.97567">
        <ele>428</ele>
        <time>2021-12-21T09:23:35.000Z</time>
      </trkpt>
      <trkpt lat="44.02917" lon="5.97567">
        <ele>428</ele>
        <time>2021-12-21T09:23:36.000Z</time>
      </trkpt>
      <trkpt lat="44.02918" lon="5.97567">
        <ele>428</ele>
        <time>2021-12-21T09:23:37.000Z</time>
      </trkpt>
      <trkpt lat="44.02918" lon="5.97567">
        <ele>428</ele>
        <time>2021-12-21T09:23:38.000Z</time>
      </trkpt>
      <trkpt lat="44.02918" lon="5.97567">
        <ele>428</ele>
        <time>2021-12-21T09:23:39.000Z</time>
      </trkpt>
      <trkpt lat="44.02918" lon="5.97567">
        <ele>428</ele>
        <time>2021-12-21T09:23:40.000Z</time>
      </trkpt>
      <trkpt lat="44.02918" lon="5.97567">
        <ele>428</ele>
        <time>2021-12-21T09:23:41.000Z</time>
      </trkpt>
      <trkpt lat="44.02918" lon="5.97567">
        <ele>428</ele>
        <time>2021-12-21T09:23:42.000Z</time>
      </trkpt>
      <trkpt lat="44.02918" lon="5.97567">
        <ele>428</ele>
        <time>2021-12-21T09:23:43.000Z</time>
      </trkpt>
      <trkpt lat="44.02917" lon="5.97567">
        <ele>428</ele>
        <time>2021-12-21T09:23:44.000Z</time>
      </trkpt>
      <trkpt lat="44.02917" lon="5.97567">
        <ele>428</ele>
        <time>2021-12-21T09:23:45.000Z</time>
      </trkpt>
      <trkpt lat="44.02917" lon="5.97567">
        <ele>427</ele>
        <time>2021-12-21T09:23:46.000Z</time>
      </trkpt>
      <trkpt lat="44.02917" lon="5.97567">
        <ele>427</ele>
        <time>2021-12-21T09:23:47.000Z</time>
      </trkpt>
      <trkpt lat="44.02917" lon="5.97567">
        <ele>427</ele>
        <time>2021-12-21T09:23:48.000Z</time>
      </trkpt>
      <trkpt lat="44.02918" lon="5.97567">
        <ele>427</ele>
        <time>2021-12-21T09:23:49.000Z</time>
      </trkpt>
      <trkpt lat="44.02918" lon="5.97567">
        <ele>427</ele>
        <time>2021-12-21T09:23:50.000Z</time>
      </trkpt>
      <trkpt lat="44.02918" lon="5.97567">
        <ele>427</ele>
        <time>2021-12-21T09:23:51.000Z</time>
      </trkpt>
      <trkpt lat="44.02918" lon="5.97567">
        <ele>427</ele>
        <time>2021-12-21T09:23:52.000Z</time>
      </trkpt>
      <trkpt lat="44.02918" lon="5.97567">
        <ele>427</ele>
        <time>2021-12-21T09:23:53.000Z</time>
      </trkpt>
      <trkpt lat="44.02918" lon="5.97566">
        <ele>427</ele>
        <time>2021-12-21T09:23:54.000Z</time>
      </trkpt>
      <trkpt lat="44.02917" lon="5.97566">
        <ele>427</ele>
        <time>2021-12-21T09:23:55.000Z</time>
      </trkpt>
      <trkpt lat="44.02917" lon="5.97566">
        <ele>427</ele>
        <time>2021-12-21T09:23:56.000Z</time>
      </trkpt>
      <trkpt lat="44.02917" lon="5.97566">
        <ele>427</ele>
        <time>2021-12-21T09:23:57.000Z</time>
      </trkpt>
      <trkpt lat="44.02917" lon="5.97566">
        <ele>427</ele>
        <time>2021-12-21T09:23:58.000Z</time>
      </trkpt>
      <trkpt lat="44.02916" lon="5.97566">
        <ele>427</ele>
        <time>2021-12-21T09:23:59.000Z</time>
      </trkpt>
      <trkpt lat="44.02916" lon="5.97566">
        <ele>427</ele>
        <time>2021-12-21T09:24:00.000Z</time>
      </trkpt>
      <trkpt lat="44.02917" lon="5.97565">
        <ele>427</ele>
        <time>2021-12-21T09:24:01.000Z</time>
      </trkpt>
      <trkpt lat="44.02916" lon="5.97565">
        <ele>426</ele>
        <time>2021-12-21T09:24:02.000Z</time>
      </trkpt>
      <trkpt lat="44.02916" lon="5.97564">
        <ele>426</ele>
        <time>2021-12-21T09:24:03.000Z</time>
      </trkpt>
      <trkpt lat="44.02917" lon="5.97563">
        <ele>426</ele>
        <time>2021-12-21T09:24:04.000Z</time>
      </trkpt>
      <trkpt lat="44.02917" lon="5.97562">
        <ele>426</ele>
        <time>2021-12-21T09:24:05.000Z</time>
      </trkpt>
      <trkpt lat="44.02917" lon="5.97562">
        <ele>426</ele>
        <time>2021-12-21T09:24:06.000Z</time>
      </trkpt>
      <trkpt lat="44.02917" lon="5.97562">
        <ele>425</ele>
        <time>2021-12-21T09:24:07.000Z</time>
      </trkpt>
      <trkpt lat="44.02917" lon="5.97561">
        <ele>425</ele>
        <time>2021-12-21T09:24:08.000Z</time>
      </trkpt>
      <trkpt lat="44.02917" lon="5.97561">
        <ele>425</ele>
        <time>2021-12-21T09:24:09.000Z</time>
      </trkpt>
      <trkpt lat="44.02917" lon="5.97561">
        <ele>425</ele>
        <time>2021-12-21T09:24:10.000Z</time>
      </trkpt>
      <trkpt lat="44.02916" lon="5.97561">
        <ele>424</ele>
        <time>2021-12-21T09:24:11.000Z</time>
      </trkpt>
      <trkpt lat="44.02916" lon="5.97561">
        <ele>424</ele>
        <time>2021-12-21T09:24:12.000Z</time>
      </trkpt>
      <trkpt lat="44.02916" lon="5.97561">
        <ele>424</ele>
        <time>2021-12-21T09:24:13.000Z</time>
      </trkpt>
      <trkpt lat="44.02916" lon="5.97561">
        <ele>424</ele>
        <time>2021-12-21T09:24:14.000Z</time>
      </trkpt>
      <trkpt lat="44.02916" lon="5.97561">
        <ele>424</ele>
        <time>2021-12-21T09:24:15.000Z</time>
      </trkpt>
      <trkpt lat="44.02916" lon="5.97561">
        <ele>424</ele>
        <time>2021-12-21T09:24:16.000Z</time>
      </trkpt>
      <trkpt lat="44.02916" lon="5.97561">
        <ele>424</ele>
        <time>2021-12-21T09:24:17.000Z</time>
      </trkpt>
      <trkpt lat="44.02916" lon="5.97561">
        <ele>424</ele>
        <time>2021-12-21T09:24:18.000Z</time>
      </trkpt>
      <trkpt lat="44.02916" lon="5.97561">
        <ele>424</ele>
        <time>2021-12-21T09:24:19.000Z</time>
      </trkpt>
      <trkpt lat="44.02916" lon="5.9756">
        <ele>423</ele>
        <time>2021-12-21T09:24:20.000Z</time>
      </trkpt>
      <trkpt lat="44.02916" lon="5.97559">
        <ele>423</ele>
        <time>2021-12-21T09:24:21.000Z</time>
      </trkpt>
      <trkpt lat="44.02916" lon="5.97559">
        <ele>423</ele>
        <time>2021-12-21T09:24:22.000Z</time>
      </trkpt>
      <trkpt lat="44.02916" lon="5.97559">
        <ele>423</ele>
        <time>2021-12-21T09:24:23.000Z</time>
      </trkpt>
      <trkpt lat="44.02916" lon="5.97559">
        <ele>423</ele>
        <time>2021-12-21T09:24:24.000Z</time>
      </trkpt>
      <trkpt lat="44.02916" lon="5.97559">
        <ele>423</ele>
        <time>2021-12-21T09:24:25.000Z</time>
      </trkpt>
      <trkpt lat="44.02916" lon="5.97559">
        <ele>423</ele>
        <time>2021-12-21T09:24:26.000Z</time>
      </trkpt>
      <trkpt lat="44.02916" lon="5.97559">
        <ele>423</ele>
        <time>2021-12-21T09:24:27.000Z</time>
      </trkpt>
      <trkpt lat="44.02916" lon="5.97559">
        <ele>423</ele>
        <time>2021-12-21T09:24:28.000Z</time>
      </trkpt>
      <trkpt lat="44.02916" lon="5.97559">
        <ele>423</ele>
        <time>2021-12-21T09:24:29.000Z</time>
      </trkpt>
      <trkpt lat="44.02916" lon="5.97558">
        <ele>423</ele>
        <time>2021-12-21T09:24:30.000Z</time>
      </trkpt>
      <trkpt lat="44.02916" lon="5.97558">
        <ele>423</ele>
        <time>2021-12-21T09:24:31.000Z</time>
      </trkpt>
      <trkpt lat="44.02915" lon="5.97557">
        <ele>423</ele>
        <time>2021-12-21T09:24:32.000Z</time>
      </trkpt>
      <trkpt lat="44.02915" lon="5.97556">
        <ele>423</ele>
        <time>2021-12-21T09:24:33.000Z</time>
      </trkpt>
      <trkpt lat="44.02915" lon="5.97556">
        <ele>423</ele>
        <time>2021-12-21T09:24:34.000Z</time>
      </trkpt>
      <trkpt lat="44.02915" lon="5.97555">
        <ele>423</ele>
        <time>2021-12-21T09:24:35.000Z</time>
      </trkpt>
      <trkpt lat="44.02915" lon="5.97555">
        <ele>423</ele>
        <time>2021-12-21T09:24:36.000Z</time>
      </trkpt>
      <trkpt lat="44.02915" lon="5.97555">
        <ele>422</ele>
        <time>2021-12-21T09:24:37.000Z</time>
      </trkpt>
      <trkpt lat="44.02915" lon="5.97555">
        <ele>422</ele>
        <time>2021-12-21T09:24:38.000Z</time>
      </trkpt>
      <trkpt lat="44.02915" lon="5.97555">
        <ele>422</ele>
        <time>2021-12-21T09:24:39.000Z</time>
      </trkpt>
      <trkpt lat="44.02915" lon="5.97555">
        <ele>422</ele>
        <time>2021-12-21T09:24:40.000Z</time>
      </trkpt>
      <trkpt lat="44.02915" lon="5.97555">
        <ele>422</ele>
        <time>2021-12-21T09:24:41.000Z</time>
      </trkpt>
      <trkpt lat="44.02915" lon="5.97555">
        <ele>422</ele>
        <time>2021-12-21T09:24:42.000Z</time>
      </trkpt>
      <trkpt lat="44.02915" lon="5.97555">
        <ele>422</ele>
        <time>2021-12-21T09:24:43.000Z</time>
      </trkpt>
      <trkpt lat="44.02915" lon="5.97555">
        <ele>422</ele>
        <time>2021-12-21T09:24:44.000Z</time>
      </trkpt>
      <trkpt lat="44.02915" lon="5.97555">
        <ele>422</ele>
        <time>2021-12-21T09:24:45.000Z</time>
      </trkpt>
      <trkpt lat="44.02915" lon="5.97555">
        <ele>422</ele>
        <time>2021-12-21T09:24:46.000Z</time>
      </trkpt>
      <trkpt lat="44.02915" lon="5.97555">
        <ele>422</ele>
        <time>2021-12-21T09:24:47.000Z</time>
      </trkpt>
      <trkpt lat="44.02915" lon="5.97555">
        <ele>422</ele>
        <time>2021-12-21T09:24:48.000Z</time>
      </trkpt>
      <trkpt lat="44.02915" lon="5.97555">
        <ele>422</ele>
        <time>2021-12-21T09:24:49.000Z</time>
      </trkpt>
      <trkpt lat="44.02915" lon="5.97555">
        <ele>422</ele>
        <time>2021-12-21T09:24:50.000Z</time>
      </trkpt>
      <trkpt lat="44.02915" lon="5.97555">
        <ele>422</ele>
        <time>2021-12-21T09:24:51.000Z</time>
      </trkpt>
      <trkpt lat="44.02915" lon="5.97555">
        <ele>422</ele>
        <time>2021-12-21T09:24:52.000Z</time>
      </trkpt>
      <trkpt lat="44.02915" lon="5.97555">
        <ele>422</ele>
        <time>2021-12-21T09:24:53.000Z</time>
      </trkpt>
      <trkpt lat="44.02915" lon="5.97555">
        <ele>422</ele>
        <time>2021-12-21T09:24:54.000Z</time>
      </trkpt>
      <trkpt lat="44.02915" lon="5.97555">
        <ele>422</ele>
        <time>2021-12-21T09:24:55.000Z</time>
      </trkpt>
      <trkpt lat="44.02915" lon="5.97555">
        <ele>422</ele>
        <time>2021-12-21T09:24:56.000Z</time>
      </trkpt>
      <trkpt lat="44.02915" lon="5.97555">
        <ele>422</ele>
        <time>2021-12-21T09:24:57.000Z</time>
      </trkpt>
      <trkpt lat="44.02915" lon="5.97555">
        <ele>422</ele>
        <time>2021-12-21T09:24:58.000Z</time>
      </trkpt>
      <trkpt lat="44.02915" lon="5.97555">
        <ele>422</ele>
        <time>2021-12-21T09:24:59.000Z</time>
      </trkpt>
      <trkpt lat="44.02915" lon="5.97555">
        <ele>422</ele>
        <time>2021-12-21T09:25:00.000Z</time>
      </trkpt>
      <trkpt lat="44.02915" lon="5.97555">
        <ele>422</ele>
        <time>2021-12-21T09:25:01.000Z</time>
      </trkpt>
      <trkpt lat="44.02915" lon="5.97555">
        <ele>422</ele>
        <time>2021-12-21T09:25:02.000Z</time>
      </trkpt>
      <trkpt lat="44.02915" lon="5.97555">
        <ele>422</ele>
        <time>2021-12-21T09:25:03.000Z</time>
      </trkpt>
      <trkpt lat="44.02915" lon="5.97554">
        <ele>422</ele>
        <time>2021-12-21T09:25:04.000Z</time>
      </trkpt>
      <trkpt lat="44.02915" lon="5.97552">
        <ele>422</ele>
        <time>2021-12-21T09:25:05.000Z</time>
      </trkpt>
      <trkpt lat="44.02915" lon="5.97551">
        <ele>422</ele>
        <time>2021-12-21T09:25:06.000Z</time>
      </trkpt>
      <trkpt lat="44.02915" lon="5.97549">
        <ele>422</ele>
        <time>2021-12-21T09:25:07.000Z</time>
      </trkpt>
      <trkpt lat="44.02915" lon="5.97549">
        <ele>422</ele>
        <time>2021-12-21T09:25:08.000Z</time>
      </trkpt>
      <trkpt lat="44.02915" lon="5.97548">
        <ele>422</ele>
        <time>2021-12-21T09:25:09.000Z</time>
      </trkpt>
      <trkpt lat="44.02915" lon="5.97548">
        <ele>422</ele>
        <time>2021-12-21T09:25:10.000Z</time>
      </trkpt>
      <trkpt lat="44.02915" lon="5.97547">
        <ele>422</ele>
        <time>2021-12-21T09:25:11.000Z</time>
      </trkpt>
      <trkpt lat="44.02914" lon="5.97546">
        <ele>422</ele>
        <time>2021-12-21T09:25:12.000Z</time>
      </trkpt>
      <trkpt lat="44.02913" lon="5.97544">
        <ele>422</ele>
        <time>2021-12-21T09:25:13.000Z</time>
      </trkpt>
      <trkpt lat="44.02912" lon="5.97543">
        <ele>422</ele>
        <time>2021-12-21T09:25:14.000Z</time>
      </trkpt>
      <trkpt lat="44.02911" lon="5.97542">
        <ele>422</ele>
        <time>2021-12-21T09:25:15.000Z</time>
      </trkpt>
      <trkpt lat="44.0291" lon="5.97541">
        <ele>422</ele>
        <time>2021-12-21T09:25:16.000Z</time>
      </trkpt>
      <trkpt lat="44.02908" lon="5.9754">
        <ele>422</ele>
        <time>2021-12-21T09:25:17.000Z</time>
      </trkpt>
      <trkpt lat="44.02907" lon="5.97539">
        <ele>422</ele>
        <time>2021-12-21T09:25:18.000Z</time>
      </trkpt>
      <trkpt lat="44.02906" lon="5.97538">
        <ele>422</ele>
        <time>2021-12-21T09:25:19.000Z</time>
      </trkpt>
      <trkpt lat="44.02905" lon="5.97537">
        <ele>422</ele>
        <time>2021-12-21T09:25:20.000Z</time>
      </trkpt>
      <trkpt lat="44.02903" lon="5.97537">
        <ele>421</ele>
        <time>2021-12-21T09:25:21.000Z</time>
      </trkpt>
      <trkpt lat="44.02902" lon="5.97537">
        <ele>421</ele>
        <time>2021-12-21T09:25:22.000Z</time>
      </trkpt>
      <trkpt lat="44.029" lon="5.97537">
        <ele>421</ele>
        <time>2021-12-21T09:25:23.000Z</time>
      </trkpt>
      <trkpt lat="44.02898" lon="5.97537">
        <ele>420</ele>
        <time>2021-12-21T09:25:24.000Z</time>
      </trkpt>
      <trkpt lat="44.02896" lon="5.97537">
        <ele>420</ele>
        <time>2021-12-21T09:25:25.000Z</time>
      </trkpt>
      <trkpt lat="44.02895" lon="5.97538">
        <ele>420</ele>
        <time>2021-12-21T09:25:26.000Z</time>
      </trkpt>
      <trkpt lat="44.02893" lon="5.97538">
        <ele>420</ele>
        <time>2021-12-21T09:25:27.000Z</time>
      </trkpt>
      <trkpt lat="44.02892" lon="5.97538">
        <ele>419</ele>
        <time>2021-12-21T09:25:28.000Z</time>
      </trkpt>
      <trkpt lat="44.0289" lon="5.97538">
        <ele>419</ele>
        <time>2021-12-21T09:25:29.000Z</time>
      </trkpt>
      <trkpt lat="44.02889" lon="5.97538">
        <ele>419</ele>
        <time>2021-12-21T09:25:30.000Z</time>
      </trkpt>
      <trkpt lat="44.02888" lon="5.97539">
        <ele>419</ele>
        <time>2021-12-21T09:25:31.000Z</time>
      </trkpt>
      <trkpt lat="44.02886" lon="5.97539">
        <ele>419</ele>
        <time>2021-12-21T09:25:32.000Z</time>
      </trkpt>
      <trkpt lat="44.02885" lon="5.97539">
        <ele>419</ele>
        <time>2021-12-21T09:25:33.000Z</time>
      </trkpt>
      <trkpt lat="44.02883" lon="5.97539">
        <ele>419</ele>
        <time>2021-12-21T09:25:34.000Z</time>
      </trkpt>
      <trkpt lat="44.02882" lon="5.97539">
        <ele>419</ele>
        <time>2021-12-21T09:25:35.000Z</time>
      </trkpt>
      <trkpt lat="44.02881" lon="5.97539">
        <ele>419</ele>
        <time>2021-12-21T09:25:36.000Z</time>
      </trkpt>
      <trkpt lat="44.02879" lon="5.9754">
        <ele>419</ele>
        <time>2021-12-21T09:25:37.000Z</time>
      </trkpt>
      <trkpt lat="44.02878" lon="5.9754">
        <ele>419</ele>
        <time>2021-12-21T09:25:38.000Z</time>
      </trkpt>
      <trkpt lat="44.02877" lon="5.9754">
        <ele>419</ele>
        <time>2021-12-21T09:25:39.000Z</time>
      </trkpt>
      <trkpt lat="44.02876" lon="5.9754">
        <ele>419</ele>
        <time>2021-12-21T09:25:40.000Z</time>
      </trkpt>
      <trkpt lat="44.02875" lon="5.97539">
        <ele>419</ele>
        <time>2021-12-21T09:25:41.000Z</time>
      </trkpt>
      <trkpt lat="44.02874" lon="5.97539">
        <ele>420</ele>
        <time>2021-12-21T09:25:42.000Z</time>
      </trkpt>
      <trkpt lat="44.02873" lon="5.97539">
        <ele>420</ele>
        <time>2021-12-21T09:25:43.000Z</time>
      </trkpt>
      <trkpt lat="44.02872" lon="5.97538">
        <ele>420</ele>
        <time>2021-12-21T09:25:44.000Z</time>
      </trkpt>
      <trkpt lat="44.0287" lon="5.97538">
        <ele>420</ele>
        <time>2021-12-21T09:25:45.000Z</time>
      </trkpt>
      <trkpt lat="44.02869" lon="5.97538">
        <ele>420</ele>
        <time>2021-12-21T09:25:46.000Z</time>
      </trkpt>
      <trkpt lat="44.02867" lon="5.97538">
        <ele>420</ele>
        <time>2021-12-21T09:25:47.000Z</time>
      </trkpt>
      <trkpt lat="44.02866" lon="5.97538">
        <ele>420</ele>
        <time>2021-12-21T09:25:48.000Z</time>
      </trkpt>
      <trkpt lat="44.02864" lon="5.97538">
        <ele>420</ele>
        <time>2021-12-21T09:25:49.000Z</time>
      </trkpt>
      <trkpt lat="44.02863" lon="5.97538">
        <ele>420</ele>
        <time>2021-12-21T09:25:50.000Z</time>
      </trkpt>
      <trkpt lat="44.02862" lon="5.97538">
        <ele>420</ele>
        <time>2021-12-21T09:25:51.000Z</time>
      </trkpt>
      <trkpt lat="44.0286" lon="5.97538">
        <ele>420</ele>
        <time>2021-12-21T09:25:52.000Z</time>
      </trkpt>
      <trkpt lat="44.02858" lon="5.97538">
        <ele>420</ele>
        <time>2021-12-21T09:25:53.000Z</time>
      </trkpt>
      <trkpt lat="44.02857" lon="5.97539">
        <ele>420</ele>
        <time>2021-12-21T09:25:54.000Z</time>
      </trkpt>
      <trkpt lat="44.02855" lon="5.97538">
        <ele>420</ele>
        <time>2021-12-21T09:25:55.000Z</time>
      </trkpt>
      <trkpt lat="44.02854" lon="5.97539">
        <ele>420</ele>
        <time>2021-12-21T09:25:56.000Z</time>
      </trkpt>
      <trkpt lat="44.02853" lon="5.97538">
        <ele>419</ele>
        <time>2021-12-21T09:25:57.000Z</time>
      </trkpt>
      <trkpt lat="44.02851" lon="5.97539">
        <ele>419</ele>
        <time>2021-12-21T09:25:58.000Z</time>
      </trkpt>
      <trkpt lat="44.0285" lon="5.97538">
        <ele>419</ele>
        <time>2021-12-21T09:25:59.000Z</time>
      </trkpt>
      <trkpt lat="44.02849" lon="5.97538">
        <ele>419</ele>
        <time>2021-12-21T09:26:00.000Z</time>
      </trkpt>
      <trkpt lat="44.02848" lon="5.97538">
        <ele>419</ele>
        <time>2021-12-21T09:26:01.000Z</time>
      </trkpt>
      <trkpt lat="44.02846" lon="5.97537">
        <ele>419</ele>
        <time>2021-12-21T09:26:02.000Z</time>
      </trkpt>
      <trkpt lat="44.02845" lon="5.97536">
        <ele>419</ele>
        <time>2021-12-21T09:26:03.000Z</time>
      </trkpt>
      <trkpt lat="44.02844" lon="5.97535">
        <ele>418</ele>
        <time>2021-12-21T09:26:04.000Z</time>
      </trkpt>
      <trkpt lat="44.02843" lon="5.97533">
        <ele>418</ele>
        <time>2021-12-21T09:26:05.000Z</time>
      </trkpt>
      <trkpt lat="44.02843" lon="5.97532">
        <ele>418</ele>
        <time>2021-12-21T09:26:06.000Z</time>
      </trkpt>
      <trkpt lat="44.02843" lon="5.9753">
        <ele>418</ele>
        <time>2021-12-21T09:26:07.000Z</time>
      </trkpt>
      <trkpt lat="44.02842" lon="5.97528">
        <ele>417</ele>
        <time>2021-12-21T09:26:08.000Z</time>
      </trkpt>
      <trkpt lat="44.02842" lon="5.97526">
        <ele>417</ele>
        <time>2021-12-21T09:26:09.000Z</time>
      </trkpt>
      <trkpt lat="44.02841" lon="5.97524">
        <ele>417</ele>
        <time>2021-12-21T09:26:10.000Z</time>
      </trkpt>
      <trkpt lat="44.02841" lon="5.97523">
        <ele>417</ele>
        <time>2021-12-21T09:26:11.000Z</time>
      </trkpt>
      <trkpt lat="44.02841" lon="5.97521">
        <ele>416</ele>
        <time>2021-12-21T09:26:12.000Z</time>
      </trkpt>
      <trkpt lat="44.02841" lon="5.97519">
        <ele>416</ele>
        <time>2021-12-21T09:26:13.000Z</time>
      </trkpt>
      <trkpt lat="44.02841" lon="5.97517">
        <ele>416</ele>
        <time>2021-12-21T09:26:14.000Z</time>
      </trkpt>
      <trkpt lat="44.0284" lon="5.97515">
        <ele>416</ele>
        <time>2021-12-21T09:26:15.000Z</time>
      </trkpt>
      <trkpt lat="44.0284" lon="5.97513">
        <ele>415</ele>
        <time>2021-12-21T09:26:16.000Z</time>
      </trkpt>
      <trkpt lat="44.02839" lon="5.97512">
        <ele>415</ele>
        <time>2021-12-21T09:26:17.000Z</time>
      </trkpt>
      <trkpt lat="44.02839" lon="5.9751">
        <ele>415</ele>
        <time>2021-12-21T09:26:18.000Z</time>
      </trkpt>
      <trkpt lat="44.02839" lon="5.97508">
        <ele>415</ele>
        <time>2021-12-21T09:26:19.000Z</time>
      </trkpt>
      <trkpt lat="44.02838" lon="5.97506">
        <ele>414</ele>
        <time>2021-12-21T09:26:20.000Z</time>
      </trkpt>
      <trkpt lat="44.02838" lon="5.97504">
        <ele>414</ele>
        <time>2021-12-21T09:26:21.000Z</time>
      </trkpt>
      <trkpt lat="44.02838" lon="5.97502">
        <ele>414</ele>
        <time>2021-12-21T09:26:22.000Z</time>
      </trkpt>
      <trkpt lat="44.02837" lon="5.97501">
        <ele>414</ele>
        <time>2021-12-21T09:26:23.000Z</time>
      </trkpt>
      <trkpt lat="44.02837" lon="5.97499">
        <ele>414</ele>
        <time>2021-12-21T09:26:24.000Z</time>
      </trkpt>
      <trkpt lat="44.02837" lon="5.97497">
        <ele>413</ele>
        <time>2021-12-21T09:26:25.000Z</time>
      </trkpt>
      <trkpt lat="44.02836" lon="5.97495">
        <ele>413</ele>
        <time>2021-12-21T09:26:26.000Z</time>
      </trkpt>
      <trkpt lat="44.02836" lon="5.97493">
        <ele>413</ele>
        <time>2021-12-21T09:26:27.000Z</time>
      </trkpt>
      <trkpt lat="44.02836" lon="5.97491">
        <ele>413</ele>
        <time>2021-12-21T09:26:28.000Z</time>
      </trkpt>
      <trkpt lat="44.02835" lon="5.9749">
        <ele>413</ele>
        <time>2021-12-21T09:26:29.000Z</time>
      </trkpt>
      <trkpt lat="44.02834" lon="5.97488">
        <ele>413</ele>
        <time>2021-12-21T09:26:30.000Z</time>
      </trkpt>
      <trkpt lat="44.02834" lon="5.97486">
        <ele>413</ele>
        <time>2021-12-21T09:26:31.000Z</time>
      </trkpt>
      <trkpt lat="44.02833" lon="5.97484">
        <ele>412</ele>
        <time>2021-12-21T09:26:32.000Z</time>
      </trkpt>
      <trkpt lat="44.02833" lon="5.97482">
        <ele>412</ele>
        <time>2021-12-21T09:26:33.000Z</time>
      </trkpt>
      <trkpt lat="44.02832" lon="5.97481">
        <ele>412</ele>
        <time>2021-12-21T09:26:34.000Z</time>
      </trkpt>
      <trkpt lat="44.02832" lon="5.97479">
        <ele>412</ele>
        <time>2021-12-21T09:26:35.000Z</time>
      </trkpt>
      <trkpt lat="44.02831" lon="5.97477">
        <ele>412</ele>
        <time>2021-12-21T09:26:36.000Z</time>
      </trkpt>
      <trkpt lat="44.02831" lon="5.97475">
        <ele>412</ele>
        <time>2021-12-21T09:26:37.000Z</time>
      </trkpt>
      <trkpt lat="44.0283" lon="5.97473">
        <ele>412</ele>
        <time>2021-12-21T09:26:38.000Z</time>
      </trkpt>
      <trkpt lat="44.0283" lon="5.97472">
        <ele>412</ele>
        <time>2021-12-21T09:26:39.000Z</time>
      </trkpt>
      <trkpt lat="44.02829" lon="5.9747">
        <ele>412</ele>
        <time>2021-12-21T09:26:40.000Z</time>
      </trkpt>
      <trkpt lat="44.02828" lon="5.97468">
        <ele>412</ele>
        <time>2021-12-21T09:26:41.000Z</time>
      </trkpt>
      <trkpt lat="44.02828" lon="5.97467">
        <ele>412</ele>
        <time>2021-12-21T09:26:42.000Z</time>
      </trkpt>
      <trkpt lat="44.02827" lon="5.97465">
        <ele>412</ele>
        <time>2021-12-21T09:26:43.000Z</time>
      </trkpt>
      <trkpt lat="44.02826" lon="5.97464">
        <ele>412</ele>
        <time>2021-12-21T09:26:44.000Z</time>
      </trkpt>
      <trkpt lat="44.02825" lon="5.97463">
        <ele>412</ele>
        <time>2021-12-21T09:26:45.000Z</time>
      </trkpt>
      <trkpt lat="44.02825" lon="5.97461">
        <ele>412</ele>
        <time>2021-12-21T09:26:46.000Z</time>
      </trkpt>
      <trkpt lat="44.02824" lon="5.9746">
        <ele>412</ele>
        <time>2021-12-21T09:26:47.000Z</time>
      </trkpt>
      <trkpt lat="44.02823" lon="5.97458">
        <ele>412</ele>
        <time>2021-12-21T09:26:48.000Z</time>
      </trkpt>
      <trkpt lat="44.02822" lon="5.97457">
        <ele>412</ele>
        <time>2021-12-21T09:26:49.000Z</time>
      </trkpt>
      <trkpt lat="44.02821" lon="5.97456">
        <ele>412</ele>
        <time>2021-12-21T09:26:50.000Z</time>
      </trkpt>
      <trkpt lat="44.02821" lon="5.97454">
        <ele>412</ele>
        <time>2021-12-21T09:26:51.000Z</time>
      </trkpt>
      <trkpt lat="44.0282" lon="5.97453">
        <ele>412</ele>
        <time>2021-12-21T09:26:52.000Z</time>
      </trkpt>
      <trkpt lat="44.02819" lon="5.97451">
        <ele>412</ele>
        <time>2021-12-21T09:26:53.000Z</time>
      </trkpt>
      <trkpt lat="44.02819" lon="5.9745">
        <ele>412</ele>
        <time>2021-12-21T09:26:54.000Z</time>
      </trkpt>
      <trkpt lat="44.02818" lon="5.97448">
        <ele>412</ele>
        <time>2021-12-21T09:26:55.000Z</time>
      </trkpt>
      <trkpt lat="44.02817" lon="5.97447">
        <ele>412</ele>
        <time>2021-12-21T09:26:56.000Z</time>
      </trkpt>
      <trkpt lat="44.02816" lon="5.97445">
        <ele>412</ele>
        <time>2021-12-21T09:26:57.000Z</time>
      </trkpt>
      <trkpt lat="44.02815" lon="5.97444">
        <ele>412</ele>
        <time>2021-12-21T09:26:58.000Z</time>
      </trkpt>
      <trkpt lat="44.02815" lon="5.97442">
        <ele>412</ele>
        <time>2021-12-21T09:26:59.000Z</time>
      </trkpt>
      <trkpt lat="44.02814" lon="5.97441">
        <ele>412</ele>
        <time>2021-12-21T09:27:00.000Z</time>
      </trkpt>
      <trkpt lat="44.02813" lon="5.97439">
        <ele>411</ele>
        <time>2021-12-21T09:27:01.000Z</time>
      </trkpt>
      <trkpt lat="44.02812" lon="5.97438">
        <ele>411</ele>
        <time>2021-12-21T09:27:02.000Z</time>
      </trkpt>
      <trkpt lat="44.02811" lon="5.97436">
        <ele>411</ele>
        <time>2021-12-21T09:27:03.000Z</time>
      </trkpt>
      <trkpt lat="44.02811" lon="5.97435">
        <ele>411</ele>
        <time>2021-12-21T09:27:04.000Z</time>
      </trkpt>
      <trkpt lat="44.0281" lon="5.97433">
        <ele>411</ele>
        <time>2021-12-21T09:27:05.000Z</time>
      </trkpt>
      <trkpt lat="44.02809" lon="5.97432">
        <ele>411</ele>
        <time>2021-12-21T09:27:06.000Z</time>
      </trkpt>
      <trkpt lat="44.02809" lon="5.9743">
        <ele>411</ele>
        <time>2021-12-21T09:27:07.000Z</time>
      </trkpt>
      <trkpt lat="44.02808" lon="5.97429">
        <ele>411</ele>
        <time>2021-12-21T09:27:08.000Z</time>
      </trkpt>
      <trkpt lat="44.02808" lon="5.97428">
        <ele>411</ele>
        <time>2021-12-21T09:27:09.000Z</time>
      </trkpt>
      <trkpt lat="44.02807" lon="5.97427">
        <ele>411</ele>
        <time>2021-12-21T09:27:10.000Z</time>
      </trkpt>
      <trkpt lat="44.02806" lon="5.97426">
        <ele>411</ele>
        <time>2021-12-21T09:27:11.000Z</time>
      </trkpt>
      <trkpt lat="44.02805" lon="5.97425">
        <ele>411</ele>
        <time>2021-12-21T09:27:12.000Z</time>
      </trkpt>
      <trkpt lat="44.02804" lon="5.97423">
        <ele>411</ele>
        <time>2021-12-21T09:27:13.000Z</time>
      </trkpt>
      <trkpt lat="44.02802" lon="5.97422">
        <ele>411</ele>
        <time>2021-12-21T09:27:14.000Z</time>
      </trkpt>
      <trkpt lat="44.02801" lon="5.97421">
        <ele>411</ele>
        <time>2021-12-21T09:27:15.000Z</time>
      </trkpt>
      <trkpt lat="44.028" lon="5.9742">
        <ele>411</ele>
        <time>2021-12-21T09:27:16.000Z</time>
      </trkpt>
      <trkpt lat="44.02799" lon="5.97419">
        <ele>411</ele>
        <time>2021-12-21T09:27:17.000Z</time>
      </trkpt>
      <trkpt lat="44.02798" lon="5.97418">
        <ele>411</ele>
        <time>2021-12-21T09:27:18.000Z</time>
      </trkpt>
      <trkpt lat="44.02797" lon="5.97416">
        <ele>411</ele>
        <time>2021-12-21T09:27:19.000Z</time>
      </trkpt>
      <trkpt lat="44.02795" lon="5.97415">
        <ele>411</ele>
        <time>2021-12-21T09:27:20.000Z</time>
      </trkpt>
      <trkpt lat="44.02794" lon="5.97414">
        <ele>411</ele>
        <time>2021-12-21T09:27:21.000Z</time>
      </trkpt>
      <trkpt lat="44.02793" lon="5.97413">
        <ele>411</ele>
        <time>2021-12-21T09:27:22.000Z</time>
      </trkpt>
      <trkpt lat="44.02792" lon="5.97412">
        <ele>411</ele>
        <time>2021-12-21T09:27:23.000Z</time>
      </trkpt>
      <trkpt lat="44.0279" lon="5.97411">
        <ele>410</ele>
        <time>2021-12-21T09:27:24.000Z</time>
      </trkpt>
      <trkpt lat="44.02789" lon="5.9741">
        <ele>410</ele>
        <time>2021-12-21T09:27:25.000Z</time>
      </trkpt>
      <trkpt lat="44.02788" lon="5.97409">
        <ele>410</ele>
        <time>2021-12-21T09:27:26.000Z</time>
      </trkpt>
      <trkpt lat="44.02787" lon="5.97407">
        <ele>410</ele>
        <time>2021-12-21T09:27:27.000Z</time>
      </trkpt>
      <trkpt lat="44.02786" lon="5.97406">
        <ele>410</ele>
        <time>2021-12-21T09:27:28.000Z</time>
      </trkpt>
      <trkpt lat="44.02785" lon="5.97405">
        <ele>410</ele>
        <time>2021-12-21T09:27:29.000Z</time>
      </trkpt>
      <trkpt lat="44.02784" lon="5.97404">
        <ele>410</ele>
        <time>2021-12-21T09:27:30.000Z</time>
      </trkpt>
      <trkpt lat="44.02783" lon="5.97403">
        <ele>410</ele>
        <time>2021-12-21T09:27:31.000Z</time>
      </trkpt>
      <trkpt lat="44.02782" lon="5.97403">
        <ele>410</ele>
        <time>2021-12-21T09:27:32.000Z</time>
      </trkpt>
      <trkpt lat="44.02781" lon="5.97403">
        <ele>410</ele>
        <time>2021-12-21T09:27:33.000Z</time>
      </trkpt>
      <trkpt lat="44.0278" lon="5.97403">
        <ele>410</ele>
        <time>2021-12-21T09:27:34.000Z</time>
      </trkpt>
      <trkpt lat="44.02779" lon="5.97403">
        <ele>409</ele>
        <time>2021-12-21T09:27:35.000Z</time>
      </trkpt>
      <trkpt lat="44.02779" lon="5.97403">
        <ele>409</ele>
        <time>2021-12-21T09:27:36.000Z</time>
      </trkpt>
      <trkpt lat="44.02779" lon="5.97403">
        <ele>409</ele>
        <time>2021-12-21T09:27:37.000Z</time>
      </trkpt>
      <trkpt lat="44.02779" lon="5.97403">
        <ele>409</ele>
        <time>2021-12-21T09:27:38.000Z</time>
      </trkpt>
      <trkpt lat="44.02779" lon="5.97403">
        <ele>409</ele>
        <time>2021-12-21T09:27:39.000Z</time>
      </trkpt>
      <trkpt lat="44.02779" lon="5.97403">
        <ele>409</ele>
        <time>2021-12-21T09:27:40.000Z</time>
      </trkpt>
      <trkpt lat="44.02779" lon="5.97403">
        <ele>409</ele>
        <time>2021-12-21T09:27:41.000Z</time>
      </trkpt>
      <trkpt lat="44.02779" lon="5.97403">
        <ele>409</ele>
        <time>2021-12-21T09:27:42.000Z</time>
      </trkpt>
      <trkpt lat="44.02779" lon="5.97403">
        <ele>409</ele>
        <time>2021-12-21T09:27:43.000Z</time>
      </trkpt>
      <trkpt lat="44.02779" lon="5.97403">
        <ele>409</ele>
        <time>2021-12-21T09:27:44.000Z</time>
      </trkpt>
      <trkpt lat="44.02779" lon="5.97403">
        <ele>409</ele>
        <time>2021-12-21T09:27:45.000Z</time>
      </trkpt>
      <trkpt lat="44.02779" lon="5.97403">
        <ele>409</ele>
        <time>2021-12-21T09:27:46.000Z</time>
      </trkpt>
      <trkpt lat="44.02779" lon="5.97403">
        <ele>408</ele>
        <time>2021-12-21T09:27:47.000Z</time>
      </trkpt>
      <trkpt lat="44.02779" lon="5.97403">
        <ele>408</ele>
        <time>2021-12-21T09:27:48.000Z</time>
      </trkpt>
      <trkpt lat="44.02779" lon="5.97403">
        <ele>408</ele>
        <time>2021-12-21T09:27:49.000Z</time>
      </trkpt>
      <trkpt lat="44.02779" lon="5.97403">
        <ele>408</ele>
        <time>2021-12-21T09:27:50.000Z</time>
      </trkpt>
      <trkpt lat="44.02779" lon="5.97403">
        <ele>408</ele>
        <time>2021-12-21T09:27:51.000Z</time>
      </trkpt>
      <trkpt lat="44.02779" lon="5.97403">
        <ele>408</ele>
        <time>2021-12-21T09:27:52.000Z</time>
      </trkpt>
      <trkpt lat="44.02779" lon="5.97403">
        <ele>408</ele>
        <time>2021-12-21T09:27:53.000Z</time>
      </trkpt>
      <trkpt lat="44.02779" lon="5.97403">
        <ele>408</ele>
        <time>2021-12-21T09:27:54.000Z</time>
      </trkpt>
      <trkpt lat="44.02779" lon="5.97403">
        <ele>408</ele>
        <time>2021-12-21T09:27:55.000Z</time>
      </trkpt>
      <trkpt lat="44.02779" lon="5.97403">
        <ele>408</ele>
        <time>2021-12-21T09:27:56.000Z</time>
      </trkpt>
      <trkpt lat="44.02779" lon="5.97403">
        <ele>408</ele>
        <time>2021-12-21T09:27:57.000Z</time>
      </trkpt>
      <trkpt lat="44.02779" lon="5.97403">
        <ele>408</ele>
        <time>2021-12-21T09:27:58.000Z</time>
      </trkpt>
      <trkpt lat="44.02779" lon="5.97403">
        <ele>408</ele>
        <time>2021-12-21T09:27:59.000Z</time>
      </trkpt>
      <trkpt lat="44.02779" lon="5.97403">
        <ele>408</ele>
        <time>2021-12-21T09:28:00.000Z</time>
      </trkpt>
      <trkpt lat="44.02779" lon="5.97403">
        <ele>408</ele>
        <time>2021-12-21T09:28:01.000Z</time>
      </trkpt>
      <trkpt lat="44.02779" lon="5.97403">
        <ele>408</ele>
        <time>2021-12-21T09:28:02.000Z</time>
      </trkpt>
      <trkpt lat="44.02779" lon="5.97403">
        <ele>408</ele>
        <time>2021-12-21T09:28:03.000Z</time>
      </trkpt>
      <trkpt lat="44.02779" lon="5.97403">
        <ele>408</ele>
        <time>2021-12-21T09:28:04.000Z</time>
      </trkpt>
      <trkpt lat="44.02779" lon="5.97403">
        <ele>408</ele>
        <time>2021-12-21T09:28:05.000Z</time>
      </trkpt>
      <trkpt lat="44.02778" lon="5.97403">
        <ele>408</ele>
        <time>2021-12-21T09:28:06.000Z</time>
      </trkpt>
      <trkpt lat="44.02778" lon="5.97403">
        <ele>408</ele>
        <time>2021-12-21T09:28:07.000Z</time>
      </trkpt>
      <trkpt lat="44.02778" lon="5.97403">
        <ele>408</ele>
        <time>2021-12-21T09:28:08.000Z</time>
      </trkpt>
      <trkpt lat="44.02778" lon="5.97403">
        <ele>408</ele>
        <time>2021-12-21T09:28:09.000Z</time>
      </trkpt>
      <trkpt lat="44.02778" lon="5.97403">
        <ele>408</ele>
        <time>2021-12-21T09:28:10.000Z</time>
      </trkpt>
      <trkpt lat="44.02778" lon="5.97403">
        <ele>408</ele>
        <time>2021-12-21T09:28:11.000Z</time>
      </trkpt>
      <trkpt lat="44.02778" lon="5.97403">
        <ele>408</ele>
        <time>2021-12-21T09:28:12.000Z</time>
      </trkpt>
      <trkpt lat="44.02778" lon="5.97403">
        <ele>408</ele>
        <time>2021-12-21T09:28:13.000Z</time>
      </trkpt>
      <trkpt lat="44.02778" lon="5.97403">
        <ele>408</ele>
        <time>2021-12-21T09:28:14.000Z</time>
      </trkpt>
      <trkpt lat="44.02778" lon="5.97403">
        <ele>408</ele>
        <time>2021-12-21T09:28:15.000Z</time>
      </trkpt>
      <trkpt lat="44.02778" lon="5.97403">
        <ele>408</ele>
        <time>2021-12-21T09:28:16.000Z</time>
      </trkpt>
      <trkpt lat="44.02778" lon="5.97403">
        <ele>408</ele>
        <time>2021-12-21T09:28:17.000Z</time>
      </trkpt>
      <trkpt lat="44.02778" lon="5.97403">
        <ele>408</ele>
        <time>2021-12-21T09:28:18.000Z</time>
      </trkpt>
      <trkpt lat="44.02778" lon="5.97403">
        <ele>408</ele>
        <time>2021-12-21T09:28:19.000Z</time>
      </trkpt>
      <trkpt lat="44.02778" lon="5.97403">
        <ele>408</ele>
        <time>2021-12-21T09:28:20.000Z</time>
      </trkpt>
      <trkpt lat="44.02778" lon="5.97403">
        <ele>408</ele>
        <time>2021-12-21T09:28:21.000Z</time>
      </trkpt>
      <trkpt lat="44.02778" lon="5.97403">
        <ele>408</ele>
        <time>2021-12-21T09:28:22.000Z</time>
      </trkpt>
      <trkpt lat="44.02778" lon="5.97403">
        <ele>408</ele>
        <time>2021-12-21T09:28:23.000Z</time>
      </trkpt>
      <trkpt lat="44.02778" lon="5.97403">
        <ele>408</ele>
        <time>2021-12-21T09:28:24.000Z</time>
      </trkpt>
      <trkpt lat="44.02779" lon="5.97404">
        <ele>408</ele>
        <time>2021-12-21T09:28:25.000Z</time>
      </trkpt>
      <trkpt lat="44.02779" lon="5.97403">
        <ele>408</ele>
        <time>2021-12-21T09:28:26.000Z</time>
      </trkpt>
      <trkpt lat="44.02779" lon="5.97403">
        <ele>408</ele>
        <time>2021-12-21T09:28:27.000Z</time>
      </trkpt>
      <trkpt lat="44.02779" lon="5.97403">
        <ele>408</ele>
        <time>2021-12-21T09:28:28.000Z</time>
      </trkpt>
      <trkpt lat="44.02779" lon="5.97403">
        <ele>408</ele>
        <time>2021-12-21T09:28:29.000Z</time>
      </trkpt>
      <trkpt lat="44.02779" lon="5.97403">
        <ele>408</ele>
        <time>2021-12-21T09:28:30.000Z</time>
      </trkpt>
      <trkpt lat="44.02779" lon="5.97403">
        <ele>408</ele>
        <time>2021-12-21T09:28:31.000Z</time>
      </trkpt>
      <trkpt lat="44.02779" lon="5.97403">
        <ele>408</ele>
        <time>2021-12-21T09:28:32.000Z</time>
      </trkpt>
      <trkpt lat="44.02779" lon="5.97403">
        <ele>408</ele>
        <time>2021-12-21T09:28:33.000Z</time>
      </trkpt>
      <trkpt lat="44.02779" lon="5.97403">
        <ele>408</ele>
        <time>2021-12-21T09:28:34.000Z</time>
      </trkpt>
      <trkpt lat="44.02779" lon="5.97403">
        <ele>408</ele>
        <time>2021-12-21T09:28:35.000Z</time>
      </trkpt>
      <trkpt lat="44.0278" lon="5.97402">
        <ele>408</ele>
        <time>2021-12-21T09:28:36.000Z</time>
      </trkpt>
      <trkpt lat="44.0278" lon="5.97401">
        <ele>408</ele>
        <time>2021-12-21T09:28:37.000Z</time>
      </trkpt>
      <trkpt lat="44.02781" lon="5.974">
        <ele>408</ele>
        <time>2021-12-21T09:28:38.000Z</time>
      </trkpt>
      <trkpt lat="44.02782" lon="5.97398">
        <ele>408</ele>
        <time>2021-12-21T09:28:39.000Z</time>
      </trkpt>
      <trkpt lat="44.02782" lon="5.97397">
        <ele>408</ele>
        <time>2021-12-21T09:28:40.000Z</time>
      </trkpt>
      <trkpt lat="44.02783" lon="5.97396">
        <ele>408</ele>
        <time>2021-12-21T09:28:41.000Z</time>
      </trkpt>
      <trkpt lat="44.02783" lon="5.97396">
        <ele>408</ele>
        <time>2021-12-21T09:28:42.000Z</time>
      </trkpt>
      <trkpt lat="44.02783" lon="5.97395">
        <ele>408</ele>
        <time>2021-12-21T09:28:43.000Z</time>
      </trkpt>
      <trkpt lat="44.02784" lon="5.97395">
        <ele>408</ele>
        <time>2021-12-21T09:28:44.000Z</time>
      </trkpt>
      <trkpt lat="44.02784" lon="5.97395">
        <ele>408</ele>
        <time>2021-12-21T09:28:45.000Z</time>
      </trkpt>
      <trkpt lat="44.02784" lon="5.97395">
        <ele>408</ele>
        <time>2021-12-21T09:28:46.000Z</time>
      </trkpt>
      <trkpt lat="44.02784" lon="5.97395">
        <ele>408</ele>
        <time>2021-12-21T09:28:47.000Z</time>
      </trkpt>
      <trkpt lat="44.02784" lon="5.97395">
        <ele>408</ele>
        <time>2021-12-21T09:28:48.000Z</time>
      </trkpt>
      <trkpt lat="44.02784" lon="5.97395">
        <ele>408</ele>
        <time>2021-12-21T09:28:49.000Z</time>
      </trkpt>
      <trkpt lat="44.02784" lon="5.97395">
        <ele>408</ele>
        <time>2021-12-21T09:28:50.000Z</time>
      </trkpt>
      <trkpt lat="44.02784" lon="5.97395">
        <ele>408</ele>
        <time>2021-12-21T09:28:51.000Z</time>
      </trkpt>
      <trkpt lat="44.02784" lon="5.97395">
        <ele>408</ele>
        <time>2021-12-21T09:28:52.000Z</time>
      </trkpt>
      <trkpt lat="44.02784" lon="5.97395">
        <ele>408</ele>
        <time>2021-12-21T09:28:53.000Z</time>
      </trkpt>
      <trkpt lat="44.02784" lon="5.97395">
        <ele>408</ele>
        <time>2021-12-21T09:28:54.000Z</time>
      </trkpt>
      <trkpt lat="44.02784" lon="5.97395">
        <ele>408</ele>
        <time>2021-12-21T09:28:55.000Z</time>
      </trkpt>
      <trkpt lat="44.02785" lon="5.97395">
        <ele>408</ele>
        <time>2021-12-21T09:28:56.000Z</time>
      </trkpt>
      <trkpt lat="44.02785" lon="5.97395">
        <ele>408</ele>
        <time>2021-12-21T09:28:57.000Z</time>
      </trkpt>
      <trkpt lat="44.02785" lon="5.97395">
        <ele>408</ele>
        <time>2021-12-21T09:28:58.000Z</time>
      </trkpt>
      <trkpt lat="44.02785" lon="5.97395">
        <ele>408</ele>
        <time>2021-12-21T09:28:59.000Z</time>
      </trkpt>
      <trkpt lat="44.02785" lon="5.97395">
        <ele>408</ele>
        <time>2021-12-21T09:29:00.000Z</time>
      </trkpt>
      <trkpt lat="44.02785" lon="5.97395">
        <ele>408</ele>
        <time>2021-12-21T09:29:01.000Z</time>
      </trkpt>
      <trkpt lat="44.02785" lon="5.97395">
        <ele>408</ele>
        <time>2021-12-21T09:29:02.000Z</time>
      </trkpt>
      <trkpt lat="44.02785" lon="5.97395">
        <ele>408</ele>
        <time>2021-12-21T09:29:03.000Z</time>
      </trkpt>
      <trkpt lat="44.02785" lon="5.97395">
        <ele>408</ele>
        <time>2021-12-21T09:29:04.000Z</time>
      </trkpt>
      <trkpt lat="44.02785" lon="5.97395">
        <ele>408</ele>
        <time>2021-12-21T09:29:05.000Z</time>
      </trkpt>
      <trkpt lat="44.02785" lon="5.97395">
        <ele>408</ele>
        <time>2021-12-21T09:29:06.000Z</time>
      </trkpt>
      <trkpt lat="44.02785" lon="5.97395">
        <ele>408</ele>
        <time>2021-12-21T09:29:07.000Z</time>
      </trkpt>
      <trkpt lat="44.02785" lon="5.97395">
        <ele>408</ele>
        <time>2021-12-21T09:29:08.000Z</time>
      </trkpt>
      <trkpt lat="44.02785" lon="5.97395">
        <ele>408</ele>
        <time>2021-12-21T09:29:09.000Z</time>
      </trkpt>
      <trkpt lat="44.02785" lon="5.97395">
        <ele>408</ele>
        <time>2021-12-21T09:29:10.000Z</time>
      </trkpt>
      <trkpt lat="44.02784" lon="5.97395">
        <ele>409</ele>
        <time>2021-12-21T09:29:11.000Z</time>
      </trkpt>
      <trkpt lat="44.02783" lon="5.97396">
        <ele>409</ele>
        <time>2021-12-21T09:29:12.000Z</time>
      </trkpt>
      <trkpt lat="44.02783" lon="5.97397">
        <ele>409</ele>
        <time>2021-12-21T09:29:13.000Z</time>
      </trkpt>
      <trkpt lat="44.02782" lon="5.97399">
        <ele>409</ele>
        <time>2021-12-21T09:29:14.000Z</time>
      </trkpt>
      <trkpt lat="44.02781" lon="5.974">
        <ele>409</ele>
        <time>2021-12-21T09:29:15.000Z</time>
      </trkpt>
      <trkpt lat="44.02781" lon="5.97401">
        <ele>409</ele>
        <time>2021-12-21T09:29:16.000Z</time>
      </trkpt>
      <trkpt lat="44.02781" lon="5.97402">
        <ele>409</ele>
        <time>2021-12-21T09:29:17.000Z</time>
      </trkpt>
      <trkpt lat="44.02781" lon="5.97403">
        <ele>409</ele>
        <time>2021-12-21T09:29:18.000Z</time>
      </trkpt>
      <trkpt lat="44.02781" lon="5.97404">
        <ele>409</ele>
        <time>2021-12-21T09:29:19.000Z</time>
      </trkpt>
      <trkpt lat="44.02781" lon="5.97406">
        <ele>409</ele>
        <time>2021-12-21T09:29:20.000Z</time>
      </trkpt>
      <trkpt lat="44.02781" lon="5.97407">
        <ele>409</ele>
        <time>2021-12-21T09:29:21.000Z</time>
      </trkpt>
      <trkpt lat="44.02781" lon="5.97408">
        <ele>409</ele>
        <time>2021-12-21T09:29:22.000Z</time>
      </trkpt>
      <trkpt lat="44.02781" lon="5.97409">
        <ele>409</ele>
        <time>2021-12-21T09:29:23.000Z</time>
      </trkpt>
      <trkpt lat="44.02781" lon="5.9741">
        <ele>409</ele>
        <time>2021-12-21T09:29:24.000Z</time>
      </trkpt>
      <trkpt lat="44.02782" lon="5.97411">
        <ele>409</ele>
        <time>2021-12-21T09:29:25.000Z</time>
      </trkpt>
      <trkpt lat="44.02782" lon="5.97413">
        <ele>409</ele>
        <time>2021-12-21T09:29:26.000Z</time>
      </trkpt>
      <trkpt lat="44.02782" lon="5.97414">
        <ele>409</ele>
        <time>2021-12-21T09:29:27.000Z</time>
      </trkpt>
      <trkpt lat="44.02783" lon="5.97416">
        <ele>409</ele>
        <time>2021-12-21T09:29:28.000Z</time>
      </trkpt>
      <trkpt lat="44.02783" lon="5.97418">
        <ele>410</ele>
        <time>2021-12-21T09:29:29.000Z</time>
      </trkpt>
      <trkpt lat="44.02783" lon="5.9742">
        <ele>410</ele>
        <time>2021-12-21T09:29:30.000Z</time>
      </trkpt>
      <trkpt lat="44.02784" lon="5.97421">
        <ele>410</ele>
        <time>2021-12-21T09:29:31.000Z</time>
      </trkpt>
      <trkpt lat="44.02784" lon="5.97423">
        <ele>410</ele>
        <time>2021-12-21T09:29:32.000Z</time>
      </trkpt>
      <trkpt lat="44.02784" lon="5.97424">
        <ele>410</ele>
        <time>2021-12-21T09:29:33.000Z</time>
      </trkpt>
      <trkpt lat="44.02785" lon="5.97426">
        <ele>411</ele>
        <time>2021-12-21T09:29:34.000Z</time>
      </trkpt>
      <trkpt lat="44.02785" lon="5.97427">
        <ele>411</ele>
        <time>2021-12-21T09:29:35.000Z</time>
      </trkpt>
      <trkpt lat="44.02785" lon="5.97429">
        <ele>411</ele>
        <time>2021-12-21T09:29:36.000Z</time>
      </trkpt>
      <trkpt lat="44.02786" lon="5.97431">
        <ele>411</ele>
        <time>2021-12-21T09:29:37.000Z</time>
      </trkpt>
      <trkpt lat="44.02787" lon="5.97432">
        <ele>411</ele>
        <time>2021-12-21T09:29:38.000Z</time>
      </trkpt>
      <trkpt lat="44.02787" lon="5.97434">
        <ele>411</ele>
        <time>2021-12-21T09:29:39.000Z</time>
      </trkpt>
      <trkpt lat="44.02788" lon="5.97436">
        <ele>411</ele>
        <time>2021-12-21T09:29:40.000Z</time>
      </trkpt>
      <trkpt lat="44.02788" lon="5.97438">
        <ele>411</ele>
        <time>2021-12-21T09:29:41.000Z</time>
      </trkpt>
      <trkpt lat="44.02788" lon="5.97439">
        <ele>411</ele>
        <time>2021-12-21T09:29:42.000Z</time>
      </trkpt>
      <trkpt lat="44.02789" lon="5.97441">
        <ele>411</ele>
        <time>2021-12-21T09:29:43.000Z</time>
      </trkpt>
      <trkpt lat="44.02789" lon="5.97443">
        <ele>411</ele>
        <time>2021-12-21T09:29:44.000Z</time>
      </trkpt>
      <trkpt lat="44.02788" lon="5.97445">
        <ele>411</ele>
        <time>2021-12-21T09:29:45.000Z</time>
      </trkpt>
      <trkpt lat="44.02788" lon="5.97447">
        <ele>411</ele>
        <time>2021-12-21T09:29:46.000Z</time>
      </trkpt>
      <trkpt lat="44.02788" lon="5.97449">
        <ele>411</ele>
        <time>2021-12-21T09:29:47.000Z</time>
      </trkpt>
      <trkpt lat="44.02788" lon="5.97451">
        <ele>411</ele>
        <time>2021-12-21T09:29:48.000Z</time>
      </trkpt>
      <trkpt lat="44.02788" lon="5.97453">
        <ele>411</ele>
        <time>2021-12-21T09:29:49.000Z</time>
      </trkpt>
      <trkpt lat="44.02789" lon="5.97454">
        <ele>411</ele>
        <time>2021-12-21T09:29:50.000Z</time>
      </trkpt>
      <trkpt lat="44.02789" lon="5.97456">
        <ele>411</ele>
        <time>2021-12-21T09:29:51.000Z</time>
      </trkpt>
      <trkpt lat="44.02789" lon="5.97458">
        <ele>412</ele>
        <time>2021-12-21T09:29:52.000Z</time>
      </trkpt>
      <trkpt lat="44.02789" lon="5.9746">
        <ele>412</ele>
        <time>2021-12-21T09:29:53.000Z</time>
      </trkpt>
      <trkpt lat="44.02789" lon="5.97462">
        <ele>412</ele>
        <time>2021-12-21T09:29:54.000Z</time>
      </trkpt>
      <trkpt lat="44.02789" lon="5.97463">
        <ele>412</ele>
        <time>2021-12-21T09:29:55.000Z</time>
      </trkpt>
      <trkpt lat="44.0279" lon="5.97465">
        <ele>412</ele>
        <time>2021-12-21T09:29:56.000Z</time>
      </trkpt>
      <trkpt lat="44.0279" lon="5.97467">
        <ele>412</ele>
        <time>2021-12-21T09:29:57.000Z</time>
      </trkpt>
      <trkpt lat="44.0279" lon="5.97468">
        <ele>412</ele>
        <time>2021-12-21T09:29:58.000Z</time>
      </trkpt>
      <trkpt lat="44.0279" lon="5.9747">
        <ele>412</ele>
        <time>2021-12-21T09:29:59.000Z</time>
      </trkpt>
      <trkpt lat="44.02791" lon="5.97472">
        <ele>412</ele>
        <time>2021-12-21T09:30:00.000Z</time>
      </trkpt>
      <trkpt lat="44.02791" lon="5.97473">
        <ele>412</ele>
        <time>2021-12-21T09:30:01.000Z</time>
      </trkpt>
      <trkpt lat="44.02792" lon="5.97475">
        <ele>412</ele>
        <time>2021-12-21T09:30:02.000Z</time>
      </trkpt>
      <trkpt lat="44.02792" lon="5.97477">
        <ele>412</ele>
        <time>2021-12-21T09:30:03.000Z</time>
      </trkpt>
      <trkpt lat="44.02792" lon="5.97478">
        <ele>412</ele>
        <time>2021-12-21T09:30:04.000Z</time>
      </trkpt>
      <trkpt lat="44.02793" lon="5.9748">
        <ele>412</ele>
        <time>2021-12-21T09:30:05.000Z</time>
      </trkpt>
      <trkpt lat="44.02793" lon="5.97482">
        <ele>413</ele>
        <time>2021-12-21T09:30:06.000Z</time>
      </trkpt>
      <trkpt lat="44.02794" lon="5.97483">
        <ele>413</ele>
        <time>2021-12-21T09:30:07.000Z</time>
      </trkpt>
      <trkpt lat="44.02794" lon="5.97485">
        <ele>413</ele>
        <time>2021-12-21T09:30:08.000Z</time>
      </trkpt>
      <trkpt lat="44.02794" lon="5.97487">
        <ele>413</ele>
        <time>2021-12-21T09:30:09.000Z</time>
      </trkpt>
      <trkpt lat="44.02795" lon="5.97488">
        <ele>413</ele>
        <time>2021-12-21T09:30:10.000Z</time>
      </trkpt>
      <trkpt lat="44.02795" lon="5.9749">
        <ele>413</ele>
        <time>2021-12-21T09:30:11.000Z</time>
      </trkpt>
      <trkpt lat="44.02796" lon="5.97491">
        <ele>413</ele>
        <time>2021-12-21T09:30:12.000Z</time>
      </trkpt>
      <trkpt lat="44.02797" lon="5.97493">
        <ele>413</ele>
        <time>2021-12-21T09:30:13.000Z</time>
      </trkpt>
      <trkpt lat="44.02797" lon="5.97494">
        <ele>413</ele>
        <time>2021-12-21T09:30:14.000Z</time>
      </trkpt>
      <trkpt lat="44.02798" lon="5.97496">
        <ele>414</ele>
        <time>2021-12-21T09:30:15.000Z</time>
      </trkpt>
      <trkpt lat="44.02799" lon="5.97497">
        <ele>414</ele>
        <time>2021-12-21T09:30:16.000Z</time>
      </trkpt>
      <trkpt lat="44.028" lon="5.97499">
        <ele>414</ele>
        <time>2021-12-21T09:30:17.000Z</time>
      </trkpt>
      <trkpt lat="44.02801" lon="5.975">
        <ele>414</ele>
        <time>2021-12-21T09:30:18.000Z</time>
      </trkpt>
      <trkpt lat="44.02801" lon="5.97501">
        <ele>414</ele>
        <time>2021-12-21T09:30:19.000Z</time>
      </trkpt>
      <trkpt lat="44.02802" lon="5.97503">
        <ele>414</ele>
        <time>2021-12-21T09:30:20.000Z</time>
      </trkpt>
      <trkpt lat="44.02803" lon="5.97504">
        <ele>414</ele>
        <time>2021-12-21T09:30:21.000Z</time>
      </trkpt>
      <trkpt lat="44.02803" lon="5.97506">
        <ele>414</ele>
        <time>2021-12-21T09:30:22.000Z</time>
      </trkpt>
      <trkpt lat="44.02804" lon="5.97508">
        <ele>414</ele>
        <time>2021-12-21T09:30:23.000Z</time>
      </trkpt>
      <trkpt lat="44.02804" lon="5.97509">
        <ele>414</ele>
        <time>2021-12-21T09:30:24.000Z</time>
      </trkpt>
      <trkpt lat="44.02805" lon="5.97511">
        <ele>414</ele>
        <time>2021-12-21T09:30:25.000Z</time>
      </trkpt>
      <trkpt lat="44.02805" lon="5.97512">
        <ele>415</ele>
        <time>2021-12-21T09:30:26.000Z</time>
      </trkpt>
      <trkpt lat="44.02805" lon="5.97513">
        <ele>415</ele>
        <time>2021-12-21T09:30:27.000Z</time>
      </trkpt>
      <trkpt lat="44.02805" lon="5.97514">
        <ele>415</ele>
        <time>2021-12-21T09:30:28.000Z</time>
      </trkpt>
      <trkpt lat="44.02805" lon="5.97514">
        <ele>415</ele>
        <time>2021-12-21T09:30:29.000Z</time>
      </trkpt>
      <trkpt lat="44.02805" lon="5.97514">
        <ele>415</ele>
        <time>2021-12-21T09:30:30.000Z</time>
      </trkpt>
      <trkpt lat="44.02805" lon="5.97515">
        <ele>415</ele>
        <time>2021-12-21T09:30:31.000Z</time>
      </trkpt>
      <trkpt lat="44.02806" lon="5.97516">
        <ele>415</ele>
        <time>2021-12-21T09:30:32.000Z</time>
      </trkpt>
      <trkpt lat="44.02806" lon="5.97518">
        <ele>415</ele>
        <time>2021-12-21T09:30:33.000Z</time>
      </trkpt>
      <trkpt lat="44.02807" lon="5.97519">
        <ele>415</ele>
        <time>2021-12-21T09:30:34.000Z</time>
      </trkpt>
      <trkpt lat="44.02807" lon="5.97521">
        <ele>415</ele>
        <time>2021-12-21T09:30:35.000Z</time>
      </trkpt>
      <trkpt lat="44.02808" lon="5.97523">
        <ele>415</ele>
        <time>2021-12-21T09:30:36.000Z</time>
      </trkpt>
      <trkpt lat="44.02808" lon="5.97524">
        <ele>415</ele>
        <time>2021-12-21T09:30:37.000Z</time>
      </trkpt>
      <trkpt lat="44.02808" lon="5.97526">
        <ele>416</ele>
        <time>2021-12-21T09:30:38.000Z</time>
      </trkpt>
      <trkpt lat="44.02808" lon="5.97527">
        <ele>416</ele>
        <time>2021-12-21T09:30:39.000Z</time>
      </trkpt>
      <trkpt lat="44.02808" lon="5.97529">
        <ele>416</ele>
        <time>2021-12-21T09:30:40.000Z</time>
      </trkpt>
      <trkpt lat="44.02809" lon="5.97531">
        <ele>416</ele>
        <time>2021-12-21T09:30:41.000Z</time>
      </trkpt>
      <trkpt lat="44.02809" lon="5.97533">
        <ele>416</ele>
        <time>2021-12-21T09:30:42.000Z</time>
      </trkpt>
      <trkpt lat="44.02809" lon="5.97534">
        <ele>416</ele>
        <time>2021-12-21T09:30:43.000Z</time>
      </trkpt>
      <trkpt lat="44.0281" lon="5.97536">
        <ele>416</ele>
        <time>2021-12-21T09:30:44.000Z</time>
      </trkpt>
      <trkpt lat="44.0281" lon="5.97537">
        <ele>416</ele>
        <time>2021-12-21T09:30:45.000Z</time>
      </trkpt>
      <trkpt lat="44.0281" lon="5.97539">
        <ele>416</ele>
        <time>2021-12-21T09:30:46.000Z</time>
      </trkpt>
      <trkpt lat="44.0281" lon="5.97541">
        <ele>416</ele>
        <time>2021-12-21T09:30:47.000Z</time>
      </trkpt>
      <trkpt lat="44.02811" lon="5.97543">
        <ele>416</ele>
        <time>2021-12-21T09:30:48.000Z</time>
      </trkpt>
      <trkpt lat="44.02811" lon="5.97545">
        <ele>416</ele>
        <time>2021-12-21T09:30:49.000Z</time>
      </trkpt>
      <trkpt lat="44.02811" lon="5.97546">
        <ele>416</ele>
        <time>2021-12-21T09:30:50.000Z</time>
      </trkpt>
      <trkpt lat="44.02811" lon="5.97548">
        <ele>416</ele>
        <time>2021-12-21T09:30:51.000Z</time>
      </trkpt>
      <trkpt lat="44.02811" lon="5.9755">
        <ele>416</ele>
        <time>2021-12-21T09:30:52.000Z</time>
      </trkpt>
      <trkpt lat="44.02811" lon="5.97552">
        <ele>416</ele>
        <time>2021-12-21T09:30:53.000Z</time>
      </trkpt>
      <trkpt lat="44.02812" lon="5.97553">
        <ele>416</ele>
        <time>2021-12-21T09:30:54.000Z</time>
      </trkpt>
      <trkpt lat="44.02812" lon="5.97554">
        <ele>416</ele>
        <time>2021-12-21T09:30:55.000Z</time>
      </trkpt>
      <trkpt lat="44.02812" lon="5.97556">
        <ele>416</ele>
        <time>2021-12-21T09:30:56.000Z</time>
      </trkpt>
      <trkpt lat="44.02812" lon="5.97556">
        <ele>416</ele>
        <time>2021-12-21T09:30:57.000Z</time>
      </trkpt>
      <trkpt lat="44.02812" lon="5.97556">
        <ele>416</ele>
        <time>2021-12-21T09:30:58.000Z</time>
      </trkpt>
      <trkpt lat="44.02812" lon="5.97556">
        <ele>416</ele>
        <time>2021-12-21T09:30:59.000Z</time>
      </trkpt>
      <trkpt lat="44.02812" lon="5.97556">
        <ele>416</ele>
        <time>2021-12-21T09:31:00.000Z</time>
      </trkpt>
      <trkpt lat="44.02812" lon="5.97556">
        <ele>416</ele>
        <time>2021-12-21T09:31:01.000Z</time>
      </trkpt>
      <trkpt lat="44.02812" lon="5.97556">
        <ele>416</ele>
        <time>2021-12-21T09:31:02.000Z</time>
      </trkpt>
      <trkpt lat="44.02813" lon="5.97556">
        <ele>417</ele>
        <time>2021-12-21T09:31:03.000Z</time>
      </trkpt>
      <trkpt lat="44.02813" lon="5.97557">
        <ele>417</ele>
        <time>2021-12-21T09:31:04.000Z</time>
      </trkpt>
      <trkpt lat="44.02813" lon="5.97558">
        <ele>417</ele>
        <time>2021-12-21T09:31:05.000Z</time>
      </trkpt>
      <trkpt lat="44.02814" lon="5.9756">
        <ele>417</ele>
        <time>2021-12-21T09:31:06.000Z</time>
      </trkpt>
      <trkpt lat="44.02815" lon="5.97561">
        <ele>417</ele>
        <time>2021-12-21T09:31:07.000Z</time>
      </trkpt>
      <trkpt lat="44.02816" lon="5.97562">
        <ele>417</ele>
        <time>2021-12-21T09:31:08.000Z</time>
      </trkpt>
      <trkpt lat="44.02816" lon="5.97564">
        <ele>417</ele>
        <time>2021-12-21T09:31:09.000Z</time>
      </trkpt>
      <trkpt lat="44.02816" lon="5.97566">
        <ele>417</ele>
        <time>2021-12-21T09:31:10.000Z</time>
      </trkpt>
      <trkpt lat="44.02817" lon="5.97567">
        <ele>417</ele>
        <time>2021-12-21T09:31:11.000Z</time>
      </trkpt>
      <trkpt lat="44.02817" lon="5.97569">
        <ele>417</ele>
        <time>2021-12-21T09:31:12.000Z</time>
      </trkpt>
      <trkpt lat="44.02817" lon="5.9757">
        <ele>417</ele>
        <time>2021-12-21T09:31:13.000Z</time>
      </trkpt>
      <trkpt lat="44.02818" lon="5.97571">
        <ele>417</ele>
        <time>2021-12-21T09:31:14.000Z</time>
      </trkpt>
      <trkpt lat="44.02818" lon="5.97573">
        <ele>417</ele>
        <time>2021-12-21T09:31:15.000Z</time>
      </trkpt>
      <trkpt lat="44.02819" lon="5.97575">
        <ele>417</ele>
        <time>2021-12-21T09:31:16.000Z</time>
      </trkpt>
      <trkpt lat="44.02819" lon="5.97576">
        <ele>417</ele>
        <time>2021-12-21T09:31:17.000Z</time>
      </trkpt>
      <trkpt lat="44.0282" lon="5.97578">
        <ele>418</ele>
        <time>2021-12-21T09:31:18.000Z</time>
      </trkpt>
      <trkpt lat="44.0282" lon="5.97579">
        <ele>418</ele>
        <time>2021-12-21T09:31:19.000Z</time>
      </trkpt>
      <trkpt lat="44.0282" lon="5.97581">
        <ele>418</ele>
        <time>2021-12-21T09:31:20.000Z</time>
      </trkpt>
      <trkpt lat="44.02821" lon="5.97582">
        <ele>418</ele>
        <time>2021-12-21T09:31:21.000Z</time>
      </trkpt>
      <trkpt lat="44.02821" lon="5.97584">
        <ele>418</ele>
        <time>2021-12-21T09:31:22.000Z</time>
      </trkpt>
      <trkpt lat="44.02822" lon="5.97585">
        <ele>418</ele>
        <time>2021-12-21T09:31:23.000Z</time>
      </trkpt>
      <trkpt lat="44.02823" lon="5.97587">
        <ele>418</ele>
        <time>2021-12-21T09:31:24.000Z</time>
      </trkpt>
      <trkpt lat="44.02823" lon="5.97588">
        <ele>418</ele>
        <time>2021-12-21T09:31:25.000Z</time>
      </trkpt>
      <trkpt lat="44.02824" lon="5.97589">
        <ele>418</ele>
        <time>2021-12-21T09:31:26.000Z</time>
      </trkpt>
      <trkpt lat="44.02825" lon="5.97591">
        <ele>418</ele>
        <time>2021-12-21T09:31:27.000Z</time>
      </trkpt>
      <trkpt lat="44.02826" lon="5.97592">
        <ele>418</ele>
        <time>2021-12-21T09:31:28.000Z</time>
      </trkpt>
      <trkpt lat="44.02826" lon="5.97593">
        <ele>418</ele>
        <time>2021-12-21T09:31:29.000Z</time>
      </trkpt>
      <trkpt lat="44.02827" lon="5.97594">
        <ele>418</ele>
        <time>2021-12-21T09:31:30.000Z</time>
      </trkpt>
      <trkpt lat="44.02828" lon="5.97595">
        <ele>418</ele>
        <time>2021-12-21T09:31:31.000Z</time>
      </trkpt>
      <trkpt lat="44.02828" lon="5.97597">
        <ele>418</ele>
        <time>2021-12-21T09:31:32.000Z</time>
      </trkpt>
      <trkpt lat="44.02829" lon="5.97598">
        <ele>418</ele>
        <time>2021-12-21T09:31:33.000Z</time>
      </trkpt>
      <trkpt lat="44.0283" lon="5.97599">
        <ele>418</ele>
        <time>2021-12-21T09:31:34.000Z</time>
      </trkpt>
      <trkpt lat="44.02831" lon="5.976">
        <ele>419</ele>
        <time>2021-12-21T09:31:35.000Z</time>
      </trkpt>
      <trkpt lat="44.02831" lon="5.97601">
        <ele>419</ele>
        <time>2021-12-21T09:31:36.000Z</time>
      </trkpt>
      <trkpt lat="44.02832" lon="5.97602">
        <ele>419</ele>
        <time>2021-12-21T09:31:37.000Z</time>
      </trkpt>
      <trkpt lat="44.02833" lon="5.97603">
        <ele>419</ele>
        <time>2021-12-21T09:31:38.000Z</time>
      </trkpt>
      <trkpt lat="44.02833" lon="5.97604">
        <ele>419</ele>
        <time>2021-12-21T09:31:39.000Z</time>
      </trkpt>
      <trkpt lat="44.02834" lon="5.97605">
        <ele>419</ele>
        <time>2021-12-21T09:31:40.000Z</time>
      </trkpt>
      <trkpt lat="44.02834" lon="5.97606">
        <ele>419</ele>
        <time>2021-12-21T09:31:41.000Z</time>
      </trkpt>
      <trkpt lat="44.02835" lon="5.97608">
        <ele>420</ele>
        <time>2021-12-21T09:31:42.000Z</time>
      </trkpt>
      <trkpt lat="44.02835" lon="5.97609">
        <ele>420</ele>
        <time>2021-12-21T09:31:43.000Z</time>
      </trkpt>
      <trkpt lat="44.02836" lon="5.97611">
        <ele>420</ele>
        <time>2021-12-21T09:31:44.000Z</time>
      </trkpt>
      <trkpt lat="44.02836" lon="5.97613">
        <ele>420</ele>
        <time>2021-12-21T09:31:45.000Z</time>
      </trkpt>
      <trkpt lat="44.02836" lon="5.97615">
        <ele>420</ele>
        <time>2021-12-21T09:31:46.000Z</time>
      </trkpt>
      <trkpt lat="44.02837" lon="5.97617">
        <ele>420</ele>
        <time>2021-12-21T09:31:47.000Z</time>
      </trkpt>
      <trkpt lat="44.02837" lon="5.97618">
        <ele>420</ele>
        <time>2021-12-21T09:31:48.000Z</time>
      </trkpt>
      <trkpt lat="44.02837" lon="5.9762">
        <ele>420</ele>
        <time>2021-12-21T09:31:49.000Z</time>
      </trkpt>
      <trkpt lat="44.02838" lon="5.97622">
        <ele>420</ele>
        <time>2021-12-21T09:31:50.000Z</time>
      </trkpt>
      <trkpt lat="44.02838" lon="5.97623">
        <ele>421</ele>
        <time>2021-12-21T09:31:51.000Z</time>
      </trkpt>
      <trkpt lat="44.02839" lon="5.97625">
        <ele>421</ele>
        <time>2021-12-21T09:31:52.000Z</time>
      </trkpt>
      <trkpt lat="44.02839" lon="5.97627">
        <ele>421</ele>
        <time>2021-12-21T09:31:53.000Z</time>
      </trkpt>
      <trkpt lat="44.0284" lon="5.97628">
        <ele>421</ele>
        <time>2021-12-21T09:31:54.000Z</time>
      </trkpt>
      <trkpt lat="44.02841" lon="5.9763">
        <ele>421</ele>
        <time>2021-12-21T09:31:55.000Z</time>
      </trkpt>
      <trkpt lat="44.02841" lon="5.97631">
        <ele>421</ele>
        <time>2021-12-21T09:31:56.000Z</time>
      </trkpt>
      <trkpt lat="44.02842" lon="5.97633">
        <ele>421</ele>
        <time>2021-12-21T09:31:57.000Z</time>
      </trkpt>
      <trkpt lat="44.02843" lon="5.97634">
        <ele>422</ele>
        <time>2021-12-21T09:31:58.000Z</time>
      </trkpt>
      <trkpt lat="44.02844" lon="5.97636">
        <ele>422</ele>
        <time>2021-12-21T09:31:59.000Z</time>
      </trkpt>
      <trkpt lat="44.02844" lon="5.97637">
        <ele>422</ele>
        <time>2021-12-21T09:32:00.000Z</time>
      </trkpt>
      <trkpt lat="44.02845" lon="5.97639">
        <ele>422</ele>
        <time>2021-12-21T09:32:01.000Z</time>
      </trkpt>
      <trkpt lat="44.02846" lon="5.97641">
        <ele>422</ele>
        <time>2021-12-21T09:32:02.000Z</time>
      </trkpt>
      <trkpt lat="44.02846" lon="5.97642">
        <ele>422</ele>
        <time>2021-12-21T09:32:03.000Z</time>
      </trkpt>
      <trkpt lat="44.02847" lon="5.97643">
        <ele>422</ele>
        <time>2021-12-21T09:32:04.000Z</time>
      </trkpt>
      <trkpt lat="44.02848" lon="5.97645">
        <ele>423</ele>
        <time>2021-12-21T09:32:05.000Z</time>
      </trkpt>
      <trkpt lat="44.02849" lon="5.97647">
        <ele>423</ele>
        <time>2021-12-21T09:32:06.000Z</time>
      </trkpt>
      <trkpt lat="44.02849" lon="5.97648">
        <ele>423</ele>
        <time>2021-12-21T09:32:07.000Z</time>
      </trkpt>
      <trkpt lat="44.0285" lon="5.97649">
        <ele>423</ele>
        <time>2021-12-21T09:32:08.000Z</time>
      </trkpt>
      <trkpt lat="44.02851" lon="5.9765">
        <ele>423</ele>
        <time>2021-12-21T09:32:09.000Z</time>
      </trkpt>
      <trkpt lat="44.02852" lon="5.97652">
        <ele>423</ele>
        <time>2021-12-21T09:32:10.000Z</time>
      </trkpt>
      <trkpt lat="44.02853" lon="5.97653">
        <ele>423</ele>
        <time>2021-12-21T09:32:11.000Z</time>
      </trkpt>
      <trkpt lat="44.02854" lon="5.97655">
        <ele>423</ele>
        <time>2021-12-21T09:32:12.000Z</time>
      </trkpt>
      <trkpt lat="44.02854" lon="5.97656">
        <ele>423</ele>
        <time>2021-12-21T09:32:13.000Z</time>
      </trkpt>
      <trkpt lat="44.02855" lon="5.97657">
        <ele>423</ele>
        <time>2021-12-21T09:32:14.000Z</time>
      </trkpt>
      <trkpt lat="44.02856" lon="5.97658">
        <ele>423</ele>
        <time>2021-12-21T09:32:15.000Z</time>
      </trkpt>
      <trkpt lat="44.02857" lon="5.97659">
        <ele>423</ele>
        <time>2021-12-21T09:32:16.000Z</time>
      </trkpt>
      <trkpt lat="44.02858" lon="5.97661">
        <ele>423</ele>
        <time>2021-12-21T09:32:17.000Z</time>
      </trkpt>
      <trkpt lat="44.02859" lon="5.97662">
        <ele>423</ele>
        <time>2021-12-21T09:32:18.000Z</time>
      </trkpt>
      <trkpt lat="44.0286" lon="5.97664">
        <ele>423</ele>
        <time>2021-12-21T09:32:19.000Z</time>
      </trkpt>
      <trkpt lat="44.0286" lon="5.97665">
        <ele>423</ele>
        <time>2021-12-21T09:32:20.000Z</time>
      </trkpt>
      <trkpt lat="44.02861" lon="5.97667">
        <ele>423</ele>
        <time>2021-12-21T09:32:21.000Z</time>
      </trkpt>
      <trkpt lat="44.02861" lon="5.97668">
        <ele>423</ele>
        <time>2021-12-21T09:32:22.000Z</time>
      </trkpt>
      <trkpt lat="44.02862" lon="5.9767">
        <ele>423</ele>
        <time>2021-12-21T09:32:23.000Z</time>
      </trkpt>
      <trkpt lat="44.02862" lon="5.97671">
        <ele>423</ele>
        <time>2021-12-21T09:32:24.000Z</time>
      </trkpt>
      <trkpt lat="44.02862" lon="5.97672">
        <ele>423</ele>
        <time>2021-12-21T09:32:25.000Z</time>
      </trkpt>
      <trkpt lat="44.02863" lon="5.97674">
        <ele>424</ele>
        <time>2021-12-21T09:32:26.000Z</time>
      </trkpt>
      <trkpt lat="44.02863" lon="5.97675">
        <ele>424</ele>
        <time>2021-12-21T09:32:27.000Z</time>
      </trkpt>
      <trkpt lat="44.02864" lon="5.97676">
        <ele>424</ele>
        <time>2021-12-21T09:32:28.000Z</time>
      </trkpt>
      <trkpt lat="44.02864" lon="5.97678">
        <ele>424</ele>
        <time>2021-12-21T09:32:29.000Z</time>
      </trkpt>
      <trkpt lat="44.02865" lon="5.97679">
        <ele>424</ele>
        <time>2021-12-21T09:32:30.000Z</time>
      </trkpt>
      <trkpt lat="44.02865" lon="5.9768">
        <ele>424</ele>
        <time>2021-12-21T09:32:31.000Z</time>
      </trkpt>
      <trkpt lat="44.02866" lon="5.97682">
        <ele>424</ele>
        <time>2021-12-21T09:32:32.000Z</time>
      </trkpt>
      <trkpt lat="44.02866" lon="5.97683">
        <ele>424</ele>
        <time>2021-12-21T09:32:33.000Z</time>
      </trkpt>
      <trkpt lat="44.02867" lon="5.97685">
        <ele>424</ele>
        <time>2021-12-21T09:32:34.000Z</time>
      </trkpt>
      <trkpt lat="44.02867" lon="5.97686">
        <ele>424</ele>
        <time>2021-12-21T09:32:35.000Z</time>
      </trkpt>
      <trkpt lat="44.02868" lon="5.97688">
        <ele>424</ele>
        <time>2021-12-21T09:32:36.000Z</time>
      </trkpt>
      <trkpt lat="44.02868" lon="5.97689">
        <ele>424</ele>
        <time>2021-12-21T09:32:37.000Z</time>
      </trkpt>
      <trkpt lat="44.02868" lon="5.97691">
        <ele>424</ele>
        <time>2021-12-21T09:32:38.000Z</time>
      </trkpt>
      <trkpt lat="44.02868" lon="5.97692">
        <ele>424</ele>
        <time>2021-12-21T09:32:39.000Z</time>
      </trkpt>
      <trkpt lat="44.02869" lon="5.97694">
        <ele>424</ele>
        <time>2021-12-21T09:32:40.000Z</time>
      </trkpt>
      <trkpt lat="44.02869" lon="5.97696">
        <ele>424</ele>
        <time>2021-12-21T09:32:41.000Z</time>
      </trkpt>
      <trkpt lat="44.0287" lon="5.97698">
        <ele>424</ele>
        <time>2021-12-21T09:32:42.000Z</time>
      </trkpt>
      <trkpt lat="44.0287" lon="5.97699">
        <ele>425</ele>
        <time>2021-12-21T09:32:43.000Z</time>
      </trkpt>
      <trkpt lat="44.02871" lon="5.97701">
        <ele>425</ele>
        <time>2021-12-21T09:32:44.000Z</time>
      </trkpt>
      <trkpt lat="44.02872" lon="5.97702">
        <ele>425</ele>
        <time>2021-12-21T09:32:45.000Z</time>
      </trkpt>
      <trkpt lat="44.02872" lon="5.97704">
        <ele>425</ele>
        <time>2021-12-21T09:32:46.000Z</time>
      </trkpt>
      <trkpt lat="44.02873" lon="5.97705">
        <ele>425</ele>
        <time>2021-12-21T09:32:47.000Z</time>
      </trkpt>
      <trkpt lat="44.02874" lon="5.97706">
        <ele>425</ele>
        <time>2021-12-21T09:32:48.000Z</time>
      </trkpt>
      <trkpt lat="44.02875" lon="5.97708">
        <ele>425</ele>
        <time>2021-12-21T09:32:49.000Z</time>
      </trkpt>
      <trkpt lat="44.02875" lon="5.97708">
        <ele>425</ele>
        <time>2021-12-21T09:32:50.000Z</time>
      </trkpt>
      <trkpt lat="44.02875" lon="5.97708">
        <ele>425</ele>
        <time>2021-12-21T09:32:51.000Z</time>
      </trkpt>
      <trkpt lat="44.02875" lon="5.97708">
        <ele>425</ele>
        <time>2021-12-21T09:32:52.000Z</time>
      </trkpt>
      <trkpt lat="44.02875" lon="5.97709">
        <ele>425</ele>
        <time>2021-12-21T09:32:53.000Z</time>
      </trkpt>
      <trkpt lat="44.02875" lon="5.97709">
        <ele>425</ele>
        <time>2021-12-21T09:32:54.000Z</time>
      </trkpt>
      <trkpt lat="44.02875" lon="5.97709">
        <ele>425</ele>
        <time>2021-12-21T09:32:55.000Z</time>
      </trkpt>
      <trkpt lat="44.02875" lon="5.97709">
        <ele>425</ele>
        <time>2021-12-21T09:32:56.000Z</time>
      </trkpt>
      <trkpt lat="44.02875" lon="5.97709">
        <ele>425</ele>
        <time>2021-12-21T09:32:57.000Z</time>
      </trkpt>
      <trkpt lat="44.02875" lon="5.97709">
        <ele>425</ele>
        <time>2021-12-21T09:32:58.000Z</time>
      </trkpt>
      <trkpt lat="44.02875" lon="5.97709">
        <ele>425</ele>
        <time>2021-12-21T09:32:59.000Z</time>
      </trkpt>
      <trkpt lat="44.02875" lon="5.97709">
        <ele>425</ele>
        <time>2021-12-21T09:33:00.000Z</time>
      </trkpt>
      <trkpt lat="44.02875" lon="5.97709">
        <ele>425</ele>
        <time>2021-12-21T09:33:01.000Z</time>
      </trkpt>
      <trkpt lat="44.02875" lon="5.97709">
        <ele>425</ele>
        <time>2021-12-21T09:33:02.000Z</time>
      </trkpt>
      <trkpt lat="44.02875" lon="5.9771">
        <ele>426</ele>
        <time>2021-12-21T09:33:03.000Z</time>
      </trkpt>
      <trkpt lat="44.02875" lon="5.9771">
        <ele>426</ele>
        <time>2021-12-21T09:33:04.000Z</time>
      </trkpt>
      <trkpt lat="44.02874" lon="5.9771">
        <ele>426</ele>
        <time>2021-12-21T09:33:05.000Z</time>
      </trkpt>
      <trkpt lat="44.02874" lon="5.9771">
        <ele>426</ele>
        <time>2021-12-21T09:33:06.000Z</time>
      </trkpt>
      <trkpt lat="44.02874" lon="5.9771">
        <ele>426</ele>
        <time>2021-12-21T09:33:07.000Z</time>
      </trkpt>
      <trkpt lat="44.02874" lon="5.9771">
        <ele>426</ele>
        <time>2021-12-21T09:33:08.000Z</time>
      </trkpt>
      <trkpt lat="44.02874" lon="5.9771">
        <ele>426</ele>
        <time>2021-12-21T09:33:09.000Z</time>
      </trkpt>
      <trkpt lat="44.02874" lon="5.9771">
        <ele>426</ele>
        <time>2021-12-21T09:33:10.000Z</time>
      </trkpt>
      <trkpt lat="44.02874" lon="5.9771">
        <ele>426</ele>
        <time>2021-12-21T09:33:11.000Z</time>
      </trkpt>
      <trkpt lat="44.02874" lon="5.9771">
        <ele>426</ele>
        <time>2021-12-21T09:33:12.000Z</time>
      </trkpt>
      <trkpt lat="44.02874" lon="5.9771">
        <ele>426</ele>
        <time>2021-12-21T09:33:13.000Z</time>
      </trkpt>
      <trkpt lat="44.02874" lon="5.97711">
        <ele>426</ele>
        <time>2021-12-21T09:33:14.000Z</time>
      </trkpt>
      <trkpt lat="44.02874" lon="5.97711">
        <ele>426</ele>
        <time>2021-12-21T09:33:15.000Z</time>
      </trkpt>
      <trkpt lat="44.02874" lon="5.97711">
        <ele>426</ele>
        <time>2021-12-21T09:33:16.000Z</time>
      </trkpt>
      <trkpt lat="44.02874" lon="5.97711">
        <ele>426</ele>
        <time>2021-12-21T09:33:17.000Z</time>
      </trkpt>
      <trkpt lat="44.02874" lon="5.97711">
        <ele>426</ele>
        <time>2021-12-21T09:33:18.000Z</time>
      </trkpt>
      <trkpt lat="44.02874" lon="5.97711">
        <ele>426</ele>
        <time>2021-12-21T09:33:19.000Z</time>
      </trkpt>
      <trkpt lat="44.02874" lon="5.97711">
        <ele>426</ele>
        <time>2021-12-21T09:33:20.000Z</time>
      </trkpt>
      <trkpt lat="44.02874" lon="5.97711">
        <ele>426</ele>
        <time>2021-12-21T09:33:21.000Z</time>
      </trkpt>
      <trkpt lat="44.02874" lon="5.97711">
        <ele>426</ele>
        <time>2021-12-21T09:33:22.000Z</time>
      </trkpt>
      <trkpt lat="44.02874" lon="5.97711">
        <ele>426</ele>
        <time>2021-12-21T09:33:23.000Z</time>
      </trkpt>
      <trkpt lat="44.02874" lon="5.97711">
        <ele>426</ele>
        <time>2021-12-21T09:33:24.000Z</time>
      </trkpt>
      <trkpt lat="44.02874" lon="5.97711">
        <ele>426</ele>
        <time>2021-12-21T09:33:25.000Z</time>
      </trkpt>
      <trkpt lat="44.02874" lon="5.97711">
        <ele>426</ele>
        <time>2021-12-21T09:33:26.000Z</time>
      </trkpt>
      <trkpt lat="44.02874" lon="5.97711">
        <ele>426</ele>
        <time>2021-12-21T09:33:27.000Z</time>
      </trkpt>
      <trkpt lat="44.02874" lon="5.97711">
        <ele>426</ele>
        <time>2021-12-21T09:33:28.000Z</time>
      </trkpt>
      <trkpt lat="44.02874" lon="5.97711">
        <ele>426</ele>
        <time>2021-12-21T09:33:29.000Z</time>
      </trkpt>
      <trkpt lat="44.02874" lon="5.97711">
        <ele>426</ele>
        <time>2021-12-21T09:33:30.000Z</time>
      </trkpt>
      <trkpt lat="44.02874" lon="5.97711">
        <ele>426</ele>
        <time>2021-12-21T09:33:31.000Z</time>
      </trkpt>
      <trkpt lat="44.02874" lon="5.97711">
        <ele>426</ele>
        <time>2021-12-21T09:33:32.000Z</time>
      </trkpt>
      <trkpt lat="44.02874" lon="5.97711">
        <ele>426</ele>
        <time>2021-12-21T09:33:33.000Z</time>
      </trkpt>
      <trkpt lat="44.02874" lon="5.97711">
        <ele>427</ele>
        <time>2021-12-21T09:33:34.000Z</time>
      </trkpt>
      <trkpt lat="44.02874" lon="5.97711">
        <ele>427</ele>
        <time>2021-12-21T09:33:35.000Z</time>
      </trkpt>
      <trkpt lat="44.02874" lon="5.97711">
        <ele>427</ele>
        <time>2021-12-21T09:33:36.000Z</time>
      </trkpt>
      <trkpt lat="44.02874" lon="5.97711">
        <ele>427</ele>
        <time>2021-12-21T09:33:37.000Z</time>
      </trkpt>
      <trkpt lat="44.02874" lon="5.97711">
        <ele>427</ele>
        <time>2021-12-21T09:33:38.000Z</time>
      </trkpt>
      <trkpt lat="44.02874" lon="5.97711">
        <ele>427</ele>
        <time>2021-12-21T09:33:39.000Z</time>
      </trkpt>
      <trkpt lat="44.02874" lon="5.97711">
        <ele>427</ele>
        <time>2021-12-21T09:33:40.000Z</time>
      </trkpt>
      <trkpt lat="44.02873" lon="5.97712">
        <ele>427</ele>
        <time>2021-12-21T09:33:41.000Z</time>
      </trkpt>
      <trkpt lat="44.02873" lon="5.97712">
        <ele>427</ele>
        <time>2021-12-21T09:33:42.000Z</time>
      </trkpt>
      <trkpt lat="44.02873" lon="5.97712">
        <ele>427</ele>
        <time>2021-12-21T09:33:43.000Z</time>
      </trkpt>
      <trkpt lat="44.02873" lon="5.97712">
        <ele>427</ele>
        <time>2021-12-21T09:33:44.000Z</time>
      </trkpt>
      <trkpt lat="44.02873" lon="5.97712">
        <ele>427</ele>
        <time>2021-12-21T09:33:45.000Z</time>
      </trkpt>
      <trkpt lat="44.02873" lon="5.97712">
        <ele>427</ele>
        <time>2021-12-21T09:33:46.000Z</time>
      </trkpt>
      <trkpt lat="44.02873" lon="5.97712">
        <ele>427</ele>
        <time>2021-12-21T09:33:47.000Z</time>
      </trkpt>
      <trkpt lat="44.02874" lon="5.97712">
        <ele>427</ele>
        <time>2021-12-21T09:33:48.000Z</time>
      </trkpt>
      <trkpt lat="44.02874" lon="5.97712">
        <ele>427</ele>
        <time>2021-12-21T09:33:49.000Z</time>
      </trkpt>
      <trkpt lat="44.02874" lon="5.97712">
        <ele>427</ele>
        <time>2021-12-21T09:33:50.000Z</time>
      </trkpt>
      <trkpt lat="44.02874" lon="5.97712">
        <ele>427</ele>
        <time>2021-12-21T09:33:51.000Z</time>
      </trkpt>
      <trkpt lat="44.02874" lon="5.97712">
        <ele>427</ele>
        <time>2021-12-21T09:33:52.000Z</time>
      </trkpt>
      <trkpt lat="44.02874" lon="5.97712">
        <ele>427</ele>
        <time>2021-12-21T09:33:53.000Z</time>
      </trkpt>
      <trkpt lat="44.02874" lon="5.97712">
        <ele>427</ele>
        <time>2021-12-21T09:33:54.000Z</time>
      </trkpt>
      <trkpt lat="44.02875" lon="5.97712">
        <ele>427</ele>
        <time>2021-12-21T09:33:55.000Z</time>
      </trkpt>
      <trkpt lat="44.02875" lon="5.97712">
        <ele>427</ele>
        <time>2021-12-21T09:33:56.000Z</time>
      </trkpt>
      <trkpt lat="44.02875" lon="5.97712">
        <ele>427</ele>
        <time>2021-12-21T09:33:57.000Z</time>
      </trkpt>
      <trkpt lat="44.02875" lon="5.97712">
        <ele>427</ele>
        <time>2021-12-21T09:33:58.000Z</time>
      </trkpt>
      <trkpt lat="44.02875" lon="5.97712">
        <ele>427</ele>
        <time>2021-12-21T09:33:59.000Z</time>
      </trkpt>
      <trkpt lat="44.02875" lon="5.97712">
        <ele>427</ele>
        <time>2021-12-21T09:34:00.000Z</time>
      </trkpt>
      <trkpt lat="44.02875" lon="5.97711">
        <ele>427</ele>
        <time>2021-12-21T09:34:01.000Z</time>
      </trkpt>
      <trkpt lat="44.02875" lon="5.97711">
        <ele>427</ele>
        <time>2021-12-21T09:34:02.000Z</time>
      </trkpt>
      <trkpt lat="44.02875" lon="5.97711">
        <ele>427</ele>
        <time>2021-12-21T09:34:03.000Z</time>
      </trkpt>
      <trkpt lat="44.02875" lon="5.97711">
        <ele>427</ele>
        <time>2021-12-21T09:34:04.000Z</time>
      </trkpt>
      <trkpt lat="44.02875" lon="5.97711">
        <ele>427</ele>
        <time>2021-12-21T09:34:05.000Z</time>
      </trkpt>
      <trkpt lat="44.02875" lon="5.97711">
        <ele>427</ele>
        <time>2021-12-21T09:34:06.000Z</time>
      </trkpt>
      <trkpt lat="44.02875" lon="5.97711">
        <ele>427</ele>
        <time>2021-12-21T09:34:07.000Z</time>
      </trkpt>
      <trkpt lat="44.02875" lon="5.97711">
        <ele>427</ele>
        <time>2021-12-21T09:34:08.000Z</time>
      </trkpt>
      <trkpt lat="44.02875" lon="5.97712">
        <ele>427</ele>
        <time>2021-12-21T09:34:09.000Z</time>
      </trkpt>
      <trkpt lat="44.02875" lon="5.97712">
        <ele>427</ele>
        <time>2021-12-21T09:34:10.000Z</time>
      </trkpt>
      <trkpt lat="44.02875" lon="5.97712">
        <ele>427</ele>
        <time>2021-12-21T09:34:11.000Z</time>
      </trkpt>
      <trkpt lat="44.02875" lon="5.97712">
        <ele>427</ele>
        <time>2021-12-21T09:34:12.000Z</time>
      </trkpt>
      <trkpt lat="44.02875" lon="5.97713">
        <ele>427</ele>
        <time>2021-12-21T09:34:13.000Z</time>
      </trkpt>
      <trkpt lat="44.02875" lon="5.97713">
        <ele>427</ele>
        <time>2021-12-21T09:34:14.000Z</time>
      </trkpt>
      <trkpt lat="44.02875" lon="5.97713">
        <ele>427</ele>
        <time>2021-12-21T09:34:15.000Z</time>
      </trkpt>
      <trkpt lat="44.02875" lon="5.97713">
        <ele>427</ele>
        <time>2021-12-21T09:34:16.000Z</time>
      </trkpt>
      <trkpt lat="44.02875" lon="5.97713">
        <ele>427</ele>
        <time>2021-12-21T09:34:17.000Z</time>
      </trkpt>
      <trkpt lat="44.02875" lon="5.97713">
        <ele>428</ele>
        <time>2021-12-21T09:34:18.000Z</time>
      </trkpt>
      <trkpt lat="44.02875" lon="5.97713">
        <ele>428</ele>
        <time>2021-12-21T09:34:19.000Z</time>
      </trkpt>
      <trkpt lat="44.02875" lon="5.97713">
        <ele>428</ele>
        <time>2021-12-21T09:34:20.000Z</time>
      </trkpt>
      <trkpt lat="44.02875" lon="5.97713">
        <ele>428</ele>
        <time>2021-12-21T09:34:21.000Z</time>
      </trkpt>
      <trkpt lat="44.02875" lon="5.97713">
        <ele>428</ele>
        <time>2021-12-21T09:34:22.000Z</time>
      </trkpt>
      <trkpt lat="44.02875" lon="5.97713">
        <ele>428</ele>
        <time>2021-12-21T09:34:23.000Z</time>
      </trkpt>
      <trkpt lat="44.02876" lon="5.97713">
        <ele>428</ele>
        <time>2021-12-21T09:34:24.000Z</time>
      </trkpt>
      <trkpt lat="44.02876" lon="5.97713">
        <ele>428</ele>
        <time>2021-12-21T09:34:25.000Z</time>
      </trkpt>
      <trkpt lat="44.02875" lon="5.97714">
        <ele>428</ele>
        <time>2021-12-21T09:34:26.000Z</time>
      </trkpt>
      <trkpt lat="44.02875" lon="5.97714">
        <ele>428</ele>
        <time>2021-12-21T09:34:27.000Z</time>
      </trkpt>
      <trkpt lat="44.02874" lon="5.97716">
        <ele>428</ele>
        <time>2021-12-21T09:34:28.000Z</time>
      </trkpt>
      <trkpt lat="44.02874" lon="5.97716">
        <ele>428</ele>
        <time>2021-12-21T09:34:29.000Z</time>
      </trkpt>
      <trkpt lat="44.02873" lon="5.97718">
        <ele>429</ele>
        <time>2021-12-21T09:34:30.000Z</time>
      </trkpt>
      <trkpt lat="44.02872" lon="5.97719">
        <ele>429</ele>
        <time>2021-12-21T09:34:31.000Z</time>
      </trkpt>
      <trkpt lat="44.02871" lon="5.97721">
        <ele>429</ele>
        <time>2021-12-21T09:34:32.000Z</time>
      </trkpt>
      <trkpt lat="44.02871" lon="5.97723">
        <ele>429</ele>
        <time>2021-12-21T09:34:33.000Z</time>
      </trkpt>
      <trkpt lat="44.0287" lon="5.97724">
        <ele>429</ele>
        <time>2021-12-21T09:34:34.000Z</time>
      </trkpt>
      <trkpt lat="44.0287" lon="5.97726">
        <ele>429</ele>
        <time>2021-12-21T09:34:35.000Z</time>
      </trkpt>
      <trkpt lat="44.02869" lon="5.97727">
        <ele>429</ele>
        <time>2021-12-21T09:34:36.000Z</time>
      </trkpt>
      <trkpt lat="44.02868" lon="5.97729">
        <ele>429</ele>
        <time>2021-12-21T09:34:37.000Z</time>
      </trkpt>
      <trkpt lat="44.02868" lon="5.9773">
        <ele>429</ele>
        <time>2021-12-21T09:34:38.000Z</time>
      </trkpt>
      <trkpt lat="44.02867" lon="5.97731">
        <ele>429</ele>
        <time>2021-12-21T09:34:39.000Z</time>
      </trkpt>
      <trkpt lat="44.02867" lon="5.97733">
        <ele>429</ele>
        <time>2021-12-21T09:34:40.000Z</time>
      </trkpt>
      <trkpt lat="44.02866" lon="5.97734">
        <ele>429</ele>
        <time>2021-12-21T09:34:41.000Z</time>
      </trkpt>
      <trkpt lat="44.02866" lon="5.97736">
        <ele>429</ele>
        <time>2021-12-21T09:34:42.000Z</time>
      </trkpt>
      <trkpt lat="44.02866" lon="5.97737">
        <ele>429</ele>
        <time>2021-12-21T09:34:43.000Z</time>
      </trkpt>
      <trkpt lat="44.02865" lon="5.97739">
        <ele>429</ele>
        <time>2021-12-21T09:34:44.000Z</time>
      </trkpt>
      <trkpt lat="44.02865" lon="5.97741">
        <ele>429</ele>
        <time>2021-12-21T09:34:45.000Z</time>
      </trkpt>
      <trkpt lat="44.02865" lon="5.97742">
        <ele>429</ele>
        <time>2021-12-21T09:34:46.000Z</time>
      </trkpt>
      <trkpt lat="44.02864" lon="5.97744">
        <ele>429</ele>
        <time>2021-12-21T09:34:47.000Z</time>
      </trkpt>
      <trkpt lat="44.02864" lon="5.97746">
        <ele>429</ele>
        <time>2021-12-21T09:34:48.000Z</time>
      </trkpt>
      <trkpt lat="44.02865" lon="5.97747">
        <ele>429</ele>
        <time>2021-12-21T09:34:49.000Z</time>
      </trkpt>
      <trkpt lat="44.02865" lon="5.97749">
        <ele>430</ele>
        <time>2021-12-21T09:34:50.000Z</time>
      </trkpt>
      <trkpt lat="44.02865" lon="5.97751">
        <ele>430</ele>
        <time>2021-12-21T09:34:51.000Z</time>
      </trkpt>
      <trkpt lat="44.02864" lon="5.97753">
        <ele>430</ele>
        <time>2021-12-21T09:34:52.000Z</time>
      </trkpt>
      <trkpt lat="44.02864" lon="5.97755">
        <ele>430</ele>
        <time>2021-12-21T09:34:53.000Z</time>
      </trkpt>
      <trkpt lat="44.02864" lon="5.97757">
        <ele>430</ele>
        <time>2021-12-21T09:34:54.000Z</time>
      </trkpt>
      <trkpt lat="44.02864" lon="5.97758">
        <ele>430</ele>
        <time>2021-12-21T09:34:55.000Z</time>
      </trkpt>
      <trkpt lat="44.02864" lon="5.9776">
        <ele>430</ele>
        <time>2021-12-21T09:34:56.000Z</time>
      </trkpt>
      <trkpt lat="44.02864" lon="5.97762">
        <ele>430</ele>
        <time>2021-12-21T09:34:57.000Z</time>
      </trkpt>
      <trkpt lat="44.02864" lon="5.97764">
        <ele>430</ele>
        <time>2021-12-21T09:34:58.000Z</time>
      </trkpt>
      <trkpt lat="44.02863" lon="5.97766">
        <ele>431</ele>
        <time>2021-12-21T09:34:59.000Z</time>
      </trkpt>
      <trkpt lat="44.02863" lon="5.97768">
        <ele>431</ele>
        <time>2021-12-21T09:35:00.000Z</time>
      </trkpt>
      <trkpt lat="44.02862" lon="5.97769">
        <ele>431</ele>
        <time>2021-12-21T09:35:01.000Z</time>
      </trkpt>
      <trkpt lat="44.02862" lon="5.97771">
        <ele>431</ele>
        <time>2021-12-21T09:35:02.000Z</time>
      </trkpt>
      <trkpt lat="44.02861" lon="5.97773">
        <ele>431</ele>
        <time>2021-12-21T09:35:03.000Z</time>
      </trkpt>
      <trkpt lat="44.02861" lon="5.97775">
        <ele>431</ele>
        <time>2021-12-21T09:35:04.000Z</time>
      </trkpt>
      <trkpt lat="44.02861" lon="5.97777">
        <ele>431</ele>
        <time>2021-12-21T09:35:05.000Z</time>
      </trkpt>
      <trkpt lat="44.0286" lon="5.97778">
        <ele>431</ele>
        <time>2021-12-21T09:35:06.000Z</time>
      </trkpt>
      <trkpt lat="44.0286" lon="5.9778">
        <ele>431</ele>
        <time>2021-12-21T09:35:07.000Z</time>
      </trkpt>
      <trkpt lat="44.02859" lon="5.97782">
        <ele>432</ele>
        <time>2021-12-21T09:35:08.000Z</time>
      </trkpt>
      <trkpt lat="44.02859" lon="5.97784">
        <ele>432</ele>
        <time>2021-12-21T09:35:09.000Z</time>
      </trkpt>
      <trkpt lat="44.02858" lon="5.97786">
        <ele>432</ele>
        <time>2021-12-21T09:35:10.000Z</time>
      </trkpt>
      <trkpt lat="44.02858" lon="5.97787">
        <ele>432</ele>
        <time>2021-12-21T09:35:11.000Z</time>
      </trkpt>
      <trkpt lat="44.02857" lon="5.97789">
        <ele>432</ele>
        <time>2021-12-21T09:35:12.000Z</time>
      </trkpt>
      <trkpt lat="44.02856" lon="5.9779">
        <ele>432</ele>
        <time>2021-12-21T09:35:13.000Z</time>
      </trkpt>
      <trkpt lat="44.02856" lon="5.97792">
        <ele>432</ele>
        <time>2021-12-21T09:35:14.000Z</time>
      </trkpt>
      <trkpt lat="44.02856" lon="5.97794">
        <ele>432</ele>
        <time>2021-12-21T09:35:15.000Z</time>
      </trkpt>
      <trkpt lat="44.02856" lon="5.97796">
        <ele>432</ele>
        <time>2021-12-21T09:35:16.000Z</time>
      </trkpt>
      <trkpt lat="44.02855" lon="5.97798">
        <ele>432</ele>
        <time>2021-12-21T09:35:17.000Z</time>
      </trkpt>
      <trkpt lat="44.02855" lon="5.97799">
        <ele>432</ele>
        <time>2021-12-21T09:35:18.000Z</time>
      </trkpt>
      <trkpt lat="44.02854" lon="5.97801">
        <ele>432</ele>
        <time>2021-12-21T09:35:19.000Z</time>
      </trkpt>
      <trkpt lat="44.02854" lon="5.97803">
        <ele>432</ele>
        <time>2021-12-21T09:35:20.000Z</time>
      </trkpt>
      <trkpt lat="44.02854" lon="5.97805">
        <ele>432</ele>
        <time>2021-12-21T09:35:21.000Z</time>
      </trkpt>
      <trkpt lat="44.02853" lon="5.97806">
        <ele>432</ele>
        <time>2021-12-21T09:35:22.000Z</time>
      </trkpt>
      <trkpt lat="44.02853" lon="5.97808">
        <ele>432</ele>
        <time>2021-12-21T09:35:23.000Z</time>
      </trkpt>
      <trkpt lat="44.02852" lon="5.9781">
        <ele>432</ele>
        <time>2021-12-21T09:35:24.000Z</time>
      </trkpt>
      <trkpt lat="44.02852" lon="5.97811">
        <ele>432</ele>
        <time>2021-12-21T09:35:25.000Z</time>
      </trkpt>
      <trkpt lat="44.02851" lon="5.97813">
        <ele>432</ele>
        <time>2021-12-21T09:35:26.000Z</time>
      </trkpt>
      <trkpt lat="44.0285" lon="5.97815">
        <ele>432</ele>
        <time>2021-12-21T09:35:27.000Z</time>
      </trkpt>
      <trkpt lat="44.0285" lon="5.97817">
        <ele>432</ele>
        <time>2021-12-21T09:35:28.000Z</time>
      </trkpt>
      <trkpt lat="44.0285" lon="5.97819">
        <ele>432</ele>
        <time>2021-12-21T09:35:29.000Z</time>
      </trkpt>
      <trkpt lat="44.02849" lon="5.9782">
        <ele>432</ele>
        <time>2021-12-21T09:35:30.000Z</time>
      </trkpt>
      <trkpt lat="44.02849" lon="5.97822">
        <ele>433</ele>
        <time>2021-12-21T09:35:31.000Z</time>
      </trkpt>
      <trkpt lat="44.02848" lon="5.97824">
        <ele>433</ele>
        <time>2021-12-21T09:35:32.000Z</time>
      </trkpt>
      <trkpt lat="44.02848" lon="5.97826">
        <ele>433</ele>
        <time>2021-12-21T09:35:33.000Z</time>
      </trkpt>
      <trkpt lat="44.02847" lon="5.97828">
        <ele>433</ele>
        <time>2021-12-21T09:35:34.000Z</time>
      </trkpt>
      <trkpt lat="44.02847" lon="5.97829">
        <ele>433</ele>
        <time>2021-12-21T09:35:35.000Z</time>
      </trkpt>
      <trkpt lat="44.02846" lon="5.97831">
        <ele>433</ele>
        <time>2021-12-21T09:35:36.000Z</time>
      </trkpt>
      <trkpt lat="44.02845" lon="5.97833">
        <ele>433</ele>
        <time>2021-12-21T09:35:37.000Z</time>
      </trkpt>
      <trkpt lat="44.02845" lon="5.97834">
        <ele>433</ele>
        <time>2021-12-21T09:35:38.000Z</time>
      </trkpt>
      <trkpt lat="44.02844" lon="5.97836">
        <ele>433</ele>
        <time>2021-12-21T09:35:39.000Z</time>
      </trkpt>
      <trkpt lat="44.02843" lon="5.97838">
        <ele>433</ele>
        <time>2021-12-21T09:35:40.000Z</time>
      </trkpt>
      <trkpt lat="44.02843" lon="5.9784">
        <ele>433</ele>
        <time>2021-12-21T09:35:41.000Z</time>
      </trkpt>
      <trkpt lat="44.02843" lon="5.97841">
        <ele>433</ele>
        <time>2021-12-21T09:35:42.000Z</time>
      </trkpt>
      <trkpt lat="44.02843" lon="5.97843">
        <ele>434</ele>
        <time>2021-12-21T09:35:43.000Z</time>
      </trkpt>
      <trkpt lat="44.02842" lon="5.97844">
        <ele>434</ele>
        <time>2021-12-21T09:35:44.000Z</time>
      </trkpt>
      <trkpt lat="44.02842" lon="5.97846">
        <ele>434</ele>
        <time>2021-12-21T09:35:45.000Z</time>
      </trkpt>
      <trkpt lat="44.02842" lon="5.97847">
        <ele>434</ele>
        <time>2021-12-21T09:35:46.000Z</time>
      </trkpt>
      <trkpt lat="44.02841" lon="5.97849">
        <ele>434</ele>
        <time>2021-12-21T09:35:47.000Z</time>
      </trkpt>
      <trkpt lat="44.02841" lon="5.97851">
        <ele>434</ele>
        <time>2021-12-21T09:35:48.000Z</time>
      </trkpt>
      <trkpt lat="44.02841" lon="5.97853">
        <ele>434</ele>
        <time>2021-12-21T09:35:49.000Z</time>
      </trkpt>
      <trkpt lat="44.02841" lon="5.97854">
        <ele>434</ele>
        <time>2021-12-21T09:35:50.000Z</time>
      </trkpt>
      <trkpt lat="44.02841" lon="5.97855">
        <ele>434</ele>
        <time>2021-12-21T09:35:51.000Z</time>
      </trkpt>
      <trkpt lat="44.0284" lon="5.97857">
        <ele>434</ele>
        <time>2021-12-21T09:35:52.000Z</time>
      </trkpt>
      <trkpt lat="44.0284" lon="5.97859">
        <ele>434</ele>
        <time>2021-12-21T09:35:53.000Z</time>
      </trkpt>
      <trkpt lat="44.0284" lon="5.97861">
        <ele>434</ele>
        <time>2021-12-21T09:35:54.000Z</time>
      </trkpt>
      <trkpt lat="44.0284" lon="5.97863">
        <ele>435</ele>
        <time>2021-12-21T09:35:55.000Z</time>
      </trkpt>
      <trkpt lat="44.0284" lon="5.97864">
        <ele>435</ele>
        <time>2021-12-21T09:35:56.000Z</time>
      </trkpt>
      <trkpt lat="44.0284" lon="5.97866">
        <ele>435</ele>
        <time>2021-12-21T09:35:57.000Z</time>
      </trkpt>
      <trkpt lat="44.0284" lon="5.97867">
        <ele>435</ele>
        <time>2021-12-21T09:35:58.000Z</time>
      </trkpt>
      <trkpt lat="44.02839" lon="5.97869">
        <ele>435</ele>
        <time>2021-12-21T09:35:59.000Z</time>
      </trkpt>
      <trkpt lat="44.0284" lon="5.97871">
        <ele>435</ele>
        <time>2021-12-21T09:36:00.000Z</time>
      </trkpt>
      <trkpt lat="44.0284" lon="5.97873">
        <ele>435</ele>
        <time>2021-12-21T09:36:01.000Z</time>
      </trkpt>
      <trkpt lat="44.0284" lon="5.97875">
        <ele>435</ele>
        <time>2021-12-21T09:36:02.000Z</time>
      </trkpt>
      <trkpt lat="44.0284" lon="5.97876">
        <ele>435</ele>
        <time>2021-12-21T09:36:03.000Z</time>
      </trkpt>
      <trkpt lat="44.0284" lon="5.97878">
        <ele>435</ele>
        <time>2021-12-21T09:36:04.000Z</time>
      </trkpt>
      <trkpt lat="44.0284" lon="5.9788">
        <ele>435</ele>
        <time>2021-12-21T09:36:05.000Z</time>
      </trkpt>
      <trkpt lat="44.0284" lon="5.97881">
        <ele>435</ele>
        <time>2021-12-21T09:36:06.000Z</time>
      </trkpt>
      <trkpt lat="44.0284" lon="5.97883">
        <ele>435</ele>
        <time>2021-12-21T09:36:07.000Z</time>
      </trkpt>
      <trkpt lat="44.02841" lon="5.97885">
        <ele>435</ele>
        <time>2021-12-21T09:36:08.000Z</time>
      </trkpt>
      <trkpt lat="44.02841" lon="5.97886">
        <ele>435</ele>
        <time>2021-12-21T09:36:09.000Z</time>
      </trkpt>
      <trkpt lat="44.02841" lon="5.97887">
        <ele>435</ele>
        <time>2021-12-21T09:36:10.000Z</time>
      </trkpt>
      <trkpt lat="44.0284" lon="5.97889">
        <ele>435</ele>
        <time>2021-12-21T09:36:11.000Z</time>
      </trkpt>
      <trkpt lat="44.0284" lon="5.97891">
        <ele>435</ele>
        <time>2021-12-21T09:36:12.000Z</time>
      </trkpt>
      <trkpt lat="44.02841" lon="5.97892">
        <ele>435</ele>
        <time>2021-12-21T09:36:13.000Z</time>
      </trkpt>
      <trkpt lat="44.02841" lon="5.97894">
        <ele>435</ele>
        <time>2021-12-21T09:36:14.000Z</time>
      </trkpt>
      <trkpt lat="44.02841" lon="5.97895">
        <ele>435</ele>
        <time>2021-12-21T09:36:15.000Z</time>
      </trkpt>
      <trkpt lat="44.02841" lon="5.97897">
        <ele>435</ele>
        <time>2021-12-21T09:36:16.000Z</time>
      </trkpt>
      <trkpt lat="44.02841" lon="5.97899">
        <ele>435</ele>
        <time>2021-12-21T09:36:17.000Z</time>
      </trkpt>
      <trkpt lat="44.02841" lon="5.979">
        <ele>435</ele>
        <time>2021-12-21T09:36:18.000Z</time>
      </trkpt>
      <trkpt lat="44.02841" lon="5.97902">
        <ele>435</ele>
        <time>2021-12-21T09:36:19.000Z</time>
      </trkpt>
      <trkpt lat="44.02841" lon="5.97903">
        <ele>435</ele>
        <time>2021-12-21T09:36:20.000Z</time>
      </trkpt>
      <trkpt lat="44.0284" lon="5.97904">
        <ele>435</ele>
        <time>2021-12-21T09:36:21.000Z</time>
      </trkpt>
      <trkpt lat="44.0284" lon="5.97906">
        <ele>435</ele>
        <time>2021-12-21T09:36:22.000Z</time>
      </trkpt>
      <trkpt lat="44.0284" lon="5.97908">
        <ele>435</ele>
        <time>2021-12-21T09:36:23.000Z</time>
      </trkpt>
      <trkpt lat="44.0284" lon="5.97909">
        <ele>435</ele>
        <time>2021-12-21T09:36:24.000Z</time>
      </trkpt>
      <trkpt lat="44.0284" lon="5.97911">
        <ele>435</ele>
        <time>2021-12-21T09:36:25.000Z</time>
      </trkpt>
      <trkpt lat="44.0284" lon="5.97913">
        <ele>435</ele>
        <time>2021-12-21T09:36:26.000Z</time>
      </trkpt>
      <trkpt lat="44.0284" lon="5.97914">
        <ele>435</ele>
        <time>2021-12-21T09:36:27.000Z</time>
      </trkpt>
      <trkpt lat="44.02841" lon="5.97916">
        <ele>435</ele>
        <time>2021-12-21T09:36:28.000Z</time>
      </trkpt>
      <trkpt lat="44.02841" lon="5.97918">
        <ele>435</ele>
        <time>2021-12-21T09:36:29.000Z</time>
      </trkpt>
      <trkpt lat="44.02841" lon="5.97919">
        <ele>435</ele>
        <time>2021-12-21T09:36:30.000Z</time>
      </trkpt>
      <trkpt lat="44.02841" lon="5.97921">
        <ele>436</ele>
        <time>2021-12-21T09:36:31.000Z</time>
      </trkpt>
      <trkpt lat="44.02841" lon="5.97922">
        <ele>436</ele>
        <time>2021-12-21T09:36:32.000Z</time>
      </trkpt>
      <trkpt lat="44.02841" lon="5.97924">
        <ele>436</ele>
        <time>2021-12-21T09:36:33.000Z</time>
      </trkpt>
      <trkpt lat="44.02841" lon="5.97926">
        <ele>436</ele>
        <time>2021-12-21T09:36:34.000Z</time>
      </trkpt>
      <trkpt lat="44.02841" lon="5.97928">
        <ele>436</ele>
        <time>2021-12-21T09:36:35.000Z</time>
      </trkpt>
      <trkpt lat="44.02841" lon="5.97929">
        <ele>436</ele>
        <time>2021-12-21T09:36:36.000Z</time>
      </trkpt>
      <trkpt lat="44.02842" lon="5.97931">
        <ele>436</ele>
        <time>2021-12-21T09:36:37.000Z</time>
      </trkpt>
      <trkpt lat="44.02841" lon="5.97932">
        <ele>436</ele>
        <time>2021-12-21T09:36:38.000Z</time>
      </trkpt>
      <trkpt lat="44.02841" lon="5.97934">
        <ele>436</ele>
        <time>2021-12-21T09:36:39.000Z</time>
      </trkpt>
      <trkpt lat="44.02842" lon="5.97936">
        <ele>436</ele>
        <time>2021-12-21T09:36:40.000Z</time>
      </trkpt>
      <trkpt lat="44.02841" lon="5.97938">
        <ele>436</ele>
        <time>2021-12-21T09:36:41.000Z</time>
      </trkpt>
      <trkpt lat="44.02841" lon="5.97939">
        <ele>436</ele>
        <time>2021-12-21T09:36:42.000Z</time>
      </trkpt>
      <trkpt lat="44.02841" lon="5.97941">
        <ele>436</ele>
        <time>2021-12-21T09:36:43.000Z</time>
      </trkpt>
      <trkpt lat="44.0284" lon="5.97943">
        <ele>436</ele>
        <time>2021-12-21T09:36:44.000Z</time>
      </trkpt>
      <trkpt lat="44.0284" lon="5.97944">
        <ele>436</ele>
        <time>2021-12-21T09:36:45.000Z</time>
      </trkpt>
      <trkpt lat="44.0284" lon="5.97946">
        <ele>436</ele>
        <time>2021-12-21T09:36:46.000Z</time>
      </trkpt>
      <trkpt lat="44.0284" lon="5.97947">
        <ele>436</ele>
        <time>2021-12-21T09:36:47.000Z</time>
      </trkpt>
      <trkpt lat="44.0284" lon="5.97949">
        <ele>436</ele>
        <time>2021-12-21T09:36:48.000Z</time>
      </trkpt>
      <trkpt lat="44.0284" lon="5.9795">
        <ele>436</ele>
        <time>2021-12-21T09:36:49.000Z</time>
      </trkpt>
      <trkpt lat="44.0284" lon="5.97952">
        <ele>436</ele>
        <time>2021-12-21T09:36:50.000Z</time>
      </trkpt>
      <trkpt lat="44.0284" lon="5.97954">
        <ele>437</ele>
        <time>2021-12-21T09:36:51.000Z</time>
      </trkpt>
      <trkpt lat="44.0284" lon="5.97955">
        <ele>437</ele>
        <time>2021-12-21T09:36:52.000Z</time>
      </trkpt>
      <trkpt lat="44.0284" lon="5.97957">
        <ele>437</ele>
        <time>2021-12-21T09:36:53.000Z</time>
      </trkpt>
      <trkpt lat="44.02841" lon="5.97958">
        <ele>437</ele>
        <time>2021-12-21T09:36:54.000Z</time>
      </trkpt>
      <trkpt lat="44.0284" lon="5.9796">
        <ele>437</ele>
        <time>2021-12-21T09:36:55.000Z</time>
      </trkpt>
      <trkpt lat="44.0284" lon="5.97962">
        <ele>437</ele>
        <time>2021-12-21T09:36:56.000Z</time>
      </trkpt>
      <trkpt lat="44.02841" lon="5.97963">
        <ele>437</ele>
        <time>2021-12-21T09:36:57.000Z</time>
      </trkpt>
      <trkpt lat="44.02841" lon="5.97965">
        <ele>438</ele>
        <time>2021-12-21T09:36:58.000Z</time>
      </trkpt>
      <trkpt lat="44.02841" lon="5.97967">
        <ele>438</ele>
        <time>2021-12-21T09:36:59.000Z</time>
      </trkpt>
      <trkpt lat="44.02841" lon="5.97968">
        <ele>438</ele>
        <time>2021-12-21T09:37:00.000Z</time>
      </trkpt>
      <trkpt lat="44.02841" lon="5.9797">
        <ele>438</ele>
        <time>2021-12-21T09:37:01.000Z</time>
      </trkpt>
      <trkpt lat="44.02841" lon="5.97971">
        <ele>438</ele>
        <time>2021-12-21T09:37:02.000Z</time>
      </trkpt>
      <trkpt lat="44.02841" lon="5.97973">
        <ele>438</ele>
        <time>2021-12-21T09:37:03.000Z</time>
      </trkpt>
      <trkpt lat="44.02841" lon="5.97975">
        <ele>438</ele>
        <time>2021-12-21T09:37:04.000Z</time>
      </trkpt>
      <trkpt lat="44.02841" lon="5.97975">
        <ele>438</ele>
        <time>2021-12-21T09:37:05.000Z</time>
      </trkpt>
      <trkpt lat="44.02841" lon="5.97976">
        <ele>438</ele>
        <time>2021-12-21T09:37:06.000Z</time>
      </trkpt>
      <trkpt lat="44.02841" lon="5.97976">
        <ele>438</ele>
        <time>2021-12-21T09:37:07.000Z</time>
      </trkpt>
      <trkpt lat="44.02841" lon="5.97976">
        <ele>438</ele>
        <time>2021-12-21T09:37:08.000Z</time>
      </trkpt>
      <trkpt lat="44.02841" lon="5.97976">
        <ele>438</ele>
        <time>2021-12-21T09:37:09.000Z</time>
      </trkpt>
      <trkpt lat="44.02841" lon="5.97976">
        <ele>438</ele>
        <time>2021-12-21T09:37:10.000Z</time>
      </trkpt>
      <trkpt lat="44.02841" lon="5.97976">
        <ele>438</ele>
        <time>2021-12-21T09:37:11.000Z</time>
      </trkpt>
      <trkpt lat="44.02842" lon="5.97976">
        <ele>438</ele>
        <time>2021-12-21T09:37:12.000Z</time>
      </trkpt>
      <trkpt lat="44.02842" lon="5.97976">
        <ele>439</ele>
        <time>2021-12-21T09:37:13.000Z</time>
      </trkpt>
      <trkpt lat="44.02842" lon="5.97976">
        <ele>439</ele>
        <time>2021-12-21T09:37:14.000Z</time>
      </trkpt>
      <trkpt lat="44.02842" lon="5.97976">
        <ele>439</ele>
        <time>2021-12-21T09:37:15.000Z</time>
      </trkpt>
      <trkpt lat="44.02842" lon="5.97976">
        <ele>439</ele>
        <time>2021-12-21T09:37:16.000Z</time>
      </trkpt>
      <trkpt lat="44.02842" lon="5.97977">
        <ele>439</ele>
        <time>2021-12-21T09:37:17.000Z</time>
      </trkpt>
      <trkpt lat="44.02842" lon="5.97978">
        <ele>439</ele>
        <time>2021-12-21T09:37:18.000Z</time>
      </trkpt>
      <trkpt lat="44.02842" lon="5.97979">
        <ele>439</ele>
        <time>2021-12-21T09:37:19.000Z</time>
      </trkpt>
      <trkpt lat="44.02841" lon="5.97981">
        <ele>439</ele>
        <time>2021-12-21T09:37:20.000Z</time>
      </trkpt>
      <trkpt lat="44.02841" lon="5.97982">
        <ele>439</ele>
        <time>2021-12-21T09:37:21.000Z</time>
      </trkpt>
      <trkpt lat="44.0284" lon="5.97982">
        <ele>439</ele>
        <time>2021-12-21T09:37:22.000Z</time>
      </trkpt>
      <trkpt lat="44.0284" lon="5.97982">
        <ele>439</ele>
        <time>2021-12-21T09:37:23.000Z</time>
      </trkpt>
      <trkpt lat="44.0284" lon="5.97982">
        <ele>439</ele>
        <time>2021-12-21T09:37:24.000Z</time>
      </trkpt>
      <trkpt lat="44.0284" lon="5.97982">
        <ele>439</ele>
        <time>2021-12-21T09:37:25.000Z</time>
      </trkpt>
      <trkpt lat="44.0284" lon="5.97982">
        <ele>439</ele>
        <time>2021-12-21T09:37:26.000Z</time>
      </trkpt>
      <trkpt lat="44.0284" lon="5.97982">
        <ele>439</ele>
        <time>2021-12-21T09:37:27.000Z</time>
      </trkpt>
      <trkpt lat="44.0284" lon="5.97982">
        <ele>439</ele>
        <time>2021-12-21T09:37:28.000Z</time>
      </trkpt>
      <trkpt lat="44.0284" lon="5.97982">
        <ele>439</ele>
        <time>2021-12-21T09:37:29.000Z</time>
      </trkpt>
      <trkpt lat="44.0284" lon="5.97982">
        <ele>439</ele>
        <time>2021-12-21T09:37:30.000Z</time>
      </trkpt>
      <trkpt lat="44.0284" lon="5.97982">
        <ele>439</ele>
        <time>2021-12-21T09:37:31.000Z</time>
      </trkpt>
      <trkpt lat="44.0284" lon="5.97982">
        <ele>439</ele>
        <time>2021-12-21T09:37:32.000Z</time>
      </trkpt>
      <trkpt lat="44.0284" lon="5.97982">
        <ele>439</ele>
        <time>2021-12-21T09:37:33.000Z</time>
      </trkpt>
      <trkpt lat="44.0284" lon="5.97982">
        <ele>439</ele>
        <time>2021-12-21T09:37:34.000Z</time>
      </trkpt>
      <trkpt lat="44.0284" lon="5.97982">
        <ele>439</ele>
        <time>2021-12-21T09:37:35.000Z</time>
      </trkpt>
      <trkpt lat="44.0284" lon="5.97983">
        <ele>439</ele>
        <time>2021-12-21T09:37:36.000Z</time>
      </trkpt>
      <trkpt lat="44.02841" lon="5.97983">
        <ele>439</ele>
        <time>2021-12-21T09:37:37.000Z</time>
      </trkpt>
      <trkpt lat="44.02841" lon="5.97982">
        <ele>439</ele>
        <time>2021-12-21T09:37:38.000Z</time>
      </trkpt>
      <trkpt lat="44.02841" lon="5.97983">
        <ele>439</ele>
        <time>2021-12-21T09:37:39.000Z</time>
      </trkpt>
      <trkpt lat="44.0284" lon="5.97983">
        <ele>439</ele>
        <time>2021-12-21T09:37:40.000Z</time>
      </trkpt>
      <trkpt lat="44.02841" lon="5.97983">
        <ele>440</ele>
        <time>2021-12-21T09:37:41.000Z</time>
      </trkpt>
      <trkpt lat="44.02841" lon="5.97983">
        <ele>440</ele>
        <time>2021-12-21T09:37:42.000Z</time>
      </trkpt>
      <trkpt lat="44.02841" lon="5.97983">
        <ele>439</ele>
        <time>2021-12-21T09:37:43.000Z</time>
      </trkpt>
      <trkpt lat="44.02841" lon="5.97983">
        <ele>439</ele>
        <time>2021-12-21T09:37:44.000Z</time>
      </trkpt>
      <trkpt lat="44.0284" lon="5.97983">
        <ele>439</ele>
        <time>2021-12-21T09:37:45.000Z</time>
      </trkpt>
      <trkpt lat="44.0284" lon="5.97983">
        <ele>439</ele>
        <time>2021-12-21T09:37:46.000Z</time>
      </trkpt>
      <trkpt lat="44.0284" lon="5.97983">
        <ele>439</ele>
        <time>2021-12-21T09:37:47.000Z</time>
      </trkpt>
      <trkpt lat="44.0284" lon="5.97983">
        <ele>439</ele>
        <time>2021-12-21T09:37:48.000Z</time>
      </trkpt>
      <trkpt lat="44.0284" lon="5.97983">
        <ele>439</ele>
        <time>2021-12-21T09:37:49.000Z</time>
      </trkpt>
      <trkpt lat="44.0284" lon="5.97983">
        <ele>439</ele>
        <time>2021-12-21T09:37:50.000Z</time>
      </trkpt>
      <trkpt lat="44.0284" lon="5.97983">
        <ele>439</ele>
        <time>2021-12-21T09:37:51.000Z</time>
      </trkpt>
      <trkpt lat="44.0284" lon="5.97983">
        <ele>439</ele>
        <time>2021-12-21T09:37:52.000Z</time>
      </trkpt>
      <trkpt lat="44.0284" lon="5.97983">
        <ele>439</ele>
        <time>2021-12-21T09:37:53.000Z</time>
      </trkpt>
      <trkpt lat="44.0284" lon="5.97983">
        <ele>439</ele>
        <time>2021-12-21T09:37:54.000Z</time>
      </trkpt>
      <trkpt lat="44.0284" lon="5.97983">
        <ele>439</ele>
        <time>2021-12-21T09:37:55.000Z</time>
      </trkpt>
      <trkpt lat="44.0284" lon="5.97983">
        <ele>439</ele>
        <time>2021-12-21T09:37:56.000Z</time>
      </trkpt>
      <trkpt lat="44.0284" lon="5.97983">
        <ele>439</ele>
        <time>2021-12-21T09:37:57.000Z</time>
      </trkpt>
      <trkpt lat="44.0284" lon="5.97983">
        <ele>439</ele>
        <time>2021-12-21T09:37:58.000Z</time>
      </trkpt>
      <trkpt lat="44.0284" lon="5.97983">
        <ele>439</ele>
        <time>2021-12-21T09:37:59.000Z</time>
      </trkpt>
      <trkpt lat="44.0284" lon="5.97983">
        <ele>439</ele>
        <time>2021-12-21T09:38:00.000Z</time>
      </trkpt>
      <trkpt lat="44.0284" lon="5.97983">
        <ele>439</ele>
        <time>2021-12-21T09:38:01.000Z</time>
      </trkpt>
      <trkpt lat="44.0284" lon="5.97983">
        <ele>439</ele>
        <time>2021-12-21T09:38:02.000Z</time>
      </trkpt>
      <trkpt lat="44.0284" lon="5.97983">
        <ele>439</ele>
        <time>2021-12-21T09:38:03.000Z</time>
      </trkpt>
      <trkpt lat="44.0284" lon="5.97983">
        <ele>439</ele>
        <time>2021-12-21T09:38:04.000Z</time>
      </trkpt>
      <trkpt lat="44.0284" lon="5.97983">
        <ele>439</ele>
        <time>2021-12-21T09:38:05.000Z</time>
      </trkpt>
      <trkpt lat="44.0284" lon="5.97983">
        <ele>439</ele>
        <time>2021-12-21T09:38:06.000Z</time>
      </trkpt>
      <trkpt lat="44.0284" lon="5.97983">
        <ele>439</ele>
        <time>2021-12-21T09:38:07.000Z</time>
      </trkpt>
      <trkpt lat="44.0284" lon="5.97983">
        <ele>439</ele>
        <time>2021-12-21T09:38:08.000Z</time>
      </trkpt>
      <trkpt lat="44.0284" lon="5.97983">
        <ele>439</ele>
        <time>2021-12-21T09:38:09.000Z</time>
      </trkpt>
      <trkpt lat="44.0284" lon="5.97983">
        <ele>438</ele>
        <time>2021-12-21T09:38:10.000Z</time>
      </trkpt>
      <trkpt lat="44.0284" lon="5.97983">
        <ele>438</ele>
        <time>2021-12-21T09:38:11.000Z</time>
      </trkpt>
      <trkpt lat="44.0284" lon="5.97983">
        <ele>438</ele>
        <time>2021-12-21T09:38:12.000Z</time>
      </trkpt>
      <trkpt lat="44.0284" lon="5.97983">
        <ele>438</ele>
        <time>2021-12-21T09:38:13.000Z</time>
      </trkpt>
      <trkpt lat="44.0284" lon="5.97983">
        <ele>438</ele>
        <time>2021-12-21T09:38:14.000Z</time>
      </trkpt>
      <trkpt lat="44.0284" lon="5.97983">
        <ele>438</ele>
        <time>2021-12-21T09:38:15.000Z</time>
      </trkpt>
      <trkpt lat="44.0284" lon="5.97983">
        <ele>438</ele>
        <time>2021-12-21T09:38:16.000Z</time>
      </trkpt>
      <trkpt lat="44.0284" lon="5.97983">
        <ele>438</ele>
        <time>2021-12-21T09:38:17.000Z</time>
      </trkpt>
      <trkpt lat="44.0284" lon="5.97983">
        <ele>438</ele>
        <time>2021-12-21T09:38:18.000Z</time>
      </trkpt>
      <trkpt lat="44.0284" lon="5.97983">
        <ele>438</ele>
        <time>2021-12-21T09:38:19.000Z</time>
      </trkpt>
      <trkpt lat="44.0284" lon="5.97983">
        <ele>438</ele>
        <time>2021-12-21T09:38:20.000Z</time>
      </trkpt>
      <trkpt lat="44.0284" lon="5.97983">
        <ele>438</ele>
        <time>2021-12-21T09:38:21.000Z</time>
      </trkpt>
      <trkpt lat="44.0284" lon="5.97983">
        <ele>438</ele>
        <time>2021-12-21T09:38:22.000Z</time>
      </trkpt>
      <trkpt lat="44.0284" lon="5.97983">
        <ele>438</ele>
        <time>2021-12-21T09:38:23.000Z</time>
      </trkpt>
      <trkpt lat="44.0284" lon="5.97983">
        <ele>438</ele>
        <time>2021-12-21T09:38:24.000Z</time>
      </trkpt>
      <trkpt lat="44.0284" lon="5.97983">
        <ele>438</ele>
        <time>2021-12-21T09:38:25.000Z</time>
      </trkpt>
      <trkpt lat="44.0284" lon="5.97983">
        <ele>438</ele>
        <time>2021-12-21T09:38:26.000Z</time>
      </trkpt>
      <trkpt lat="44.0284" lon="5.97983">
        <ele>438</ele>
        <time>2021-12-21T09:38:27.000Z</time>
      </trkpt>
      <trkpt lat="44.0284" lon="5.97982">
        <ele>438</ele>
        <time>2021-12-21T09:38:28.000Z</time>
      </trkpt>
      <trkpt lat="44.0284" lon="5.97983">
        <ele>438</ele>
        <time>2021-12-21T09:38:29.000Z</time>
      </trkpt>
      <trkpt lat="44.0284" lon="5.97983">
        <ele>438</ele>
        <time>2021-12-21T09:38:30.000Z</time>
      </trkpt>
      <trkpt lat="44.0284" lon="5.97983">
        <ele>438</ele>
        <time>2021-12-21T09:38:31.000Z</time>
      </trkpt>
      <trkpt lat="44.0284" lon="5.97983">
        <ele>438</ele>
        <time>2021-12-21T09:38:32.000Z</time>
      </trkpt>
      <trkpt lat="44.0284" lon="5.97983">
        <ele>438</ele>
        <time>2021-12-21T09:38:33.000Z</time>
      </trkpt>
      <trkpt lat="44.0284" lon="5.97983">
        <ele>438</ele>
        <time>2021-12-21T09:38:34.000Z</time>
      </trkpt>
      <trkpt lat="44.0284" lon="5.97983">
        <ele>438</ele>
        <time>2021-12-21T09:38:35.000Z</time>
      </trkpt>
      <trkpt lat="44.0284" lon="5.97983">
        <ele>438</ele>
        <time>2021-12-21T09:38:36.000Z</time>
      </trkpt>
      <trkpt lat="44.0284" lon="5.97983">
        <ele>438</ele>
        <time>2021-12-21T09:38:37.000Z</time>
      </trkpt>
      <trkpt lat="44.0284" lon="5.97983">
        <ele>438</ele>
        <time>2021-12-21T09:38:38.000Z</time>
      </trkpt>
      <trkpt lat="44.0284" lon="5.97983">
        <ele>438</ele>
        <time>2021-12-21T09:38:39.000Z</time>
      </trkpt>
      <trkpt lat="44.0284" lon="5.97983">
        <ele>438</ele>
        <time>2021-12-21T09:38:40.000Z</time>
      </trkpt>
      <trkpt lat="44.0284" lon="5.97983">
        <ele>438</ele>
        <time>2021-12-21T09:38:41.000Z</time>
      </trkpt>
      <trkpt lat="44.0284" lon="5.97983">
        <ele>438</ele>
        <time>2021-12-21T09:38:42.000Z</time>
      </trkpt>
      <trkpt lat="44.0284" lon="5.97983">
        <ele>438</ele>
        <time>2021-12-21T09:38:43.000Z</time>
      </trkpt>
      <trkpt lat="44.0284" lon="5.97983">
        <ele>438</ele>
        <time>2021-12-21T09:38:44.000Z</time>
      </trkpt>
      <trkpt lat="44.0284" lon="5.97983">
        <ele>438</ele>
        <time>2021-12-21T09:38:45.000Z</time>
      </trkpt>
      <trkpt lat="44.0284" lon="5.97983">
        <ele>438</ele>
        <time>2021-12-21T09:38:46.000Z</time>
      </trkpt>
      <trkpt lat="44.0284" lon="5.97983">
        <ele>438</ele>
        <time>2021-12-21T09:38:47.000Z</time>
      </trkpt>
      <trkpt lat="44.0284" lon="5.97983">
        <ele>438</ele>
        <time>2021-12-21T09:38:48.000Z</time>
      </trkpt>
      <trkpt lat="44.0284" lon="5.97983">
        <ele>438</ele>
        <time>2021-12-21T09:38:49.000Z</time>
      </trkpt>
      <trkpt lat="44.0284" lon="5.97983">
        <ele>438</ele>
        <time>2021-12-21T09:38:50.000Z</time>
      </trkpt>
      <trkpt lat="44.0284" lon="5.97983">
        <ele>438</ele>
        <time>2021-12-21T09:38:51.000Z</time>
      </trkpt>
      <trkpt lat="44.0284" lon="5.97983">
        <ele>438</ele>
        <time>2021-12-21T09:38:52.000Z</time>
      </trkpt>
      <trkpt lat="44.0284" lon="5.97983">
        <ele>438</ele>
        <time>2021-12-21T09:38:53.000Z</time>
      </trkpt>
      <trkpt lat="44.0284" lon="5.97983">
        <ele>438</ele>
        <time>2021-12-21T09:38:54.000Z</time>
      </trkpt>
      <trkpt lat="44.0284" lon="5.97983">
        <ele>438</ele>
        <time>2021-12-21T09:38:55.000Z</time>
      </trkpt>
      <trkpt lat="44.0284" lon="5.97983">
        <ele>438</ele>
        <time>2021-12-21T09:38:56.000Z</time>
      </trkpt>
      <trkpt lat="44.0284" lon="5.97983">
        <ele>438</ele>
        <time>2021-12-21T09:38:57.000Z</time>
      </trkpt>
      <trkpt lat="44.02841" lon="5.97983">
        <ele>438</ele>
        <time>2021-12-21T09:38:58.000Z</time>
      </trkpt>
      <trkpt lat="44.02841" lon="5.97983">
        <ele>438</ele>
        <time>2021-12-21T09:38:59.000Z</time>
      </trkpt>
      <trkpt lat="44.02841" lon="5.97983">
        <ele>439</ele>
        <time>2021-12-21T09:39:00.000Z</time>
      </trkpt>
      <trkpt lat="44.02841" lon="5.97983">
        <ele>439</ele>
        <time>2021-12-21T09:39:01.000Z</time>
      </trkpt>
      <trkpt lat="44.02841" lon="5.97984">
        <ele>439</ele>
        <time>2021-12-21T09:39:02.000Z</time>
      </trkpt>
      <trkpt lat="44.02841" lon="5.97984">
        <ele>439</ele>
        <time>2021-12-21T09:39:03.000Z</time>
      </trkpt>
      <trkpt lat="44.02841" lon="5.97984">
        <ele>439</ele>
        <time>2021-12-21T09:39:04.000Z</time>
      </trkpt>
      <trkpt lat="44.02841" lon="5.97984">
        <ele>439</ele>
        <time>2021-12-21T09:39:05.000Z</time>
      </trkpt>
      <trkpt lat="44.02841" lon="5.97984">
        <ele>439</ele>
        <time>2021-12-21T09:39:06.000Z</time>
      </trkpt>
      <trkpt lat="44.02841" lon="5.97983">
        <ele>439</ele>
        <time>2021-12-21T09:39:07.000Z</time>
      </trkpt>
      <trkpt lat="44.02841" lon="5.97984">
        <ele>439</ele>
        <time>2021-12-21T09:39:08.000Z</time>
      </trkpt>
      <trkpt lat="44.02841" lon="5.97984">
        <ele>439</ele>
        <time>2021-12-21T09:39:09.000Z</time>
      </trkpt>
      <trkpt lat="44.02841" lon="5.97984">
        <ele>439</ele>
        <time>2021-12-21T09:39:10.000Z</time>
      </trkpt>
      <trkpt lat="44.02842" lon="5.97986">
        <ele>439</ele>
        <time>2021-12-21T09:39:11.000Z</time>
      </trkpt>
      <trkpt lat="44.02842" lon="5.97987">
        <ele>439</ele>
        <time>2021-12-21T09:39:12.000Z</time>
      </trkpt>
      <trkpt lat="44.02843" lon="5.97988">
        <ele>439</ele>
        <time>2021-12-21T09:39:13.000Z</time>
      </trkpt>
      <trkpt lat="44.02843" lon="5.9799">
        <ele>439</ele>
        <time>2021-12-21T09:39:14.000Z</time>
      </trkpt>
      <trkpt lat="44.02844" lon="5.97992">
        <ele>439</ele>
        <time>2021-12-21T09:39:15.000Z</time>
      </trkpt>
      <trkpt lat="44.02844" lon="5.97993">
        <ele>439</ele>
        <time>2021-12-21T09:39:16.000Z</time>
      </trkpt>
      <trkpt lat="44.02843" lon="5.97993">
        <ele>440</ele>
        <time>2021-12-21T09:39:17.000Z</time>
      </trkpt>
      <trkpt lat="44.02843" lon="5.97993">
        <ele>440</ele>
        <time>2021-12-21T09:39:18.000Z</time>
      </trkpt>
      <trkpt lat="44.02843" lon="5.97993">
        <ele>440</ele>
        <time>2021-12-21T09:39:19.000Z</time>
      </trkpt>
      <trkpt lat="44.02843" lon="5.97993">
        <ele>440</ele>
        <time>2021-12-21T09:39:20.000Z</time>
      </trkpt>
      <trkpt lat="44.02843" lon="5.97993">
        <ele>439</ele>
        <time>2021-12-21T09:39:21.000Z</time>
      </trkpt>
      <trkpt lat="44.02843" lon="5.97993">
        <ele>439</ele>
        <time>2021-12-21T09:39:22.000Z</time>
      </trkpt>
      <trkpt lat="44.02843" lon="5.97993">
        <ele>439</ele>
        <time>2021-12-21T09:39:23.000Z</time>
      </trkpt>
      <trkpt lat="44.02843" lon="5.97993">
        <ele>439</ele>
        <time>2021-12-21T09:39:24.000Z</time>
      </trkpt>
      <trkpt lat="44.02843" lon="5.97993">
        <ele>439</ele>
        <time>2021-12-21T09:39:25.000Z</time>
      </trkpt>
      <trkpt lat="44.02843" lon="5.97993">
        <ele>439</ele>
        <time>2021-12-21T09:39:26.000Z</time>
      </trkpt>
      <trkpt lat="44.02843" lon="5.97993">
        <ele>439</ele>
        <time>2021-12-21T09:39:27.000Z</time>
      </trkpt>
      <trkpt lat="44.02843" lon="5.97993">
        <ele>439</ele>
        <time>2021-12-21T09:39:28.000Z</time>
      </trkpt>
      <trkpt lat="44.02843" lon="5.97993">
        <ele>439</ele>
        <time>2021-12-21T09:39:29.000Z</time>
      </trkpt>
      <trkpt lat="44.02843" lon="5.97993">
        <ele>439</ele>
        <time>2021-12-21T09:39:30.000Z</time>
      </trkpt>
      <trkpt lat="44.02843" lon="5.97993">
        <ele>439</ele>
        <time>2021-12-21T09:39:31.000Z</time>
      </trkpt>
      <trkpt lat="44.02843" lon="5.97993">
        <ele>439</ele>
        <time>2021-12-21T09:39:32.000Z</time>
      </trkpt>
      <trkpt lat="44.02843" lon="5.97993">
        <ele>439</ele>
        <time>2021-12-21T09:39:33.000Z</time>
      </trkpt>
      <trkpt lat="44.02843" lon="5.97993">
        <ele>439</ele>
        <time>2021-12-21T09:39:34.000Z</time>
      </trkpt>
      <trkpt lat="44.02843" lon="5.97993">
        <ele>439</ele>
        <time>2021-12-21T09:39:35.000Z</time>
      </trkpt>
      <trkpt lat="44.02843" lon="5.97993">
        <ele>439</ele>
        <time>2021-12-21T09:39:36.000Z</time>
      </trkpt>
      <trkpt lat="44.02843" lon="5.97993">
        <ele>439</ele>
        <time>2021-12-21T09:39:37.000Z</time>
      </trkpt>
      <trkpt lat="44.02843" lon="5.97993">
        <ele>439</ele>
        <time>2021-12-21T09:39:38.000Z</time>
      </trkpt>
      <trkpt lat="44.02843" lon="5.97993">
        <ele>439</ele>
        <time>2021-12-21T09:39:39.000Z</time>
      </trkpt>
      <trkpt lat="44.02843" lon="5.97993">
        <ele>439</ele>
        <time>2021-12-21T09:39:40.000Z</time>
      </trkpt>
      <trkpt lat="44.02843" lon="5.97993">
        <ele>439</ele>
        <time>2021-12-21T09:39:41.000Z</time>
      </trkpt>
      <trkpt lat="44.02843" lon="5.97993">
        <ele>439</ele>
        <time>2021-12-21T09:39:42.000Z</time>
      </trkpt>
      <trkpt lat="44.02843" lon="5.97993">
        <ele>439</ele>
        <time>2021-12-21T09:39:43.000Z</time>
      </trkpt>
      <trkpt lat="44.02843" lon="5.97994">
        <ele>439</ele>
        <time>2021-12-21T09:39:44.000Z</time>
      </trkpt>
      <trkpt lat="44.02843" lon="5.97994">
        <ele>439</ele>
        <time>2021-12-21T09:39:45.000Z</time>
      </trkpt>
      <trkpt lat="44.02843" lon="5.97995">
        <ele>439</ele>
        <time>2021-12-21T09:39:46.000Z</time>
      </trkpt>
      <trkpt lat="44.02844" lon="5.97997">
        <ele>439</ele>
        <time>2021-12-21T09:39:47.000Z</time>
      </trkpt>
      <trkpt lat="44.02843" lon="5.97998">
        <ele>439</ele>
        <time>2021-12-21T09:39:48.000Z</time>
      </trkpt>
      <trkpt lat="44.02843" lon="5.98">
        <ele>439</ele>
        <time>2021-12-21T09:39:49.000Z</time>
      </trkpt>
      <trkpt lat="44.02843" lon="5.98002">
        <ele>439</ele>
        <time>2021-12-21T09:39:50.000Z</time>
      </trkpt>
      <trkpt lat="44.02843" lon="5.98004">
        <ele>439</ele>
        <time>2021-12-21T09:39:51.000Z</time>
      </trkpt>
      <trkpt lat="44.02843" lon="5.98005">
        <ele>439</ele>
        <time>2021-12-21T09:39:52.000Z</time>
      </trkpt>
      <trkpt lat="44.02843" lon="5.98007">
        <ele>439</ele>
        <time>2021-12-21T09:39:53.000Z</time>
      </trkpt>
      <trkpt lat="44.02843" lon="5.98009">
        <ele>439</ele>
        <time>2021-12-21T09:39:54.000Z</time>
      </trkpt>
      <trkpt lat="44.02843" lon="5.98011">
        <ele>439</ele>
        <time>2021-12-21T09:39:55.000Z</time>
      </trkpt>
      <trkpt lat="44.02842" lon="5.98013">
        <ele>439</ele>
        <time>2021-12-21T09:39:56.000Z</time>
      </trkpt>
      <trkpt lat="44.02842" lon="5.98014">
        <ele>439</ele>
        <time>2021-12-21T09:39:57.000Z</time>
      </trkpt>
      <trkpt lat="44.02843" lon="5.98016">
        <ele>440</ele>
        <time>2021-12-21T09:39:58.000Z</time>
      </trkpt>
      <trkpt lat="44.02843" lon="5.98018">
        <ele>440</ele>
        <time>2021-12-21T09:39:59.000Z</time>
      </trkpt>
      <trkpt lat="44.02843" lon="5.9802">
        <ele>440</ele>
        <time>2021-12-21T09:40:00.000Z</time>
      </trkpt>
      <trkpt lat="44.02843" lon="5.98021">
        <ele>440</ele>
        <time>2021-12-21T09:40:01.000Z</time>
      </trkpt>
      <trkpt lat="44.02843" lon="5.98023">
        <ele>440</ele>
        <time>2021-12-21T09:40:02.000Z</time>
      </trkpt>
      <trkpt lat="44.02843" lon="5.98025">
        <ele>440</ele>
        <time>2021-12-21T09:40:03.000Z</time>
      </trkpt>
      <trkpt lat="44.02843" lon="5.98027">
        <ele>440</ele>
        <time>2021-12-21T09:40:04.000Z</time>
      </trkpt>
      <trkpt lat="44.02843" lon="5.98028">
        <ele>440</ele>
        <time>2021-12-21T09:40:05.000Z</time>
      </trkpt>
      <trkpt lat="44.02842" lon="5.98031">
        <ele>440</ele>
        <time>2021-12-21T09:40:06.000Z</time>
      </trkpt>
      <trkpt lat="44.02842" lon="5.98032">
        <ele>440</ele>
        <time>2021-12-21T09:40:07.000Z</time>
      </trkpt>
      <trkpt lat="44.02842" lon="5.98034">
        <ele>440</ele>
        <time>2021-12-21T09:40:08.000Z</time>
      </trkpt>
      <trkpt lat="44.02842" lon="5.98036">
        <ele>440</ele>
        <time>2021-12-21T09:40:09.000Z</time>
      </trkpt>
      <trkpt lat="44.02842" lon="5.98038">
        <ele>440</ele>
        <time>2021-12-21T09:40:10.000Z</time>
      </trkpt>
      <trkpt lat="44.02841" lon="5.9804">
        <ele>441</ele>
        <time>2021-12-21T09:40:11.000Z</time>
      </trkpt>
      <trkpt lat="44.02841" lon="5.98041">
        <ele>441</ele>
        <time>2021-12-21T09:40:12.000Z</time>
      </trkpt>
      <trkpt lat="44.0284" lon="5.98043">
        <ele>441</ele>
        <time>2021-12-21T09:40:13.000Z</time>
      </trkpt>
      <trkpt lat="44.0284" lon="5.98044">
        <ele>441</ele>
        <time>2021-12-21T09:40:14.000Z</time>
      </trkpt>
      <trkpt lat="44.0284" lon="5.98046">
        <ele>442</ele>
        <time>2021-12-21T09:40:15.000Z</time>
      </trkpt>
      <trkpt lat="44.0284" lon="5.98048">
        <ele>442</ele>
        <time>2021-12-21T09:40:16.000Z</time>
      </trkpt>
      <trkpt lat="44.02839" lon="5.9805">
        <ele>442</ele>
        <time>2021-12-21T09:40:17.000Z</time>
      </trkpt>
      <trkpt lat="44.02839" lon="5.98051">
        <ele>443</ele>
        <time>2021-12-21T09:40:18.000Z</time>
      </trkpt>
      <trkpt lat="44.02839" lon="5.98053">
        <ele>443</ele>
        <time>2021-12-21T09:40:19.000Z</time>
      </trkpt>
      <trkpt lat="44.02839" lon="5.98055">
        <ele>443</ele>
        <time>2021-12-21T09:40:20.000Z</time>
      </trkpt>
      <trkpt lat="44.02838" lon="5.98056">
        <ele>443</ele>
        <time>2021-12-21T09:40:21.000Z</time>
      </trkpt>
      <trkpt lat="44.02838" lon="5.98058">
        <ele>444</ele>
        <time>2021-12-21T09:40:22.000Z</time>
      </trkpt>
      <trkpt lat="44.02838" lon="5.9806">
        <ele>444</ele>
        <time>2021-12-21T09:40:23.000Z</time>
      </trkpt>
      <trkpt lat="44.02838" lon="5.98061">
        <ele>444</ele>
        <time>2021-12-21T09:40:24.000Z</time>
      </trkpt>
      <trkpt lat="44.02838" lon="5.98063">
        <ele>444</ele>
        <time>2021-12-21T09:40:25.000Z</time>
      </trkpt>
      <trkpt lat="44.02837" lon="5.98065">
        <ele>444</ele>
        <time>2021-12-21T09:40:26.000Z</time>
      </trkpt>
      <trkpt lat="44.02837" lon="5.98067">
        <ele>445</ele>
        <time>2021-12-21T09:40:27.000Z</time>
      </trkpt>
      <trkpt lat="44.02837" lon="5.98068">
        <ele>445</ele>
        <time>2021-12-21T09:40:28.000Z</time>
      </trkpt>
      <trkpt lat="44.02836" lon="5.98069">
        <ele>445</ele>
        <time>2021-12-21T09:40:29.000Z</time>
      </trkpt>
      <trkpt lat="44.02836" lon="5.98071">
        <ele>445</ele>
        <time>2021-12-21T09:40:30.000Z</time>
      </trkpt>
      <trkpt lat="44.02836" lon="5.98073">
        <ele>445</ele>
        <time>2021-12-21T09:40:31.000Z</time>
      </trkpt>
      <trkpt lat="44.02835" lon="5.98074">
        <ele>445</ele>
        <time>2021-12-21T09:40:32.000Z</time>
      </trkpt>
      <trkpt lat="44.02835" lon="5.98076">
        <ele>445</ele>
        <time>2021-12-21T09:40:33.000Z</time>
      </trkpt>
      <trkpt lat="44.02835" lon="5.98077">
        <ele>445</ele>
        <time>2021-12-21T09:40:34.000Z</time>
      </trkpt>
      <trkpt lat="44.02835" lon="5.98079">
        <ele>446</ele>
        <time>2021-12-21T09:40:35.000Z</time>
      </trkpt>
      <trkpt lat="44.02835" lon="5.9808">
        <ele>446</ele>
        <time>2021-12-21T09:40:36.000Z</time>
      </trkpt>
      <trkpt lat="44.02835" lon="5.98082">
        <ele>446</ele>
        <time>2021-12-21T09:40:37.000Z</time>
      </trkpt>
      <trkpt lat="44.02835" lon="5.98084">
        <ele>446</ele>
        <time>2021-12-21T09:40:38.000Z</time>
      </trkpt>
      <trkpt lat="44.02835" lon="5.98086">
        <ele>446</ele>
        <time>2021-12-21T09:40:39.000Z</time>
      </trkpt>
      <trkpt lat="44.02835" lon="5.98087">
        <ele>446</ele>
        <time>2021-12-21T09:40:40.000Z</time>
      </trkpt>
      <trkpt lat="44.02835" lon="5.98089">
        <ele>446</ele>
        <time>2021-12-21T09:40:41.000Z</time>
      </trkpt>
      <trkpt lat="44.02835" lon="5.98091">
        <ele>446</ele>
        <time>2021-12-21T09:40:42.000Z</time>
      </trkpt>
      <trkpt lat="44.02835" lon="5.98092">
        <ele>446</ele>
        <time>2021-12-21T09:40:43.000Z</time>
      </trkpt>
      <trkpt lat="44.02835" lon="5.98094">
        <ele>446</ele>
        <time>2021-12-21T09:40:44.000Z</time>
      </trkpt>
      <trkpt lat="44.02835" lon="5.98096">
        <ele>446</ele>
        <time>2021-12-21T09:40:45.000Z</time>
      </trkpt>
      <trkpt lat="44.02835" lon="5.98098">
        <ele>446</ele>
        <time>2021-12-21T09:40:46.000Z</time>
      </trkpt>
      <trkpt lat="44.02835" lon="5.98099">
        <ele>446</ele>
        <time>2021-12-21T09:40:47.000Z</time>
      </trkpt>
      <trkpt lat="44.02835" lon="5.98101">
        <ele>446</ele>
        <time>2021-12-21T09:40:48.000Z</time>
      </trkpt>
      <trkpt lat="44.02835" lon="5.98103">
        <ele>446</ele>
        <time>2021-12-21T09:40:49.000Z</time>
      </trkpt>
      <trkpt lat="44.02835" lon="5.98104">
        <ele>446</ele>
        <time>2021-12-21T09:40:50.000Z</time>
      </trkpt>
      <trkpt lat="44.02835" lon="5.98106">
        <ele>446</ele>
        <time>2021-12-21T09:40:51.000Z</time>
      </trkpt>
      <trkpt lat="44.02835" lon="5.98108">
        <ele>446</ele>
        <time>2021-12-21T09:40:52.000Z</time>
      </trkpt>
      <trkpt lat="44.02835" lon="5.9811">
        <ele>446</ele>
        <time>2021-12-21T09:40:53.000Z</time>
      </trkpt>
      <trkpt lat="44.02835" lon="5.98111">
        <ele>446</ele>
        <time>2021-12-21T09:40:54.000Z</time>
      </trkpt>
      <trkpt lat="44.02835" lon="5.98113">
        <ele>446</ele>
        <time>2021-12-21T09:40:55.000Z</time>
      </trkpt>
      <trkpt lat="44.02835" lon="5.98115">
        <ele>447</ele>
        <time>2021-12-21T09:40:56.000Z</time>
      </trkpt>
      <trkpt lat="44.02835" lon="5.98116">
        <ele>447</ele>
        <time>2021-12-21T09:40:57.000Z</time>
      </trkpt>
      <trkpt lat="44.02835" lon="5.98118">
        <ele>447</ele>
        <time>2021-12-21T09:40:58.000Z</time>
      </trkpt>
      <trkpt lat="44.02836" lon="5.9812">
        <ele>447</ele>
        <time>2021-12-21T09:40:59.000Z</time>
      </trkpt>
      <trkpt lat="44.02836" lon="5.98122">
        <ele>447</ele>
        <time>2021-12-21T09:41:00.000Z</time>
      </trkpt>
      <trkpt lat="44.02836" lon="5.98123">
        <ele>447</ele>
        <time>2021-12-21T09:41:01.000Z</time>
      </trkpt>
      <trkpt lat="44.02836" lon="5.98125">
        <ele>447</ele>
        <time>2021-12-21T09:41:02.000Z</time>
      </trkpt>
      <trkpt lat="44.02836" lon="5.98127">
        <ele>447</ele>
        <time>2021-12-21T09:41:03.000Z</time>
      </trkpt>
      <trkpt lat="44.02836" lon="5.98128">
        <ele>447</ele>
        <time>2021-12-21T09:41:04.000Z</time>
      </trkpt>
      <trkpt lat="44.02836" lon="5.9813">
        <ele>448</ele>
        <time>2021-12-21T09:41:05.000Z</time>
      </trkpt>
      <trkpt lat="44.02836" lon="5.98132">
        <ele>448</ele>
        <time>2021-12-21T09:41:06.000Z</time>
      </trkpt>
      <trkpt lat="44.02836" lon="5.98133">
        <ele>448</ele>
        <time>2021-12-21T09:41:07.000Z</time>
      </trkpt>
      <trkpt lat="44.02837" lon="5.98135">
        <ele>448</ele>
        <time>2021-12-21T09:41:08.000Z</time>
      </trkpt>
      <trkpt lat="44.02837" lon="5.98136">
        <ele>448</ele>
        <time>2021-12-21T09:41:09.000Z</time>
      </trkpt>
      <trkpt lat="44.02837" lon="5.98138">
        <ele>448</ele>
        <time>2021-12-21T09:41:10.000Z</time>
      </trkpt>
      <trkpt lat="44.02837" lon="5.9814">
        <ele>448</ele>
        <time>2021-12-21T09:41:11.000Z</time>
      </trkpt>
      <trkpt lat="44.02837" lon="5.98141">
        <ele>448</ele>
        <time>2021-12-21T09:41:12.000Z</time>
      </trkpt>
      <trkpt lat="44.02837" lon="5.98143">
        <ele>449</ele>
        <time>2021-12-21T09:41:13.000Z</time>
      </trkpt>
      <trkpt lat="44.02837" lon="5.98144">
        <ele>449</ele>
        <time>2021-12-21T09:41:14.000Z</time>
      </trkpt>
      <trkpt lat="44.02838" lon="5.98146">
        <ele>449</ele>
        <time>2021-12-21T09:41:15.000Z</time>
      </trkpt>
      <trkpt lat="44.02838" lon="5.98147">
        <ele>449</ele>
        <time>2021-12-21T09:41:16.000Z</time>
      </trkpt>
      <trkpt lat="44.02838" lon="5.98149">
        <ele>449</ele>
        <time>2021-12-21T09:41:17.000Z</time>
      </trkpt>
      <trkpt lat="44.02838" lon="5.9815">
        <ele>449</ele>
        <time>2021-12-21T09:41:18.000Z</time>
      </trkpt>
      <trkpt lat="44.02838" lon="5.98152">
        <ele>449</ele>
        <time>2021-12-21T09:41:19.000Z</time>
      </trkpt>
      <trkpt lat="44.02838" lon="5.98153">
        <ele>449</ele>
        <time>2021-12-21T09:41:20.000Z</time>
      </trkpt>
      <trkpt lat="44.02838" lon="5.98155">
        <ele>450</ele>
        <time>2021-12-21T09:41:21.000Z</time>
      </trkpt>
      <trkpt lat="44.02838" lon="5.98156">
        <ele>450</ele>
        <time>2021-12-21T09:41:22.000Z</time>
      </trkpt>
      <trkpt lat="44.02838" lon="5.98157">
        <ele>450</ele>
        <time>2021-12-21T09:41:23.000Z</time>
      </trkpt>
      <trkpt lat="44.02839" lon="5.98158">
        <ele>450</ele>
        <time>2021-12-21T09:41:24.000Z</time>
      </trkpt>
      <trkpt lat="44.02839" lon="5.9816">
        <ele>450</ele>
        <time>2021-12-21T09:41:25.000Z</time>
      </trkpt>
      <trkpt lat="44.02839" lon="5.98162">
        <ele>450</ele>
        <time>2021-12-21T09:41:26.000Z</time>
      </trkpt>
      <trkpt lat="44.02839" lon="5.98162">
        <ele>450</ele>
        <time>2021-12-21T09:41:27.000Z</time>
      </trkpt>
      <trkpt lat="44.02839" lon="5.98162">
        <ele>450</ele>
        <time>2021-12-21T09:41:28.000Z</time>
      </trkpt>
      <trkpt lat="44.02839" lon="5.98162">
        <ele>450</ele>
        <time>2021-12-21T09:41:29.000Z</time>
      </trkpt>
      <trkpt lat="44.0284" lon="5.98162">
        <ele>451</ele>
        <time>2021-12-21T09:41:30.000Z</time>
      </trkpt>
      <trkpt lat="44.0284" lon="5.98162">
        <ele>451</ele>
        <time>2021-12-21T09:41:31.000Z</time>
      </trkpt>
      <trkpt lat="44.0284" lon="5.98162">
        <ele>451</ele>
        <time>2021-12-21T09:41:32.000Z</time>
      </trkpt>
      <trkpt lat="44.0284" lon="5.98162">
        <ele>451</ele>
        <time>2021-12-21T09:41:33.000Z</time>
      </trkpt>
      <trkpt lat="44.0284" lon="5.98162">
        <ele>451</ele>
        <time>2021-12-21T09:41:34.000Z</time>
      </trkpt>
      <trkpt lat="44.0284" lon="5.98162">
        <ele>451</ele>
        <time>2021-12-21T09:41:35.000Z</time>
      </trkpt>
      <trkpt lat="44.0284" lon="5.98162">
        <ele>451</ele>
        <time>2021-12-21T09:41:36.000Z</time>
      </trkpt>
      <trkpt lat="44.0284" lon="5.98162">
        <ele>451</ele>
        <time>2021-12-21T09:41:37.000Z</time>
      </trkpt>
      <trkpt lat="44.0284" lon="5.98161">
        <ele>451</ele>
        <time>2021-12-21T09:41:38.000Z</time>
      </trkpt>
      <trkpt lat="44.0284" lon="5.98161">
        <ele>451</ele>
        <time>2021-12-21T09:41:39.000Z</time>
      </trkpt>
      <trkpt lat="44.0284" lon="5.98161">
        <ele>451</ele>
        <time>2021-12-21T09:41:40.000Z</time>
      </trkpt>
      <trkpt lat="44.0284" lon="5.98161">
        <ele>451</ele>
        <time>2021-12-21T09:41:41.000Z</time>
      </trkpt>
      <trkpt lat="44.0284" lon="5.98161">
        <ele>451</ele>
        <time>2021-12-21T09:41:42.000Z</time>
      </trkpt>
      <trkpt lat="44.0284" lon="5.98161">
        <ele>451</ele>
        <time>2021-12-21T09:41:43.000Z</time>
      </trkpt>
      <trkpt lat="44.0284" lon="5.98161">
        <ele>451</ele>
        <time>2021-12-21T09:41:44.000Z</time>
      </trkpt>
      <trkpt lat="44.0284" lon="5.98161">
        <ele>451</ele>
        <time>2021-12-21T09:41:45.000Z</time>
      </trkpt>
      <trkpt lat="44.0284" lon="5.98161">
        <ele>451</ele>
        <time>2021-12-21T09:41:46.000Z</time>
      </trkpt>
      <trkpt lat="44.0284" lon="5.98161">
        <ele>451</ele>
        <time>2021-12-21T09:41:47.000Z</time>
      </trkpt>
      <trkpt lat="44.0284" lon="5.98161">
        <ele>451</ele>
        <time>2021-12-21T09:41:48.000Z</time>
      </trkpt>
      <trkpt lat="44.0284" lon="5.98161">
        <ele>451</ele>
        <time>2021-12-21T09:41:49.000Z</time>
      </trkpt>
      <trkpt lat="44.0284" lon="5.98161">
        <ele>451</ele>
        <time>2021-12-21T09:41:50.000Z</time>
      </trkpt>
      <trkpt lat="44.0284" lon="5.98161">
        <ele>451</ele>
        <time>2021-12-21T09:41:51.000Z</time>
      </trkpt>
      <trkpt lat="44.0284" lon="5.98161">
        <ele>451</ele>
        <time>2021-12-21T09:41:52.000Z</time>
      </trkpt>
      <trkpt lat="44.0284" lon="5.98161">
        <ele>451</ele>
        <time>2021-12-21T09:41:53.000Z</time>
      </trkpt>
      <trkpt lat="44.0284" lon="5.98161">
        <ele>451</ele>
        <time>2021-12-21T09:41:54.000Z</time>
      </trkpt>
      <trkpt lat="44.0284" lon="5.98161">
        <ele>451</ele>
        <time>2021-12-21T09:41:55.000Z</time>
      </trkpt>
      <trkpt lat="44.0284" lon="5.98161">
        <ele>451</ele>
        <time>2021-12-21T09:41:56.000Z</time>
      </trkpt>
      <trkpt lat="44.0284" lon="5.98161">
        <ele>451</ele>
        <time>2021-12-21T09:41:57.000Z</time>
      </trkpt>
      <trkpt lat="44.0284" lon="5.98161">
        <ele>451</ele>
        <time>2021-12-21T09:41:58.000Z</time>
      </trkpt>
      <trkpt lat="44.0284" lon="5.98161">
        <ele>451</ele>
        <time>2021-12-21T09:41:59.000Z</time>
      </trkpt>
      <trkpt lat="44.0284" lon="5.98161">
        <ele>451</ele>
        <time>2021-12-21T09:42:00.000Z</time>
      </trkpt>
      <trkpt lat="44.0284" lon="5.98161">
        <ele>451</ele>
        <time>2021-12-21T09:42:01.000Z</time>
      </trkpt>
      <trkpt lat="44.0284" lon="5.98161">
        <ele>451</ele>
        <time>2021-12-21T09:42:02.000Z</time>
      </trkpt>
      <trkpt lat="44.0284" lon="5.98161">
        <ele>451</ele>
        <time>2021-12-21T09:42:03.000Z</time>
      </trkpt>
      <trkpt lat="44.0284" lon="5.98161">
        <ele>451</ele>
        <time>2021-12-21T09:42:04.000Z</time>
      </trkpt>
      <trkpt lat="44.0284" lon="5.98161">
        <ele>451</ele>
        <time>2021-12-21T09:42:05.000Z</time>
      </trkpt>
      <trkpt lat="44.0284" lon="5.98161">
        <ele>451</ele>
        <time>2021-12-21T09:42:06.000Z</time>
      </trkpt>
      <trkpt lat="44.0284" lon="5.98161">
        <ele>451</ele>
        <time>2021-12-21T09:42:07.000Z</time>
      </trkpt>
      <trkpt lat="44.0284" lon="5.98161">
        <ele>451</ele>
        <time>2021-12-21T09:42:08.000Z</time>
      </trkpt>
      <trkpt lat="44.0284" lon="5.98161">
        <ele>451</ele>
        <time>2021-12-21T09:42:09.000Z</time>
      </trkpt>
      <trkpt lat="44.0284" lon="5.98161">
        <ele>451</ele>
        <time>2021-12-21T09:42:10.000Z</time>
      </trkpt>
      <trkpt lat="44.0284" lon="5.98161">
        <ele>451</ele>
        <time>2021-12-21T09:42:11.000Z</time>
      </trkpt>
      <trkpt lat="44.0284" lon="5.98161">
        <ele>451</ele>
        <time>2021-12-21T09:42:12.000Z</time>
      </trkpt>
      <trkpt lat="44.0284" lon="5.98161">
        <ele>451</ele>
        <time>2021-12-21T09:42:13.000Z</time>
      </trkpt>
      <trkpt lat="44.0284" lon="5.98161">
        <ele>451</ele>
        <time>2021-12-21T09:42:14.000Z</time>
      </trkpt>
      <trkpt lat="44.0284" lon="5.98161">
        <ele>451</ele>
        <time>2021-12-21T09:42:15.000Z</time>
      </trkpt>
      <trkpt lat="44.0284" lon="5.98161">
        <ele>451</ele>
        <time>2021-12-21T09:42:16.000Z</time>
      </trkpt>
      <trkpt lat="44.0284" lon="5.98161">
        <ele>451</ele>
        <time>2021-12-21T09:42:17.000Z</time>
      </trkpt>
      <trkpt lat="44.0284" lon="5.98161">
        <ele>451</ele>
        <time>2021-12-21T09:42:18.000Z</time>
      </trkpt>
      <trkpt lat="44.0284" lon="5.98161">
        <ele>451</ele>
        <time>2021-12-21T09:42:19.000Z</time>
      </trkpt>
      <trkpt lat="44.0284" lon="5.98161">
        <ele>451</ele>
        <time>2021-12-21T09:42:20.000Z</time>
      </trkpt>
      <trkpt lat="44.0284" lon="5.98161">
        <ele>451</ele>
        <time>2021-12-21T09:42:21.000Z</time>
      </trkpt>
      <trkpt lat="44.0284" lon="5.98161">
        <ele>451</ele>
        <time>2021-12-21T09:42:22.000Z</time>
      </trkpt>
      <trkpt lat="44.0284" lon="5.98161">
        <ele>451</ele>
        <time>2021-12-21T09:42:23.000Z</time>
      </trkpt>
      <trkpt lat="44.0284" lon="5.98161">
        <ele>451</ele>
        <time>2021-12-21T09:42:24.000Z</time>
      </trkpt>
      <trkpt lat="44.0284" lon="5.98161">
        <ele>451</ele>
        <time>2021-12-21T09:42:25.000Z</time>
      </trkpt>
      <trkpt lat="44.0284" lon="5.98161">
        <ele>451</ele>
        <time>2021-12-21T09:42:26.000Z</time>
      </trkpt>
      <trkpt lat="44.0284" lon="5.98161">
        <ele>451</ele>
        <time>2021-12-21T09:42:27.000Z</time>
      </trkpt>
      <trkpt lat="44.0284" lon="5.98161">
        <ele>451</ele>
        <time>2021-12-21T09:42:28.000Z</time>
      </trkpt>
      <trkpt lat="44.0284" lon="5.98161">
        <ele>451</ele>
        <time>2021-12-21T09:42:29.000Z</time>
      </trkpt>
      <trkpt lat="44.0284" lon="5.98161">
        <ele>451</ele>
        <time>2021-12-21T09:42:30.000Z</time>
      </trkpt>
      <trkpt lat="44.0284" lon="5.98161">
        <ele>451</ele>
        <time>2021-12-21T09:42:31.000Z</time>
      </trkpt>
      <trkpt lat="44.0284" lon="5.98161">
        <ele>451</ele>
        <time>2021-12-21T09:42:32.000Z</time>
      </trkpt>
      <trkpt lat="44.0284" lon="5.98161">
        <ele>451</ele>
        <time>2021-12-21T09:42:33.000Z</time>
      </trkpt>
      <trkpt lat="44.0284" lon="5.98161">
        <ele>451</ele>
        <time>2021-12-21T09:42:34.000Z</time>
      </trkpt>
      <trkpt lat="44.0284" lon="5.98161">
        <ele>451</ele>
        <time>2021-12-21T09:42:35.000Z</time>
      </trkpt>
      <trkpt lat="44.02841" lon="5.98162">
        <ele>451</ele>
        <time>2021-12-21T09:42:36.000Z</time>
      </trkpt>
      <trkpt lat="44.02841" lon="5.98162">
        <ele>451</ele>
        <time>2021-12-21T09:42:37.000Z</time>
      </trkpt>
      <trkpt lat="44.02841" lon="5.98162">
        <ele>451</ele>
        <time>2021-12-21T09:42:38.000Z</time>
      </trkpt>
      <trkpt lat="44.02841" lon="5.98162">
        <ele>451</ele>
        <time>2021-12-21T09:42:39.000Z</time>
      </trkpt>
      <trkpt lat="44.02841" lon="5.98162">
        <ele>451</ele>
        <time>2021-12-21T09:42:40.000Z</time>
      </trkpt>
      <trkpt lat="44.02841" lon="5.98162">
        <ele>451</ele>
        <time>2021-12-21T09:42:41.000Z</time>
      </trkpt>
      <trkpt lat="44.02842" lon="5.98163">
        <ele>451</ele>
        <time>2021-12-21T09:42:42.000Z</time>
      </trkpt>
      <trkpt lat="44.02842" lon="5.98164">
        <ele>451</ele>
        <time>2021-12-21T09:42:43.000Z</time>
      </trkpt>
      <trkpt lat="44.02842" lon="5.98166">
        <ele>451</ele>
        <time>2021-12-21T09:42:44.000Z</time>
      </trkpt>
      <trkpt lat="44.02843" lon="5.98168">
        <ele>451</ele>
        <time>2021-12-21T09:42:45.000Z</time>
      </trkpt>
      <trkpt lat="44.02843" lon="5.98169">
        <ele>451</ele>
        <time>2021-12-21T09:42:46.000Z</time>
      </trkpt>
      <trkpt lat="44.02844" lon="5.98171">
        <ele>451</ele>
        <time>2021-12-21T09:42:47.000Z</time>
      </trkpt>
      <trkpt lat="44.02844" lon="5.98172">
        <ele>451</ele>
        <time>2021-12-21T09:42:48.000Z</time>
      </trkpt>
      <trkpt lat="44.02845" lon="5.98174">
        <ele>452</ele>
        <time>2021-12-21T09:42:49.000Z</time>
      </trkpt>
      <trkpt lat="44.02845" lon="5.98175">
        <ele>452</ele>
        <time>2021-12-21T09:42:50.000Z</time>
      </trkpt>
      <trkpt lat="44.02846" lon="5.98177">
        <ele>452</ele>
        <time>2021-12-21T09:42:51.000Z</time>
      </trkpt>
      <trkpt lat="44.02846" lon="5.98178">
        <ele>452</ele>
        <time>2021-12-21T09:42:52.000Z</time>
      </trkpt>
      <trkpt lat="44.02847" lon="5.98179">
        <ele>452</ele>
        <time>2021-12-21T09:42:53.000Z</time>
      </trkpt>
      <trkpt lat="44.02847" lon="5.98181">
        <ele>452</ele>
        <time>2021-12-21T09:42:54.000Z</time>
      </trkpt>
      <trkpt lat="44.02848" lon="5.98183">
        <ele>452</ele>
        <time>2021-12-21T09:42:55.000Z</time>
      </trkpt>
      <trkpt lat="44.02848" lon="5.98184">
        <ele>453</ele>
        <time>2021-12-21T09:42:56.000Z</time>
      </trkpt>
      <trkpt lat="44.02848" lon="5.98186">
        <ele>453</ele>
        <time>2021-12-21T09:42:57.000Z</time>
      </trkpt>
      <trkpt lat="44.02848" lon="5.98187">
        <ele>453</ele>
        <time>2021-12-21T09:42:58.000Z</time>
      </trkpt>
      <trkpt lat="44.02849" lon="5.98188">
        <ele>453</ele>
        <time>2021-12-21T09:42:59.000Z</time>
      </trkpt>
      <trkpt lat="44.02849" lon="5.98189">
        <ele>454</ele>
        <time>2021-12-21T09:43:00.000Z</time>
      </trkpt>
      <trkpt lat="44.0285" lon="5.98191">
        <ele>454</ele>
        <time>2021-12-21T09:43:01.000Z</time>
      </trkpt>
      <trkpt lat="44.0285" lon="5.98192">
        <ele>454</ele>
        <time>2021-12-21T09:43:02.000Z</time>
      </trkpt>
      <trkpt lat="44.0285" lon="5.98194">
        <ele>454</ele>
        <time>2021-12-21T09:43:03.000Z</time>
      </trkpt>
      <trkpt lat="44.02851" lon="5.98195">
        <ele>454</ele>
        <time>2021-12-21T09:43:04.000Z</time>
      </trkpt>
      <trkpt lat="44.02851" lon="5.98197">
        <ele>454</ele>
        <time>2021-12-21T09:43:05.000Z</time>
      </trkpt>
      <trkpt lat="44.02852" lon="5.98199">
        <ele>454</ele>
        <time>2021-12-21T09:43:06.000Z</time>
      </trkpt>
      <trkpt lat="44.02852" lon="5.982">
        <ele>454</ele>
        <time>2021-12-21T09:43:07.000Z</time>
      </trkpt>
      <trkpt lat="44.02852" lon="5.98202">
        <ele>454</ele>
        <time>2021-12-21T09:43:08.000Z</time>
      </trkpt>
      <trkpt lat="44.02852" lon="5.98204">
        <ele>454</ele>
        <time>2021-12-21T09:43:09.000Z</time>
      </trkpt>
      <trkpt lat="44.02853" lon="5.98205">
        <ele>454</ele>
        <time>2021-12-21T09:43:10.000Z</time>
      </trkpt>
      <trkpt lat="44.02853" lon="5.98207">
        <ele>454</ele>
        <time>2021-12-21T09:43:11.000Z</time>
      </trkpt>
      <trkpt lat="44.02853" lon="5.98209">
        <ele>454</ele>
        <time>2021-12-21T09:43:12.000Z</time>
      </trkpt>
      <trkpt lat="44.02854" lon="5.9821">
        <ele>454</ele>
        <time>2021-12-21T09:43:13.000Z</time>
      </trkpt>
      <trkpt lat="44.02854" lon="5.98212">
        <ele>454</ele>
        <time>2021-12-21T09:43:14.000Z</time>
      </trkpt>
      <trkpt lat="44.02854" lon="5.98214">
        <ele>454</ele>
        <time>2021-12-21T09:43:15.000Z</time>
      </trkpt>
      <trkpt lat="44.02854" lon="5.98216">
        <ele>454</ele>
        <time>2021-12-21T09:43:16.000Z</time>
      </trkpt>
      <trkpt lat="44.02855" lon="5.98217">
        <ele>454</ele>
        <time>2021-12-21T09:43:17.000Z</time>
      </trkpt>
      <trkpt lat="44.02855" lon="5.98219">
        <ele>454</ele>
        <time>2021-12-21T09:43:18.000Z</time>
      </trkpt>
      <trkpt lat="44.02855" lon="5.9822">
        <ele>454</ele>
        <time>2021-12-21T09:43:19.000Z</time>
      </trkpt>
      <trkpt lat="44.02856" lon="5.98222">
        <ele>454</ele>
        <time>2021-12-21T09:43:20.000Z</time>
      </trkpt>
      <trkpt lat="44.02856" lon="5.98224">
        <ele>455</ele>
        <time>2021-12-21T09:43:21.000Z</time>
      </trkpt>
      <trkpt lat="44.02856" lon="5.98226">
        <ele>455</ele>
        <time>2021-12-21T09:43:22.000Z</time>
      </trkpt>
      <trkpt lat="44.02856" lon="5.98227">
        <ele>455</ele>
        <time>2021-12-21T09:43:23.000Z</time>
      </trkpt>
      <trkpt lat="44.02856" lon="5.98229">
        <ele>455</ele>
        <time>2021-12-21T09:43:24.000Z</time>
      </trkpt>
      <trkpt lat="44.02857" lon="5.9823">
        <ele>455</ele>
        <time>2021-12-21T09:43:25.000Z</time>
      </trkpt>
      <trkpt lat="44.02857" lon="5.98232">
        <ele>455</ele>
        <time>2021-12-21T09:43:26.000Z</time>
      </trkpt>
      <trkpt lat="44.02857" lon="5.98234">
        <ele>455</ele>
        <time>2021-12-21T09:43:27.000Z</time>
      </trkpt>
      <trkpt lat="44.02858" lon="5.98236">
        <ele>456</ele>
        <time>2021-12-21T09:43:28.000Z</time>
      </trkpt>
      <trkpt lat="44.02858" lon="5.98237">
        <ele>456</ele>
        <time>2021-12-21T09:43:29.000Z</time>
      </trkpt>
      <trkpt lat="44.02858" lon="5.98239">
        <ele>456</ele>
        <time>2021-12-21T09:43:30.000Z</time>
      </trkpt>
      <trkpt lat="44.02858" lon="5.9824">
        <ele>456</ele>
        <time>2021-12-21T09:43:31.000Z</time>
      </trkpt>
      <trkpt lat="44.02859" lon="5.98242">
        <ele>457</ele>
        <time>2021-12-21T09:43:32.000Z</time>
      </trkpt>
      <trkpt lat="44.02859" lon="5.98243">
        <ele>457</ele>
        <time>2021-12-21T09:43:33.000Z</time>
      </trkpt>
      <trkpt lat="44.02859" lon="5.98245">
        <ele>457</ele>
        <time>2021-12-21T09:43:34.000Z</time>
      </trkpt>
      <trkpt lat="44.02859" lon="5.98246">
        <ele>457</ele>
        <time>2021-12-21T09:43:35.000Z</time>
      </trkpt>
      <trkpt lat="44.02859" lon="5.98248">
        <ele>457</ele>
        <time>2021-12-21T09:43:36.000Z</time>
      </trkpt>
      <trkpt lat="44.02859" lon="5.9825">
        <ele>458</ele>
        <time>2021-12-21T09:43:37.000Z</time>
      </trkpt>
      <trkpt lat="44.02859" lon="5.98251">
        <ele>458</ele>
        <time>2021-12-21T09:43:38.000Z</time>
      </trkpt>
      <trkpt lat="44.02859" lon="5.98252">
        <ele>458</ele>
        <time>2021-12-21T09:43:39.000Z</time>
      </trkpt>
      <trkpt lat="44.02859" lon="5.98252">
        <ele>458</ele>
        <time>2021-12-21T09:43:40.000Z</time>
      </trkpt>
      <trkpt lat="44.02859" lon="5.98252">
        <ele>458</ele>
        <time>2021-12-21T09:43:41.000Z</time>
      </trkpt>
      <trkpt lat="44.02859" lon="5.98252">
        <ele>458</ele>
        <time>2021-12-21T09:43:42.000Z</time>
      </trkpt>
      <trkpt lat="44.02859" lon="5.98254">
        <ele>459</ele>
        <time>2021-12-21T09:43:43.000Z</time>
      </trkpt>
      <trkpt lat="44.02859" lon="5.98255">
        <ele>459</ele>
        <time>2021-12-21T09:43:44.000Z</time>
      </trkpt>
      <trkpt lat="44.02859" lon="5.98257">
        <ele>459</ele>
        <time>2021-12-21T09:43:45.000Z</time>
      </trkpt>
      <trkpt lat="44.02859" lon="5.98259">
        <ele>459</ele>
        <time>2021-12-21T09:43:46.000Z</time>
      </trkpt>
      <trkpt lat="44.02859" lon="5.9826">
        <ele>459</ele>
        <time>2021-12-21T09:43:47.000Z</time>
      </trkpt>
      <trkpt lat="44.02859" lon="5.98262">
        <ele>459</ele>
        <time>2021-12-21T09:43:48.000Z</time>
      </trkpt>
      <trkpt lat="44.02859" lon="5.98264">
        <ele>459</ele>
        <time>2021-12-21T09:43:49.000Z</time>
      </trkpt>
      <trkpt lat="44.02859" lon="5.98265">
        <ele>459</ele>
        <time>2021-12-21T09:43:50.000Z</time>
      </trkpt>
      <trkpt lat="44.02859" lon="5.98267">
        <ele>459</ele>
        <time>2021-12-21T09:43:51.000Z</time>
      </trkpt>
      <trkpt lat="44.02859" lon="5.98269">
        <ele>459</ele>
        <time>2021-12-21T09:43:52.000Z</time>
      </trkpt>
      <trkpt lat="44.02859" lon="5.9827">
        <ele>459</ele>
        <time>2021-12-21T09:43:53.000Z</time>
      </trkpt>
      <trkpt lat="44.02859" lon="5.98272">
        <ele>459</ele>
        <time>2021-12-21T09:43:54.000Z</time>
      </trkpt>
      <trkpt lat="44.02859" lon="5.98273">
        <ele>460</ele>
        <time>2021-12-21T09:43:55.000Z</time>
      </trkpt>
      <trkpt lat="44.02859" lon="5.98275">
        <ele>460</ele>
        <time>2021-12-21T09:43:56.000Z</time>
      </trkpt>
      <trkpt lat="44.0286" lon="5.98277">
        <ele>460</ele>
        <time>2021-12-21T09:43:57.000Z</time>
      </trkpt>
      <trkpt lat="44.0286" lon="5.98278">
        <ele>460</ele>
        <time>2021-12-21T09:43:58.000Z</time>
      </trkpt>
      <trkpt lat="44.0286" lon="5.9828">
        <ele>460</ele>
        <time>2021-12-21T09:43:59.000Z</time>
      </trkpt>
      <trkpt lat="44.0286" lon="5.98282">
        <ele>460</ele>
        <time>2021-12-21T09:44:00.000Z</time>
      </trkpt>
      <trkpt lat="44.02861" lon="5.98283">
        <ele>461</ele>
        <time>2021-12-21T09:44:01.000Z</time>
      </trkpt>
      <trkpt lat="44.02861" lon="5.98285">
        <ele>461</ele>
        <time>2021-12-21T09:44:02.000Z</time>
      </trkpt>
      <trkpt lat="44.02861" lon="5.98287">
        <ele>461</ele>
        <time>2021-12-21T09:44:03.000Z</time>
      </trkpt>
      <trkpt lat="44.02861" lon="5.98288">
        <ele>461</ele>
        <time>2021-12-21T09:44:04.000Z</time>
      </trkpt>
      <trkpt lat="44.02862" lon="5.9829">
        <ele>461</ele>
        <time>2021-12-21T09:44:05.000Z</time>
      </trkpt>
      <trkpt lat="44.02862" lon="5.98291">
        <ele>461</ele>
        <time>2021-12-21T09:44:06.000Z</time>
      </trkpt>
      <trkpt lat="44.02862" lon="5.98293">
        <ele>461</ele>
        <time>2021-12-21T09:44:07.000Z</time>
      </trkpt>
      <trkpt lat="44.02862" lon="5.98294">
        <ele>461</ele>
        <time>2021-12-21T09:44:08.000Z</time>
      </trkpt>
      <trkpt lat="44.02863" lon="5.98295">
        <ele>461</ele>
        <time>2021-12-21T09:44:09.000Z</time>
      </trkpt>
      <trkpt lat="44.02863" lon="5.98297">
        <ele>462</ele>
        <time>2021-12-21T09:44:10.000Z</time>
      </trkpt>
      <trkpt lat="44.02863" lon="5.98299">
        <ele>462</ele>
        <time>2021-12-21T09:44:11.000Z</time>
      </trkpt>
      <trkpt lat="44.02864" lon="5.983">
        <ele>462</ele>
        <time>2021-12-21T09:44:12.000Z</time>
      </trkpt>
      <trkpt lat="44.02864" lon="5.98302">
        <ele>462</ele>
        <time>2021-12-21T09:44:13.000Z</time>
      </trkpt>
      <trkpt lat="44.02864" lon="5.98303">
        <ele>462</ele>
        <time>2021-12-21T09:44:14.000Z</time>
      </trkpt>
      <trkpt lat="44.02864" lon="5.98304">
        <ele>462</ele>
        <time>2021-12-21T09:44:15.000Z</time>
      </trkpt>
      <trkpt lat="44.02865" lon="5.98306">
        <ele>462</ele>
        <time>2021-12-21T09:44:16.000Z</time>
      </trkpt>
      <trkpt lat="44.02865" lon="5.98307">
        <ele>462</ele>
        <time>2021-12-21T09:44:17.000Z</time>
      </trkpt>
      <trkpt lat="44.02866" lon="5.98308">
        <ele>462</ele>
        <time>2021-12-21T09:44:18.000Z</time>
      </trkpt>
      <trkpt lat="44.02866" lon="5.98309">
        <ele>463</ele>
        <time>2021-12-21T09:44:19.000Z</time>
      </trkpt>
      <trkpt lat="44.02866" lon="5.98311">
        <ele>463</ele>
        <time>2021-12-21T09:44:20.000Z</time>
      </trkpt>
      <trkpt lat="44.02867" lon="5.98312">
        <ele>463</ele>
        <time>2021-12-21T09:44:21.000Z</time>
      </trkpt>
      <trkpt lat="44.02867" lon="5.98313">
        <ele>463</ele>
        <time>2021-12-21T09:44:22.000Z</time>
      </trkpt>
      <trkpt lat="44.02867" lon="5.98313">
        <ele>463</ele>
        <time>2021-12-21T09:44:23.000Z</time>
      </trkpt>
      <trkpt lat="44.02867" lon="5.98313">
        <ele>463</ele>
        <time>2021-12-21T09:44:24.000Z</time>
      </trkpt>
      <trkpt lat="44.02867" lon="5.98313">
        <ele>463</ele>
        <time>2021-12-21T09:44:25.000Z</time>
      </trkpt>
      <trkpt lat="44.02868" lon="5.98314">
        <ele>463</ele>
        <time>2021-12-21T09:44:26.000Z</time>
      </trkpt>
      <trkpt lat="44.02868" lon="5.98315">
        <ele>463</ele>
        <time>2021-12-21T09:44:27.000Z</time>
      </trkpt>
      <trkpt lat="44.02868" lon="5.98316">
        <ele>463</ele>
        <time>2021-12-21T09:44:28.000Z</time>
      </trkpt>
      <trkpt lat="44.02869" lon="5.98318">
        <ele>463</ele>
        <time>2021-12-21T09:44:29.000Z</time>
      </trkpt>
      <trkpt lat="44.02869" lon="5.98319">
        <ele>463</ele>
        <time>2021-12-21T09:44:30.000Z</time>
      </trkpt>
      <trkpt lat="44.02869" lon="5.98321">
        <ele>463</ele>
        <time>2021-12-21T09:44:31.000Z</time>
      </trkpt>
      <trkpt lat="44.02869" lon="5.98322">
        <ele>463</ele>
        <time>2021-12-21T09:44:32.000Z</time>
      </trkpt>
      <trkpt lat="44.02869" lon="5.98323">
        <ele>463</ele>
        <time>2021-12-21T09:44:33.000Z</time>
      </trkpt>
      <trkpt lat="44.02869" lon="5.98324">
        <ele>463</ele>
        <time>2021-12-21T09:44:34.000Z</time>
      </trkpt>
      <trkpt lat="44.02869" lon="5.98325">
        <ele>463</ele>
        <time>2021-12-21T09:44:35.000Z</time>
      </trkpt>
      <trkpt lat="44.02869" lon="5.98325">
        <ele>464</ele>
        <time>2021-12-21T09:44:36.000Z</time>
      </trkpt>
      <trkpt lat="44.02869" lon="5.98325">
        <ele>464</ele>
        <time>2021-12-21T09:44:37.000Z</time>
      </trkpt>
      <trkpt lat="44.02869" lon="5.98325">
        <ele>464</ele>
        <time>2021-12-21T09:44:38.000Z</time>
      </trkpt>
      <trkpt lat="44.02869" lon="5.98325">
        <ele>464</ele>
        <time>2021-12-21T09:44:39.000Z</time>
      </trkpt>
      <trkpt lat="44.02869" lon="5.98325">
        <ele>464</ele>
        <time>2021-12-21T09:44:40.000Z</time>
      </trkpt>
      <trkpt lat="44.02869" lon="5.98325">
        <ele>464</ele>
        <time>2021-12-21T09:44:41.000Z</time>
      </trkpt>
      <trkpt lat="44.02869" lon="5.98326">
        <ele>464</ele>
        <time>2021-12-21T09:44:42.000Z</time>
      </trkpt>
      <trkpt lat="44.02869" lon="5.98326">
        <ele>464</ele>
        <time>2021-12-21T09:44:43.000Z</time>
      </trkpt>
      <trkpt lat="44.0287" lon="5.98327">
        <ele>464</ele>
        <time>2021-12-21T09:44:44.000Z</time>
      </trkpt>
      <trkpt lat="44.0287" lon="5.98327">
        <ele>465</ele>
        <time>2021-12-21T09:44:45.000Z</time>
      </trkpt>
      <trkpt lat="44.0287" lon="5.98327">
        <ele>465</ele>
        <time>2021-12-21T09:44:46.000Z</time>
      </trkpt>
      <trkpt lat="44.0287" lon="5.98327">
        <ele>465</ele>
        <time>2021-12-21T09:44:47.000Z</time>
      </trkpt>
      <trkpt lat="44.0287" lon="5.98327">
        <ele>465</ele>
        <time>2021-12-21T09:44:48.000Z</time>
      </trkpt>
      <trkpt lat="44.0287" lon="5.98327">
        <ele>465</ele>
        <time>2021-12-21T09:44:49.000Z</time>
      </trkpt>
      <trkpt lat="44.02869" lon="5.98327">
        <ele>465</ele>
        <time>2021-12-21T09:44:50.000Z</time>
      </trkpt>
      <trkpt lat="44.02869" lon="5.98327">
        <ele>465</ele>
        <time>2021-12-21T09:44:51.000Z</time>
      </trkpt>
      <trkpt lat="44.02869" lon="5.98327">
        <ele>466</ele>
        <time>2021-12-21T09:44:52.000Z</time>
      </trkpt>
      <trkpt lat="44.02869" lon="5.98327">
        <ele>466</ele>
        <time>2021-12-21T09:44:53.000Z</time>
      </trkpt>
      <trkpt lat="44.02869" lon="5.98327">
        <ele>466</ele>
        <time>2021-12-21T09:44:54.000Z</time>
      </trkpt>
      <trkpt lat="44.02869" lon="5.98327">
        <ele>466</ele>
        <time>2021-12-21T09:44:55.000Z</time>
      </trkpt>
      <trkpt lat="44.02869" lon="5.98327">
        <ele>466</ele>
        <time>2021-12-21T09:44:56.000Z</time>
      </trkpt>
      <trkpt lat="44.02869" lon="5.98327">
        <ele>466</ele>
        <time>2021-12-21T09:44:57.000Z</time>
      </trkpt>
      <trkpt lat="44.02869" lon="5.98327">
        <ele>466</ele>
        <time>2021-12-21T09:44:58.000Z</time>
      </trkpt>
      <trkpt lat="44.02869" lon="5.98327">
        <ele>466</ele>
        <time>2021-12-21T09:44:59.000Z</time>
      </trkpt>
      <trkpt lat="44.02869" lon="5.98327">
        <ele>466</ele>
        <time>2021-12-21T09:45:00.000Z</time>
      </trkpt>
      <trkpt lat="44.02869" lon="5.98327">
        <ele>466</ele>
        <time>2021-12-21T09:45:01.000Z</time>
      </trkpt>
      <trkpt lat="44.0287" lon="5.98327">
        <ele>466</ele>
        <time>2021-12-21T09:45:02.000Z</time>
      </trkpt>
      <trkpt lat="44.0287" lon="5.98328">
        <ele>466</ele>
        <time>2021-12-21T09:45:03.000Z</time>
      </trkpt>
      <trkpt lat="44.02869" lon="5.98329">
        <ele>466</ele>
        <time>2021-12-21T09:45:04.000Z</time>
      </trkpt>
      <trkpt lat="44.0287" lon="5.9833">
        <ele>466</ele>
        <time>2021-12-21T09:45:05.000Z</time>
      </trkpt>
      <trkpt lat="44.0287" lon="5.98331">
        <ele>466</ele>
        <time>2021-12-21T09:45:06.000Z</time>
      </trkpt>
      <trkpt lat="44.0287" lon="5.98332">
        <ele>466</ele>
        <time>2021-12-21T09:45:07.000Z</time>
      </trkpt>
      <trkpt lat="44.0287" lon="5.98333">
        <ele>466</ele>
        <time>2021-12-21T09:45:08.000Z</time>
      </trkpt>
      <trkpt lat="44.02871" lon="5.98334">
        <ele>466</ele>
        <time>2021-12-21T09:45:09.000Z</time>
      </trkpt>
      <trkpt lat="44.02871" lon="5.98335">
        <ele>466</ele>
        <time>2021-12-21T09:45:10.000Z</time>
      </trkpt>
      <trkpt lat="44.02871" lon="5.98336">
        <ele>466</ele>
        <time>2021-12-21T09:45:11.000Z</time>
      </trkpt>
      <trkpt lat="44.02871" lon="5.98338">
        <ele>466</ele>
        <time>2021-12-21T09:45:12.000Z</time>
      </trkpt>
      <trkpt lat="44.02872" lon="5.98339">
        <ele>466</ele>
        <time>2021-12-21T09:45:13.000Z</time>
      </trkpt>
      <trkpt lat="44.02872" lon="5.98341">
        <ele>466</ele>
        <time>2021-12-21T09:45:14.000Z</time>
      </trkpt>
      <trkpt lat="44.02872" lon="5.98343">
        <ele>466</ele>
        <time>2021-12-21T09:45:15.000Z</time>
      </trkpt>
      <trkpt lat="44.02872" lon="5.98345">
        <ele>466</ele>
        <time>2021-12-21T09:45:16.000Z</time>
      </trkpt>
      <trkpt lat="44.02873" lon="5.98347">
        <ele>466</ele>
        <time>2021-12-21T09:45:17.000Z</time>
      </trkpt>
      <trkpt lat="44.02873" lon="5.98348">
        <ele>466</ele>
        <time>2021-12-21T09:45:18.000Z</time>
      </trkpt>
      <trkpt lat="44.02874" lon="5.9835">
        <ele>466</ele>
        <time>2021-12-21T09:45:19.000Z</time>
      </trkpt>
      <trkpt lat="44.02874" lon="5.98351">
        <ele>467</ele>
        <time>2021-12-21T09:45:20.000Z</time>
      </trkpt>
      <trkpt lat="44.02874" lon="5.98353">
        <ele>467</ele>
        <time>2021-12-21T09:45:21.000Z</time>
      </trkpt>
      <trkpt lat="44.02874" lon="5.98355">
        <ele>467</ele>
        <time>2021-12-21T09:45:22.000Z</time>
      </trkpt>
      <trkpt lat="44.02874" lon="5.98356">
        <ele>467</ele>
        <time>2021-12-21T09:45:23.000Z</time>
      </trkpt>
      <trkpt lat="44.02874" lon="5.98358">
        <ele>467</ele>
        <time>2021-12-21T09:45:24.000Z</time>
      </trkpt>
      <trkpt lat="44.02874" lon="5.9836">
        <ele>467</ele>
        <time>2021-12-21T09:45:25.000Z</time>
      </trkpt>
      <trkpt lat="44.02875" lon="5.98361">
        <ele>467</ele>
        <time>2021-12-21T09:45:26.000Z</time>
      </trkpt>
      <trkpt lat="44.02875" lon="5.98362">
        <ele>467</ele>
        <time>2021-12-21T09:45:27.000Z</time>
      </trkpt>
      <trkpt lat="44.02875" lon="5.98364">
        <ele>467</ele>
        <time>2021-12-21T09:45:28.000Z</time>
      </trkpt>
      <trkpt lat="44.02875" lon="5.98366">
        <ele>467</ele>
        <time>2021-12-21T09:45:29.000Z</time>
      </trkpt>
      <trkpt lat="44.02876" lon="5.98367">
        <ele>467</ele>
        <time>2021-12-21T09:45:30.000Z</time>
      </trkpt>
      <trkpt lat="44.02876" lon="5.98368">
        <ele>467</ele>
        <time>2021-12-21T09:45:31.000Z</time>
      </trkpt>
      <trkpt lat="44.02877" lon="5.9837">
        <ele>467</ele>
        <time>2021-12-21T09:45:32.000Z</time>
      </trkpt>
      <trkpt lat="44.02877" lon="5.98371">
        <ele>467</ele>
        <time>2021-12-21T09:45:33.000Z</time>
      </trkpt>
      <trkpt lat="44.02877" lon="5.98372">
        <ele>467</ele>
        <time>2021-12-21T09:45:34.000Z</time>
      </trkpt>
      <trkpt lat="44.02877" lon="5.98373">
        <ele>467</ele>
        <time>2021-12-21T09:45:35.000Z</time>
      </trkpt>
      <trkpt lat="44.02877" lon="5.98373">
        <ele>467</ele>
        <time>2021-12-21T09:45:36.000Z</time>
      </trkpt>
      <trkpt lat="44.02878" lon="5.98374">
        <ele>467</ele>
        <time>2021-12-21T09:45:37.000Z</time>
      </trkpt>
      <trkpt lat="44.02878" lon="5.98374">
        <ele>467</ele>
        <time>2021-12-21T09:45:38.000Z</time>
      </trkpt>
      <trkpt lat="44.02877" lon="5.98374">
        <ele>467</ele>
        <time>2021-12-21T09:45:39.000Z</time>
      </trkpt>
      <trkpt lat="44.02877" lon="5.98374">
        <ele>467</ele>
        <time>2021-12-21T09:45:40.000Z</time>
      </trkpt>
      <trkpt lat="44.02877" lon="5.98374">
        <ele>468</ele>
        <time>2021-12-21T09:45:41.000Z</time>
      </trkpt>
      <trkpt lat="44.02877" lon="5.98374">
        <ele>468</ele>
        <time>2021-12-21T09:45:42.000Z</time>
      </trkpt>
      <trkpt lat="44.02877" lon="5.98374">
        <ele>468</ele>
        <time>2021-12-21T09:45:43.000Z</time>
      </trkpt>
      <trkpt lat="44.02877" lon="5.98374">
        <ele>468</ele>
        <time>2021-12-21T09:45:44.000Z</time>
      </trkpt>
      <trkpt lat="44.02877" lon="5.98374">
        <ele>468</ele>
        <time>2021-12-21T09:45:45.000Z</time>
      </trkpt>
      <trkpt lat="44.02877" lon="5.98374">
        <ele>468</ele>
        <time>2021-12-21T09:45:46.000Z</time>
      </trkpt>
      <trkpt lat="44.02877" lon="5.98374">
        <ele>468</ele>
        <time>2021-12-21T09:45:47.000Z</time>
      </trkpt>
      <trkpt lat="44.02877" lon="5.98374">
        <ele>468</ele>
        <time>2021-12-21T09:45:48.000Z</time>
      </trkpt>
      <trkpt lat="44.02877" lon="5.98374">
        <ele>468</ele>
        <time>2021-12-21T09:45:49.000Z</time>
      </trkpt>
      <trkpt lat="44.02877" lon="5.98374">
        <ele>468</ele>
        <time>2021-12-21T09:45:50.000Z</time>
      </trkpt>
      <trkpt lat="44.02877" lon="5.98374">
        <ele>468</ele>
        <time>2021-12-21T09:45:51.000Z</time>
      </trkpt>
      <trkpt lat="44.02877" lon="5.98374">
        <ele>468</ele>
        <time>2021-12-21T09:45:52.000Z</time>
      </trkpt>
      <trkpt lat="44.02877" lon="5.98374">
        <ele>468</ele>
        <time>2021-12-21T09:45:53.000Z</time>
      </trkpt>
      <trkpt lat="44.02877" lon="5.98374">
        <ele>468</ele>
        <time>2021-12-21T09:45:54.000Z</time>
      </trkpt>
      <trkpt lat="44.02877" lon="5.98374">
        <ele>468</ele>
        <time>2021-12-21T09:45:55.000Z</time>
      </trkpt>
      <trkpt lat="44.02877" lon="5.98374">
        <ele>468</ele>
        <time>2021-12-21T09:45:56.000Z</time>
      </trkpt>
      <trkpt lat="44.02877" lon="5.98374">
        <ele>468</ele>
        <time>2021-12-21T09:45:57.000Z</time>
      </trkpt>
      <trkpt lat="44.02877" lon="5.98374">
        <ele>468</ele>
        <time>2021-12-21T09:45:58.000Z</time>
      </trkpt>
      <trkpt lat="44.02877" lon="5.98374">
        <ele>468</ele>
        <time>2021-12-21T09:45:59.000Z</time>
      </trkpt>
      <trkpt lat="44.02877" lon="5.98374">
        <ele>468</ele>
        <time>2021-12-21T09:46:00.000Z</time>
      </trkpt>
      <trkpt lat="44.02877" lon="5.98374">
        <ele>468</ele>
        <time>2021-12-21T09:46:01.000Z</time>
      </trkpt>
      <trkpt lat="44.02877" lon="5.98374">
        <ele>468</ele>
        <time>2021-12-21T09:46:02.000Z</time>
      </trkpt>
      <trkpt lat="44.02877" lon="5.98374">
        <ele>468</ele>
        <time>2021-12-21T09:46:03.000Z</time>
      </trkpt>
      <trkpt lat="44.02877" lon="5.98374">
        <ele>468</ele>
        <time>2021-12-21T09:46:04.000Z</time>
      </trkpt>
      <trkpt lat="44.02877" lon="5.98374">
        <ele>468</ele>
        <time>2021-12-21T09:46:05.000Z</time>
      </trkpt>
      <trkpt lat="44.02877" lon="5.98374">
        <ele>468</ele>
        <time>2021-12-21T09:46:06.000Z</time>
      </trkpt>
      <trkpt lat="44.02877" lon="5.98374">
        <ele>468</ele>
        <time>2021-12-21T09:46:07.000Z</time>
      </trkpt>
      <trkpt lat="44.02877" lon="5.98374">
        <ele>468</ele>
        <time>2021-12-21T09:46:08.000Z</time>
      </trkpt>
      <trkpt lat="44.02877" lon="5.98374">
        <ele>468</ele>
        <time>2021-12-21T09:46:09.000Z</time>
      </trkpt>
      <trkpt lat="44.02877" lon="5.98374">
        <ele>468</ele>
        <time>2021-12-21T09:46:10.000Z</time>
      </trkpt>
      <trkpt lat="44.02876" lon="5.98374">
        <ele>468</ele>
        <time>2021-12-21T09:46:11.000Z</time>
      </trkpt>
      <trkpt lat="44.02876" lon="5.98374">
        <ele>468</ele>
        <time>2021-12-21T09:46:12.000Z</time>
      </trkpt>
      <trkpt lat="44.02876" lon="5.98374">
        <ele>468</ele>
        <time>2021-12-21T09:46:13.000Z</time>
      </trkpt>
      <trkpt lat="44.02876" lon="5.98374">
        <ele>468</ele>
        <time>2021-12-21T09:46:14.000Z</time>
      </trkpt>
      <trkpt lat="44.02876" lon="5.98374">
        <ele>468</ele>
        <time>2021-12-21T09:46:15.000Z</time>
      </trkpt>
      <trkpt lat="44.02876" lon="5.98374">
        <ele>468</ele>
        <time>2021-12-21T09:46:16.000Z</time>
      </trkpt>
      <trkpt lat="44.02876" lon="5.98374">
        <ele>468</ele>
        <time>2021-12-21T09:46:17.000Z</time>
      </trkpt>
      <trkpt lat="44.02876" lon="5.98374">
        <ele>468</ele>
        <time>2021-12-21T09:46:18.000Z</time>
      </trkpt>
      <trkpt lat="44.02876" lon="5.98374">
        <ele>468</ele>
        <time>2021-12-21T09:46:19.000Z</time>
      </trkpt>
      <trkpt lat="44.02876" lon="5.98374">
        <ele>468</ele>
        <time>2021-12-21T09:46:20.000Z</time>
      </trkpt>
      <trkpt lat="44.02876" lon="5.98374">
        <ele>469</ele>
        <time>2021-12-21T09:46:21.000Z</time>
      </trkpt>
      <trkpt lat="44.02876" lon="5.98374">
        <ele>469</ele>
        <time>2021-12-21T09:46:22.000Z</time>
      </trkpt>
      <trkpt lat="44.02876" lon="5.98374">
        <ele>469</ele>
        <time>2021-12-21T09:46:23.000Z</time>
      </trkpt>
      <trkpt lat="44.02876" lon="5.98374">
        <ele>469</ele>
        <time>2021-12-21T09:46:24.000Z</time>
      </trkpt>
      <trkpt lat="44.02876" lon="5.98374">
        <ele>469</ele>
        <time>2021-12-21T09:46:25.000Z</time>
      </trkpt>
      <trkpt lat="44.02876" lon="5.98374">
        <ele>469</ele>
        <time>2021-12-21T09:46:26.000Z</time>
      </trkpt>
      <trkpt lat="44.02875" lon="5.98375">
        <ele>469</ele>
        <time>2021-12-21T09:46:27.000Z</time>
      </trkpt>
      <trkpt lat="44.02875" lon="5.98376">
        <ele>469</ele>
        <time>2021-12-21T09:46:28.000Z</time>
      </trkpt>
      <trkpt lat="44.02875" lon="5.98377">
        <ele>469</ele>
        <time>2021-12-21T09:46:29.000Z</time>
      </trkpt>
      <trkpt lat="44.02874" lon="5.98378">
        <ele>469</ele>
        <time>2021-12-21T09:46:30.000Z</time>
      </trkpt>
      <trkpt lat="44.02875" lon="5.9838">
        <ele>469</ele>
        <time>2021-12-21T09:46:31.000Z</time>
      </trkpt>
      <trkpt lat="44.02875" lon="5.98381">
        <ele>469</ele>
        <time>2021-12-21T09:46:32.000Z</time>
      </trkpt>
      <trkpt lat="44.02874" lon="5.98383">
        <ele>469</ele>
        <time>2021-12-21T09:46:33.000Z</time>
      </trkpt>
      <trkpt lat="44.02874" lon="5.98385">
        <ele>469</ele>
        <time>2021-12-21T09:46:34.000Z</time>
      </trkpt>
      <trkpt lat="44.02875" lon="5.98387">
        <ele>469</ele>
        <time>2021-12-21T09:46:35.000Z</time>
      </trkpt>
      <trkpt lat="44.02875" lon="5.98389">
        <ele>470</ele>
        <time>2021-12-21T09:46:36.000Z</time>
      </trkpt>
      <trkpt lat="44.02875" lon="5.9839">
        <ele>470</ele>
        <time>2021-12-21T09:46:37.000Z</time>
      </trkpt>
      <trkpt lat="44.02875" lon="5.98392">
        <ele>470</ele>
        <time>2021-12-21T09:46:38.000Z</time>
      </trkpt>
      <trkpt lat="44.02874" lon="5.98394">
        <ele>470</ele>
        <time>2021-12-21T09:46:39.000Z</time>
      </trkpt>
      <trkpt lat="44.02874" lon="5.98396">
        <ele>470</ele>
        <time>2021-12-21T09:46:40.000Z</time>
      </trkpt>
      <trkpt lat="44.02874" lon="5.98398">
        <ele>470</ele>
        <time>2021-12-21T09:46:41.000Z</time>
      </trkpt>
      <trkpt lat="44.02874" lon="5.98399">
        <ele>470</ele>
        <time>2021-12-21T09:46:42.000Z</time>
      </trkpt>
      <trkpt lat="44.02873" lon="5.98401">
        <ele>470</ele>
        <time>2021-12-21T09:46:43.000Z</time>
      </trkpt>
      <trkpt lat="44.02873" lon="5.98403">
        <ele>470</ele>
        <time>2021-12-21T09:46:44.000Z</time>
      </trkpt>
      <trkpt lat="44.02873" lon="5.98405">
        <ele>470</ele>
        <time>2021-12-21T09:46:45.000Z</time>
      </trkpt>
      <trkpt lat="44.02873" lon="5.98406">
        <ele>470</ele>
        <time>2021-12-21T09:46:46.000Z</time>
      </trkpt>
      <trkpt lat="44.02873" lon="5.98408">
        <ele>470</ele>
        <time>2021-12-21T09:46:47.000Z</time>
      </trkpt>
      <trkpt lat="44.02873" lon="5.98411">
        <ele>470</ele>
        <time>2021-12-21T09:46:48.000Z</time>
      </trkpt>
      <trkpt lat="44.02873" lon="5.98413">
        <ele>470</ele>
        <time>2021-12-21T09:46:49.000Z</time>
      </trkpt>
      <trkpt lat="44.02873" lon="5.98415">
        <ele>470</ele>
        <time>2021-12-21T09:46:50.000Z</time>
      </trkpt>
      <trkpt lat="44.02873" lon="5.98416">
        <ele>470</ele>
        <time>2021-12-21T09:46:51.000Z</time>
      </trkpt>
      <trkpt lat="44.02873" lon="5.98418">
        <ele>471</ele>
        <time>2021-12-21T09:46:52.000Z</time>
      </trkpt>
      <trkpt lat="44.02873" lon="5.9842">
        <ele>471</ele>
        <time>2021-12-21T09:46:53.000Z</time>
      </trkpt>
      <trkpt lat="44.02873" lon="5.98421">
        <ele>471</ele>
        <time>2021-12-21T09:46:54.000Z</time>
      </trkpt>
      <trkpt lat="44.02874" lon="5.98423">
        <ele>471</ele>
        <time>2021-12-21T09:46:55.000Z</time>
      </trkpt>
      <trkpt lat="44.02874" lon="5.98425">
        <ele>471</ele>
        <time>2021-12-21T09:46:56.000Z</time>
      </trkpt>
      <trkpt lat="44.02874" lon="5.98427">
        <ele>471</ele>
        <time>2021-12-21T09:46:57.000Z</time>
      </trkpt>
      <trkpt lat="44.02874" lon="5.98429">
        <ele>471</ele>
        <time>2021-12-21T09:46:58.000Z</time>
      </trkpt>
      <trkpt lat="44.02874" lon="5.9843">
        <ele>471</ele>
        <time>2021-12-21T09:46:59.000Z</time>
      </trkpt>
      <trkpt lat="44.02875" lon="5.98432">
        <ele>471</ele>
        <time>2021-12-21T09:47:00.000Z</time>
      </trkpt>
      <trkpt lat="44.02875" lon="5.98434">
        <ele>471</ele>
        <time>2021-12-21T09:47:01.000Z</time>
      </trkpt>
      <trkpt lat="44.02875" lon="5.98436">
        <ele>471</ele>
        <time>2021-12-21T09:47:02.000Z</time>
      </trkpt>
      <trkpt lat="44.02875" lon="5.98438">
        <ele>470</ele>
        <time>2021-12-21T09:47:03.000Z</time>
      </trkpt>
      <trkpt lat="44.02875" lon="5.98439">
        <ele>470</ele>
        <time>2021-12-21T09:47:04.000Z</time>
      </trkpt>
      <trkpt lat="44.02875" lon="5.98441">
        <ele>470</ele>
        <time>2021-12-21T09:47:05.000Z</time>
      </trkpt>
      <trkpt lat="44.02876" lon="5.98443">
        <ele>470</ele>
        <time>2021-12-21T09:47:06.000Z</time>
      </trkpt>
      <trkpt lat="44.02876" lon="5.98445">
        <ele>470</ele>
        <time>2021-12-21T09:47:07.000Z</time>
      </trkpt>
      <trkpt lat="44.02877" lon="5.98447">
        <ele>470</ele>
        <time>2021-12-21T09:47:08.000Z</time>
      </trkpt>
      <trkpt lat="44.02877" lon="5.98448">
        <ele>470</ele>
        <time>2021-12-21T09:47:09.000Z</time>
      </trkpt>
      <trkpt lat="44.02877" lon="5.9845">
        <ele>470</ele>
        <time>2021-12-21T09:47:10.000Z</time>
      </trkpt>
      <trkpt lat="44.02877" lon="5.98452">
        <ele>470</ele>
        <time>2021-12-21T09:47:11.000Z</time>
      </trkpt>
      <trkpt lat="44.02878" lon="5.98454">
        <ele>470</ele>
        <time>2021-12-21T09:47:12.000Z</time>
      </trkpt>
      <trkpt lat="44.02878" lon="5.98456">
        <ele>470</ele>
        <time>2021-12-21T09:47:13.000Z</time>
      </trkpt>
      <trkpt lat="44.02878" lon="5.98458">
        <ele>470</ele>
        <time>2021-12-21T09:47:14.000Z</time>
      </trkpt>
      <trkpt lat="44.02878" lon="5.9846">
        <ele>470</ele>
        <time>2021-12-21T09:47:15.000Z</time>
      </trkpt>
      <trkpt lat="44.02879" lon="5.98461">
        <ele>470</ele>
        <time>2021-12-21T09:47:16.000Z</time>
      </trkpt>
      <trkpt lat="44.02879" lon="5.98463">
        <ele>470</ele>
        <time>2021-12-21T09:47:17.000Z</time>
      </trkpt>
      <trkpt lat="44.0288" lon="5.98465">
        <ele>470</ele>
        <time>2021-12-21T09:47:18.000Z</time>
      </trkpt>
      <trkpt lat="44.0288" lon="5.98466">
        <ele>470</ele>
        <time>2021-12-21T09:47:19.000Z</time>
      </trkpt>
      <trkpt lat="44.0288" lon="5.98468">
        <ele>470</ele>
        <time>2021-12-21T09:47:20.000Z</time>
      </trkpt>
      <trkpt lat="44.02881" lon="5.9847">
        <ele>470</ele>
        <time>2021-12-21T09:47:21.000Z</time>
      </trkpt>
      <trkpt lat="44.02881" lon="5.98472">
        <ele>470</ele>
        <time>2021-12-21T09:47:22.000Z</time>
      </trkpt>
      <trkpt lat="44.02882" lon="5.98473">
        <ele>470</ele>
        <time>2021-12-21T09:47:23.000Z</time>
      </trkpt>
      <trkpt lat="44.02882" lon="5.98475">
        <ele>470</ele>
        <time>2021-12-21T09:47:24.000Z</time>
      </trkpt>
      <trkpt lat="44.02882" lon="5.98477">
        <ele>470</ele>
        <time>2021-12-21T09:47:25.000Z</time>
      </trkpt>
      <trkpt lat="44.02883" lon="5.98479">
        <ele>470</ele>
        <time>2021-12-21T09:47:26.000Z</time>
      </trkpt>
      <trkpt lat="44.02883" lon="5.98481">
        <ele>470</ele>
        <time>2021-12-21T09:47:27.000Z</time>
      </trkpt>
      <trkpt lat="44.02884" lon="5.98482">
        <ele>470</ele>
        <time>2021-12-21T09:47:28.000Z</time>
      </trkpt>
      <trkpt lat="44.02884" lon="5.98484">
        <ele>470</ele>
        <time>2021-12-21T09:47:29.000Z</time>
      </trkpt>
      <trkpt lat="44.02884" lon="5.98486">
        <ele>470</ele>
        <time>2021-12-21T09:47:30.000Z</time>
      </trkpt>
      <trkpt lat="44.02885" lon="5.98487">
        <ele>470</ele>
        <time>2021-12-21T09:47:31.000Z</time>
      </trkpt>
      <trkpt lat="44.02885" lon="5.98489">
        <ele>470</ele>
        <time>2021-12-21T09:47:32.000Z</time>
      </trkpt>
      <trkpt lat="44.02885" lon="5.98491">
        <ele>470</ele>
        <time>2021-12-21T09:47:33.000Z</time>
      </trkpt>
      <trkpt lat="44.02886" lon="5.98493">
        <ele>471</ele>
        <time>2021-12-21T09:47:34.000Z</time>
      </trkpt>
      <trkpt lat="44.02886" lon="5.98494">
        <ele>471</ele>
        <time>2021-12-21T09:47:35.000Z</time>
      </trkpt>
      <trkpt lat="44.02887" lon="5.98496">
        <ele>471</ele>
        <time>2021-12-21T09:47:36.000Z</time>
      </trkpt>
      <trkpt lat="44.02887" lon="5.98498">
        <ele>471</ele>
        <time>2021-12-21T09:47:37.000Z</time>
      </trkpt>
      <trkpt lat="44.02887" lon="5.985">
        <ele>471</ele>
        <time>2021-12-21T09:47:38.000Z</time>
      </trkpt>
      <trkpt lat="44.02887" lon="5.98501">
        <ele>471</ele>
        <time>2021-12-21T09:47:39.000Z</time>
      </trkpt>
      <trkpt lat="44.02887" lon="5.98503">
        <ele>471</ele>
        <time>2021-12-21T09:47:40.000Z</time>
      </trkpt>
      <trkpt lat="44.02887" lon="5.98504">
        <ele>471</ele>
        <time>2021-12-21T09:47:41.000Z</time>
      </trkpt>
      <trkpt lat="44.02887" lon="5.98506">
        <ele>471</ele>
        <time>2021-12-21T09:47:42.000Z</time>
      </trkpt>
      <trkpt lat="44.02888" lon="5.98508">
        <ele>471</ele>
        <time>2021-12-21T09:47:43.000Z</time>
      </trkpt>
      <trkpt lat="44.02888" lon="5.9851">
        <ele>471</ele>
        <time>2021-12-21T09:47:44.000Z</time>
      </trkpt>
      <trkpt lat="44.02888" lon="5.98511">
        <ele>471</ele>
        <time>2021-12-21T09:47:45.000Z</time>
      </trkpt>
      <trkpt lat="44.02888" lon="5.98513">
        <ele>472</ele>
        <time>2021-12-21T09:47:46.000Z</time>
      </trkpt>
      <trkpt lat="44.02888" lon="5.98515">
        <ele>472</ele>
        <time>2021-12-21T09:47:47.000Z</time>
      </trkpt>
      <trkpt lat="44.02888" lon="5.98517">
        <ele>472</ele>
        <time>2021-12-21T09:47:48.000Z</time>
      </trkpt>
      <trkpt lat="44.02888" lon="5.98518">
        <ele>472</ele>
        <time>2021-12-21T09:47:49.000Z</time>
      </trkpt>
      <trkpt lat="44.02887" lon="5.9852">
        <ele>472</ele>
        <time>2021-12-21T09:47:50.000Z</time>
      </trkpt>
      <trkpt lat="44.02887" lon="5.98521">
        <ele>472</ele>
        <time>2021-12-21T09:47:51.000Z</time>
      </trkpt>
      <trkpt lat="44.02887" lon="5.98523">
        <ele>472</ele>
        <time>2021-12-21T09:47:52.000Z</time>
      </trkpt>
      <trkpt lat="44.02887" lon="5.98524">
        <ele>472</ele>
        <time>2021-12-21T09:47:53.000Z</time>
      </trkpt>
      <trkpt lat="44.02887" lon="5.98524">
        <ele>472</ele>
        <time>2021-12-21T09:47:54.000Z</time>
      </trkpt>
      <trkpt lat="44.02887" lon="5.98524">
        <ele>472</ele>
        <time>2021-12-21T09:47:55.000Z</time>
      </trkpt>
      <trkpt lat="44.02887" lon="5.98524">
        <ele>473</ele>
        <time>2021-12-21T09:47:56.000Z</time>
      </trkpt>
      <trkpt lat="44.02887" lon="5.98524">
        <ele>473</ele>
        <time>2021-12-21T09:47:57.000Z</time>
      </trkpt>
      <trkpt lat="44.02887" lon="5.98524">
        <ele>473</ele>
        <time>2021-12-21T09:47:58.000Z</time>
      </trkpt>
      <trkpt lat="44.02887" lon="5.98524">
        <ele>473</ele>
        <time>2021-12-21T09:47:59.000Z</time>
      </trkpt>
      <trkpt lat="44.02887" lon="5.98524">
        <ele>473</ele>
        <time>2021-12-21T09:48:00.000Z</time>
      </trkpt>
      <trkpt lat="44.02887" lon="5.98524">
        <ele>473</ele>
        <time>2021-12-21T09:48:01.000Z</time>
      </trkpt>
      <trkpt lat="44.02887" lon="5.98524">
        <ele>473</ele>
        <time>2021-12-21T09:48:02.000Z</time>
      </trkpt>
      <trkpt lat="44.02887" lon="5.98524">
        <ele>473</ele>
        <time>2021-12-21T09:48:03.000Z</time>
      </trkpt>
      <trkpt lat="44.02887" lon="5.98524">
        <ele>473</ele>
        <time>2021-12-21T09:48:04.000Z</time>
      </trkpt>
      <trkpt lat="44.02887" lon="5.98524">
        <ele>473</ele>
        <time>2021-12-21T09:48:05.000Z</time>
      </trkpt>
      <trkpt lat="44.02888" lon="5.98524">
        <ele>473</ele>
        <time>2021-12-21T09:48:06.000Z</time>
      </trkpt>
      <trkpt lat="44.02888" lon="5.98524">
        <ele>473</ele>
        <time>2021-12-21T09:48:07.000Z</time>
      </trkpt>
      <trkpt lat="44.02888" lon="5.98524">
        <ele>473</ele>
        <time>2021-12-21T09:48:08.000Z</time>
      </trkpt>
      <trkpt lat="44.02888" lon="5.98524">
        <ele>473</ele>
        <time>2021-12-21T09:48:09.000Z</time>
      </trkpt>
      <trkpt lat="44.02888" lon="5.98524">
        <ele>473</ele>
        <time>2021-12-21T09:48:10.000Z</time>
      </trkpt>
      <trkpt lat="44.02888" lon="5.98524">
        <ele>473</ele>
        <time>2021-12-21T09:48:11.000Z</time>
      </trkpt>
      <trkpt lat="44.02888" lon="5.98524">
        <ele>473</ele>
        <time>2021-12-21T09:48:12.000Z</time>
      </trkpt>
      <trkpt lat="44.02888" lon="5.98524">
        <ele>473</ele>
        <time>2021-12-21T09:48:13.000Z</time>
      </trkpt>
      <trkpt lat="44.02888" lon="5.98524">
        <ele>473</ele>
        <time>2021-12-21T09:48:14.000Z</time>
      </trkpt>
      <trkpt lat="44.02888" lon="5.98524">
        <ele>473</ele>
        <time>2021-12-21T09:48:15.000Z</time>
      </trkpt>
      <trkpt lat="44.02888" lon="5.98524">
        <ele>473</ele>
        <time>2021-12-21T09:48:16.000Z</time>
      </trkpt>
      <trkpt lat="44.02888" lon="5.98524">
        <ele>473</ele>
        <time>2021-12-21T09:48:17.000Z</time>
      </trkpt>
      <trkpt lat="44.02888" lon="5.98524">
        <ele>473</ele>
        <time>2021-12-21T09:48:18.000Z</time>
      </trkpt>
      <trkpt lat="44.02888" lon="5.98524">
        <ele>473</ele>
        <time>2021-12-21T09:48:19.000Z</time>
      </trkpt>
      <trkpt lat="44.02888" lon="5.98524">
        <ele>473</ele>
        <time>2021-12-21T09:48:20.000Z</time>
      </trkpt>
      <trkpt lat="44.02888" lon="5.98524">
        <ele>473</ele>
        <time>2021-12-21T09:48:21.000Z</time>
      </trkpt>
      <trkpt lat="44.02888" lon="5.98524">
        <ele>473</ele>
        <time>2021-12-21T09:48:22.000Z</time>
      </trkpt>
      <trkpt lat="44.02888" lon="5.98524">
        <ele>473</ele>
        <time>2021-12-21T09:48:23.000Z</time>
      </trkpt>
      <trkpt lat="44.02888" lon="5.98524">
        <ele>473</ele>
        <time>2021-12-21T09:48:24.000Z</time>
      </trkpt>
      <trkpt lat="44.02888" lon="5.98524">
        <ele>473</ele>
        <time>2021-12-21T09:48:25.000Z</time>
      </trkpt>
      <trkpt lat="44.02888" lon="5.98524">
        <ele>473</ele>
        <time>2021-12-21T09:48:26.000Z</time>
      </trkpt>
      <trkpt lat="44.02888" lon="5.98524">
        <ele>473</ele>
        <time>2021-12-21T09:48:27.000Z</time>
      </trkpt>
      <trkpt lat="44.02888" lon="5.98524">
        <ele>473</ele>
        <time>2021-12-21T09:48:28.000Z</time>
      </trkpt>
      <trkpt lat="44.02888" lon="5.98524">
        <ele>473</ele>
        <time>2021-12-21T09:48:29.000Z</time>
      </trkpt>
      <trkpt lat="44.02888" lon="5.98524">
        <ele>473</ele>
        <time>2021-12-21T09:48:30.000Z</time>
      </trkpt>
      <trkpt lat="44.02888" lon="5.98524">
        <ele>473</ele>
        <time>2021-12-21T09:48:31.000Z</time>
      </trkpt>
      <trkpt lat="44.02888" lon="5.98524">
        <ele>473</ele>
        <time>2021-12-21T09:48:32.000Z</time>
      </trkpt>
      <trkpt lat="44.02888" lon="5.98524">
        <ele>473</ele>
        <time>2021-12-21T09:48:33.000Z</time>
      </trkpt>
      <trkpt lat="44.02888" lon="5.98524">
        <ele>473</ele>
        <time>2021-12-21T09:48:34.000Z</time>
      </trkpt>
      <trkpt lat="44.02888" lon="5.98524">
        <ele>473</ele>
        <time>2021-12-21T09:48:35.000Z</time>
      </trkpt>
      <trkpt lat="44.02888" lon="5.98524">
        <ele>473</ele>
        <time>2021-12-21T09:48:36.000Z</time>
      </trkpt>
      <trkpt lat="44.02888" lon="5.98524">
        <ele>473</ele>
        <time>2021-12-21T09:48:37.000Z</time>
      </trkpt>
      <trkpt lat="44.02888" lon="5.98524">
        <ele>473</ele>
        <time>2021-12-21T09:48:38.000Z</time>
      </trkpt>
      <trkpt lat="44.02888" lon="5.98524">
        <ele>473</ele>
        <time>2021-12-21T09:48:39.000Z</time>
      </trkpt>
      <trkpt lat="44.02888" lon="5.98524">
        <ele>473</ele>
        <time>2021-12-21T09:48:40.000Z</time>
      </trkpt>
      <trkpt lat="44.02888" lon="5.98524">
        <ele>473</ele>
        <time>2021-12-21T09:48:41.000Z</time>
      </trkpt>
      <trkpt lat="44.02888" lon="5.98524">
        <ele>473</ele>
        <time>2021-12-21T09:48:42.000Z</time>
      </trkpt>
      <trkpt lat="44.02888" lon="5.98524">
        <ele>473</ele>
        <time>2021-12-21T09:48:43.000Z</time>
      </trkpt>
      <trkpt lat="44.02889" lon="5.98524">
        <ele>473</ele>
        <time>2021-12-21T09:48:44.000Z</time>
      </trkpt>
      <trkpt lat="44.02889" lon="5.98524">
        <ele>473</ele>
        <time>2021-12-21T09:48:45.000Z</time>
      </trkpt>
      <trkpt lat="44.0289" lon="5.98524">
        <ele>473</ele>
        <time>2021-12-21T09:48:46.000Z</time>
      </trkpt>
      <trkpt lat="44.0289" lon="5.98524">
        <ele>473</ele>
        <time>2021-12-21T09:48:47.000Z</time>
      </trkpt>
      <trkpt lat="44.0289" lon="5.98524">
        <ele>473</ele>
        <time>2021-12-21T09:48:48.000Z</time>
      </trkpt>
      <trkpt lat="44.02891" lon="5.98524">
        <ele>473</ele>
        <time>2021-12-21T09:48:49.000Z</time>
      </trkpt>
      <trkpt lat="44.02892" lon="5.98525">
        <ele>473</ele>
        <time>2021-12-21T09:48:50.000Z</time>
      </trkpt>
      <trkpt lat="44.02893" lon="5.98526">
        <ele>473</ele>
        <time>2021-12-21T09:48:51.000Z</time>
      </trkpt>
      <trkpt lat="44.02893" lon="5.98528">
        <ele>473</ele>
        <time>2021-12-21T09:48:52.000Z</time>
      </trkpt>
      <trkpt lat="44.02893" lon="5.9853">
        <ele>473</ele>
        <time>2021-12-21T09:48:53.000Z</time>
      </trkpt>
      <trkpt lat="44.02893" lon="5.98531">
        <ele>473</ele>
        <time>2021-12-21T09:48:54.000Z</time>
      </trkpt>
      <trkpt lat="44.02893" lon="5.98533">
        <ele>473</ele>
        <time>2021-12-21T09:48:55.000Z</time>
      </trkpt>
      <trkpt lat="44.02894" lon="5.98535">
        <ele>473</ele>
        <time>2021-12-21T09:48:56.000Z</time>
      </trkpt>
      <trkpt lat="44.02894" lon="5.98537">
        <ele>473</ele>
        <time>2021-12-21T09:48:57.000Z</time>
      </trkpt>
      <trkpt lat="44.02894" lon="5.98538">
        <ele>473</ele>
        <time>2021-12-21T09:48:58.000Z</time>
      </trkpt>
      <trkpt lat="44.02894" lon="5.9854">
        <ele>473</ele>
        <time>2021-12-21T09:48:59.000Z</time>
      </trkpt>
      <trkpt lat="44.02894" lon="5.98542">
        <ele>473</ele>
        <time>2021-12-21T09:49:00.000Z</time>
      </trkpt>
      <trkpt lat="44.02895" lon="5.98544">
        <ele>473</ele>
        <time>2021-12-21T09:49:01.000Z</time>
      </trkpt>
      <trkpt lat="44.02895" lon="5.98546">
        <ele>473</ele>
        <time>2021-12-21T09:49:02.000Z</time>
      </trkpt>
      <trkpt lat="44.02895" lon="5.98547">
        <ele>473</ele>
        <time>2021-12-21T09:49:03.000Z</time>
      </trkpt>
      <trkpt lat="44.02896" lon="5.98548">
        <ele>473</ele>
        <time>2021-12-21T09:49:04.000Z</time>
      </trkpt>
      <trkpt lat="44.02897" lon="5.98549">
        <ele>473</ele>
        <time>2021-12-21T09:49:05.000Z</time>
      </trkpt>
      <trkpt lat="44.02898" lon="5.9855">
        <ele>473</ele>
        <time>2021-12-21T09:49:06.000Z</time>
      </trkpt>
      <trkpt lat="44.02898" lon="5.98551">
        <ele>473</ele>
        <time>2021-12-21T09:49:07.000Z</time>
      </trkpt>
      <trkpt lat="44.02898" lon="5.98551">
        <ele>473</ele>
        <time>2021-12-21T09:49:08.000Z</time>
      </trkpt>
      <trkpt lat="44.02898" lon="5.98552">
        <ele>473</ele>
        <time>2021-12-21T09:49:09.000Z</time>
      </trkpt>
      <trkpt lat="44.02899" lon="5.98552">
        <ele>473</ele>
        <time>2021-12-21T09:49:10.000Z</time>
      </trkpt>
      <trkpt lat="44.02899" lon="5.98552">
        <ele>473</ele>
        <time>2021-12-21T09:49:11.000Z</time>
      </trkpt>
      <trkpt lat="44.02899" lon="5.98552">
        <ele>473</ele>
        <time>2021-12-21T09:49:12.000Z</time>
      </trkpt>
      <trkpt lat="44.02899" lon="5.98552">
        <ele>473</ele>
        <time>2021-12-21T09:49:13.000Z</time>
      </trkpt>
      <trkpt lat="44.02899" lon="5.98552">
        <ele>473</ele>
        <time>2021-12-21T09:49:14.000Z</time>
      </trkpt>
      <trkpt lat="44.02899" lon="5.98552">
        <ele>473</ele>
        <time>2021-12-21T09:49:15.000Z</time>
      </trkpt>
      <trkpt lat="44.02899" lon="5.98552">
        <ele>473</ele>
        <time>2021-12-21T09:49:16.000Z</time>
      </trkpt>
      <trkpt lat="44.02899" lon="5.98552">
        <ele>473</ele>
        <time>2021-12-21T09:49:17.000Z</time>
      </trkpt>
      <trkpt lat="44.02899" lon="5.98552">
        <ele>473</ele>
        <time>2021-12-21T09:49:18.000Z</time>
      </trkpt>
      <trkpt lat="44.02899" lon="5.98552">
        <ele>473</ele>
        <time>2021-12-21T09:49:19.000Z</time>
      </trkpt>
      <trkpt lat="44.02899" lon="5.98552">
        <ele>473</ele>
        <time>2021-12-21T09:49:20.000Z</time>
      </trkpt>
      <trkpt lat="44.02899" lon="5.98552">
        <ele>473</ele>
        <time>2021-12-21T09:49:21.000Z</time>
      </trkpt>
      <trkpt lat="44.02899" lon="5.98552">
        <ele>473</ele>
        <time>2021-12-21T09:49:22.000Z</time>
      </trkpt>
      <trkpt lat="44.02899" lon="5.98552">
        <ele>473</ele>
        <time>2021-12-21T09:49:23.000Z</time>
      </trkpt>
      <trkpt lat="44.02899" lon="5.98552">
        <ele>473</ele>
        <time>2021-12-21T09:49:24.000Z</time>
      </trkpt>
      <trkpt lat="44.02899" lon="5.98552">
        <ele>473</ele>
        <time>2021-12-21T09:49:25.000Z</time>
      </trkpt>
      <trkpt lat="44.02899" lon="5.98552">
        <ele>473</ele>
        <time>2021-12-21T09:49:26.000Z</time>
      </trkpt>
      <trkpt lat="44.02899" lon="5.98552">
        <ele>473</ele>
        <time>2021-12-21T09:49:27.000Z</time>
      </trkpt>
      <trkpt lat="44.02899" lon="5.98553">
        <ele>473</ele>
        <time>2021-12-21T09:49:28.000Z</time>
      </trkpt>
      <trkpt lat="44.02899" lon="5.98554">
        <ele>473</ele>
        <time>2021-12-21T09:49:29.000Z</time>
      </trkpt>
      <trkpt lat="44.02898" lon="5.98556">
        <ele>473</ele>
        <time>2021-12-21T09:49:30.000Z</time>
      </trkpt>
      <trkpt lat="44.02898" lon="5.98557">
        <ele>473</ele>
        <time>2021-12-21T09:49:31.000Z</time>
      </trkpt>
      <trkpt lat="44.02898" lon="5.98559">
        <ele>473</ele>
        <time>2021-12-21T09:49:32.000Z</time>
      </trkpt>
      <trkpt lat="44.02897" lon="5.98561">
        <ele>474</ele>
        <time>2021-12-21T09:49:33.000Z</time>
      </trkpt>
      <trkpt lat="44.02897" lon="5.98562">
        <ele>474</ele>
        <time>2021-12-21T09:49:34.000Z</time>
      </trkpt>
      <trkpt lat="44.02897" lon="5.98564">
        <ele>474</ele>
        <time>2021-12-21T09:49:35.000Z</time>
      </trkpt>
      <trkpt lat="44.02897" lon="5.98565">
        <ele>474</ele>
        <time>2021-12-21T09:49:36.000Z</time>
      </trkpt>
      <trkpt lat="44.02897" lon="5.98567">
        <ele>474</ele>
        <time>2021-12-21T09:49:37.000Z</time>
      </trkpt>
      <trkpt lat="44.02898" lon="5.98568">
        <ele>474</ele>
        <time>2021-12-21T09:49:38.000Z</time>
      </trkpt>
      <trkpt lat="44.02898" lon="5.9857">
        <ele>474</ele>
        <time>2021-12-21T09:49:39.000Z</time>
      </trkpt>
      <trkpt lat="44.02898" lon="5.98572">
        <ele>474</ele>
        <time>2021-12-21T09:49:40.000Z</time>
      </trkpt>
      <trkpt lat="44.02898" lon="5.98574">
        <ele>474</ele>
        <time>2021-12-21T09:49:41.000Z</time>
      </trkpt>
      <trkpt lat="44.02898" lon="5.98575">
        <ele>474</ele>
        <time>2021-12-21T09:49:42.000Z</time>
      </trkpt>
      <trkpt lat="44.02898" lon="5.98577">
        <ele>475</ele>
        <time>2021-12-21T09:49:43.000Z</time>
      </trkpt>
      <trkpt lat="44.02898" lon="5.98579">
        <ele>475</ele>
        <time>2021-12-21T09:49:44.000Z</time>
      </trkpt>
      <trkpt lat="44.02898" lon="5.98581">
        <ele>475</ele>
        <time>2021-12-21T09:49:45.000Z</time>
      </trkpt>
      <trkpt lat="44.02898" lon="5.98583">
        <ele>475</ele>
        <time>2021-12-21T09:49:46.000Z</time>
      </trkpt>
      <trkpt lat="44.02898" lon="5.98584">
        <ele>475</ele>
        <time>2021-12-21T09:49:47.000Z</time>
      </trkpt>
      <trkpt lat="44.02898" lon="5.98586">
        <ele>475</ele>
        <time>2021-12-21T09:49:48.000Z</time>
      </trkpt>
      <trkpt lat="44.02898" lon="5.98588">
        <ele>475</ele>
        <time>2021-12-21T09:49:49.000Z</time>
      </trkpt>
      <trkpt lat="44.02897" lon="5.9859">
        <ele>475</ele>
        <time>2021-12-21T09:49:50.000Z</time>
      </trkpt>
      <trkpt lat="44.02897" lon="5.98591">
        <ele>475</ele>
        <time>2021-12-21T09:49:51.000Z</time>
      </trkpt>
      <trkpt lat="44.02897" lon="5.98593">
        <ele>475</ele>
        <time>2021-12-21T09:49:52.000Z</time>
      </trkpt>
      <trkpt lat="44.02897" lon="5.98595">
        <ele>476</ele>
        <time>2021-12-21T09:49:53.000Z</time>
      </trkpt>
      <trkpt lat="44.02897" lon="5.98596">
        <ele>476</ele>
        <time>2021-12-21T09:49:54.000Z</time>
      </trkpt>
      <trkpt lat="44.02897" lon="5.98598">
        <ele>476</ele>
        <time>2021-12-21T09:49:55.000Z</time>
      </trkpt>
      <trkpt lat="44.02897" lon="5.986">
        <ele>476</ele>
        <time>2021-12-21T09:49:56.000Z</time>
      </trkpt>
      <trkpt lat="44.02898" lon="5.98602">
        <ele>476</ele>
        <time>2021-12-21T09:49:57.000Z</time>
      </trkpt>
      <trkpt lat="44.02898" lon="5.98603">
        <ele>476</ele>
        <time>2021-12-21T09:49:58.000Z</time>
      </trkpt>
      <trkpt lat="44.02897" lon="5.98605">
        <ele>476</ele>
        <time>2021-12-21T09:49:59.000Z</time>
      </trkpt>
      <trkpt lat="44.02897" lon="5.98607">
        <ele>476</ele>
        <time>2021-12-21T09:50:00.000Z</time>
      </trkpt>
      <trkpt lat="44.02897" lon="5.98609">
        <ele>476</ele>
        <time>2021-12-21T09:50:01.000Z</time>
      </trkpt>
      <trkpt lat="44.02897" lon="5.9861">
        <ele>476</ele>
        <time>2021-12-21T09:50:02.000Z</time>
      </trkpt>
      <trkpt lat="44.02896" lon="5.98612">
        <ele>476</ele>
        <time>2021-12-21T09:50:03.000Z</time>
      </trkpt>
      <trkpt lat="44.02896" lon="5.98614">
        <ele>476</ele>
        <time>2021-12-21T09:50:04.000Z</time>
      </trkpt>
      <trkpt lat="44.02896" lon="5.98615">
        <ele>476</ele>
        <time>2021-12-21T09:50:05.000Z</time>
      </trkpt>
      <trkpt lat="44.02896" lon="5.98617">
        <ele>476</ele>
        <time>2021-12-21T09:50:06.000Z</time>
      </trkpt>
      <trkpt lat="44.02896" lon="5.98619">
        <ele>476</ele>
        <time>2021-12-21T09:50:07.000Z</time>
      </trkpt>
      <trkpt lat="44.02896" lon="5.98621">
        <ele>476</ele>
        <time>2021-12-21T09:50:08.000Z</time>
      </trkpt>
      <trkpt lat="44.02896" lon="5.98623">
        <ele>476</ele>
        <time>2021-12-21T09:50:09.000Z</time>
      </trkpt>
      <trkpt lat="44.02896" lon="5.98624">
        <ele>476</ele>
        <time>2021-12-21T09:50:10.000Z</time>
      </trkpt>
      <trkpt lat="44.02896" lon="5.98626">
        <ele>476</ele>
        <time>2021-12-21T09:50:11.000Z</time>
      </trkpt>
      <trkpt lat="44.02896" lon="5.98627">
        <ele>476</ele>
        <time>2021-12-21T09:50:12.000Z</time>
      </trkpt>
      <trkpt lat="44.02896" lon="5.98629">
        <ele>476</ele>
        <time>2021-12-21T09:50:13.000Z</time>
      </trkpt>
      <trkpt lat="44.02896" lon="5.98631">
        <ele>477</ele>
        <time>2021-12-21T09:50:14.000Z</time>
      </trkpt>
      <trkpt lat="44.02896" lon="5.98633">
        <ele>477</ele>
        <time>2021-12-21T09:50:15.000Z</time>
      </trkpt>
      <trkpt lat="44.02896" lon="5.98634">
        <ele>477</ele>
        <time>2021-12-21T09:50:16.000Z</time>
      </trkpt>
      <trkpt lat="44.02896" lon="5.98636">
        <ele>477</ele>
        <time>2021-12-21T09:50:17.000Z</time>
      </trkpt>
      <trkpt lat="44.02896" lon="5.98637">
        <ele>477</ele>
        <time>2021-12-21T09:50:18.000Z</time>
      </trkpt>
      <trkpt lat="44.02896" lon="5.98639">
        <ele>477</ele>
        <time>2021-12-21T09:50:19.000Z</time>
      </trkpt>
      <trkpt lat="44.02896" lon="5.98641">
        <ele>477</ele>
        <time>2021-12-21T09:50:20.000Z</time>
      </trkpt>
      <trkpt lat="44.02896" lon="5.98642">
        <ele>477</ele>
        <time>2021-12-21T09:50:21.000Z</time>
      </trkpt>
      <trkpt lat="44.02896" lon="5.98644">
        <ele>477</ele>
        <time>2021-12-21T09:50:22.000Z</time>
      </trkpt>
      <trkpt lat="44.02896" lon="5.98645">
        <ele>477</ele>
        <time>2021-12-21T09:50:23.000Z</time>
      </trkpt>
      <trkpt lat="44.02896" lon="5.98646">
        <ele>477</ele>
        <time>2021-12-21T09:50:24.000Z</time>
      </trkpt>
      <trkpt lat="44.02896" lon="5.98647">
        <ele>477</ele>
        <time>2021-12-21T09:50:25.000Z</time>
      </trkpt>
      <trkpt lat="44.02896" lon="5.98647">
        <ele>477</ele>
        <time>2021-12-21T09:50:26.000Z</time>
      </trkpt>
      <trkpt lat="44.02896" lon="5.98647">
        <ele>477</ele>
        <time>2021-12-21T09:50:27.000Z</time>
      </trkpt>
      <trkpt lat="44.02896" lon="5.98647">
        <ele>477</ele>
        <time>2021-12-21T09:50:28.000Z</time>
      </trkpt>
      <trkpt lat="44.02896" lon="5.98647">
        <ele>477</ele>
        <time>2021-12-21T09:50:29.000Z</time>
      </trkpt>
      <trkpt lat="44.02896" lon="5.98647">
        <ele>477</ele>
        <time>2021-12-21T09:50:30.000Z</time>
      </trkpt>
      <trkpt lat="44.02896" lon="5.98647">
        <ele>477</ele>
        <time>2021-12-21T09:50:31.000Z</time>
      </trkpt>
      <trkpt lat="44.02896" lon="5.98647">
        <ele>477</ele>
        <time>2021-12-21T09:50:32.000Z</time>
      </trkpt>
      <trkpt lat="44.02896" lon="5.98647">
        <ele>477</ele>
        <time>2021-12-21T09:50:33.000Z</time>
      </trkpt>
      <trkpt lat="44.02896" lon="5.98647">
        <ele>477</ele>
        <time>2021-12-21T09:50:34.000Z</time>
      </trkpt>
      <trkpt lat="44.02896" lon="5.98648">
        <ele>477</ele>
        <time>2021-12-21T09:50:35.000Z</time>
      </trkpt>
      <trkpt lat="44.02896" lon="5.9865">
        <ele>477</ele>
        <time>2021-12-21T09:50:36.000Z</time>
      </trkpt>
      <trkpt lat="44.02896" lon="5.98651">
        <ele>477</ele>
        <time>2021-12-21T09:50:37.000Z</time>
      </trkpt>
      <trkpt lat="44.02896" lon="5.98653">
        <ele>477</ele>
        <time>2021-12-21T09:50:38.000Z</time>
      </trkpt>
      <trkpt lat="44.02897" lon="5.98655">
        <ele>477</ele>
        <time>2021-12-21T09:50:39.000Z</time>
      </trkpt>
      <trkpt lat="44.02897" lon="5.98656">
        <ele>477</ele>
        <time>2021-12-21T09:50:40.000Z</time>
      </trkpt>
      <trkpt lat="44.02897" lon="5.98658">
        <ele>477</ele>
        <time>2021-12-21T09:50:41.000Z</time>
      </trkpt>
      <trkpt lat="44.02897" lon="5.98659">
        <ele>477</ele>
        <time>2021-12-21T09:50:42.000Z</time>
      </trkpt>
      <trkpt lat="44.02897" lon="5.98661">
        <ele>477</ele>
        <time>2021-12-21T09:50:43.000Z</time>
      </trkpt>
      <trkpt lat="44.02897" lon="5.98662">
        <ele>477</ele>
        <time>2021-12-21T09:50:44.000Z</time>
      </trkpt>
      <trkpt lat="44.02897" lon="5.98664">
        <ele>477</ele>
        <time>2021-12-21T09:50:45.000Z</time>
      </trkpt>
      <trkpt lat="44.02898" lon="5.98665">
        <ele>477</ele>
        <time>2021-12-21T09:50:46.000Z</time>
      </trkpt>
      <trkpt lat="44.02898" lon="5.98667">
        <ele>477</ele>
        <time>2021-12-21T09:50:47.000Z</time>
      </trkpt>
      <trkpt lat="44.02898" lon="5.98668">
        <ele>478</ele>
        <time>2021-12-21T09:50:48.000Z</time>
      </trkpt>
      <trkpt lat="44.02898" lon="5.9867">
        <ele>478</ele>
        <time>2021-12-21T09:50:49.000Z</time>
      </trkpt>
      <trkpt lat="44.02898" lon="5.98671">
        <ele>478</ele>
        <time>2021-12-21T09:50:50.000Z</time>
      </trkpt>
      <trkpt lat="44.02898" lon="5.98673">
        <ele>478</ele>
        <time>2021-12-21T09:50:51.000Z</time>
      </trkpt>
      <trkpt lat="44.02898" lon="5.98675">
        <ele>478</ele>
        <time>2021-12-21T09:50:52.000Z</time>
      </trkpt>
      <trkpt lat="44.02899" lon="5.98677">
        <ele>478</ele>
        <time>2021-12-21T09:50:53.000Z</time>
      </trkpt>
      <trkpt lat="44.02899" lon="5.98678">
        <ele>478</ele>
        <time>2021-12-21T09:50:54.000Z</time>
      </trkpt>
      <trkpt lat="44.02899" lon="5.9868">
        <ele>478</ele>
        <time>2021-12-21T09:50:55.000Z</time>
      </trkpt>
      <trkpt lat="44.02899" lon="5.98681">
        <ele>478</ele>
        <time>2021-12-21T09:50:56.000Z</time>
      </trkpt>
      <trkpt lat="44.02899" lon="5.98682">
        <ele>478</ele>
        <time>2021-12-21T09:50:57.000Z</time>
      </trkpt>
      <trkpt lat="44.02899" lon="5.98684">
        <ele>479</ele>
        <time>2021-12-21T09:50:58.000Z</time>
      </trkpt>
      <trkpt lat="44.02899" lon="5.98685">
        <ele>478</ele>
        <time>2021-12-21T09:50:59.000Z</time>
      </trkpt>
      <trkpt lat="44.029" lon="5.98687">
        <ele>478</ele>
        <time>2021-12-21T09:51:00.000Z</time>
      </trkpt>
      <trkpt lat="44.029" lon="5.98689">
        <ele>479</ele>
        <time>2021-12-21T09:51:01.000Z</time>
      </trkpt>
      <trkpt lat="44.029" lon="5.9869">
        <ele>479</ele>
        <time>2021-12-21T09:51:02.000Z</time>
      </trkpt>
      <trkpt lat="44.029" lon="5.98692">
        <ele>479</ele>
        <time>2021-12-21T09:51:03.000Z</time>
      </trkpt>
      <trkpt lat="44.02901" lon="5.98693">
        <ele>479</ele>
        <time>2021-12-21T09:51:04.000Z</time>
      </trkpt>
      <trkpt lat="44.02901" lon="5.98695">
        <ele>479</ele>
        <time>2021-12-21T09:51:05.000Z</time>
      </trkpt>
      <trkpt lat="44.02901" lon="5.98696">
        <ele>479</ele>
        <time>2021-12-21T09:51:06.000Z</time>
      </trkpt>
      <trkpt lat="44.02901" lon="5.98698">
        <ele>479</ele>
        <time>2021-12-21T09:51:07.000Z</time>
      </trkpt>
      <trkpt lat="44.02901" lon="5.987">
        <ele>479</ele>
        <time>2021-12-21T09:51:08.000Z</time>
      </trkpt>
      <trkpt lat="44.02901" lon="5.98702">
        <ele>479</ele>
        <time>2021-12-21T09:51:09.000Z</time>
      </trkpt>
      <trkpt lat="44.02901" lon="5.98703">
        <ele>479</ele>
        <time>2021-12-21T09:51:10.000Z</time>
      </trkpt>
      <trkpt lat="44.02901" lon="5.98705">
        <ele>479</ele>
        <time>2021-12-21T09:51:11.000Z</time>
      </trkpt>
      <trkpt lat="44.02901" lon="5.98707">
        <ele>479</ele>
        <time>2021-12-21T09:51:12.000Z</time>
      </trkpt>
      <trkpt lat="44.02901" lon="5.98708">
        <ele>479</ele>
        <time>2021-12-21T09:51:13.000Z</time>
      </trkpt>
      <trkpt lat="44.02901" lon="5.9871">
        <ele>479</ele>
        <time>2021-12-21T09:51:14.000Z</time>
      </trkpt>
      <trkpt lat="44.02901" lon="5.98711">
        <ele>480</ele>
        <time>2021-12-21T09:51:15.000Z</time>
      </trkpt>
      <trkpt lat="44.02901" lon="5.98713">
        <ele>480</ele>
        <time>2021-12-21T09:51:16.000Z</time>
      </trkpt>
      <trkpt lat="44.02901" lon="5.98715">
        <ele>480</ele>
        <time>2021-12-21T09:51:17.000Z</time>
      </trkpt>
      <trkpt lat="44.02901" lon="5.98716">
        <ele>480</ele>
        <time>2021-12-21T09:51:18.000Z</time>
      </trkpt>
      <trkpt lat="44.02901" lon="5.98718">
        <ele>480</ele>
        <time>2021-12-21T09:51:19.000Z</time>
      </trkpt>
      <trkpt lat="44.02901" lon="5.98719">
        <ele>480</ele>
        <time>2021-12-21T09:51:20.000Z</time>
      </trkpt>
      <trkpt lat="44.02901" lon="5.98721">
        <ele>480</ele>
        <time>2021-12-21T09:51:21.000Z</time>
      </trkpt>
      <trkpt lat="44.02901" lon="5.98723">
        <ele>480</ele>
        <time>2021-12-21T09:51:22.000Z</time>
      </trkpt>
      <trkpt lat="44.029" lon="5.98724">
        <ele>480</ele>
        <time>2021-12-21T09:51:23.000Z</time>
      </trkpt>
      <trkpt lat="44.029" lon="5.98726">
        <ele>480</ele>
        <time>2021-12-21T09:51:24.000Z</time>
      </trkpt>
      <trkpt lat="44.029" lon="5.98728">
        <ele>480</ele>
        <time>2021-12-21T09:51:25.000Z</time>
      </trkpt>
      <trkpt lat="44.029" lon="5.98729">
        <ele>480</ele>
        <time>2021-12-21T09:51:26.000Z</time>
      </trkpt>
      <trkpt lat="44.029" lon="5.98731">
        <ele>480</ele>
        <time>2021-12-21T09:51:27.000Z</time>
      </trkpt>
      <trkpt lat="44.02899" lon="5.98732">
        <ele>481</ele>
        <time>2021-12-21T09:51:28.000Z</time>
      </trkpt>
      <trkpt lat="44.02899" lon="5.98733">
        <ele>481</ele>
        <time>2021-12-21T09:51:29.000Z</time>
      </trkpt>
      <trkpt lat="44.02899" lon="5.98735">
        <ele>481</ele>
        <time>2021-12-21T09:51:30.000Z</time>
      </trkpt>
      <trkpt lat="44.02899" lon="5.98737">
        <ele>481</ele>
        <time>2021-12-21T09:51:31.000Z</time>
      </trkpt>
      <trkpt lat="44.02899" lon="5.98738">
        <ele>481</ele>
        <time>2021-12-21T09:51:32.000Z</time>
      </trkpt>
      <trkpt lat="44.02899" lon="5.9874">
        <ele>481</ele>
        <time>2021-12-21T09:51:33.000Z</time>
      </trkpt>
      <trkpt lat="44.02899" lon="5.98741">
        <ele>481</ele>
        <time>2021-12-21T09:51:34.000Z</time>
      </trkpt>
      <trkpt lat="44.02899" lon="5.98742">
        <ele>481</ele>
        <time>2021-12-21T09:51:35.000Z</time>
      </trkpt>
      <trkpt lat="44.02899" lon="5.98744">
        <ele>481</ele>
        <time>2021-12-21T09:51:36.000Z</time>
      </trkpt>
      <trkpt lat="44.02898" lon="5.98745">
        <ele>481</ele>
        <time>2021-12-21T09:51:37.000Z</time>
      </trkpt>
      <trkpt lat="44.02898" lon="5.98747">
        <ele>481</ele>
        <time>2021-12-21T09:51:38.000Z</time>
      </trkpt>
      <trkpt lat="44.02898" lon="5.98748">
        <ele>481</ele>
        <time>2021-12-21T09:51:39.000Z</time>
      </trkpt>
      <trkpt lat="44.02898" lon="5.9875">
        <ele>481</ele>
        <time>2021-12-21T09:51:40.000Z</time>
      </trkpt>
      <trkpt lat="44.02898" lon="5.98751">
        <ele>482</ele>
        <time>2021-12-21T09:51:41.000Z</time>
      </trkpt>
      <trkpt lat="44.02898" lon="5.98753">
        <ele>482</ele>
        <time>2021-12-21T09:51:42.000Z</time>
      </trkpt>
      <trkpt lat="44.02898" lon="5.98754">
        <ele>482</ele>
        <time>2021-12-21T09:51:43.000Z</time>
      </trkpt>
      <trkpt lat="44.02899" lon="5.98756">
        <ele>482</ele>
        <time>2021-12-21T09:51:44.000Z</time>
      </trkpt>
      <trkpt lat="44.02899" lon="5.98757">
        <ele>482</ele>
        <time>2021-12-21T09:51:45.000Z</time>
      </trkpt>
      <trkpt lat="44.02899" lon="5.98759">
        <ele>482</ele>
        <time>2021-12-21T09:51:46.000Z</time>
      </trkpt>
      <trkpt lat="44.02899" lon="5.9876">
        <ele>482</ele>
        <time>2021-12-21T09:51:47.000Z</time>
      </trkpt>
      <trkpt lat="44.02898" lon="5.98761">
        <ele>482</ele>
        <time>2021-12-21T09:51:48.000Z</time>
      </trkpt>
      <trkpt lat="44.02898" lon="5.98763">
        <ele>482</ele>
        <time>2021-12-21T09:51:49.000Z</time>
      </trkpt>
      <trkpt lat="44.02898" lon="5.98764">
        <ele>482</ele>
        <time>2021-12-21T09:51:50.000Z</time>
      </trkpt>
      <trkpt lat="44.02897" lon="5.98766">
        <ele>483</ele>
        <time>2021-12-21T09:51:51.000Z</time>
      </trkpt>
      <trkpt lat="44.02897" lon="5.98767">
        <ele>483</ele>
        <time>2021-12-21T09:51:52.000Z</time>
      </trkpt>
      <trkpt lat="44.02897" lon="5.98769">
        <ele>483</ele>
        <time>2021-12-21T09:51:53.000Z</time>
      </trkpt>
      <trkpt lat="44.02896" lon="5.98771">
        <ele>483</ele>
        <time>2021-12-21T09:51:54.000Z</time>
      </trkpt>
      <trkpt lat="44.02896" lon="5.98772">
        <ele>483</ele>
        <time>2021-12-21T09:51:55.000Z</time>
      </trkpt>
      <trkpt lat="44.02896" lon="5.98774">
        <ele>483</ele>
        <time>2021-12-21T09:51:56.000Z</time>
      </trkpt>
      <trkpt lat="44.02896" lon="5.98775">
        <ele>483</ele>
        <time>2021-12-21T09:51:57.000Z</time>
      </trkpt>
      <trkpt lat="44.02896" lon="5.98776">
        <ele>483</ele>
        <time>2021-12-21T09:51:58.000Z</time>
      </trkpt>
      <trkpt lat="44.02895" lon="5.98778">
        <ele>483</ele>
        <time>2021-12-21T09:51:59.000Z</time>
      </trkpt>
      <trkpt lat="44.02895" lon="5.98779">
        <ele>483</ele>
        <time>2021-12-21T09:52:00.000Z</time>
      </trkpt>
      <trkpt lat="44.02895" lon="5.98781">
        <ele>483</ele>
        <time>2021-12-21T09:52:01.000Z</time>
      </trkpt>
      <trkpt lat="44.02895" lon="5.98783">
        <ele>483</ele>
        <time>2021-12-21T09:52:02.000Z</time>
      </trkpt>
      <trkpt lat="44.02895" lon="5.98784">
        <ele>483</ele>
        <time>2021-12-21T09:52:03.000Z</time>
      </trkpt>
      <trkpt lat="44.02894" lon="5.98786">
        <ele>483</ele>
        <time>2021-12-21T09:52:04.000Z</time>
      </trkpt>
      <trkpt lat="44.02894" lon="5.98787">
        <ele>483</ele>
        <time>2021-12-21T09:52:05.000Z</time>
      </trkpt>
      <trkpt lat="44.02894" lon="5.98789">
        <ele>483</ele>
        <time>2021-12-21T09:52:06.000Z</time>
      </trkpt>
      <trkpt lat="44.02894" lon="5.9879">
        <ele>483</ele>
        <time>2021-12-21T09:52:07.000Z</time>
      </trkpt>
      <trkpt lat="44.02894" lon="5.98792">
        <ele>483</ele>
        <time>2021-12-21T09:52:08.000Z</time>
      </trkpt>
      <trkpt lat="44.02894" lon="5.98793">
        <ele>483</ele>
        <time>2021-12-21T09:52:09.000Z</time>
      </trkpt>
      <trkpt lat="44.02894" lon="5.98795">
        <ele>483</ele>
        <time>2021-12-21T09:52:10.000Z</time>
      </trkpt>
      <trkpt lat="44.02893" lon="5.98796">
        <ele>483</ele>
        <time>2021-12-21T09:52:11.000Z</time>
      </trkpt>
      <trkpt lat="44.02894" lon="5.98797">
        <ele>483</ele>
        <time>2021-12-21T09:52:12.000Z</time>
      </trkpt>
      <trkpt lat="44.02894" lon="5.98797">
        <ele>483</ele>
        <time>2021-12-21T09:52:13.000Z</time>
      </trkpt>
      <trkpt lat="44.02894" lon="5.98797">
        <ele>483</ele>
        <time>2021-12-21T09:52:14.000Z</time>
      </trkpt>
      <trkpt lat="44.02894" lon="5.98797">
        <ele>483</ele>
        <time>2021-12-21T09:52:15.000Z</time>
      </trkpt>
      <trkpt lat="44.02894" lon="5.98797">
        <ele>483</ele>
        <time>2021-12-21T09:52:16.000Z</time>
      </trkpt>
      <trkpt lat="44.02894" lon="5.98797">
        <ele>483</ele>
        <time>2021-12-21T09:52:17.000Z</time>
      </trkpt>
      <trkpt lat="44.02894" lon="5.98797">
        <ele>483</ele>
        <time>2021-12-21T09:52:18.000Z</time>
      </trkpt>
      <trkpt lat="44.02894" lon="5.98797">
        <ele>483</ele>
        <time>2021-12-21T09:52:19.000Z</time>
      </trkpt>
      <trkpt lat="44.02894" lon="5.98797">
        <ele>483</ele>
        <time>2021-12-21T09:52:20.000Z</time>
      </trkpt>
      <trkpt lat="44.02894" lon="5.98797">
        <ele>483</ele>
        <time>2021-12-21T09:52:21.000Z</time>
      </trkpt>
      <trkpt lat="44.02894" lon="5.98797">
        <ele>483</ele>
        <time>2021-12-21T09:52:22.000Z</time>
      </trkpt>
      <trkpt lat="44.02894" lon="5.98797">
        <ele>483</ele>
        <time>2021-12-21T09:52:23.000Z</time>
      </trkpt>
      <trkpt lat="44.02894" lon="5.98797">
        <ele>483</ele>
        <time>2021-12-21T09:52:24.000Z</time>
      </trkpt>
      <trkpt lat="44.02894" lon="5.98797">
        <ele>483</ele>
        <time>2021-12-21T09:52:25.000Z</time>
      </trkpt>
      <trkpt lat="44.02894" lon="5.98797">
        <ele>483</ele>
        <time>2021-12-21T09:52:26.000Z</time>
      </trkpt>
      <trkpt lat="44.02894" lon="5.98797">
        <ele>483</ele>
        <time>2021-12-21T09:52:27.000Z</time>
      </trkpt>
      <trkpt lat="44.02894" lon="5.98797">
        <ele>483</ele>
        <time>2021-12-21T09:52:28.000Z</time>
      </trkpt>
      <trkpt lat="44.02894" lon="5.98797">
        <ele>483</ele>
        <time>2021-12-21T09:52:29.000Z</time>
      </trkpt>
      <trkpt lat="44.02894" lon="5.98797">
        <ele>483</ele>
        <time>2021-12-21T09:52:30.000Z</time>
      </trkpt>
      <trkpt lat="44.02894" lon="5.98798">
        <ele>483</ele>
        <time>2021-12-21T09:52:31.000Z</time>
      </trkpt>
      <trkpt lat="44.02894" lon="5.98799">
        <ele>483</ele>
        <time>2021-12-21T09:52:32.000Z</time>
      </trkpt>
      <trkpt lat="44.02894" lon="5.98801">
        <ele>483</ele>
        <time>2021-12-21T09:52:33.000Z</time>
      </trkpt>
      <trkpt lat="44.02894" lon="5.98802">
        <ele>484</ele>
        <time>2021-12-21T09:52:34.000Z</time>
      </trkpt>
      <trkpt lat="44.02894" lon="5.98804">
        <ele>484</ele>
        <time>2021-12-21T09:52:35.000Z</time>
      </trkpt>
      <trkpt lat="44.02894" lon="5.98805">
        <ele>484</ele>
        <time>2021-12-21T09:52:36.000Z</time>
      </trkpt>
      <trkpt lat="44.02894" lon="5.98807">
        <ele>484</ele>
        <time>2021-12-21T09:52:37.000Z</time>
      </trkpt>
      <trkpt lat="44.02894" lon="5.98808">
        <ele>484</ele>
        <time>2021-12-21T09:52:38.000Z</time>
      </trkpt>
      <trkpt lat="44.02894" lon="5.9881">
        <ele>484</ele>
        <time>2021-12-21T09:52:39.000Z</time>
      </trkpt>
      <trkpt lat="44.02893" lon="5.98811">
        <ele>484</ele>
        <time>2021-12-21T09:52:40.000Z</time>
      </trkpt>
      <trkpt lat="44.02893" lon="5.98813">
        <ele>484</ele>
        <time>2021-12-21T09:52:41.000Z</time>
      </trkpt>
      <trkpt lat="44.02893" lon="5.98814">
        <ele>484</ele>
        <time>2021-12-21T09:52:42.000Z</time>
      </trkpt>
      <trkpt lat="44.02893" lon="5.98816">
        <ele>484</ele>
        <time>2021-12-21T09:52:43.000Z</time>
      </trkpt>
      <trkpt lat="44.02893" lon="5.98817">
        <ele>484</ele>
        <time>2021-12-21T09:52:44.000Z</time>
      </trkpt>
      <trkpt lat="44.02893" lon="5.98819">
        <ele>484</ele>
        <time>2021-12-21T09:52:45.000Z</time>
      </trkpt>
      <trkpt lat="44.02893" lon="5.9882">
        <ele>485</ele>
        <time>2021-12-21T09:52:46.000Z</time>
      </trkpt>
      <trkpt lat="44.02893" lon="5.98821">
        <ele>485</ele>
        <time>2021-12-21T09:52:47.000Z</time>
      </trkpt>
      <trkpt lat="44.02893" lon="5.98823">
        <ele>485</ele>
        <time>2021-12-21T09:52:48.000Z</time>
      </trkpt>
      <trkpt lat="44.02894" lon="5.98825">
        <ele>485</ele>
        <time>2021-12-21T09:52:49.000Z</time>
      </trkpt>
      <trkpt lat="44.02893" lon="5.98826">
        <ele>485</ele>
        <time>2021-12-21T09:52:50.000Z</time>
      </trkpt>
      <trkpt lat="44.02893" lon="5.98828">
        <ele>485</ele>
        <time>2021-12-21T09:52:51.000Z</time>
      </trkpt>
      <trkpt lat="44.02893" lon="5.98829">
        <ele>485</ele>
        <time>2021-12-21T09:52:52.000Z</time>
      </trkpt>
      <trkpt lat="44.02893" lon="5.98831">
        <ele>485</ele>
        <time>2021-12-21T09:52:53.000Z</time>
      </trkpt>
      <trkpt lat="44.02893" lon="5.98832">
        <ele>485</ele>
        <time>2021-12-21T09:52:54.000Z</time>
      </trkpt>
      <trkpt lat="44.02893" lon="5.98833">
        <ele>485</ele>
        <time>2021-12-21T09:52:55.000Z</time>
      </trkpt>
      <trkpt lat="44.02893" lon="5.98835">
        <ele>485</ele>
        <time>2021-12-21T09:52:56.000Z</time>
      </trkpt>
      <trkpt lat="44.02893" lon="5.98836">
        <ele>485</ele>
        <time>2021-12-21T09:52:57.000Z</time>
      </trkpt>
      <trkpt lat="44.02892" lon="5.98838">
        <ele>485</ele>
        <time>2021-12-21T09:52:58.000Z</time>
      </trkpt>
      <trkpt lat="44.02892" lon="5.98839">
        <ele>485</ele>
        <time>2021-12-21T09:52:59.000Z</time>
      </trkpt>
      <trkpt lat="44.02891" lon="5.9884">
        <ele>485</ele>
        <time>2021-12-21T09:53:00.000Z</time>
      </trkpt>
      <trkpt lat="44.02891" lon="5.98841">
        <ele>485</ele>
        <time>2021-12-21T09:53:01.000Z</time>
      </trkpt>
      <trkpt lat="44.02891" lon="5.98842">
        <ele>485</ele>
        <time>2021-12-21T09:53:02.000Z</time>
      </trkpt>
      <trkpt lat="44.02891" lon="5.98844">
        <ele>485</ele>
        <time>2021-12-21T09:53:03.000Z</time>
      </trkpt>
      <trkpt lat="44.02891" lon="5.98845">
        <ele>485</ele>
        <time>2021-12-21T09:53:04.000Z</time>
      </trkpt>
      <trkpt lat="44.02891" lon="5.98847">
        <ele>485</ele>
        <time>2021-12-21T09:53:05.000Z</time>
      </trkpt>
      <trkpt lat="44.02891" lon="5.98848">
        <ele>485</ele>
        <time>2021-12-21T09:53:06.000Z</time>
      </trkpt>
      <trkpt lat="44.02891" lon="5.9885">
        <ele>485</ele>
        <time>2021-12-21T09:53:07.000Z</time>
      </trkpt>
      <trkpt lat="44.02891" lon="5.98851">
        <ele>486</ele>
        <time>2021-12-21T09:53:08.000Z</time>
      </trkpt>
      <trkpt lat="44.02891" lon="5.98853">
        <ele>486</ele>
        <time>2021-12-21T09:53:09.000Z</time>
      </trkpt>
      <trkpt lat="44.02891" lon="5.98854">
        <ele>486</ele>
        <time>2021-12-21T09:53:10.000Z</time>
      </trkpt>
      <trkpt lat="44.02891" lon="5.98856">
        <ele>486</ele>
        <time>2021-12-21T09:53:11.000Z</time>
      </trkpt>
      <trkpt lat="44.02892" lon="5.98857">
        <ele>486</ele>
        <time>2021-12-21T09:53:12.000Z</time>
      </trkpt>
      <trkpt lat="44.02892" lon="5.98858">
        <ele>486</ele>
        <time>2021-12-21T09:53:13.000Z</time>
      </trkpt>
      <trkpt lat="44.02892" lon="5.9886">
        <ele>486</ele>
        <time>2021-12-21T09:53:14.000Z</time>
      </trkpt>
      <trkpt lat="44.02892" lon="5.98862">
        <ele>486</ele>
        <time>2021-12-21T09:53:15.000Z</time>
      </trkpt>
      <trkpt lat="44.02892" lon="5.98863">
        <ele>486</ele>
        <time>2021-12-21T09:53:16.000Z</time>
      </trkpt>
      <trkpt lat="44.02892" lon="5.98864">
        <ele>486</ele>
        <time>2021-12-21T09:53:17.000Z</time>
      </trkpt>
      <trkpt lat="44.02892" lon="5.98866">
        <ele>486</ele>
        <time>2021-12-21T09:53:18.000Z</time>
      </trkpt>
      <trkpt lat="44.02892" lon="5.98867">
        <ele>486</ele>
        <time>2021-12-21T09:53:19.000Z</time>
      </trkpt>
      <trkpt lat="44.02892" lon="5.98869">
        <ele>486</ele>
        <time>2021-12-21T09:53:20.000Z</time>
      </trkpt>
      <trkpt lat="44.02892" lon="5.9887">
        <ele>486</ele>
        <time>2021-12-21T09:53:21.000Z</time>
      </trkpt>
      <trkpt lat="44.02892" lon="5.98872">
        <ele>486</ele>
        <time>2021-12-21T09:53:22.000Z</time>
      </trkpt>
      <trkpt lat="44.02892" lon="5.98873">
        <ele>486</ele>
        <time>2021-12-21T09:53:23.000Z</time>
      </trkpt>
      <trkpt lat="44.02892" lon="5.98875">
        <ele>486</ele>
        <time>2021-12-21T09:53:24.000Z</time>
      </trkpt>
      <trkpt lat="44.02892" lon="5.98877">
        <ele>486</ele>
        <time>2021-12-21T09:53:25.000Z</time>
      </trkpt>
      <trkpt lat="44.02892" lon="5.98878">
        <ele>486</ele>
        <time>2021-12-21T09:53:26.000Z</time>
      </trkpt>
      <trkpt lat="44.02891" lon="5.9888">
        <ele>487</ele>
        <time>2021-12-21T09:53:27.000Z</time>
      </trkpt>
      <trkpt lat="44.02891" lon="5.98882">
        <ele>487</ele>
        <time>2021-12-21T09:53:28.000Z</time>
      </trkpt>
      <trkpt lat="44.02891" lon="5.98883">
        <ele>487</ele>
        <time>2021-12-21T09:53:29.000Z</time>
      </trkpt>
      <trkpt lat="44.02891" lon="5.98884">
        <ele>487</ele>
        <time>2021-12-21T09:53:30.000Z</time>
      </trkpt>
      <trkpt lat="44.02891" lon="5.98886">
        <ele>487</ele>
        <time>2021-12-21T09:53:31.000Z</time>
      </trkpt>
      <trkpt lat="44.02891" lon="5.98888">
        <ele>487</ele>
        <time>2021-12-21T09:53:32.000Z</time>
      </trkpt>
      <trkpt lat="44.02891" lon="5.98889">
        <ele>488</ele>
        <time>2021-12-21T09:53:33.000Z</time>
      </trkpt>
      <trkpt lat="44.02891" lon="5.98891">
        <ele>488</ele>
        <time>2021-12-21T09:53:34.000Z</time>
      </trkpt>
      <trkpt lat="44.02891" lon="5.98892">
        <ele>488</ele>
        <time>2021-12-21T09:53:35.000Z</time>
      </trkpt>
      <trkpt lat="44.0289" lon="5.98894">
        <ele>488</ele>
        <time>2021-12-21T09:53:36.000Z</time>
      </trkpt>
      <trkpt lat="44.0289" lon="5.98895">
        <ele>488</ele>
        <time>2021-12-21T09:53:37.000Z</time>
      </trkpt>
      <trkpt lat="44.0289" lon="5.98896">
        <ele>489</ele>
        <time>2021-12-21T09:53:38.000Z</time>
      </trkpt>
      <trkpt lat="44.0289" lon="5.98898">
        <ele>489</ele>
        <time>2021-12-21T09:53:39.000Z</time>
      </trkpt>
      <trkpt lat="44.0289" lon="5.98899">
        <ele>489</ele>
        <time>2021-12-21T09:53:40.000Z</time>
      </trkpt>
      <trkpt lat="44.0289" lon="5.98901">
        <ele>489</ele>
        <time>2021-12-21T09:53:41.000Z</time>
      </trkpt>
      <trkpt lat="44.02889" lon="5.98902">
        <ele>489</ele>
        <time>2021-12-21T09:53:42.000Z</time>
      </trkpt>
      <trkpt lat="44.02889" lon="5.98903">
        <ele>489</ele>
        <time>2021-12-21T09:53:43.000Z</time>
      </trkpt>
      <trkpt lat="44.02889" lon="5.98905">
        <ele>490</ele>
        <time>2021-12-21T09:53:44.000Z</time>
      </trkpt>
      <trkpt lat="44.02889" lon="5.98906">
        <ele>490</ele>
        <time>2021-12-21T09:53:45.000Z</time>
      </trkpt>
      <trkpt lat="44.02889" lon="5.98907">
        <ele>490</ele>
        <time>2021-12-21T09:53:46.000Z</time>
      </trkpt>
      <trkpt lat="44.02888" lon="5.98908">
        <ele>490</ele>
        <time>2021-12-21T09:53:47.000Z</time>
      </trkpt>
      <trkpt lat="44.02888" lon="5.9891">
        <ele>490</ele>
        <time>2021-12-21T09:53:48.000Z</time>
      </trkpt>
      <trkpt lat="44.02888" lon="5.98911">
        <ele>490</ele>
        <time>2021-12-21T09:53:49.000Z</time>
      </trkpt>
      <trkpt lat="44.02887" lon="5.98912">
        <ele>491</ele>
        <time>2021-12-21T09:53:50.000Z</time>
      </trkpt>
      <trkpt lat="44.02887" lon="5.98914">
        <ele>491</ele>
        <time>2021-12-21T09:53:51.000Z</time>
      </trkpt>
      <trkpt lat="44.02886" lon="5.98915">
        <ele>491</ele>
        <time>2021-12-21T09:53:52.000Z</time>
      </trkpt>
      <trkpt lat="44.02886" lon="5.98916">
        <ele>491</ele>
        <time>2021-12-21T09:53:53.000Z</time>
      </trkpt>
      <trkpt lat="44.02885" lon="5.98917">
        <ele>491</ele>
        <time>2021-12-21T09:53:54.000Z</time>
      </trkpt>
      <trkpt lat="44.02885" lon="5.98918">
        <ele>491</ele>
        <time>2021-12-21T09:53:55.000Z</time>
      </trkpt>
      <trkpt lat="44.02885" lon="5.98919">
        <ele>491</ele>
        <time>2021-12-21T09:53:56.000Z</time>
      </trkpt>
      <trkpt lat="44.02884" lon="5.98921">
        <ele>491</ele>
        <time>2021-12-21T09:53:57.000Z</time>
      </trkpt>
      <trkpt lat="44.02884" lon="5.98923">
        <ele>491</ele>
        <time>2021-12-21T09:53:58.000Z</time>
      </trkpt>
      <trkpt lat="44.02884" lon="5.98924">
        <ele>491</ele>
        <time>2021-12-21T09:53:59.000Z</time>
      </trkpt>
      <trkpt lat="44.02884" lon="5.98925">
        <ele>491</ele>
        <time>2021-12-21T09:54:00.000Z</time>
      </trkpt>
      <trkpt lat="44.02884" lon="5.98927">
        <ele>491</ele>
        <time>2021-12-21T09:54:01.000Z</time>
      </trkpt>
      <trkpt lat="44.02884" lon="5.98928">
        <ele>491</ele>
        <time>2021-12-21T09:54:02.000Z</time>
      </trkpt>
      <trkpt lat="44.02884" lon="5.9893">
        <ele>491</ele>
        <time>2021-12-21T09:54:03.000Z</time>
      </trkpt>
      <trkpt lat="44.02884" lon="5.98931">
        <ele>491</ele>
        <time>2021-12-21T09:54:04.000Z</time>
      </trkpt>
      <trkpt lat="44.02885" lon="5.98933">
        <ele>492</ele>
        <time>2021-12-21T09:54:05.000Z</time>
      </trkpt>
      <trkpt lat="44.02885" lon="5.98934">
        <ele>492</ele>
        <time>2021-12-21T09:54:06.000Z</time>
      </trkpt>
      <trkpt lat="44.02885" lon="5.98936">
        <ele>492</ele>
        <time>2021-12-21T09:54:07.000Z</time>
      </trkpt>
      <trkpt lat="44.02885" lon="5.98937">
        <ele>492</ele>
        <time>2021-12-21T09:54:08.000Z</time>
      </trkpt>
      <trkpt lat="44.02885" lon="5.98939">
        <ele>492</ele>
        <time>2021-12-21T09:54:09.000Z</time>
      </trkpt>
      <trkpt lat="44.02886" lon="5.9894">
        <ele>492</ele>
        <time>2021-12-21T09:54:10.000Z</time>
      </trkpt>
      <trkpt lat="44.02886" lon="5.98941">
        <ele>492</ele>
        <time>2021-12-21T09:54:11.000Z</time>
      </trkpt>
      <trkpt lat="44.02886" lon="5.98943">
        <ele>492</ele>
        <time>2021-12-21T09:54:12.000Z</time>
      </trkpt>
      <trkpt lat="44.02886" lon="5.98944">
        <ele>492</ele>
        <time>2021-12-21T09:54:13.000Z</time>
      </trkpt>
      <trkpt lat="44.02887" lon="5.98946">
        <ele>492</ele>
        <time>2021-12-21T09:54:14.000Z</time>
      </trkpt>
      <trkpt lat="44.02887" lon="5.98947">
        <ele>492</ele>
        <time>2021-12-21T09:54:15.000Z</time>
      </trkpt>
      <trkpt lat="44.02887" lon="5.98948">
        <ele>492</ele>
        <time>2021-12-21T09:54:16.000Z</time>
      </trkpt>
      <trkpt lat="44.02887" lon="5.98949">
        <ele>493</ele>
        <time>2021-12-21T09:54:17.000Z</time>
      </trkpt>
      <trkpt lat="44.02888" lon="5.9895">
        <ele>493</ele>
        <time>2021-12-21T09:54:18.000Z</time>
      </trkpt>
      <trkpt lat="44.02888" lon="5.98952">
        <ele>493</ele>
        <time>2021-12-21T09:54:19.000Z</time>
      </trkpt>
      <trkpt lat="44.02888" lon="5.98954">
        <ele>493</ele>
        <time>2021-12-21T09:54:20.000Z</time>
      </trkpt>
      <trkpt lat="44.02889" lon="5.98955">
        <ele>493</ele>
        <time>2021-12-21T09:54:21.000Z</time>
      </trkpt>
      <trkpt lat="44.02889" lon="5.98956">
        <ele>493</ele>
        <time>2021-12-21T09:54:22.000Z</time>
      </trkpt>
      <trkpt lat="44.02889" lon="5.98958">
        <ele>493</ele>
        <time>2021-12-21T09:54:23.000Z</time>
      </trkpt>
      <trkpt lat="44.02889" lon="5.98959">
        <ele>493</ele>
        <time>2021-12-21T09:54:24.000Z</time>
      </trkpt>
      <trkpt lat="44.0289" lon="5.98961">
        <ele>493</ele>
        <time>2021-12-21T09:54:25.000Z</time>
      </trkpt>
      <trkpt lat="44.0289" lon="5.98962">
        <ele>493</ele>
        <time>2021-12-21T09:54:26.000Z</time>
      </trkpt>
      <trkpt lat="44.0289" lon="5.98964">
        <ele>493</ele>
        <time>2021-12-21T09:54:27.000Z</time>
      </trkpt>
      <trkpt lat="44.0289" lon="5.98965">
        <ele>493</ele>
        <time>2021-12-21T09:54:28.000Z</time>
      </trkpt>
      <trkpt lat="44.0289" lon="5.98966">
        <ele>493</ele>
        <time>2021-12-21T09:54:29.000Z</time>
      </trkpt>
      <trkpt lat="44.0289" lon="5.98968">
        <ele>493</ele>
        <time>2021-12-21T09:54:30.000Z</time>
      </trkpt>
      <trkpt lat="44.02891" lon="5.98969">
        <ele>493</ele>
        <time>2021-12-21T09:54:31.000Z</time>
      </trkpt>
      <trkpt lat="44.02891" lon="5.9897">
        <ele>493</ele>
        <time>2021-12-21T09:54:32.000Z</time>
      </trkpt>
      <trkpt lat="44.02891" lon="5.98972">
        <ele>493</ele>
        <time>2021-12-21T09:54:33.000Z</time>
      </trkpt>
      <trkpt lat="44.02891" lon="5.98973">
        <ele>493</ele>
        <time>2021-12-21T09:54:34.000Z</time>
      </trkpt>
      <trkpt lat="44.02891" lon="5.98975">
        <ele>493</ele>
        <time>2021-12-21T09:54:35.000Z</time>
      </trkpt>
      <trkpt lat="44.02891" lon="5.98976">
        <ele>494</ele>
        <time>2021-12-21T09:54:36.000Z</time>
      </trkpt>
      <trkpt lat="44.02891" lon="5.98977">
        <ele>494</ele>
        <time>2021-12-21T09:54:37.000Z</time>
      </trkpt>
      <trkpt lat="44.02892" lon="5.98979">
        <ele>494</ele>
        <time>2021-12-21T09:54:38.000Z</time>
      </trkpt>
      <trkpt lat="44.02892" lon="5.9898">
        <ele>494</ele>
        <time>2021-12-21T09:54:39.000Z</time>
      </trkpt>
      <trkpt lat="44.02892" lon="5.98981">
        <ele>494</ele>
        <time>2021-12-21T09:54:40.000Z</time>
      </trkpt>
      <trkpt lat="44.02892" lon="5.98983">
        <ele>494</ele>
        <time>2021-12-21T09:54:41.000Z</time>
      </trkpt>
      <trkpt lat="44.02892" lon="5.98984">
        <ele>494</ele>
        <time>2021-12-21T09:54:42.000Z</time>
      </trkpt>
      <trkpt lat="44.02891" lon="5.98986">
        <ele>494</ele>
        <time>2021-12-21T09:54:43.000Z</time>
      </trkpt>
      <trkpt lat="44.02891" lon="5.98987">
        <ele>494</ele>
        <time>2021-12-21T09:54:44.000Z</time>
      </trkpt>
      <trkpt lat="44.0289" lon="5.98988">
        <ele>495</ele>
        <time>2021-12-21T09:54:45.000Z</time>
      </trkpt>
      <trkpt lat="44.0289" lon="5.98989">
        <ele>495</ele>
        <time>2021-12-21T09:54:46.000Z</time>
      </trkpt>
      <trkpt lat="44.0289" lon="5.9899">
        <ele>495</ele>
        <time>2021-12-21T09:54:47.000Z</time>
      </trkpt>
      <trkpt lat="44.0289" lon="5.98992">
        <ele>495</ele>
        <time>2021-12-21T09:54:48.000Z</time>
      </trkpt>
      <trkpt lat="44.0289" lon="5.98993">
        <ele>495</ele>
        <time>2021-12-21T09:54:49.000Z</time>
      </trkpt>
      <trkpt lat="44.0289" lon="5.98995">
        <ele>495</ele>
        <time>2021-12-21T09:54:50.000Z</time>
      </trkpt>
      <trkpt lat="44.0289" lon="5.98996">
        <ele>495</ele>
        <time>2021-12-21T09:54:51.000Z</time>
      </trkpt>
      <trkpt lat="44.0289" lon="5.98998">
        <ele>495</ele>
        <time>2021-12-21T09:54:52.000Z</time>
      </trkpt>
      <trkpt lat="44.0289" lon="5.98999">
        <ele>495</ele>
        <time>2021-12-21T09:54:53.000Z</time>
      </trkpt>
      <trkpt lat="44.0289" lon="5.99">
        <ele>496</ele>
        <time>2021-12-21T09:54:54.000Z</time>
      </trkpt>
      <trkpt lat="44.0289" lon="5.99">
        <ele>496</ele>
        <time>2021-12-21T09:54:55.000Z</time>
      </trkpt>
      <trkpt lat="44.0289" lon="5.99">
        <ele>496</ele>
        <time>2021-12-21T09:54:56.000Z</time>
      </trkpt>
      <trkpt lat="44.0289" lon="5.99">
        <ele>496</ele>
        <time>2021-12-21T09:54:57.000Z</time>
      </trkpt>
      <trkpt lat="44.0289" lon="5.99">
        <ele>496</ele>
        <time>2021-12-21T09:54:58.000Z</time>
      </trkpt>
      <trkpt lat="44.0289" lon="5.99">
        <ele>496</ele>
        <time>2021-12-21T09:54:59.000Z</time>
      </trkpt>
      <trkpt lat="44.0289" lon="5.99">
        <ele>496</ele>
        <time>2021-12-21T09:55:00.000Z</time>
      </trkpt>
      <trkpt lat="44.0289" lon="5.99">
        <ele>496</ele>
        <time>2021-12-21T09:55:01.000Z</time>
      </trkpt>
      <trkpt lat="44.0289" lon="5.99">
        <ele>496</ele>
        <time>2021-12-21T09:55:02.000Z</time>
      </trkpt>
      <trkpt lat="44.0289" lon="5.99">
        <ele>496</ele>
        <time>2021-12-21T09:55:03.000Z</time>
      </trkpt>
      <trkpt lat="44.0289" lon="5.99">
        <ele>496</ele>
        <time>2021-12-21T09:55:04.000Z</time>
      </trkpt>
      <trkpt lat="44.0289" lon="5.99">
        <ele>496</ele>
        <time>2021-12-21T09:55:05.000Z</time>
      </trkpt>
      <trkpt lat="44.0289" lon="5.99">
        <ele>496</ele>
        <time>2021-12-21T09:55:06.000Z</time>
      </trkpt>
      <trkpt lat="44.0289" lon="5.99">
        <ele>496</ele>
        <time>2021-12-21T09:55:07.000Z</time>
      </trkpt>
      <trkpt lat="44.02889" lon="5.99">
        <ele>496</ele>
        <time>2021-12-21T09:55:08.000Z</time>
      </trkpt>
      <trkpt lat="44.02889" lon="5.99">
        <ele>496</ele>
        <time>2021-12-21T09:55:09.000Z</time>
      </trkpt>
      <trkpt lat="44.02889" lon="5.99">
        <ele>496</ele>
        <time>2021-12-21T09:55:10.000Z</time>
      </trkpt>
      <trkpt lat="44.02889" lon="5.99">
        <ele>496</ele>
        <time>2021-12-21T09:55:11.000Z</time>
      </trkpt>
      <trkpt lat="44.02889" lon="5.99">
        <ele>496</ele>
        <time>2021-12-21T09:55:12.000Z</time>
      </trkpt>
      <trkpt lat="44.02889" lon="5.99">
        <ele>496</ele>
        <time>2021-12-21T09:55:13.000Z</time>
      </trkpt>
      <trkpt lat="44.02889" lon="5.99">
        <ele>496</ele>
        <time>2021-12-21T09:55:14.000Z</time>
      </trkpt>
      <trkpt lat="44.02889" lon="5.99">
        <ele>496</ele>
        <time>2021-12-21T09:55:15.000Z</time>
      </trkpt>
      <trkpt lat="44.02889" lon="5.99">
        <ele>496</ele>
        <time>2021-12-21T09:55:16.000Z</time>
      </trkpt>
      <trkpt lat="44.02889" lon="5.99">
        <ele>496</ele>
        <time>2021-12-21T09:55:17.000Z</time>
      </trkpt>
      <trkpt lat="44.02889" lon="5.99">
        <ele>496</ele>
        <time>2021-12-21T09:55:18.000Z</time>
      </trkpt>
      <trkpt lat="44.02889" lon="5.99">
        <ele>496</ele>
        <time>2021-12-21T09:55:19.000Z</time>
      </trkpt>
      <trkpt lat="44.02889" lon="5.99">
        <ele>496</ele>
        <time>2021-12-21T09:55:20.000Z</time>
      </trkpt>
      <trkpt lat="44.02889" lon="5.99">
        <ele>496</ele>
        <time>2021-12-21T09:55:21.000Z</time>
      </trkpt>
      <trkpt lat="44.02889" lon="5.99">
        <ele>496</ele>
        <time>2021-12-21T09:55:22.000Z</time>
      </trkpt>
      <trkpt lat="44.02889" lon="5.99">
        <ele>496</ele>
        <time>2021-12-21T09:55:23.000Z</time>
      </trkpt>
      <trkpt lat="44.02889" lon="5.99">
        <ele>496</ele>
        <time>2021-12-21T09:55:24.000Z</time>
      </trkpt>
      <trkpt lat="44.02889" lon="5.99">
        <ele>496</ele>
        <time>2021-12-21T09:55:25.000Z</time>
      </trkpt>
      <trkpt lat="44.02889" lon="5.99">
        <ele>496</ele>
        <time>2021-12-21T09:55:26.000Z</time>
      </trkpt>
      <trkpt lat="44.02889" lon="5.99">
        <ele>496</ele>
        <time>2021-12-21T09:55:27.000Z</time>
      </trkpt>
      <trkpt lat="44.02889" lon="5.99">
        <ele>496</ele>
        <time>2021-12-21T09:55:28.000Z</time>
      </trkpt>
      <trkpt lat="44.02889" lon="5.99001">
        <ele>496</ele>
        <time>2021-12-21T09:55:29.000Z</time>
      </trkpt>
      <trkpt lat="44.02889" lon="5.99001">
        <ele>496</ele>
        <time>2021-12-21T09:55:30.000Z</time>
      </trkpt>
      <trkpt lat="44.02889" lon="5.99001">
        <ele>496</ele>
        <time>2021-12-21T09:55:31.000Z</time>
      </trkpt>
      <trkpt lat="44.02889" lon="5.99001">
        <ele>496</ele>
        <time>2021-12-21T09:55:32.000Z</time>
      </trkpt>
      <trkpt lat="44.02889" lon="5.99001">
        <ele>496</ele>
        <time>2021-12-21T09:55:33.000Z</time>
      </trkpt>
      <trkpt lat="44.02889" lon="5.99001">
        <ele>496</ele>
        <time>2021-12-21T09:55:34.000Z</time>
      </trkpt>
      <trkpt lat="44.02889" lon="5.99">
        <ele>496</ele>
        <time>2021-12-21T09:55:35.000Z</time>
      </trkpt>
      <trkpt lat="44.02889" lon="5.99">
        <ele>496</ele>
        <time>2021-12-21T09:55:36.000Z</time>
      </trkpt>
      <trkpt lat="44.02889" lon="5.99001">
        <ele>496</ele>
        <time>2021-12-21T09:55:37.000Z</time>
      </trkpt>
      <trkpt lat="44.02889" lon="5.99001">
        <ele>496</ele>
        <time>2021-12-21T09:55:38.000Z</time>
      </trkpt>
      <trkpt lat="44.02889" lon="5.99001">
        <ele>496</ele>
        <time>2021-12-21T09:55:39.000Z</time>
      </trkpt>
      <trkpt lat="44.02889" lon="5.99001">
        <ele>496</ele>
        <time>2021-12-21T09:55:40.000Z</time>
      </trkpt>
      <trkpt lat="44.02889" lon="5.99001">
        <ele>496</ele>
        <time>2021-12-21T09:55:41.000Z</time>
      </trkpt>
      <trkpt lat="44.02889" lon="5.99001">
        <ele>496</ele>
        <time>2021-12-21T09:55:42.000Z</time>
      </trkpt>
      <trkpt lat="44.02889" lon="5.99001">
        <ele>496</ele>
        <time>2021-12-21T09:55:43.000Z</time>
      </trkpt>
      <trkpt lat="44.02889" lon="5.99001">
        <ele>496</ele>
        <time>2021-12-21T09:55:44.000Z</time>
      </trkpt>
      <trkpt lat="44.02889" lon="5.99001">
        <ele>496</ele>
        <time>2021-12-21T09:55:45.000Z</time>
      </trkpt>
      <trkpt lat="44.02889" lon="5.99001">
        <ele>496</ele>
        <time>2021-12-21T09:55:46.000Z</time>
      </trkpt>
      <trkpt lat="44.02889" lon="5.99002">
        <ele>496</ele>
        <time>2021-12-21T09:55:47.000Z</time>
      </trkpt>
      <trkpt lat="44.02889" lon="5.99003">
        <ele>496</ele>
        <time>2021-12-21T09:55:48.000Z</time>
      </trkpt>
      <trkpt lat="44.02889" lon="5.99004">
        <ele>496</ele>
        <time>2021-12-21T09:55:49.000Z</time>
      </trkpt>
      <trkpt lat="44.0289" lon="5.99006">
        <ele>496</ele>
        <time>2021-12-21T09:55:50.000Z</time>
      </trkpt>
      <trkpt lat="44.0289" lon="5.99007">
        <ele>496</ele>
        <time>2021-12-21T09:55:51.000Z</time>
      </trkpt>
      <trkpt lat="44.02891" lon="5.99009">
        <ele>496</ele>
        <time>2021-12-21T09:55:52.000Z</time>
      </trkpt>
      <trkpt lat="44.02891" lon="5.9901">
        <ele>496</ele>
        <time>2021-12-21T09:55:53.000Z</time>
      </trkpt>
      <trkpt lat="44.02891" lon="5.99012">
        <ele>497</ele>
        <time>2021-12-21T09:55:54.000Z</time>
      </trkpt>
      <trkpt lat="44.02892" lon="5.99014">
        <ele>497</ele>
        <time>2021-12-21T09:55:55.000Z</time>
      </trkpt>
      <trkpt lat="44.02892" lon="5.99015">
        <ele>497</ele>
        <time>2021-12-21T09:55:56.000Z</time>
      </trkpt>
      <trkpt lat="44.02892" lon="5.99017">
        <ele>497</ele>
        <time>2021-12-21T09:55:57.000Z</time>
      </trkpt>
      <trkpt lat="44.02892" lon="5.99018">
        <ele>497</ele>
        <time>2021-12-21T09:55:58.000Z</time>
      </trkpt>
      <trkpt lat="44.02892" lon="5.9902">
        <ele>497</ele>
        <time>2021-12-21T09:55:59.000Z</time>
      </trkpt>
      <trkpt lat="44.02892" lon="5.99021">
        <ele>497</ele>
        <time>2021-12-21T09:56:00.000Z</time>
      </trkpt>
      <trkpt lat="44.02892" lon="5.99023">
        <ele>497</ele>
        <time>2021-12-21T09:56:01.000Z</time>
      </trkpt>
      <trkpt lat="44.02892" lon="5.99024">
        <ele>497</ele>
        <time>2021-12-21T09:56:02.000Z</time>
      </trkpt>
      <trkpt lat="44.02893" lon="5.99026">
        <ele>497</ele>
        <time>2021-12-21T09:56:03.000Z</time>
      </trkpt>
      <trkpt lat="44.02893" lon="5.99027">
        <ele>497</ele>
        <time>2021-12-21T09:56:04.000Z</time>
      </trkpt>
      <trkpt lat="44.02893" lon="5.99028">
        <ele>497</ele>
        <time>2021-12-21T09:56:05.000Z</time>
      </trkpt>
      <trkpt lat="44.02894" lon="5.9903">
        <ele>497</ele>
        <time>2021-12-21T09:56:06.000Z</time>
      </trkpt>
      <trkpt lat="44.02894" lon="5.99032">
        <ele>498</ele>
        <time>2021-12-21T09:56:07.000Z</time>
      </trkpt>
      <trkpt lat="44.02894" lon="5.99033">
        <ele>498</ele>
        <time>2021-12-21T09:56:08.000Z</time>
      </trkpt>
      <trkpt lat="44.02894" lon="5.99035">
        <ele>498</ele>
        <time>2021-12-21T09:56:09.000Z</time>
      </trkpt>
      <trkpt lat="44.02895" lon="5.99036">
        <ele>498</ele>
        <time>2021-12-21T09:56:10.000Z</time>
      </trkpt>
      <trkpt lat="44.02895" lon="5.99038">
        <ele>498</ele>
        <time>2021-12-21T09:56:11.000Z</time>
      </trkpt>
      <trkpt lat="44.02895" lon="5.99039">
        <ele>498</ele>
        <time>2021-12-21T09:56:12.000Z</time>
      </trkpt>
      <trkpt lat="44.02896" lon="5.99041">
        <ele>498</ele>
        <time>2021-12-21T09:56:13.000Z</time>
      </trkpt>
      <trkpt lat="44.02896" lon="5.99042">
        <ele>498</ele>
        <time>2021-12-21T09:56:14.000Z</time>
      </trkpt>
      <trkpt lat="44.02896" lon="5.99043">
        <ele>498</ele>
        <time>2021-12-21T09:56:15.000Z</time>
      </trkpt>
      <trkpt lat="44.02897" lon="5.99045">
        <ele>498</ele>
        <time>2021-12-21T09:56:16.000Z</time>
      </trkpt>
      <trkpt lat="44.02897" lon="5.99046">
        <ele>498</ele>
        <time>2021-12-21T09:56:17.000Z</time>
      </trkpt>
      <trkpt lat="44.02898" lon="5.99048">
        <ele>498</ele>
        <time>2021-12-21T09:56:18.000Z</time>
      </trkpt>
      <trkpt lat="44.02898" lon="5.99049">
        <ele>498</ele>
        <time>2021-12-21T09:56:19.000Z</time>
      </trkpt>
      <trkpt lat="44.02898" lon="5.99051">
        <ele>498</ele>
        <time>2021-12-21T09:56:20.000Z</time>
      </trkpt>
      <trkpt lat="44.02899" lon="5.99052">
        <ele>498</ele>
        <time>2021-12-21T09:56:21.000Z</time>
      </trkpt>
      <trkpt lat="44.02899" lon="5.99054">
        <ele>498</ele>
        <time>2021-12-21T09:56:22.000Z</time>
      </trkpt>
      <trkpt lat="44.02899" lon="5.99055">
        <ele>498</ele>
        <time>2021-12-21T09:56:23.000Z</time>
      </trkpt>
      <trkpt lat="44.02899" lon="5.99057">
        <ele>498</ele>
        <time>2021-12-21T09:56:24.000Z</time>
      </trkpt>
      <trkpt lat="44.02899" lon="5.99059">
        <ele>498</ele>
        <time>2021-12-21T09:56:25.000Z</time>
      </trkpt>
      <trkpt lat="44.02899" lon="5.9906">
        <ele>498</ele>
        <time>2021-12-21T09:56:26.000Z</time>
      </trkpt>
      <trkpt lat="44.029" lon="5.99062">
        <ele>498</ele>
        <time>2021-12-21T09:56:27.000Z</time>
      </trkpt>
      <trkpt lat="44.029" lon="5.99063">
        <ele>498</ele>
        <time>2021-12-21T09:56:28.000Z</time>
      </trkpt>
      <trkpt lat="44.029" lon="5.99065">
        <ele>498</ele>
        <time>2021-12-21T09:56:29.000Z</time>
      </trkpt>
      <trkpt lat="44.02901" lon="5.99066">
        <ele>498</ele>
        <time>2021-12-21T09:56:30.000Z</time>
      </trkpt>
      <trkpt lat="44.02901" lon="5.99067">
        <ele>498</ele>
        <time>2021-12-21T09:56:31.000Z</time>
      </trkpt>
      <trkpt lat="44.02901" lon="5.99069">
        <ele>498</ele>
        <time>2021-12-21T09:56:32.000Z</time>
      </trkpt>
      <trkpt lat="44.02902" lon="5.9907">
        <ele>498</ele>
        <time>2021-12-21T09:56:33.000Z</time>
      </trkpt>
      <trkpt lat="44.02902" lon="5.99072">
        <ele>499</ele>
        <time>2021-12-21T09:56:34.000Z</time>
      </trkpt>
      <trkpt lat="44.02903" lon="5.99073">
        <ele>499</ele>
        <time>2021-12-21T09:56:35.000Z</time>
      </trkpt>
      <trkpt lat="44.02903" lon="5.99074">
        <ele>499</ele>
        <time>2021-12-21T09:56:36.000Z</time>
      </trkpt>
      <trkpt lat="44.02903" lon="5.99076">
        <ele>499</ele>
        <time>2021-12-21T09:56:37.000Z</time>
      </trkpt>
      <trkpt lat="44.02903" lon="5.99078">
        <ele>499</ele>
        <time>2021-12-21T09:56:38.000Z</time>
      </trkpt>
      <trkpt lat="44.02904" lon="5.99079">
        <ele>499</ele>
        <time>2021-12-21T09:56:39.000Z</time>
      </trkpt>
      <trkpt lat="44.02904" lon="5.9908">
        <ele>499</ele>
        <time>2021-12-21T09:56:40.000Z</time>
      </trkpt>
      <trkpt lat="44.02904" lon="5.99082">
        <ele>499</ele>
        <time>2021-12-21T09:56:41.000Z</time>
      </trkpt>
      <trkpt lat="44.02905" lon="5.99084">
        <ele>499</ele>
        <time>2021-12-21T09:56:42.000Z</time>
      </trkpt>
      <trkpt lat="44.02905" lon="5.99085">
        <ele>499</ele>
        <time>2021-12-21T09:56:43.000Z</time>
      </trkpt>
      <trkpt lat="44.02906" lon="5.99086">
        <ele>499</ele>
        <time>2021-12-21T09:56:44.000Z</time>
      </trkpt>
      <trkpt lat="44.02906" lon="5.99088">
        <ele>499</ele>
        <time>2021-12-21T09:56:45.000Z</time>
      </trkpt>
      <trkpt lat="44.02906" lon="5.99089">
        <ele>500</ele>
        <time>2021-12-21T09:56:46.000Z</time>
      </trkpt>
      <trkpt lat="44.02906" lon="5.99091">
        <ele>500</ele>
        <time>2021-12-21T09:56:47.000Z</time>
      </trkpt>
      <trkpt lat="44.02907" lon="5.99092">
        <ele>500</ele>
        <time>2021-12-21T09:56:48.000Z</time>
      </trkpt>
      <trkpt lat="44.02907" lon="5.99094">
        <ele>500</ele>
        <time>2021-12-21T09:56:49.000Z</time>
      </trkpt>
      <trkpt lat="44.02907" lon="5.99095">
        <ele>500</ele>
        <time>2021-12-21T09:56:50.000Z</time>
      </trkpt>
      <trkpt lat="44.02907" lon="5.99097">
        <ele>500</ele>
        <time>2021-12-21T09:56:51.000Z</time>
      </trkpt>
      <trkpt lat="44.02907" lon="5.99098">
        <ele>500</ele>
        <time>2021-12-21T09:56:52.000Z</time>
      </trkpt>
      <trkpt lat="44.02907" lon="5.99099">
        <ele>500</ele>
        <time>2021-12-21T09:56:53.000Z</time>
      </trkpt>
      <trkpt lat="44.02908" lon="5.99101">
        <ele>500</ele>
        <time>2021-12-21T09:56:54.000Z</time>
      </trkpt>
      <trkpt lat="44.02908" lon="5.99103">
        <ele>500</ele>
        <time>2021-12-21T09:56:55.000Z</time>
      </trkpt>
      <trkpt lat="44.02908" lon="5.99104">
        <ele>500</ele>
        <time>2021-12-21T09:56:56.000Z</time>
      </trkpt>
      <trkpt lat="44.02908" lon="5.99105">
        <ele>501</ele>
        <time>2021-12-21T09:56:57.000Z</time>
      </trkpt>
      <trkpt lat="44.02908" lon="5.99107">
        <ele>501</ele>
        <time>2021-12-21T09:56:58.000Z</time>
      </trkpt>
      <trkpt lat="44.02909" lon="5.99109">
        <ele>501</ele>
        <time>2021-12-21T09:56:59.000Z</time>
      </trkpt>
      <trkpt lat="44.02909" lon="5.9911">
        <ele>501</ele>
        <time>2021-12-21T09:57:00.000Z</time>
      </trkpt>
      <trkpt lat="44.02909" lon="5.99112">
        <ele>501</ele>
        <time>2021-12-21T09:57:01.000Z</time>
      </trkpt>
      <trkpt lat="44.02909" lon="5.99113">
        <ele>501</ele>
        <time>2021-12-21T09:57:02.000Z</time>
      </trkpt>
      <trkpt lat="44.0291" lon="5.99115">
        <ele>501</ele>
        <time>2021-12-21T09:57:03.000Z</time>
      </trkpt>
      <trkpt lat="44.0291" lon="5.99116">
        <ele>502</ele>
        <time>2021-12-21T09:57:04.000Z</time>
      </trkpt>
      <trkpt lat="44.0291" lon="5.99118">
        <ele>502</ele>
        <time>2021-12-21T09:57:05.000Z</time>
      </trkpt>
      <trkpt lat="44.02911" lon="5.99119">
        <ele>502</ele>
        <time>2021-12-21T09:57:06.000Z</time>
      </trkpt>
      <trkpt lat="44.02911" lon="5.99121">
        <ele>502</ele>
        <time>2021-12-21T09:57:07.000Z</time>
      </trkpt>
      <trkpt lat="44.02911" lon="5.99122">
        <ele>502</ele>
        <time>2021-12-21T09:57:08.000Z</time>
      </trkpt>
      <trkpt lat="44.02912" lon="5.99124">
        <ele>502</ele>
        <time>2021-12-21T09:57:09.000Z</time>
      </trkpt>
      <trkpt lat="44.02912" lon="5.99125">
        <ele>502</ele>
        <time>2021-12-21T09:57:10.000Z</time>
      </trkpt>
      <trkpt lat="44.02912" lon="5.99126">
        <ele>502</ele>
        <time>2021-12-21T09:57:11.000Z</time>
      </trkpt>
      <trkpt lat="44.02912" lon="5.99127">
        <ele>502</ele>
        <time>2021-12-21T09:57:12.000Z</time>
      </trkpt>
      <trkpt lat="44.02912" lon="5.99129">
        <ele>502</ele>
        <time>2021-12-21T09:57:13.000Z</time>
      </trkpt>
      <trkpt lat="44.02912" lon="5.9913">
        <ele>502</ele>
        <time>2021-12-21T09:57:14.000Z</time>
      </trkpt>
      <trkpt lat="44.02913" lon="5.99132">
        <ele>502</ele>
        <time>2021-12-21T09:57:15.000Z</time>
      </trkpt>
      <trkpt lat="44.02913" lon="5.99133">
        <ele>503</ele>
        <time>2021-12-21T09:57:16.000Z</time>
      </trkpt>
      <trkpt lat="44.02913" lon="5.99134">
        <ele>503</ele>
        <time>2021-12-21T09:57:17.000Z</time>
      </trkpt>
      <trkpt lat="44.02913" lon="5.99136">
        <ele>503</ele>
        <time>2021-12-21T09:57:18.000Z</time>
      </trkpt>
      <trkpt lat="44.02913" lon="5.99137">
        <ele>503</ele>
        <time>2021-12-21T09:57:19.000Z</time>
      </trkpt>
      <trkpt lat="44.02913" lon="5.99138">
        <ele>503</ele>
        <time>2021-12-21T09:57:20.000Z</time>
      </trkpt>
      <trkpt lat="44.02914" lon="5.99139">
        <ele>503</ele>
        <time>2021-12-21T09:57:21.000Z</time>
      </trkpt>
      <trkpt lat="44.02914" lon="5.99141">
        <ele>503</ele>
        <time>2021-12-21T09:57:22.000Z</time>
      </trkpt>
      <trkpt lat="44.02914" lon="5.99142">
        <ele>503</ele>
        <time>2021-12-21T09:57:23.000Z</time>
      </trkpt>
      <trkpt lat="44.02914" lon="5.99143">
        <ele>503</ele>
        <time>2021-12-21T09:57:24.000Z</time>
      </trkpt>
      <trkpt lat="44.02914" lon="5.99145">
        <ele>503</ele>
        <time>2021-12-21T09:57:25.000Z</time>
      </trkpt>
      <trkpt lat="44.02914" lon="5.99146">
        <ele>504</ele>
        <time>2021-12-21T09:57:26.000Z</time>
      </trkpt>
      <trkpt lat="44.02915" lon="5.99148">
        <ele>504</ele>
        <time>2021-12-21T09:57:27.000Z</time>
      </trkpt>
      <trkpt lat="44.02915" lon="5.99149">
        <ele>504</ele>
        <time>2021-12-21T09:57:28.000Z</time>
      </trkpt>
      <trkpt lat="44.02915" lon="5.99151">
        <ele>504</ele>
        <time>2021-12-21T09:57:29.000Z</time>
      </trkpt>
      <trkpt lat="44.02915" lon="5.99152">
        <ele>504</ele>
        <time>2021-12-21T09:57:30.000Z</time>
      </trkpt>
      <trkpt lat="44.02916" lon="5.99153">
        <ele>504</ele>
        <time>2021-12-21T09:57:31.000Z</time>
      </trkpt>
      <trkpt lat="44.02916" lon="5.99155">
        <ele>504</ele>
        <time>2021-12-21T09:57:32.000Z</time>
      </trkpt>
      <trkpt lat="44.02916" lon="5.99156">
        <ele>504</ele>
        <time>2021-12-21T09:57:33.000Z</time>
      </trkpt>
      <trkpt lat="44.02916" lon="5.99158">
        <ele>504</ele>
        <time>2021-12-21T09:57:34.000Z</time>
      </trkpt>
      <trkpt lat="44.02916" lon="5.99159">
        <ele>504</ele>
        <time>2021-12-21T09:57:35.000Z</time>
      </trkpt>
      <trkpt lat="44.02917" lon="5.99161">
        <ele>504</ele>
        <time>2021-12-21T09:57:36.000Z</time>
      </trkpt>
      <trkpt lat="44.02917" lon="5.99162">
        <ele>504</ele>
        <time>2021-12-21T09:57:37.000Z</time>
      </trkpt>
      <trkpt lat="44.02917" lon="5.99164">
        <ele>505</ele>
        <time>2021-12-21T09:57:38.000Z</time>
      </trkpt>
      <trkpt lat="44.02918" lon="5.99166">
        <ele>505</ele>
        <time>2021-12-21T09:57:39.000Z</time>
      </trkpt>
      <trkpt lat="44.02918" lon="5.99167">
        <ele>505</ele>
        <time>2021-12-21T09:57:40.000Z</time>
      </trkpt>
      <trkpt lat="44.02918" lon="5.99169">
        <ele>505</ele>
        <time>2021-12-21T09:57:41.000Z</time>
      </trkpt>
      <trkpt lat="44.02918" lon="5.9917">
        <ele>505</ele>
        <time>2021-12-21T09:57:42.000Z</time>
      </trkpt>
      <trkpt lat="44.02918" lon="5.99172">
        <ele>505</ele>
        <time>2021-12-21T09:57:43.000Z</time>
      </trkpt>
      <trkpt lat="44.02919" lon="5.99173">
        <ele>505</ele>
        <time>2021-12-21T09:57:44.000Z</time>
      </trkpt>
      <trkpt lat="44.02919" lon="5.99174">
        <ele>505</ele>
        <time>2021-12-21T09:57:45.000Z</time>
      </trkpt>
      <trkpt lat="44.02919" lon="5.99176">
        <ele>506</ele>
        <time>2021-12-21T09:57:46.000Z</time>
      </trkpt>
      <trkpt lat="44.0292" lon="5.99177">
        <ele>506</ele>
        <time>2021-12-21T09:57:47.000Z</time>
      </trkpt>
      <trkpt lat="44.0292" lon="5.99178">
        <ele>506</ele>
        <time>2021-12-21T09:57:48.000Z</time>
      </trkpt>
      <trkpt lat="44.0292" lon="5.9918">
        <ele>506</ele>
        <time>2021-12-21T09:57:49.000Z</time>
      </trkpt>
      <trkpt lat="44.0292" lon="5.99181">
        <ele>506</ele>
        <time>2021-12-21T09:57:50.000Z</time>
      </trkpt>
      <trkpt lat="44.02921" lon="5.99182">
        <ele>506</ele>
        <time>2021-12-21T09:57:51.000Z</time>
      </trkpt>
      <trkpt lat="44.02921" lon="5.99184">
        <ele>506</ele>
        <time>2021-12-21T09:57:52.000Z</time>
      </trkpt>
      <trkpt lat="44.02922" lon="5.99185">
        <ele>506</ele>
        <time>2021-12-21T09:57:53.000Z</time>
      </trkpt>
      <trkpt lat="44.02922" lon="5.99187">
        <ele>507</ele>
        <time>2021-12-21T09:57:54.000Z</time>
      </trkpt>
      <trkpt lat="44.02923" lon="5.99188">
        <ele>507</ele>
        <time>2021-12-21T09:57:55.000Z</time>
      </trkpt>
      <trkpt lat="44.02923" lon="5.99189">
        <ele>507</ele>
        <time>2021-12-21T09:57:56.000Z</time>
      </trkpt>
      <trkpt lat="44.02923" lon="5.9919">
        <ele>507</ele>
        <time>2021-12-21T09:57:57.000Z</time>
      </trkpt>
      <trkpt lat="44.02924" lon="5.99191">
        <ele>507</ele>
        <time>2021-12-21T09:57:58.000Z</time>
      </trkpt>
      <trkpt lat="44.02924" lon="5.99193">
        <ele>507</ele>
        <time>2021-12-21T09:57:59.000Z</time>
      </trkpt>
      <trkpt lat="44.02925" lon="5.99195">
        <ele>507</ele>
        <time>2021-12-21T09:58:00.000Z</time>
      </trkpt>
      <trkpt lat="44.02925" lon="5.99196">
        <ele>507</ele>
        <time>2021-12-21T09:58:01.000Z</time>
      </trkpt>
      <trkpt lat="44.02925" lon="5.99197">
        <ele>507</ele>
        <time>2021-12-21T09:58:02.000Z</time>
      </trkpt>
      <trkpt lat="44.02926" lon="5.99199">
        <ele>507</ele>
        <time>2021-12-21T09:58:03.000Z</time>
      </trkpt>
      <trkpt lat="44.02926" lon="5.992">
        <ele>508</ele>
        <time>2021-12-21T09:58:04.000Z</time>
      </trkpt>
      <trkpt lat="44.02926" lon="5.99201">
        <ele>508</ele>
        <time>2021-12-21T09:58:05.000Z</time>
      </trkpt>
      <trkpt lat="44.02927" lon="5.99203">
        <ele>508</ele>
        <time>2021-12-21T09:58:06.000Z</time>
      </trkpt>
      <trkpt lat="44.02927" lon="5.99204">
        <ele>508</ele>
        <time>2021-12-21T09:58:07.000Z</time>
      </trkpt>
      <trkpt lat="44.02927" lon="5.99206">
        <ele>509</ele>
        <time>2021-12-21T09:58:08.000Z</time>
      </trkpt>
      <trkpt lat="44.02927" lon="5.99207">
        <ele>509</ele>
        <time>2021-12-21T09:58:09.000Z</time>
      </trkpt>
      <trkpt lat="44.02927" lon="5.99209">
        <ele>509</ele>
        <time>2021-12-21T09:58:10.000Z</time>
      </trkpt>
      <trkpt lat="44.02927" lon="5.9921">
        <ele>509</ele>
        <time>2021-12-21T09:58:11.000Z</time>
      </trkpt>
      <trkpt lat="44.02927" lon="5.9921">
        <ele>509</ele>
        <time>2021-12-21T09:58:12.000Z</time>
      </trkpt>
      <trkpt lat="44.02927" lon="5.9921">
        <ele>509</ele>
        <time>2021-12-21T09:58:13.000Z</time>
      </trkpt>
      <trkpt lat="44.02927" lon="5.9921">
        <ele>509</ele>
        <time>2021-12-21T09:58:14.000Z</time>
      </trkpt>
      <trkpt lat="44.02927" lon="5.9921">
        <ele>509</ele>
        <time>2021-12-21T09:58:15.000Z</time>
      </trkpt>
      <trkpt lat="44.02927" lon="5.9921">
        <ele>509</ele>
        <time>2021-12-21T09:58:16.000Z</time>
      </trkpt>
      <trkpt lat="44.02927" lon="5.9921">
        <ele>509</ele>
        <time>2021-12-21T09:58:17.000Z</time>
      </trkpt>
      <trkpt lat="44.02927" lon="5.9921">
        <ele>509</ele>
        <time>2021-12-21T09:58:18.000Z</time>
      </trkpt>
      <trkpt lat="44.02927" lon="5.9921">
        <ele>509</ele>
        <time>2021-12-21T09:58:19.000Z</time>
      </trkpt>
      <trkpt lat="44.02927" lon="5.9921">
        <ele>509</ele>
        <time>2021-12-21T09:58:20.000Z</time>
      </trkpt>
      <trkpt lat="44.02927" lon="5.9921">
        <ele>509</ele>
        <time>2021-12-21T09:58:21.000Z</time>
      </trkpt>
      <trkpt lat="44.02927" lon="5.9921">
        <ele>509</ele>
        <time>2021-12-21T09:58:22.000Z</time>
      </trkpt>
      <trkpt lat="44.02927" lon="5.9921">
        <ele>509</ele>
        <time>2021-12-21T09:58:23.000Z</time>
      </trkpt>
      <trkpt lat="44.02927" lon="5.9921">
        <ele>509</ele>
        <time>2021-12-21T09:58:24.000Z</time>
      </trkpt>
      <trkpt lat="44.02927" lon="5.9921">
        <ele>509</ele>
        <time>2021-12-21T09:58:25.000Z</time>
      </trkpt>
      <trkpt lat="44.02926" lon="5.9921">
        <ele>509</ele>
        <time>2021-12-21T09:58:26.000Z</time>
      </trkpt>
      <trkpt lat="44.02926" lon="5.9921">
        <ele>509</ele>
        <time>2021-12-21T09:58:27.000Z</time>
      </trkpt>
      <trkpt lat="44.02926" lon="5.9921">
        <ele>509</ele>
        <time>2021-12-21T09:58:28.000Z</time>
      </trkpt>
      <trkpt lat="44.02926" lon="5.9921">
        <ele>509</ele>
        <time>2021-12-21T09:58:29.000Z</time>
      </trkpt>
      <trkpt lat="44.02926" lon="5.9921">
        <ele>509</ele>
        <time>2021-12-21T09:58:30.000Z</time>
      </trkpt>
      <trkpt lat="44.02926" lon="5.9921">
        <ele>509</ele>
        <time>2021-12-21T09:58:31.000Z</time>
      </trkpt>
      <trkpt lat="44.02926" lon="5.9921">
        <ele>509</ele>
        <time>2021-12-21T09:58:32.000Z</time>
      </trkpt>
      <trkpt lat="44.02926" lon="5.99211">
        <ele>509</ele>
        <time>2021-12-21T09:58:33.000Z</time>
      </trkpt>
      <trkpt lat="44.02926" lon="5.99212">
        <ele>509</ele>
        <time>2021-12-21T09:58:34.000Z</time>
      </trkpt>
      <trkpt lat="44.02926" lon="5.99214">
        <ele>509</ele>
        <time>2021-12-21T09:58:35.000Z</time>
      </trkpt>
      <trkpt lat="44.02926" lon="5.99215">
        <ele>509</ele>
        <time>2021-12-21T09:58:36.000Z</time>
      </trkpt>
      <trkpt lat="44.02926" lon="5.99217">
        <ele>509</ele>
        <time>2021-12-21T09:58:37.000Z</time>
      </trkpt>
      <trkpt lat="44.02926" lon="5.99219">
        <ele>509</ele>
        <time>2021-12-21T09:58:38.000Z</time>
      </trkpt>
      <trkpt lat="44.02927" lon="5.9922">
        <ele>509</ele>
        <time>2021-12-21T09:58:39.000Z</time>
      </trkpt>
      <trkpt lat="44.02927" lon="5.99221">
        <ele>509</ele>
        <time>2021-12-21T09:58:40.000Z</time>
      </trkpt>
      <trkpt lat="44.02927" lon="5.99223">
        <ele>509</ele>
        <time>2021-12-21T09:58:41.000Z</time>
      </trkpt>
      <trkpt lat="44.02927" lon="5.99224">
        <ele>509</ele>
        <time>2021-12-21T09:58:42.000Z</time>
      </trkpt>
      <trkpt lat="44.02927" lon="5.99225">
        <ele>509</ele>
        <time>2021-12-21T09:58:43.000Z</time>
      </trkpt>
      <trkpt lat="44.02927" lon="5.99227">
        <ele>509</ele>
        <time>2021-12-21T09:58:44.000Z</time>
      </trkpt>
      <trkpt lat="44.02927" lon="5.99228">
        <ele>510</ele>
        <time>2021-12-21T09:58:45.000Z</time>
      </trkpt>
      <trkpt lat="44.02927" lon="5.9923">
        <ele>510</ele>
        <time>2021-12-21T09:58:46.000Z</time>
      </trkpt>
      <trkpt lat="44.02927" lon="5.99231">
        <ele>510</ele>
        <time>2021-12-21T09:58:47.000Z</time>
      </trkpt>
      <trkpt lat="44.02927" lon="5.99232">
        <ele>510</ele>
        <time>2021-12-21T09:58:48.000Z</time>
      </trkpt>
      <trkpt lat="44.02927" lon="5.99234">
        <ele>510</ele>
        <time>2021-12-21T09:58:49.000Z</time>
      </trkpt>
      <trkpt lat="44.02927" lon="5.99236">
        <ele>510</ele>
        <time>2021-12-21T09:58:50.000Z</time>
      </trkpt>
      <trkpt lat="44.02927" lon="5.99237">
        <ele>510</ele>
        <time>2021-12-21T09:58:51.000Z</time>
      </trkpt>
      <trkpt lat="44.02927" lon="5.99238">
        <ele>510</ele>
        <time>2021-12-21T09:58:52.000Z</time>
      </trkpt>
      <trkpt lat="44.02928" lon="5.9924">
        <ele>510</ele>
        <time>2021-12-21T09:58:53.000Z</time>
      </trkpt>
      <trkpt lat="44.02928" lon="5.99241">
        <ele>510</ele>
        <time>2021-12-21T09:58:54.000Z</time>
      </trkpt>
      <trkpt lat="44.02928" lon="5.99243">
        <ele>510</ele>
        <time>2021-12-21T09:58:55.000Z</time>
      </trkpt>
      <trkpt lat="44.02928" lon="5.99244">
        <ele>510</ele>
        <time>2021-12-21T09:58:56.000Z</time>
      </trkpt>
      <trkpt lat="44.02929" lon="5.99246">
        <ele>510</ele>
        <time>2021-12-21T09:58:57.000Z</time>
      </trkpt>
      <trkpt lat="44.02929" lon="5.99247">
        <ele>510</ele>
        <time>2021-12-21T09:58:58.000Z</time>
      </trkpt>
      <trkpt lat="44.02929" lon="5.99248">
        <ele>510</ele>
        <time>2021-12-21T09:58:59.000Z</time>
      </trkpt>
      <trkpt lat="44.0293" lon="5.9925">
        <ele>511</ele>
        <time>2021-12-21T09:59:00.000Z</time>
      </trkpt>
      <trkpt lat="44.0293" lon="5.99251">
        <ele>511</ele>
        <time>2021-12-21T09:59:01.000Z</time>
      </trkpt>
      <trkpt lat="44.02931" lon="5.99253">
        <ele>511</ele>
        <time>2021-12-21T09:59:02.000Z</time>
      </trkpt>
      <trkpt lat="44.02931" lon="5.99254">
        <ele>511</ele>
        <time>2021-12-21T09:59:03.000Z</time>
      </trkpt>
      <trkpt lat="44.02931" lon="5.99256">
        <ele>511</ele>
        <time>2021-12-21T09:59:04.000Z</time>
      </trkpt>
      <trkpt lat="44.02931" lon="5.99257">
        <ele>511</ele>
        <time>2021-12-21T09:59:05.000Z</time>
      </trkpt>
      <trkpt lat="44.02931" lon="5.99259">
        <ele>511</ele>
        <time>2021-12-21T09:59:06.000Z</time>
      </trkpt>
      <trkpt lat="44.02932" lon="5.9926">
        <ele>511</ele>
        <time>2021-12-21T09:59:07.000Z</time>
      </trkpt>
      <trkpt lat="44.02932" lon="5.99262">
        <ele>512</ele>
        <time>2021-12-21T09:59:08.000Z</time>
      </trkpt>
      <trkpt lat="44.02932" lon="5.99263">
        <ele>512</ele>
        <time>2021-12-21T09:59:09.000Z</time>
      </trkpt>
      <trkpt lat="44.02932" lon="5.99265">
        <ele>512</ele>
        <time>2021-12-21T09:59:10.000Z</time>
      </trkpt>
      <trkpt lat="44.02932" lon="5.99266">
        <ele>512</ele>
        <time>2021-12-21T09:59:11.000Z</time>
      </trkpt>
      <trkpt lat="44.02932" lon="5.99268">
        <ele>512</ele>
        <time>2021-12-21T09:59:12.000Z</time>
      </trkpt>
      <trkpt lat="44.02932" lon="5.99269">
        <ele>512</ele>
        <time>2021-12-21T09:59:13.000Z</time>
      </trkpt>
      <trkpt lat="44.02932" lon="5.99271">
        <ele>512</ele>
        <time>2021-12-21T09:59:14.000Z</time>
      </trkpt>
      <trkpt lat="44.02932" lon="5.99272">
        <ele>512</ele>
        <time>2021-12-21T09:59:15.000Z</time>
      </trkpt>
      <trkpt lat="44.02931" lon="5.99274">
        <ele>513</ele>
        <time>2021-12-21T09:59:16.000Z</time>
      </trkpt>
      <trkpt lat="44.02931" lon="5.99275">
        <ele>513</ele>
        <time>2021-12-21T09:59:17.000Z</time>
      </trkpt>
      <trkpt lat="44.02931" lon="5.99277">
        <ele>513</ele>
        <time>2021-12-21T09:59:18.000Z</time>
      </trkpt>
      <trkpt lat="44.02931" lon="5.99278">
        <ele>513</ele>
        <time>2021-12-21T09:59:19.000Z</time>
      </trkpt>
      <trkpt lat="44.02931" lon="5.9928">
        <ele>513</ele>
        <time>2021-12-21T09:59:20.000Z</time>
      </trkpt>
      <trkpt lat="44.0293" lon="5.99281">
        <ele>513</ele>
        <time>2021-12-21T09:59:21.000Z</time>
      </trkpt>
      <trkpt lat="44.0293" lon="5.99283">
        <ele>513</ele>
        <time>2021-12-21T09:59:22.000Z</time>
      </trkpt>
      <trkpt lat="44.0293" lon="5.99284">
        <ele>513</ele>
        <time>2021-12-21T09:59:23.000Z</time>
      </trkpt>
      <trkpt lat="44.02929" lon="5.99286">
        <ele>513</ele>
        <time>2021-12-21T09:59:24.000Z</time>
      </trkpt>
      <trkpt lat="44.02929" lon="5.99287">
        <ele>513</ele>
        <time>2021-12-21T09:59:25.000Z</time>
      </trkpt>
      <trkpt lat="44.02929" lon="5.99288">
        <ele>514</ele>
        <time>2021-12-21T09:59:26.000Z</time>
      </trkpt>
      <trkpt lat="44.02928" lon="5.9929">
        <ele>514</ele>
        <time>2021-12-21T09:59:27.000Z</time>
      </trkpt>
      <trkpt lat="44.02928" lon="5.99291">
        <ele>514</ele>
        <time>2021-12-21T09:59:28.000Z</time>
      </trkpt>
      <trkpt lat="44.02927" lon="5.99293">
        <ele>514</ele>
        <time>2021-12-21T09:59:29.000Z</time>
      </trkpt>
      <trkpt lat="44.02927" lon="5.99294">
        <ele>514</ele>
        <time>2021-12-21T09:59:30.000Z</time>
      </trkpt>
      <trkpt lat="44.02927" lon="5.99295">
        <ele>514</ele>
        <time>2021-12-21T09:59:31.000Z</time>
      </trkpt>
      <trkpt lat="44.02927" lon="5.99297">
        <ele>515</ele>
        <time>2021-12-21T09:59:32.000Z</time>
      </trkpt>
      <trkpt lat="44.02926" lon="5.99298">
        <ele>515</ele>
        <time>2021-12-21T09:59:33.000Z</time>
      </trkpt>
      <trkpt lat="44.02926" lon="5.993">
        <ele>515</ele>
        <time>2021-12-21T09:59:34.000Z</time>
      </trkpt>
      <trkpt lat="44.02926" lon="5.99301">
        <ele>515</ele>
        <time>2021-12-21T09:59:35.000Z</time>
      </trkpt>
      <trkpt lat="44.02925" lon="5.99302">
        <ele>515</ele>
        <time>2021-12-21T09:59:36.000Z</time>
      </trkpt>
      <trkpt lat="44.02925" lon="5.99304">
        <ele>515</ele>
        <time>2021-12-21T09:59:37.000Z</time>
      </trkpt>
      <trkpt lat="44.02925" lon="5.99305">
        <ele>515</ele>
        <time>2021-12-21T09:59:38.000Z</time>
      </trkpt>
      <trkpt lat="44.02924" lon="5.99307">
        <ele>516</ele>
        <time>2021-12-21T09:59:39.000Z</time>
      </trkpt>
      <trkpt lat="44.02924" lon="5.99308">
        <ele>516</ele>
        <time>2021-12-21T09:59:40.000Z</time>
      </trkpt>
      <trkpt lat="44.02923" lon="5.9931">
        <ele>516</ele>
        <time>2021-12-21T09:59:41.000Z</time>
      </trkpt>
      <trkpt lat="44.02923" lon="5.99311">
        <ele>516</ele>
        <time>2021-12-21T09:59:42.000Z</time>
      </trkpt>
      <trkpt lat="44.02923" lon="5.99312">
        <ele>516</ele>
        <time>2021-12-21T09:59:43.000Z</time>
      </trkpt>
      <trkpt lat="44.02922" lon="5.99314">
        <ele>516</ele>
        <time>2021-12-21T09:59:44.000Z</time>
      </trkpt>
      <trkpt lat="44.02922" lon="5.99315">
        <ele>516</ele>
        <time>2021-12-21T09:59:45.000Z</time>
      </trkpt>
      <trkpt lat="44.02922" lon="5.99316">
        <ele>517</ele>
        <time>2021-12-21T09:59:46.000Z</time>
      </trkpt>
      <trkpt lat="44.02921" lon="5.99318">
        <ele>517</ele>
        <time>2021-12-21T09:59:47.000Z</time>
      </trkpt>
      <trkpt lat="44.02921" lon="5.99319">
        <ele>517</ele>
        <time>2021-12-21T09:59:48.000Z</time>
      </trkpt>
      <trkpt lat="44.02921" lon="5.99321">
        <ele>517</ele>
        <time>2021-12-21T09:59:49.000Z</time>
      </trkpt>
      <trkpt lat="44.02921" lon="5.99322">
        <ele>517</ele>
        <time>2021-12-21T09:59:50.000Z</time>
      </trkpt>
      <trkpt lat="44.02921" lon="5.99324">
        <ele>517</ele>
        <time>2021-12-21T09:59:51.000Z</time>
      </trkpt>
      <trkpt lat="44.02921" lon="5.99325">
        <ele>518</ele>
        <time>2021-12-21T09:59:52.000Z</time>
      </trkpt>
      <trkpt lat="44.0292" lon="5.99327">
        <ele>518</ele>
        <time>2021-12-21T09:59:53.000Z</time>
      </trkpt>
      <trkpt lat="44.0292" lon="5.99328">
        <ele>518</ele>
        <time>2021-12-21T09:59:54.000Z</time>
      </trkpt>
      <trkpt lat="44.0292" lon="5.9933">
        <ele>518</ele>
        <time>2021-12-21T09:59:55.000Z</time>
      </trkpt>
      <trkpt lat="44.0292" lon="5.99331">
        <ele>518</ele>
        <time>2021-12-21T09:59:56.000Z</time>
      </trkpt>
      <trkpt lat="44.0292" lon="5.99333">
        <ele>518</ele>
        <time>2021-12-21T09:59:57.000Z</time>
      </trkpt>
      <trkpt lat="44.02921" lon="5.99334">
        <ele>518</ele>
        <time>2021-12-21T09:59:58.000Z</time>
      </trkpt>
      <trkpt lat="44.02921" lon="5.99336">
        <ele>518</ele>
        <time>2021-12-21T09:59:59.000Z</time>
      </trkpt>
      <trkpt lat="44.02921" lon="5.99337">
        <ele>519</ele>
        <time>2021-12-21T10:00:00.000Z</time>
      </trkpt>
      <trkpt lat="44.0292" lon="5.99338">
        <ele>519</ele>
        <time>2021-12-21T10:00:01.000Z</time>
      </trkpt>
      <trkpt lat="44.0292" lon="5.9934">
        <ele>519</ele>
        <time>2021-12-21T10:00:02.000Z</time>
      </trkpt>
      <trkpt lat="44.0292" lon="5.99341">
        <ele>519</ele>
        <time>2021-12-21T10:00:03.000Z</time>
      </trkpt>
      <trkpt lat="44.02921" lon="5.99342">
        <ele>519</ele>
        <time>2021-12-21T10:00:04.000Z</time>
      </trkpt>
      <trkpt lat="44.02921" lon="5.99344">
        <ele>519</ele>
        <time>2021-12-21T10:00:05.000Z</time>
      </trkpt>
      <trkpt lat="44.02921" lon="5.99345">
        <ele>519</ele>
        <time>2021-12-21T10:00:06.000Z</time>
      </trkpt>
      <trkpt lat="44.02922" lon="5.99346">
        <ele>519</ele>
        <time>2021-12-21T10:00:07.000Z</time>
      </trkpt>
      <trkpt lat="44.02922" lon="5.99347">
        <ele>519</ele>
        <time>2021-12-21T10:00:08.000Z</time>
      </trkpt>
      <trkpt lat="44.02922" lon="5.99349">
        <ele>519</ele>
        <time>2021-12-21T10:00:09.000Z</time>
      </trkpt>
      <trkpt lat="44.02922" lon="5.9935">
        <ele>519</ele>
        <time>2021-12-21T10:00:10.000Z</time>
      </trkpt>
      <trkpt lat="44.02922" lon="5.99351">
        <ele>519</ele>
        <time>2021-12-21T10:00:11.000Z</time>
      </trkpt>
      <trkpt lat="44.02922" lon="5.99353">
        <ele>519</ele>
        <time>2021-12-21T10:00:12.000Z</time>
      </trkpt>
      <trkpt lat="44.02922" lon="5.99354">
        <ele>519</ele>
        <time>2021-12-21T10:00:13.000Z</time>
      </trkpt>
      <trkpt lat="44.02922" lon="5.99356">
        <ele>519</ele>
        <time>2021-12-21T10:00:14.000Z</time>
      </trkpt>
      <trkpt lat="44.02922" lon="5.99357">
        <ele>519</ele>
        <time>2021-12-21T10:00:15.000Z</time>
      </trkpt>
      <trkpt lat="44.02922" lon="5.99358">
        <ele>519</ele>
        <time>2021-12-21T10:00:16.000Z</time>
      </trkpt>
      <trkpt lat="44.02922" lon="5.9936">
        <ele>519</ele>
        <time>2021-12-21T10:00:17.000Z</time>
      </trkpt>
      <trkpt lat="44.02922" lon="5.99361">
        <ele>519</ele>
        <time>2021-12-21T10:00:18.000Z</time>
      </trkpt>
      <trkpt lat="44.02922" lon="5.99363">
        <ele>519</ele>
        <time>2021-12-21T10:00:19.000Z</time>
      </trkpt>
      <trkpt lat="44.02922" lon="5.99364">
        <ele>519</ele>
        <time>2021-12-21T10:00:20.000Z</time>
      </trkpt>
      <trkpt lat="44.02922" lon="5.99366">
        <ele>519</ele>
        <time>2021-12-21T10:00:21.000Z</time>
      </trkpt>
      <trkpt lat="44.02921" lon="5.99367">
        <ele>519</ele>
        <time>2021-12-21T10:00:22.000Z</time>
      </trkpt>
      <trkpt lat="44.02921" lon="5.99369">
        <ele>519</ele>
        <time>2021-12-21T10:00:23.000Z</time>
      </trkpt>
      <trkpt lat="44.02921" lon="5.9937">
        <ele>519</ele>
        <time>2021-12-21T10:00:24.000Z</time>
      </trkpt>
      <trkpt lat="44.0292" lon="5.99371">
        <ele>519</ele>
        <time>2021-12-21T10:00:25.000Z</time>
      </trkpt>
      <trkpt lat="44.0292" lon="5.99373">
        <ele>519</ele>
        <time>2021-12-21T10:00:26.000Z</time>
      </trkpt>
      <trkpt lat="44.02919" lon="5.99374">
        <ele>519</ele>
        <time>2021-12-21T10:00:27.000Z</time>
      </trkpt>
      <trkpt lat="44.02919" lon="5.99375">
        <ele>519</ele>
        <time>2021-12-21T10:00:28.000Z</time>
      </trkpt>
      <trkpt lat="44.02918" lon="5.99376">
        <ele>519</ele>
        <time>2021-12-21T10:00:29.000Z</time>
      </trkpt>
      <trkpt lat="44.02918" lon="5.99378">
        <ele>519</ele>
        <time>2021-12-21T10:00:30.000Z</time>
      </trkpt>
      <trkpt lat="44.02917" lon="5.99379">
        <ele>519</ele>
        <time>2021-12-21T10:00:31.000Z</time>
      </trkpt>
      <trkpt lat="44.02917" lon="5.9938">
        <ele>519</ele>
        <time>2021-12-21T10:00:32.000Z</time>
      </trkpt>
      <trkpt lat="44.02917" lon="5.99381">
        <ele>519</ele>
        <time>2021-12-21T10:00:33.000Z</time>
      </trkpt>
      <trkpt lat="44.02916" lon="5.99382">
        <ele>519</ele>
        <time>2021-12-21T10:00:34.000Z</time>
      </trkpt>
      <trkpt lat="44.02915" lon="5.99383">
        <ele>519</ele>
        <time>2021-12-21T10:00:35.000Z</time>
      </trkpt>
      <trkpt lat="44.02915" lon="5.99384">
        <ele>519</ele>
        <time>2021-12-21T10:00:36.000Z</time>
      </trkpt>
      <trkpt lat="44.02914" lon="5.99384">
        <ele>519</ele>
        <time>2021-12-21T10:00:37.000Z</time>
      </trkpt>
      <trkpt lat="44.02914" lon="5.99384">
        <ele>519</ele>
        <time>2021-12-21T10:00:38.000Z</time>
      </trkpt>
      <trkpt lat="44.02914" lon="5.99384">
        <ele>520</ele>
        <time>2021-12-21T10:00:39.000Z</time>
      </trkpt>
      <trkpt lat="44.02914" lon="5.99385">
        <ele>520</ele>
        <time>2021-12-21T10:00:40.000Z</time>
      </trkpt>
      <trkpt lat="44.02914" lon="5.99385">
        <ele>520</ele>
        <time>2021-12-21T10:00:41.000Z</time>
      </trkpt>
      <trkpt lat="44.02914" lon="5.99385">
        <ele>520</ele>
        <time>2021-12-21T10:00:42.000Z</time>
      </trkpt>
      <trkpt lat="44.02914" lon="5.99385">
        <ele>520</ele>
        <time>2021-12-21T10:00:43.000Z</time>
      </trkpt>
      <trkpt lat="44.02914" lon="5.99385">
        <ele>520</ele>
        <time>2021-12-21T10:00:44.000Z</time>
      </trkpt>
      <trkpt lat="44.02914" lon="5.99385">
        <ele>520</ele>
        <time>2021-12-21T10:00:45.000Z</time>
      </trkpt>
      <trkpt lat="44.02914" lon="5.99385">
        <ele>520</ele>
        <time>2021-12-21T10:00:46.000Z</time>
      </trkpt>
      <trkpt lat="44.02914" lon="5.99385">
        <ele>520</ele>
        <time>2021-12-21T10:00:47.000Z</time>
      </trkpt>
      <trkpt lat="44.02914" lon="5.99385">
        <ele>520</ele>
        <time>2021-12-21T10:00:48.000Z</time>
      </trkpt>
      <trkpt lat="44.02914" lon="5.99385">
        <ele>520</ele>
        <time>2021-12-21T10:00:49.000Z</time>
      </trkpt>
      <trkpt lat="44.02914" lon="5.99385">
        <ele>520</ele>
        <time>2021-12-21T10:00:50.000Z</time>
      </trkpt>
      <trkpt lat="44.02914" lon="5.99385">
        <ele>520</ele>
        <time>2021-12-21T10:00:51.000Z</time>
      </trkpt>
      <trkpt lat="44.02914" lon="5.99385">
        <ele>520</ele>
        <time>2021-12-21T10:00:52.000Z</time>
      </trkpt>
      <trkpt lat="44.02914" lon="5.99385">
        <ele>520</ele>
        <time>2021-12-21T10:00:53.000Z</time>
      </trkpt>
      <trkpt lat="44.02914" lon="5.99385">
        <ele>520</ele>
        <time>2021-12-21T10:00:54.000Z</time>
      </trkpt>
      <trkpt lat="44.02914" lon="5.99385">
        <ele>520</ele>
        <time>2021-12-21T10:00:55.000Z</time>
      </trkpt>
      <trkpt lat="44.02914" lon="5.99385">
        <ele>520</ele>
        <time>2021-12-21T10:00:56.000Z</time>
      </trkpt>
      <trkpt lat="44.02914" lon="5.99385">
        <ele>520</ele>
        <time>2021-12-21T10:00:57.000Z</time>
      </trkpt>
      <trkpt lat="44.02914" lon="5.99384">
        <ele>520</ele>
        <time>2021-12-21T10:00:58.000Z</time>
      </trkpt>
      <trkpt lat="44.02914" lon="5.99385">
        <ele>520</ele>
        <time>2021-12-21T10:00:59.000Z</time>
      </trkpt>
      <trkpt lat="44.02914" lon="5.99384">
        <ele>520</ele>
        <time>2021-12-21T10:01:00.000Z</time>
      </trkpt>
      <trkpt lat="44.02914" lon="5.99384">
        <ele>520</ele>
        <time>2021-12-21T10:01:01.000Z</time>
      </trkpt>
      <trkpt lat="44.02914" lon="5.99385">
        <ele>520</ele>
        <time>2021-12-21T10:01:02.000Z</time>
      </trkpt>
      <trkpt lat="44.02914" lon="5.99385">
        <ele>520</ele>
        <time>2021-12-21T10:01:03.000Z</time>
      </trkpt>
      <trkpt lat="44.02914" lon="5.99385">
        <ele>520</ele>
        <time>2021-12-21T10:01:04.000Z</time>
      </trkpt>
      <trkpt lat="44.02914" lon="5.99385">
        <ele>520</ele>
        <time>2021-12-21T10:01:05.000Z</time>
      </trkpt>
      <trkpt lat="44.02914" lon="5.99385">
        <ele>520</ele>
        <time>2021-12-21T10:01:06.000Z</time>
      </trkpt>
      <trkpt lat="44.02913" lon="5.99385">
        <ele>520</ele>
        <time>2021-12-21T10:01:07.000Z</time>
      </trkpt>
      <trkpt lat="44.02913" lon="5.99385">
        <ele>520</ele>
        <time>2021-12-21T10:01:08.000Z</time>
      </trkpt>
      <trkpt lat="44.02913" lon="5.99385">
        <ele>520</ele>
        <time>2021-12-21T10:01:09.000Z</time>
      </trkpt>
      <trkpt lat="44.02913" lon="5.99385">
        <ele>520</ele>
        <time>2021-12-21T10:01:10.000Z</time>
      </trkpt>
      <trkpt lat="44.02913" lon="5.99385">
        <ele>520</ele>
        <time>2021-12-21T10:01:11.000Z</time>
      </trkpt>
      <trkpt lat="44.02913" lon="5.99385">
        <ele>520</ele>
        <time>2021-12-21T10:01:12.000Z</time>
      </trkpt>
      <trkpt lat="44.02913" lon="5.99385">
        <ele>520</ele>
        <time>2021-12-21T10:01:13.000Z</time>
      </trkpt>
      <trkpt lat="44.02913" lon="5.99385">
        <ele>520</ele>
        <time>2021-12-21T10:01:14.000Z</time>
      </trkpt>
      <trkpt lat="44.02913" lon="5.99385">
        <ele>520</ele>
        <time>2021-12-21T10:01:15.000Z</time>
      </trkpt>
      <trkpt lat="44.02913" lon="5.99385">
        <ele>520</ele>
        <time>2021-12-21T10:01:16.000Z</time>
      </trkpt>
      <trkpt lat="44.02913" lon="5.99385">
        <ele>520</ele>
        <time>2021-12-21T10:01:17.000Z</time>
      </trkpt>
      <trkpt lat="44.02913" lon="5.99385">
        <ele>520</ele>
        <time>2021-12-21T10:01:18.000Z</time>
      </trkpt>
      <trkpt lat="44.02913" lon="5.99385">
        <ele>520</ele>
        <time>2021-12-21T10:01:19.000Z</time>
      </trkpt>
      <trkpt lat="44.02913" lon="5.99385">
        <ele>520</ele>
        <time>2021-12-21T10:01:20.000Z</time>
      </trkpt>
      <trkpt lat="44.02913" lon="5.99385">
        <ele>520</ele>
        <time>2021-12-21T10:01:21.000Z</time>
      </trkpt>
      <trkpt lat="44.02913" lon="5.99385">
        <ele>520</ele>
        <time>2021-12-21T10:01:22.000Z</time>
      </trkpt>
      <trkpt lat="44.02913" lon="5.99385">
        <ele>520</ele>
        <time>2021-12-21T10:01:23.000Z</time>
      </trkpt>
      <trkpt lat="44.02913" lon="5.99385">
        <ele>520</ele>
        <time>2021-12-21T10:01:24.000Z</time>
      </trkpt>
      <trkpt lat="44.02913" lon="5.99385">
        <ele>520</ele>
        <time>2021-12-21T10:01:25.000Z</time>
      </trkpt>
      <trkpt lat="44.02912" lon="5.99385">
        <ele>520</ele>
        <time>2021-12-21T10:01:26.000Z</time>
      </trkpt>
      <trkpt lat="44.02912" lon="5.99385">
        <ele>520</ele>
        <time>2021-12-21T10:01:27.000Z</time>
      </trkpt>
      <trkpt lat="44.02912" lon="5.99385">
        <ele>520</ele>
        <time>2021-12-21T10:01:28.000Z</time>
      </trkpt>
      <trkpt lat="44.02912" lon="5.99385">
        <ele>520</ele>
        <time>2021-12-21T10:01:29.000Z</time>
      </trkpt>
      <trkpt lat="44.02912" lon="5.99385">
        <ele>520</ele>
        <time>2021-12-21T10:01:30.000Z</time>
      </trkpt>
      <trkpt lat="44.02912" lon="5.99385">
        <ele>520</ele>
        <time>2021-12-21T10:01:31.000Z</time>
      </trkpt>
      <trkpt lat="44.02912" lon="5.99385">
        <ele>520</ele>
        <time>2021-12-21T10:01:32.000Z</time>
      </trkpt>
      <trkpt lat="44.02912" lon="5.99385">
        <ele>520</ele>
        <time>2021-12-21T10:01:33.000Z</time>
      </trkpt>
      <trkpt lat="44.02912" lon="5.99385">
        <ele>520</ele>
        <time>2021-12-21T10:01:34.000Z</time>
      </trkpt>
      <trkpt lat="44.02912" lon="5.99385">
        <ele>520</ele>
        <time>2021-12-21T10:01:35.000Z</time>
      </trkpt>
      <trkpt lat="44.02912" lon="5.99385">
        <ele>520</ele>
        <time>2021-12-21T10:01:36.000Z</time>
      </trkpt>
      <trkpt lat="44.02912" lon="5.99385">
        <ele>520</ele>
        <time>2021-12-21T10:01:37.000Z</time>
      </trkpt>
      <trkpt lat="44.02912" lon="5.99384">
        <ele>520</ele>
        <time>2021-12-21T10:01:38.000Z</time>
      </trkpt>
      <trkpt lat="44.02912" lon="5.99384">
        <ele>520</ele>
        <time>2021-12-21T10:01:39.000Z</time>
      </trkpt>
      <trkpt lat="44.02912" lon="5.99384">
        <ele>520</ele>
        <time>2021-12-21T10:01:40.000Z</time>
      </trkpt>
      <trkpt lat="44.02912" lon="5.99385">
        <ele>520</ele>
        <time>2021-12-21T10:01:41.000Z</time>
      </trkpt>
      <trkpt lat="44.02912" lon="5.99385">
        <ele>520</ele>
        <time>2021-12-21T10:01:42.000Z</time>
      </trkpt>
      <trkpt lat="44.02912" lon="5.99385">
        <ele>520</ele>
        <time>2021-12-21T10:01:43.000Z</time>
      </trkpt>
      <trkpt lat="44.02912" lon="5.99385">
        <ele>520</ele>
        <time>2021-12-21T10:01:44.000Z</time>
      </trkpt>
      <trkpt lat="44.02912" lon="5.99385">
        <ele>521</ele>
        <time>2021-12-21T10:01:45.000Z</time>
      </trkpt>
      <trkpt lat="44.02912" lon="5.99385">
        <ele>521</ele>
        <time>2021-12-21T10:01:46.000Z</time>
      </trkpt>
      <trkpt lat="44.02912" lon="5.99385">
        <ele>521</ele>
        <time>2021-12-21T10:01:47.000Z</time>
      </trkpt>
      <trkpt lat="44.02912" lon="5.99385">
        <ele>521</ele>
        <time>2021-12-21T10:01:48.000Z</time>
      </trkpt>
      <trkpt lat="44.02911" lon="5.99385">
        <ele>521</ele>
        <time>2021-12-21T10:01:49.000Z</time>
      </trkpt>
      <trkpt lat="44.02911" lon="5.99385">
        <ele>521</ele>
        <time>2021-12-21T10:01:50.000Z</time>
      </trkpt>
      <trkpt lat="44.02911" lon="5.99385">
        <ele>521</ele>
        <time>2021-12-21T10:01:51.000Z</time>
      </trkpt>
      <trkpt lat="44.02911" lon="5.99385">
        <ele>521</ele>
        <time>2021-12-21T10:01:52.000Z</time>
      </trkpt>
      <trkpt lat="44.02911" lon="5.99384">
        <ele>521</ele>
        <time>2021-12-21T10:01:53.000Z</time>
      </trkpt>
      <trkpt lat="44.02911" lon="5.99384">
        <ele>521</ele>
        <time>2021-12-21T10:01:54.000Z</time>
      </trkpt>
      <trkpt lat="44.02911" lon="5.99384">
        <ele>521</ele>
        <time>2021-12-21T10:01:55.000Z</time>
      </trkpt>
      <trkpt lat="44.02911" lon="5.99384">
        <ele>521</ele>
        <time>2021-12-21T10:01:56.000Z</time>
      </trkpt>
      <trkpt lat="44.02911" lon="5.99384">
        <ele>521</ele>
        <time>2021-12-21T10:01:57.000Z</time>
      </trkpt>
      <trkpt lat="44.02911" lon="5.99385">
        <ele>521</ele>
        <time>2021-12-21T10:01:58.000Z</time>
      </trkpt>
      <trkpt lat="44.02911" lon="5.99385">
        <ele>521</ele>
        <time>2021-12-21T10:01:59.000Z</time>
      </trkpt>
      <trkpt lat="44.02911" lon="5.99385">
        <ele>521</ele>
        <time>2021-12-21T10:02:00.000Z</time>
      </trkpt>
      <trkpt lat="44.02911" lon="5.99385">
        <ele>521</ele>
        <time>2021-12-21T10:02:01.000Z</time>
      </trkpt>
      <trkpt lat="44.02911" lon="5.99385">
        <ele>521</ele>
        <time>2021-12-21T10:02:02.000Z</time>
      </trkpt>
      <trkpt lat="44.02911" lon="5.99385">
        <ele>521</ele>
        <time>2021-12-21T10:02:03.000Z</time>
      </trkpt>
      <trkpt lat="44.02911" lon="5.99385">
        <ele>521</ele>
        <time>2021-12-21T10:02:04.000Z</time>
      </trkpt>
      <trkpt lat="44.02911" lon="5.99385">
        <ele>521</ele>
        <time>2021-12-21T10:02:05.000Z</time>
      </trkpt>
      <trkpt lat="44.02911" lon="5.99385">
        <ele>521</ele>
        <time>2021-12-21T10:02:06.000Z</time>
      </trkpt>
      <trkpt lat="44.02911" lon="5.99386">
        <ele>521</ele>
        <time>2021-12-21T10:02:07.000Z</time>
      </trkpt>
      <trkpt lat="44.02911" lon="5.99387">
        <ele>521</ele>
        <time>2021-12-21T10:02:08.000Z</time>
      </trkpt>
      <trkpt lat="44.0291" lon="5.99388">
        <ele>521</ele>
        <time>2021-12-21T10:02:09.000Z</time>
      </trkpt>
      <trkpt lat="44.0291" lon="5.99388">
        <ele>521</ele>
        <time>2021-12-21T10:02:10.000Z</time>
      </trkpt>
      <trkpt lat="44.02909" lon="5.99389">
        <ele>521</ele>
        <time>2021-12-21T10:02:11.000Z</time>
      </trkpt>
      <trkpt lat="44.02908" lon="5.99389">
        <ele>521</ele>
        <time>2021-12-21T10:02:12.000Z</time>
      </trkpt>
      <trkpt lat="44.02908" lon="5.99391">
        <ele>521</ele>
        <time>2021-12-21T10:02:13.000Z</time>
      </trkpt>
      <trkpt lat="44.02907" lon="5.99392">
        <ele>521</ele>
        <time>2021-12-21T10:02:14.000Z</time>
      </trkpt>
      <trkpt lat="44.02907" lon="5.99393">
        <ele>521</ele>
        <time>2021-12-21T10:02:15.000Z</time>
      </trkpt>
      <trkpt lat="44.02906" lon="5.99395">
        <ele>521</ele>
        <time>2021-12-21T10:02:16.000Z</time>
      </trkpt>
      <trkpt lat="44.02906" lon="5.99396">
        <ele>521</ele>
        <time>2021-12-21T10:02:17.000Z</time>
      </trkpt>
      <trkpt lat="44.02905" lon="5.99397">
        <ele>521</ele>
        <time>2021-12-21T10:02:18.000Z</time>
      </trkpt>
      <trkpt lat="44.02905" lon="5.99399">
        <ele>521</ele>
        <time>2021-12-21T10:02:19.000Z</time>
      </trkpt>
      <trkpt lat="44.02905" lon="5.994">
        <ele>521</ele>
        <time>2021-12-21T10:02:20.000Z</time>
      </trkpt>
      <trkpt lat="44.02904" lon="5.99402">
        <ele>521</ele>
        <time>2021-12-21T10:02:21.000Z</time>
      </trkpt>
      <trkpt lat="44.02904" lon="5.99403">
        <ele>521</ele>
        <time>2021-12-21T10:02:22.000Z</time>
      </trkpt>
      <trkpt lat="44.02904" lon="5.99404">
        <ele>522</ele>
        <time>2021-12-21T10:02:23.000Z</time>
      </trkpt>
      <trkpt lat="44.02903" lon="5.99406">
        <ele>522</ele>
        <time>2021-12-21T10:02:24.000Z</time>
      </trkpt>
      <trkpt lat="44.02903" lon="5.99407">
        <ele>522</ele>
        <time>2021-12-21T10:02:25.000Z</time>
      </trkpt>
      <trkpt lat="44.02902" lon="5.99409">
        <ele>522</ele>
        <time>2021-12-21T10:02:26.000Z</time>
      </trkpt>
      <trkpt lat="44.02902" lon="5.9941">
        <ele>522</ele>
        <time>2021-12-21T10:02:27.000Z</time>
      </trkpt>
      <trkpt lat="44.02902" lon="5.99411">
        <ele>522</ele>
        <time>2021-12-21T10:02:28.000Z</time>
      </trkpt>
      <trkpt lat="44.02901" lon="5.99412">
        <ele>522</ele>
        <time>2021-12-21T10:02:29.000Z</time>
      </trkpt>
      <trkpt lat="44.02901" lon="5.99414">
        <ele>522</ele>
        <time>2021-12-21T10:02:30.000Z</time>
      </trkpt>
      <trkpt lat="44.02901" lon="5.99415">
        <ele>522</ele>
        <time>2021-12-21T10:02:31.000Z</time>
      </trkpt>
      <trkpt lat="44.029" lon="5.99416">
        <ele>522</ele>
        <time>2021-12-21T10:02:32.000Z</time>
      </trkpt>
      <trkpt lat="44.029" lon="5.99418">
        <ele>523</ele>
        <time>2021-12-21T10:02:33.000Z</time>
      </trkpt>
      <trkpt lat="44.029" lon="5.99419">
        <ele>523</ele>
        <time>2021-12-21T10:02:34.000Z</time>
      </trkpt>
      <trkpt lat="44.029" lon="5.99421">
        <ele>523</ele>
        <time>2021-12-21T10:02:35.000Z</time>
      </trkpt>
      <trkpt lat="44.02899" lon="5.99422">
        <ele>523</ele>
        <time>2021-12-21T10:02:36.000Z</time>
      </trkpt>
      <trkpt lat="44.02899" lon="5.99424">
        <ele>523</ele>
        <time>2021-12-21T10:02:37.000Z</time>
      </trkpt>
      <trkpt lat="44.02899" lon="5.99425">
        <ele>523</ele>
        <time>2021-12-21T10:02:38.000Z</time>
      </trkpt>
      <trkpt lat="44.02898" lon="5.99426">
        <ele>523</ele>
        <time>2021-12-21T10:02:39.000Z</time>
      </trkpt>
      <trkpt lat="44.02898" lon="5.99428">
        <ele>523</ele>
        <time>2021-12-21T10:02:40.000Z</time>
      </trkpt>
      <trkpt lat="44.02898" lon="5.99429">
        <ele>523</ele>
        <time>2021-12-21T10:02:41.000Z</time>
      </trkpt>
      <trkpt lat="44.02897" lon="5.9943">
        <ele>523</ele>
        <time>2021-12-21T10:02:42.000Z</time>
      </trkpt>
      <trkpt lat="44.02897" lon="5.99432">
        <ele>523</ele>
        <time>2021-12-21T10:02:43.000Z</time>
      </trkpt>
      <trkpt lat="44.02897" lon="5.99433">
        <ele>523</ele>
        <time>2021-12-21T10:02:44.000Z</time>
      </trkpt>
      <trkpt lat="44.02897" lon="5.99434">
        <ele>523</ele>
        <time>2021-12-21T10:02:45.000Z</time>
      </trkpt>
      <trkpt lat="44.02897" lon="5.99436">
        <ele>523</ele>
        <time>2021-12-21T10:02:46.000Z</time>
      </trkpt>
      <trkpt lat="44.02897" lon="5.99437">
        <ele>523</ele>
        <time>2021-12-21T10:02:47.000Z</time>
      </trkpt>
      <trkpt lat="44.02897" lon="5.99439">
        <ele>523</ele>
        <time>2021-12-21T10:02:48.000Z</time>
      </trkpt>
      <trkpt lat="44.02897" lon="5.9944">
        <ele>523</ele>
        <time>2021-12-21T10:02:49.000Z</time>
      </trkpt>
      <trkpt lat="44.02897" lon="5.99441">
        <ele>523</ele>
        <time>2021-12-21T10:02:50.000Z</time>
      </trkpt>
      <trkpt lat="44.02897" lon="5.99443">
        <ele>523</ele>
        <time>2021-12-21T10:02:51.000Z</time>
      </trkpt>
      <trkpt lat="44.02897" lon="5.99444">
        <ele>523</ele>
        <time>2021-12-21T10:02:52.000Z</time>
      </trkpt>
      <trkpt lat="44.02896" lon="5.99446">
        <ele>523</ele>
        <time>2021-12-21T10:02:53.000Z</time>
      </trkpt>
      <trkpt lat="44.02896" lon="5.99447">
        <ele>523</ele>
        <time>2021-12-21T10:02:54.000Z</time>
      </trkpt>
      <trkpt lat="44.02896" lon="5.99449">
        <ele>524</ele>
        <time>2021-12-21T10:02:55.000Z</time>
      </trkpt>
      <trkpt lat="44.02896" lon="5.9945">
        <ele>524</ele>
        <time>2021-12-21T10:02:56.000Z</time>
      </trkpt>
      <trkpt lat="44.02896" lon="5.99452">
        <ele>524</ele>
        <time>2021-12-21T10:02:57.000Z</time>
      </trkpt>
      <trkpt lat="44.02896" lon="5.99453">
        <ele>524</ele>
        <time>2021-12-21T10:02:58.000Z</time>
      </trkpt>
      <trkpt lat="44.02896" lon="5.99455">
        <ele>524</ele>
        <time>2021-12-21T10:02:59.000Z</time>
      </trkpt>
      <trkpt lat="44.02896" lon="5.99457">
        <ele>524</ele>
        <time>2021-12-21T10:03:00.000Z</time>
      </trkpt>
      <trkpt lat="44.02896" lon="5.99458">
        <ele>524</ele>
        <time>2021-12-21T10:03:01.000Z</time>
      </trkpt>
      <trkpt lat="44.02896" lon="5.9946">
        <ele>524</ele>
        <time>2021-12-21T10:03:02.000Z</time>
      </trkpt>
      <trkpt lat="44.02895" lon="5.99461">
        <ele>524</ele>
        <time>2021-12-21T10:03:03.000Z</time>
      </trkpt>
      <trkpt lat="44.02895" lon="5.99463">
        <ele>525</ele>
        <time>2021-12-21T10:03:04.000Z</time>
      </trkpt>
      <trkpt lat="44.02895" lon="5.99464">
        <ele>525</ele>
        <time>2021-12-21T10:03:05.000Z</time>
      </trkpt>
      <trkpt lat="44.02895" lon="5.99466">
        <ele>525</ele>
        <time>2021-12-21T10:03:06.000Z</time>
      </trkpt>
      <trkpt lat="44.02895" lon="5.99467">
        <ele>525</ele>
        <time>2021-12-21T10:03:07.000Z</time>
      </trkpt>
      <trkpt lat="44.02896" lon="5.99469">
        <ele>525</ele>
        <time>2021-12-21T10:03:08.000Z</time>
      </trkpt>
      <trkpt lat="44.02896" lon="5.99471">
        <ele>525</ele>
        <time>2021-12-21T10:03:09.000Z</time>
      </trkpt>
      <trkpt lat="44.02896" lon="5.99472">
        <ele>525</ele>
        <time>2021-12-21T10:03:10.000Z</time>
      </trkpt>
      <trkpt lat="44.02896" lon="5.99474">
        <ele>526</ele>
        <time>2021-12-21T10:03:11.000Z</time>
      </trkpt>
      <trkpt lat="44.02896" lon="5.99475">
        <ele>526</ele>
        <time>2021-12-21T10:03:12.000Z</time>
      </trkpt>
      <trkpt lat="44.02896" lon="5.99477">
        <ele>526</ele>
        <time>2021-12-21T10:03:13.000Z</time>
      </trkpt>
      <trkpt lat="44.02896" lon="5.99478">
        <ele>526</ele>
        <time>2021-12-21T10:03:14.000Z</time>
      </trkpt>
      <trkpt lat="44.02896" lon="5.9948">
        <ele>526</ele>
        <time>2021-12-21T10:03:15.000Z</time>
      </trkpt>
      <trkpt lat="44.02896" lon="5.99481">
        <ele>526</ele>
        <time>2021-12-21T10:03:16.000Z</time>
      </trkpt>
      <trkpt lat="44.02896" lon="5.99483">
        <ele>526</ele>
        <time>2021-12-21T10:03:17.000Z</time>
      </trkpt>
      <trkpt lat="44.02897" lon="5.99484">
        <ele>527</ele>
        <time>2021-12-21T10:03:18.000Z</time>
      </trkpt>
      <trkpt lat="44.02897" lon="5.99486">
        <ele>527</ele>
        <time>2021-12-21T10:03:19.000Z</time>
      </trkpt>
      <trkpt lat="44.02897" lon="5.99487">
        <ele>527</ele>
        <time>2021-12-21T10:03:20.000Z</time>
      </trkpt>
      <trkpt lat="44.02897" lon="5.99489">
        <ele>527</ele>
        <time>2021-12-21T10:03:21.000Z</time>
      </trkpt>
      <trkpt lat="44.02897" lon="5.99491">
        <ele>527</ele>
        <time>2021-12-21T10:03:22.000Z</time>
      </trkpt>
      <trkpt lat="44.02898" lon="5.99492">
        <ele>527</ele>
        <time>2021-12-21T10:03:23.000Z</time>
      </trkpt>
      <trkpt lat="44.02898" lon="5.99493">
        <ele>527</ele>
        <time>2021-12-21T10:03:24.000Z</time>
      </trkpt>
      <trkpt lat="44.02898" lon="5.99495">
        <ele>527</ele>
        <time>2021-12-21T10:03:25.000Z</time>
      </trkpt>
      <trkpt lat="44.02899" lon="5.99496">
        <ele>527</ele>
        <time>2021-12-21T10:03:26.000Z</time>
      </trkpt>
      <trkpt lat="44.02899" lon="5.99497">
        <ele>527</ele>
        <time>2021-12-21T10:03:27.000Z</time>
      </trkpt>
      <trkpt lat="44.02899" lon="5.99498">
        <ele>527</ele>
        <time>2021-12-21T10:03:28.000Z</time>
      </trkpt>
      <trkpt lat="44.029" lon="5.995">
        <ele>527</ele>
        <time>2021-12-21T10:03:29.000Z</time>
      </trkpt>
      <trkpt lat="44.02901" lon="5.99501">
        <ele>528</ele>
        <time>2021-12-21T10:03:30.000Z</time>
      </trkpt>
      <trkpt lat="44.02901" lon="5.99502">
        <ele>528</ele>
        <time>2021-12-21T10:03:31.000Z</time>
      </trkpt>
      <trkpt lat="44.02902" lon="5.99503">
        <ele>528</ele>
        <time>2021-12-21T10:03:32.000Z</time>
      </trkpt>
      <trkpt lat="44.02902" lon="5.99504">
        <ele>528</ele>
        <time>2021-12-21T10:03:33.000Z</time>
      </trkpt>
      <trkpt lat="44.02903" lon="5.99506">
        <ele>528</ele>
        <time>2021-12-21T10:03:34.000Z</time>
      </trkpt>
      <trkpt lat="44.02903" lon="5.99507">
        <ele>528</ele>
        <time>2021-12-21T10:03:35.000Z</time>
      </trkpt>
      <trkpt lat="44.02904" lon="5.99508">
        <ele>528</ele>
        <time>2021-12-21T10:03:36.000Z</time>
      </trkpt>
      <trkpt lat="44.02904" lon="5.99509">
        <ele>528</ele>
        <time>2021-12-21T10:03:37.000Z</time>
      </trkpt>
      <trkpt lat="44.02905" lon="5.99511">
        <ele>528</ele>
        <time>2021-12-21T10:03:38.000Z</time>
      </trkpt>
      <trkpt lat="44.02905" lon="5.99512">
        <ele>528</ele>
        <time>2021-12-21T10:03:39.000Z</time>
      </trkpt>
      <trkpt lat="44.02906" lon="5.99514">
        <ele>528</ele>
        <time>2021-12-21T10:03:40.000Z</time>
      </trkpt>
      <trkpt lat="44.02906" lon="5.99515">
        <ele>528</ele>
        <time>2021-12-21T10:03:41.000Z</time>
      </trkpt>
      <trkpt lat="44.02907" lon="5.99516">
        <ele>528</ele>
        <time>2021-12-21T10:03:42.000Z</time>
      </trkpt>
      <trkpt lat="44.02907" lon="5.99518">
        <ele>528</ele>
        <time>2021-12-21T10:03:43.000Z</time>
      </trkpt>
      <trkpt lat="44.02908" lon="5.99519">
        <ele>528</ele>
        <time>2021-12-21T10:03:44.000Z</time>
      </trkpt>
      <trkpt lat="44.02908" lon="5.99521">
        <ele>528</ele>
        <time>2021-12-21T10:03:45.000Z</time>
      </trkpt>
      <trkpt lat="44.02909" lon="5.99522">
        <ele>528</ele>
        <time>2021-12-21T10:03:46.000Z</time>
      </trkpt>
      <trkpt lat="44.02909" lon="5.99523">
        <ele>528</ele>
        <time>2021-12-21T10:03:47.000Z</time>
      </trkpt>
      <trkpt lat="44.02909" lon="5.99525">
        <ele>528</ele>
        <time>2021-12-21T10:03:48.000Z</time>
      </trkpt>
      <trkpt lat="44.0291" lon="5.99526">
        <ele>529</ele>
        <time>2021-12-21T10:03:49.000Z</time>
      </trkpt>
      <trkpt lat="44.0291" lon="5.99527">
        <ele>529</ele>
        <time>2021-12-21T10:03:50.000Z</time>
      </trkpt>
      <trkpt lat="44.02911" lon="5.99529">
        <ele>529</ele>
        <time>2021-12-21T10:03:51.000Z</time>
      </trkpt>
      <trkpt lat="44.02911" lon="5.9953">
        <ele>529</ele>
        <time>2021-12-21T10:03:52.000Z</time>
      </trkpt>
      <trkpt lat="44.02912" lon="5.99532">
        <ele>529</ele>
        <time>2021-12-21T10:03:53.000Z</time>
      </trkpt>
      <trkpt lat="44.02912" lon="5.99533">
        <ele>529</ele>
        <time>2021-12-21T10:03:54.000Z</time>
      </trkpt>
      <trkpt lat="44.02913" lon="5.99534">
        <ele>529</ele>
        <time>2021-12-21T10:03:55.000Z</time>
      </trkpt>
      <trkpt lat="44.02913" lon="5.99536">
        <ele>529</ele>
        <time>2021-12-21T10:03:56.000Z</time>
      </trkpt>
      <trkpt lat="44.02914" lon="5.99537">
        <ele>529</ele>
        <time>2021-12-21T10:03:57.000Z</time>
      </trkpt>
      <trkpt lat="44.02914" lon="5.99539">
        <ele>529</ele>
        <time>2021-12-21T10:03:58.000Z</time>
      </trkpt>
      <trkpt lat="44.02915" lon="5.9954">
        <ele>529</ele>
        <time>2021-12-21T10:03:59.000Z</time>
      </trkpt>
      <trkpt lat="44.02915" lon="5.99541">
        <ele>529</ele>
        <time>2021-12-21T10:04:00.000Z</time>
      </trkpt>
      <trkpt lat="44.02916" lon="5.99543">
        <ele>529</ele>
        <time>2021-12-21T10:04:01.000Z</time>
      </trkpt>
      <trkpt lat="44.02916" lon="5.99544">
        <ele>529</ele>
        <time>2021-12-21T10:04:02.000Z</time>
      </trkpt>
      <trkpt lat="44.02917" lon="5.99546">
        <ele>529</ele>
        <time>2021-12-21T10:04:03.000Z</time>
      </trkpt>
      <trkpt lat="44.02917" lon="5.99547">
        <ele>529</ele>
        <time>2021-12-21T10:04:04.000Z</time>
      </trkpt>
      <trkpt lat="44.02918" lon="5.99548">
        <ele>529</ele>
        <time>2021-12-21T10:04:05.000Z</time>
      </trkpt>
      <trkpt lat="44.02918" lon="5.9955">
        <ele>529</ele>
        <time>2021-12-21T10:04:06.000Z</time>
      </trkpt>
      <trkpt lat="44.02918" lon="5.99551">
        <ele>529</ele>
        <time>2021-12-21T10:04:07.000Z</time>
      </trkpt>
      <trkpt lat="44.02919" lon="5.99552">
        <ele>529</ele>
        <time>2021-12-21T10:04:08.000Z</time>
      </trkpt>
      <trkpt lat="44.0292" lon="5.99554">
        <ele>530</ele>
        <time>2021-12-21T10:04:09.000Z</time>
      </trkpt>
      <trkpt lat="44.0292" lon="5.99555">
        <ele>530</ele>
        <time>2021-12-21T10:04:10.000Z</time>
      </trkpt>
      <trkpt lat="44.0292" lon="5.99556">
        <ele>530</ele>
        <time>2021-12-21T10:04:11.000Z</time>
      </trkpt>
      <trkpt lat="44.02921" lon="5.99558">
        <ele>530</ele>
        <time>2021-12-21T10:04:12.000Z</time>
      </trkpt>
      <trkpt lat="44.02921" lon="5.99559">
        <ele>530</ele>
        <time>2021-12-21T10:04:13.000Z</time>
      </trkpt>
      <trkpt lat="44.02922" lon="5.9956">
        <ele>530</ele>
        <time>2021-12-21T10:04:14.000Z</time>
      </trkpt>
      <trkpt lat="44.02922" lon="5.99561">
        <ele>530</ele>
        <time>2021-12-21T10:04:15.000Z</time>
      </trkpt>
      <trkpt lat="44.02923" lon="5.99563">
        <ele>530</ele>
        <time>2021-12-21T10:04:16.000Z</time>
      </trkpt>
      <trkpt lat="44.02923" lon="5.99564">
        <ele>530</ele>
        <time>2021-12-21T10:04:17.000Z</time>
      </trkpt>
      <trkpt lat="44.02923" lon="5.99566">
        <ele>530</ele>
        <time>2021-12-21T10:04:18.000Z</time>
      </trkpt>
      <trkpt lat="44.02924" lon="5.99567">
        <ele>530</ele>
        <time>2021-12-21T10:04:19.000Z</time>
      </trkpt>
      <trkpt lat="44.02924" lon="5.99569">
        <ele>530</ele>
        <time>2021-12-21T10:04:20.000Z</time>
      </trkpt>
      <trkpt lat="44.02924" lon="5.9957">
        <ele>530</ele>
        <time>2021-12-21T10:04:21.000Z</time>
      </trkpt>
      <trkpt lat="44.02924" lon="5.99571">
        <ele>530</ele>
        <time>2021-12-21T10:04:22.000Z</time>
      </trkpt>
      <trkpt lat="44.02924" lon="5.99573">
        <ele>530</ele>
        <time>2021-12-21T10:04:23.000Z</time>
      </trkpt>
      <trkpt lat="44.02925" lon="5.99574">
        <ele>531</ele>
        <time>2021-12-21T10:04:24.000Z</time>
      </trkpt>
      <trkpt lat="44.02925" lon="5.99576">
        <ele>531</ele>
        <time>2021-12-21T10:04:25.000Z</time>
      </trkpt>
      <trkpt lat="44.02925" lon="5.99577">
        <ele>531</ele>
        <time>2021-12-21T10:04:26.000Z</time>
      </trkpt>
      <trkpt lat="44.02925" lon="5.99579">
        <ele>531</ele>
        <time>2021-12-21T10:04:27.000Z</time>
      </trkpt>
      <trkpt lat="44.02925" lon="5.9958">
        <ele>531</ele>
        <time>2021-12-21T10:04:28.000Z</time>
      </trkpt>
      <trkpt lat="44.02925" lon="5.99582">
        <ele>531</ele>
        <time>2021-12-21T10:04:29.000Z</time>
      </trkpt>
      <trkpt lat="44.02924" lon="5.99583">
        <ele>531</ele>
        <time>2021-12-21T10:04:30.000Z</time>
      </trkpt>
      <trkpt lat="44.02924" lon="5.99584">
        <ele>531</ele>
        <time>2021-12-21T10:04:31.000Z</time>
      </trkpt>
      <trkpt lat="44.02924" lon="5.99586">
        <ele>531</ele>
        <time>2021-12-21T10:04:32.000Z</time>
      </trkpt>
      <trkpt lat="44.02924" lon="5.99587">
        <ele>531</ele>
        <time>2021-12-21T10:04:33.000Z</time>
      </trkpt>
      <trkpt lat="44.02924" lon="5.99589">
        <ele>531</ele>
        <time>2021-12-21T10:04:34.000Z</time>
      </trkpt>
      <trkpt lat="44.02923" lon="5.9959">
        <ele>531</ele>
        <time>2021-12-21T10:04:35.000Z</time>
      </trkpt>
      <trkpt lat="44.02923" lon="5.99591">
        <ele>531</ele>
        <time>2021-12-21T10:04:36.000Z</time>
      </trkpt>
      <trkpt lat="44.02923" lon="5.99593">
        <ele>531</ele>
        <time>2021-12-21T10:04:37.000Z</time>
      </trkpt>
      <trkpt lat="44.02922" lon="5.99594">
        <ele>531</ele>
        <time>2021-12-21T10:04:38.000Z</time>
      </trkpt>
      <trkpt lat="44.02921" lon="5.99595">
        <ele>531</ele>
        <time>2021-12-21T10:04:39.000Z</time>
      </trkpt>
      <trkpt lat="44.02921" lon="5.99596">
        <ele>531</ele>
        <time>2021-12-21T10:04:40.000Z</time>
      </trkpt>
      <trkpt lat="44.0292" lon="5.99597">
        <ele>531</ele>
        <time>2021-12-21T10:04:41.000Z</time>
      </trkpt>
      <trkpt lat="44.0292" lon="5.99598">
        <ele>531</ele>
        <time>2021-12-21T10:04:42.000Z</time>
      </trkpt>
      <trkpt lat="44.02919" lon="5.99599">
        <ele>531</ele>
        <time>2021-12-21T10:04:43.000Z</time>
      </trkpt>
      <trkpt lat="44.02919" lon="5.996">
        <ele>531</ele>
        <time>2021-12-21T10:04:44.000Z</time>
      </trkpt>
      <trkpt lat="44.02918" lon="5.99601">
        <ele>531</ele>
        <time>2021-12-21T10:04:45.000Z</time>
      </trkpt>
      <trkpt lat="44.02918" lon="5.99603">
        <ele>531</ele>
        <time>2021-12-21T10:04:46.000Z</time>
      </trkpt>
      <trkpt lat="44.02918" lon="5.99604">
        <ele>531</ele>
        <time>2021-12-21T10:04:47.000Z</time>
      </trkpt>
      <trkpt lat="44.02917" lon="5.99606">
        <ele>531</ele>
        <time>2021-12-21T10:04:48.000Z</time>
      </trkpt>
      <trkpt lat="44.02917" lon="5.99607">
        <ele>531</ele>
        <time>2021-12-21T10:04:49.000Z</time>
      </trkpt>
      <trkpt lat="44.02917" lon="5.99608">
        <ele>531</ele>
        <time>2021-12-21T10:04:50.000Z</time>
      </trkpt>
      <trkpt lat="44.02917" lon="5.9961">
        <ele>531</ele>
        <time>2021-12-21T10:04:51.000Z</time>
      </trkpt>
      <trkpt lat="44.02917" lon="5.99611">
        <ele>531</ele>
        <time>2021-12-21T10:04:52.000Z</time>
      </trkpt>
      <trkpt lat="44.02917" lon="5.99613">
        <ele>532</ele>
        <time>2021-12-21T10:04:53.000Z</time>
      </trkpt>
      <trkpt lat="44.02917" lon="5.99614">
        <ele>532</ele>
        <time>2021-12-21T10:04:54.000Z</time>
      </trkpt>
      <trkpt lat="44.02917" lon="5.99615">
        <ele>532</ele>
        <time>2021-12-21T10:04:55.000Z</time>
      </trkpt>
      <trkpt lat="44.02917" lon="5.99617">
        <ele>532</ele>
        <time>2021-12-21T10:04:56.000Z</time>
      </trkpt>
      <trkpt lat="44.02917" lon="5.99619">
        <ele>532</ele>
        <time>2021-12-21T10:04:57.000Z</time>
      </trkpt>
      <trkpt lat="44.02917" lon="5.9962">
        <ele>532</ele>
        <time>2021-12-21T10:04:58.000Z</time>
      </trkpt>
      <trkpt lat="44.02917" lon="5.99621">
        <ele>532</ele>
        <time>2021-12-21T10:04:59.000Z</time>
      </trkpt>
      <trkpt lat="44.02917" lon="5.99623">
        <ele>532</ele>
        <time>2021-12-21T10:05:00.000Z</time>
      </trkpt>
      <trkpt lat="44.02917" lon="5.99624">
        <ele>532</ele>
        <time>2021-12-21T10:05:01.000Z</time>
      </trkpt>
      <trkpt lat="44.02917" lon="5.99626">
        <ele>532</ele>
        <time>2021-12-21T10:05:02.000Z</time>
      </trkpt>
      <trkpt lat="44.02917" lon="5.99627">
        <ele>533</ele>
        <time>2021-12-21T10:05:03.000Z</time>
      </trkpt>
      <trkpt lat="44.02918" lon="5.99628">
        <ele>533</ele>
        <time>2021-12-21T10:05:04.000Z</time>
      </trkpt>
      <trkpt lat="44.02918" lon="5.9963">
        <ele>533</ele>
        <time>2021-12-21T10:05:05.000Z</time>
      </trkpt>
      <trkpt lat="44.02919" lon="5.99631">
        <ele>533</ele>
        <time>2021-12-21T10:05:06.000Z</time>
      </trkpt>
      <trkpt lat="44.02919" lon="5.99632">
        <ele>533</ele>
        <time>2021-12-21T10:05:07.000Z</time>
      </trkpt>
      <trkpt lat="44.02919" lon="5.99634">
        <ele>533</ele>
        <time>2021-12-21T10:05:08.000Z</time>
      </trkpt>
      <trkpt lat="44.02919" lon="5.99635">
        <ele>533</ele>
        <time>2021-12-21T10:05:09.000Z</time>
      </trkpt>
      <trkpt lat="44.0292" lon="5.99636">
        <ele>533</ele>
        <time>2021-12-21T10:05:10.000Z</time>
      </trkpt>
      <trkpt lat="44.0292" lon="5.99638">
        <ele>534</ele>
        <time>2021-12-21T10:05:11.000Z</time>
      </trkpt>
      <trkpt lat="44.02921" lon="5.99639">
        <ele>534</ele>
        <time>2021-12-21T10:05:12.000Z</time>
      </trkpt>
      <trkpt lat="44.02921" lon="5.99641">
        <ele>534</ele>
        <time>2021-12-21T10:05:13.000Z</time>
      </trkpt>
      <trkpt lat="44.02921" lon="5.99642">
        <ele>534</ele>
        <time>2021-12-21T10:05:14.000Z</time>
      </trkpt>
      <trkpt lat="44.02921" lon="5.99643">
        <ele>534</ele>
        <time>2021-12-21T10:05:15.000Z</time>
      </trkpt>
      <trkpt lat="44.02922" lon="5.99645">
        <ele>534</ele>
        <time>2021-12-21T10:05:16.000Z</time>
      </trkpt>
      <trkpt lat="44.02922" lon="5.99646">
        <ele>534</ele>
        <time>2021-12-21T10:05:17.000Z</time>
      </trkpt>
      <trkpt lat="44.02922" lon="5.99647">
        <ele>534</ele>
        <time>2021-12-21T10:05:18.000Z</time>
      </trkpt>
      <trkpt lat="44.02922" lon="5.99649">
        <ele>534</ele>
        <time>2021-12-21T10:05:19.000Z</time>
      </trkpt>
      <trkpt lat="44.02923" lon="5.9965">
        <ele>534</ele>
        <time>2021-12-21T10:05:20.000Z</time>
      </trkpt>
      <trkpt lat="44.02923" lon="5.99652">
        <ele>534</ele>
        <time>2021-12-21T10:05:21.000Z</time>
      </trkpt>
      <trkpt lat="44.02923" lon="5.99653">
        <ele>534</ele>
        <time>2021-12-21T10:05:22.000Z</time>
      </trkpt>
      <trkpt lat="44.02923" lon="5.99654">
        <ele>534</ele>
        <time>2021-12-21T10:05:23.000Z</time>
      </trkpt>
      <trkpt lat="44.02923" lon="5.99656">
        <ele>534</ele>
        <time>2021-12-21T10:05:24.000Z</time>
      </trkpt>
      <trkpt lat="44.02923" lon="5.99658">
        <ele>534</ele>
        <time>2021-12-21T10:05:25.000Z</time>
      </trkpt>
      <trkpt lat="44.02923" lon="5.99658">
        <ele>535</ele>
        <time>2021-12-21T10:05:26.000Z</time>
      </trkpt>
      <trkpt lat="44.02923" lon="5.99657">
        <ele>535</ele>
        <time>2021-12-21T10:05:27.000Z</time>
      </trkpt>
      <trkpt lat="44.02922" lon="5.99657">
        <ele>535</ele>
        <time>2021-12-21T10:05:28.000Z</time>
      </trkpt>
      <trkpt lat="44.02922" lon="5.99657">
        <ele>535</ele>
        <time>2021-12-21T10:05:29.000Z</time>
      </trkpt>
      <trkpt lat="44.02922" lon="5.99658">
        <ele>535</ele>
        <time>2021-12-21T10:05:30.000Z</time>
      </trkpt>
      <trkpt lat="44.02922" lon="5.99658">
        <ele>535</ele>
        <time>2021-12-21T10:05:31.000Z</time>
      </trkpt>
      <trkpt lat="44.02922" lon="5.99658">
        <ele>535</ele>
        <time>2021-12-21T10:05:32.000Z</time>
      </trkpt>
      <trkpt lat="44.02922" lon="5.99658">
        <ele>535</ele>
        <time>2021-12-21T10:05:33.000Z</time>
      </trkpt>
      <trkpt lat="44.02923" lon="5.99658">
        <ele>535</ele>
        <time>2021-12-21T10:05:34.000Z</time>
      </trkpt>
      <trkpt lat="44.02923" lon="5.99659">
        <ele>535</ele>
        <time>2021-12-21T10:05:35.000Z</time>
      </trkpt>
      <trkpt lat="44.02923" lon="5.99659">
        <ele>535</ele>
        <time>2021-12-21T10:05:36.000Z</time>
      </trkpt>
      <trkpt lat="44.02923" lon="5.99661">
        <ele>535</ele>
        <time>2021-12-21T10:05:37.000Z</time>
      </trkpt>
      <trkpt lat="44.02924" lon="5.99662">
        <ele>535</ele>
        <time>2021-12-21T10:05:38.000Z</time>
      </trkpt>
      <trkpt lat="44.02924" lon="5.99663">
        <ele>535</ele>
        <time>2021-12-21T10:05:39.000Z</time>
      </trkpt>
      <trkpt lat="44.02924" lon="5.99664">
        <ele>535</ele>
        <time>2021-12-21T10:05:40.000Z</time>
      </trkpt>
      <trkpt lat="44.02924" lon="5.99666">
        <ele>536</ele>
        <time>2021-12-21T10:05:41.000Z</time>
      </trkpt>
      <trkpt lat="44.02924" lon="5.99667">
        <ele>536</ele>
        <time>2021-12-21T10:05:42.000Z</time>
      </trkpt>
      <trkpt lat="44.02924" lon="5.99668">
        <ele>536</ele>
        <time>2021-12-21T10:05:43.000Z</time>
      </trkpt>
      <trkpt lat="44.02924" lon="5.9967">
        <ele>536</ele>
        <time>2021-12-21T10:05:44.000Z</time>
      </trkpt>
      <trkpt lat="44.02924" lon="5.99671">
        <ele>536</ele>
        <time>2021-12-21T10:05:45.000Z</time>
      </trkpt>
      <trkpt lat="44.02925" lon="5.99673">
        <ele>536</ele>
        <time>2021-12-21T10:05:46.000Z</time>
      </trkpt>
      <trkpt lat="44.02925" lon="5.99674">
        <ele>536</ele>
        <time>2021-12-21T10:05:47.000Z</time>
      </trkpt>
      <trkpt lat="44.02925" lon="5.99676">
        <ele>536</ele>
        <time>2021-12-21T10:05:48.000Z</time>
      </trkpt>
      <trkpt lat="44.02925" lon="5.99677">
        <ele>536</ele>
        <time>2021-12-21T10:05:49.000Z</time>
      </trkpt>
      <trkpt lat="44.02925" lon="5.99678">
        <ele>536</ele>
        <time>2021-12-21T10:05:50.000Z</time>
      </trkpt>
      <trkpt lat="44.02926" lon="5.9968">
        <ele>536</ele>
        <time>2021-12-21T10:05:51.000Z</time>
      </trkpt>
      <trkpt lat="44.02926" lon="5.99681">
        <ele>536</ele>
        <time>2021-12-21T10:05:52.000Z</time>
      </trkpt>
      <trkpt lat="44.02926" lon="5.99682">
        <ele>536</ele>
        <time>2021-12-21T10:05:53.000Z</time>
      </trkpt>
      <trkpt lat="44.02926" lon="5.99683">
        <ele>536</ele>
        <time>2021-12-21T10:05:54.000Z</time>
      </trkpt>
      <trkpt lat="44.02927" lon="5.99684">
        <ele>536</ele>
        <time>2021-12-21T10:05:55.000Z</time>
      </trkpt>
      <trkpt lat="44.02927" lon="5.99686">
        <ele>537</ele>
        <time>2021-12-21T10:05:56.000Z</time>
      </trkpt>
      <trkpt lat="44.02927" lon="5.99687">
        <ele>537</ele>
        <time>2021-12-21T10:05:57.000Z</time>
      </trkpt>
      <trkpt lat="44.02927" lon="5.99688">
        <ele>537</ele>
        <time>2021-12-21T10:05:58.000Z</time>
      </trkpt>
      <trkpt lat="44.02927" lon="5.9969">
        <ele>537</ele>
        <time>2021-12-21T10:05:59.000Z</time>
      </trkpt>
      <trkpt lat="44.02927" lon="5.99691">
        <ele>537</ele>
        <time>2021-12-21T10:06:00.000Z</time>
      </trkpt>
      <trkpt lat="44.02927" lon="5.99693">
        <ele>537</ele>
        <time>2021-12-21T10:06:01.000Z</time>
      </trkpt>
      <trkpt lat="44.02927" lon="5.99694">
        <ele>537</ele>
        <time>2021-12-21T10:06:02.000Z</time>
      </trkpt>
      <trkpt lat="44.02927" lon="5.99695">
        <ele>537</ele>
        <time>2021-12-21T10:06:03.000Z</time>
      </trkpt>
      <trkpt lat="44.02927" lon="5.99697">
        <ele>537</ele>
        <time>2021-12-21T10:06:04.000Z</time>
      </trkpt>
      <trkpt lat="44.02927" lon="5.99698">
        <ele>537</ele>
        <time>2021-12-21T10:06:05.000Z</time>
      </trkpt>
      <trkpt lat="44.02927" lon="5.997">
        <ele>537</ele>
        <time>2021-12-21T10:06:06.000Z</time>
      </trkpt>
      <trkpt lat="44.02927" lon="5.99701">
        <ele>537</ele>
        <time>2021-12-21T10:06:07.000Z</time>
      </trkpt>
      <trkpt lat="44.02927" lon="5.99703">
        <ele>537</ele>
        <time>2021-12-21T10:06:08.000Z</time>
      </trkpt>
      <trkpt lat="44.02927" lon="5.99704">
        <ele>538</ele>
        <time>2021-12-21T10:06:09.000Z</time>
      </trkpt>
      <trkpt lat="44.02928" lon="5.99706">
        <ele>538</ele>
        <time>2021-12-21T10:06:10.000Z</time>
      </trkpt>
      <trkpt lat="44.02928" lon="5.99707">
        <ele>538</ele>
        <time>2021-12-21T10:06:11.000Z</time>
      </trkpt>
      <trkpt lat="44.02928" lon="5.99709">
        <ele>538</ele>
        <time>2021-12-21T10:06:12.000Z</time>
      </trkpt>
      <trkpt lat="44.02928" lon="5.9971">
        <ele>538</ele>
        <time>2021-12-21T10:06:13.000Z</time>
      </trkpt>
      <trkpt lat="44.02928" lon="5.99712">
        <ele>538</ele>
        <time>2021-12-21T10:06:14.000Z</time>
      </trkpt>
      <trkpt lat="44.02928" lon="5.99714">
        <ele>539</ele>
        <time>2021-12-21T10:06:15.000Z</time>
      </trkpt>
      <trkpt lat="44.02928" lon="5.99715">
        <ele>539</ele>
        <time>2021-12-21T10:06:16.000Z</time>
      </trkpt>
      <trkpt lat="44.02928" lon="5.99716">
        <ele>539</ele>
        <time>2021-12-21T10:06:17.000Z</time>
      </trkpt>
      <trkpt lat="44.02928" lon="5.99718">
        <ele>539</ele>
        <time>2021-12-21T10:06:18.000Z</time>
      </trkpt>
      <trkpt lat="44.02928" lon="5.9972">
        <ele>539</ele>
        <time>2021-12-21T10:06:19.000Z</time>
      </trkpt>
      <trkpt lat="44.02928" lon="5.99721">
        <ele>539</ele>
        <time>2021-12-21T10:06:20.000Z</time>
      </trkpt>
      <trkpt lat="44.02928" lon="5.99722">
        <ele>539</ele>
        <time>2021-12-21T10:06:21.000Z</time>
      </trkpt>
      <trkpt lat="44.02927" lon="5.99724">
        <ele>539</ele>
        <time>2021-12-21T10:06:22.000Z</time>
      </trkpt>
      <trkpt lat="44.02927" lon="5.99725">
        <ele>539</ele>
        <time>2021-12-21T10:06:23.000Z</time>
      </trkpt>
      <trkpt lat="44.02927" lon="5.99726">
        <ele>539</ele>
        <time>2021-12-21T10:06:24.000Z</time>
      </trkpt>
      <trkpt lat="44.02927" lon="5.99728">
        <ele>540</ele>
        <time>2021-12-21T10:06:25.000Z</time>
      </trkpt>
      <trkpt lat="44.02927" lon="5.9973">
        <ele>540</ele>
        <time>2021-12-21T10:06:26.000Z</time>
      </trkpt>
      <trkpt lat="44.02927" lon="5.99731">
        <ele>540</ele>
        <time>2021-12-21T10:06:27.000Z</time>
      </trkpt>
      <trkpt lat="44.02927" lon="5.99732">
        <ele>540</ele>
        <time>2021-12-21T10:06:28.000Z</time>
      </trkpt>
      <trkpt lat="44.02927" lon="5.99734">
        <ele>540</ele>
        <time>2021-12-21T10:06:29.000Z</time>
      </trkpt>
      <trkpt lat="44.02927" lon="5.99735">
        <ele>540</ele>
        <time>2021-12-21T10:06:30.000Z</time>
      </trkpt>
      <trkpt lat="44.02927" lon="5.99737">
        <ele>540</ele>
        <time>2021-12-21T10:06:31.000Z</time>
      </trkpt>
      <trkpt lat="44.02927" lon="5.99738">
        <ele>540</ele>
        <time>2021-12-21T10:06:32.000Z</time>
      </trkpt>
      <trkpt lat="44.02927" lon="5.9974">
        <ele>540</ele>
        <time>2021-12-21T10:06:33.000Z</time>
      </trkpt>
      <trkpt lat="44.02926" lon="5.99741">
        <ele>540</ele>
        <time>2021-12-21T10:06:34.000Z</time>
      </trkpt>
      <trkpt lat="44.02926" lon="5.99742">
        <ele>540</ele>
        <time>2021-12-21T10:06:35.000Z</time>
      </trkpt>
      <trkpt lat="44.02926" lon="5.99743">
        <ele>540</ele>
        <time>2021-12-21T10:06:36.000Z</time>
      </trkpt>
      <trkpt lat="44.02926" lon="5.99745">
        <ele>540</ele>
        <time>2021-12-21T10:06:37.000Z</time>
      </trkpt>
      <trkpt lat="44.02926" lon="5.99746">
        <ele>540</ele>
        <time>2021-12-21T10:06:38.000Z</time>
      </trkpt>
      <trkpt lat="44.02926" lon="5.99748">
        <ele>540</ele>
        <time>2021-12-21T10:06:39.000Z</time>
      </trkpt>
      <trkpt lat="44.02926" lon="5.99749">
        <ele>540</ele>
        <time>2021-12-21T10:06:40.000Z</time>
      </trkpt>
      <trkpt lat="44.02926" lon="5.99751">
        <ele>540</ele>
        <time>2021-12-21T10:06:41.000Z</time>
      </trkpt>
      <trkpt lat="44.02926" lon="5.99752">
        <ele>540</ele>
        <time>2021-12-21T10:06:42.000Z</time>
      </trkpt>
      <trkpt lat="44.02926" lon="5.99753">
        <ele>540</ele>
        <time>2021-12-21T10:06:43.000Z</time>
      </trkpt>
      <trkpt lat="44.02926" lon="5.99755">
        <ele>540</ele>
        <time>2021-12-21T10:06:44.000Z</time>
      </trkpt>
      <trkpt lat="44.02926" lon="5.99756">
        <ele>540</ele>
        <time>2021-12-21T10:06:45.000Z</time>
      </trkpt>
      <trkpt lat="44.02927" lon="5.99758">
        <ele>540</ele>
        <time>2021-12-21T10:06:46.000Z</time>
      </trkpt>
      <trkpt lat="44.02927" lon="5.99759">
        <ele>540</ele>
        <time>2021-12-21T10:06:47.000Z</time>
      </trkpt>
      <trkpt lat="44.02927" lon="5.99761">
        <ele>540</ele>
        <time>2021-12-21T10:06:48.000Z</time>
      </trkpt>
      <trkpt lat="44.02927" lon="5.99762">
        <ele>541</ele>
        <time>2021-12-21T10:06:49.000Z</time>
      </trkpt>
      <trkpt lat="44.02927" lon="5.99763">
        <ele>541</ele>
        <time>2021-12-21T10:06:50.000Z</time>
      </trkpt>
      <trkpt lat="44.02928" lon="5.99765">
        <ele>541</ele>
        <time>2021-12-21T10:06:51.000Z</time>
      </trkpt>
      <trkpt lat="44.02928" lon="5.99766">
        <ele>541</ele>
        <time>2021-12-21T10:06:52.000Z</time>
      </trkpt>
      <trkpt lat="44.02928" lon="5.99768">
        <ele>541</ele>
        <time>2021-12-21T10:06:53.000Z</time>
      </trkpt>
      <trkpt lat="44.02928" lon="5.99769">
        <ele>541</ele>
        <time>2021-12-21T10:06:54.000Z</time>
      </trkpt>
      <trkpt lat="44.02929" lon="5.9977">
        <ele>541</ele>
        <time>2021-12-21T10:06:55.000Z</time>
      </trkpt>
      <trkpt lat="44.02929" lon="5.99772">
        <ele>541</ele>
        <time>2021-12-21T10:06:56.000Z</time>
      </trkpt>
      <trkpt lat="44.02929" lon="5.99773">
        <ele>541</ele>
        <time>2021-12-21T10:06:57.000Z</time>
      </trkpt>
      <trkpt lat="44.02929" lon="5.99775">
        <ele>541</ele>
        <time>2021-12-21T10:06:58.000Z</time>
      </trkpt>
      <trkpt lat="44.02929" lon="5.99776">
        <ele>541</ele>
        <time>2021-12-21T10:06:59.000Z</time>
      </trkpt>
      <trkpt lat="44.0293" lon="5.99778">
        <ele>542</ele>
        <time>2021-12-21T10:07:00.000Z</time>
      </trkpt>
      <trkpt lat="44.0293" lon="5.99779">
        <ele>542</ele>
        <time>2021-12-21T10:07:01.000Z</time>
      </trkpt>
      <trkpt lat="44.0293" lon="5.99781">
        <ele>542</ele>
        <time>2021-12-21T10:07:02.000Z</time>
      </trkpt>
      <trkpt lat="44.0293" lon="5.99782">
        <ele>542</ele>
        <time>2021-12-21T10:07:03.000Z</time>
      </trkpt>
      <trkpt lat="44.0293" lon="5.99784">
        <ele>542</ele>
        <time>2021-12-21T10:07:04.000Z</time>
      </trkpt>
      <trkpt lat="44.0293" lon="5.99785">
        <ele>542</ele>
        <time>2021-12-21T10:07:05.000Z</time>
      </trkpt>
      <trkpt lat="44.02931" lon="5.99786">
        <ele>542</ele>
        <time>2021-12-21T10:07:06.000Z</time>
      </trkpt>
      <trkpt lat="44.02931" lon="5.99788">
        <ele>542</ele>
        <time>2021-12-21T10:07:07.000Z</time>
      </trkpt>
      <trkpt lat="44.02931" lon="5.99789">
        <ele>542</ele>
        <time>2021-12-21T10:07:08.000Z</time>
      </trkpt>
      <trkpt lat="44.02931" lon="5.99791">
        <ele>543</ele>
        <time>2021-12-21T10:07:09.000Z</time>
      </trkpt>
      <trkpt lat="44.02931" lon="5.99792">
        <ele>543</ele>
        <time>2021-12-21T10:07:10.000Z</time>
      </trkpt>
      <trkpt lat="44.02931" lon="5.99793">
        <ele>543</ele>
        <time>2021-12-21T10:07:11.000Z</time>
      </trkpt>
      <trkpt lat="44.02931" lon="5.99795">
        <ele>543</ele>
        <time>2021-12-21T10:07:12.000Z</time>
      </trkpt>
      <trkpt lat="44.02931" lon="5.99797">
        <ele>543</ele>
        <time>2021-12-21T10:07:13.000Z</time>
      </trkpt>
      <trkpt lat="44.02932" lon="5.99798">
        <ele>543</ele>
        <time>2021-12-21T10:07:14.000Z</time>
      </trkpt>
      <trkpt lat="44.02932" lon="5.998">
        <ele>543</ele>
        <time>2021-12-21T10:07:15.000Z</time>
      </trkpt>
      <trkpt lat="44.02932" lon="5.99801">
        <ele>543</ele>
        <time>2021-12-21T10:07:16.000Z</time>
      </trkpt>
      <trkpt lat="44.02932" lon="5.99802">
        <ele>543</ele>
        <time>2021-12-21T10:07:17.000Z</time>
      </trkpt>
      <trkpt lat="44.02933" lon="5.99804">
        <ele>543</ele>
        <time>2021-12-21T10:07:18.000Z</time>
      </trkpt>
      <trkpt lat="44.02933" lon="5.99805">
        <ele>543</ele>
        <time>2021-12-21T10:07:19.000Z</time>
      </trkpt>
      <trkpt lat="44.02933" lon="5.99807">
        <ele>543</ele>
        <time>2021-12-21T10:07:20.000Z</time>
      </trkpt>
      <trkpt lat="44.02934" lon="5.99808">
        <ele>543</ele>
        <time>2021-12-21T10:07:21.000Z</time>
      </trkpt>
      <trkpt lat="44.02934" lon="5.99809">
        <ele>543</ele>
        <time>2021-12-21T10:07:22.000Z</time>
      </trkpt>
      <trkpt lat="44.02934" lon="5.99811">
        <ele>543</ele>
        <time>2021-12-21T10:07:23.000Z</time>
      </trkpt>
      <trkpt lat="44.02934" lon="5.99812">
        <ele>543</ele>
        <time>2021-12-21T10:07:24.000Z</time>
      </trkpt>
      <trkpt lat="44.02935" lon="5.99814">
        <ele>543</ele>
        <time>2021-12-21T10:07:25.000Z</time>
      </trkpt>
      <trkpt lat="44.02935" lon="5.99815">
        <ele>543</ele>
        <time>2021-12-21T10:07:26.000Z</time>
      </trkpt>
      <trkpt lat="44.02935" lon="5.99816">
        <ele>543</ele>
        <time>2021-12-21T10:07:27.000Z</time>
      </trkpt>
      <trkpt lat="44.02936" lon="5.99818">
        <ele>543</ele>
        <time>2021-12-21T10:07:28.000Z</time>
      </trkpt>
      <trkpt lat="44.02936" lon="5.99819">
        <ele>543</ele>
        <time>2021-12-21T10:07:29.000Z</time>
      </trkpt>
      <trkpt lat="44.02936" lon="5.9982">
        <ele>543</ele>
        <time>2021-12-21T10:07:30.000Z</time>
      </trkpt>
      <trkpt lat="44.02936" lon="5.99821">
        <ele>543</ele>
        <time>2021-12-21T10:07:31.000Z</time>
      </trkpt>
      <trkpt lat="44.02937" lon="5.99823">
        <ele>543</ele>
        <time>2021-12-21T10:07:32.000Z</time>
      </trkpt>
      <trkpt lat="44.02937" lon="5.99824">
        <ele>543</ele>
        <time>2021-12-21T10:07:33.000Z</time>
      </trkpt>
      <trkpt lat="44.02937" lon="5.99825">
        <ele>543</ele>
        <time>2021-12-21T10:07:34.000Z</time>
      </trkpt>
      <trkpt lat="44.02938" lon="5.99826">
        <ele>543</ele>
        <time>2021-12-21T10:07:35.000Z</time>
      </trkpt>
      <trkpt lat="44.02938" lon="5.99827">
        <ele>543</ele>
        <time>2021-12-21T10:07:36.000Z</time>
      </trkpt>
      <trkpt lat="44.02938" lon="5.99829">
        <ele>543</ele>
        <time>2021-12-21T10:07:37.000Z</time>
      </trkpt>
      <trkpt lat="44.02939" lon="5.9983">
        <ele>543</ele>
        <time>2021-12-21T10:07:38.000Z</time>
      </trkpt>
      <trkpt lat="44.02939" lon="5.99832">
        <ele>543</ele>
        <time>2021-12-21T10:07:39.000Z</time>
      </trkpt>
      <trkpt lat="44.0294" lon="5.99833">
        <ele>543</ele>
        <time>2021-12-21T10:07:40.000Z</time>
      </trkpt>
      <trkpt lat="44.0294" lon="5.99834">
        <ele>544</ele>
        <time>2021-12-21T10:07:41.000Z</time>
      </trkpt>
      <trkpt lat="44.0294" lon="5.99836">
        <ele>544</ele>
        <time>2021-12-21T10:07:42.000Z</time>
      </trkpt>
      <trkpt lat="44.02941" lon="5.99837">
        <ele>544</ele>
        <time>2021-12-21T10:07:43.000Z</time>
      </trkpt>
      <trkpt lat="44.02941" lon="5.99838">
        <ele>544</ele>
        <time>2021-12-21T10:07:44.000Z</time>
      </trkpt>
      <trkpt lat="44.02942" lon="5.9984">
        <ele>544</ele>
        <time>2021-12-21T10:07:45.000Z</time>
      </trkpt>
      <trkpt lat="44.02942" lon="5.99841">
        <ele>544</ele>
        <time>2021-12-21T10:07:46.000Z</time>
      </trkpt>
      <trkpt lat="44.02943" lon="5.99842">
        <ele>544</ele>
        <time>2021-12-21T10:07:47.000Z</time>
      </trkpt>
      <trkpt lat="44.02943" lon="5.99843">
        <ele>544</ele>
        <time>2021-12-21T10:07:48.000Z</time>
      </trkpt>
      <trkpt lat="44.02943" lon="5.99845">
        <ele>544</ele>
        <time>2021-12-21T10:07:49.000Z</time>
      </trkpt>
      <trkpt lat="44.02944" lon="5.99846">
        <ele>544</ele>
        <time>2021-12-21T10:07:50.000Z</time>
      </trkpt>
      <trkpt lat="44.02944" lon="5.99847">
        <ele>545</ele>
        <time>2021-12-21T10:07:51.000Z</time>
      </trkpt>
      <trkpt lat="44.02944" lon="5.99849">
        <ele>545</ele>
        <time>2021-12-21T10:07:52.000Z</time>
      </trkpt>
      <trkpt lat="44.02945" lon="5.9985">
        <ele>545</ele>
        <time>2021-12-21T10:07:53.000Z</time>
      </trkpt>
      <trkpt lat="44.02945" lon="5.99851">
        <ele>545</ele>
        <time>2021-12-21T10:07:54.000Z</time>
      </trkpt>
      <trkpt lat="44.02945" lon="5.99853">
        <ele>545</ele>
        <time>2021-12-21T10:07:55.000Z</time>
      </trkpt>
      <trkpt lat="44.02945" lon="5.99854">
        <ele>545</ele>
        <time>2021-12-21T10:07:56.000Z</time>
      </trkpt>
      <trkpt lat="44.02946" lon="5.99855">
        <ele>546</ele>
        <time>2021-12-21T10:07:57.000Z</time>
      </trkpt>
      <trkpt lat="44.02946" lon="5.99857">
        <ele>546</ele>
        <time>2021-12-21T10:07:58.000Z</time>
      </trkpt>
      <trkpt lat="44.02946" lon="5.99858">
        <ele>546</ele>
        <time>2021-12-21T10:07:59.000Z</time>
      </trkpt>
      <trkpt lat="44.02946" lon="5.99858">
        <ele>546</ele>
        <time>2021-12-21T10:08:00.000Z</time>
      </trkpt>
      <trkpt lat="44.02946" lon="5.99858">
        <ele>546</ele>
        <time>2021-12-21T10:08:01.000Z</time>
      </trkpt>
      <trkpt lat="44.02946" lon="5.99858">
        <ele>546</ele>
        <time>2021-12-21T10:08:02.000Z</time>
      </trkpt>
      <trkpt lat="44.02946" lon="5.99858">
        <ele>546</ele>
        <time>2021-12-21T10:08:03.000Z</time>
      </trkpt>
      <trkpt lat="44.02946" lon="5.99858">
        <ele>546</ele>
        <time>2021-12-21T10:08:04.000Z</time>
      </trkpt>
      <trkpt lat="44.02946" lon="5.99858">
        <ele>546</ele>
        <time>2021-12-21T10:08:05.000Z</time>
      </trkpt>
      <trkpt lat="44.02946" lon="5.99858">
        <ele>546</ele>
        <time>2021-12-21T10:08:06.000Z</time>
      </trkpt>
      <trkpt lat="44.02946" lon="5.99858">
        <ele>546</ele>
        <time>2021-12-21T10:08:07.000Z</time>
      </trkpt>
      <trkpt lat="44.02946" lon="5.99858">
        <ele>546</ele>
        <time>2021-12-21T10:08:08.000Z</time>
      </trkpt>
      <trkpt lat="44.02946" lon="5.99858">
        <ele>546</ele>
        <time>2021-12-21T10:08:09.000Z</time>
      </trkpt>
      <trkpt lat="44.02946" lon="5.99858">
        <ele>546</ele>
        <time>2021-12-21T10:08:10.000Z</time>
      </trkpt>
      <trkpt lat="44.02946" lon="5.99858">
        <ele>546</ele>
        <time>2021-12-21T10:08:11.000Z</time>
      </trkpt>
      <trkpt lat="44.02946" lon="5.99858">
        <ele>546</ele>
        <time>2021-12-21T10:08:12.000Z</time>
      </trkpt>
      <trkpt lat="44.02946" lon="5.99858">
        <ele>546</ele>
        <time>2021-12-21T10:08:13.000Z</time>
      </trkpt>
      <trkpt lat="44.02946" lon="5.99858">
        <ele>546</ele>
        <time>2021-12-21T10:08:14.000Z</time>
      </trkpt>
      <trkpt lat="44.02946" lon="5.99858">
        <ele>546</ele>
        <time>2021-12-21T10:08:15.000Z</time>
      </trkpt>
      <trkpt lat="44.02946" lon="5.99858">
        <ele>546</ele>
        <time>2021-12-21T10:08:16.000Z</time>
      </trkpt>
      <trkpt lat="44.02946" lon="5.99858">
        <ele>546</ele>
        <time>2021-12-21T10:08:17.000Z</time>
      </trkpt>
      <trkpt lat="44.02946" lon="5.99858">
        <ele>546</ele>
        <time>2021-12-21T10:08:18.000Z</time>
      </trkpt>
      <trkpt lat="44.02946" lon="5.99858">
        <ele>546</ele>
        <time>2021-12-21T10:08:19.000Z</time>
      </trkpt>
      <trkpt lat="44.02946" lon="5.99859">
        <ele>546</ele>
        <time>2021-12-21T10:08:20.000Z</time>
      </trkpt>
      <trkpt lat="44.02946" lon="5.99858">
        <ele>546</ele>
        <time>2021-12-21T10:08:21.000Z</time>
      </trkpt>
      <trkpt lat="44.02946" lon="5.99859">
        <ele>546</ele>
        <time>2021-12-21T10:08:22.000Z</time>
      </trkpt>
      <trkpt lat="44.02946" lon="5.99859">
        <ele>546</ele>
        <time>2021-12-21T10:08:23.000Z</time>
      </trkpt>
      <trkpt lat="44.02946" lon="5.99859">
        <ele>546</ele>
        <time>2021-12-21T10:08:24.000Z</time>
      </trkpt>
      <trkpt lat="44.02946" lon="5.99859">
        <ele>546</ele>
        <time>2021-12-21T10:08:25.000Z</time>
      </trkpt>
      <trkpt lat="44.02946" lon="5.99859">
        <ele>546</ele>
        <time>2021-12-21T10:08:26.000Z</time>
      </trkpt>
      <trkpt lat="44.02946" lon="5.99859">
        <ele>546</ele>
        <time>2021-12-21T10:08:27.000Z</time>
      </trkpt>
      <trkpt lat="44.02946" lon="5.99859">
        <ele>546</ele>
        <time>2021-12-21T10:08:28.000Z</time>
      </trkpt>
      <trkpt lat="44.02946" lon="5.99859">
        <ele>546</ele>
        <time>2021-12-21T10:08:29.000Z</time>
      </trkpt>
      <trkpt lat="44.02946" lon="5.99859">
        <ele>546</ele>
        <time>2021-12-21T10:08:30.000Z</time>
      </trkpt>
      <trkpt lat="44.02946" lon="5.99859">
        <ele>546</ele>
        <time>2021-12-21T10:08:31.000Z</time>
      </trkpt>
      <trkpt lat="44.02946" lon="5.99859">
        <ele>546</ele>
        <time>2021-12-21T10:08:32.000Z</time>
      </trkpt>
      <trkpt lat="44.02946" lon="5.99859">
        <ele>546</ele>
        <time>2021-12-21T10:08:33.000Z</time>
      </trkpt>
      <trkpt lat="44.02946" lon="5.99859">
        <ele>546</ele>
        <time>2021-12-21T10:08:34.000Z</time>
      </trkpt>
      <trkpt lat="44.02946" lon="5.99859">
        <ele>546</ele>
        <time>2021-12-21T10:08:35.000Z</time>
      </trkpt>
      <trkpt lat="44.02946" lon="5.99859">
        <ele>546</ele>
        <time>2021-12-21T10:08:36.000Z</time>
      </trkpt>
      <trkpt lat="44.02946" lon="5.99859">
        <ele>546</ele>
        <time>2021-12-21T10:08:37.000Z</time>
      </trkpt>
      <trkpt lat="44.02946" lon="5.99859">
        <ele>546</ele>
        <time>2021-12-21T10:08:38.000Z</time>
      </trkpt>
      <trkpt lat="44.02946" lon="5.99859">
        <ele>546</ele>
        <time>2021-12-21T10:08:39.000Z</time>
      </trkpt>
      <trkpt lat="44.02946" lon="5.99859">
        <ele>546</ele>
        <time>2021-12-21T10:08:40.000Z</time>
      </trkpt>
      <trkpt lat="44.02946" lon="5.99859">
        <ele>546</ele>
        <time>2021-12-21T10:08:41.000Z</time>
      </trkpt>
      <trkpt lat="44.02946" lon="5.99859">
        <ele>546</ele>
        <time>2021-12-21T10:08:42.000Z</time>
      </trkpt>
      <trkpt lat="44.02946" lon="5.99859">
        <ele>546</ele>
        <time>2021-12-21T10:08:43.000Z</time>
      </trkpt>
      <trkpt lat="44.02946" lon="5.99859">
        <ele>546</ele>
        <time>2021-12-21T10:08:44.000Z</time>
      </trkpt>
      <trkpt lat="44.02946" lon="5.99859">
        <ele>546</ele>
        <time>2021-12-21T10:08:45.000Z</time>
      </trkpt>
      <trkpt lat="44.02946" lon="5.99859">
        <ele>546</ele>
        <time>2021-12-21T10:08:46.000Z</time>
      </trkpt>
      <trkpt lat="44.02946" lon="5.99859">
        <ele>546</ele>
        <time>2021-12-21T10:08:47.000Z</time>
      </trkpt>
      <trkpt lat="44.02946" lon="5.99859">
        <ele>546</ele>
        <time>2021-12-21T10:08:48.000Z</time>
      </trkpt>
      <trkpt lat="44.02946" lon="5.99859">
        <ele>546</ele>
        <time>2021-12-21T10:08:49.000Z</time>
      </trkpt>
      <trkpt lat="44.02946" lon="5.99859">
        <ele>546</ele>
        <time>2021-12-21T10:08:50.000Z</time>
      </trkpt>
      <trkpt lat="44.02946" lon="5.99859">
        <ele>546</ele>
        <time>2021-12-21T10:08:51.000Z</time>
      </trkpt>
      <trkpt lat="44.02946" lon="5.99859">
        <ele>546</ele>
        <time>2021-12-21T10:08:52.000Z</time>
      </trkpt>
      <trkpt lat="44.02946" lon="5.99859">
        <ele>546</ele>
        <time>2021-12-21T10:08:53.000Z</time>
      </trkpt>
      <trkpt lat="44.02946" lon="5.99859">
        <ele>546</ele>
        <time>2021-12-21T10:08:54.000Z</time>
      </trkpt>
      <trkpt lat="44.02946" lon="5.99859">
        <ele>546</ele>
        <time>2021-12-21T10:08:55.000Z</time>
      </trkpt>
      <trkpt lat="44.02946" lon="5.99859">
        <ele>546</ele>
        <time>2021-12-21T10:08:56.000Z</time>
      </trkpt>
      <trkpt lat="44.02946" lon="5.99859">
        <ele>546</ele>
        <time>2021-12-21T10:08:57.000Z</time>
      </trkpt>
      <trkpt lat="44.02946" lon="5.99859">
        <ele>546</ele>
        <time>2021-12-21T10:08:58.000Z</time>
      </trkpt>
      <trkpt lat="44.02946" lon="5.99859">
        <ele>546</ele>
        <time>2021-12-21T10:08:59.000Z</time>
      </trkpt>
      <trkpt lat="44.02946" lon="5.99859">
        <ele>546</ele>
        <time>2021-12-21T10:09:00.000Z</time>
      </trkpt>
      <trkpt lat="44.02946" lon="5.99859">
        <ele>546</ele>
        <time>2021-12-21T10:09:01.000Z</time>
      </trkpt>
      <trkpt lat="44.02946" lon="5.99859">
        <ele>546</ele>
        <time>2021-12-21T10:09:02.000Z</time>
      </trkpt>
      <trkpt lat="44.02946" lon="5.99859">
        <ele>546</ele>
        <time>2021-12-21T10:09:03.000Z</time>
      </trkpt>
      <trkpt lat="44.02946" lon="5.99859">
        <ele>546</ele>
        <time>2021-12-21T10:09:04.000Z</time>
      </trkpt>
      <trkpt lat="44.02946" lon="5.99859">
        <ele>546</ele>
        <time>2021-12-21T10:09:05.000Z</time>
      </trkpt>
      <trkpt lat="44.02946" lon="5.99859">
        <ele>546</ele>
        <time>2021-12-21T10:09:06.000Z</time>
      </trkpt>
      <trkpt lat="44.02946" lon="5.99859">
        <ele>546</ele>
        <time>2021-12-21T10:09:07.000Z</time>
      </trkpt>
      <trkpt lat="44.02946" lon="5.99859">
        <ele>546</ele>
        <time>2021-12-21T10:09:08.000Z</time>
      </trkpt>
      <trkpt lat="44.02946" lon="5.99859">
        <ele>546</ele>
        <time>2021-12-21T10:09:09.000Z</time>
      </trkpt>
      <trkpt lat="44.02946" lon="5.99859">
        <ele>546</ele>
        <time>2021-12-21T10:09:10.000Z</time>
      </trkpt>
      <trkpt lat="44.02946" lon="5.99859">
        <ele>546</ele>
        <time>2021-12-21T10:09:11.000Z</time>
      </trkpt>
      <trkpt lat="44.02946" lon="5.99859">
        <ele>546</ele>
        <time>2021-12-21T10:09:12.000Z</time>
      </trkpt>
      <trkpt lat="44.02946" lon="5.99859">
        <ele>546</ele>
        <time>2021-12-21T10:09:13.000Z</time>
      </trkpt>
      <trkpt lat="44.02946" lon="5.99859">
        <ele>546</ele>
        <time>2021-12-21T10:09:14.000Z</time>
      </trkpt>
      <trkpt lat="44.02946" lon="5.99859">
        <ele>546</ele>
        <time>2021-12-21T10:09:15.000Z</time>
      </trkpt>
      <trkpt lat="44.02946" lon="5.99859">
        <ele>546</ele>
        <time>2021-12-21T10:09:16.000Z</time>
      </trkpt>
      <trkpt lat="44.02946" lon="5.99859">
        <ele>546</ele>
        <time>2021-12-21T10:09:17.000Z</time>
      </trkpt>
      <trkpt lat="44.02946" lon="5.99859">
        <ele>546</ele>
        <time>2021-12-21T10:09:18.000Z</time>
      </trkpt>
      <trkpt lat="44.02946" lon="5.99859">
        <ele>546</ele>
        <time>2021-12-21T10:09:19.000Z</time>
      </trkpt>
      <trkpt lat="44.02946" lon="5.99859">
        <ele>546</ele>
        <time>2021-12-21T10:09:20.000Z</time>
      </trkpt>
      <trkpt lat="44.02946" lon="5.99859">
        <ele>546</ele>
        <time>2021-12-21T10:09:21.000Z</time>
      </trkpt>
      <trkpt lat="44.02946" lon="5.99859">
        <ele>546</ele>
        <time>2021-12-21T10:09:22.000Z</time>
      </trkpt>
      <trkpt lat="44.02946" lon="5.99859">
        <ele>546</ele>
        <time>2021-12-21T10:09:23.000Z</time>
      </trkpt>
      <trkpt lat="44.02946" lon="5.99859">
        <ele>546</ele>
        <time>2021-12-21T10:09:24.000Z</time>
      </trkpt>
      <trkpt lat="44.02946" lon="5.99859">
        <ele>546</ele>
        <time>2021-12-21T10:09:25.000Z</time>
      </trkpt>
      <trkpt lat="44.02946" lon="5.99859">
        <ele>546</ele>
        <time>2021-12-21T10:09:26.000Z</time>
      </trkpt>
      <trkpt lat="44.02946" lon="5.99859">
        <ele>546</ele>
        <time>2021-12-21T10:09:27.000Z</time>
      </trkpt>
      <trkpt lat="44.02946" lon="5.99859">
        <ele>546</ele>
        <time>2021-12-21T10:09:28.000Z</time>
      </trkpt>
      <trkpt lat="44.02946" lon="5.99859">
        <ele>546</ele>
        <time>2021-12-21T10:09:29.000Z</time>
      </trkpt>
      <trkpt lat="44.02946" lon="5.99859">
        <ele>546</ele>
        <time>2021-12-21T10:09:30.000Z</time>
      </trkpt>
      <trkpt lat="44.02946" lon="5.99859">
        <ele>546</ele>
        <time>2021-12-21T10:09:31.000Z</time>
      </trkpt>
      <trkpt lat="44.02946" lon="5.99859">
        <ele>546</ele>
        <time>2021-12-21T10:09:32.000Z</time>
      </trkpt>
      <trkpt lat="44.02946" lon="5.99859">
        <ele>546</ele>
        <time>2021-12-21T10:09:33.000Z</time>
      </trkpt>
      <trkpt lat="44.02946" lon="5.99859">
        <ele>546</ele>
        <time>2021-12-21T10:09:34.000Z</time>
      </trkpt>
      <trkpt lat="44.02946" lon="5.99859">
        <ele>546</ele>
        <time>2021-12-21T10:09:35.000Z</time>
      </trkpt>
      <trkpt lat="44.02946" lon="5.99859">
        <ele>546</ele>
        <time>2021-12-21T10:09:36.000Z</time>
      </trkpt>
      <trkpt lat="44.02946" lon="5.99859">
        <ele>546</ele>
        <time>2021-12-21T10:09:37.000Z</time>
      </trkpt>
      <trkpt lat="44.02946" lon="5.99859">
        <ele>546</ele>
        <time>2021-12-21T10:09:38.000Z</time>
      </trkpt>
      <trkpt lat="44.02946" lon="5.9986">
        <ele>546</ele>
        <time>2021-12-21T10:09:39.000Z</time>
      </trkpt>
      <trkpt lat="44.02946" lon="5.9986">
        <ele>546</ele>
        <time>2021-12-21T10:09:40.000Z</time>
      </trkpt>
      <trkpt lat="44.02946" lon="5.9986">
        <ele>546</ele>
        <time>2021-12-21T10:09:41.000Z</time>
      </trkpt>
      <trkpt lat="44.02946" lon="5.9986">
        <ele>546</ele>
        <time>2021-12-21T10:09:42.000Z</time>
      </trkpt>
      <trkpt lat="44.02946" lon="5.9986">
        <ele>546</ele>
        <time>2021-12-21T10:09:43.000Z</time>
      </trkpt>
      <trkpt lat="44.02946" lon="5.9986">
        <ele>546</ele>
        <time>2021-12-21T10:09:44.000Z</time>
      </trkpt>
      <trkpt lat="44.02946" lon="5.9986">
        <ele>546</ele>
        <time>2021-12-21T10:09:45.000Z</time>
      </trkpt>
      <trkpt lat="44.02946" lon="5.9986">
        <ele>546</ele>
        <time>2021-12-21T10:09:46.000Z</time>
      </trkpt>
      <trkpt lat="44.02946" lon="5.9986">
        <ele>546</ele>
        <time>2021-12-21T10:09:47.000Z</time>
      </trkpt>
      <trkpt lat="44.02946" lon="5.9986">
        <ele>546</ele>
        <time>2021-12-21T10:09:48.000Z</time>
      </trkpt>
      <trkpt lat="44.02946" lon="5.9986">
        <ele>546</ele>
        <time>2021-12-21T10:09:49.000Z</time>
      </trkpt>
      <trkpt lat="44.02946" lon="5.9986">
        <ele>546</ele>
        <time>2021-12-21T10:09:50.000Z</time>
      </trkpt>
      <trkpt lat="44.02946" lon="5.9986">
        <ele>546</ele>
        <time>2021-12-21T10:09:51.000Z</time>
      </trkpt>
      <trkpt lat="44.02946" lon="5.9986">
        <ele>546</ele>
        <time>2021-12-21T10:09:52.000Z</time>
      </trkpt>
      <trkpt lat="44.02946" lon="5.9986">
        <ele>546</ele>
        <time>2021-12-21T10:09:53.000Z</time>
      </trkpt>
      <trkpt lat="44.02946" lon="5.9986">
        <ele>546</ele>
        <time>2021-12-21T10:09:54.000Z</time>
      </trkpt>
      <trkpt lat="44.02946" lon="5.99859">
        <ele>546</ele>
        <time>2021-12-21T10:09:55.000Z</time>
      </trkpt>
      <trkpt lat="44.02946" lon="5.99859">
        <ele>546</ele>
        <time>2021-12-21T10:09:56.000Z</time>
      </trkpt>
      <trkpt lat="44.02946" lon="5.9986">
        <ele>546</ele>
        <time>2021-12-21T10:09:57.000Z</time>
      </trkpt>
      <trkpt lat="44.02946" lon="5.9986">
        <ele>546</ele>
        <time>2021-12-21T10:09:58.000Z</time>
      </trkpt>
      <trkpt lat="44.02946" lon="5.9986">
        <ele>546</ele>
        <time>2021-12-21T10:09:59.000Z</time>
      </trkpt>
      <trkpt lat="44.02946" lon="5.9986">
        <ele>546</ele>
        <time>2021-12-21T10:10:00.000Z</time>
      </trkpt>
      <trkpt lat="44.02946" lon="5.9986">
        <ele>546</ele>
        <time>2021-12-21T10:10:01.000Z</time>
      </trkpt>
      <trkpt lat="44.02946" lon="5.9986">
        <ele>546</ele>
        <time>2021-12-21T10:10:02.000Z</time>
      </trkpt>
      <trkpt lat="44.02946" lon="5.9986">
        <ele>546</ele>
        <time>2021-12-21T10:10:03.000Z</time>
      </trkpt>
      <trkpt lat="44.02946" lon="5.9986">
        <ele>546</ele>
        <time>2021-12-21T10:10:04.000Z</time>
      </trkpt>
      <trkpt lat="44.02946" lon="5.9986">
        <ele>546</ele>
        <time>2021-12-21T10:10:05.000Z</time>
      </trkpt>
      <trkpt lat="44.02946" lon="5.99861">
        <ele>546</ele>
        <time>2021-12-21T10:10:06.000Z</time>
      </trkpt>
      <trkpt lat="44.02946" lon="5.99862">
        <ele>547</ele>
        <time>2021-12-21T10:10:07.000Z</time>
      </trkpt>
      <trkpt lat="44.02946" lon="5.99863">
        <ele>547</ele>
        <time>2021-12-21T10:10:08.000Z</time>
      </trkpt>
      <trkpt lat="44.02947" lon="5.99865">
        <ele>547</ele>
        <time>2021-12-21T10:10:09.000Z</time>
      </trkpt>
      <trkpt lat="44.02946" lon="5.99866">
        <ele>547</ele>
        <time>2021-12-21T10:10:10.000Z</time>
      </trkpt>
      <trkpt lat="44.02946" lon="5.99868">
        <ele>547</ele>
        <time>2021-12-21T10:10:11.000Z</time>
      </trkpt>
      <trkpt lat="44.02946" lon="5.99869">
        <ele>547</ele>
        <time>2021-12-21T10:10:12.000Z</time>
      </trkpt>
      <trkpt lat="44.02946" lon="5.99871">
        <ele>547</ele>
        <time>2021-12-21T10:10:13.000Z</time>
      </trkpt>
      <trkpt lat="44.02946" lon="5.99872">
        <ele>547</ele>
        <time>2021-12-21T10:10:14.000Z</time>
      </trkpt>
      <trkpt lat="44.02946" lon="5.99874">
        <ele>547</ele>
        <time>2021-12-21T10:10:15.000Z</time>
      </trkpt>
      <trkpt lat="44.02946" lon="5.99875">
        <ele>547</ele>
        <time>2021-12-21T10:10:16.000Z</time>
      </trkpt>
      <trkpt lat="44.02946" lon="5.99877">
        <ele>547</ele>
        <time>2021-12-21T10:10:17.000Z</time>
      </trkpt>
      <trkpt lat="44.02946" lon="5.99878">
        <ele>547</ele>
        <time>2021-12-21T10:10:18.000Z</time>
      </trkpt>
      <trkpt lat="44.02946" lon="5.9988">
        <ele>547</ele>
        <time>2021-12-21T10:10:19.000Z</time>
      </trkpt>
      <trkpt lat="44.02946" lon="5.99882">
        <ele>547</ele>
        <time>2021-12-21T10:10:20.000Z</time>
      </trkpt>
      <trkpt lat="44.02946" lon="5.99883">
        <ele>547</ele>
        <time>2021-12-21T10:10:21.000Z</time>
      </trkpt>
      <trkpt lat="44.02946" lon="5.99885">
        <ele>547</ele>
        <time>2021-12-21T10:10:22.000Z</time>
      </trkpt>
      <trkpt lat="44.02945" lon="5.99886">
        <ele>547</ele>
        <time>2021-12-21T10:10:23.000Z</time>
      </trkpt>
      <trkpt lat="44.02945" lon="5.99888">
        <ele>547</ele>
        <time>2021-12-21T10:10:24.000Z</time>
      </trkpt>
      <trkpt lat="44.02945" lon="5.99889">
        <ele>547</ele>
        <time>2021-12-21T10:10:25.000Z</time>
      </trkpt>
      <trkpt lat="44.02945" lon="5.9989">
        <ele>547</ele>
        <time>2021-12-21T10:10:26.000Z</time>
      </trkpt>
      <trkpt lat="44.02945" lon="5.99892">
        <ele>547</ele>
        <time>2021-12-21T10:10:27.000Z</time>
      </trkpt>
      <trkpt lat="44.02944" lon="5.99893">
        <ele>548</ele>
        <time>2021-12-21T10:10:28.000Z</time>
      </trkpt>
      <trkpt lat="44.02944" lon="5.99895">
        <ele>548</ele>
        <time>2021-12-21T10:10:29.000Z</time>
      </trkpt>
      <trkpt lat="44.02944" lon="5.99896">
        <ele>548</ele>
        <time>2021-12-21T10:10:30.000Z</time>
      </trkpt>
      <trkpt lat="44.02944" lon="5.99897">
        <ele>548</ele>
        <time>2021-12-21T10:10:31.000Z</time>
      </trkpt>
      <trkpt lat="44.02944" lon="5.99899">
        <ele>548</ele>
        <time>2021-12-21T10:10:32.000Z</time>
      </trkpt>
      <trkpt lat="44.02943" lon="5.999">
        <ele>548</ele>
        <time>2021-12-21T10:10:33.000Z</time>
      </trkpt>
      <trkpt lat="44.02943" lon="5.99901">
        <ele>548</ele>
        <time>2021-12-21T10:10:34.000Z</time>
      </trkpt>
      <trkpt lat="44.02943" lon="5.99902">
        <ele>548</ele>
        <time>2021-12-21T10:10:35.000Z</time>
      </trkpt>
      <trkpt lat="44.02943" lon="5.99904">
        <ele>548</ele>
        <time>2021-12-21T10:10:36.000Z</time>
      </trkpt>
      <trkpt lat="44.02942" lon="5.99905">
        <ele>549</ele>
        <time>2021-12-21T10:10:37.000Z</time>
      </trkpt>
      <trkpt lat="44.02942" lon="5.99907">
        <ele>549</ele>
        <time>2021-12-21T10:10:38.000Z</time>
      </trkpt>
      <trkpt lat="44.02942" lon="5.99908">
        <ele>549</ele>
        <time>2021-12-21T10:10:39.000Z</time>
      </trkpt>
      <trkpt lat="44.02942" lon="5.9991">
        <ele>549</ele>
        <time>2021-12-21T10:10:40.000Z</time>
      </trkpt>
      <trkpt lat="44.02942" lon="5.99911">
        <ele>549</ele>
        <time>2021-12-21T10:10:41.000Z</time>
      </trkpt>
      <trkpt lat="44.02942" lon="5.99913">
        <ele>549</ele>
        <time>2021-12-21T10:10:42.000Z</time>
      </trkpt>
      <trkpt lat="44.02942" lon="5.99914">
        <ele>549</ele>
        <time>2021-12-21T10:10:43.000Z</time>
      </trkpt>
      <trkpt lat="44.02942" lon="5.99916">
        <ele>549</ele>
        <time>2021-12-21T10:10:44.000Z</time>
      </trkpt>
      <trkpt lat="44.02942" lon="5.99917">
        <ele>549</ele>
        <time>2021-12-21T10:10:45.000Z</time>
      </trkpt>
      <trkpt lat="44.02942" lon="5.99918">
        <ele>550</ele>
        <time>2021-12-21T10:10:46.000Z</time>
      </trkpt>
      <trkpt lat="44.02943" lon="5.9992">
        <ele>550</ele>
        <time>2021-12-21T10:10:47.000Z</time>
      </trkpt>
      <trkpt lat="44.02943" lon="5.99922">
        <ele>550</ele>
        <time>2021-12-21T10:10:48.000Z</time>
      </trkpt>
      <trkpt lat="44.02943" lon="5.99923">
        <ele>550</ele>
        <time>2021-12-21T10:10:49.000Z</time>
      </trkpt>
      <trkpt lat="44.02943" lon="5.99924">
        <ele>550</ele>
        <time>2021-12-21T10:10:50.000Z</time>
      </trkpt>
      <trkpt lat="44.02943" lon="5.99926">
        <ele>550</ele>
        <time>2021-12-21T10:10:51.000Z</time>
      </trkpt>
      <trkpt lat="44.02943" lon="5.99927">
        <ele>550</ele>
        <time>2021-12-21T10:10:52.000Z</time>
      </trkpt>
      <trkpt lat="44.02943" lon="5.99929">
        <ele>550</ele>
        <time>2021-12-21T10:10:53.000Z</time>
      </trkpt>
      <trkpt lat="44.02943" lon="5.9993">
        <ele>550</ele>
        <time>2021-12-21T10:10:54.000Z</time>
      </trkpt>
      <trkpt lat="44.02943" lon="5.99932">
        <ele>550</ele>
        <time>2021-12-21T10:10:55.000Z</time>
      </trkpt>
      <trkpt lat="44.02943" lon="5.99933">
        <ele>550</ele>
        <time>2021-12-21T10:10:56.000Z</time>
      </trkpt>
      <trkpt lat="44.02943" lon="5.99935">
        <ele>550</ele>
        <time>2021-12-21T10:10:57.000Z</time>
      </trkpt>
      <trkpt lat="44.02943" lon="5.99936">
        <ele>550</ele>
        <time>2021-12-21T10:10:58.000Z</time>
      </trkpt>
      <trkpt lat="44.02944" lon="5.99938">
        <ele>550</ele>
        <time>2021-12-21T10:10:59.000Z</time>
      </trkpt>
      <trkpt lat="44.02944" lon="5.99939">
        <ele>550</ele>
        <time>2021-12-21T10:11:00.000Z</time>
      </trkpt>
      <trkpt lat="44.02944" lon="5.99941">
        <ele>550</ele>
        <time>2021-12-21T10:11:01.000Z</time>
      </trkpt>
      <trkpt lat="44.02944" lon="5.99942">
        <ele>550</ele>
        <time>2021-12-21T10:11:02.000Z</time>
      </trkpt>
      <trkpt lat="44.02944" lon="5.99944">
        <ele>550</ele>
        <time>2021-12-21T10:11:03.000Z</time>
      </trkpt>
      <trkpt lat="44.02944" lon="5.99945">
        <ele>550</ele>
        <time>2021-12-21T10:11:04.000Z</time>
      </trkpt>
      <trkpt lat="44.02944" lon="5.99946">
        <ele>550</ele>
        <time>2021-12-21T10:11:05.000Z</time>
      </trkpt>
      <trkpt lat="44.02944" lon="5.99948">
        <ele>550</ele>
        <time>2021-12-21T10:11:06.000Z</time>
      </trkpt>
      <trkpt lat="44.02945" lon="5.9995">
        <ele>550</ele>
        <time>2021-12-21T10:11:07.000Z</time>
      </trkpt>
      <trkpt lat="44.02945" lon="5.99951">
        <ele>550</ele>
        <time>2021-12-21T10:11:08.000Z</time>
      </trkpt>
      <trkpt lat="44.02945" lon="5.99952">
        <ele>550</ele>
        <time>2021-12-21T10:11:09.000Z</time>
      </trkpt>
      <trkpt lat="44.02945" lon="5.99954">
        <ele>550</ele>
        <time>2021-12-21T10:11:10.000Z</time>
      </trkpt>
      <trkpt lat="44.02945" lon="5.99955">
        <ele>551</ele>
        <time>2021-12-21T10:11:11.000Z</time>
      </trkpt>
      <trkpt lat="44.02945" lon="5.99957">
        <ele>551</ele>
        <time>2021-12-21T10:11:12.000Z</time>
      </trkpt>
      <trkpt lat="44.02946" lon="5.99958">
        <ele>551</ele>
        <time>2021-12-21T10:11:13.000Z</time>
      </trkpt>
      <trkpt lat="44.02946" lon="5.99959">
        <ele>551</ele>
        <time>2021-12-21T10:11:14.000Z</time>
      </trkpt>
      <trkpt lat="44.02946" lon="5.99961">
        <ele>551</ele>
        <time>2021-12-21T10:11:15.000Z</time>
      </trkpt>
      <trkpt lat="44.02946" lon="5.99963">
        <ele>551</ele>
        <time>2021-12-21T10:11:16.000Z</time>
      </trkpt>
      <trkpt lat="44.02946" lon="5.99964">
        <ele>551</ele>
        <time>2021-12-21T10:11:17.000Z</time>
      </trkpt>
      <trkpt lat="44.02946" lon="5.99966">
        <ele>552</ele>
        <time>2021-12-21T10:11:18.000Z</time>
      </trkpt>
      <trkpt lat="44.02947" lon="5.99967">
        <ele>552</ele>
        <time>2021-12-21T10:11:19.000Z</time>
      </trkpt>
      <trkpt lat="44.02947" lon="5.99969">
        <ele>552</ele>
        <time>2021-12-21T10:11:20.000Z</time>
      </trkpt>
      <trkpt lat="44.02947" lon="5.9997">
        <ele>552</ele>
        <time>2021-12-21T10:11:21.000Z</time>
      </trkpt>
      <trkpt lat="44.02947" lon="5.99972">
        <ele>552</ele>
        <time>2021-12-21T10:11:22.000Z</time>
      </trkpt>
      <trkpt lat="44.02947" lon="5.99973">
        <ele>552</ele>
        <time>2021-12-21T10:11:23.000Z</time>
      </trkpt>
      <trkpt lat="44.02947" lon="5.99975">
        <ele>552</ele>
        <time>2021-12-21T10:11:24.000Z</time>
      </trkpt>
      <trkpt lat="44.02948" lon="5.99976">
        <ele>553</ele>
        <time>2021-12-21T10:11:25.000Z</time>
      </trkpt>
      <trkpt lat="44.02948" lon="5.99978">
        <ele>553</ele>
        <time>2021-12-21T10:11:26.000Z</time>
      </trkpt>
      <trkpt lat="44.02948" lon="5.99979">
        <ele>553</ele>
        <time>2021-12-21T10:11:27.000Z</time>
      </trkpt>
      <trkpt lat="44.02949" lon="5.99981">
        <ele>553</ele>
        <time>2021-12-21T10:11:28.000Z</time>
      </trkpt>
      <trkpt lat="44.02949" lon="5.99982">
        <ele>553</ele>
        <time>2021-12-21T10:11:29.000Z</time>
      </trkpt>
      <trkpt lat="44.02949" lon="5.99983">
        <ele>553</ele>
        <time>2021-12-21T10:11:30.000Z</time>
      </trkpt>
      <trkpt lat="44.02949" lon="5.99985">
        <ele>553</ele>
        <time>2021-12-21T10:11:31.000Z</time>
      </trkpt>
      <trkpt lat="44.02948" lon="5.99986">
        <ele>553</ele>
        <time>2021-12-21T10:11:32.000Z</time>
      </trkpt>
      <trkpt lat="44.02949" lon="5.99988">
        <ele>553</ele>
        <time>2021-12-21T10:11:33.000Z</time>
      </trkpt>
      <trkpt lat="44.02949" lon="5.99989">
        <ele>553</ele>
        <time>2021-12-21T10:11:34.000Z</time>
      </trkpt>
      <trkpt lat="44.02948" lon="5.99991">
        <ele>553</ele>
        <time>2021-12-21T10:11:35.000Z</time>
      </trkpt>
      <trkpt lat="44.02949" lon="5.99992">
        <ele>553</ele>
        <time>2021-12-21T10:11:36.000Z</time>
      </trkpt>
      <trkpt lat="44.02948" lon="5.99993">
        <ele>553</ele>
        <time>2021-12-21T10:11:37.000Z</time>
      </trkpt>
      <trkpt lat="44.02948" lon="5.99995">
        <ele>553</ele>
        <time>2021-12-21T10:11:38.000Z</time>
      </trkpt>
      <trkpt lat="44.02948" lon="5.99996">
        <ele>554</ele>
        <time>2021-12-21T10:11:39.000Z</time>
      </trkpt>
      <trkpt lat="44.02948" lon="5.99998">
        <ele>554</ele>
        <time>2021-12-21T10:11:40.000Z</time>
      </trkpt>
      <trkpt lat="44.02948" lon="5.99999">
        <ele>554</ele>
        <time>2021-12-21T10:11:41.000Z</time>
      </trkpt>
      <trkpt lat="44.02948" lon="6.00001">
        <ele>554</ele>
        <time>2021-12-21T10:11:42.000Z</time>
      </trkpt>
      <trkpt lat="44.02948" lon="6.00002">
        <ele>554</ele>
        <time>2021-12-21T10:11:43.000Z</time>
      </trkpt>
      <trkpt lat="44.02947" lon="6.00003">
        <ele>554</ele>
        <time>2021-12-21T10:11:44.000Z</time>
      </trkpt>
      <trkpt lat="44.02947" lon="6.00005">
        <ele>554</ele>
        <time>2021-12-21T10:11:45.000Z</time>
      </trkpt>
      <trkpt lat="44.02947" lon="6.00006">
        <ele>554</ele>
        <time>2021-12-21T10:11:46.000Z</time>
      </trkpt>
      <trkpt lat="44.02946" lon="6.00007">
        <ele>555</ele>
        <time>2021-12-21T10:11:47.000Z</time>
      </trkpt>
      <trkpt lat="44.02946" lon="6.00009">
        <ele>555</ele>
        <time>2021-12-21T10:11:48.000Z</time>
      </trkpt>
      <trkpt lat="44.02945" lon="6.0001">
        <ele>555</ele>
        <time>2021-12-21T10:11:49.000Z</time>
      </trkpt>
      <trkpt lat="44.02945" lon="6.00011">
        <ele>555</ele>
        <time>2021-12-21T10:11:50.000Z</time>
      </trkpt>
      <trkpt lat="44.02945" lon="6.00012">
        <ele>555</ele>
        <time>2021-12-21T10:11:51.000Z</time>
      </trkpt>
      <trkpt lat="44.02944" lon="6.00013">
        <ele>555</ele>
        <time>2021-12-21T10:11:52.000Z</time>
      </trkpt>
      <trkpt lat="44.02944" lon="6.00015">
        <ele>555</ele>
        <time>2021-12-21T10:11:53.000Z</time>
      </trkpt>
      <trkpt lat="44.02943" lon="6.00016">
        <ele>555</ele>
        <time>2021-12-21T10:11:54.000Z</time>
      </trkpt>
      <trkpt lat="44.02943" lon="6.00017">
        <ele>555</ele>
        <time>2021-12-21T10:11:55.000Z</time>
      </trkpt>
      <trkpt lat="44.02943" lon="6.00019">
        <ele>556</ele>
        <time>2021-12-21T10:11:56.000Z</time>
      </trkpt>
      <trkpt lat="44.02942" lon="6.0002">
        <ele>556</ele>
        <time>2021-12-21T10:11:57.000Z</time>
      </trkpt>
      <trkpt lat="44.02942" lon="6.00022">
        <ele>556</ele>
        <time>2021-12-21T10:11:58.000Z</time>
      </trkpt>
      <trkpt lat="44.02942" lon="6.00023">
        <ele>556</ele>
        <time>2021-12-21T10:11:59.000Z</time>
      </trkpt>
      <trkpt lat="44.02942" lon="6.00025">
        <ele>556</ele>
        <time>2021-12-21T10:12:00.000Z</time>
      </trkpt>
      <trkpt lat="44.02942" lon="6.00026">
        <ele>556</ele>
        <time>2021-12-21T10:12:01.000Z</time>
      </trkpt>
      <trkpt lat="44.02942" lon="6.00027">
        <ele>556</ele>
        <time>2021-12-21T10:12:02.000Z</time>
      </trkpt>
      <trkpt lat="44.02941" lon="6.00029">
        <ele>556</ele>
        <time>2021-12-21T10:12:03.000Z</time>
      </trkpt>
      <trkpt lat="44.02941" lon="6.0003">
        <ele>557</ele>
        <time>2021-12-21T10:12:04.000Z</time>
      </trkpt>
      <trkpt lat="44.02941" lon="6.00031">
        <ele>557</ele>
        <time>2021-12-21T10:12:05.000Z</time>
      </trkpt>
      <trkpt lat="44.02941" lon="6.00033">
        <ele>557</ele>
        <time>2021-12-21T10:12:06.000Z</time>
      </trkpt>
      <trkpt lat="44.02941" lon="6.00034">
        <ele>557</ele>
        <time>2021-12-21T10:12:07.000Z</time>
      </trkpt>
      <trkpt lat="44.0294" lon="6.00036">
        <ele>557</ele>
        <time>2021-12-21T10:12:08.000Z</time>
      </trkpt>
      <trkpt lat="44.0294" lon="6.00037">
        <ele>557</ele>
        <time>2021-12-21T10:12:09.000Z</time>
      </trkpt>
      <trkpt lat="44.0294" lon="6.00038">
        <ele>558</ele>
        <time>2021-12-21T10:12:10.000Z</time>
      </trkpt>
      <trkpt lat="44.0294" lon="6.0004">
        <ele>558</ele>
        <time>2021-12-21T10:12:11.000Z</time>
      </trkpt>
      <trkpt lat="44.02939" lon="6.00041">
        <ele>558</ele>
        <time>2021-12-21T10:12:12.000Z</time>
      </trkpt>
      <trkpt lat="44.02939" lon="6.00042">
        <ele>558</ele>
        <time>2021-12-21T10:12:13.000Z</time>
      </trkpt>
      <trkpt lat="44.02939" lon="6.00044">
        <ele>558</ele>
        <time>2021-12-21T10:12:14.000Z</time>
      </trkpt>
      <trkpt lat="44.02939" lon="6.00045">
        <ele>558</ele>
        <time>2021-12-21T10:12:15.000Z</time>
      </trkpt>
      <trkpt lat="44.02938" lon="6.00047">
        <ele>558</ele>
        <time>2021-12-21T10:12:16.000Z</time>
      </trkpt>
      <trkpt lat="44.02938" lon="6.00048">
        <ele>558</ele>
        <time>2021-12-21T10:12:17.000Z</time>
      </trkpt>
      <trkpt lat="44.02938" lon="6.00049">
        <ele>558</ele>
        <time>2021-12-21T10:12:18.000Z</time>
      </trkpt>
      <trkpt lat="44.02937" lon="6.00051">
        <ele>558</ele>
        <time>2021-12-21T10:12:19.000Z</time>
      </trkpt>
      <trkpt lat="44.02937" lon="6.00052">
        <ele>559</ele>
        <time>2021-12-21T10:12:20.000Z</time>
      </trkpt>
      <trkpt lat="44.02937" lon="6.00054">
        <ele>559</ele>
        <time>2021-12-21T10:12:21.000Z</time>
      </trkpt>
      <trkpt lat="44.02936" lon="6.00055">
        <ele>559</ele>
        <time>2021-12-21T10:12:22.000Z</time>
      </trkpt>
      <trkpt lat="44.02935" lon="6.00057">
        <ele>559</ele>
        <time>2021-12-21T10:12:23.000Z</time>
      </trkpt>
      <trkpt lat="44.02935" lon="6.00058">
        <ele>559</ele>
        <time>2021-12-21T10:12:24.000Z</time>
      </trkpt>
      <trkpt lat="44.02934" lon="6.00059">
        <ele>559</ele>
        <time>2021-12-21T10:12:25.000Z</time>
      </trkpt>
      <trkpt lat="44.02934" lon="6.0006">
        <ele>559</ele>
        <time>2021-12-21T10:12:26.000Z</time>
      </trkpt>
      <trkpt lat="44.02934" lon="6.00061">
        <ele>559</ele>
        <time>2021-12-21T10:12:27.000Z</time>
      </trkpt>
      <trkpt lat="44.02934" lon="6.00061">
        <ele>560</ele>
        <time>2021-12-21T10:12:28.000Z</time>
      </trkpt>
      <trkpt lat="44.02934" lon="6.00061">
        <ele>560</ele>
        <time>2021-12-21T10:12:29.000Z</time>
      </trkpt>
      <trkpt lat="44.02934" lon="6.00061">
        <ele>560</ele>
        <time>2021-12-21T10:12:30.000Z</time>
      </trkpt>
      <trkpt lat="44.02934" lon="6.00061">
        <ele>560</ele>
        <time>2021-12-21T10:12:31.000Z</time>
      </trkpt>
      <trkpt lat="44.02934" lon="6.00061">
        <ele>560</ele>
        <time>2021-12-21T10:12:32.000Z</time>
      </trkpt>
      <trkpt lat="44.02934" lon="6.00061">
        <ele>560</ele>
        <time>2021-12-21T10:12:33.000Z</time>
      </trkpt>
      <trkpt lat="44.02934" lon="6.00061">
        <ele>560</ele>
        <time>2021-12-21T10:12:34.000Z</time>
      </trkpt>
      <trkpt lat="44.02934" lon="6.00061">
        <ele>560</ele>
        <time>2021-12-21T10:12:35.000Z</time>
      </trkpt>
      <trkpt lat="44.02934" lon="6.00061">
        <ele>560</ele>
        <time>2021-12-21T10:12:36.000Z</time>
      </trkpt>
      <trkpt lat="44.02934" lon="6.00061">
        <ele>560</ele>
        <time>2021-12-21T10:12:37.000Z</time>
      </trkpt>
      <trkpt lat="44.02934" lon="6.00061">
        <ele>560</ele>
        <time>2021-12-21T10:12:38.000Z</time>
      </trkpt>
      <trkpt lat="44.02934" lon="6.00061">
        <ele>560</ele>
        <time>2021-12-21T10:12:39.000Z</time>
      </trkpt>
      <trkpt lat="44.02934" lon="6.00061">
        <ele>560</ele>
        <time>2021-12-21T10:12:40.000Z</time>
      </trkpt>
      <trkpt lat="44.02934" lon="6.00061">
        <ele>560</ele>
        <time>2021-12-21T10:12:41.000Z</time>
      </trkpt>
      <trkpt lat="44.02934" lon="6.00061">
        <ele>560</ele>
        <time>2021-12-21T10:12:42.000Z</time>
      </trkpt>
      <trkpt lat="44.02934" lon="6.00061">
        <ele>560</ele>
        <time>2021-12-21T10:12:43.000Z</time>
      </trkpt>
      <trkpt lat="44.02934" lon="6.00061">
        <ele>560</ele>
        <time>2021-12-21T10:12:44.000Z</time>
      </trkpt>
      <trkpt lat="44.02934" lon="6.00061">
        <ele>560</ele>
        <time>2021-12-21T10:12:45.000Z</time>
      </trkpt>
      <trkpt lat="44.02934" lon="6.00061">
        <ele>560</ele>
        <time>2021-12-21T10:12:46.000Z</time>
      </trkpt>
      <trkpt lat="44.02934" lon="6.00062">
        <ele>560</ele>
        <time>2021-12-21T10:12:47.000Z</time>
      </trkpt>
      <trkpt lat="44.02934" lon="6.00063">
        <ele>560</ele>
        <time>2021-12-21T10:12:48.000Z</time>
      </trkpt>
      <trkpt lat="44.02934" lon="6.00065">
        <ele>560</ele>
        <time>2021-12-21T10:12:49.000Z</time>
      </trkpt>
      <trkpt lat="44.02933" lon="6.00066">
        <ele>560</ele>
        <time>2021-12-21T10:12:50.000Z</time>
      </trkpt>
      <trkpt lat="44.02932" lon="6.00067">
        <ele>560</ele>
        <time>2021-12-21T10:12:51.000Z</time>
      </trkpt>
      <trkpt lat="44.02932" lon="6.00068">
        <ele>561</ele>
        <time>2021-12-21T10:12:52.000Z</time>
      </trkpt>
      <trkpt lat="44.02932" lon="6.0007">
        <ele>561</ele>
        <time>2021-12-21T10:12:53.000Z</time>
      </trkpt>
      <trkpt lat="44.02931" lon="6.00071">
        <ele>561</ele>
        <time>2021-12-21T10:12:54.000Z</time>
      </trkpt>
      <trkpt lat="44.02931" lon="6.00073">
        <ele>561</ele>
        <time>2021-12-21T10:12:55.000Z</time>
      </trkpt>
      <trkpt lat="44.02931" lon="6.00074">
        <ele>561</ele>
        <time>2021-12-21T10:12:56.000Z</time>
      </trkpt>
      <trkpt lat="44.0293" lon="6.00076">
        <ele>561</ele>
        <time>2021-12-21T10:12:57.000Z</time>
      </trkpt>
      <trkpt lat="44.0293" lon="6.00077">
        <ele>561</ele>
        <time>2021-12-21T10:12:58.000Z</time>
      </trkpt>
      <trkpt lat="44.0293" lon="6.00079">
        <ele>561</ele>
        <time>2021-12-21T10:12:59.000Z</time>
      </trkpt>
      <trkpt lat="44.02929" lon="6.0008">
        <ele>561</ele>
        <time>2021-12-21T10:13:00.000Z</time>
      </trkpt>
      <trkpt lat="44.02929" lon="6.00082">
        <ele>561</ele>
        <time>2021-12-21T10:13:01.000Z</time>
      </trkpt>
      <trkpt lat="44.02929" lon="6.00083">
        <ele>561</ele>
        <time>2021-12-21T10:13:02.000Z</time>
      </trkpt>
      <trkpt lat="44.02929" lon="6.00085">
        <ele>561</ele>
        <time>2021-12-21T10:13:03.000Z</time>
      </trkpt>
      <trkpt lat="44.02929" lon="6.00086">
        <ele>561</ele>
        <time>2021-12-21T10:13:04.000Z</time>
      </trkpt>
      <trkpt lat="44.02929" lon="6.00088">
        <ele>561</ele>
        <time>2021-12-21T10:13:05.000Z</time>
      </trkpt>
      <trkpt lat="44.02929" lon="6.00089">
        <ele>561</ele>
        <time>2021-12-21T10:13:06.000Z</time>
      </trkpt>
      <trkpt lat="44.02929" lon="6.00091">
        <ele>561</ele>
        <time>2021-12-21T10:13:07.000Z</time>
      </trkpt>
      <trkpt lat="44.02929" lon="6.00092">
        <ele>561</ele>
        <time>2021-12-21T10:13:08.000Z</time>
      </trkpt>
      <trkpt lat="44.02929" lon="6.00094">
        <ele>562</ele>
        <time>2021-12-21T10:13:09.000Z</time>
      </trkpt>
      <trkpt lat="44.02929" lon="6.00095">
        <ele>562</ele>
        <time>2021-12-21T10:13:10.000Z</time>
      </trkpt>
      <trkpt lat="44.02929" lon="6.00096">
        <ele>562</ele>
        <time>2021-12-21T10:13:11.000Z</time>
      </trkpt>
      <trkpt lat="44.02929" lon="6.00098">
        <ele>562</ele>
        <time>2021-12-21T10:13:12.000Z</time>
      </trkpt>
      <trkpt lat="44.02929" lon="6.00099">
        <ele>562</ele>
        <time>2021-12-21T10:13:13.000Z</time>
      </trkpt>
      <trkpt lat="44.02929" lon="6.00101">
        <ele>562</ele>
        <time>2021-12-21T10:13:14.000Z</time>
      </trkpt>
      <trkpt lat="44.0293" lon="6.00102">
        <ele>562</ele>
        <time>2021-12-21T10:13:15.000Z</time>
      </trkpt>
      <trkpt lat="44.0293" lon="6.00104">
        <ele>562</ele>
        <time>2021-12-21T10:13:16.000Z</time>
      </trkpt>
      <trkpt lat="44.0293" lon="6.00106">
        <ele>562</ele>
        <time>2021-12-21T10:13:17.000Z</time>
      </trkpt>
      <trkpt lat="44.0293" lon="6.00107">
        <ele>562</ele>
        <time>2021-12-21T10:13:18.000Z</time>
      </trkpt>
      <trkpt lat="44.0293" lon="6.00108">
        <ele>562</ele>
        <time>2021-12-21T10:13:19.000Z</time>
      </trkpt>
      <trkpt lat="44.0293" lon="6.0011">
        <ele>562</ele>
        <time>2021-12-21T10:13:20.000Z</time>
      </trkpt>
      <trkpt lat="44.0293" lon="6.00111">
        <ele>562</ele>
        <time>2021-12-21T10:13:21.000Z</time>
      </trkpt>
      <trkpt lat="44.0293" lon="6.00113">
        <ele>562</ele>
        <time>2021-12-21T10:13:22.000Z</time>
      </trkpt>
      <trkpt lat="44.0293" lon="6.00114">
        <ele>562</ele>
        <time>2021-12-21T10:13:23.000Z</time>
      </trkpt>
      <trkpt lat="44.0293" lon="6.00116">
        <ele>562</ele>
        <time>2021-12-21T10:13:24.000Z</time>
      </trkpt>
      <trkpt lat="44.02931" lon="6.00118">
        <ele>562</ele>
        <time>2021-12-21T10:13:25.000Z</time>
      </trkpt>
      <trkpt lat="44.02931" lon="6.00119">
        <ele>562</ele>
        <time>2021-12-21T10:13:26.000Z</time>
      </trkpt>
      <trkpt lat="44.02931" lon="6.0012">
        <ele>562</ele>
        <time>2021-12-21T10:13:27.000Z</time>
      </trkpt>
      <trkpt lat="44.02931" lon="6.00122">
        <ele>562</ele>
        <time>2021-12-21T10:13:28.000Z</time>
      </trkpt>
      <trkpt lat="44.02931" lon="6.00124">
        <ele>562</ele>
        <time>2021-12-21T10:13:29.000Z</time>
      </trkpt>
      <trkpt lat="44.02932" lon="6.00125">
        <ele>562</ele>
        <time>2021-12-21T10:13:30.000Z</time>
      </trkpt>
      <trkpt lat="44.02932" lon="6.00126">
        <ele>562</ele>
        <time>2021-12-21T10:13:31.000Z</time>
      </trkpt>
      <trkpt lat="44.02932" lon="6.00128">
        <ele>562</ele>
        <time>2021-12-21T10:13:32.000Z</time>
      </trkpt>
      <trkpt lat="44.02932" lon="6.0013">
        <ele>562</ele>
        <time>2021-12-21T10:13:33.000Z</time>
      </trkpt>
      <trkpt lat="44.02933" lon="6.00131">
        <ele>562</ele>
        <time>2021-12-21T10:13:34.000Z</time>
      </trkpt>
      <trkpt lat="44.02933" lon="6.00133">
        <ele>562</ele>
        <time>2021-12-21T10:13:35.000Z</time>
      </trkpt>
      <trkpt lat="44.02933" lon="6.00134">
        <ele>562</ele>
        <time>2021-12-21T10:13:36.000Z</time>
      </trkpt>
      <trkpt lat="44.02933" lon="6.00136">
        <ele>563</ele>
        <time>2021-12-21T10:13:37.000Z</time>
      </trkpt>
      <trkpt lat="44.02933" lon="6.00137">
        <ele>563</ele>
        <time>2021-12-21T10:13:38.000Z</time>
      </trkpt>
      <trkpt lat="44.02933" lon="6.00139">
        <ele>563</ele>
        <time>2021-12-21T10:13:39.000Z</time>
      </trkpt>
      <trkpt lat="44.02933" lon="6.0014">
        <ele>563</ele>
        <time>2021-12-21T10:13:40.000Z</time>
      </trkpt>
      <trkpt lat="44.02933" lon="6.00142">
        <ele>563</ele>
        <time>2021-12-21T10:13:41.000Z</time>
      </trkpt>
      <trkpt lat="44.02933" lon="6.00144">
        <ele>563</ele>
        <time>2021-12-21T10:13:42.000Z</time>
      </trkpt>
      <trkpt lat="44.02933" lon="6.00145">
        <ele>563</ele>
        <time>2021-12-21T10:13:43.000Z</time>
      </trkpt>
      <trkpt lat="44.02933" lon="6.00146">
        <ele>563</ele>
        <time>2021-12-21T10:13:44.000Z</time>
      </trkpt>
      <trkpt lat="44.02932" lon="6.00148">
        <ele>563</ele>
        <time>2021-12-21T10:13:45.000Z</time>
      </trkpt>
      <trkpt lat="44.02932" lon="6.0015">
        <ele>563</ele>
        <time>2021-12-21T10:13:46.000Z</time>
      </trkpt>
      <trkpt lat="44.02932" lon="6.00151">
        <ele>563</ele>
        <time>2021-12-21T10:13:47.000Z</time>
      </trkpt>
      <trkpt lat="44.02932" lon="6.00153">
        <ele>564</ele>
        <time>2021-12-21T10:13:48.000Z</time>
      </trkpt>
      <trkpt lat="44.02932" lon="6.00154">
        <ele>564</ele>
        <time>2021-12-21T10:13:49.000Z</time>
      </trkpt>
      <trkpt lat="44.02932" lon="6.00156">
        <ele>564</ele>
        <time>2021-12-21T10:13:50.000Z</time>
      </trkpt>
      <trkpt lat="44.02932" lon="6.00157">
        <ele>564</ele>
        <time>2021-12-21T10:13:51.000Z</time>
      </trkpt>
      <trkpt lat="44.02931" lon="6.00158">
        <ele>564</ele>
        <time>2021-12-21T10:13:52.000Z</time>
      </trkpt>
      <trkpt lat="44.02931" lon="6.0016">
        <ele>564</ele>
        <time>2021-12-21T10:13:53.000Z</time>
      </trkpt>
      <trkpt lat="44.02931" lon="6.00161">
        <ele>564</ele>
        <time>2021-12-21T10:13:54.000Z</time>
      </trkpt>
      <trkpt lat="44.0293" lon="6.00163">
        <ele>564</ele>
        <time>2021-12-21T10:13:55.000Z</time>
      </trkpt>
      <trkpt lat="44.0293" lon="6.00164">
        <ele>564</ele>
        <time>2021-12-21T10:13:56.000Z</time>
      </trkpt>
      <trkpt lat="44.0293" lon="6.00165">
        <ele>565</ele>
        <time>2021-12-21T10:13:57.000Z</time>
      </trkpt>
      <trkpt lat="44.02929" lon="6.00167">
        <ele>565</ele>
        <time>2021-12-21T10:13:58.000Z</time>
      </trkpt>
      <trkpt lat="44.02929" lon="6.00168">
        <ele>565</ele>
        <time>2021-12-21T10:13:59.000Z</time>
      </trkpt>
      <trkpt lat="44.02929" lon="6.0017">
        <ele>565</ele>
        <time>2021-12-21T10:14:00.000Z</time>
      </trkpt>
      <trkpt lat="44.02929" lon="6.00171">
        <ele>565</ele>
        <time>2021-12-21T10:14:01.000Z</time>
      </trkpt>
      <trkpt lat="44.02928" lon="6.00172">
        <ele>565</ele>
        <time>2021-12-21T10:14:02.000Z</time>
      </trkpt>
      <trkpt lat="44.02928" lon="6.00174">
        <ele>565</ele>
        <time>2021-12-21T10:14:03.000Z</time>
      </trkpt>
      <trkpt lat="44.02928" lon="6.00175">
        <ele>565</ele>
        <time>2021-12-21T10:14:04.000Z</time>
      </trkpt>
      <trkpt lat="44.02928" lon="6.00177">
        <ele>565</ele>
        <time>2021-12-21T10:14:05.000Z</time>
      </trkpt>
      <trkpt lat="44.02927" lon="6.00178">
        <ele>565</ele>
        <time>2021-12-21T10:14:06.000Z</time>
      </trkpt>
      <trkpt lat="44.02927" lon="6.00179">
        <ele>565</ele>
        <time>2021-12-21T10:14:07.000Z</time>
      </trkpt>
      <trkpt lat="44.02927" lon="6.00181">
        <ele>565</ele>
        <time>2021-12-21T10:14:08.000Z</time>
      </trkpt>
      <trkpt lat="44.02926" lon="6.00182">
        <ele>565</ele>
        <time>2021-12-21T10:14:09.000Z</time>
      </trkpt>
      <trkpt lat="44.02926" lon="6.00183">
        <ele>565</ele>
        <time>2021-12-21T10:14:10.000Z</time>
      </trkpt>
      <trkpt lat="44.02926" lon="6.00185">
        <ele>565</ele>
        <time>2021-12-21T10:14:11.000Z</time>
      </trkpt>
      <trkpt lat="44.02926" lon="6.00186">
        <ele>565</ele>
        <time>2021-12-21T10:14:12.000Z</time>
      </trkpt>
      <trkpt lat="44.02926" lon="6.00188">
        <ele>565</ele>
        <time>2021-12-21T10:14:13.000Z</time>
      </trkpt>
      <trkpt lat="44.02926" lon="6.00189">
        <ele>565</ele>
        <time>2021-12-21T10:14:14.000Z</time>
      </trkpt>
      <trkpt lat="44.02926" lon="6.0019">
        <ele>565</ele>
        <time>2021-12-21T10:14:15.000Z</time>
      </trkpt>
      <trkpt lat="44.02925" lon="6.00192">
        <ele>565</ele>
        <time>2021-12-21T10:14:16.000Z</time>
      </trkpt>
      <trkpt lat="44.02925" lon="6.00193">
        <ele>565</ele>
        <time>2021-12-21T10:14:17.000Z</time>
      </trkpt>
      <trkpt lat="44.02925" lon="6.00195">
        <ele>565</ele>
        <time>2021-12-21T10:14:18.000Z</time>
      </trkpt>
      <trkpt lat="44.02925" lon="6.00197">
        <ele>565</ele>
        <time>2021-12-21T10:14:19.000Z</time>
      </trkpt>
      <trkpt lat="44.02925" lon="6.00198">
        <ele>565</ele>
        <time>2021-12-21T10:14:20.000Z</time>
      </trkpt>
      <trkpt lat="44.02925" lon="6.002">
        <ele>565</ele>
        <time>2021-12-21T10:14:21.000Z</time>
      </trkpt>
      <trkpt lat="44.02925" lon="6.00201">
        <ele>566</ele>
        <time>2021-12-21T10:14:22.000Z</time>
      </trkpt>
      <trkpt lat="44.02925" lon="6.00202">
        <ele>566</ele>
        <time>2021-12-21T10:14:23.000Z</time>
      </trkpt>
      <trkpt lat="44.02925" lon="6.00203">
        <ele>566</ele>
        <time>2021-12-21T10:14:24.000Z</time>
      </trkpt>
      <trkpt lat="44.02925" lon="6.00205">
        <ele>566</ele>
        <time>2021-12-21T10:14:25.000Z</time>
      </trkpt>
      <trkpt lat="44.02925" lon="6.00206">
        <ele>566</ele>
        <time>2021-12-21T10:14:26.000Z</time>
      </trkpt>
      <trkpt lat="44.02925" lon="6.00208">
        <ele>566</ele>
        <time>2021-12-21T10:14:27.000Z</time>
      </trkpt>
      <trkpt lat="44.02924" lon="6.0021">
        <ele>566</ele>
        <time>2021-12-21T10:14:28.000Z</time>
      </trkpt>
      <trkpt lat="44.02924" lon="6.00211">
        <ele>566</ele>
        <time>2021-12-21T10:14:29.000Z</time>
      </trkpt>
      <trkpt lat="44.02924" lon="6.00212">
        <ele>566</ele>
        <time>2021-12-21T10:14:30.000Z</time>
      </trkpt>
      <trkpt lat="44.02924" lon="6.00214">
        <ele>566</ele>
        <time>2021-12-21T10:14:31.000Z</time>
      </trkpt>
      <trkpt lat="44.02924" lon="6.00215">
        <ele>566</ele>
        <time>2021-12-21T10:14:32.000Z</time>
      </trkpt>
      <trkpt lat="44.02924" lon="6.00217">
        <ele>566</ele>
        <time>2021-12-21T10:14:33.000Z</time>
      </trkpt>
      <trkpt lat="44.02924" lon="6.00218">
        <ele>567</ele>
        <time>2021-12-21T10:14:34.000Z</time>
      </trkpt>
      <trkpt lat="44.02924" lon="6.0022">
        <ele>567</ele>
        <time>2021-12-21T10:14:35.000Z</time>
      </trkpt>
      <trkpt lat="44.02924" lon="6.00222">
        <ele>567</ele>
        <time>2021-12-21T10:14:36.000Z</time>
      </trkpt>
      <trkpt lat="44.02923" lon="6.00223">
        <ele>567</ele>
        <time>2021-12-21T10:14:37.000Z</time>
      </trkpt>
      <trkpt lat="44.02923" lon="6.00224">
        <ele>567</ele>
        <time>2021-12-21T10:14:38.000Z</time>
      </trkpt>
      <trkpt lat="44.02923" lon="6.00226">
        <ele>567</ele>
        <time>2021-12-21T10:14:39.000Z</time>
      </trkpt>
      <trkpt lat="44.02923" lon="6.00227">
        <ele>567</ele>
        <time>2021-12-21T10:14:40.000Z</time>
      </trkpt>
      <trkpt lat="44.02923" lon="6.00229">
        <ele>567</ele>
        <time>2021-12-21T10:14:41.000Z</time>
      </trkpt>
      <trkpt lat="44.02923" lon="6.0023">
        <ele>567</ele>
        <time>2021-12-21T10:14:42.000Z</time>
      </trkpt>
      <trkpt lat="44.02923" lon="6.00232">
        <ele>567</ele>
        <time>2021-12-21T10:14:43.000Z</time>
      </trkpt>
      <trkpt lat="44.02923" lon="6.00233">
        <ele>567</ele>
        <time>2021-12-21T10:14:44.000Z</time>
      </trkpt>
      <trkpt lat="44.02923" lon="6.00234">
        <ele>567</ele>
        <time>2021-12-21T10:14:45.000Z</time>
      </trkpt>
      <trkpt lat="44.02922" lon="6.00236">
        <ele>567</ele>
        <time>2021-12-21T10:14:46.000Z</time>
      </trkpt>
      <trkpt lat="44.02922" lon="6.00237">
        <ele>567</ele>
        <time>2021-12-21T10:14:47.000Z</time>
      </trkpt>
      <trkpt lat="44.02922" lon="6.00239">
        <ele>567</ele>
        <time>2021-12-21T10:14:48.000Z</time>
      </trkpt>
      <trkpt lat="44.02922" lon="6.0024">
        <ele>567</ele>
        <time>2021-12-21T10:14:49.000Z</time>
      </trkpt>
      <trkpt lat="44.02922" lon="6.00242">
        <ele>567</ele>
        <time>2021-12-21T10:14:50.000Z</time>
      </trkpt>
      <trkpt lat="44.02921" lon="6.00243">
        <ele>568</ele>
        <time>2021-12-21T10:14:51.000Z</time>
      </trkpt>
      <trkpt lat="44.02921" lon="6.00244">
        <ele>568</ele>
        <time>2021-12-21T10:14:52.000Z</time>
      </trkpt>
      <trkpt lat="44.02922" lon="6.00246">
        <ele>568</ele>
        <time>2021-12-21T10:14:53.000Z</time>
      </trkpt>
      <trkpt lat="44.02922" lon="6.00248">
        <ele>568</ele>
        <time>2021-12-21T10:14:54.000Z</time>
      </trkpt>
      <trkpt lat="44.02921" lon="6.00249">
        <ele>568</ele>
        <time>2021-12-21T10:14:55.000Z</time>
      </trkpt>
      <trkpt lat="44.02922" lon="6.0025">
        <ele>568</ele>
        <time>2021-12-21T10:14:56.000Z</time>
      </trkpt>
      <trkpt lat="44.02921" lon="6.00252">
        <ele>569</ele>
        <time>2021-12-21T10:14:57.000Z</time>
      </trkpt>
      <trkpt lat="44.02921" lon="6.00253">
        <ele>569</ele>
        <time>2021-12-21T10:14:58.000Z</time>
      </trkpt>
      <trkpt lat="44.02921" lon="6.00255">
        <ele>569</ele>
        <time>2021-12-21T10:14:59.000Z</time>
      </trkpt>
      <trkpt lat="44.02921" lon="6.00256">
        <ele>569</ele>
        <time>2021-12-21T10:15:00.000Z</time>
      </trkpt>
      <trkpt lat="44.0292" lon="6.00257">
        <ele>569</ele>
        <time>2021-12-21T10:15:01.000Z</time>
      </trkpt>
      <trkpt lat="44.0292" lon="6.00259">
        <ele>569</ele>
        <time>2021-12-21T10:15:02.000Z</time>
      </trkpt>
      <trkpt lat="44.0292" lon="6.0026">
        <ele>569</ele>
        <time>2021-12-21T10:15:03.000Z</time>
      </trkpt>
      <trkpt lat="44.0292" lon="6.00261">
        <ele>569</ele>
        <time>2021-12-21T10:15:04.000Z</time>
      </trkpt>
      <trkpt lat="44.0292" lon="6.00263">
        <ele>569</ele>
        <time>2021-12-21T10:15:05.000Z</time>
      </trkpt>
      <trkpt lat="44.0292" lon="6.00264">
        <ele>569</ele>
        <time>2021-12-21T10:15:06.000Z</time>
      </trkpt>
      <trkpt lat="44.0292" lon="6.00266">
        <ele>569</ele>
        <time>2021-12-21T10:15:07.000Z</time>
      </trkpt>
      <trkpt lat="44.0292" lon="6.00267">
        <ele>569</ele>
        <time>2021-12-21T10:15:08.000Z</time>
      </trkpt>
      <trkpt lat="44.0292" lon="6.00269">
        <ele>569</ele>
        <time>2021-12-21T10:15:09.000Z</time>
      </trkpt>
      <trkpt lat="44.02919" lon="6.0027">
        <ele>569</ele>
        <time>2021-12-21T10:15:10.000Z</time>
      </trkpt>
      <trkpt lat="44.02919" lon="6.00271">
        <ele>569</ele>
        <time>2021-12-21T10:15:11.000Z</time>
      </trkpt>
      <trkpt lat="44.02919" lon="6.00273">
        <ele>569</ele>
        <time>2021-12-21T10:15:12.000Z</time>
      </trkpt>
      <trkpt lat="44.02919" lon="6.00274">
        <ele>570</ele>
        <time>2021-12-21T10:15:13.000Z</time>
      </trkpt>
      <trkpt lat="44.02919" lon="6.00276">
        <ele>570</ele>
        <time>2021-12-21T10:15:14.000Z</time>
      </trkpt>
      <trkpt lat="44.02919" lon="6.00277">
        <ele>570</ele>
        <time>2021-12-21T10:15:15.000Z</time>
      </trkpt>
      <trkpt lat="44.02918" lon="6.00278">
        <ele>570</ele>
        <time>2021-12-21T10:15:16.000Z</time>
      </trkpt>
      <trkpt lat="44.02918" lon="6.0028">
        <ele>570</ele>
        <time>2021-12-21T10:15:17.000Z</time>
      </trkpt>
      <trkpt lat="44.02918" lon="6.00281">
        <ele>570</ele>
        <time>2021-12-21T10:15:18.000Z</time>
      </trkpt>
      <trkpt lat="44.02918" lon="6.00282">
        <ele>570</ele>
        <time>2021-12-21T10:15:19.000Z</time>
      </trkpt>
      <trkpt lat="44.02917" lon="6.00284">
        <ele>570</ele>
        <time>2021-12-21T10:15:20.000Z</time>
      </trkpt>
      <trkpt lat="44.02917" lon="6.00285">
        <ele>570</ele>
        <time>2021-12-21T10:15:21.000Z</time>
      </trkpt>
      <trkpt lat="44.02917" lon="6.00286">
        <ele>570</ele>
        <time>2021-12-21T10:15:22.000Z</time>
      </trkpt>
      <trkpt lat="44.02916" lon="6.00288">
        <ele>570</ele>
        <time>2021-12-21T10:15:23.000Z</time>
      </trkpt>
      <trkpt lat="44.02916" lon="6.00289">
        <ele>570</ele>
        <time>2021-12-21T10:15:24.000Z</time>
      </trkpt>
      <trkpt lat="44.02916" lon="6.00291">
        <ele>570</ele>
        <time>2021-12-21T10:15:25.000Z</time>
      </trkpt>
      <trkpt lat="44.02915" lon="6.00292">
        <ele>570</ele>
        <time>2021-12-21T10:15:26.000Z</time>
      </trkpt>
      <trkpt lat="44.02915" lon="6.00293">
        <ele>570</ele>
        <time>2021-12-21T10:15:27.000Z</time>
      </trkpt>
      <trkpt lat="44.02915" lon="6.00294">
        <ele>571</ele>
        <time>2021-12-21T10:15:28.000Z</time>
      </trkpt>
      <trkpt lat="44.02914" lon="6.00296">
        <ele>571</ele>
        <time>2021-12-21T10:15:29.000Z</time>
      </trkpt>
      <trkpt lat="44.02914" lon="6.00297">
        <ele>571</ele>
        <time>2021-12-21T10:15:30.000Z</time>
      </trkpt>
      <trkpt lat="44.02913" lon="6.00298">
        <ele>571</ele>
        <time>2021-12-21T10:15:31.000Z</time>
      </trkpt>
      <trkpt lat="44.02913" lon="6.003">
        <ele>571</ele>
        <time>2021-12-21T10:15:32.000Z</time>
      </trkpt>
      <trkpt lat="44.02913" lon="6.00301">
        <ele>571</ele>
        <time>2021-12-21T10:15:33.000Z</time>
      </trkpt>
      <trkpt lat="44.02912" lon="6.00302">
        <ele>571</ele>
        <time>2021-12-21T10:15:34.000Z</time>
      </trkpt>
      <trkpt lat="44.02911" lon="6.00302">
        <ele>571</ele>
        <time>2021-12-21T10:15:35.000Z</time>
      </trkpt>
      <trkpt lat="44.02911" lon="6.00303">
        <ele>571</ele>
        <time>2021-12-21T10:15:36.000Z</time>
      </trkpt>
      <trkpt lat="44.0291" lon="6.00305">
        <ele>571</ele>
        <time>2021-12-21T10:15:37.000Z</time>
      </trkpt>
      <trkpt lat="44.02909" lon="6.00306">
        <ele>571</ele>
        <time>2021-12-21T10:15:38.000Z</time>
      </trkpt>
      <trkpt lat="44.02909" lon="6.00307">
        <ele>571</ele>
        <time>2021-12-21T10:15:39.000Z</time>
      </trkpt>
      <trkpt lat="44.02908" lon="6.00308">
        <ele>571</ele>
        <time>2021-12-21T10:15:40.000Z</time>
      </trkpt>
      <trkpt lat="44.02908" lon="6.00309">
        <ele>571</ele>
        <time>2021-12-21T10:15:41.000Z</time>
      </trkpt>
      <trkpt lat="44.02907" lon="6.00311">
        <ele>571</ele>
        <time>2021-12-21T10:15:42.000Z</time>
      </trkpt>
      <trkpt lat="44.02907" lon="6.00312">
        <ele>571</ele>
        <time>2021-12-21T10:15:43.000Z</time>
      </trkpt>
      <trkpt lat="44.02907" lon="6.00314">
        <ele>571</ele>
        <time>2021-12-21T10:15:44.000Z</time>
      </trkpt>
      <trkpt lat="44.02906" lon="6.00315">
        <ele>571</ele>
        <time>2021-12-21T10:15:45.000Z</time>
      </trkpt>
      <trkpt lat="44.02906" lon="6.00316">
        <ele>571</ele>
        <time>2021-12-21T10:15:46.000Z</time>
      </trkpt>
      <trkpt lat="44.02905" lon="6.00318">
        <ele>571</ele>
        <time>2021-12-21T10:15:47.000Z</time>
      </trkpt>
      <trkpt lat="44.02905" lon="6.00319">
        <ele>571</ele>
        <time>2021-12-21T10:15:48.000Z</time>
      </trkpt>
      <trkpt lat="44.02905" lon="6.0032">
        <ele>571</ele>
        <time>2021-12-21T10:15:49.000Z</time>
      </trkpt>
      <trkpt lat="44.02905" lon="6.00322">
        <ele>571</ele>
        <time>2021-12-21T10:15:50.000Z</time>
      </trkpt>
      <trkpt lat="44.02904" lon="6.00323">
        <ele>572</ele>
        <time>2021-12-21T10:15:51.000Z</time>
      </trkpt>
      <trkpt lat="44.02904" lon="6.00325">
        <ele>572</ele>
        <time>2021-12-21T10:15:52.000Z</time>
      </trkpt>
      <trkpt lat="44.02904" lon="6.00326">
        <ele>572</ele>
        <time>2021-12-21T10:15:53.000Z</time>
      </trkpt>
      <trkpt lat="44.02904" lon="6.00327">
        <ele>572</ele>
        <time>2021-12-21T10:15:54.000Z</time>
      </trkpt>
      <trkpt lat="44.02904" lon="6.00329">
        <ele>572</ele>
        <time>2021-12-21T10:15:55.000Z</time>
      </trkpt>
      <trkpt lat="44.02904" lon="6.0033">
        <ele>572</ele>
        <time>2021-12-21T10:15:56.000Z</time>
      </trkpt>
      <trkpt lat="44.02904" lon="6.00332">
        <ele>572</ele>
        <time>2021-12-21T10:15:57.000Z</time>
      </trkpt>
      <trkpt lat="44.02904" lon="6.00333">
        <ele>572</ele>
        <time>2021-12-21T10:15:58.000Z</time>
      </trkpt>
      <trkpt lat="44.02904" lon="6.00335">
        <ele>572</ele>
        <time>2021-12-21T10:15:59.000Z</time>
      </trkpt>
      <trkpt lat="44.02904" lon="6.00336">
        <ele>573</ele>
        <time>2021-12-21T10:16:00.000Z</time>
      </trkpt>
      <trkpt lat="44.02904" lon="6.00337">
        <ele>573</ele>
        <time>2021-12-21T10:16:01.000Z</time>
      </trkpt>
      <trkpt lat="44.02904" lon="6.00339">
        <ele>573</ele>
        <time>2021-12-21T10:16:02.000Z</time>
      </trkpt>
      <trkpt lat="44.02905" lon="6.00341">
        <ele>573</ele>
        <time>2021-12-21T10:16:03.000Z</time>
      </trkpt>
      <trkpt lat="44.02905" lon="6.00342">
        <ele>573</ele>
        <time>2021-12-21T10:16:04.000Z</time>
      </trkpt>
      <trkpt lat="44.02905" lon="6.00343">
        <ele>573</ele>
        <time>2021-12-21T10:16:05.000Z</time>
      </trkpt>
      <trkpt lat="44.02906" lon="6.00345">
        <ele>574</ele>
        <time>2021-12-21T10:16:06.000Z</time>
      </trkpt>
      <trkpt lat="44.02906" lon="6.00347">
        <ele>574</ele>
        <time>2021-12-21T10:16:07.000Z</time>
      </trkpt>
      <trkpt lat="44.02907" lon="6.00348">
        <ele>574</ele>
        <time>2021-12-21T10:16:08.000Z</time>
      </trkpt>
      <trkpt lat="44.02907" lon="6.00349">
        <ele>574</ele>
        <time>2021-12-21T10:16:09.000Z</time>
      </trkpt>
      <trkpt lat="44.02907" lon="6.00351">
        <ele>574</ele>
        <time>2021-12-21T10:16:10.000Z</time>
      </trkpt>
      <trkpt lat="44.02907" lon="6.00352">
        <ele>574</ele>
        <time>2021-12-21T10:16:11.000Z</time>
      </trkpt>
      <trkpt lat="44.02907" lon="6.00353">
        <ele>574</ele>
        <time>2021-12-21T10:16:12.000Z</time>
      </trkpt>
      <trkpt lat="44.02907" lon="6.00355">
        <ele>574</ele>
        <time>2021-12-21T10:16:13.000Z</time>
      </trkpt>
      <trkpt lat="44.02908" lon="6.00356">
        <ele>574</ele>
        <time>2021-12-21T10:16:14.000Z</time>
      </trkpt>
      <trkpt lat="44.02908" lon="6.00357">
        <ele>575</ele>
        <time>2021-12-21T10:16:15.000Z</time>
      </trkpt>
      <trkpt lat="44.02908" lon="6.00359">
        <ele>575</ele>
        <time>2021-12-21T10:16:16.000Z</time>
      </trkpt>
      <trkpt lat="44.02908" lon="6.0036">
        <ele>575</ele>
        <time>2021-12-21T10:16:17.000Z</time>
      </trkpt>
      <trkpt lat="44.02908" lon="6.00361">
        <ele>575</ele>
        <time>2021-12-21T10:16:18.000Z</time>
      </trkpt>
      <trkpt lat="44.02908" lon="6.00363">
        <ele>575</ele>
        <time>2021-12-21T10:16:19.000Z</time>
      </trkpt>
      <trkpt lat="44.02909" lon="6.00364">
        <ele>575</ele>
        <time>2021-12-21T10:16:20.000Z</time>
      </trkpt>
      <trkpt lat="44.02909" lon="6.00365">
        <ele>575</ele>
        <time>2021-12-21T10:16:21.000Z</time>
      </trkpt>
      <trkpt lat="44.02909" lon="6.00366">
        <ele>575</ele>
        <time>2021-12-21T10:16:22.000Z</time>
      </trkpt>
      <trkpt lat="44.0291" lon="6.00368">
        <ele>576</ele>
        <time>2021-12-21T10:16:23.000Z</time>
      </trkpt>
      <trkpt lat="44.0291" lon="6.00369">
        <ele>576</ele>
        <time>2021-12-21T10:16:24.000Z</time>
      </trkpt>
      <trkpt lat="44.0291" lon="6.0037">
        <ele>576</ele>
        <time>2021-12-21T10:16:25.000Z</time>
      </trkpt>
      <trkpt lat="44.0291" lon="6.00372">
        <ele>576</ele>
        <time>2021-12-21T10:16:26.000Z</time>
      </trkpt>
      <trkpt lat="44.0291" lon="6.00373">
        <ele>576</ele>
        <time>2021-12-21T10:16:27.000Z</time>
      </trkpt>
      <trkpt lat="44.02911" lon="6.00374">
        <ele>576</ele>
        <time>2021-12-21T10:16:28.000Z</time>
      </trkpt>
      <trkpt lat="44.02911" lon="6.00375">
        <ele>576</ele>
        <time>2021-12-21T10:16:29.000Z</time>
      </trkpt>
      <trkpt lat="44.02912" lon="6.00377">
        <ele>576</ele>
        <time>2021-12-21T10:16:30.000Z</time>
      </trkpt>
      <trkpt lat="44.02912" lon="6.00378">
        <ele>577</ele>
        <time>2021-12-21T10:16:31.000Z</time>
      </trkpt>
      <trkpt lat="44.02912" lon="6.0038">
        <ele>577</ele>
        <time>2021-12-21T10:16:32.000Z</time>
      </trkpt>
      <trkpt lat="44.02912" lon="6.00381">
        <ele>577</ele>
        <time>2021-12-21T10:16:33.000Z</time>
      </trkpt>
      <trkpt lat="44.02912" lon="6.00382">
        <ele>577</ele>
        <time>2021-12-21T10:16:34.000Z</time>
      </trkpt>
      <trkpt lat="44.02912" lon="6.00382">
        <ele>577</ele>
        <time>2021-12-21T10:16:35.000Z</time>
      </trkpt>
      <trkpt lat="44.02912" lon="6.00382">
        <ele>577</ele>
        <time>2021-12-21T10:16:36.000Z</time>
      </trkpt>
      <trkpt lat="44.02912" lon="6.00382">
        <ele>577</ele>
        <time>2021-12-21T10:16:37.000Z</time>
      </trkpt>
      <trkpt lat="44.02912" lon="6.00382">
        <ele>577</ele>
        <time>2021-12-21T10:16:38.000Z</time>
      </trkpt>
      <trkpt lat="44.02912" lon="6.00382">
        <ele>577</ele>
        <time>2021-12-21T10:16:39.000Z</time>
      </trkpt>
      <trkpt lat="44.02912" lon="6.00382">
        <ele>577</ele>
        <time>2021-12-21T10:16:40.000Z</time>
      </trkpt>
      <trkpt lat="44.02912" lon="6.00382">
        <ele>577</ele>
        <time>2021-12-21T10:16:41.000Z</time>
      </trkpt>
      <trkpt lat="44.02912" lon="6.00382">
        <ele>577</ele>
        <time>2021-12-21T10:16:42.000Z</time>
      </trkpt>
      <trkpt lat="44.02912" lon="6.00382">
        <ele>577</ele>
        <time>2021-12-21T10:16:43.000Z</time>
      </trkpt>
      <trkpt lat="44.02912" lon="6.00382">
        <ele>577</ele>
        <time>2021-12-21T10:16:44.000Z</time>
      </trkpt>
      <trkpt lat="44.02912" lon="6.00382">
        <ele>577</ele>
        <time>2021-12-21T10:16:45.000Z</time>
      </trkpt>
      <trkpt lat="44.02912" lon="6.00382">
        <ele>577</ele>
        <time>2021-12-21T10:16:46.000Z</time>
      </trkpt>
      <trkpt lat="44.02912" lon="6.00382">
        <ele>577</ele>
        <time>2021-12-21T10:16:47.000Z</time>
      </trkpt>
      <trkpt lat="44.02912" lon="6.00382">
        <ele>577</ele>
        <time>2021-12-21T10:16:48.000Z</time>
      </trkpt>
      <trkpt lat="44.02912" lon="6.00382">
        <ele>577</ele>
        <time>2021-12-21T10:16:49.000Z</time>
      </trkpt>
      <trkpt lat="44.02912" lon="6.00382">
        <ele>577</ele>
        <time>2021-12-21T10:16:50.000Z</time>
      </trkpt>
      <trkpt lat="44.02912" lon="6.00382">
        <ele>577</ele>
        <time>2021-12-21T10:16:51.000Z</time>
      </trkpt>
      <trkpt lat="44.02912" lon="6.00382">
        <ele>577</ele>
        <time>2021-12-21T10:16:52.000Z</time>
      </trkpt>
      <trkpt lat="44.02912" lon="6.00382">
        <ele>577</ele>
        <time>2021-12-21T10:16:53.000Z</time>
      </trkpt>
      <trkpt lat="44.02912" lon="6.00382">
        <ele>577</ele>
        <time>2021-12-21T10:16:54.000Z</time>
      </trkpt>
      <trkpt lat="44.02912" lon="6.00382">
        <ele>577</ele>
        <time>2021-12-21T10:16:55.000Z</time>
      </trkpt>
      <trkpt lat="44.02912" lon="6.00382">
        <ele>577</ele>
        <time>2021-12-21T10:16:56.000Z</time>
      </trkpt>
      <trkpt lat="44.02912" lon="6.00382">
        <ele>577</ele>
        <time>2021-12-21T10:16:57.000Z</time>
      </trkpt>
      <trkpt lat="44.02912" lon="6.00382">
        <ele>577</ele>
        <time>2021-12-21T10:16:58.000Z</time>
      </trkpt>
      <trkpt lat="44.02912" lon="6.00382">
        <ele>577</ele>
        <time>2021-12-21T10:16:59.000Z</time>
      </trkpt>
      <trkpt lat="44.02912" lon="6.00382">
        <ele>577</ele>
        <time>2021-12-21T10:17:00.000Z</time>
      </trkpt>
      <trkpt lat="44.02912" lon="6.00382">
        <ele>577</ele>
        <time>2021-12-21T10:17:01.000Z</time>
      </trkpt>
      <trkpt lat="44.02912" lon="6.00382">
        <ele>577</ele>
        <time>2021-12-21T10:17:02.000Z</time>
      </trkpt>
      <trkpt lat="44.02912" lon="6.00382">
        <ele>577</ele>
        <time>2021-12-21T10:17:03.000Z</time>
      </trkpt>
      <trkpt lat="44.02912" lon="6.00382">
        <ele>577</ele>
        <time>2021-12-21T10:17:04.000Z</time>
      </trkpt>
      <trkpt lat="44.02912" lon="6.00382">
        <ele>577</ele>
        <time>2021-12-21T10:17:05.000Z</time>
      </trkpt>
      <trkpt lat="44.02912" lon="6.00383">
        <ele>577</ele>
        <time>2021-12-21T10:17:06.000Z</time>
      </trkpt>
      <trkpt lat="44.02912" lon="6.00385">
        <ele>577</ele>
        <time>2021-12-21T10:17:07.000Z</time>
      </trkpt>
      <trkpt lat="44.02912" lon="6.00386">
        <ele>577</ele>
        <time>2021-12-21T10:17:08.000Z</time>
      </trkpt>
      <trkpt lat="44.02912" lon="6.00387">
        <ele>577</ele>
        <time>2021-12-21T10:17:09.000Z</time>
      </trkpt>
      <trkpt lat="44.02912" lon="6.00389">
        <ele>577</ele>
        <time>2021-12-21T10:17:10.000Z</time>
      </trkpt>
      <trkpt lat="44.02912" lon="6.0039">
        <ele>577</ele>
        <time>2021-12-21T10:17:11.000Z</time>
      </trkpt>
      <trkpt lat="44.02912" lon="6.00391">
        <ele>577</ele>
        <time>2021-12-21T10:17:12.000Z</time>
      </trkpt>
      <trkpt lat="44.02912" lon="6.00393">
        <ele>577</ele>
        <time>2021-12-21T10:17:13.000Z</time>
      </trkpt>
      <trkpt lat="44.02913" lon="6.00394">
        <ele>577</ele>
        <time>2021-12-21T10:17:14.000Z</time>
      </trkpt>
      <trkpt lat="44.02912" lon="6.00396">
        <ele>578</ele>
        <time>2021-12-21T10:17:15.000Z</time>
      </trkpt>
      <trkpt lat="44.02912" lon="6.00397">
        <ele>578</ele>
        <time>2021-12-21T10:17:16.000Z</time>
      </trkpt>
      <trkpt lat="44.02912" lon="6.00399">
        <ele>578</ele>
        <time>2021-12-21T10:17:17.000Z</time>
      </trkpt>
      <trkpt lat="44.02912" lon="6.004">
        <ele>578</ele>
        <time>2021-12-21T10:17:18.000Z</time>
      </trkpt>
      <trkpt lat="44.02913" lon="6.00402">
        <ele>578</ele>
        <time>2021-12-21T10:17:19.000Z</time>
      </trkpt>
      <trkpt lat="44.02913" lon="6.00403">
        <ele>578</ele>
        <time>2021-12-21T10:17:20.000Z</time>
      </trkpt>
      <trkpt lat="44.02913" lon="6.00404">
        <ele>578</ele>
        <time>2021-12-21T10:17:21.000Z</time>
      </trkpt>
      <trkpt lat="44.02913" lon="6.00406">
        <ele>578</ele>
        <time>2021-12-21T10:17:22.000Z</time>
      </trkpt>
      <trkpt lat="44.02913" lon="6.00407">
        <ele>578</ele>
        <time>2021-12-21T10:17:23.000Z</time>
      </trkpt>
      <trkpt lat="44.02913" lon="6.00408">
        <ele>578</ele>
        <time>2021-12-21T10:17:24.000Z</time>
      </trkpt>
      <trkpt lat="44.02913" lon="6.0041">
        <ele>578</ele>
        <time>2021-12-21T10:17:25.000Z</time>
      </trkpt>
      <trkpt lat="44.02913" lon="6.00411">
        <ele>578</ele>
        <time>2021-12-21T10:17:26.000Z</time>
      </trkpt>
      <trkpt lat="44.02913" lon="6.00413">
        <ele>578</ele>
        <time>2021-12-21T10:17:27.000Z</time>
      </trkpt>
      <trkpt lat="44.02913" lon="6.00414">
        <ele>578</ele>
        <time>2021-12-21T10:17:28.000Z</time>
      </trkpt>
      <trkpt lat="44.02913" lon="6.00416">
        <ele>578</ele>
        <time>2021-12-21T10:17:29.000Z</time>
      </trkpt>
      <trkpt lat="44.02913" lon="6.00417">
        <ele>579</ele>
        <time>2021-12-21T10:17:30.000Z</time>
      </trkpt>
      <trkpt lat="44.02914" lon="6.00418">
        <ele>579</ele>
        <time>2021-12-21T10:17:31.000Z</time>
      </trkpt>
      <trkpt lat="44.02914" lon="6.0042">
        <ele>579</ele>
        <time>2021-12-21T10:17:32.000Z</time>
      </trkpt>
      <trkpt lat="44.02914" lon="6.00421">
        <ele>579</ele>
        <time>2021-12-21T10:17:33.000Z</time>
      </trkpt>
      <trkpt lat="44.02914" lon="6.00423">
        <ele>579</ele>
        <time>2021-12-21T10:17:34.000Z</time>
      </trkpt>
      <trkpt lat="44.02914" lon="6.00424">
        <ele>579</ele>
        <time>2021-12-21T10:17:35.000Z</time>
      </trkpt>
      <trkpt lat="44.02915" lon="6.00426">
        <ele>579</ele>
        <time>2021-12-21T10:17:36.000Z</time>
      </trkpt>
      <trkpt lat="44.02915" lon="6.00427">
        <ele>579</ele>
        <time>2021-12-21T10:17:37.000Z</time>
      </trkpt>
      <trkpt lat="44.02915" lon="6.00428">
        <ele>579</ele>
        <time>2021-12-21T10:17:38.000Z</time>
      </trkpt>
      <trkpt lat="44.02915" lon="6.0043">
        <ele>579</ele>
        <time>2021-12-21T10:17:39.000Z</time>
      </trkpt>
      <trkpt lat="44.02915" lon="6.00431">
        <ele>580</ele>
        <time>2021-12-21T10:17:40.000Z</time>
      </trkpt>
      <trkpt lat="44.02915" lon="6.00433">
        <ele>580</ele>
        <time>2021-12-21T10:17:41.000Z</time>
      </trkpt>
      <trkpt lat="44.02915" lon="6.00434">
        <ele>580</ele>
        <time>2021-12-21T10:17:42.000Z</time>
      </trkpt>
      <trkpt lat="44.02915" lon="6.00436">
        <ele>580</ele>
        <time>2021-12-21T10:17:43.000Z</time>
      </trkpt>
      <trkpt lat="44.02916" lon="6.00437">
        <ele>580</ele>
        <time>2021-12-21T10:17:44.000Z</time>
      </trkpt>
      <trkpt lat="44.02916" lon="6.00438">
        <ele>580</ele>
        <time>2021-12-21T10:17:45.000Z</time>
      </trkpt>
      <trkpt lat="44.02916" lon="6.00439">
        <ele>580</ele>
        <time>2021-12-21T10:17:46.000Z</time>
      </trkpt>
      <trkpt lat="44.02916" lon="6.00441">
        <ele>581</ele>
        <time>2021-12-21T10:17:47.000Z</time>
      </trkpt>
      <trkpt lat="44.02916" lon="6.00442">
        <ele>581</ele>
        <time>2021-12-21T10:17:48.000Z</time>
      </trkpt>
      <trkpt lat="44.02917" lon="6.00444">
        <ele>581</ele>
        <time>2021-12-21T10:17:49.000Z</time>
      </trkpt>
      <trkpt lat="44.02917" lon="6.00445">
        <ele>581</ele>
        <time>2021-12-21T10:17:50.000Z</time>
      </trkpt>
      <trkpt lat="44.02917" lon="6.00447">
        <ele>581</ele>
        <time>2021-12-21T10:17:51.000Z</time>
      </trkpt>
      <trkpt lat="44.02917" lon="6.00448">
        <ele>581</ele>
        <time>2021-12-21T10:17:52.000Z</time>
      </trkpt>
      <trkpt lat="44.02918" lon="6.00449">
        <ele>581</ele>
        <time>2021-12-21T10:17:53.000Z</time>
      </trkpt>
      <trkpt lat="44.02918" lon="6.00451">
        <ele>581</ele>
        <time>2021-12-21T10:17:54.000Z</time>
      </trkpt>
      <trkpt lat="44.02918" lon="6.00452">
        <ele>581</ele>
        <time>2021-12-21T10:17:55.000Z</time>
      </trkpt>
      <trkpt lat="44.02918" lon="6.00453">
        <ele>582</ele>
        <time>2021-12-21T10:17:56.000Z</time>
      </trkpt>
      <trkpt lat="44.02918" lon="6.00455">
        <ele>582</ele>
        <time>2021-12-21T10:17:57.000Z</time>
      </trkpt>
      <trkpt lat="44.02918" lon="6.00456">
        <ele>582</ele>
        <time>2021-12-21T10:17:58.000Z</time>
      </trkpt>
      <trkpt lat="44.02918" lon="6.00458">
        <ele>582</ele>
        <time>2021-12-21T10:17:59.000Z</time>
      </trkpt>
      <trkpt lat="44.02918" lon="6.00459">
        <ele>582</ele>
        <time>2021-12-21T10:18:00.000Z</time>
      </trkpt>
      <trkpt lat="44.02918" lon="6.0046">
        <ele>582</ele>
        <time>2021-12-21T10:18:01.000Z</time>
      </trkpt>
      <trkpt lat="44.02918" lon="6.00462">
        <ele>582</ele>
        <time>2021-12-21T10:18:02.000Z</time>
      </trkpt>
      <trkpt lat="44.02917" lon="6.00463">
        <ele>582</ele>
        <time>2021-12-21T10:18:03.000Z</time>
      </trkpt>
      <trkpt lat="44.02917" lon="6.00465">
        <ele>582</ele>
        <time>2021-12-21T10:18:04.000Z</time>
      </trkpt>
      <trkpt lat="44.02917" lon="6.00466">
        <ele>583</ele>
        <time>2021-12-21T10:18:05.000Z</time>
      </trkpt>
      <trkpt lat="44.02917" lon="6.00467">
        <ele>583</ele>
        <time>2021-12-21T10:18:06.000Z</time>
      </trkpt>
      <trkpt lat="44.02916" lon="6.00469">
        <ele>583</ele>
        <time>2021-12-21T10:18:07.000Z</time>
      </trkpt>
      <trkpt lat="44.02916" lon="6.0047">
        <ele>583</ele>
        <time>2021-12-21T10:18:08.000Z</time>
      </trkpt>
      <trkpt lat="44.02916" lon="6.00472">
        <ele>583</ele>
        <time>2021-12-21T10:18:09.000Z</time>
      </trkpt>
      <trkpt lat="44.02916" lon="6.00473">
        <ele>583</ele>
        <time>2021-12-21T10:18:10.000Z</time>
      </trkpt>
      <trkpt lat="44.02916" lon="6.00475">
        <ele>583</ele>
        <time>2021-12-21T10:18:11.000Z</time>
      </trkpt>
      <trkpt lat="44.02916" lon="6.00476">
        <ele>583</ele>
        <time>2021-12-21T10:18:12.000Z</time>
      </trkpt>
      <trkpt lat="44.02916" lon="6.00478">
        <ele>584</ele>
        <time>2021-12-21T10:18:13.000Z</time>
      </trkpt>
      <trkpt lat="44.02917" lon="6.00479">
        <ele>584</ele>
        <time>2021-12-21T10:18:14.000Z</time>
      </trkpt>
      <trkpt lat="44.02917" lon="6.0048">
        <ele>584</ele>
        <time>2021-12-21T10:18:15.000Z</time>
      </trkpt>
      <trkpt lat="44.02916" lon="6.00482">
        <ele>584</ele>
        <time>2021-12-21T10:18:16.000Z</time>
      </trkpt>
      <trkpt lat="44.02916" lon="6.00483">
        <ele>584</ele>
        <time>2021-12-21T10:18:17.000Z</time>
      </trkpt>
      <trkpt lat="44.02916" lon="6.00484">
        <ele>584</ele>
        <time>2021-12-21T10:18:18.000Z</time>
      </trkpt>
      <trkpt lat="44.02917" lon="6.00486">
        <ele>584</ele>
        <time>2021-12-21T10:18:19.000Z</time>
      </trkpt>
      <trkpt lat="44.02917" lon="6.00488">
        <ele>584</ele>
        <time>2021-12-21T10:18:20.000Z</time>
      </trkpt>
      <trkpt lat="44.02917" lon="6.00489">
        <ele>584</ele>
        <time>2021-12-21T10:18:21.000Z</time>
      </trkpt>
      <trkpt lat="44.02917" lon="6.00491">
        <ele>584</ele>
        <time>2021-12-21T10:18:22.000Z</time>
      </trkpt>
      <trkpt lat="44.02917" lon="6.00492">
        <ele>584</ele>
        <time>2021-12-21T10:18:23.000Z</time>
      </trkpt>
      <trkpt lat="44.02917" lon="6.00494">
        <ele>585</ele>
        <time>2021-12-21T10:18:24.000Z</time>
      </trkpt>
      <trkpt lat="44.02916" lon="6.00495">
        <ele>585</ele>
        <time>2021-12-21T10:18:25.000Z</time>
      </trkpt>
      <trkpt lat="44.02916" lon="6.00497">
        <ele>585</ele>
        <time>2021-12-21T10:18:26.000Z</time>
      </trkpt>
      <trkpt lat="44.02916" lon="6.00499">
        <ele>585</ele>
        <time>2021-12-21T10:18:27.000Z</time>
      </trkpt>
      <trkpt lat="44.02916" lon="6.005">
        <ele>585</ele>
        <time>2021-12-21T10:18:28.000Z</time>
      </trkpt>
      <trkpt lat="44.02916" lon="6.00501">
        <ele>585</ele>
        <time>2021-12-21T10:18:29.000Z</time>
      </trkpt>
      <trkpt lat="44.02916" lon="6.00503">
        <ele>585</ele>
        <time>2021-12-21T10:18:30.000Z</time>
      </trkpt>
      <trkpt lat="44.02916" lon="6.00504">
        <ele>585</ele>
        <time>2021-12-21T10:18:31.000Z</time>
      </trkpt>
      <trkpt lat="44.02916" lon="6.00505">
        <ele>585</ele>
        <time>2021-12-21T10:18:32.000Z</time>
      </trkpt>
      <trkpt lat="44.02916" lon="6.00506">
        <ele>585</ele>
        <time>2021-12-21T10:18:33.000Z</time>
      </trkpt>
      <trkpt lat="44.02916" lon="6.00507">
        <ele>586</ele>
        <time>2021-12-21T10:18:34.000Z</time>
      </trkpt>
      <trkpt lat="44.02916" lon="6.00508">
        <ele>586</ele>
        <time>2021-12-21T10:18:35.000Z</time>
      </trkpt>
      <trkpt lat="44.02916" lon="6.0051">
        <ele>586</ele>
        <time>2021-12-21T10:18:36.000Z</time>
      </trkpt>
      <trkpt lat="44.02915" lon="6.00511">
        <ele>586</ele>
        <time>2021-12-21T10:18:37.000Z</time>
      </trkpt>
      <trkpt lat="44.02915" lon="6.00512">
        <ele>586</ele>
        <time>2021-12-21T10:18:38.000Z</time>
      </trkpt>
      <trkpt lat="44.02914" lon="6.00513">
        <ele>587</ele>
        <time>2021-12-21T10:18:39.000Z</time>
      </trkpt>
      <trkpt lat="44.02914" lon="6.00514">
        <ele>587</ele>
        <time>2021-12-21T10:18:40.000Z</time>
      </trkpt>
      <trkpt lat="44.02914" lon="6.00515">
        <ele>587</ele>
        <time>2021-12-21T10:18:41.000Z</time>
      </trkpt>
      <trkpt lat="44.02913" lon="6.00517">
        <ele>587</ele>
        <time>2021-12-21T10:18:42.000Z</time>
      </trkpt>
      <trkpt lat="44.02913" lon="6.00518">
        <ele>588</ele>
        <time>2021-12-21T10:18:43.000Z</time>
      </trkpt>
      <trkpt lat="44.02913" lon="6.00519">
        <ele>588</ele>
        <time>2021-12-21T10:18:44.000Z</time>
      </trkpt>
      <trkpt lat="44.02913" lon="6.0052">
        <ele>588</ele>
        <time>2021-12-21T10:18:45.000Z</time>
      </trkpt>
      <trkpt lat="44.02913" lon="6.00521">
        <ele>588</ele>
        <time>2021-12-21T10:18:46.000Z</time>
      </trkpt>
      <trkpt lat="44.02912" lon="6.00522">
        <ele>588</ele>
        <time>2021-12-21T10:18:47.000Z</time>
      </trkpt>
      <trkpt lat="44.02912" lon="6.00524">
        <ele>588</ele>
        <time>2021-12-21T10:18:48.000Z</time>
      </trkpt>
      <trkpt lat="44.02912" lon="6.00525">
        <ele>588</ele>
        <time>2021-12-21T10:18:49.000Z</time>
      </trkpt>
      <trkpt lat="44.02912" lon="6.00526">
        <ele>589</ele>
        <time>2021-12-21T10:18:50.000Z</time>
      </trkpt>
      <trkpt lat="44.02912" lon="6.00528">
        <ele>589</ele>
        <time>2021-12-21T10:18:51.000Z</time>
      </trkpt>
      <trkpt lat="44.02912" lon="6.00529">
        <ele>589</ele>
        <time>2021-12-21T10:18:52.000Z</time>
      </trkpt>
      <trkpt lat="44.02912" lon="6.00531">
        <ele>589</ele>
        <time>2021-12-21T10:18:53.000Z</time>
      </trkpt>
      <trkpt lat="44.02912" lon="6.00532">
        <ele>589</ele>
        <time>2021-12-21T10:18:54.000Z</time>
      </trkpt>
      <trkpt lat="44.02912" lon="6.00534">
        <ele>590</ele>
        <time>2021-12-21T10:18:55.000Z</time>
      </trkpt>
      <trkpt lat="44.02912" lon="6.00535">
        <ele>590</ele>
        <time>2021-12-21T10:18:56.000Z</time>
      </trkpt>
      <trkpt lat="44.02912" lon="6.00536">
        <ele>590</ele>
        <time>2021-12-21T10:18:57.000Z</time>
      </trkpt>
      <trkpt lat="44.02912" lon="6.00538">
        <ele>590</ele>
        <time>2021-12-21T10:18:58.000Z</time>
      </trkpt>
      <trkpt lat="44.02911" lon="6.00539">
        <ele>590</ele>
        <time>2021-12-21T10:18:59.000Z</time>
      </trkpt>
      <trkpt lat="44.02911" lon="6.00541">
        <ele>591</ele>
        <time>2021-12-21T10:19:00.000Z</time>
      </trkpt>
      <trkpt lat="44.02911" lon="6.00542">
        <ele>591</ele>
        <time>2021-12-21T10:19:01.000Z</time>
      </trkpt>
      <trkpt lat="44.02911" lon="6.00544">
        <ele>591</ele>
        <time>2021-12-21T10:19:02.000Z</time>
      </trkpt>
      <trkpt lat="44.02911" lon="6.00545">
        <ele>591</ele>
        <time>2021-12-21T10:19:03.000Z</time>
      </trkpt>
      <trkpt lat="44.02911" lon="6.00547">
        <ele>591</ele>
        <time>2021-12-21T10:19:04.000Z</time>
      </trkpt>
      <trkpt lat="44.02911" lon="6.00548">
        <ele>591</ele>
        <time>2021-12-21T10:19:05.000Z</time>
      </trkpt>
      <trkpt lat="44.02911" lon="6.0055">
        <ele>591</ele>
        <time>2021-12-21T10:19:06.000Z</time>
      </trkpt>
      <trkpt lat="44.0291" lon="6.00551">
        <ele>591</ele>
        <time>2021-12-21T10:19:07.000Z</time>
      </trkpt>
      <trkpt lat="44.0291" lon="6.00553">
        <ele>591</ele>
        <time>2021-12-21T10:19:08.000Z</time>
      </trkpt>
      <trkpt lat="44.02909" lon="6.00554">
        <ele>591</ele>
        <time>2021-12-21T10:19:09.000Z</time>
      </trkpt>
      <trkpt lat="44.02909" lon="6.00555">
        <ele>591</ele>
        <time>2021-12-21T10:19:10.000Z</time>
      </trkpt>
      <trkpt lat="44.02909" lon="6.00557">
        <ele>591</ele>
        <time>2021-12-21T10:19:11.000Z</time>
      </trkpt>
      <trkpt lat="44.0291" lon="6.00558">
        <ele>591</ele>
        <time>2021-12-21T10:19:12.000Z</time>
      </trkpt>
      <trkpt lat="44.02909" lon="6.00559">
        <ele>591</ele>
        <time>2021-12-21T10:19:13.000Z</time>
      </trkpt>
      <trkpt lat="44.02909" lon="6.00559">
        <ele>591</ele>
        <time>2021-12-21T10:19:14.000Z</time>
      </trkpt>
      <trkpt lat="44.02909" lon="6.00559">
        <ele>591</ele>
        <time>2021-12-21T10:19:15.000Z</time>
      </trkpt>
      <trkpt lat="44.02909" lon="6.0056">
        <ele>591</ele>
        <time>2021-12-21T10:19:16.000Z</time>
      </trkpt>
      <trkpt lat="44.02909" lon="6.0056">
        <ele>590</ele>
        <time>2021-12-21T10:19:17.000Z</time>
      </trkpt>
      <trkpt lat="44.02909" lon="6.0056">
        <ele>590</ele>
        <time>2021-12-21T10:19:18.000Z</time>
      </trkpt>
      <trkpt lat="44.02909" lon="6.0056">
        <ele>590</ele>
        <time>2021-12-21T10:19:19.000Z</time>
      </trkpt>
      <trkpt lat="44.02909" lon="6.0056">
        <ele>590</ele>
        <time>2021-12-21T10:19:20.000Z</time>
      </trkpt>
      <trkpt lat="44.02909" lon="6.0056">
        <ele>590</ele>
        <time>2021-12-21T10:19:21.000Z</time>
      </trkpt>
      <trkpt lat="44.02909" lon="6.0056">
        <ele>590</ele>
        <time>2021-12-21T10:19:22.000Z</time>
      </trkpt>
      <trkpt lat="44.02909" lon="6.0056">
        <ele>590</ele>
        <time>2021-12-21T10:19:23.000Z</time>
      </trkpt>
      <trkpt lat="44.02909" lon="6.0056">
        <ele>590</ele>
        <time>2021-12-21T10:19:24.000Z</time>
      </trkpt>
      <trkpt lat="44.02909" lon="6.0056">
        <ele>590</ele>
        <time>2021-12-21T10:19:25.000Z</time>
      </trkpt>
      <trkpt lat="44.02908" lon="6.0056">
        <ele>590</ele>
        <time>2021-12-21T10:19:26.000Z</time>
      </trkpt>
      <trkpt lat="44.02908" lon="6.0056">
        <ele>590</ele>
        <time>2021-12-21T10:19:27.000Z</time>
      </trkpt>
      <trkpt lat="44.02908" lon="6.0056">
        <ele>590</ele>
        <time>2021-12-21T10:19:28.000Z</time>
      </trkpt>
      <trkpt lat="44.02908" lon="6.0056">
        <ele>590</ele>
        <time>2021-12-21T10:19:29.000Z</time>
      </trkpt>
      <trkpt lat="44.02908" lon="6.0056">
        <ele>590</ele>
        <time>2021-12-21T10:19:30.000Z</time>
      </trkpt>
      <trkpt lat="44.02908" lon="6.00561">
        <ele>590</ele>
        <time>2021-12-21T10:19:31.000Z</time>
      </trkpt>
      <trkpt lat="44.02908" lon="6.00561">
        <ele>590</ele>
        <time>2021-12-21T10:19:32.000Z</time>
      </trkpt>
      <trkpt lat="44.02908" lon="6.00561">
        <ele>590</ele>
        <time>2021-12-21T10:19:33.000Z</time>
      </trkpt>
      <trkpt lat="44.02908" lon="6.00561">
        <ele>590</ele>
        <time>2021-12-21T10:19:34.000Z</time>
      </trkpt>
      <trkpt lat="44.02908" lon="6.00561">
        <ele>589</ele>
        <time>2021-12-21T10:19:35.000Z</time>
      </trkpt>
      <trkpt lat="44.02908" lon="6.00561">
        <ele>589</ele>
        <time>2021-12-21T10:19:36.000Z</time>
      </trkpt>
      <trkpt lat="44.02908" lon="6.00561">
        <ele>589</ele>
        <time>2021-12-21T10:19:37.000Z</time>
      </trkpt>
      <trkpt lat="44.02908" lon="6.00561">
        <ele>589</ele>
        <time>2021-12-21T10:19:38.000Z</time>
      </trkpt>
      <trkpt lat="44.02908" lon="6.00561">
        <ele>589</ele>
        <time>2021-12-21T10:19:39.000Z</time>
      </trkpt>
      <trkpt lat="44.02908" lon="6.00561">
        <ele>589</ele>
        <time>2021-12-21T10:19:40.000Z</time>
      </trkpt>
      <trkpt lat="44.02908" lon="6.00561">
        <ele>589</ele>
        <time>2021-12-21T10:19:41.000Z</time>
      </trkpt>
      <trkpt lat="44.02908" lon="6.00561">
        <ele>589</ele>
        <time>2021-12-21T10:19:42.000Z</time>
      </trkpt>
      <trkpt lat="44.02908" lon="6.00561">
        <ele>589</ele>
        <time>2021-12-21T10:19:43.000Z</time>
      </trkpt>
      <trkpt lat="44.02907" lon="6.00561">
        <ele>589</ele>
        <time>2021-12-21T10:19:44.000Z</time>
      </trkpt>
      <trkpt lat="44.02907" lon="6.00561">
        <ele>589</ele>
        <time>2021-12-21T10:19:45.000Z</time>
      </trkpt>
      <trkpt lat="44.02907" lon="6.00561">
        <ele>589</ele>
        <time>2021-12-21T10:19:46.000Z</time>
      </trkpt>
      <trkpt lat="44.02907" lon="6.00561">
        <ele>589</ele>
        <time>2021-12-21T10:19:47.000Z</time>
      </trkpt>
      <trkpt lat="44.02907" lon="6.00561">
        <ele>589</ele>
        <time>2021-12-21T10:19:48.000Z</time>
      </trkpt>
      <trkpt lat="44.02907" lon="6.00561">
        <ele>589</ele>
        <time>2021-12-21T10:19:49.000Z</time>
      </trkpt>
      <trkpt lat="44.02907" lon="6.00561">
        <ele>589</ele>
        <time>2021-12-21T10:19:50.000Z</time>
      </trkpt>
      <trkpt lat="44.02907" lon="6.00561">
        <ele>589</ele>
        <time>2021-12-21T10:19:51.000Z</time>
      </trkpt>
      <trkpt lat="44.02907" lon="6.00561">
        <ele>589</ele>
        <time>2021-12-21T10:19:52.000Z</time>
      </trkpt>
      <trkpt lat="44.02907" lon="6.00561">
        <ele>589</ele>
        <time>2021-12-21T10:19:53.000Z</time>
      </trkpt>
      <trkpt lat="44.02907" lon="6.00561">
        <ele>589</ele>
        <time>2021-12-21T10:19:54.000Z</time>
      </trkpt>
      <trkpt lat="44.02907" lon="6.00561">
        <ele>589</ele>
        <time>2021-12-21T10:19:55.000Z</time>
      </trkpt>
      <trkpt lat="44.02907" lon="6.00561">
        <ele>589</ele>
        <time>2021-12-21T10:19:56.000Z</time>
      </trkpt>
      <trkpt lat="44.02907" lon="6.00561">
        <ele>589</ele>
        <time>2021-12-21T10:19:57.000Z</time>
      </trkpt>
      <trkpt lat="44.02907" lon="6.00561">
        <ele>589</ele>
        <time>2021-12-21T10:19:58.000Z</time>
      </trkpt>
      <trkpt lat="44.02907" lon="6.00561">
        <ele>589</ele>
        <time>2021-12-21T10:19:59.000Z</time>
      </trkpt>
      <trkpt lat="44.02907" lon="6.00561">
        <ele>589</ele>
        <time>2021-12-21T10:20:00.000Z</time>
      </trkpt>
      <trkpt lat="44.02907" lon="6.00561">
        <ele>589</ele>
        <time>2021-12-21T10:20:01.000Z</time>
      </trkpt>
      <trkpt lat="44.02907" lon="6.00561">
        <ele>589</ele>
        <time>2021-12-21T10:20:02.000Z</time>
      </trkpt>
      <trkpt lat="44.02907" lon="6.00561">
        <ele>589</ele>
        <time>2021-12-21T10:20:03.000Z</time>
      </trkpt>
      <trkpt lat="44.02907" lon="6.00561">
        <ele>589</ele>
        <time>2021-12-21T10:20:04.000Z</time>
      </trkpt>
      <trkpt lat="44.02907" lon="6.00561">
        <ele>589</ele>
        <time>2021-12-21T10:20:05.000Z</time>
      </trkpt>
      <trkpt lat="44.02907" lon="6.00561">
        <ele>589</ele>
        <time>2021-12-21T10:20:06.000Z</time>
      </trkpt>
      <trkpt lat="44.02907" lon="6.00561">
        <ele>589</ele>
        <time>2021-12-21T10:20:07.000Z</time>
      </trkpt>
      <trkpt lat="44.02907" lon="6.00561">
        <ele>589</ele>
        <time>2021-12-21T10:20:08.000Z</time>
      </trkpt>
      <trkpt lat="44.02907" lon="6.00561">
        <ele>589</ele>
        <time>2021-12-21T10:20:09.000Z</time>
      </trkpt>
      <trkpt lat="44.02907" lon="6.00561">
        <ele>589</ele>
        <time>2021-12-21T10:20:10.000Z</time>
      </trkpt>
      <trkpt lat="44.02907" lon="6.00561">
        <ele>589</ele>
        <time>2021-12-21T10:20:11.000Z</time>
      </trkpt>
      <trkpt lat="44.02907" lon="6.00561">
        <ele>589</ele>
        <time>2021-12-21T10:20:12.000Z</time>
      </trkpt>
      <trkpt lat="44.02907" lon="6.00561">
        <ele>589</ele>
        <time>2021-12-21T10:20:13.000Z</time>
      </trkpt>
      <trkpt lat="44.02907" lon="6.00561">
        <ele>589</ele>
        <time>2021-12-21T10:20:14.000Z</time>
      </trkpt>
      <trkpt lat="44.02907" lon="6.00561">
        <ele>589</ele>
        <time>2021-12-21T10:20:15.000Z</time>
      </trkpt>
      <trkpt lat="44.02907" lon="6.00561">
        <ele>589</ele>
        <time>2021-12-21T10:20:16.000Z</time>
      </trkpt>
      <trkpt lat="44.02907" lon="6.00561">
        <ele>589</ele>
        <time>2021-12-21T10:20:17.000Z</time>
      </trkpt>
      <trkpt lat="44.02906" lon="6.00561">
        <ele>589</ele>
        <time>2021-12-21T10:20:18.000Z</time>
      </trkpt>
      <trkpt lat="44.02906" lon="6.00561">
        <ele>589</ele>
        <time>2021-12-21T10:20:19.000Z</time>
      </trkpt>
      <trkpt lat="44.02906" lon="6.00561">
        <ele>589</ele>
        <time>2021-12-21T10:20:20.000Z</time>
      </trkpt>
      <trkpt lat="44.02906" lon="6.00561">
        <ele>589</ele>
        <time>2021-12-21T10:20:21.000Z</time>
      </trkpt>
      <trkpt lat="44.02906" lon="6.00562">
        <ele>589</ele>
        <time>2021-12-21T10:20:22.000Z</time>
      </trkpt>
      <trkpt lat="44.02906" lon="6.00562">
        <ele>589</ele>
        <time>2021-12-21T10:20:23.000Z</time>
      </trkpt>
      <trkpt lat="44.02906" lon="6.00562">
        <ele>589</ele>
        <time>2021-12-21T10:20:24.000Z</time>
      </trkpt>
      <trkpt lat="44.02906" lon="6.00562">
        <ele>589</ele>
        <time>2021-12-21T10:20:25.000Z</time>
      </trkpt>
      <trkpt lat="44.02906" lon="6.00562">
        <ele>589</ele>
        <time>2021-12-21T10:20:26.000Z</time>
      </trkpt>
      <trkpt lat="44.02906" lon="6.00562">
        <ele>589</ele>
        <time>2021-12-21T10:20:27.000Z</time>
      </trkpt>
      <trkpt lat="44.02906" lon="6.00562">
        <ele>589</ele>
        <time>2021-12-21T10:20:28.000Z</time>
      </trkpt>
      <trkpt lat="44.02906" lon="6.00562">
        <ele>589</ele>
        <time>2021-12-21T10:20:29.000Z</time>
      </trkpt>
      <trkpt lat="44.02906" lon="6.00562">
        <ele>589</ele>
        <time>2021-12-21T10:20:30.000Z</time>
      </trkpt>
      <trkpt lat="44.02906" lon="6.00562">
        <ele>589</ele>
        <time>2021-12-21T10:20:31.000Z</time>
      </trkpt>
      <trkpt lat="44.02906" lon="6.00562">
        <ele>589</ele>
        <time>2021-12-21T10:20:32.000Z</time>
      </trkpt>
      <trkpt lat="44.02906" lon="6.00562">
        <ele>589</ele>
        <time>2021-12-21T10:20:33.000Z</time>
      </trkpt>
      <trkpt lat="44.02906" lon="6.00562">
        <ele>589</ele>
        <time>2021-12-21T10:20:34.000Z</time>
      </trkpt>
      <trkpt lat="44.02906" lon="6.00562">
        <ele>589</ele>
        <time>2021-12-21T10:20:35.000Z</time>
      </trkpt>
      <trkpt lat="44.02906" lon="6.00562">
        <ele>589</ele>
        <time>2021-12-21T10:20:36.000Z</time>
      </trkpt>
      <trkpt lat="44.02906" lon="6.00562">
        <ele>589</ele>
        <time>2021-12-21T10:20:37.000Z</time>
      </trkpt>
      <trkpt lat="44.02906" lon="6.00562">
        <ele>589</ele>
        <time>2021-12-21T10:20:38.000Z</time>
      </trkpt>
      <trkpt lat="44.02906" lon="6.00562">
        <ele>589</ele>
        <time>2021-12-21T10:20:39.000Z</time>
      </trkpt>
      <trkpt lat="44.02906" lon="6.00562">
        <ele>589</ele>
        <time>2021-12-21T10:20:40.000Z</time>
      </trkpt>
      <trkpt lat="44.02906" lon="6.00562">
        <ele>589</ele>
        <time>2021-12-21T10:20:41.000Z</time>
      </trkpt>
      <trkpt lat="44.02906" lon="6.00562">
        <ele>589</ele>
        <time>2021-12-21T10:20:42.000Z</time>
      </trkpt>
      <trkpt lat="44.02906" lon="6.00562">
        <ele>589</ele>
        <time>2021-12-21T10:20:43.000Z</time>
      </trkpt>
      <trkpt lat="44.02906" lon="6.00562">
        <ele>589</ele>
        <time>2021-12-21T10:20:44.000Z</time>
      </trkpt>
      <trkpt lat="44.02906" lon="6.00562">
        <ele>589</ele>
        <time>2021-12-21T10:20:45.000Z</time>
      </trkpt>
      <trkpt lat="44.02906" lon="6.00562">
        <ele>589</ele>
        <time>2021-12-21T10:20:46.000Z</time>
      </trkpt>
      <trkpt lat="44.02906" lon="6.00562">
        <ele>589</ele>
        <time>2021-12-21T10:20:47.000Z</time>
      </trkpt>
      <trkpt lat="44.02906" lon="6.00562">
        <ele>589</ele>
        <time>2021-12-21T10:20:48.000Z</time>
      </trkpt>
      <trkpt lat="44.02906" lon="6.00562">
        <ele>589</ele>
        <time>2021-12-21T10:20:49.000Z</time>
      </trkpt>
      <trkpt lat="44.02906" lon="6.00562">
        <ele>589</ele>
        <time>2021-12-21T10:20:50.000Z</time>
      </trkpt>
      <trkpt lat="44.02906" lon="6.00562">
        <ele>589</ele>
        <time>2021-12-21T10:20:51.000Z</time>
      </trkpt>
      <trkpt lat="44.02906" lon="6.00562">
        <ele>589</ele>
        <time>2021-12-21T10:20:52.000Z</time>
      </trkpt>
      <trkpt lat="44.02906" lon="6.00562">
        <ele>589</ele>
        <time>2021-12-21T10:20:53.000Z</time>
      </trkpt>
      <trkpt lat="44.02906" lon="6.00562">
        <ele>589</ele>
        <time>2021-12-21T10:20:54.000Z</time>
      </trkpt>
      <trkpt lat="44.02906" lon="6.00562">
        <ele>589</ele>
        <time>2021-12-21T10:20:55.000Z</time>
      </trkpt>
      <trkpt lat="44.02906" lon="6.00562">
        <ele>589</ele>
        <time>2021-12-21T10:20:56.000Z</time>
      </trkpt>
      <trkpt lat="44.02906" lon="6.00562">
        <ele>589</ele>
        <time>2021-12-21T10:20:57.000Z</time>
      </trkpt>
      <trkpt lat="44.02906" lon="6.00562">
        <ele>589</ele>
        <time>2021-12-21T10:20:58.000Z</time>
      </trkpt>
      <trkpt lat="44.02906" lon="6.00562">
        <ele>589</ele>
        <time>2021-12-21T10:20:59.000Z</time>
      </trkpt>
      <trkpt lat="44.02906" lon="6.00562">
        <ele>589</ele>
        <time>2021-12-21T10:21:00.000Z</time>
      </trkpt>
      <trkpt lat="44.02906" lon="6.00562">
        <ele>589</ele>
        <time>2021-12-21T10:21:01.000Z</time>
      </trkpt>
      <trkpt lat="44.02906" lon="6.00562">
        <ele>589</ele>
        <time>2021-12-21T10:21:02.000Z</time>
      </trkpt>
      <trkpt lat="44.02906" lon="6.00562">
        <ele>589</ele>
        <time>2021-12-21T10:21:03.000Z</time>
      </trkpt>
      <trkpt lat="44.02906" lon="6.00562">
        <ele>589</ele>
        <time>2021-12-21T10:21:04.000Z</time>
      </trkpt>
      <trkpt lat="44.02906" lon="6.00562">
        <ele>589</ele>
        <time>2021-12-21T10:21:05.000Z</time>
      </trkpt>
      <trkpt lat="44.02906" lon="6.00562">
        <ele>589</ele>
        <time>2021-12-21T10:21:06.000Z</time>
      </trkpt>
      <trkpt lat="44.02906" lon="6.00562">
        <ele>589</ele>
        <time>2021-12-21T10:21:07.000Z</time>
      </trkpt>
      <trkpt lat="44.02906" lon="6.00562">
        <ele>589</ele>
        <time>2021-12-21T10:21:08.000Z</time>
      </trkpt>
      <trkpt lat="44.02906" lon="6.00562">
        <ele>589</ele>
        <time>2021-12-21T10:21:09.000Z</time>
      </trkpt>
      <trkpt lat="44.02905" lon="6.00562">
        <ele>589</ele>
        <time>2021-12-21T10:21:10.000Z</time>
      </trkpt>
      <trkpt lat="44.02905" lon="6.00562">
        <ele>589</ele>
        <time>2021-12-21T10:21:11.000Z</time>
      </trkpt>
      <trkpt lat="44.02905" lon="6.00562">
        <ele>589</ele>
        <time>2021-12-21T10:21:12.000Z</time>
      </trkpt>
      <trkpt lat="44.02905" lon="6.00562">
        <ele>589</ele>
        <time>2021-12-21T10:21:13.000Z</time>
      </trkpt>
      <trkpt lat="44.02905" lon="6.00562">
        <ele>589</ele>
        <time>2021-12-21T10:21:14.000Z</time>
      </trkpt>
      <trkpt lat="44.02905" lon="6.00562">
        <ele>589</ele>
        <time>2021-12-21T10:21:15.000Z</time>
      </trkpt>
      <trkpt lat="44.02905" lon="6.00562">
        <ele>589</ele>
        <time>2021-12-21T10:21:16.000Z</time>
      </trkpt>
      <trkpt lat="44.02905" lon="6.00562">
        <ele>589</ele>
        <time>2021-12-21T10:21:17.000Z</time>
      </trkpt>
      <trkpt lat="44.02905" lon="6.00562">
        <ele>589</ele>
        <time>2021-12-21T10:21:18.000Z</time>
      </trkpt>
      <trkpt lat="44.02905" lon="6.00562">
        <ele>589</ele>
        <time>2021-12-21T10:21:19.000Z</time>
      </trkpt>
      <trkpt lat="44.02905" lon="6.00562">
        <ele>589</ele>
        <time>2021-12-21T10:21:20.000Z</time>
      </trkpt>
      <trkpt lat="44.02905" lon="6.00562">
        <ele>589</ele>
        <time>2021-12-21T10:21:21.000Z</time>
      </trkpt>
      <trkpt lat="44.02905" lon="6.00562">
        <ele>589</ele>
        <time>2021-12-21T10:21:22.000Z</time>
      </trkpt>
      <trkpt lat="44.02905" lon="6.00562">
        <ele>589</ele>
        <time>2021-12-21T10:21:23.000Z</time>
      </trkpt>
      <trkpt lat="44.02905" lon="6.00562">
        <ele>589</ele>
        <time>2021-12-21T10:21:24.000Z</time>
      </trkpt>
      <trkpt lat="44.02905" lon="6.00562">
        <ele>589</ele>
        <time>2021-12-21T10:21:25.000Z</time>
      </trkpt>
      <trkpt lat="44.02905" lon="6.00562">
        <ele>589</ele>
        <time>2021-12-21T10:21:26.000Z</time>
      </trkpt>
      <trkpt lat="44.02905" lon="6.00562">
        <ele>589</ele>
        <time>2021-12-21T10:21:27.000Z</time>
      </trkpt>
      <trkpt lat="44.02905" lon="6.00562">
        <ele>589</ele>
        <time>2021-12-21T10:21:28.000Z</time>
      </trkpt>
      <trkpt lat="44.02905" lon="6.00562">
        <ele>589</ele>
        <time>2021-12-21T10:21:29.000Z</time>
      </trkpt>
      <trkpt lat="44.02905" lon="6.00562">
        <ele>589</ele>
        <time>2021-12-21T10:21:30.000Z</time>
      </trkpt>
      <trkpt lat="44.02905" lon="6.00562">
        <ele>589</ele>
        <time>2021-12-21T10:21:31.000Z</time>
      </trkpt>
      <trkpt lat="44.02905" lon="6.00563">
        <ele>589</ele>
        <time>2021-12-21T10:21:32.000Z</time>
      </trkpt>
      <trkpt lat="44.02905" lon="6.00563">
        <ele>589</ele>
        <time>2021-12-21T10:21:33.000Z</time>
      </trkpt>
      <trkpt lat="44.02904" lon="6.00564">
        <ele>589</ele>
        <time>2021-12-21T10:21:34.000Z</time>
      </trkpt>
      <trkpt lat="44.02904" lon="6.00565">
        <ele>589</ele>
        <time>2021-12-21T10:21:35.000Z</time>
      </trkpt>
      <trkpt lat="44.02904" lon="6.00566">
        <ele>589</ele>
        <time>2021-12-21T10:21:36.000Z</time>
      </trkpt>
      <trkpt lat="44.02903" lon="6.00568">
        <ele>590</ele>
        <time>2021-12-21T10:21:37.000Z</time>
      </trkpt>
      <trkpt lat="44.02903" lon="6.00569">
        <ele>590</ele>
        <time>2021-12-21T10:21:38.000Z</time>
      </trkpt>
      <trkpt lat="44.02903" lon="6.0057">
        <ele>590</ele>
        <time>2021-12-21T10:21:39.000Z</time>
      </trkpt>
      <trkpt lat="44.02903" lon="6.00572">
        <ele>590</ele>
        <time>2021-12-21T10:21:40.000Z</time>
      </trkpt>
      <trkpt lat="44.02902" lon="6.00573">
        <ele>590</ele>
        <time>2021-12-21T10:21:41.000Z</time>
      </trkpt>
      <trkpt lat="44.02902" lon="6.00575">
        <ele>590</ele>
        <time>2021-12-21T10:21:42.000Z</time>
      </trkpt>
      <trkpt lat="44.02902" lon="6.00576">
        <ele>590</ele>
        <time>2021-12-21T10:21:43.000Z</time>
      </trkpt>
      <trkpt lat="44.02902" lon="6.00577">
        <ele>590</ele>
        <time>2021-12-21T10:21:44.000Z</time>
      </trkpt>
      <trkpt lat="44.02901" lon="6.00578">
        <ele>590</ele>
        <time>2021-12-21T10:21:45.000Z</time>
      </trkpt>
      <trkpt lat="44.02901" lon="6.0058">
        <ele>590</ele>
        <time>2021-12-21T10:21:46.000Z</time>
      </trkpt>
      <trkpt lat="44.02901" lon="6.00581">
        <ele>590</ele>
        <time>2021-12-21T10:21:47.000Z</time>
      </trkpt>
      <trkpt lat="44.02901" lon="6.00582">
        <ele>590</ele>
        <time>2021-12-21T10:21:48.000Z</time>
      </trkpt>
      <trkpt lat="44.029" lon="6.00584">
        <ele>590</ele>
        <time>2021-12-21T10:21:49.000Z</time>
      </trkpt>
      <trkpt lat="44.029" lon="6.00585">
        <ele>590</ele>
        <time>2021-12-21T10:21:50.000Z</time>
      </trkpt>
      <trkpt lat="44.029" lon="6.00586">
        <ele>590</ele>
        <time>2021-12-21T10:21:51.000Z</time>
      </trkpt>
      <trkpt lat="44.029" lon="6.00588">
        <ele>590</ele>
        <time>2021-12-21T10:21:52.000Z</time>
      </trkpt>
      <trkpt lat="44.02899" lon="6.00589">
        <ele>591</ele>
        <time>2021-12-21T10:21:53.000Z</time>
      </trkpt>
      <trkpt lat="44.02899" lon="6.00591">
        <ele>591</ele>
        <time>2021-12-21T10:21:54.000Z</time>
      </trkpt>
      <trkpt lat="44.02899" lon="6.00592">
        <ele>591</ele>
        <time>2021-12-21T10:21:55.000Z</time>
      </trkpt>
      <trkpt lat="44.02898" lon="6.00593">
        <ele>591</ele>
        <time>2021-12-21T10:21:56.000Z</time>
      </trkpt>
      <trkpt lat="44.02898" lon="6.00595">
        <ele>591</ele>
        <time>2021-12-21T10:21:57.000Z</time>
      </trkpt>
      <trkpt lat="44.02898" lon="6.00596">
        <ele>591</ele>
        <time>2021-12-21T10:21:58.000Z</time>
      </trkpt>
      <trkpt lat="44.02898" lon="6.00597">
        <ele>591</ele>
        <time>2021-12-21T10:21:59.000Z</time>
      </trkpt>
      <trkpt lat="44.02897" lon="6.00599">
        <ele>591</ele>
        <time>2021-12-21T10:22:00.000Z</time>
      </trkpt>
      <trkpt lat="44.02897" lon="6.006">
        <ele>591</ele>
        <time>2021-12-21T10:22:01.000Z</time>
      </trkpt>
      <trkpt lat="44.02897" lon="6.00601">
        <ele>591</ele>
        <time>2021-12-21T10:22:02.000Z</time>
      </trkpt>
      <trkpt lat="44.02896" lon="6.00603">
        <ele>591</ele>
        <time>2021-12-21T10:22:03.000Z</time>
      </trkpt>
      <trkpt lat="44.02896" lon="6.00604">
        <ele>591</ele>
        <time>2021-12-21T10:22:04.000Z</time>
      </trkpt>
      <trkpt lat="44.02895" lon="6.00605">
        <ele>591</ele>
        <time>2021-12-21T10:22:05.000Z</time>
      </trkpt>
      <trkpt lat="44.02894" lon="6.00606">
        <ele>592</ele>
        <time>2021-12-21T10:22:06.000Z</time>
      </trkpt>
      <trkpt lat="44.02894" lon="6.00608">
        <ele>592</ele>
        <time>2021-12-21T10:22:07.000Z</time>
      </trkpt>
      <trkpt lat="44.02894" lon="6.00609">
        <ele>592</ele>
        <time>2021-12-21T10:22:08.000Z</time>
      </trkpt>
      <trkpt lat="44.02893" lon="6.0061">
        <ele>592</ele>
        <time>2021-12-21T10:22:09.000Z</time>
      </trkpt>
      <trkpt lat="44.02893" lon="6.00611">
        <ele>592</ele>
        <time>2021-12-21T10:22:10.000Z</time>
      </trkpt>
      <trkpt lat="44.02893" lon="6.00613">
        <ele>592</ele>
        <time>2021-12-21T10:22:11.000Z</time>
      </trkpt>
      <trkpt lat="44.02892" lon="6.00614">
        <ele>592</ele>
        <time>2021-12-21T10:22:12.000Z</time>
      </trkpt>
      <trkpt lat="44.02892" lon="6.00615">
        <ele>592</ele>
        <time>2021-12-21T10:22:13.000Z</time>
      </trkpt>
      <trkpt lat="44.02891" lon="6.00616">
        <ele>592</ele>
        <time>2021-12-21T10:22:14.000Z</time>
      </trkpt>
      <trkpt lat="44.02891" lon="6.00618">
        <ele>592</ele>
        <time>2021-12-21T10:22:15.000Z</time>
      </trkpt>
      <trkpt lat="44.02891" lon="6.00619">
        <ele>592</ele>
        <time>2021-12-21T10:22:16.000Z</time>
      </trkpt>
      <trkpt lat="44.0289" lon="6.0062">
        <ele>592</ele>
        <time>2021-12-21T10:22:17.000Z</time>
      </trkpt>
      <trkpt lat="44.0289" lon="6.00622">
        <ele>592</ele>
        <time>2021-12-21T10:22:18.000Z</time>
      </trkpt>
      <trkpt lat="44.02889" lon="6.00623">
        <ele>592</ele>
        <time>2021-12-21T10:22:19.000Z</time>
      </trkpt>
      <trkpt lat="44.02889" lon="6.00624">
        <ele>593</ele>
        <time>2021-12-21T10:22:20.000Z</time>
      </trkpt>
      <trkpt lat="44.02888" lon="6.00626">
        <ele>593</ele>
        <time>2021-12-21T10:22:21.000Z</time>
      </trkpt>
      <trkpt lat="44.02888" lon="6.00627">
        <ele>593</ele>
        <time>2021-12-21T10:22:22.000Z</time>
      </trkpt>
      <trkpt lat="44.02887" lon="6.00628">
        <ele>593</ele>
        <time>2021-12-21T10:22:23.000Z</time>
      </trkpt>
      <trkpt lat="44.02887" lon="6.00629">
        <ele>593</ele>
        <time>2021-12-21T10:22:24.000Z</time>
      </trkpt>
      <trkpt lat="44.02886" lon="6.00631">
        <ele>593</ele>
        <time>2021-12-21T10:22:25.000Z</time>
      </trkpt>
      <trkpt lat="44.02886" lon="6.00632">
        <ele>593</ele>
        <time>2021-12-21T10:22:26.000Z</time>
      </trkpt>
      <trkpt lat="44.02885" lon="6.00633">
        <ele>593</ele>
        <time>2021-12-21T10:22:27.000Z</time>
      </trkpt>
      <trkpt lat="44.02885" lon="6.00634">
        <ele>593</ele>
        <time>2021-12-21T10:22:28.000Z</time>
      </trkpt>
      <trkpt lat="44.02884" lon="6.00635">
        <ele>593</ele>
        <time>2021-12-21T10:22:29.000Z</time>
      </trkpt>
      <trkpt lat="44.02884" lon="6.00637">
        <ele>593</ele>
        <time>2021-12-21T10:22:30.000Z</time>
      </trkpt>
      <trkpt lat="44.02883" lon="6.00638">
        <ele>593</ele>
        <time>2021-12-21T10:22:31.000Z</time>
      </trkpt>
      <trkpt lat="44.02883" lon="6.00639">
        <ele>593</ele>
        <time>2021-12-21T10:22:32.000Z</time>
      </trkpt>
      <trkpt lat="44.02882" lon="6.0064">
        <ele>593</ele>
        <time>2021-12-21T10:22:33.000Z</time>
      </trkpt>
      <trkpt lat="44.02882" lon="6.00641">
        <ele>593</ele>
        <time>2021-12-21T10:22:34.000Z</time>
      </trkpt>
      <trkpt lat="44.02881" lon="6.00642">
        <ele>593</ele>
        <time>2021-12-21T10:22:35.000Z</time>
      </trkpt>
      <trkpt lat="44.02881" lon="6.00644">
        <ele>593</ele>
        <time>2021-12-21T10:22:36.000Z</time>
      </trkpt>
      <trkpt lat="44.02881" lon="6.00645">
        <ele>593</ele>
        <time>2021-12-21T10:22:37.000Z</time>
      </trkpt>
      <trkpt lat="44.02881" lon="6.00646">
        <ele>593</ele>
        <time>2021-12-21T10:22:38.000Z</time>
      </trkpt>
      <trkpt lat="44.0288" lon="6.00647">
        <ele>593</ele>
        <time>2021-12-21T10:22:39.000Z</time>
      </trkpt>
      <trkpt lat="44.0288" lon="6.00648">
        <ele>593</ele>
        <time>2021-12-21T10:22:40.000Z</time>
      </trkpt>
      <trkpt lat="44.0288" lon="6.0065">
        <ele>593</ele>
        <time>2021-12-21T10:22:41.000Z</time>
      </trkpt>
      <trkpt lat="44.02879" lon="6.00651">
        <ele>593</ele>
        <time>2021-12-21T10:22:42.000Z</time>
      </trkpt>
      <trkpt lat="44.02879" lon="6.00652">
        <ele>593</ele>
        <time>2021-12-21T10:22:43.000Z</time>
      </trkpt>
      <trkpt lat="44.02879" lon="6.00653">
        <ele>593</ele>
        <time>2021-12-21T10:22:44.000Z</time>
      </trkpt>
      <trkpt lat="44.02879" lon="6.00654">
        <ele>593</ele>
        <time>2021-12-21T10:22:45.000Z</time>
      </trkpt>
      <trkpt lat="44.02878" lon="6.00656">
        <ele>594</ele>
        <time>2021-12-21T10:22:46.000Z</time>
      </trkpt>
      <trkpt lat="44.02878" lon="6.00657">
        <ele>594</ele>
        <time>2021-12-21T10:22:47.000Z</time>
      </trkpt>
      <trkpt lat="44.02878" lon="6.00658">
        <ele>594</ele>
        <time>2021-12-21T10:22:48.000Z</time>
      </trkpt>
      <trkpt lat="44.02878" lon="6.0066">
        <ele>594</ele>
        <time>2021-12-21T10:22:49.000Z</time>
      </trkpt>
      <trkpt lat="44.02877" lon="6.00661">
        <ele>594</ele>
        <time>2021-12-21T10:22:50.000Z</time>
      </trkpt>
      <trkpt lat="44.02877" lon="6.00663">
        <ele>594</ele>
        <time>2021-12-21T10:22:51.000Z</time>
      </trkpt>
      <trkpt lat="44.02877" lon="6.00664">
        <ele>594</ele>
        <time>2021-12-21T10:22:52.000Z</time>
      </trkpt>
      <trkpt lat="44.02877" lon="6.00665">
        <ele>594</ele>
        <time>2021-12-21T10:22:53.000Z</time>
      </trkpt>
      <trkpt lat="44.02877" lon="6.00666">
        <ele>594</ele>
        <time>2021-12-21T10:22:54.000Z</time>
      </trkpt>
      <trkpt lat="44.02877" lon="6.00668">
        <ele>595</ele>
        <time>2021-12-21T10:22:55.000Z</time>
      </trkpt>
      <trkpt lat="44.02876" lon="6.00669">
        <ele>595</ele>
        <time>2021-12-21T10:22:56.000Z</time>
      </trkpt>
      <trkpt lat="44.02876" lon="6.0067">
        <ele>595</ele>
        <time>2021-12-21T10:22:57.000Z</time>
      </trkpt>
      <trkpt lat="44.02876" lon="6.00672">
        <ele>595</ele>
        <time>2021-12-21T10:22:58.000Z</time>
      </trkpt>
      <trkpt lat="44.02876" lon="6.00673">
        <ele>595</ele>
        <time>2021-12-21T10:22:59.000Z</time>
      </trkpt>
      <trkpt lat="44.02875" lon="6.00674">
        <ele>595</ele>
        <time>2021-12-21T10:23:00.000Z</time>
      </trkpt>
      <trkpt lat="44.02875" lon="6.00676">
        <ele>595</ele>
        <time>2021-12-21T10:23:01.000Z</time>
      </trkpt>
      <trkpt lat="44.02875" lon="6.00677">
        <ele>595</ele>
        <time>2021-12-21T10:23:02.000Z</time>
      </trkpt>
      <trkpt lat="44.02874" lon="6.00678">
        <ele>595</ele>
        <time>2021-12-21T10:23:03.000Z</time>
      </trkpt>
      <trkpt lat="44.02874" lon="6.0068">
        <ele>595</ele>
        <time>2021-12-21T10:23:04.000Z</time>
      </trkpt>
      <trkpt lat="44.02874" lon="6.00681">
        <ele>595</ele>
        <time>2021-12-21T10:23:05.000Z</time>
      </trkpt>
      <trkpt lat="44.02873" lon="6.00683">
        <ele>595</ele>
        <time>2021-12-21T10:23:06.000Z</time>
      </trkpt>
      <trkpt lat="44.02873" lon="6.00684">
        <ele>596</ele>
        <time>2021-12-21T10:23:07.000Z</time>
      </trkpt>
      <trkpt lat="44.02872" lon="6.00685">
        <ele>596</ele>
        <time>2021-12-21T10:23:08.000Z</time>
      </trkpt>
      <trkpt lat="44.02872" lon="6.00687">
        <ele>596</ele>
        <time>2021-12-21T10:23:09.000Z</time>
      </trkpt>
      <trkpt lat="44.02872" lon="6.00688">
        <ele>596</ele>
        <time>2021-12-21T10:23:10.000Z</time>
      </trkpt>
      <trkpt lat="44.02871" lon="6.00689">
        <ele>596</ele>
        <time>2021-12-21T10:23:11.000Z</time>
      </trkpt>
      <trkpt lat="44.02871" lon="6.0069">
        <ele>596</ele>
        <time>2021-12-21T10:23:12.000Z</time>
      </trkpt>
      <trkpt lat="44.0287" lon="6.00691">
        <ele>596</ele>
        <time>2021-12-21T10:23:13.000Z</time>
      </trkpt>
      <trkpt lat="44.0287" lon="6.00692">
        <ele>596</ele>
        <time>2021-12-21T10:23:14.000Z</time>
      </trkpt>
      <trkpt lat="44.02869" lon="6.00693">
        <ele>596</ele>
        <time>2021-12-21T10:23:15.000Z</time>
      </trkpt>
      <trkpt lat="44.02869" lon="6.00694">
        <ele>596</ele>
        <time>2021-12-21T10:23:16.000Z</time>
      </trkpt>
      <trkpt lat="44.02868" lon="6.00696">
        <ele>596</ele>
        <time>2021-12-21T10:23:17.000Z</time>
      </trkpt>
      <trkpt lat="44.02867" lon="6.00697">
        <ele>597</ele>
        <time>2021-12-21T10:23:18.000Z</time>
      </trkpt>
      <trkpt lat="44.02866" lon="6.00698">
        <ele>597</ele>
        <time>2021-12-21T10:23:19.000Z</time>
      </trkpt>
      <trkpt lat="44.02866" lon="6.00699">
        <ele>597</ele>
        <time>2021-12-21T10:23:20.000Z</time>
      </trkpt>
      <trkpt lat="44.02865" lon="6.007">
        <ele>597</ele>
        <time>2021-12-21T10:23:21.000Z</time>
      </trkpt>
      <trkpt lat="44.02864" lon="6.00701">
        <ele>597</ele>
        <time>2021-12-21T10:23:22.000Z</time>
      </trkpt>
      <trkpt lat="44.02864" lon="6.00702">
        <ele>597</ele>
        <time>2021-12-21T10:23:23.000Z</time>
      </trkpt>
      <trkpt lat="44.02863" lon="6.00703">
        <ele>597</ele>
        <time>2021-12-21T10:23:24.000Z</time>
      </trkpt>
      <trkpt lat="44.02862" lon="6.00703">
        <ele>597</ele>
        <time>2021-12-21T10:23:25.000Z</time>
      </trkpt>
      <trkpt lat="44.02861" lon="6.00704">
        <ele>597</ele>
        <time>2021-12-21T10:23:26.000Z</time>
      </trkpt>
      <trkpt lat="44.02861" lon="6.00705">
        <ele>597</ele>
        <time>2021-12-21T10:23:27.000Z</time>
      </trkpt>
      <trkpt lat="44.0286" lon="6.00706">
        <ele>597</ele>
        <time>2021-12-21T10:23:28.000Z</time>
      </trkpt>
      <trkpt lat="44.02859" lon="6.00707">
        <ele>597</ele>
        <time>2021-12-21T10:23:29.000Z</time>
      </trkpt>
      <trkpt lat="44.02858" lon="6.00708">
        <ele>597</ele>
        <time>2021-12-21T10:23:30.000Z</time>
      </trkpt>
      <trkpt lat="44.02858" lon="6.00709">
        <ele>597</ele>
        <time>2021-12-21T10:23:31.000Z</time>
      </trkpt>
      <trkpt lat="44.02857" lon="6.00709">
        <ele>597</ele>
        <time>2021-12-21T10:23:32.000Z</time>
      </trkpt>
      <trkpt lat="44.02856" lon="6.0071">
        <ele>597</ele>
        <time>2021-12-21T10:23:33.000Z</time>
      </trkpt>
      <trkpt lat="44.02856" lon="6.00711">
        <ele>598</ele>
        <time>2021-12-21T10:23:34.000Z</time>
      </trkpt>
      <trkpt lat="44.02855" lon="6.00712">
        <ele>598</ele>
        <time>2021-12-21T10:23:35.000Z</time>
      </trkpt>
      <trkpt lat="44.02855" lon="6.00713">
        <ele>598</ele>
        <time>2021-12-21T10:23:36.000Z</time>
      </trkpt>
      <trkpt lat="44.02854" lon="6.00714">
        <ele>598</ele>
        <time>2021-12-21T10:23:37.000Z</time>
      </trkpt>
      <trkpt lat="44.02854" lon="6.00716">
        <ele>598</ele>
        <time>2021-12-21T10:23:38.000Z</time>
      </trkpt>
      <trkpt lat="44.02853" lon="6.00717">
        <ele>598</ele>
        <time>2021-12-21T10:23:39.000Z</time>
      </trkpt>
      <trkpt lat="44.02853" lon="6.00718">
        <ele>598</ele>
        <time>2021-12-21T10:23:40.000Z</time>
      </trkpt>
      <trkpt lat="44.02852" lon="6.00719">
        <ele>598</ele>
        <time>2021-12-21T10:23:41.000Z</time>
      </trkpt>
      <trkpt lat="44.02852" lon="6.0072">
        <ele>599</ele>
        <time>2021-12-21T10:23:42.000Z</time>
      </trkpt>
      <trkpt lat="44.02851" lon="6.00721">
        <ele>599</ele>
        <time>2021-12-21T10:23:43.000Z</time>
      </trkpt>
      <trkpt lat="44.02851" lon="6.00723">
        <ele>599</ele>
        <time>2021-12-21T10:23:44.000Z</time>
      </trkpt>
      <trkpt lat="44.0285" lon="6.00724">
        <ele>599</ele>
        <time>2021-12-21T10:23:45.000Z</time>
      </trkpt>
      <trkpt lat="44.0285" lon="6.00725">
        <ele>599</ele>
        <time>2021-12-21T10:23:46.000Z</time>
      </trkpt>
      <trkpt lat="44.02849" lon="6.00726">
        <ele>599</ele>
        <time>2021-12-21T10:23:47.000Z</time>
      </trkpt>
      <trkpt lat="44.02849" lon="6.00728">
        <ele>599</ele>
        <time>2021-12-21T10:23:48.000Z</time>
      </trkpt>
      <trkpt lat="44.02848" lon="6.00729">
        <ele>599</ele>
        <time>2021-12-21T10:23:49.000Z</time>
      </trkpt>
      <trkpt lat="44.02848" lon="6.0073">
        <ele>600</ele>
        <time>2021-12-21T10:23:50.000Z</time>
      </trkpt>
      <trkpt lat="44.02848" lon="6.00732">
        <ele>600</ele>
        <time>2021-12-21T10:23:51.000Z</time>
      </trkpt>
      <trkpt lat="44.02848" lon="6.00733">
        <ele>600</ele>
        <time>2021-12-21T10:23:52.000Z</time>
      </trkpt>
      <trkpt lat="44.02848" lon="6.00734">
        <ele>600</ele>
        <time>2021-12-21T10:23:53.000Z</time>
      </trkpt>
      <trkpt lat="44.02847" lon="6.00736">
        <ele>600</ele>
        <time>2021-12-21T10:23:54.000Z</time>
      </trkpt>
      <trkpt lat="44.02847" lon="6.00737">
        <ele>600</ele>
        <time>2021-12-21T10:23:55.000Z</time>
      </trkpt>
      <trkpt lat="44.02847" lon="6.00738">
        <ele>600</ele>
        <time>2021-12-21T10:23:56.000Z</time>
      </trkpt>
      <trkpt lat="44.02847" lon="6.0074">
        <ele>600</ele>
        <time>2021-12-21T10:23:57.000Z</time>
      </trkpt>
      <trkpt lat="44.02847" lon="6.00742">
        <ele>600</ele>
        <time>2021-12-21T10:23:58.000Z</time>
      </trkpt>
      <trkpt lat="44.02847" lon="6.00743">
        <ele>601</ele>
        <time>2021-12-21T10:23:59.000Z</time>
      </trkpt>
      <trkpt lat="44.02847" lon="6.00744">
        <ele>601</ele>
        <time>2021-12-21T10:24:00.000Z</time>
      </trkpt>
      <trkpt lat="44.02847" lon="6.00746">
        <ele>601</ele>
        <time>2021-12-21T10:24:01.000Z</time>
      </trkpt>
      <trkpt lat="44.02847" lon="6.00747">
        <ele>601</ele>
        <time>2021-12-21T10:24:02.000Z</time>
      </trkpt>
      <trkpt lat="44.02847" lon="6.00749">
        <ele>601</ele>
        <time>2021-12-21T10:24:03.000Z</time>
      </trkpt>
      <trkpt lat="44.02846" lon="6.0075">
        <ele>601</ele>
        <time>2021-12-21T10:24:04.000Z</time>
      </trkpt>
      <trkpt lat="44.02846" lon="6.00752">
        <ele>601</ele>
        <time>2021-12-21T10:24:05.000Z</time>
      </trkpt>
      <trkpt lat="44.02846" lon="6.00753">
        <ele>602</ele>
        <time>2021-12-21T10:24:06.000Z</time>
      </trkpt>
      <trkpt lat="44.02846" lon="6.00754">
        <ele>602</ele>
        <time>2021-12-21T10:24:07.000Z</time>
      </trkpt>
      <trkpt lat="44.02846" lon="6.00756">
        <ele>602</ele>
        <time>2021-12-21T10:24:08.000Z</time>
      </trkpt>
      <trkpt lat="44.02846" lon="6.00757">
        <ele>602</ele>
        <time>2021-12-21T10:24:09.000Z</time>
      </trkpt>
      <trkpt lat="44.02847" lon="6.00759">
        <ele>602</ele>
        <time>2021-12-21T10:24:10.000Z</time>
      </trkpt>
      <trkpt lat="44.02847" lon="6.0076">
        <ele>602</ele>
        <time>2021-12-21T10:24:11.000Z</time>
      </trkpt>
      <trkpt lat="44.02847" lon="6.00762">
        <ele>602</ele>
        <time>2021-12-21T10:24:12.000Z</time>
      </trkpt>
      <trkpt lat="44.02848" lon="6.00763">
        <ele>602</ele>
        <time>2021-12-21T10:24:13.000Z</time>
      </trkpt>
      <trkpt lat="44.02848" lon="6.00764">
        <ele>602</ele>
        <time>2021-12-21T10:24:14.000Z</time>
      </trkpt>
      <trkpt lat="44.02848" lon="6.00766">
        <ele>602</ele>
        <time>2021-12-21T10:24:15.000Z</time>
      </trkpt>
      <trkpt lat="44.02848" lon="6.00767">
        <ele>602</ele>
        <time>2021-12-21T10:24:16.000Z</time>
      </trkpt>
      <trkpt lat="44.02848" lon="6.00768">
        <ele>602</ele>
        <time>2021-12-21T10:24:17.000Z</time>
      </trkpt>
      <trkpt lat="44.02848" lon="6.0077">
        <ele>602</ele>
        <time>2021-12-21T10:24:18.000Z</time>
      </trkpt>
      <trkpt lat="44.02848" lon="6.00771">
        <ele>602</ele>
        <time>2021-12-21T10:24:19.000Z</time>
      </trkpt>
      <trkpt lat="44.02848" lon="6.00772">
        <ele>602</ele>
        <time>2021-12-21T10:24:20.000Z</time>
      </trkpt>
      <trkpt lat="44.02848" lon="6.00774">
        <ele>603</ele>
        <time>2021-12-21T10:24:21.000Z</time>
      </trkpt>
      <trkpt lat="44.02848" lon="6.00776">
        <ele>603</ele>
        <time>2021-12-21T10:24:22.000Z</time>
      </trkpt>
      <trkpt lat="44.02847" lon="6.00777">
        <ele>603</ele>
        <time>2021-12-21T10:24:23.000Z</time>
      </trkpt>
      <trkpt lat="44.02847" lon="6.00778">
        <ele>603</ele>
        <time>2021-12-21T10:24:24.000Z</time>
      </trkpt>
      <trkpt lat="44.02847" lon="6.00779">
        <ele>603</ele>
        <time>2021-12-21T10:24:25.000Z</time>
      </trkpt>
      <trkpt lat="44.02847" lon="6.0078">
        <ele>603</ele>
        <time>2021-12-21T10:24:26.000Z</time>
      </trkpt>
      <trkpt lat="44.02847" lon="6.00782">
        <ele>603</ele>
        <time>2021-12-21T10:24:27.000Z</time>
      </trkpt>
      <trkpt lat="44.02846" lon="6.00783">
        <ele>604</ele>
        <time>2021-12-21T10:24:28.000Z</time>
      </trkpt>
      <trkpt lat="44.02846" lon="6.00784">
        <ele>604</ele>
        <time>2021-12-21T10:24:29.000Z</time>
      </trkpt>
      <trkpt lat="44.02846" lon="6.00786">
        <ele>604</ele>
        <time>2021-12-21T10:24:30.000Z</time>
      </trkpt>
      <trkpt lat="44.02845" lon="6.00787">
        <ele>604</ele>
        <time>2021-12-21T10:24:31.000Z</time>
      </trkpt>
      <trkpt lat="44.02845" lon="6.00788">
        <ele>604</ele>
        <time>2021-12-21T10:24:32.000Z</time>
      </trkpt>
      <trkpt lat="44.02845" lon="6.00789">
        <ele>605</ele>
        <time>2021-12-21T10:24:33.000Z</time>
      </trkpt>
      <trkpt lat="44.02845" lon="6.00791">
        <ele>605</ele>
        <time>2021-12-21T10:24:34.000Z</time>
      </trkpt>
      <trkpt lat="44.02845" lon="6.00792">
        <ele>605</ele>
        <time>2021-12-21T10:24:35.000Z</time>
      </trkpt>
      <trkpt lat="44.02844" lon="6.00793">
        <ele>605</ele>
        <time>2021-12-21T10:24:36.000Z</time>
      </trkpt>
      <trkpt lat="44.02844" lon="6.00794">
        <ele>605</ele>
        <time>2021-12-21T10:24:37.000Z</time>
      </trkpt>
      <trkpt lat="44.02844" lon="6.00795">
        <ele>605</ele>
        <time>2021-12-21T10:24:38.000Z</time>
      </trkpt>
      <trkpt lat="44.02844" lon="6.00797">
        <ele>606</ele>
        <time>2021-12-21T10:24:39.000Z</time>
      </trkpt>
      <trkpt lat="44.02843" lon="6.00798">
        <ele>606</ele>
        <time>2021-12-21T10:24:40.000Z</time>
      </trkpt>
      <trkpt lat="44.02843" lon="6.00799">
        <ele>606</ele>
        <time>2021-12-21T10:24:41.000Z</time>
      </trkpt>
      <trkpt lat="44.02843" lon="6.008">
        <ele>606</ele>
        <time>2021-12-21T10:24:42.000Z</time>
      </trkpt>
      <trkpt lat="44.02843" lon="6.00802">
        <ele>606</ele>
        <time>2021-12-21T10:24:43.000Z</time>
      </trkpt>
      <trkpt lat="44.02843" lon="6.00803">
        <ele>606</ele>
        <time>2021-12-21T10:24:44.000Z</time>
      </trkpt>
      <trkpt lat="44.02843" lon="6.00804">
        <ele>606</ele>
        <time>2021-12-21T10:24:45.000Z</time>
      </trkpt>
      <trkpt lat="44.02843" lon="6.00806">
        <ele>607</ele>
        <time>2021-12-21T10:24:46.000Z</time>
      </trkpt>
      <trkpt lat="44.02843" lon="6.00807">
        <ele>607</ele>
        <time>2021-12-21T10:24:47.000Z</time>
      </trkpt>
      <trkpt lat="44.02843" lon="6.00808">
        <ele>607</ele>
        <time>2021-12-21T10:24:48.000Z</time>
      </trkpt>
      <trkpt lat="44.02843" lon="6.0081">
        <ele>607</ele>
        <time>2021-12-21T10:24:49.000Z</time>
      </trkpt>
      <trkpt lat="44.02843" lon="6.00811">
        <ele>607</ele>
        <time>2021-12-21T10:24:50.000Z</time>
      </trkpt>
      <trkpt lat="44.02843" lon="6.00813">
        <ele>607</ele>
        <time>2021-12-21T10:24:51.000Z</time>
      </trkpt>
      <trkpt lat="44.02843" lon="6.00814">
        <ele>607</ele>
        <time>2021-12-21T10:24:52.000Z</time>
      </trkpt>
      <trkpt lat="44.02843" lon="6.00815">
        <ele>607</ele>
        <time>2021-12-21T10:24:53.000Z</time>
      </trkpt>
      <trkpt lat="44.02843" lon="6.00817">
        <ele>607</ele>
        <time>2021-12-21T10:24:54.000Z</time>
      </trkpt>
      <trkpt lat="44.02843" lon="6.00818">
        <ele>607</ele>
        <time>2021-12-21T10:24:55.000Z</time>
      </trkpt>
      <trkpt lat="44.02843" lon="6.00819">
        <ele>608</ele>
        <time>2021-12-21T10:24:56.000Z</time>
      </trkpt>
      <trkpt lat="44.02843" lon="6.00821">
        <ele>608</ele>
        <time>2021-12-21T10:24:57.000Z</time>
      </trkpt>
      <trkpt lat="44.02843" lon="6.00822">
        <ele>608</ele>
        <time>2021-12-21T10:24:58.000Z</time>
      </trkpt>
      <trkpt lat="44.02843" lon="6.00823">
        <ele>608</ele>
        <time>2021-12-21T10:24:59.000Z</time>
      </trkpt>
      <trkpt lat="44.02843" lon="6.00825">
        <ele>608</ele>
        <time>2021-12-21T10:25:00.000Z</time>
      </trkpt>
      <trkpt lat="44.02843" lon="6.00826">
        <ele>608</ele>
        <time>2021-12-21T10:25:01.000Z</time>
      </trkpt>
      <trkpt lat="44.02843" lon="6.00827">
        <ele>608</ele>
        <time>2021-12-21T10:25:02.000Z</time>
      </trkpt>
      <trkpt lat="44.02843" lon="6.00829">
        <ele>608</ele>
        <time>2021-12-21T10:25:03.000Z</time>
      </trkpt>
      <trkpt lat="44.02843" lon="6.0083">
        <ele>608</ele>
        <time>2021-12-21T10:25:04.000Z</time>
      </trkpt>
      <trkpt lat="44.02843" lon="6.00831">
        <ele>608</ele>
        <time>2021-12-21T10:25:05.000Z</time>
      </trkpt>
      <trkpt lat="44.02843" lon="6.00833">
        <ele>609</ele>
        <time>2021-12-21T10:25:06.000Z</time>
      </trkpt>
      <trkpt lat="44.02843" lon="6.00834">
        <ele>609</ele>
        <time>2021-12-21T10:25:07.000Z</time>
      </trkpt>
      <trkpt lat="44.02843" lon="6.00835">
        <ele>609</ele>
        <time>2021-12-21T10:25:08.000Z</time>
      </trkpt>
      <trkpt lat="44.02843" lon="6.00837">
        <ele>609</ele>
        <time>2021-12-21T10:25:09.000Z</time>
      </trkpt>
      <trkpt lat="44.02843" lon="6.00838">
        <ele>609</ele>
        <time>2021-12-21T10:25:10.000Z</time>
      </trkpt>
      <trkpt lat="44.02843" lon="6.00839">
        <ele>609</ele>
        <time>2021-12-21T10:25:11.000Z</time>
      </trkpt>
      <trkpt lat="44.02843" lon="6.0084">
        <ele>609</ele>
        <time>2021-12-21T10:25:12.000Z</time>
      </trkpt>
      <trkpt lat="44.02843" lon="6.00841">
        <ele>609</ele>
        <time>2021-12-21T10:25:13.000Z</time>
      </trkpt>
      <trkpt lat="44.02843" lon="6.00843">
        <ele>609</ele>
        <time>2021-12-21T10:25:14.000Z</time>
      </trkpt>
      <trkpt lat="44.02843" lon="6.00844">
        <ele>609</ele>
        <time>2021-12-21T10:25:15.000Z</time>
      </trkpt>
      <trkpt lat="44.02843" lon="6.00846">
        <ele>609</ele>
        <time>2021-12-21T10:25:16.000Z</time>
      </trkpt>
      <trkpt lat="44.02843" lon="6.00847">
        <ele>609</ele>
        <time>2021-12-21T10:25:17.000Z</time>
      </trkpt>
      <trkpt lat="44.02843" lon="6.00849">
        <ele>610</ele>
        <time>2021-12-21T10:25:18.000Z</time>
      </trkpt>
      <trkpt lat="44.02843" lon="6.0085">
        <ele>610</ele>
        <time>2021-12-21T10:25:19.000Z</time>
      </trkpt>
      <trkpt lat="44.02842" lon="6.00851">
        <ele>610</ele>
        <time>2021-12-21T10:25:20.000Z</time>
      </trkpt>
      <trkpt lat="44.02842" lon="6.00852">
        <ele>610</ele>
        <time>2021-12-21T10:25:21.000Z</time>
      </trkpt>
      <trkpt lat="44.02842" lon="6.00854">
        <ele>610</ele>
        <time>2021-12-21T10:25:22.000Z</time>
      </trkpt>
      <trkpt lat="44.02842" lon="6.00855">
        <ele>610</ele>
        <time>2021-12-21T10:25:23.000Z</time>
      </trkpt>
      <trkpt lat="44.02842" lon="6.00856">
        <ele>610</ele>
        <time>2021-12-21T10:25:24.000Z</time>
      </trkpt>
      <trkpt lat="44.02841" lon="6.00857">
        <ele>611</ele>
        <time>2021-12-21T10:25:25.000Z</time>
      </trkpt>
      <trkpt lat="44.02841" lon="6.00858">
        <ele>611</ele>
        <time>2021-12-21T10:25:26.000Z</time>
      </trkpt>
      <trkpt lat="44.02841" lon="6.0086">
        <ele>611</ele>
        <time>2021-12-21T10:25:27.000Z</time>
      </trkpt>
      <trkpt lat="44.0284" lon="6.00861">
        <ele>611</ele>
        <time>2021-12-21T10:25:28.000Z</time>
      </trkpt>
      <trkpt lat="44.0284" lon="6.00862">
        <ele>611</ele>
        <time>2021-12-21T10:25:29.000Z</time>
      </trkpt>
      <trkpt lat="44.0284" lon="6.00863">
        <ele>611</ele>
        <time>2021-12-21T10:25:30.000Z</time>
      </trkpt>
      <trkpt lat="44.02839" lon="6.00865">
        <ele>611</ele>
        <time>2021-12-21T10:25:31.000Z</time>
      </trkpt>
      <trkpt lat="44.02839" lon="6.00866">
        <ele>611</ele>
        <time>2021-12-21T10:25:32.000Z</time>
      </trkpt>
      <trkpt lat="44.02838" lon="6.00867">
        <ele>611</ele>
        <time>2021-12-21T10:25:33.000Z</time>
      </trkpt>
      <trkpt lat="44.02837" lon="6.00868">
        <ele>611</ele>
        <time>2021-12-21T10:25:34.000Z</time>
      </trkpt>
      <trkpt lat="44.02837" lon="6.00869">
        <ele>611</ele>
        <time>2021-12-21T10:25:35.000Z</time>
      </trkpt>
      <trkpt lat="44.02836" lon="6.0087">
        <ele>611</ele>
        <time>2021-12-21T10:25:36.000Z</time>
      </trkpt>
      <trkpt lat="44.02836" lon="6.00871">
        <ele>612</ele>
        <time>2021-12-21T10:25:37.000Z</time>
      </trkpt>
      <trkpt lat="44.02835" lon="6.00872">
        <ele>612</ele>
        <time>2021-12-21T10:25:38.000Z</time>
      </trkpt>
      <trkpt lat="44.02835" lon="6.00873">
        <ele>612</ele>
        <time>2021-12-21T10:25:39.000Z</time>
      </trkpt>
      <trkpt lat="44.02835" lon="6.00875">
        <ele>612</ele>
        <time>2021-12-21T10:25:40.000Z</time>
      </trkpt>
      <trkpt lat="44.02834" lon="6.00876">
        <ele>612</ele>
        <time>2021-12-21T10:25:41.000Z</time>
      </trkpt>
      <trkpt lat="44.02834" lon="6.00877">
        <ele>612</ele>
        <time>2021-12-21T10:25:42.000Z</time>
      </trkpt>
      <trkpt lat="44.02833" lon="6.00878">
        <ele>612</ele>
        <time>2021-12-21T10:25:43.000Z</time>
      </trkpt>
      <trkpt lat="44.02833" lon="6.00879">
        <ele>612</ele>
        <time>2021-12-21T10:25:44.000Z</time>
      </trkpt>
      <trkpt lat="44.02832" lon="6.0088">
        <ele>612</ele>
        <time>2021-12-21T10:25:45.000Z</time>
      </trkpt>
      <trkpt lat="44.02832" lon="6.00881">
        <ele>612</ele>
        <time>2021-12-21T10:25:46.000Z</time>
      </trkpt>
      <trkpt lat="44.02831" lon="6.00883">
        <ele>612</ele>
        <time>2021-12-21T10:25:47.000Z</time>
      </trkpt>
      <trkpt lat="44.0283" lon="6.00884">
        <ele>612</ele>
        <time>2021-12-21T10:25:48.000Z</time>
      </trkpt>
      <trkpt lat="44.0283" lon="6.00885">
        <ele>612</ele>
        <time>2021-12-21T10:25:49.000Z</time>
      </trkpt>
      <trkpt lat="44.02829" lon="6.00886">
        <ele>612</ele>
        <time>2021-12-21T10:25:50.000Z</time>
      </trkpt>
      <trkpt lat="44.02829" lon="6.00887">
        <ele>612</ele>
        <time>2021-12-21T10:25:51.000Z</time>
      </trkpt>
      <trkpt lat="44.02829" lon="6.00889">
        <ele>613</ele>
        <time>2021-12-21T10:25:52.000Z</time>
      </trkpt>
      <trkpt lat="44.02828" lon="6.0089">
        <ele>613</ele>
        <time>2021-12-21T10:25:53.000Z</time>
      </trkpt>
      <trkpt lat="44.02828" lon="6.00891">
        <ele>613</ele>
        <time>2021-12-21T10:25:54.000Z</time>
      </trkpt>
      <trkpt lat="44.02827" lon="6.00892">
        <ele>613</ele>
        <time>2021-12-21T10:25:55.000Z</time>
      </trkpt>
      <trkpt lat="44.02827" lon="6.00894">
        <ele>613</ele>
        <time>2021-12-21T10:25:56.000Z</time>
      </trkpt>
      <trkpt lat="44.02826" lon="6.00895">
        <ele>613</ele>
        <time>2021-12-21T10:25:57.000Z</time>
      </trkpt>
      <trkpt lat="44.02826" lon="6.00896">
        <ele>613</ele>
        <time>2021-12-21T10:25:58.000Z</time>
      </trkpt>
      <trkpt lat="44.02825" lon="6.00897">
        <ele>613</ele>
        <time>2021-12-21T10:25:59.000Z</time>
      </trkpt>
      <trkpt lat="44.02825" lon="6.00899">
        <ele>613</ele>
        <time>2021-12-21T10:26:00.000Z</time>
      </trkpt>
      <trkpt lat="44.02824" lon="6.009">
        <ele>613</ele>
        <time>2021-12-21T10:26:01.000Z</time>
      </trkpt>
      <trkpt lat="44.02824" lon="6.00901">
        <ele>614</ele>
        <time>2021-12-21T10:26:02.000Z</time>
      </trkpt>
      <trkpt lat="44.02823" lon="6.00902">
        <ele>614</ele>
        <time>2021-12-21T10:26:03.000Z</time>
      </trkpt>
      <trkpt lat="44.02823" lon="6.00903">
        <ele>614</ele>
        <time>2021-12-21T10:26:04.000Z</time>
      </trkpt>
      <trkpt lat="44.02822" lon="6.00905">
        <ele>614</ele>
        <time>2021-12-21T10:26:05.000Z</time>
      </trkpt>
      <trkpt lat="44.02822" lon="6.00906">
        <ele>614</ele>
        <time>2021-12-21T10:26:06.000Z</time>
      </trkpt>
      <trkpt lat="44.02821" lon="6.00907">
        <ele>614</ele>
        <time>2021-12-21T10:26:07.000Z</time>
      </trkpt>
      <trkpt lat="44.02821" lon="6.00908">
        <ele>614</ele>
        <time>2021-12-21T10:26:08.000Z</time>
      </trkpt>
      <trkpt lat="44.0282" lon="6.0091">
        <ele>614</ele>
        <time>2021-12-21T10:26:09.000Z</time>
      </trkpt>
      <trkpt lat="44.0282" lon="6.00911">
        <ele>614</ele>
        <time>2021-12-21T10:26:10.000Z</time>
      </trkpt>
      <trkpt lat="44.02819" lon="6.00912">
        <ele>614</ele>
        <time>2021-12-21T10:26:11.000Z</time>
      </trkpt>
      <trkpt lat="44.02819" lon="6.00913">
        <ele>614</ele>
        <time>2021-12-21T10:26:12.000Z</time>
      </trkpt>
      <trkpt lat="44.02819" lon="6.00914">
        <ele>615</ele>
        <time>2021-12-21T10:26:13.000Z</time>
      </trkpt>
      <trkpt lat="44.02818" lon="6.00916">
        <ele>615</ele>
        <time>2021-12-21T10:26:14.000Z</time>
      </trkpt>
      <trkpt lat="44.02818" lon="6.00917">
        <ele>615</ele>
        <time>2021-12-21T10:26:15.000Z</time>
      </trkpt>
      <trkpt lat="44.02817" lon="6.00918">
        <ele>615</ele>
        <time>2021-12-21T10:26:16.000Z</time>
      </trkpt>
      <trkpt lat="44.02816" lon="6.0092">
        <ele>615</ele>
        <time>2021-12-21T10:26:17.000Z</time>
      </trkpt>
      <trkpt lat="44.02816" lon="6.00921">
        <ele>615</ele>
        <time>2021-12-21T10:26:18.000Z</time>
      </trkpt>
      <trkpt lat="44.02815" lon="6.00922">
        <ele>615</ele>
        <time>2021-12-21T10:26:19.000Z</time>
      </trkpt>
      <trkpt lat="44.02815" lon="6.00923">
        <ele>615</ele>
        <time>2021-12-21T10:26:20.000Z</time>
      </trkpt>
      <trkpt lat="44.02815" lon="6.00925">
        <ele>615</ele>
        <time>2021-12-21T10:26:21.000Z</time>
      </trkpt>
      <trkpt lat="44.02815" lon="6.00926">
        <ele>615</ele>
        <time>2021-12-21T10:26:22.000Z</time>
      </trkpt>
      <trkpt lat="44.02815" lon="6.00927">
        <ele>615</ele>
        <time>2021-12-21T10:26:23.000Z</time>
      </trkpt>
      <trkpt lat="44.02814" lon="6.00929">
        <ele>615</ele>
        <time>2021-12-21T10:26:24.000Z</time>
      </trkpt>
      <trkpt lat="44.02814" lon="6.0093">
        <ele>615</ele>
        <time>2021-12-21T10:26:25.000Z</time>
      </trkpt>
      <trkpt lat="44.02814" lon="6.00931">
        <ele>615</ele>
        <time>2021-12-21T10:26:26.000Z</time>
      </trkpt>
      <trkpt lat="44.02813" lon="6.00931">
        <ele>616</ele>
        <time>2021-12-21T10:26:27.000Z</time>
      </trkpt>
      <trkpt lat="44.02813" lon="6.00931">
        <ele>616</ele>
        <time>2021-12-21T10:26:28.000Z</time>
      </trkpt>
      <trkpt lat="44.02813" lon="6.00931">
        <ele>616</ele>
        <time>2021-12-21T10:26:29.000Z</time>
      </trkpt>
      <trkpt lat="44.02813" lon="6.00931">
        <ele>616</ele>
        <time>2021-12-21T10:26:30.000Z</time>
      </trkpt>
      <trkpt lat="44.02813" lon="6.00931">
        <ele>616</ele>
        <time>2021-12-21T10:26:31.000Z</time>
      </trkpt>
      <trkpt lat="44.02813" lon="6.00931">
        <ele>616</ele>
        <time>2021-12-21T10:26:32.000Z</time>
      </trkpt>
      <trkpt lat="44.02813" lon="6.00931">
        <ele>616</ele>
        <time>2021-12-21T10:26:33.000Z</time>
      </trkpt>
      <trkpt lat="44.02813" lon="6.00931">
        <ele>616</ele>
        <time>2021-12-21T10:26:34.000Z</time>
      </trkpt>
      <trkpt lat="44.02813" lon="6.00931">
        <ele>616</ele>
        <time>2021-12-21T10:26:35.000Z</time>
      </trkpt>
      <trkpt lat="44.02813" lon="6.00931">
        <ele>616</ele>
        <time>2021-12-21T10:26:36.000Z</time>
      </trkpt>
      <trkpt lat="44.02813" lon="6.00931">
        <ele>616</ele>
        <time>2021-12-21T10:26:37.000Z</time>
      </trkpt>
      <trkpt lat="44.02813" lon="6.00931">
        <ele>616</ele>
        <time>2021-12-21T10:26:38.000Z</time>
      </trkpt>
      <trkpt lat="44.02813" lon="6.00931">
        <ele>616</ele>
        <time>2021-12-21T10:26:39.000Z</time>
      </trkpt>
      <trkpt lat="44.02813" lon="6.00931">
        <ele>616</ele>
        <time>2021-12-21T10:26:40.000Z</time>
      </trkpt>
      <trkpt lat="44.02813" lon="6.00932">
        <ele>616</ele>
        <time>2021-12-21T10:26:41.000Z</time>
      </trkpt>
      <trkpt lat="44.02813" lon="6.00931">
        <ele>616</ele>
        <time>2021-12-21T10:26:42.000Z</time>
      </trkpt>
      <trkpt lat="44.02813" lon="6.00931">
        <ele>616</ele>
        <time>2021-12-21T10:26:43.000Z</time>
      </trkpt>
      <trkpt lat="44.02813" lon="6.00931">
        <ele>616</ele>
        <time>2021-12-21T10:26:44.000Z</time>
      </trkpt>
      <trkpt lat="44.02813" lon="6.00932">
        <ele>616</ele>
        <time>2021-12-21T10:26:45.000Z</time>
      </trkpt>
      <trkpt lat="44.02813" lon="6.00932">
        <ele>616</ele>
        <time>2021-12-21T10:26:46.000Z</time>
      </trkpt>
      <trkpt lat="44.02813" lon="6.00932">
        <ele>616</ele>
        <time>2021-12-21T10:26:47.000Z</time>
      </trkpt>
      <trkpt lat="44.02813" lon="6.00932">
        <ele>616</ele>
        <time>2021-12-21T10:26:48.000Z</time>
      </trkpt>
      <trkpt lat="44.02813" lon="6.00932">
        <ele>616</ele>
        <time>2021-12-21T10:26:49.000Z</time>
      </trkpt>
      <trkpt lat="44.02813" lon="6.00932">
        <ele>616</ele>
        <time>2021-12-21T10:26:50.000Z</time>
      </trkpt>
      <trkpt lat="44.02813" lon="6.00932">
        <ele>616</ele>
        <time>2021-12-21T10:26:51.000Z</time>
      </trkpt>
      <trkpt lat="44.02813" lon="6.00932">
        <ele>616</ele>
        <time>2021-12-21T10:26:52.000Z</time>
      </trkpt>
      <trkpt lat="44.02813" lon="6.00932">
        <ele>616</ele>
        <time>2021-12-21T10:26:53.000Z</time>
      </trkpt>
      <trkpt lat="44.02813" lon="6.00932">
        <ele>616</ele>
        <time>2021-12-21T10:26:54.000Z</time>
      </trkpt>
      <trkpt lat="44.02812" lon="6.00932">
        <ele>616</ele>
        <time>2021-12-21T10:26:55.000Z</time>
      </trkpt>
      <trkpt lat="44.02812" lon="6.00932">
        <ele>616</ele>
        <time>2021-12-21T10:26:56.000Z</time>
      </trkpt>
      <trkpt lat="44.02812" lon="6.00932">
        <ele>616</ele>
        <time>2021-12-21T10:26:57.000Z</time>
      </trkpt>
      <trkpt lat="44.02812" lon="6.00932">
        <ele>616</ele>
        <time>2021-12-21T10:26:58.000Z</time>
      </trkpt>
      <trkpt lat="44.02812" lon="6.00932">
        <ele>616</ele>
        <time>2021-12-21T10:26:59.000Z</time>
      </trkpt>
      <trkpt lat="44.02812" lon="6.00932">
        <ele>616</ele>
        <time>2021-12-21T10:27:00.000Z</time>
      </trkpt>
      <trkpt lat="44.02812" lon="6.00932">
        <ele>616</ele>
        <time>2021-12-21T10:27:01.000Z</time>
      </trkpt>
      <trkpt lat="44.02812" lon="6.00932">
        <ele>616</ele>
        <time>2021-12-21T10:27:02.000Z</time>
      </trkpt>
      <trkpt lat="44.02812" lon="6.00932">
        <ele>616</ele>
        <time>2021-12-21T10:27:03.000Z</time>
      </trkpt>
      <trkpt lat="44.02812" lon="6.00932">
        <ele>616</ele>
        <time>2021-12-21T10:27:04.000Z</time>
      </trkpt>
      <trkpt lat="44.02812" lon="6.00932">
        <ele>616</ele>
        <time>2021-12-21T10:27:05.000Z</time>
      </trkpt>
      <trkpt lat="44.02812" lon="6.00932">
        <ele>616</ele>
        <time>2021-12-21T10:27:06.000Z</time>
      </trkpt>
      <trkpt lat="44.02812" lon="6.00932">
        <ele>616</ele>
        <time>2021-12-21T10:27:07.000Z</time>
      </trkpt>
      <trkpt lat="44.02812" lon="6.00933">
        <ele>616</ele>
        <time>2021-12-21T10:27:08.000Z</time>
      </trkpt>
      <trkpt lat="44.02812" lon="6.00933">
        <ele>616</ele>
        <time>2021-12-21T10:27:09.000Z</time>
      </trkpt>
      <trkpt lat="44.02812" lon="6.00933">
        <ele>616</ele>
        <time>2021-12-21T10:27:10.000Z</time>
      </trkpt>
      <trkpt lat="44.02812" lon="6.00933">
        <ele>616</ele>
        <time>2021-12-21T10:27:11.000Z</time>
      </trkpt>
      <trkpt lat="44.02812" lon="6.00934">
        <ele>616</ele>
        <time>2021-12-21T10:27:12.000Z</time>
      </trkpt>
      <trkpt lat="44.02812" lon="6.00935">
        <ele>616</ele>
        <time>2021-12-21T10:27:13.000Z</time>
      </trkpt>
      <trkpt lat="44.02811" lon="6.00936">
        <ele>616</ele>
        <time>2021-12-21T10:27:14.000Z</time>
      </trkpt>
      <trkpt lat="44.02811" lon="6.00937">
        <ele>616</ele>
        <time>2021-12-21T10:27:15.000Z</time>
      </trkpt>
      <trkpt lat="44.0281" lon="6.00938">
        <ele>616</ele>
        <time>2021-12-21T10:27:16.000Z</time>
      </trkpt>
      <trkpt lat="44.0281" lon="6.00939">
        <ele>617</ele>
        <time>2021-12-21T10:27:17.000Z</time>
      </trkpt>
      <trkpt lat="44.02809" lon="6.00941">
        <ele>617</ele>
        <time>2021-12-21T10:27:18.000Z</time>
      </trkpt>
      <trkpt lat="44.02809" lon="6.00942">
        <ele>617</ele>
        <time>2021-12-21T10:27:19.000Z</time>
      </trkpt>
      <trkpt lat="44.02809" lon="6.00943">
        <ele>617</ele>
        <time>2021-12-21T10:27:20.000Z</time>
      </trkpt>
      <trkpt lat="44.02808" lon="6.00944">
        <ele>617</ele>
        <time>2021-12-21T10:27:21.000Z</time>
      </trkpt>
      <trkpt lat="44.02808" lon="6.00946">
        <ele>617</ele>
        <time>2021-12-21T10:27:22.000Z</time>
      </trkpt>
      <trkpt lat="44.02808" lon="6.00947">
        <ele>617</ele>
        <time>2021-12-21T10:27:23.000Z</time>
      </trkpt>
      <trkpt lat="44.02807" lon="6.00948">
        <ele>617</ele>
        <time>2021-12-21T10:27:24.000Z</time>
      </trkpt>
      <trkpt lat="44.02807" lon="6.00949">
        <ele>617</ele>
        <time>2021-12-21T10:27:25.000Z</time>
      </trkpt>
      <trkpt lat="44.02807" lon="6.0095">
        <ele>617</ele>
        <time>2021-12-21T10:27:26.000Z</time>
      </trkpt>
      <trkpt lat="44.02806" lon="6.00952">
        <ele>617</ele>
        <time>2021-12-21T10:27:27.000Z</time>
      </trkpt>
      <trkpt lat="44.02806" lon="6.00953">
        <ele>617</ele>
        <time>2021-12-21T10:27:28.000Z</time>
      </trkpt>
      <trkpt lat="44.02805" lon="6.00954">
        <ele>618</ele>
        <time>2021-12-21T10:27:29.000Z</time>
      </trkpt>
      <trkpt lat="44.02805" lon="6.00955">
        <ele>618</ele>
        <time>2021-12-21T10:27:30.000Z</time>
      </trkpt>
      <trkpt lat="44.02805" lon="6.00956">
        <ele>618</ele>
        <time>2021-12-21T10:27:31.000Z</time>
      </trkpt>
      <trkpt lat="44.02804" lon="6.00958">
        <ele>618</ele>
        <time>2021-12-21T10:27:32.000Z</time>
      </trkpt>
      <trkpt lat="44.02804" lon="6.00959">
        <ele>618</ele>
        <time>2021-12-21T10:27:33.000Z</time>
      </trkpt>
      <trkpt lat="44.02804" lon="6.0096">
        <ele>618</ele>
        <time>2021-12-21T10:27:34.000Z</time>
      </trkpt>
      <trkpt lat="44.02804" lon="6.00961">
        <ele>618</ele>
        <time>2021-12-21T10:27:35.000Z</time>
      </trkpt>
      <trkpt lat="44.02803" lon="6.00963">
        <ele>618</ele>
        <time>2021-12-21T10:27:36.000Z</time>
      </trkpt>
      <trkpt lat="44.02803" lon="6.00964">
        <ele>618</ele>
        <time>2021-12-21T10:27:37.000Z</time>
      </trkpt>
      <trkpt lat="44.02802" lon="6.00965">
        <ele>618</ele>
        <time>2021-12-21T10:27:38.000Z</time>
      </trkpt>
      <trkpt lat="44.02802" lon="6.00966">
        <ele>619</ele>
        <time>2021-12-21T10:27:39.000Z</time>
      </trkpt>
      <trkpt lat="44.02802" lon="6.00968">
        <ele>619</ele>
        <time>2021-12-21T10:27:40.000Z</time>
      </trkpt>
      <trkpt lat="44.02802" lon="6.00969">
        <ele>619</ele>
        <time>2021-12-21T10:27:41.000Z</time>
      </trkpt>
      <trkpt lat="44.02801" lon="6.0097">
        <ele>619</ele>
        <time>2021-12-21T10:27:42.000Z</time>
      </trkpt>
      <trkpt lat="44.028" lon="6.00971">
        <ele>619</ele>
        <time>2021-12-21T10:27:43.000Z</time>
      </trkpt>
      <trkpt lat="44.028" lon="6.00972">
        <ele>620</ele>
        <time>2021-12-21T10:27:44.000Z</time>
      </trkpt>
      <trkpt lat="44.02799" lon="6.00973">
        <ele>620</ele>
        <time>2021-12-21T10:27:45.000Z</time>
      </trkpt>
      <trkpt lat="44.02799" lon="6.00974">
        <ele>620</ele>
        <time>2021-12-21T10:27:46.000Z</time>
      </trkpt>
      <trkpt lat="44.02799" lon="6.00976">
        <ele>620</ele>
        <time>2021-12-21T10:27:47.000Z</time>
      </trkpt>
      <trkpt lat="44.02798" lon="6.00977">
        <ele>621</ele>
        <time>2021-12-21T10:27:48.000Z</time>
      </trkpt>
      <trkpt lat="44.02798" lon="6.00978">
        <ele>621</ele>
        <time>2021-12-21T10:27:49.000Z</time>
      </trkpt>
      <trkpt lat="44.02798" lon="6.00979">
        <ele>621</ele>
        <time>2021-12-21T10:27:50.000Z</time>
      </trkpt>
      <trkpt lat="44.02798" lon="6.00981">
        <ele>621</ele>
        <time>2021-12-21T10:27:51.000Z</time>
      </trkpt>
      <trkpt lat="44.02798" lon="6.00982">
        <ele>621</ele>
        <time>2021-12-21T10:27:52.000Z</time>
      </trkpt>
      <trkpt lat="44.02798" lon="6.00983">
        <ele>622</ele>
        <time>2021-12-21T10:27:53.000Z</time>
      </trkpt>
      <trkpt lat="44.02798" lon="6.00984">
        <ele>622</ele>
        <time>2021-12-21T10:27:54.000Z</time>
      </trkpt>
      <trkpt lat="44.02798" lon="6.00985">
        <ele>622</ele>
        <time>2021-12-21T10:27:55.000Z</time>
      </trkpt>
      <trkpt lat="44.02798" lon="6.00987">
        <ele>622</ele>
        <time>2021-12-21T10:27:56.000Z</time>
      </trkpt>
      <trkpt lat="44.02797" lon="6.00988">
        <ele>622</ele>
        <time>2021-12-21T10:27:57.000Z</time>
      </trkpt>
      <trkpt lat="44.02797" lon="6.00989">
        <ele>623</ele>
        <time>2021-12-21T10:27:58.000Z</time>
      </trkpt>
      <trkpt lat="44.02797" lon="6.0099">
        <ele>623</ele>
        <time>2021-12-21T10:27:59.000Z</time>
      </trkpt>
      <trkpt lat="44.02797" lon="6.00992">
        <ele>623</ele>
        <time>2021-12-21T10:28:00.000Z</time>
      </trkpt>
      <trkpt lat="44.02797" lon="6.00993">
        <ele>623</ele>
        <time>2021-12-21T10:28:01.000Z</time>
      </trkpt>
      <trkpt lat="44.02796" lon="6.00994">
        <ele>623</ele>
        <time>2021-12-21T10:28:02.000Z</time>
      </trkpt>
      <trkpt lat="44.02796" lon="6.00996">
        <ele>623</ele>
        <time>2021-12-21T10:28:03.000Z</time>
      </trkpt>
      <trkpt lat="44.02795" lon="6.00997">
        <ele>623</ele>
        <time>2021-12-21T10:28:04.000Z</time>
      </trkpt>
      <trkpt lat="44.02795" lon="6.00998">
        <ele>623</ele>
        <time>2021-12-21T10:28:05.000Z</time>
      </trkpt>
      <trkpt lat="44.02795" lon="6.00999">
        <ele>623</ele>
        <time>2021-12-21T10:28:06.000Z</time>
      </trkpt>
      <trkpt lat="44.02795" lon="6.01001">
        <ele>624</ele>
        <time>2021-12-21T10:28:07.000Z</time>
      </trkpt>
      <trkpt lat="44.02794" lon="6.01002">
        <ele>624</ele>
        <time>2021-12-21T10:28:08.000Z</time>
      </trkpt>
      <trkpt lat="44.02794" lon="6.01003">
        <ele>624</ele>
        <time>2021-12-21T10:28:09.000Z</time>
      </trkpt>
      <trkpt lat="44.02794" lon="6.01004">
        <ele>624</ele>
        <time>2021-12-21T10:28:10.000Z</time>
      </trkpt>
      <trkpt lat="44.02794" lon="6.01006">
        <ele>624</ele>
        <time>2021-12-21T10:28:11.000Z</time>
      </trkpt>
      <trkpt lat="44.02794" lon="6.01007">
        <ele>625</ele>
        <time>2021-12-21T10:28:12.000Z</time>
      </trkpt>
      <trkpt lat="44.02794" lon="6.01009">
        <ele>625</ele>
        <time>2021-12-21T10:28:13.000Z</time>
      </trkpt>
      <trkpt lat="44.02794" lon="6.0101">
        <ele>625</ele>
        <time>2021-12-21T10:28:14.000Z</time>
      </trkpt>
      <trkpt lat="44.02793" lon="6.01011">
        <ele>625</ele>
        <time>2021-12-21T10:28:15.000Z</time>
      </trkpt>
      <trkpt lat="44.02793" lon="6.01012">
        <ele>625</ele>
        <time>2021-12-21T10:28:16.000Z</time>
      </trkpt>
      <trkpt lat="44.02793" lon="6.01013">
        <ele>626</ele>
        <time>2021-12-21T10:28:17.000Z</time>
      </trkpt>
      <trkpt lat="44.02793" lon="6.01015">
        <ele>626</ele>
        <time>2021-12-21T10:28:18.000Z</time>
      </trkpt>
      <trkpt lat="44.02793" lon="6.01016">
        <ele>626</ele>
        <time>2021-12-21T10:28:19.000Z</time>
      </trkpt>
      <trkpt lat="44.02793" lon="6.01018">
        <ele>626</ele>
        <time>2021-12-21T10:28:20.000Z</time>
      </trkpt>
      <trkpt lat="44.02793" lon="6.01019">
        <ele>626</ele>
        <time>2021-12-21T10:28:21.000Z</time>
      </trkpt>
      <trkpt lat="44.02793" lon="6.0102">
        <ele>626</ele>
        <time>2021-12-21T10:28:22.000Z</time>
      </trkpt>
      <trkpt lat="44.02793" lon="6.01021">
        <ele>626</ele>
        <time>2021-12-21T10:28:23.000Z</time>
      </trkpt>
      <trkpt lat="44.02793" lon="6.01022">
        <ele>626</ele>
        <time>2021-12-21T10:28:24.000Z</time>
      </trkpt>
      <trkpt lat="44.02793" lon="6.01024">
        <ele>626</ele>
        <time>2021-12-21T10:28:25.000Z</time>
      </trkpt>
      <trkpt lat="44.02793" lon="6.01025">
        <ele>627</ele>
        <time>2021-12-21T10:28:26.000Z</time>
      </trkpt>
      <trkpt lat="44.02792" lon="6.01026">
        <ele>626</ele>
        <time>2021-12-21T10:28:27.000Z</time>
      </trkpt>
      <trkpt lat="44.02792" lon="6.01028">
        <ele>626</ele>
        <time>2021-12-21T10:28:28.000Z</time>
      </trkpt>
      <trkpt lat="44.02792" lon="6.0103">
        <ele>626</ele>
        <time>2021-12-21T10:28:29.000Z</time>
      </trkpt>
      <trkpt lat="44.02792" lon="6.01032">
        <ele>626</ele>
        <time>2021-12-21T10:28:30.000Z</time>
      </trkpt>
      <trkpt lat="44.02792" lon="6.01033">
        <ele>626</ele>
        <time>2021-12-21T10:28:31.000Z</time>
      </trkpt>
      <trkpt lat="44.02791" lon="6.01035">
        <ele>626</ele>
        <time>2021-12-21T10:28:32.000Z</time>
      </trkpt>
      <trkpt lat="44.02791" lon="6.01036">
        <ele>626</ele>
        <time>2021-12-21T10:28:33.000Z</time>
      </trkpt>
      <trkpt lat="44.0279" lon="6.01038">
        <ele>626</ele>
        <time>2021-12-21T10:28:34.000Z</time>
      </trkpt>
      <trkpt lat="44.02789" lon="6.01039">
        <ele>626</ele>
        <time>2021-12-21T10:28:35.000Z</time>
      </trkpt>
      <trkpt lat="44.02788" lon="6.01041">
        <ele>625</ele>
        <time>2021-12-21T10:28:36.000Z</time>
      </trkpt>
      <trkpt lat="44.02788" lon="6.01042">
        <ele>625</ele>
        <time>2021-12-21T10:28:37.000Z</time>
      </trkpt>
      <trkpt lat="44.02788" lon="6.01044">
        <ele>625</ele>
        <time>2021-12-21T10:28:38.000Z</time>
      </trkpt>
      <trkpt lat="44.02787" lon="6.01046">
        <ele>625</ele>
        <time>2021-12-21T10:28:39.000Z</time>
      </trkpt>
      <trkpt lat="44.02787" lon="6.01047">
        <ele>625</ele>
        <time>2021-12-21T10:28:40.000Z</time>
      </trkpt>
      <trkpt lat="44.02787" lon="6.01048">
        <ele>625</ele>
        <time>2021-12-21T10:28:41.000Z</time>
      </trkpt>
      <trkpt lat="44.02786" lon="6.0105">
        <ele>625</ele>
        <time>2021-12-21T10:28:42.000Z</time>
      </trkpt>
      <trkpt lat="44.02786" lon="6.01051">
        <ele>625</ele>
        <time>2021-12-21T10:28:43.000Z</time>
      </trkpt>
      <trkpt lat="44.02786" lon="6.01053">
        <ele>625</ele>
        <time>2021-12-21T10:28:44.000Z</time>
      </trkpt>
      <trkpt lat="44.02785" lon="6.01054">
        <ele>625</ele>
        <time>2021-12-21T10:28:45.000Z</time>
      </trkpt>
      <trkpt lat="44.02785" lon="6.01055">
        <ele>625</ele>
        <time>2021-12-21T10:28:46.000Z</time>
      </trkpt>
      <trkpt lat="44.02785" lon="6.01056">
        <ele>625</ele>
        <time>2021-12-21T10:28:47.000Z</time>
      </trkpt>
      <trkpt lat="44.02785" lon="6.01058">
        <ele>625</ele>
        <time>2021-12-21T10:28:48.000Z</time>
      </trkpt>
      <trkpt lat="44.02784" lon="6.01059">
        <ele>625</ele>
        <time>2021-12-21T10:28:49.000Z</time>
      </trkpt>
      <trkpt lat="44.02784" lon="6.01061">
        <ele>625</ele>
        <time>2021-12-21T10:28:50.000Z</time>
      </trkpt>
      <trkpt lat="44.02784" lon="6.01062">
        <ele>625</ele>
        <time>2021-12-21T10:28:51.000Z</time>
      </trkpt>
      <trkpt lat="44.02784" lon="6.01063">
        <ele>625</ele>
        <time>2021-12-21T10:28:52.000Z</time>
      </trkpt>
      <trkpt lat="44.02784" lon="6.01065">
        <ele>625</ele>
        <time>2021-12-21T10:28:53.000Z</time>
      </trkpt>
      <trkpt lat="44.02784" lon="6.01066">
        <ele>625</ele>
        <time>2021-12-21T10:28:54.000Z</time>
      </trkpt>
      <trkpt lat="44.02783" lon="6.01067">
        <ele>625</ele>
        <time>2021-12-21T10:28:55.000Z</time>
      </trkpt>
      <trkpt lat="44.02783" lon="6.01068">
        <ele>625</ele>
        <time>2021-12-21T10:28:56.000Z</time>
      </trkpt>
      <trkpt lat="44.02783" lon="6.0107">
        <ele>626</ele>
        <time>2021-12-21T10:28:57.000Z</time>
      </trkpt>
      <trkpt lat="44.02782" lon="6.01071">
        <ele>626</ele>
        <time>2021-12-21T10:28:58.000Z</time>
      </trkpt>
      <trkpt lat="44.02782" lon="6.01072">
        <ele>626</ele>
        <time>2021-12-21T10:28:59.000Z</time>
      </trkpt>
      <trkpt lat="44.02781" lon="6.01073">
        <ele>626</ele>
        <time>2021-12-21T10:29:00.000Z</time>
      </trkpt>
      <trkpt lat="44.02781" lon="6.01074">
        <ele>626</ele>
        <time>2021-12-21T10:29:01.000Z</time>
      </trkpt>
      <trkpt lat="44.02781" lon="6.01076">
        <ele>626</ele>
        <time>2021-12-21T10:29:02.000Z</time>
      </trkpt>
      <trkpt lat="44.0278" lon="6.01077">
        <ele>626</ele>
        <time>2021-12-21T10:29:03.000Z</time>
      </trkpt>
      <trkpt lat="44.0278" lon="6.01078">
        <ele>626</ele>
        <time>2021-12-21T10:29:04.000Z</time>
      </trkpt>
      <trkpt lat="44.02779" lon="6.01079">
        <ele>627</ele>
        <time>2021-12-21T10:29:05.000Z</time>
      </trkpt>
      <trkpt lat="44.02779" lon="6.0108">
        <ele>627</ele>
        <time>2021-12-21T10:29:06.000Z</time>
      </trkpt>
      <trkpt lat="44.02779" lon="6.01081">
        <ele>627</ele>
        <time>2021-12-21T10:29:07.000Z</time>
      </trkpt>
      <trkpt lat="44.02778" lon="6.01082">
        <ele>627</ele>
        <time>2021-12-21T10:29:08.000Z</time>
      </trkpt>
      <trkpt lat="44.02778" lon="6.01083">
        <ele>627</ele>
        <time>2021-12-21T10:29:09.000Z</time>
      </trkpt>
      <trkpt lat="44.02777" lon="6.01084">
        <ele>627</ele>
        <time>2021-12-21T10:29:10.000Z</time>
      </trkpt>
      <trkpt lat="44.02777" lon="6.01085">
        <ele>627</ele>
        <time>2021-12-21T10:29:11.000Z</time>
      </trkpt>
      <trkpt lat="44.02776" lon="6.01086">
        <ele>627</ele>
        <time>2021-12-21T10:29:12.000Z</time>
      </trkpt>
      <trkpt lat="44.02775" lon="6.01087">
        <ele>627</ele>
        <time>2021-12-21T10:29:13.000Z</time>
      </trkpt>
      <trkpt lat="44.02774" lon="6.01088">
        <ele>627</ele>
        <time>2021-12-21T10:29:14.000Z</time>
      </trkpt>
      <trkpt lat="44.02773" lon="6.01089">
        <ele>627</ele>
        <time>2021-12-21T10:29:15.000Z</time>
      </trkpt>
      <trkpt lat="44.02772" lon="6.0109">
        <ele>627</ele>
        <time>2021-12-21T10:29:16.000Z</time>
      </trkpt>
      <trkpt lat="44.02772" lon="6.01091">
        <ele>627</ele>
        <time>2021-12-21T10:29:17.000Z</time>
      </trkpt>
      <trkpt lat="44.02771" lon="6.01093">
        <ele>627</ele>
        <time>2021-12-21T10:29:18.000Z</time>
      </trkpt>
      <trkpt lat="44.0277" lon="6.01094">
        <ele>628</ele>
        <time>2021-12-21T10:29:19.000Z</time>
      </trkpt>
      <trkpt lat="44.02769" lon="6.01095">
        <ele>628</ele>
        <time>2021-12-21T10:29:20.000Z</time>
      </trkpt>
      <trkpt lat="44.02768" lon="6.01096">
        <ele>628</ele>
        <time>2021-12-21T10:29:21.000Z</time>
      </trkpt>
      <trkpt lat="44.02767" lon="6.01097">
        <ele>628</ele>
        <time>2021-12-21T10:29:22.000Z</time>
      </trkpt>
      <trkpt lat="44.02766" lon="6.01098">
        <ele>628</ele>
        <time>2021-12-21T10:29:23.000Z</time>
      </trkpt>
      <trkpt lat="44.02766" lon="6.01099">
        <ele>627</ele>
        <time>2021-12-21T10:29:24.000Z</time>
      </trkpt>
      <trkpt lat="44.02765" lon="6.011">
        <ele>627</ele>
        <time>2021-12-21T10:29:25.000Z</time>
      </trkpt>
      <trkpt lat="44.02764" lon="6.01101">
        <ele>627</ele>
        <time>2021-12-21T10:29:26.000Z</time>
      </trkpt>
      <trkpt lat="44.02764" lon="6.01102">
        <ele>627</ele>
        <time>2021-12-21T10:29:27.000Z</time>
      </trkpt>
      <trkpt lat="44.02763" lon="6.01103">
        <ele>627</ele>
        <time>2021-12-21T10:29:28.000Z</time>
      </trkpt>
      <trkpt lat="44.02762" lon="6.01105">
        <ele>627</ele>
        <time>2021-12-21T10:29:29.000Z</time>
      </trkpt>
      <trkpt lat="44.02761" lon="6.01106">
        <ele>627</ele>
        <time>2021-12-21T10:29:30.000Z</time>
      </trkpt>
      <trkpt lat="44.02761" lon="6.01107">
        <ele>627</ele>
        <time>2021-12-21T10:29:31.000Z</time>
      </trkpt>
      <trkpt lat="44.0276" lon="6.01108">
        <ele>627</ele>
        <time>2021-12-21T10:29:32.000Z</time>
      </trkpt>
      <trkpt lat="44.0276" lon="6.01109">
        <ele>627</ele>
        <time>2021-12-21T10:29:33.000Z</time>
      </trkpt>
      <trkpt lat="44.02759" lon="6.01109">
        <ele>627</ele>
        <time>2021-12-21T10:29:34.000Z</time>
      </trkpt>
      <trkpt lat="44.02759" lon="6.01109">
        <ele>627</ele>
        <time>2021-12-21T10:29:35.000Z</time>
      </trkpt>
      <trkpt lat="44.02759" lon="6.01109">
        <ele>627</ele>
        <time>2021-12-21T10:29:36.000Z</time>
      </trkpt>
      <trkpt lat="44.02759" lon="6.01109">
        <ele>627</ele>
        <time>2021-12-21T10:29:37.000Z</time>
      </trkpt>
      <trkpt lat="44.02759" lon="6.01109">
        <ele>627</ele>
        <time>2021-12-21T10:29:38.000Z</time>
      </trkpt>
      <trkpt lat="44.02759" lon="6.01109">
        <ele>627</ele>
        <time>2021-12-21T10:29:39.000Z</time>
      </trkpt>
      <trkpt lat="44.02759" lon="6.01109">
        <ele>627</ele>
        <time>2021-12-21T10:29:40.000Z</time>
      </trkpt>
      <trkpt lat="44.02759" lon="6.01109">
        <ele>627</ele>
        <time>2021-12-21T10:29:41.000Z</time>
      </trkpt>
      <trkpt lat="44.02758" lon="6.01109">
        <ele>627</ele>
        <time>2021-12-21T10:29:42.000Z</time>
      </trkpt>
      <trkpt lat="44.02758" lon="6.01109">
        <ele>627</ele>
        <time>2021-12-21T10:29:43.000Z</time>
      </trkpt>
      <trkpt lat="44.02758" lon="6.01109">
        <ele>627</ele>
        <time>2021-12-21T10:29:44.000Z</time>
      </trkpt>
      <trkpt lat="44.02758" lon="6.01109">
        <ele>627</ele>
        <time>2021-12-21T10:29:45.000Z</time>
      </trkpt>
      <trkpt lat="44.02758" lon="6.01109">
        <ele>627</ele>
        <time>2021-12-21T10:29:46.000Z</time>
      </trkpt>
      <trkpt lat="44.02758" lon="6.01109">
        <ele>627</ele>
        <time>2021-12-21T10:29:47.000Z</time>
      </trkpt>
      <trkpt lat="44.02758" lon="6.01109">
        <ele>627</ele>
        <time>2021-12-21T10:29:48.000Z</time>
      </trkpt>
      <trkpt lat="44.02758" lon="6.01109">
        <ele>627</ele>
        <time>2021-12-21T10:29:49.000Z</time>
      </trkpt>
      <trkpt lat="44.02758" lon="6.01109">
        <ele>627</ele>
        <time>2021-12-21T10:29:50.000Z</time>
      </trkpt>
      <trkpt lat="44.02758" lon="6.01109">
        <ele>627</ele>
        <time>2021-12-21T10:29:51.000Z</time>
      </trkpt>
      <trkpt lat="44.02758" lon="6.01109">
        <ele>627</ele>
        <time>2021-12-21T10:29:52.000Z</time>
      </trkpt>
      <trkpt lat="44.02758" lon="6.01109">
        <ele>627</ele>
        <time>2021-12-21T10:29:53.000Z</time>
      </trkpt>
      <trkpt lat="44.02757" lon="6.0111">
        <ele>627</ele>
        <time>2021-12-21T10:29:54.000Z</time>
      </trkpt>
      <trkpt lat="44.02757" lon="6.01111">
        <ele>627</ele>
        <time>2021-12-21T10:29:55.000Z</time>
      </trkpt>
      <trkpt lat="44.02756" lon="6.01112">
        <ele>627</ele>
        <time>2021-12-21T10:29:56.000Z</time>
      </trkpt>
      <trkpt lat="44.02756" lon="6.01113">
        <ele>627</ele>
        <time>2021-12-21T10:29:57.000Z</time>
      </trkpt>
      <trkpt lat="44.02755" lon="6.01114">
        <ele>627</ele>
        <time>2021-12-21T10:29:58.000Z</time>
      </trkpt>
      <trkpt lat="44.02755" lon="6.01115">
        <ele>627</ele>
        <time>2021-12-21T10:29:59.000Z</time>
      </trkpt>
      <trkpt lat="44.02755" lon="6.01116">
        <ele>627</ele>
        <time>2021-12-21T10:30:00.000Z</time>
      </trkpt>
      <trkpt lat="44.02754" lon="6.01117">
        <ele>627</ele>
        <time>2021-12-21T10:30:01.000Z</time>
      </trkpt>
      <trkpt lat="44.02753" lon="6.01118">
        <ele>627</ele>
        <time>2021-12-21T10:30:02.000Z</time>
      </trkpt>
      <trkpt lat="44.02753" lon="6.01119">
        <ele>628</ele>
        <time>2021-12-21T10:30:03.000Z</time>
      </trkpt>
      <trkpt lat="44.02752" lon="6.01121">
        <ele>628</ele>
        <time>2021-12-21T10:30:04.000Z</time>
      </trkpt>
      <trkpt lat="44.02752" lon="6.01122">
        <ele>628</ele>
        <time>2021-12-21T10:30:05.000Z</time>
      </trkpt>
      <trkpt lat="44.02751" lon="6.01123">
        <ele>628</ele>
        <time>2021-12-21T10:30:06.000Z</time>
      </trkpt>
      <trkpt lat="44.0275" lon="6.01124">
        <ele>628</ele>
        <time>2021-12-21T10:30:07.000Z</time>
      </trkpt>
      <trkpt lat="44.0275" lon="6.01125">
        <ele>628</ele>
        <time>2021-12-21T10:30:08.000Z</time>
      </trkpt>
      <trkpt lat="44.02749" lon="6.01126">
        <ele>628</ele>
        <time>2021-12-21T10:30:09.000Z</time>
      </trkpt>
      <trkpt lat="44.02748" lon="6.01127">
        <ele>629</ele>
        <time>2021-12-21T10:30:10.000Z</time>
      </trkpt>
      <trkpt lat="44.02748" lon="6.01129">
        <ele>629</ele>
        <time>2021-12-21T10:30:11.000Z</time>
      </trkpt>
      <trkpt lat="44.02747" lon="6.0113">
        <ele>629</ele>
        <time>2021-12-21T10:30:12.000Z</time>
      </trkpt>
      <trkpt lat="44.02746" lon="6.01131">
        <ele>629</ele>
        <time>2021-12-21T10:30:13.000Z</time>
      </trkpt>
      <trkpt lat="44.02745" lon="6.01132">
        <ele>629</ele>
        <time>2021-12-21T10:30:14.000Z</time>
      </trkpt>
      <trkpt lat="44.02745" lon="6.01133">
        <ele>629</ele>
        <time>2021-12-21T10:30:15.000Z</time>
      </trkpt>
      <trkpt lat="44.02744" lon="6.01133">
        <ele>629</ele>
        <time>2021-12-21T10:30:16.000Z</time>
      </trkpt>
      <trkpt lat="44.02743" lon="6.01134">
        <ele>630</ele>
        <time>2021-12-21T10:30:17.000Z</time>
      </trkpt>
      <trkpt lat="44.02742" lon="6.01135">
        <ele>630</ele>
        <time>2021-12-21T10:30:18.000Z</time>
      </trkpt>
      <trkpt lat="44.02742" lon="6.01136">
        <ele>630</ele>
        <time>2021-12-21T10:30:19.000Z</time>
      </trkpt>
      <trkpt lat="44.02741" lon="6.01137">
        <ele>630</ele>
        <time>2021-12-21T10:30:20.000Z</time>
      </trkpt>
      <trkpt lat="44.0274" lon="6.01138">
        <ele>630</ele>
        <time>2021-12-21T10:30:21.000Z</time>
      </trkpt>
      <trkpt lat="44.02739" lon="6.01138">
        <ele>630</ele>
        <time>2021-12-21T10:30:22.000Z</time>
      </trkpt>
      <trkpt lat="44.02739" lon="6.01138">
        <ele>630</ele>
        <time>2021-12-21T10:30:23.000Z</time>
      </trkpt>
      <trkpt lat="44.02738" lon="6.01139">
        <ele>630</ele>
        <time>2021-12-21T10:30:24.000Z</time>
      </trkpt>
      <trkpt lat="44.02737" lon="6.0114">
        <ele>630</ele>
        <time>2021-12-21T10:30:25.000Z</time>
      </trkpt>
      <trkpt lat="44.02737" lon="6.01141">
        <ele>630</ele>
        <time>2021-12-21T10:30:26.000Z</time>
      </trkpt>
      <trkpt lat="44.02736" lon="6.01142">
        <ele>631</ele>
        <time>2021-12-21T10:30:27.000Z</time>
      </trkpt>
      <trkpt lat="44.02735" lon="6.01143">
        <ele>631</ele>
        <time>2021-12-21T10:30:28.000Z</time>
      </trkpt>
      <trkpt lat="44.02734" lon="6.01144">
        <ele>631</ele>
        <time>2021-12-21T10:30:29.000Z</time>
      </trkpt>
      <trkpt lat="44.02733" lon="6.01145">
        <ele>631</ele>
        <time>2021-12-21T10:30:30.000Z</time>
      </trkpt>
      <trkpt lat="44.02733" lon="6.01146">
        <ele>631</ele>
        <time>2021-12-21T10:30:31.000Z</time>
      </trkpt>
      <trkpt lat="44.02732" lon="6.01147">
        <ele>631</ele>
        <time>2021-12-21T10:30:32.000Z</time>
      </trkpt>
      <trkpt lat="44.02732" lon="6.01148">
        <ele>631</ele>
        <time>2021-12-21T10:30:33.000Z</time>
      </trkpt>
      <trkpt lat="44.02731" lon="6.01149">
        <ele>631</ele>
        <time>2021-12-21T10:30:34.000Z</time>
      </trkpt>
      <trkpt lat="44.02731" lon="6.0115">
        <ele>631</ele>
        <time>2021-12-21T10:30:35.000Z</time>
      </trkpt>
      <trkpt lat="44.0273" lon="6.01152">
        <ele>631</ele>
        <time>2021-12-21T10:30:36.000Z</time>
      </trkpt>
      <trkpt lat="44.0273" lon="6.01154">
        <ele>631</ele>
        <time>2021-12-21T10:30:37.000Z</time>
      </trkpt>
      <trkpt lat="44.02729" lon="6.01155">
        <ele>631</ele>
        <time>2021-12-21T10:30:38.000Z</time>
      </trkpt>
      <trkpt lat="44.02729" lon="6.01156">
        <ele>631</ele>
        <time>2021-12-21T10:30:39.000Z</time>
      </trkpt>
      <trkpt lat="44.02728" lon="6.01157">
        <ele>631</ele>
        <time>2021-12-21T10:30:40.000Z</time>
      </trkpt>
      <trkpt lat="44.02728" lon="6.01159">
        <ele>631</ele>
        <time>2021-12-21T10:30:41.000Z</time>
      </trkpt>
      <trkpt lat="44.02727" lon="6.0116">
        <ele>631</ele>
        <time>2021-12-21T10:30:42.000Z</time>
      </trkpt>
      <trkpt lat="44.02727" lon="6.01161">
        <ele>631</ele>
        <time>2021-12-21T10:30:43.000Z</time>
      </trkpt>
      <trkpt lat="44.02726" lon="6.01162">
        <ele>631</ele>
        <time>2021-12-21T10:30:44.000Z</time>
      </trkpt>
      <trkpt lat="44.02726" lon="6.01163">
        <ele>632</ele>
        <time>2021-12-21T10:30:45.000Z</time>
      </trkpt>
      <trkpt lat="44.02726" lon="6.01165">
        <ele>632</ele>
        <time>2021-12-21T10:30:46.000Z</time>
      </trkpt>
      <trkpt lat="44.02725" lon="6.01166">
        <ele>632</ele>
        <time>2021-12-21T10:30:47.000Z</time>
      </trkpt>
      <trkpt lat="44.02725" lon="6.01167">
        <ele>632</ele>
        <time>2021-12-21T10:30:48.000Z</time>
      </trkpt>
      <trkpt lat="44.02725" lon="6.01168">
        <ele>632</ele>
        <time>2021-12-21T10:30:49.000Z</time>
      </trkpt>
      <trkpt lat="44.02724" lon="6.0117">
        <ele>633</ele>
        <time>2021-12-21T10:30:50.000Z</time>
      </trkpt>
      <trkpt lat="44.02724" lon="6.01171">
        <ele>633</ele>
        <time>2021-12-21T10:30:51.000Z</time>
      </trkpt>
      <trkpt lat="44.02723" lon="6.01172">
        <ele>633</ele>
        <time>2021-12-21T10:30:52.000Z</time>
      </trkpt>
      <trkpt lat="44.02723" lon="6.01174">
        <ele>633</ele>
        <time>2021-12-21T10:30:53.000Z</time>
      </trkpt>
      <trkpt lat="44.02722" lon="6.01175">
        <ele>634</ele>
        <time>2021-12-21T10:30:54.000Z</time>
      </trkpt>
      <trkpt lat="44.02722" lon="6.01176">
        <ele>634</ele>
        <time>2021-12-21T10:30:55.000Z</time>
      </trkpt>
      <trkpt lat="44.02721" lon="6.01178">
        <ele>634</ele>
        <time>2021-12-21T10:30:56.000Z</time>
      </trkpt>
      <trkpt lat="44.02721" lon="6.01179">
        <ele>634</ele>
        <time>2021-12-21T10:30:57.000Z</time>
      </trkpt>
      <trkpt lat="44.0272" lon="6.0118">
        <ele>634</ele>
        <time>2021-12-21T10:30:58.000Z</time>
      </trkpt>
      <trkpt lat="44.0272" lon="6.01181">
        <ele>635</ele>
        <time>2021-12-21T10:30:59.000Z</time>
      </trkpt>
      <trkpt lat="44.0272" lon="6.01182">
        <ele>635</ele>
        <time>2021-12-21T10:31:00.000Z</time>
      </trkpt>
      <trkpt lat="44.02719" lon="6.01183">
        <ele>635</ele>
        <time>2021-12-21T10:31:01.000Z</time>
      </trkpt>
      <trkpt lat="44.02719" lon="6.01185">
        <ele>635</ele>
        <time>2021-12-21T10:31:02.000Z</time>
      </trkpt>
      <trkpt lat="44.02718" lon="6.01186">
        <ele>635</ele>
        <time>2021-12-21T10:31:03.000Z</time>
      </trkpt>
      <trkpt lat="44.02718" lon="6.01187">
        <ele>635</ele>
        <time>2021-12-21T10:31:04.000Z</time>
      </trkpt>
      <trkpt lat="44.02717" lon="6.01188">
        <ele>636</ele>
        <time>2021-12-21T10:31:05.000Z</time>
      </trkpt>
      <trkpt lat="44.02717" lon="6.01189">
        <ele>636</ele>
        <time>2021-12-21T10:31:06.000Z</time>
      </trkpt>
      <trkpt lat="44.02716" lon="6.0119">
        <ele>636</ele>
        <time>2021-12-21T10:31:07.000Z</time>
      </trkpt>
      <trkpt lat="44.02716" lon="6.01192">
        <ele>636</ele>
        <time>2021-12-21T10:31:08.000Z</time>
      </trkpt>
      <trkpt lat="44.02715" lon="6.01193">
        <ele>636</ele>
        <time>2021-12-21T10:31:09.000Z</time>
      </trkpt>
      <trkpt lat="44.02715" lon="6.01194">
        <ele>636</ele>
        <time>2021-12-21T10:31:10.000Z</time>
      </trkpt>
      <trkpt lat="44.02715" lon="6.01195">
        <ele>636</ele>
        <time>2021-12-21T10:31:11.000Z</time>
      </trkpt>
      <trkpt lat="44.02714" lon="6.01197">
        <ele>636</ele>
        <time>2021-12-21T10:31:12.000Z</time>
      </trkpt>
      <trkpt lat="44.02714" lon="6.01198">
        <ele>636</ele>
        <time>2021-12-21T10:31:13.000Z</time>
      </trkpt>
      <trkpt lat="44.02713" lon="6.01199">
        <ele>636</ele>
        <time>2021-12-21T10:31:14.000Z</time>
      </trkpt>
      <trkpt lat="44.02713" lon="6.012">
        <ele>637</ele>
        <time>2021-12-21T10:31:15.000Z</time>
      </trkpt>
      <trkpt lat="44.02712" lon="6.01201">
        <ele>637</ele>
        <time>2021-12-21T10:31:16.000Z</time>
      </trkpt>
      <trkpt lat="44.02712" lon="6.01202">
        <ele>637</ele>
        <time>2021-12-21T10:31:17.000Z</time>
      </trkpt>
      <trkpt lat="44.02711" lon="6.01203">
        <ele>637</ele>
        <time>2021-12-21T10:31:18.000Z</time>
      </trkpt>
      <trkpt lat="44.02711" lon="6.01204">
        <ele>637</ele>
        <time>2021-12-21T10:31:19.000Z</time>
      </trkpt>
      <trkpt lat="44.0271" lon="6.01205">
        <ele>637</ele>
        <time>2021-12-21T10:31:20.000Z</time>
      </trkpt>
      <trkpt lat="44.0271" lon="6.01207">
        <ele>637</ele>
        <time>2021-12-21T10:31:21.000Z</time>
      </trkpt>
      <trkpt lat="44.02709" lon="6.01208">
        <ele>637</ele>
        <time>2021-12-21T10:31:22.000Z</time>
      </trkpt>
      <trkpt lat="44.02709" lon="6.01209">
        <ele>637</ele>
        <time>2021-12-21T10:31:23.000Z</time>
      </trkpt>
      <trkpt lat="44.02708" lon="6.0121">
        <ele>638</ele>
        <time>2021-12-21T10:31:24.000Z</time>
      </trkpt>
      <trkpt lat="44.02708" lon="6.0121">
        <ele>638</ele>
        <time>2021-12-21T10:31:25.000Z</time>
      </trkpt>
      <trkpt lat="44.02707" lon="6.01211">
        <ele>638</ele>
        <time>2021-12-21T10:31:26.000Z</time>
      </trkpt>
      <trkpt lat="44.02706" lon="6.01212">
        <ele>638</ele>
        <time>2021-12-21T10:31:27.000Z</time>
      </trkpt>
      <trkpt lat="44.02706" lon="6.01213">
        <ele>638</ele>
        <time>2021-12-21T10:31:28.000Z</time>
      </trkpt>
      <trkpt lat="44.02705" lon="6.01213">
        <ele>638</ele>
        <time>2021-12-21T10:31:29.000Z</time>
      </trkpt>
      <trkpt lat="44.02705" lon="6.01213">
        <ele>638</ele>
        <time>2021-12-21T10:31:30.000Z</time>
      </trkpt>
      <trkpt lat="44.02705" lon="6.01213">
        <ele>638</ele>
        <time>2021-12-21T10:31:31.000Z</time>
      </trkpt>
      <trkpt lat="44.02705" lon="6.01213">
        <ele>638</ele>
        <time>2021-12-21T10:31:32.000Z</time>
      </trkpt>
      <trkpt lat="44.02705" lon="6.01213">
        <ele>638</ele>
        <time>2021-12-21T10:31:33.000Z</time>
      </trkpt>
      <trkpt lat="44.02705" lon="6.01213">
        <ele>638</ele>
        <time>2021-12-21T10:31:34.000Z</time>
      </trkpt>
      <trkpt lat="44.02705" lon="6.01213">
        <ele>638</ele>
        <time>2021-12-21T10:31:35.000Z</time>
      </trkpt>
      <trkpt lat="44.02705" lon="6.01213">
        <ele>638</ele>
        <time>2021-12-21T10:31:36.000Z</time>
      </trkpt>
      <trkpt lat="44.02705" lon="6.01213">
        <ele>638</ele>
        <time>2021-12-21T10:31:37.000Z</time>
      </trkpt>
      <trkpt lat="44.02704" lon="6.01213">
        <ele>638</ele>
        <time>2021-12-21T10:31:38.000Z</time>
      </trkpt>
      <trkpt lat="44.02705" lon="6.01213">
        <ele>638</ele>
        <time>2021-12-21T10:31:39.000Z</time>
      </trkpt>
      <trkpt lat="44.02705" lon="6.01213">
        <ele>638</ele>
        <time>2021-12-21T10:31:40.000Z</time>
      </trkpt>
      <trkpt lat="44.02705" lon="6.01213">
        <ele>638</ele>
        <time>2021-12-21T10:31:41.000Z</time>
      </trkpt>
      <trkpt lat="44.02705" lon="6.01213">
        <ele>638</ele>
        <time>2021-12-21T10:31:42.000Z</time>
      </trkpt>
      <trkpt lat="44.02705" lon="6.01213">
        <ele>638</ele>
        <time>2021-12-21T10:31:43.000Z</time>
      </trkpt>
      <trkpt lat="44.02705" lon="6.01213">
        <ele>638</ele>
        <time>2021-12-21T10:31:44.000Z</time>
      </trkpt>
      <trkpt lat="44.02705" lon="6.01213">
        <ele>638</ele>
        <time>2021-12-21T10:31:45.000Z</time>
      </trkpt>
      <trkpt lat="44.02705" lon="6.01213">
        <ele>638</ele>
        <time>2021-12-21T10:31:46.000Z</time>
      </trkpt>
      <trkpt lat="44.02705" lon="6.01213">
        <ele>638</ele>
        <time>2021-12-21T10:31:47.000Z</time>
      </trkpt>
      <trkpt lat="44.02705" lon="6.01213">
        <ele>638</ele>
        <time>2021-12-21T10:31:48.000Z</time>
      </trkpt>
      <trkpt lat="44.02705" lon="6.01213">
        <ele>638</ele>
        <time>2021-12-21T10:31:49.000Z</time>
      </trkpt>
      <trkpt lat="44.02705" lon="6.01213">
        <ele>638</ele>
        <time>2021-12-21T10:31:50.000Z</time>
      </trkpt>
      <trkpt lat="44.02705" lon="6.01213">
        <ele>638</ele>
        <time>2021-12-21T10:31:51.000Z</time>
      </trkpt>
      <trkpt lat="44.02705" lon="6.01213">
        <ele>638</ele>
        <time>2021-12-21T10:31:52.000Z</time>
      </trkpt>
      <trkpt lat="44.02705" lon="6.01213">
        <ele>637</ele>
        <time>2021-12-21T10:31:53.000Z</time>
      </trkpt>
      <trkpt lat="44.02705" lon="6.01213">
        <ele>637</ele>
        <time>2021-12-21T10:31:54.000Z</time>
      </trkpt>
      <trkpt lat="44.02705" lon="6.01214">
        <ele>637</ele>
        <time>2021-12-21T10:31:55.000Z</time>
      </trkpt>
      <trkpt lat="44.02705" lon="6.01214">
        <ele>637</ele>
        <time>2021-12-21T10:31:56.000Z</time>
      </trkpt>
      <trkpt lat="44.02705" lon="6.01215">
        <ele>637</ele>
        <time>2021-12-21T10:31:57.000Z</time>
      </trkpt>
      <trkpt lat="44.02704" lon="6.01216">
        <ele>637</ele>
        <time>2021-12-21T10:31:58.000Z</time>
      </trkpt>
      <trkpt lat="44.02704" lon="6.01217">
        <ele>637</ele>
        <time>2021-12-21T10:31:59.000Z</time>
      </trkpt>
      <trkpt lat="44.02704" lon="6.01218">
        <ele>637</ele>
        <time>2021-12-21T10:32:00.000Z</time>
      </trkpt>
      <trkpt lat="44.02703" lon="6.01219">
        <ele>637</ele>
        <time>2021-12-21T10:32:01.000Z</time>
      </trkpt>
      <trkpt lat="44.02703" lon="6.0122">
        <ele>637</ele>
        <time>2021-12-21T10:32:02.000Z</time>
      </trkpt>
      <trkpt lat="44.02702" lon="6.01222">
        <ele>637</ele>
        <time>2021-12-21T10:32:03.000Z</time>
      </trkpt>
      <trkpt lat="44.02702" lon="6.01223">
        <ele>637</ele>
        <time>2021-12-21T10:32:04.000Z</time>
      </trkpt>
      <trkpt lat="44.02702" lon="6.01224">
        <ele>637</ele>
        <time>2021-12-21T10:32:05.000Z</time>
      </trkpt>
      <trkpt lat="44.02701" lon="6.01225">
        <ele>637</ele>
        <time>2021-12-21T10:32:06.000Z</time>
      </trkpt>
      <trkpt lat="44.02701" lon="6.01226">
        <ele>637</ele>
        <time>2021-12-21T10:32:07.000Z</time>
      </trkpt>
      <trkpt lat="44.027" lon="6.01227">
        <ele>637</ele>
        <time>2021-12-21T10:32:08.000Z</time>
      </trkpt>
      <trkpt lat="44.027" lon="6.01228">
        <ele>637</ele>
        <time>2021-12-21T10:32:09.000Z</time>
      </trkpt>
      <trkpt lat="44.027" lon="6.01229">
        <ele>637</ele>
        <time>2021-12-21T10:32:10.000Z</time>
      </trkpt>
      <trkpt lat="44.02699" lon="6.0123">
        <ele>637</ele>
        <time>2021-12-21T10:32:11.000Z</time>
      </trkpt>
      <trkpt lat="44.02699" lon="6.01231">
        <ele>637</ele>
        <time>2021-12-21T10:32:12.000Z</time>
      </trkpt>
      <trkpt lat="44.02699" lon="6.01232">
        <ele>637</ele>
        <time>2021-12-21T10:32:13.000Z</time>
      </trkpt>
      <trkpt lat="44.02698" lon="6.01233">
        <ele>637</ele>
        <time>2021-12-21T10:32:14.000Z</time>
      </trkpt>
      <trkpt lat="44.02698" lon="6.01234">
        <ele>638</ele>
        <time>2021-12-21T10:32:15.000Z</time>
      </trkpt>
      <trkpt lat="44.02697" lon="6.01235">
        <ele>638</ele>
        <time>2021-12-21T10:32:16.000Z</time>
      </trkpt>
      <trkpt lat="44.02697" lon="6.01236">
        <ele>638</ele>
        <time>2021-12-21T10:32:17.000Z</time>
      </trkpt>
      <trkpt lat="44.02697" lon="6.01238">
        <ele>638</ele>
        <time>2021-12-21T10:32:18.000Z</time>
      </trkpt>
      <trkpt lat="44.02696" lon="6.01239">
        <ele>638</ele>
        <time>2021-12-21T10:32:19.000Z</time>
      </trkpt>
      <trkpt lat="44.02696" lon="6.0124">
        <ele>638</ele>
        <time>2021-12-21T10:32:20.000Z</time>
      </trkpt>
      <trkpt lat="44.02696" lon="6.01241">
        <ele>638</ele>
        <time>2021-12-21T10:32:21.000Z</time>
      </trkpt>
      <trkpt lat="44.02695" lon="6.01243">
        <ele>638</ele>
        <time>2021-12-21T10:32:22.000Z</time>
      </trkpt>
      <trkpt lat="44.02695" lon="6.01244">
        <ele>638</ele>
        <time>2021-12-21T10:32:23.000Z</time>
      </trkpt>
      <trkpt lat="44.02694" lon="6.01245">
        <ele>638</ele>
        <time>2021-12-21T10:32:24.000Z</time>
      </trkpt>
      <trkpt lat="44.02694" lon="6.01246">
        <ele>638</ele>
        <time>2021-12-21T10:32:25.000Z</time>
      </trkpt>
      <trkpt lat="44.02693" lon="6.01248">
        <ele>638</ele>
        <time>2021-12-21T10:32:26.000Z</time>
      </trkpt>
      <trkpt lat="44.02693" lon="6.01249">
        <ele>638</ele>
        <time>2021-12-21T10:32:27.000Z</time>
      </trkpt>
      <trkpt lat="44.02692" lon="6.0125">
        <ele>638</ele>
        <time>2021-12-21T10:32:28.000Z</time>
      </trkpt>
      <trkpt lat="44.02692" lon="6.01252">
        <ele>638</ele>
        <time>2021-12-21T10:32:29.000Z</time>
      </trkpt>
      <trkpt lat="44.02691" lon="6.01253">
        <ele>639</ele>
        <time>2021-12-21T10:32:30.000Z</time>
      </trkpt>
      <trkpt lat="44.02691" lon="6.01254">
        <ele>639</ele>
        <time>2021-12-21T10:32:31.000Z</time>
      </trkpt>
      <trkpt lat="44.0269" lon="6.01255">
        <ele>639</ele>
        <time>2021-12-21T10:32:32.000Z</time>
      </trkpt>
      <trkpt lat="44.0269" lon="6.01256">
        <ele>639</ele>
        <time>2021-12-21T10:32:33.000Z</time>
      </trkpt>
      <trkpt lat="44.02689" lon="6.01257">
        <ele>639</ele>
        <time>2021-12-21T10:32:34.000Z</time>
      </trkpt>
      <trkpt lat="44.02689" lon="6.01259">
        <ele>639</ele>
        <time>2021-12-21T10:32:35.000Z</time>
      </trkpt>
      <trkpt lat="44.02688" lon="6.0126">
        <ele>640</ele>
        <time>2021-12-21T10:32:36.000Z</time>
      </trkpt>
      <trkpt lat="44.02688" lon="6.01261">
        <ele>640</ele>
        <time>2021-12-21T10:32:37.000Z</time>
      </trkpt>
      <trkpt lat="44.02687" lon="6.01262">
        <ele>640</ele>
        <time>2021-12-21T10:32:38.000Z</time>
      </trkpt>
      <trkpt lat="44.02686" lon="6.01263">
        <ele>640</ele>
        <time>2021-12-21T10:32:39.000Z</time>
      </trkpt>
      <trkpt lat="44.02686" lon="6.01265">
        <ele>640</ele>
        <time>2021-12-21T10:32:40.000Z</time>
      </trkpt>
      <trkpt lat="44.02685" lon="6.01266">
        <ele>641</ele>
        <time>2021-12-21T10:32:41.000Z</time>
      </trkpt>
      <trkpt lat="44.02685" lon="6.01267">
        <ele>641</ele>
        <time>2021-12-21T10:32:42.000Z</time>
      </trkpt>
      <trkpt lat="44.02684" lon="6.01268">
        <ele>641</ele>
        <time>2021-12-21T10:32:43.000Z</time>
      </trkpt>
      <trkpt lat="44.02683" lon="6.01269">
        <ele>641</ele>
        <time>2021-12-21T10:32:44.000Z</time>
      </trkpt>
      <trkpt lat="44.02683" lon="6.0127">
        <ele>641</ele>
        <time>2021-12-21T10:32:45.000Z</time>
      </trkpt>
      <trkpt lat="44.02682" lon="6.01271">
        <ele>641</ele>
        <time>2021-12-21T10:32:46.000Z</time>
      </trkpt>
      <trkpt lat="44.02681" lon="6.01272">
        <ele>641</ele>
        <time>2021-12-21T10:32:47.000Z</time>
      </trkpt>
      <trkpt lat="44.0268" lon="6.01273">
        <ele>641</ele>
        <time>2021-12-21T10:32:48.000Z</time>
      </trkpt>
      <trkpt lat="44.02679" lon="6.01274">
        <ele>641</ele>
        <time>2021-12-21T10:32:49.000Z</time>
      </trkpt>
      <trkpt lat="44.02679" lon="6.01275">
        <ele>641</ele>
        <time>2021-12-21T10:32:50.000Z</time>
      </trkpt>
      <trkpt lat="44.02678" lon="6.01275">
        <ele>641</ele>
        <time>2021-12-21T10:32:51.000Z</time>
      </trkpt>
      <trkpt lat="44.02677" lon="6.01276">
        <ele>641</ele>
        <time>2021-12-21T10:32:52.000Z</time>
      </trkpt>
      <trkpt lat="44.02677" lon="6.01277">
        <ele>641</ele>
        <time>2021-12-21T10:32:53.000Z</time>
      </trkpt>
      <trkpt lat="44.02676" lon="6.01278">
        <ele>641</ele>
        <time>2021-12-21T10:32:54.000Z</time>
      </trkpt>
      <trkpt lat="44.02675" lon="6.01279">
        <ele>641</ele>
        <time>2021-12-21T10:32:55.000Z</time>
      </trkpt>
      <trkpt lat="44.02674" lon="6.0128">
        <ele>641</ele>
        <time>2021-12-21T10:32:56.000Z</time>
      </trkpt>
      <trkpt lat="44.02674" lon="6.01281">
        <ele>642</ele>
        <time>2021-12-21T10:32:57.000Z</time>
      </trkpt>
      <trkpt lat="44.02673" lon="6.01282">
        <ele>642</ele>
        <time>2021-12-21T10:32:58.000Z</time>
      </trkpt>
      <trkpt lat="44.02672" lon="6.01283">
        <ele>642</ele>
        <time>2021-12-21T10:32:59.000Z</time>
      </trkpt>
      <trkpt lat="44.02671" lon="6.01284">
        <ele>642</ele>
        <time>2021-12-21T10:33:00.000Z</time>
      </trkpt>
      <trkpt lat="44.02671" lon="6.01285">
        <ele>642</ele>
        <time>2021-12-21T10:33:01.000Z</time>
      </trkpt>
      <trkpt lat="44.0267" lon="6.01286">
        <ele>642</ele>
        <time>2021-12-21T10:33:02.000Z</time>
      </trkpt>
      <trkpt lat="44.02669" lon="6.01287">
        <ele>642</ele>
        <time>2021-12-21T10:33:03.000Z</time>
      </trkpt>
      <trkpt lat="44.02669" lon="6.01288">
        <ele>642</ele>
        <time>2021-12-21T10:33:04.000Z</time>
      </trkpt>
      <trkpt lat="44.02668" lon="6.01289">
        <ele>642</ele>
        <time>2021-12-21T10:33:05.000Z</time>
      </trkpt>
      <trkpt lat="44.02667" lon="6.0129">
        <ele>643</ele>
        <time>2021-12-21T10:33:06.000Z</time>
      </trkpt>
      <trkpt lat="44.02667" lon="6.01291">
        <ele>643</ele>
        <time>2021-12-21T10:33:07.000Z</time>
      </trkpt>
      <trkpt lat="44.02666" lon="6.01292">
        <ele>643</ele>
        <time>2021-12-21T10:33:08.000Z</time>
      </trkpt>
      <trkpt lat="44.02666" lon="6.01293">
        <ele>643</ele>
        <time>2021-12-21T10:33:09.000Z</time>
      </trkpt>
      <trkpt lat="44.02665" lon="6.01294">
        <ele>643</ele>
        <time>2021-12-21T10:33:10.000Z</time>
      </trkpt>
      <trkpt lat="44.02664" lon="6.01295">
        <ele>643</ele>
        <time>2021-12-21T10:33:11.000Z</time>
      </trkpt>
      <trkpt lat="44.02664" lon="6.01296">
        <ele>643</ele>
        <time>2021-12-21T10:33:12.000Z</time>
      </trkpt>
      <trkpt lat="44.02663" lon="6.01297">
        <ele>643</ele>
        <time>2021-12-21T10:33:13.000Z</time>
      </trkpt>
      <trkpt lat="44.02662" lon="6.01298">
        <ele>643</ele>
        <time>2021-12-21T10:33:14.000Z</time>
      </trkpt>
      <trkpt lat="44.02662" lon="6.01299">
        <ele>643</ele>
        <time>2021-12-21T10:33:15.000Z</time>
      </trkpt>
      <trkpt lat="44.02661" lon="6.013">
        <ele>644</ele>
        <time>2021-12-21T10:33:16.000Z</time>
      </trkpt>
      <trkpt lat="44.0266" lon="6.01301">
        <ele>644</ele>
        <time>2021-12-21T10:33:17.000Z</time>
      </trkpt>
      <trkpt lat="44.02659" lon="6.01302">
        <ele>644</ele>
        <time>2021-12-21T10:33:18.000Z</time>
      </trkpt>
      <trkpt lat="44.02658" lon="6.01303">
        <ele>644</ele>
        <time>2021-12-21T10:33:19.000Z</time>
      </trkpt>
      <trkpt lat="44.02658" lon="6.01304">
        <ele>644</ele>
        <time>2021-12-21T10:33:20.000Z</time>
      </trkpt>
      <trkpt lat="44.02657" lon="6.01306">
        <ele>644</ele>
        <time>2021-12-21T10:33:21.000Z</time>
      </trkpt>
      <trkpt lat="44.02656" lon="6.01307">
        <ele>644</ele>
        <time>2021-12-21T10:33:22.000Z</time>
      </trkpt>
      <trkpt lat="44.02655" lon="6.01308">
        <ele>644</ele>
        <time>2021-12-21T10:33:23.000Z</time>
      </trkpt>
      <trkpt lat="44.02655" lon="6.01309">
        <ele>644</ele>
        <time>2021-12-21T10:33:24.000Z</time>
      </trkpt>
      <trkpt lat="44.02654" lon="6.0131">
        <ele>644</ele>
        <time>2021-12-21T10:33:25.000Z</time>
      </trkpt>
      <trkpt lat="44.02653" lon="6.01311">
        <ele>644</ele>
        <time>2021-12-21T10:33:26.000Z</time>
      </trkpt>
      <trkpt lat="44.02652" lon="6.01312">
        <ele>645</ele>
        <time>2021-12-21T10:33:27.000Z</time>
      </trkpt>
      <trkpt lat="44.02651" lon="6.01313">
        <ele>645</ele>
        <time>2021-12-21T10:33:28.000Z</time>
      </trkpt>
      <trkpt lat="44.0265" lon="6.01314">
        <ele>645</ele>
        <time>2021-12-21T10:33:29.000Z</time>
      </trkpt>
      <trkpt lat="44.02649" lon="6.01315">
        <ele>645</ele>
        <time>2021-12-21T10:33:30.000Z</time>
      </trkpt>
      <trkpt lat="44.02648" lon="6.01316">
        <ele>645</ele>
        <time>2021-12-21T10:33:31.000Z</time>
      </trkpt>
      <trkpt lat="44.02647" lon="6.01316">
        <ele>645</ele>
        <time>2021-12-21T10:33:32.000Z</time>
      </trkpt>
      <trkpt lat="44.02647" lon="6.01317">
        <ele>645</ele>
        <time>2021-12-21T10:33:33.000Z</time>
      </trkpt>
      <trkpt lat="44.02646" lon="6.01318">
        <ele>645</ele>
        <time>2021-12-21T10:33:34.000Z</time>
      </trkpt>
      <trkpt lat="44.02645" lon="6.01319">
        <ele>645</ele>
        <time>2021-12-21T10:33:35.000Z</time>
      </trkpt>
      <trkpt lat="44.02644" lon="6.0132">
        <ele>645</ele>
        <time>2021-12-21T10:33:36.000Z</time>
      </trkpt>
      <trkpt lat="44.02643" lon="6.01321">
        <ele>645</ele>
        <time>2021-12-21T10:33:37.000Z</time>
      </trkpt>
      <trkpt lat="44.02642" lon="6.01322">
        <ele>645</ele>
        <time>2021-12-21T10:33:38.000Z</time>
      </trkpt>
      <trkpt lat="44.02641" lon="6.01323">
        <ele>646</ele>
        <time>2021-12-21T10:33:39.000Z</time>
      </trkpt>
      <trkpt lat="44.0264" lon="6.01323">
        <ele>646</ele>
        <time>2021-12-21T10:33:40.000Z</time>
      </trkpt>
      <trkpt lat="44.02638" lon="6.01324">
        <ele>646</ele>
        <time>2021-12-21T10:33:41.000Z</time>
      </trkpt>
      <trkpt lat="44.02637" lon="6.01324">
        <ele>646</ele>
        <time>2021-12-21T10:33:42.000Z</time>
      </trkpt>
      <trkpt lat="44.02636" lon="6.01326">
        <ele>646</ele>
        <time>2021-12-21T10:33:43.000Z</time>
      </trkpt>
      <trkpt lat="44.02635" lon="6.01326">
        <ele>646</ele>
        <time>2021-12-21T10:33:44.000Z</time>
      </trkpt>
      <trkpt lat="44.02634" lon="6.01327">
        <ele>646</ele>
        <time>2021-12-21T10:33:45.000Z</time>
      </trkpt>
      <trkpt lat="44.02633" lon="6.01327">
        <ele>647</ele>
        <time>2021-12-21T10:33:46.000Z</time>
      </trkpt>
      <trkpt lat="44.02632" lon="6.01328">
        <ele>647</ele>
        <time>2021-12-21T10:33:47.000Z</time>
      </trkpt>
      <trkpt lat="44.02631" lon="6.01329">
        <ele>647</ele>
        <time>2021-12-21T10:33:48.000Z</time>
      </trkpt>
      <trkpt lat="44.02631" lon="6.01329">
        <ele>647</ele>
        <time>2021-12-21T10:33:49.000Z</time>
      </trkpt>
      <trkpt lat="44.02631" lon="6.01329">
        <ele>647</ele>
        <time>2021-12-21T10:33:50.000Z</time>
      </trkpt>
      <trkpt lat="44.0263" lon="6.01329">
        <ele>647</ele>
        <time>2021-12-21T10:33:51.000Z</time>
      </trkpt>
      <trkpt lat="44.0263" lon="6.0133">
        <ele>647</ele>
        <time>2021-12-21T10:33:52.000Z</time>
      </trkpt>
      <trkpt lat="44.0263" lon="6.0133">
        <ele>648</ele>
        <time>2021-12-21T10:33:53.000Z</time>
      </trkpt>
      <trkpt lat="44.0263" lon="6.0133">
        <ele>648</ele>
        <time>2021-12-21T10:33:54.000Z</time>
      </trkpt>
      <trkpt lat="44.0263" lon="6.0133">
        <ele>648</ele>
        <time>2021-12-21T10:33:55.000Z</time>
      </trkpt>
      <trkpt lat="44.0263" lon="6.0133">
        <ele>648</ele>
        <time>2021-12-21T10:33:56.000Z</time>
      </trkpt>
      <trkpt lat="44.0263" lon="6.01331">
        <ele>648</ele>
        <time>2021-12-21T10:33:57.000Z</time>
      </trkpt>
      <trkpt lat="44.02629" lon="6.01331">
        <ele>648</ele>
        <time>2021-12-21T10:33:58.000Z</time>
      </trkpt>
      <trkpt lat="44.02628" lon="6.01332">
        <ele>648</ele>
        <time>2021-12-21T10:33:59.000Z</time>
      </trkpt>
      <trkpt lat="44.02627" lon="6.01332">
        <ele>648</ele>
        <time>2021-12-21T10:34:00.000Z</time>
      </trkpt>
      <trkpt lat="44.02626" lon="6.01333">
        <ele>649</ele>
        <time>2021-12-21T10:34:01.000Z</time>
      </trkpt>
      <trkpt lat="44.02626" lon="6.01334">
        <ele>649</ele>
        <time>2021-12-21T10:34:02.000Z</time>
      </trkpt>
      <trkpt lat="44.02625" lon="6.01335">
        <ele>649</ele>
        <time>2021-12-21T10:34:03.000Z</time>
      </trkpt>
      <trkpt lat="44.02624" lon="6.01337">
        <ele>649</ele>
        <time>2021-12-21T10:34:04.000Z</time>
      </trkpt>
      <trkpt lat="44.02623" lon="6.01338">
        <ele>649</ele>
        <time>2021-12-21T10:34:05.000Z</time>
      </trkpt>
      <trkpt lat="44.02622" lon="6.01339">
        <ele>649</ele>
        <time>2021-12-21T10:34:06.000Z</time>
      </trkpt>
      <trkpt lat="44.02621" lon="6.01339">
        <ele>649</ele>
        <time>2021-12-21T10:34:07.000Z</time>
      </trkpt>
      <trkpt lat="44.0262" lon="6.0134">
        <ele>649</ele>
        <time>2021-12-21T10:34:08.000Z</time>
      </trkpt>
      <trkpt lat="44.02619" lon="6.01341">
        <ele>649</ele>
        <time>2021-12-21T10:34:09.000Z</time>
      </trkpt>
      <trkpt lat="44.02619" lon="6.01341">
        <ele>650</ele>
        <time>2021-12-21T10:34:10.000Z</time>
      </trkpt>
      <trkpt lat="44.02618" lon="6.01342">
        <ele>650</ele>
        <time>2021-12-21T10:34:11.000Z</time>
      </trkpt>
      <trkpt lat="44.02617" lon="6.01343">
        <ele>650</ele>
        <time>2021-12-21T10:34:12.000Z</time>
      </trkpt>
      <trkpt lat="44.02616" lon="6.01344">
        <ele>650</ele>
        <time>2021-12-21T10:34:13.000Z</time>
      </trkpt>
      <trkpt lat="44.02615" lon="6.01344">
        <ele>650</ele>
        <time>2021-12-21T10:34:14.000Z</time>
      </trkpt>
      <trkpt lat="44.02614" lon="6.01345">
        <ele>650</ele>
        <time>2021-12-21T10:34:15.000Z</time>
      </trkpt>
      <trkpt lat="44.02613" lon="6.01346">
        <ele>650</ele>
        <time>2021-12-21T10:34:16.000Z</time>
      </trkpt>
      <trkpt lat="44.02612" lon="6.01347">
        <ele>650</ele>
        <time>2021-12-21T10:34:17.000Z</time>
      </trkpt>
      <trkpt lat="44.02611" lon="6.01347">
        <ele>650</ele>
        <time>2021-12-21T10:34:18.000Z</time>
      </trkpt>
      <trkpt lat="44.0261" lon="6.01348">
        <ele>651</ele>
        <time>2021-12-21T10:34:19.000Z</time>
      </trkpt>
      <trkpt lat="44.02609" lon="6.01349">
        <ele>651</ele>
        <time>2021-12-21T10:34:20.000Z</time>
      </trkpt>
      <trkpt lat="44.02608" lon="6.01349">
        <ele>651</ele>
        <time>2021-12-21T10:34:21.000Z</time>
      </trkpt>
      <trkpt lat="44.02607" lon="6.0135">
        <ele>651</ele>
        <time>2021-12-21T10:34:22.000Z</time>
      </trkpt>
      <trkpt lat="44.02606" lon="6.0135">
        <ele>651</ele>
        <time>2021-12-21T10:34:23.000Z</time>
      </trkpt>
      <trkpt lat="44.02605" lon="6.01351">
        <ele>651</ele>
        <time>2021-12-21T10:34:24.000Z</time>
      </trkpt>
      <trkpt lat="44.02604" lon="6.01351">
        <ele>651</ele>
        <time>2021-12-21T10:34:25.000Z</time>
      </trkpt>
      <trkpt lat="44.02603" lon="6.01351">
        <ele>651</ele>
        <time>2021-12-21T10:34:26.000Z</time>
      </trkpt>
      <trkpt lat="44.02602" lon="6.01352">
        <ele>651</ele>
        <time>2021-12-21T10:34:27.000Z</time>
      </trkpt>
      <trkpt lat="44.02601" lon="6.01352">
        <ele>651</ele>
        <time>2021-12-21T10:34:28.000Z</time>
      </trkpt>
      <trkpt lat="44.026" lon="6.01352">
        <ele>651</ele>
        <time>2021-12-21T10:34:29.000Z</time>
      </trkpt>
      <trkpt lat="44.026" lon="6.01352">
        <ele>651</ele>
        <time>2021-12-21T10:34:30.000Z</time>
      </trkpt>
      <trkpt lat="44.02599" lon="6.01353">
        <ele>651</ele>
        <time>2021-12-21T10:34:31.000Z</time>
      </trkpt>
      <trkpt lat="44.02598" lon="6.01353">
        <ele>651</ele>
        <time>2021-12-21T10:34:32.000Z</time>
      </trkpt>
      <trkpt lat="44.02597" lon="6.01354">
        <ele>652</ele>
        <time>2021-12-21T10:34:33.000Z</time>
      </trkpt>
      <trkpt lat="44.02596" lon="6.01354">
        <ele>652</ele>
        <time>2021-12-21T10:34:34.000Z</time>
      </trkpt>
      <trkpt lat="44.02595" lon="6.01355">
        <ele>652</ele>
        <time>2021-12-21T10:34:35.000Z</time>
      </trkpt>
      <trkpt lat="44.02594" lon="6.01355">
        <ele>652</ele>
        <time>2021-12-21T10:34:36.000Z</time>
      </trkpt>
      <trkpt lat="44.02593" lon="6.01356">
        <ele>652</ele>
        <time>2021-12-21T10:34:37.000Z</time>
      </trkpt>
      <trkpt lat="44.02592" lon="6.01356">
        <ele>652</ele>
        <time>2021-12-21T10:34:38.000Z</time>
      </trkpt>
      <trkpt lat="44.02591" lon="6.01356">
        <ele>652</ele>
        <time>2021-12-21T10:34:39.000Z</time>
      </trkpt>
      <trkpt lat="44.0259" lon="6.01356">
        <ele>652</ele>
        <time>2021-12-21T10:34:40.000Z</time>
      </trkpt>
      <trkpt lat="44.0259" lon="6.01356">
        <ele>653</ele>
        <time>2021-12-21T10:34:41.000Z</time>
      </trkpt>
      <trkpt lat="44.02589" lon="6.01356">
        <ele>653</ele>
        <time>2021-12-21T10:34:42.000Z</time>
      </trkpt>
      <trkpt lat="44.02588" lon="6.01357">
        <ele>653</ele>
        <time>2021-12-21T10:34:43.000Z</time>
      </trkpt>
      <trkpt lat="44.02587" lon="6.01357">
        <ele>653</ele>
        <time>2021-12-21T10:34:44.000Z</time>
      </trkpt>
      <trkpt lat="44.02585" lon="6.01357">
        <ele>653</ele>
        <time>2021-12-21T10:34:45.000Z</time>
      </trkpt>
      <trkpt lat="44.02584" lon="6.01357">
        <ele>653</ele>
        <time>2021-12-21T10:34:46.000Z</time>
      </trkpt>
      <trkpt lat="44.02583" lon="6.01358">
        <ele>654</ele>
        <time>2021-12-21T10:34:47.000Z</time>
      </trkpt>
      <trkpt lat="44.02582" lon="6.01358">
        <ele>654</ele>
        <time>2021-12-21T10:34:48.000Z</time>
      </trkpt>
      <trkpt lat="44.02581" lon="6.01358">
        <ele>654</ele>
        <time>2021-12-21T10:34:49.000Z</time>
      </trkpt>
      <trkpt lat="44.0258" lon="6.01359">
        <ele>654</ele>
        <time>2021-12-21T10:34:50.000Z</time>
      </trkpt>
      <trkpt lat="44.02578" lon="6.01359">
        <ele>654</ele>
        <time>2021-12-21T10:34:51.000Z</time>
      </trkpt>
      <trkpt lat="44.02577" lon="6.01359">
        <ele>655</ele>
        <time>2021-12-21T10:34:52.000Z</time>
      </trkpt>
      <trkpt lat="44.02577" lon="6.01359">
        <ele>655</ele>
        <time>2021-12-21T10:34:53.000Z</time>
      </trkpt>
      <trkpt lat="44.02576" lon="6.01359">
        <ele>655</ele>
        <time>2021-12-21T10:34:54.000Z</time>
      </trkpt>
      <trkpt lat="44.02576" lon="6.01359">
        <ele>655</ele>
        <time>2021-12-21T10:34:55.000Z</time>
      </trkpt>
      <trkpt lat="44.02576" lon="6.01359">
        <ele>656</ele>
        <time>2021-12-21T10:34:56.000Z</time>
      </trkpt>
      <trkpt lat="44.02576" lon="6.0136">
        <ele>656</ele>
        <time>2021-12-21T10:34:57.000Z</time>
      </trkpt>
      <trkpt lat="44.02575" lon="6.0136">
        <ele>656</ele>
        <time>2021-12-21T10:34:58.000Z</time>
      </trkpt>
      <trkpt lat="44.02575" lon="6.0136">
        <ele>656</ele>
        <time>2021-12-21T10:34:59.000Z</time>
      </trkpt>
      <trkpt lat="44.02575" lon="6.0136">
        <ele>656</ele>
        <time>2021-12-21T10:35:00.000Z</time>
      </trkpt>
      <trkpt lat="44.02575" lon="6.0136">
        <ele>656</ele>
        <time>2021-12-21T10:35:01.000Z</time>
      </trkpt>
      <trkpt lat="44.02575" lon="6.0136">
        <ele>656</ele>
        <time>2021-12-21T10:35:02.000Z</time>
      </trkpt>
      <trkpt lat="44.02575" lon="6.0136">
        <ele>656</ele>
        <time>2021-12-21T10:35:03.000Z</time>
      </trkpt>
      <trkpt lat="44.02575" lon="6.0136">
        <ele>656</ele>
        <time>2021-12-21T10:35:04.000Z</time>
      </trkpt>
      <trkpt lat="44.02575" lon="6.0136">
        <ele>656</ele>
        <time>2021-12-21T10:35:05.000Z</time>
      </trkpt>
      <trkpt lat="44.02575" lon="6.0136">
        <ele>656</ele>
        <time>2021-12-21T10:35:06.000Z</time>
      </trkpt>
      <trkpt lat="44.02575" lon="6.0136">
        <ele>656</ele>
        <time>2021-12-21T10:35:07.000Z</time>
      </trkpt>
      <trkpt lat="44.02575" lon="6.0136">
        <ele>656</ele>
        <time>2021-12-21T10:35:08.000Z</time>
      </trkpt>
      <trkpt lat="44.02575" lon="6.0136">
        <ele>656</ele>
        <time>2021-12-21T10:35:09.000Z</time>
      </trkpt>
      <trkpt lat="44.02574" lon="6.0136">
        <ele>656</ele>
        <time>2021-12-21T10:35:10.000Z</time>
      </trkpt>
      <trkpt lat="44.02573" lon="6.0136">
        <ele>656</ele>
        <time>2021-12-21T10:35:11.000Z</time>
      </trkpt>
      <trkpt lat="44.02572" lon="6.0136">
        <ele>656</ele>
        <time>2021-12-21T10:35:12.000Z</time>
      </trkpt>
      <trkpt lat="44.02572" lon="6.0136">
        <ele>656</ele>
        <time>2021-12-21T10:35:13.000Z</time>
      </trkpt>
      <trkpt lat="44.02571" lon="6.0136">
        <ele>656</ele>
        <time>2021-12-21T10:35:14.000Z</time>
      </trkpt>
      <trkpt lat="44.0257" lon="6.0136">
        <ele>656</ele>
        <time>2021-12-21T10:35:15.000Z</time>
      </trkpt>
      <trkpt lat="44.02569" lon="6.0136">
        <ele>656</ele>
        <time>2021-12-21T10:35:16.000Z</time>
      </trkpt>
      <trkpt lat="44.02568" lon="6.01361">
        <ele>656</ele>
        <time>2021-12-21T10:35:17.000Z</time>
      </trkpt>
      <trkpt lat="44.02567" lon="6.01361">
        <ele>656</ele>
        <time>2021-12-21T10:35:18.000Z</time>
      </trkpt>
      <trkpt lat="44.02567" lon="6.01361">
        <ele>656</ele>
        <time>2021-12-21T10:35:19.000Z</time>
      </trkpt>
      <trkpt lat="44.02566" lon="6.01361">
        <ele>656</ele>
        <time>2021-12-21T10:35:20.000Z</time>
      </trkpt>
      <trkpt lat="44.02565" lon="6.01361">
        <ele>656</ele>
        <time>2021-12-21T10:35:21.000Z</time>
      </trkpt>
      <trkpt lat="44.02564" lon="6.01361">
        <ele>656</ele>
        <time>2021-12-21T10:35:22.000Z</time>
      </trkpt>
      <trkpt lat="44.02563" lon="6.01362">
        <ele>656</ele>
        <time>2021-12-21T10:35:23.000Z</time>
      </trkpt>
      <trkpt lat="44.02562" lon="6.01362">
        <ele>656</ele>
        <time>2021-12-21T10:35:24.000Z</time>
      </trkpt>
      <trkpt lat="44.02562" lon="6.01363">
        <ele>656</ele>
        <time>2021-12-21T10:35:25.000Z</time>
      </trkpt>
      <trkpt lat="44.02561" lon="6.01363">
        <ele>656</ele>
        <time>2021-12-21T10:35:26.000Z</time>
      </trkpt>
      <trkpt lat="44.0256" lon="6.01363">
        <ele>656</ele>
        <time>2021-12-21T10:35:27.000Z</time>
      </trkpt>
      <trkpt lat="44.02559" lon="6.01364">
        <ele>656</ele>
        <time>2021-12-21T10:35:28.000Z</time>
      </trkpt>
      <trkpt lat="44.02559" lon="6.01364">
        <ele>657</ele>
        <time>2021-12-21T10:35:29.000Z</time>
      </trkpt>
      <trkpt lat="44.02558" lon="6.01365">
        <ele>657</ele>
        <time>2021-12-21T10:35:30.000Z</time>
      </trkpt>
      <trkpt lat="44.02558" lon="6.01366">
        <ele>657</ele>
        <time>2021-12-21T10:35:31.000Z</time>
      </trkpt>
      <trkpt lat="44.02557" lon="6.01366">
        <ele>657</ele>
        <time>2021-12-21T10:35:32.000Z</time>
      </trkpt>
      <trkpt lat="44.02556" lon="6.01367">
        <ele>657</ele>
        <time>2021-12-21T10:35:33.000Z</time>
      </trkpt>
      <trkpt lat="44.02556" lon="6.01368">
        <ele>657</ele>
        <time>2021-12-21T10:35:34.000Z</time>
      </trkpt>
      <trkpt lat="44.02555" lon="6.01369">
        <ele>657</ele>
        <time>2021-12-21T10:35:35.000Z</time>
      </trkpt>
      <trkpt lat="44.02555" lon="6.0137">
        <ele>657</ele>
        <time>2021-12-21T10:35:36.000Z</time>
      </trkpt>
      <trkpt lat="44.02554" lon="6.01371">
        <ele>657</ele>
        <time>2021-12-21T10:35:37.000Z</time>
      </trkpt>
      <trkpt lat="44.02553" lon="6.01372">
        <ele>657</ele>
        <time>2021-12-21T10:35:38.000Z</time>
      </trkpt>
      <trkpt lat="44.02553" lon="6.01373">
        <ele>658</ele>
        <time>2021-12-21T10:35:39.000Z</time>
      </trkpt>
      <trkpt lat="44.02552" lon="6.01373">
        <ele>658</ele>
        <time>2021-12-21T10:35:40.000Z</time>
      </trkpt>
      <trkpt lat="44.02552" lon="6.01374">
        <ele>658</ele>
        <time>2021-12-21T10:35:41.000Z</time>
      </trkpt>
      <trkpt lat="44.02551" lon="6.01375">
        <ele>658</ele>
        <time>2021-12-21T10:35:42.000Z</time>
      </trkpt>
      <trkpt lat="44.0255" lon="6.01376">
        <ele>658</ele>
        <time>2021-12-21T10:35:43.000Z</time>
      </trkpt>
      <trkpt lat="44.0255" lon="6.01376">
        <ele>658</ele>
        <time>2021-12-21T10:35:44.000Z</time>
      </trkpt>
      <trkpt lat="44.02549" lon="6.01377">
        <ele>658</ele>
        <time>2021-12-21T10:35:45.000Z</time>
      </trkpt>
      <trkpt lat="44.02549" lon="6.01377">
        <ele>659</ele>
        <time>2021-12-21T10:35:46.000Z</time>
      </trkpt>
      <trkpt lat="44.02548" lon="6.01378">
        <ele>659</ele>
        <time>2021-12-21T10:35:47.000Z</time>
      </trkpt>
      <trkpt lat="44.02547" lon="6.01379">
        <ele>659</ele>
        <time>2021-12-21T10:35:48.000Z</time>
      </trkpt>
      <trkpt lat="44.02547" lon="6.01379">
        <ele>659</ele>
        <time>2021-12-21T10:35:49.000Z</time>
      </trkpt>
      <trkpt lat="44.02546" lon="6.0138">
        <ele>659</ele>
        <time>2021-12-21T10:35:50.000Z</time>
      </trkpt>
      <trkpt lat="44.02545" lon="6.01381">
        <ele>659</ele>
        <time>2021-12-21T10:35:51.000Z</time>
      </trkpt>
      <trkpt lat="44.02544" lon="6.01381">
        <ele>659</ele>
        <time>2021-12-21T10:35:52.000Z</time>
      </trkpt>
      <trkpt lat="44.02544" lon="6.01382">
        <ele>659</ele>
        <time>2021-12-21T10:35:53.000Z</time>
      </trkpt>
      <trkpt lat="44.02543" lon="6.01383">
        <ele>659</ele>
        <time>2021-12-21T10:35:54.000Z</time>
      </trkpt>
      <trkpt lat="44.02542" lon="6.01383">
        <ele>659</ele>
        <time>2021-12-21T10:35:55.000Z</time>
      </trkpt>
      <trkpt lat="44.02541" lon="6.01384">
        <ele>659</ele>
        <time>2021-12-21T10:35:56.000Z</time>
      </trkpt>
      <trkpt lat="44.0254" lon="6.01385">
        <ele>659</ele>
        <time>2021-12-21T10:35:57.000Z</time>
      </trkpt>
      <trkpt lat="44.02539" lon="6.01385">
        <ele>659</ele>
        <time>2021-12-21T10:35:58.000Z</time>
      </trkpt>
      <trkpt lat="44.02539" lon="6.01386">
        <ele>659</ele>
        <time>2021-12-21T10:35:59.000Z</time>
      </trkpt>
      <trkpt lat="44.02538" lon="6.01387">
        <ele>659</ele>
        <time>2021-12-21T10:36:00.000Z</time>
      </trkpt>
      <trkpt lat="44.02537" lon="6.01387">
        <ele>659</ele>
        <time>2021-12-21T10:36:01.000Z</time>
      </trkpt>
      <trkpt lat="44.02536" lon="6.01388">
        <ele>659</ele>
        <time>2021-12-21T10:36:02.000Z</time>
      </trkpt>
      <trkpt lat="44.02535" lon="6.01388">
        <ele>659</ele>
        <time>2021-12-21T10:36:03.000Z</time>
      </trkpt>
      <trkpt lat="44.02535" lon="6.01388">
        <ele>659</ele>
        <time>2021-12-21T10:36:04.000Z</time>
      </trkpt>
      <trkpt lat="44.02534" lon="6.01389">
        <ele>659</ele>
        <time>2021-12-21T10:36:05.000Z</time>
      </trkpt>
      <trkpt lat="44.02533" lon="6.0139">
        <ele>659</ele>
        <time>2021-12-21T10:36:06.000Z</time>
      </trkpt>
      <trkpt lat="44.02533" lon="6.0139">
        <ele>659</ele>
        <time>2021-12-21T10:36:07.000Z</time>
      </trkpt>
      <trkpt lat="44.02532" lon="6.01391">
        <ele>659</ele>
        <time>2021-12-21T10:36:08.000Z</time>
      </trkpt>
      <trkpt lat="44.02531" lon="6.01392">
        <ele>659</ele>
        <time>2021-12-21T10:36:09.000Z</time>
      </trkpt>
      <trkpt lat="44.0253" lon="6.01392">
        <ele>659</ele>
        <time>2021-12-21T10:36:10.000Z</time>
      </trkpt>
      <trkpt lat="44.0253" lon="6.01393">
        <ele>659</ele>
        <time>2021-12-21T10:36:11.000Z</time>
      </trkpt>
      <trkpt lat="44.02529" lon="6.01393">
        <ele>659</ele>
        <time>2021-12-21T10:36:12.000Z</time>
      </trkpt>
      <trkpt lat="44.02528" lon="6.01394">
        <ele>659</ele>
        <time>2021-12-21T10:36:13.000Z</time>
      </trkpt>
      <trkpt lat="44.02527" lon="6.01394">
        <ele>659</ele>
        <time>2021-12-21T10:36:14.000Z</time>
      </trkpt>
      <trkpt lat="44.02527" lon="6.01395">
        <ele>659</ele>
        <time>2021-12-21T10:36:15.000Z</time>
      </trkpt>
      <trkpt lat="44.02526" lon="6.01396">
        <ele>659</ele>
        <time>2021-12-21T10:36:16.000Z</time>
      </trkpt>
      <trkpt lat="44.02525" lon="6.01396">
        <ele>659</ele>
        <time>2021-12-21T10:36:17.000Z</time>
      </trkpt>
      <trkpt lat="44.02524" lon="6.01397">
        <ele>659</ele>
        <time>2021-12-21T10:36:18.000Z</time>
      </trkpt>
      <trkpt lat="44.02524" lon="6.01398">
        <ele>659</ele>
        <time>2021-12-21T10:36:19.000Z</time>
      </trkpt>
      <trkpt lat="44.02523" lon="6.01398">
        <ele>659</ele>
        <time>2021-12-21T10:36:20.000Z</time>
      </trkpt>
      <trkpt lat="44.02522" lon="6.01399">
        <ele>659</ele>
        <time>2021-12-21T10:36:21.000Z</time>
      </trkpt>
      <trkpt lat="44.02522" lon="6.01399">
        <ele>659</ele>
        <time>2021-12-21T10:36:22.000Z</time>
      </trkpt>
      <trkpt lat="44.02521" lon="6.014">
        <ele>659</ele>
        <time>2021-12-21T10:36:23.000Z</time>
      </trkpt>
      <trkpt lat="44.0252" lon="6.01401">
        <ele>659</ele>
        <time>2021-12-21T10:36:24.000Z</time>
      </trkpt>
      <trkpt lat="44.0252" lon="6.01401">
        <ele>659</ele>
        <time>2021-12-21T10:36:25.000Z</time>
      </trkpt>
      <trkpt lat="44.02519" lon="6.01402">
        <ele>659</ele>
        <time>2021-12-21T10:36:26.000Z</time>
      </trkpt>
      <trkpt lat="44.02518" lon="6.01403">
        <ele>659</ele>
        <time>2021-12-21T10:36:27.000Z</time>
      </trkpt>
      <trkpt lat="44.02518" lon="6.01403">
        <ele>659</ele>
        <time>2021-12-21T10:36:28.000Z</time>
      </trkpt>
      <trkpt lat="44.02517" lon="6.01404">
        <ele>659</ele>
        <time>2021-12-21T10:36:29.000Z</time>
      </trkpt>
      <trkpt lat="44.02516" lon="6.01405">
        <ele>659</ele>
        <time>2021-12-21T10:36:30.000Z</time>
      </trkpt>
      <trkpt lat="44.02516" lon="6.01406">
        <ele>659</ele>
        <time>2021-12-21T10:36:31.000Z</time>
      </trkpt>
      <trkpt lat="44.02515" lon="6.01406">
        <ele>659</ele>
        <time>2021-12-21T10:36:32.000Z</time>
      </trkpt>
      <trkpt lat="44.02514" lon="6.01407">
        <ele>659</ele>
        <time>2021-12-21T10:36:33.000Z</time>
      </trkpt>
      <trkpt lat="44.02514" lon="6.01408">
        <ele>660</ele>
        <time>2021-12-21T10:36:34.000Z</time>
      </trkpt>
      <trkpt lat="44.02513" lon="6.01409">
        <ele>660</ele>
        <time>2021-12-21T10:36:35.000Z</time>
      </trkpt>
      <trkpt lat="44.02512" lon="6.01409">
        <ele>660</ele>
        <time>2021-12-21T10:36:36.000Z</time>
      </trkpt>
      <trkpt lat="44.02512" lon="6.0141">
        <ele>660</ele>
        <time>2021-12-21T10:36:37.000Z</time>
      </trkpt>
      <trkpt lat="44.02511" lon="6.0141">
        <ele>660</ele>
        <time>2021-12-21T10:36:38.000Z</time>
      </trkpt>
      <trkpt lat="44.0251" lon="6.01411">
        <ele>660</ele>
        <time>2021-12-21T10:36:39.000Z</time>
      </trkpt>
      <trkpt lat="44.0251" lon="6.01412">
        <ele>660</ele>
        <time>2021-12-21T10:36:40.000Z</time>
      </trkpt>
      <trkpt lat="44.02509" lon="6.01413">
        <ele>661</ele>
        <time>2021-12-21T10:36:41.000Z</time>
      </trkpt>
      <trkpt lat="44.02508" lon="6.01414">
        <ele>661</ele>
        <time>2021-12-21T10:36:42.000Z</time>
      </trkpt>
      <trkpt lat="44.02508" lon="6.01414">
        <ele>661</ele>
        <time>2021-12-21T10:36:43.000Z</time>
      </trkpt>
      <trkpt lat="44.02507" lon="6.01415">
        <ele>661</ele>
        <time>2021-12-21T10:36:44.000Z</time>
      </trkpt>
      <trkpt lat="44.02506" lon="6.01416">
        <ele>661</ele>
        <time>2021-12-21T10:36:45.000Z</time>
      </trkpt>
      <trkpt lat="44.02505" lon="6.01417">
        <ele>661</ele>
        <time>2021-12-21T10:36:46.000Z</time>
      </trkpt>
      <trkpt lat="44.02505" lon="6.01417">
        <ele>661</ele>
        <time>2021-12-21T10:36:47.000Z</time>
      </trkpt>
      <trkpt lat="44.02504" lon="6.01418">
        <ele>662</ele>
        <time>2021-12-21T10:36:48.000Z</time>
      </trkpt>
      <trkpt lat="44.02504" lon="6.01419">
        <ele>662</ele>
        <time>2021-12-21T10:36:49.000Z</time>
      </trkpt>
      <trkpt lat="44.02503" lon="6.0142">
        <ele>662</ele>
        <time>2021-12-21T10:36:50.000Z</time>
      </trkpt>
      <trkpt lat="44.02503" lon="6.0142">
        <ele>662</ele>
        <time>2021-12-21T10:36:51.000Z</time>
      </trkpt>
      <trkpt lat="44.02503" lon="6.0142">
        <ele>662</ele>
        <time>2021-12-21T10:36:52.000Z</time>
      </trkpt>
      <trkpt lat="44.02503" lon="6.0142">
        <ele>662</ele>
        <time>2021-12-21T10:36:53.000Z</time>
      </trkpt>
      <trkpt lat="44.02502" lon="6.0142">
        <ele>662</ele>
        <time>2021-12-21T10:36:54.000Z</time>
      </trkpt>
      <trkpt lat="44.02502" lon="6.0142">
        <ele>662</ele>
        <time>2021-12-21T10:36:55.000Z</time>
      </trkpt>
      <trkpt lat="44.02502" lon="6.0142">
        <ele>662</ele>
        <time>2021-12-21T10:36:56.000Z</time>
      </trkpt>
      <trkpt lat="44.02502" lon="6.0142">
        <ele>662</ele>
        <time>2021-12-21T10:36:57.000Z</time>
      </trkpt>
      <trkpt lat="44.02502" lon="6.0142">
        <ele>662</ele>
        <time>2021-12-21T10:36:58.000Z</time>
      </trkpt>
      <trkpt lat="44.02502" lon="6.0142">
        <ele>662</ele>
        <time>2021-12-21T10:36:59.000Z</time>
      </trkpt>
      <trkpt lat="44.02502" lon="6.0142">
        <ele>662</ele>
        <time>2021-12-21T10:37:00.000Z</time>
      </trkpt>
      <trkpt lat="44.02502" lon="6.0142">
        <ele>662</ele>
        <time>2021-12-21T10:37:01.000Z</time>
      </trkpt>
      <trkpt lat="44.02502" lon="6.0142">
        <ele>662</ele>
        <time>2021-12-21T10:37:02.000Z</time>
      </trkpt>
      <trkpt lat="44.02502" lon="6.0142">
        <ele>663</ele>
        <time>2021-12-21T10:37:03.000Z</time>
      </trkpt>
      <trkpt lat="44.02502" lon="6.0142">
        <ele>663</ele>
        <time>2021-12-21T10:37:04.000Z</time>
      </trkpt>
      <trkpt lat="44.02502" lon="6.0142">
        <ele>663</ele>
        <time>2021-12-21T10:37:05.000Z</time>
      </trkpt>
      <trkpt lat="44.02502" lon="6.0142">
        <ele>663</ele>
        <time>2021-12-21T10:37:06.000Z</time>
      </trkpt>
      <trkpt lat="44.02502" lon="6.0142">
        <ele>663</ele>
        <time>2021-12-21T10:37:07.000Z</time>
      </trkpt>
      <trkpt lat="44.02502" lon="6.0142">
        <ele>663</ele>
        <time>2021-12-21T10:37:08.000Z</time>
      </trkpt>
      <trkpt lat="44.02502" lon="6.0142">
        <ele>663</ele>
        <time>2021-12-21T10:37:09.000Z</time>
      </trkpt>
      <trkpt lat="44.02502" lon="6.0142">
        <ele>663</ele>
        <time>2021-12-21T10:37:10.000Z</time>
      </trkpt>
      <trkpt lat="44.02502" lon="6.01421">
        <ele>663</ele>
        <time>2021-12-21T10:37:11.000Z</time>
      </trkpt>
      <trkpt lat="44.02502" lon="6.01421">
        <ele>663</ele>
        <time>2021-12-21T10:37:12.000Z</time>
      </trkpt>
      <trkpt lat="44.02501" lon="6.01422">
        <ele>664</ele>
        <time>2021-12-21T10:37:13.000Z</time>
      </trkpt>
      <trkpt lat="44.02501" lon="6.01422">
        <ele>664</ele>
        <time>2021-12-21T10:37:14.000Z</time>
      </trkpt>
      <trkpt lat="44.025" lon="6.01423">
        <ele>664</ele>
        <time>2021-12-21T10:37:15.000Z</time>
      </trkpt>
      <trkpt lat="44.02499" lon="6.01423">
        <ele>664</ele>
        <time>2021-12-21T10:37:16.000Z</time>
      </trkpt>
      <trkpt lat="44.02499" lon="6.01424">
        <ele>664</ele>
        <time>2021-12-21T10:37:17.000Z</time>
      </trkpt>
      <trkpt lat="44.02498" lon="6.01425">
        <ele>664</ele>
        <time>2021-12-21T10:37:18.000Z</time>
      </trkpt>
      <trkpt lat="44.02498" lon="6.01426">
        <ele>664</ele>
        <time>2021-12-21T10:37:19.000Z</time>
      </trkpt>
      <trkpt lat="44.02497" lon="6.01426">
        <ele>664</ele>
        <time>2021-12-21T10:37:20.000Z</time>
      </trkpt>
      <trkpt lat="44.02496" lon="6.01427">
        <ele>664</ele>
        <time>2021-12-21T10:37:21.000Z</time>
      </trkpt>
      <trkpt lat="44.02495" lon="6.01428">
        <ele>664</ele>
        <time>2021-12-21T10:37:22.000Z</time>
      </trkpt>
      <trkpt lat="44.02495" lon="6.01429">
        <ele>664</ele>
        <time>2021-12-21T10:37:23.000Z</time>
      </trkpt>
      <trkpt lat="44.02495" lon="6.01429">
        <ele>664</ele>
        <time>2021-12-21T10:37:24.000Z</time>
      </trkpt>
      <trkpt lat="44.02495" lon="6.01429">
        <ele>664</ele>
        <time>2021-12-21T10:37:25.000Z</time>
      </trkpt>
      <trkpt lat="44.02494" lon="6.0143">
        <ele>664</ele>
        <time>2021-12-21T10:37:26.000Z</time>
      </trkpt>
      <trkpt lat="44.02494" lon="6.01431">
        <ele>664</ele>
        <time>2021-12-21T10:37:27.000Z</time>
      </trkpt>
      <trkpt lat="44.02493" lon="6.01431">
        <ele>664</ele>
        <time>2021-12-21T10:37:28.000Z</time>
      </trkpt>
      <trkpt lat="44.02492" lon="6.01432">
        <ele>664</ele>
        <time>2021-12-21T10:37:29.000Z</time>
      </trkpt>
      <trkpt lat="44.02492" lon="6.01433">
        <ele>664</ele>
        <time>2021-12-21T10:37:30.000Z</time>
      </trkpt>
      <trkpt lat="44.02491" lon="6.01434">
        <ele>664</ele>
        <time>2021-12-21T10:37:31.000Z</time>
      </trkpt>
      <trkpt lat="44.02491" lon="6.01434">
        <ele>664</ele>
        <time>2021-12-21T10:37:32.000Z</time>
      </trkpt>
      <trkpt lat="44.0249" lon="6.01435">
        <ele>664</ele>
        <time>2021-12-21T10:37:33.000Z</time>
      </trkpt>
      <trkpt lat="44.0249" lon="6.01436">
        <ele>664</ele>
        <time>2021-12-21T10:37:34.000Z</time>
      </trkpt>
      <trkpt lat="44.02489" lon="6.01437">
        <ele>665</ele>
        <time>2021-12-21T10:37:35.000Z</time>
      </trkpt>
      <trkpt lat="44.02489" lon="6.01437">
        <ele>665</ele>
        <time>2021-12-21T10:37:36.000Z</time>
      </trkpt>
      <trkpt lat="44.02488" lon="6.01438">
        <ele>665</ele>
        <time>2021-12-21T10:37:37.000Z</time>
      </trkpt>
      <trkpt lat="44.02487" lon="6.01439">
        <ele>665</ele>
        <time>2021-12-21T10:37:38.000Z</time>
      </trkpt>
      <trkpt lat="44.02486" lon="6.0144">
        <ele>665</ele>
        <time>2021-12-21T10:37:39.000Z</time>
      </trkpt>
      <trkpt lat="44.02486" lon="6.01441">
        <ele>665</ele>
        <time>2021-12-21T10:37:40.000Z</time>
      </trkpt>
      <trkpt lat="44.02485" lon="6.01442">
        <ele>665</ele>
        <time>2021-12-21T10:37:41.000Z</time>
      </trkpt>
      <trkpt lat="44.02484" lon="6.01443">
        <ele>665</ele>
        <time>2021-12-21T10:37:42.000Z</time>
      </trkpt>
      <trkpt lat="44.02484" lon="6.01444">
        <ele>666</ele>
        <time>2021-12-21T10:37:43.000Z</time>
      </trkpt>
      <trkpt lat="44.02483" lon="6.01445">
        <ele>666</ele>
        <time>2021-12-21T10:37:44.000Z</time>
      </trkpt>
      <trkpt lat="44.02483" lon="6.01446">
        <ele>666</ele>
        <time>2021-12-21T10:37:45.000Z</time>
      </trkpt>
      <trkpt lat="44.02482" lon="6.01448">
        <ele>666</ele>
        <time>2021-12-21T10:37:46.000Z</time>
      </trkpt>
      <trkpt lat="44.02482" lon="6.01448">
        <ele>666</ele>
        <time>2021-12-21T10:37:47.000Z</time>
      </trkpt>
      <trkpt lat="44.02481" lon="6.0145">
        <ele>667</ele>
        <time>2021-12-21T10:37:48.000Z</time>
      </trkpt>
      <trkpt lat="44.02481" lon="6.01451">
        <ele>667</ele>
        <time>2021-12-21T10:37:49.000Z</time>
      </trkpt>
      <trkpt lat="44.0248" lon="6.01452">
        <ele>667</ele>
        <time>2021-12-21T10:37:50.000Z</time>
      </trkpt>
      <trkpt lat="44.02479" lon="6.01453">
        <ele>667</ele>
        <time>2021-12-21T10:37:51.000Z</time>
      </trkpt>
      <trkpt lat="44.02479" lon="6.01454">
        <ele>667</ele>
        <time>2021-12-21T10:37:52.000Z</time>
      </trkpt>
      <trkpt lat="44.02478" lon="6.01455">
        <ele>667</ele>
        <time>2021-12-21T10:37:53.000Z</time>
      </trkpt>
      <trkpt lat="44.02478" lon="6.01456">
        <ele>667</ele>
        <time>2021-12-21T10:37:54.000Z</time>
      </trkpt>
      <trkpt lat="44.02477" lon="6.01457">
        <ele>667</ele>
        <time>2021-12-21T10:37:55.000Z</time>
      </trkpt>
      <trkpt lat="44.02477" lon="6.01458">
        <ele>667</ele>
        <time>2021-12-21T10:37:56.000Z</time>
      </trkpt>
      <trkpt lat="44.02477" lon="6.0146">
        <ele>668</ele>
        <time>2021-12-21T10:37:57.000Z</time>
      </trkpt>
      <trkpt lat="44.02476" lon="6.01461">
        <ele>668</ele>
        <time>2021-12-21T10:37:58.000Z</time>
      </trkpt>
      <trkpt lat="44.02476" lon="6.01462">
        <ele>668</ele>
        <time>2021-12-21T10:37:59.000Z</time>
      </trkpt>
      <trkpt lat="44.02475" lon="6.01463">
        <ele>668</ele>
        <time>2021-12-21T10:38:00.000Z</time>
      </trkpt>
      <trkpt lat="44.02474" lon="6.01464">
        <ele>668</ele>
        <time>2021-12-21T10:38:01.000Z</time>
      </trkpt>
      <trkpt lat="44.02474" lon="6.01464">
        <ele>668</ele>
        <time>2021-12-21T10:38:02.000Z</time>
      </trkpt>
      <trkpt lat="44.02473" lon="6.01465">
        <ele>668</ele>
        <time>2021-12-21T10:38:03.000Z</time>
      </trkpt>
      <trkpt lat="44.02472" lon="6.01466">
        <ele>668</ele>
        <time>2021-12-21T10:38:04.000Z</time>
      </trkpt>
      <trkpt lat="44.02471" lon="6.01467">
        <ele>669</ele>
        <time>2021-12-21T10:38:05.000Z</time>
      </trkpt>
      <trkpt lat="44.02471" lon="6.01467">
        <ele>669</ele>
        <time>2021-12-21T10:38:06.000Z</time>
      </trkpt>
      <trkpt lat="44.02471" lon="6.01467">
        <ele>669</ele>
        <time>2021-12-21T10:38:07.000Z</time>
      </trkpt>
      <trkpt lat="44.02471" lon="6.01467">
        <ele>669</ele>
        <time>2021-12-21T10:38:08.000Z</time>
      </trkpt>
      <trkpt lat="44.0247" lon="6.01467">
        <ele>669</ele>
        <time>2021-12-21T10:38:09.000Z</time>
      </trkpt>
      <trkpt lat="44.0247" lon="6.01467">
        <ele>669</ele>
        <time>2021-12-21T10:38:10.000Z</time>
      </trkpt>
      <trkpt lat="44.0247" lon="6.01467">
        <ele>669</ele>
        <time>2021-12-21T10:38:11.000Z</time>
      </trkpt>
      <trkpt lat="44.0247" lon="6.01468">
        <ele>669</ele>
        <time>2021-12-21T10:38:12.000Z</time>
      </trkpt>
      <trkpt lat="44.0247" lon="6.01468">
        <ele>669</ele>
        <time>2021-12-21T10:38:13.000Z</time>
      </trkpt>
      <trkpt lat="44.0247" lon="6.01468">
        <ele>669</ele>
        <time>2021-12-21T10:38:14.000Z</time>
      </trkpt>
      <trkpt lat="44.0247" lon="6.01468">
        <ele>669</ele>
        <time>2021-12-21T10:38:15.000Z</time>
      </trkpt>
      <trkpt lat="44.0247" lon="6.01468">
        <ele>669</ele>
        <time>2021-12-21T10:38:16.000Z</time>
      </trkpt>
      <trkpt lat="44.0247" lon="6.01468">
        <ele>670</ele>
        <time>2021-12-21T10:38:17.000Z</time>
      </trkpt>
      <trkpt lat="44.02469" lon="6.01468">
        <ele>670</ele>
        <time>2021-12-21T10:38:18.000Z</time>
      </trkpt>
      <trkpt lat="44.02469" lon="6.01468">
        <ele>670</ele>
        <time>2021-12-21T10:38:19.000Z</time>
      </trkpt>
      <trkpt lat="44.02469" lon="6.01468">
        <ele>670</ele>
        <time>2021-12-21T10:38:20.000Z</time>
      </trkpt>
      <trkpt lat="44.02469" lon="6.01468">
        <ele>670</ele>
        <time>2021-12-21T10:38:21.000Z</time>
      </trkpt>
      <trkpt lat="44.02469" lon="6.01468">
        <ele>670</ele>
        <time>2021-12-21T10:38:22.000Z</time>
      </trkpt>
      <trkpt lat="44.02469" lon="6.01468">
        <ele>670</ele>
        <time>2021-12-21T10:38:23.000Z</time>
      </trkpt>
      <trkpt lat="44.02469" lon="6.01468">
        <ele>670</ele>
        <time>2021-12-21T10:38:24.000Z</time>
      </trkpt>
      <trkpt lat="44.02469" lon="6.01468">
        <ele>670</ele>
        <time>2021-12-21T10:38:25.000Z</time>
      </trkpt>
      <trkpt lat="44.02469" lon="6.01468">
        <ele>670</ele>
        <time>2021-12-21T10:38:26.000Z</time>
      </trkpt>
      <trkpt lat="44.02469" lon="6.01468">
        <ele>670</ele>
        <time>2021-12-21T10:38:27.000Z</time>
      </trkpt>
      <trkpt lat="44.02469" lon="6.01468">
        <ele>670</ele>
        <time>2021-12-21T10:38:28.000Z</time>
      </trkpt>
      <trkpt lat="44.02468" lon="6.01468">
        <ele>670</ele>
        <time>2021-12-21T10:38:29.000Z</time>
      </trkpt>
      <trkpt lat="44.02468" lon="6.01468">
        <ele>670</ele>
        <time>2021-12-21T10:38:30.000Z</time>
      </trkpt>
      <trkpt lat="44.02468" lon="6.01468">
        <ele>670</ele>
        <time>2021-12-21T10:38:31.000Z</time>
      </trkpt>
      <trkpt lat="44.02468" lon="6.01468">
        <ele>670</ele>
        <time>2021-12-21T10:38:32.000Z</time>
      </trkpt>
      <trkpt lat="44.02467" lon="6.01468">
        <ele>670</ele>
        <time>2021-12-21T10:38:33.000Z</time>
      </trkpt>
      <trkpt lat="44.02467" lon="6.01468">
        <ele>670</ele>
        <time>2021-12-21T10:38:34.000Z</time>
      </trkpt>
      <trkpt lat="44.02467" lon="6.01468">
        <ele>670</ele>
        <time>2021-12-21T10:38:35.000Z</time>
      </trkpt>
      <trkpt lat="44.02467" lon="6.01468">
        <ele>670</ele>
        <time>2021-12-21T10:38:36.000Z</time>
      </trkpt>
      <trkpt lat="44.02467" lon="6.01467">
        <ele>670</ele>
        <time>2021-12-21T10:38:37.000Z</time>
      </trkpt>
      <trkpt lat="44.02467" lon="6.01467">
        <ele>670</ele>
        <time>2021-12-21T10:38:38.000Z</time>
      </trkpt>
      <trkpt lat="44.02467" lon="6.01467">
        <ele>670</ele>
        <time>2021-12-21T10:38:39.000Z</time>
      </trkpt>
      <trkpt lat="44.02467" lon="6.01467">
        <ele>670</ele>
        <time>2021-12-21T10:38:40.000Z</time>
      </trkpt>
      <trkpt lat="44.02467" lon="6.01467">
        <ele>670</ele>
        <time>2021-12-21T10:38:41.000Z</time>
      </trkpt>
      <trkpt lat="44.02467" lon="6.01467">
        <ele>670</ele>
        <time>2021-12-21T10:38:42.000Z</time>
      </trkpt>
      <trkpt lat="44.02467" lon="6.01467">
        <ele>670</ele>
        <time>2021-12-21T10:38:43.000Z</time>
      </trkpt>
      <trkpt lat="44.02467" lon="6.01467">
        <ele>670</ele>
        <time>2021-12-21T10:38:44.000Z</time>
      </trkpt>
      <trkpt lat="44.02467" lon="6.01467">
        <ele>670</ele>
        <time>2021-12-21T10:38:45.000Z</time>
      </trkpt>
      <trkpt lat="44.02467" lon="6.01467">
        <ele>670</ele>
        <time>2021-12-21T10:38:46.000Z</time>
      </trkpt>
      <trkpt lat="44.02467" lon="6.01467">
        <ele>670</ele>
        <time>2021-12-21T10:38:47.000Z</time>
      </trkpt>
      <trkpt lat="44.02467" lon="6.01467">
        <ele>670</ele>
        <time>2021-12-21T10:38:48.000Z</time>
      </trkpt>
      <trkpt lat="44.02467" lon="6.01467">
        <ele>670</ele>
        <time>2021-12-21T10:38:49.000Z</time>
      </trkpt>
      <trkpt lat="44.02466" lon="6.01467">
        <ele>670</ele>
        <time>2021-12-21T10:38:50.000Z</time>
      </trkpt>
      <trkpt lat="44.02466" lon="6.01467">
        <ele>670</ele>
        <time>2021-12-21T10:38:51.000Z</time>
      </trkpt>
      <trkpt lat="44.02466" lon="6.01467">
        <ele>670</ele>
        <time>2021-12-21T10:38:52.000Z</time>
      </trkpt>
      <trkpt lat="44.02466" lon="6.01467">
        <ele>670</ele>
        <time>2021-12-21T10:38:53.000Z</time>
      </trkpt>
      <trkpt lat="44.02466" lon="6.01467">
        <ele>670</ele>
        <time>2021-12-21T10:38:54.000Z</time>
      </trkpt>
      <trkpt lat="44.02466" lon="6.01467">
        <ele>670</ele>
        <time>2021-12-21T10:38:55.000Z</time>
      </trkpt>
      <trkpt lat="44.02466" lon="6.01467">
        <ele>670</ele>
        <time>2021-12-21T10:38:56.000Z</time>
      </trkpt>
      <trkpt lat="44.02466" lon="6.01467">
        <ele>670</ele>
        <time>2021-12-21T10:38:57.000Z</time>
      </trkpt>
      <trkpt lat="44.02466" lon="6.01467">
        <ele>670</ele>
        <time>2021-12-21T10:38:58.000Z</time>
      </trkpt>
      <trkpt lat="44.02466" lon="6.01466">
        <ele>670</ele>
        <time>2021-12-21T10:38:59.000Z</time>
      </trkpt>
      <trkpt lat="44.02466" lon="6.01466">
        <ele>670</ele>
        <time>2021-12-21T10:39:00.000Z</time>
      </trkpt>
      <trkpt lat="44.02466" lon="6.01466">
        <ele>670</ele>
        <time>2021-12-21T10:39:01.000Z</time>
      </trkpt>
      <trkpt lat="44.02466" lon="6.01466">
        <ele>670</ele>
        <time>2021-12-21T10:39:02.000Z</time>
      </trkpt>
      <trkpt lat="44.02466" lon="6.01466">
        <ele>670</ele>
        <time>2021-12-21T10:39:03.000Z</time>
      </trkpt>
      <trkpt lat="44.02466" lon="6.01466">
        <ele>670</ele>
        <time>2021-12-21T10:39:04.000Z</time>
      </trkpt>
      <trkpt lat="44.02466" lon="6.01466">
        <ele>670</ele>
        <time>2021-12-21T10:39:05.000Z</time>
      </trkpt>
      <trkpt lat="44.02466" lon="6.01466">
        <ele>670</ele>
        <time>2021-12-21T10:39:06.000Z</time>
      </trkpt>
      <trkpt lat="44.02466" lon="6.01466">
        <ele>670</ele>
        <time>2021-12-21T10:39:07.000Z</time>
      </trkpt>
      <trkpt lat="44.02466" lon="6.01466">
        <ele>670</ele>
        <time>2021-12-21T10:39:08.000Z</time>
      </trkpt>
      <trkpt lat="44.02466" lon="6.01466">
        <ele>670</ele>
        <time>2021-12-21T10:39:09.000Z</time>
      </trkpt>
      <trkpt lat="44.02466" lon="6.01466">
        <ele>670</ele>
        <time>2021-12-21T10:39:10.000Z</time>
      </trkpt>
      <trkpt lat="44.02466" lon="6.01466">
        <ele>670</ele>
        <time>2021-12-21T10:39:11.000Z</time>
      </trkpt>
      <trkpt lat="44.02466" lon="6.01466">
        <ele>670</ele>
        <time>2021-12-21T10:39:12.000Z</time>
      </trkpt>
      <trkpt lat="44.02466" lon="6.01466">
        <ele>670</ele>
        <time>2021-12-21T10:39:13.000Z</time>
      </trkpt>
      <trkpt lat="44.02466" lon="6.01466">
        <ele>670</ele>
        <time>2021-12-21T10:39:14.000Z</time>
      </trkpt>
      <trkpt lat="44.02466" lon="6.01466">
        <ele>670</ele>
        <time>2021-12-21T10:39:15.000Z</time>
      </trkpt>
      <trkpt lat="44.02466" lon="6.01466">
        <ele>670</ele>
        <time>2021-12-21T10:39:16.000Z</time>
      </trkpt>
      <trkpt lat="44.02466" lon="6.01466">
        <ele>670</ele>
        <time>2021-12-21T10:39:17.000Z</time>
      </trkpt>
      <trkpt lat="44.02466" lon="6.01466">
        <ele>670</ele>
        <time>2021-12-21T10:39:18.000Z</time>
      </trkpt>
      <trkpt lat="44.02466" lon="6.01466">
        <ele>670</ele>
        <time>2021-12-21T10:39:19.000Z</time>
      </trkpt>
      <trkpt lat="44.02466" lon="6.01466">
        <ele>670</ele>
        <time>2021-12-21T10:39:20.000Z</time>
      </trkpt>
      <trkpt lat="44.02466" lon="6.01466">
        <ele>670</ele>
        <time>2021-12-21T10:39:21.000Z</time>
      </trkpt>
      <trkpt lat="44.02466" lon="6.01466">
        <ele>670</ele>
        <time>2021-12-21T10:39:22.000Z</time>
      </trkpt>
      <trkpt lat="44.02466" lon="6.01466">
        <ele>670</ele>
        <time>2021-12-21T10:39:23.000Z</time>
      </trkpt>
      <trkpt lat="44.02466" lon="6.01466">
        <ele>670</ele>
        <time>2021-12-21T10:39:24.000Z</time>
      </trkpt>
      <trkpt lat="44.02466" lon="6.01467">
        <ele>670</ele>
        <time>2021-12-21T10:39:25.000Z</time>
      </trkpt>
      <trkpt lat="44.02466" lon="6.01467">
        <ele>670</ele>
        <time>2021-12-21T10:39:26.000Z</time>
      </trkpt>
      <trkpt lat="44.02466" lon="6.01467">
        <ele>670</ele>
        <time>2021-12-21T10:39:27.000Z</time>
      </trkpt>
      <trkpt lat="44.02466" lon="6.01466">
        <ele>670</ele>
        <time>2021-12-21T10:39:28.000Z</time>
      </trkpt>
      <trkpt lat="44.02466" lon="6.01466">
        <ele>670</ele>
        <time>2021-12-21T10:39:29.000Z</time>
      </trkpt>
      <trkpt lat="44.02466" lon="6.01466">
        <ele>670</ele>
        <time>2021-12-21T10:39:30.000Z</time>
      </trkpt>
      <trkpt lat="44.02466" lon="6.01467">
        <ele>670</ele>
        <time>2021-12-21T10:39:31.000Z</time>
      </trkpt>
      <trkpt lat="44.02466" lon="6.01467">
        <ele>670</ele>
        <time>2021-12-21T10:39:32.000Z</time>
      </trkpt>
      <trkpt lat="44.02466" lon="6.01467">
        <ele>670</ele>
        <time>2021-12-21T10:39:33.000Z</time>
      </trkpt>
      <trkpt lat="44.02466" lon="6.01467">
        <ele>670</ele>
        <time>2021-12-21T10:39:34.000Z</time>
      </trkpt>
      <trkpt lat="44.02466" lon="6.01467">
        <ele>670</ele>
        <time>2021-12-21T10:39:35.000Z</time>
      </trkpt>
      <trkpt lat="44.02466" lon="6.01467">
        <ele>670</ele>
        <time>2021-12-21T10:39:36.000Z</time>
      </trkpt>
      <trkpt lat="44.02466" lon="6.01467">
        <ele>670</ele>
        <time>2021-12-21T10:39:37.000Z</time>
      </trkpt>
      <trkpt lat="44.02466" lon="6.01467">
        <ele>670</ele>
        <time>2021-12-21T10:39:38.000Z</time>
      </trkpt>
      <trkpt lat="44.02466" lon="6.01467">
        <ele>670</ele>
        <time>2021-12-21T10:39:39.000Z</time>
      </trkpt>
      <trkpt lat="44.02466" lon="6.01467">
        <ele>670</ele>
        <time>2021-12-21T10:39:40.000Z</time>
      </trkpt>
      <trkpt lat="44.02466" lon="6.01467">
        <ele>670</ele>
        <time>2021-12-21T10:39:41.000Z</time>
      </trkpt>
      <trkpt lat="44.02466" lon="6.01467">
        <ele>670</ele>
        <time>2021-12-21T10:39:42.000Z</time>
      </trkpt>
      <trkpt lat="44.02466" lon="6.01467">
        <ele>670</ele>
        <time>2021-12-21T10:39:43.000Z</time>
      </trkpt>
      <trkpt lat="44.02466" lon="6.01467">
        <ele>670</ele>
        <time>2021-12-21T10:39:44.000Z</time>
      </trkpt>
      <trkpt lat="44.02466" lon="6.01467">
        <ele>670</ele>
        <time>2021-12-21T10:39:45.000Z</time>
      </trkpt>
      <trkpt lat="44.02466" lon="6.01467">
        <ele>670</ele>
        <time>2021-12-21T10:39:46.000Z</time>
      </trkpt>
      <trkpt lat="44.02466" lon="6.01466">
        <ele>670</ele>
        <time>2021-12-21T10:39:47.000Z</time>
      </trkpt>
      <trkpt lat="44.02466" lon="6.01466">
        <ele>670</ele>
        <time>2021-12-21T10:39:48.000Z</time>
      </trkpt>
      <trkpt lat="44.02466" lon="6.01466">
        <ele>670</ele>
        <time>2021-12-21T10:39:49.000Z</time>
      </trkpt>
      <trkpt lat="44.02466" lon="6.01466">
        <ele>670</ele>
        <time>2021-12-21T10:39:50.000Z</time>
      </trkpt>
      <trkpt lat="44.02466" lon="6.01466">
        <ele>670</ele>
        <time>2021-12-21T10:39:51.000Z</time>
      </trkpt>
      <trkpt lat="44.02466" lon="6.01466">
        <ele>670</ele>
        <time>2021-12-21T10:39:52.000Z</time>
      </trkpt>
      <trkpt lat="44.02465" lon="6.01467">
        <ele>670</ele>
        <time>2021-12-21T10:39:53.000Z</time>
      </trkpt>
      <trkpt lat="44.02465" lon="6.01467">
        <ele>670</ele>
        <time>2021-12-21T10:39:54.000Z</time>
      </trkpt>
      <trkpt lat="44.02465" lon="6.01467">
        <ele>670</ele>
        <time>2021-12-21T10:39:55.000Z</time>
      </trkpt>
      <trkpt lat="44.02465" lon="6.01467">
        <ele>670</ele>
        <time>2021-12-21T10:39:56.000Z</time>
      </trkpt>
      <trkpt lat="44.02465" lon="6.01467">
        <ele>670</ele>
        <time>2021-12-21T10:39:57.000Z</time>
      </trkpt>
      <trkpt lat="44.02465" lon="6.01467">
        <ele>670</ele>
        <time>2021-12-21T10:39:58.000Z</time>
      </trkpt>
      <trkpt lat="44.02465" lon="6.01467">
        <ele>670</ele>
        <time>2021-12-21T10:39:59.000Z</time>
      </trkpt>
      <trkpt lat="44.02465" lon="6.01467">
        <ele>670</ele>
        <time>2021-12-21T10:40:00.000Z</time>
      </trkpt>
      <trkpt lat="44.02465" lon="6.01467">
        <ele>670</ele>
        <time>2021-12-21T10:40:01.000Z</time>
      </trkpt>
      <trkpt lat="44.02465" lon="6.01467">
        <ele>670</ele>
        <time>2021-12-21T10:40:02.000Z</time>
      </trkpt>
      <trkpt lat="44.02465" lon="6.01467">
        <ele>670</ele>
        <time>2021-12-21T10:40:03.000Z</time>
      </trkpt>
      <trkpt lat="44.02465" lon="6.01467">
        <ele>670</ele>
        <time>2021-12-21T10:40:04.000Z</time>
      </trkpt>
      <trkpt lat="44.02465" lon="6.01467">
        <ele>670</ele>
        <time>2021-12-21T10:40:05.000Z</time>
      </trkpt>
      <trkpt lat="44.02465" lon="6.01467">
        <ele>670</ele>
        <time>2021-12-21T10:40:06.000Z</time>
      </trkpt>
      <trkpt lat="44.02465" lon="6.01467">
        <ele>670</ele>
        <time>2021-12-21T10:40:07.000Z</time>
      </trkpt>
      <trkpt lat="44.02465" lon="6.01467">
        <ele>670</ele>
        <time>2021-12-21T10:40:08.000Z</time>
      </trkpt>
      <trkpt lat="44.02465" lon="6.01467">
        <ele>670</ele>
        <time>2021-12-21T10:40:09.000Z</time>
      </trkpt>
      <trkpt lat="44.02465" lon="6.01467">
        <ele>670</ele>
        <time>2021-12-21T10:40:10.000Z</time>
      </trkpt>
      <trkpt lat="44.02465" lon="6.01467">
        <ele>670</ele>
        <time>2021-12-21T10:40:11.000Z</time>
      </trkpt>
      <trkpt lat="44.02465" lon="6.01467">
        <ele>670</ele>
        <time>2021-12-21T10:40:12.000Z</time>
      </trkpt>
      <trkpt lat="44.02465" lon="6.01467">
        <ele>670</ele>
        <time>2021-12-21T10:40:13.000Z</time>
      </trkpt>
      <trkpt lat="44.02465" lon="6.01467">
        <ele>670</ele>
        <time>2021-12-21T10:40:14.000Z</time>
      </trkpt>
      <trkpt lat="44.02465" lon="6.01467">
        <ele>670</ele>
        <time>2021-12-21T10:40:15.000Z</time>
      </trkpt>
      <trkpt lat="44.02465" lon="6.01467">
        <ele>670</ele>
        <time>2021-12-21T10:40:16.000Z</time>
      </trkpt>
      <trkpt lat="44.02465" lon="6.01467">
        <ele>670</ele>
        <time>2021-12-21T10:40:17.000Z</time>
      </trkpt>
      <trkpt lat="44.02465" lon="6.01467">
        <ele>670</ele>
        <time>2021-12-21T10:40:18.000Z</time>
      </trkpt>
      <trkpt lat="44.02465" lon="6.01467">
        <ele>670</ele>
        <time>2021-12-21T10:40:19.000Z</time>
      </trkpt>
      <trkpt lat="44.02465" lon="6.01467">
        <ele>670</ele>
        <time>2021-12-21T10:40:20.000Z</time>
      </trkpt>
      <trkpt lat="44.02465" lon="6.01467">
        <ele>670</ele>
        <time>2021-12-21T10:40:21.000Z</time>
      </trkpt>
      <trkpt lat="44.02465" lon="6.01467">
        <ele>670</ele>
        <time>2021-12-21T10:40:22.000Z</time>
      </trkpt>
      <trkpt lat="44.02465" lon="6.01467">
        <ele>670</ele>
        <time>2021-12-21T10:40:23.000Z</time>
      </trkpt>
      <trkpt lat="44.02465" lon="6.01467">
        <ele>671</ele>
        <time>2021-12-21T10:40:24.000Z</time>
      </trkpt>
      <trkpt lat="44.02465" lon="6.01467">
        <ele>671</ele>
        <time>2021-12-21T10:40:25.000Z</time>
      </trkpt>
      <trkpt lat="44.02465" lon="6.01468">
        <ele>671</ele>
        <time>2021-12-21T10:40:26.000Z</time>
      </trkpt>
      <trkpt lat="44.02464" lon="6.01469">
        <ele>671</ele>
        <time>2021-12-21T10:40:27.000Z</time>
      </trkpt>
      <trkpt lat="44.02464" lon="6.01469">
        <ele>671</ele>
        <time>2021-12-21T10:40:28.000Z</time>
      </trkpt>
      <trkpt lat="44.02463" lon="6.0147">
        <ele>671</ele>
        <time>2021-12-21T10:40:29.000Z</time>
      </trkpt>
      <trkpt lat="44.02463" lon="6.01471">
        <ele>671</ele>
        <time>2021-12-21T10:40:30.000Z</time>
      </trkpt>
      <trkpt lat="44.02462" lon="6.01471">
        <ele>671</ele>
        <time>2021-12-21T10:40:31.000Z</time>
      </trkpt>
      <trkpt lat="44.02461" lon="6.01472">
        <ele>671</ele>
        <time>2021-12-21T10:40:32.000Z</time>
      </trkpt>
      <trkpt lat="44.02461" lon="6.01473">
        <ele>671</ele>
        <time>2021-12-21T10:40:33.000Z</time>
      </trkpt>
      <trkpt lat="44.02461" lon="6.01474">
        <ele>671</ele>
        <time>2021-12-21T10:40:34.000Z</time>
      </trkpt>
      <trkpt lat="44.0246" lon="6.01474">
        <ele>671</ele>
        <time>2021-12-21T10:40:35.000Z</time>
      </trkpt>
      <trkpt lat="44.0246" lon="6.01475">
        <ele>671</ele>
        <time>2021-12-21T10:40:36.000Z</time>
      </trkpt>
      <trkpt lat="44.02459" lon="6.01475">
        <ele>671</ele>
        <time>2021-12-21T10:40:37.000Z</time>
      </trkpt>
      <trkpt lat="44.02459" lon="6.01476">
        <ele>671</ele>
        <time>2021-12-21T10:40:38.000Z</time>
      </trkpt>
      <trkpt lat="44.02458" lon="6.01477">
        <ele>672</ele>
        <time>2021-12-21T10:40:39.000Z</time>
      </trkpt>
      <trkpt lat="44.02458" lon="6.01478">
        <ele>672</ele>
        <time>2021-12-21T10:40:40.000Z</time>
      </trkpt>
      <trkpt lat="44.02458" lon="6.01478">
        <ele>672</ele>
        <time>2021-12-21T10:40:41.000Z</time>
      </trkpt>
      <trkpt lat="44.02457" lon="6.01479">
        <ele>672</ele>
        <time>2021-12-21T10:40:42.000Z</time>
      </trkpt>
      <trkpt lat="44.02457" lon="6.0148">
        <ele>672</ele>
        <time>2021-12-21T10:40:43.000Z</time>
      </trkpt>
      <trkpt lat="44.02456" lon="6.01481">
        <ele>672</ele>
        <time>2021-12-21T10:40:44.000Z</time>
      </trkpt>
      <trkpt lat="44.02455" lon="6.01482">
        <ele>672</ele>
        <time>2021-12-21T10:40:45.000Z</time>
      </trkpt>
      <trkpt lat="44.02455" lon="6.01483">
        <ele>673</ele>
        <time>2021-12-21T10:40:46.000Z</time>
      </trkpt>
      <trkpt lat="44.02454" lon="6.01484">
        <ele>673</ele>
        <time>2021-12-21T10:40:47.000Z</time>
      </trkpt>
      <trkpt lat="44.02453" lon="6.01485">
        <ele>673</ele>
        <time>2021-12-21T10:40:48.000Z</time>
      </trkpt>
      <trkpt lat="44.02453" lon="6.01485">
        <ele>673</ele>
        <time>2021-12-21T10:40:49.000Z</time>
      </trkpt>
      <trkpt lat="44.02452" lon="6.01486">
        <ele>673</ele>
        <time>2021-12-21T10:40:50.000Z</time>
      </trkpt>
      <trkpt lat="44.02452" lon="6.01487">
        <ele>673</ele>
        <time>2021-12-21T10:40:51.000Z</time>
      </trkpt>
      <trkpt lat="44.02452" lon="6.01488">
        <ele>673</ele>
        <time>2021-12-21T10:40:52.000Z</time>
      </trkpt>
      <trkpt lat="44.02451" lon="6.01489">
        <ele>674</ele>
        <time>2021-12-21T10:40:53.000Z</time>
      </trkpt>
      <trkpt lat="44.02451" lon="6.0149">
        <ele>674</ele>
        <time>2021-12-21T10:40:54.000Z</time>
      </trkpt>
      <trkpt lat="44.02451" lon="6.01491">
        <ele>674</ele>
        <time>2021-12-21T10:40:55.000Z</time>
      </trkpt>
      <trkpt lat="44.02451" lon="6.01492">
        <ele>674</ele>
        <time>2021-12-21T10:40:56.000Z</time>
      </trkpt>
      <trkpt lat="44.0245" lon="6.01493">
        <ele>674</ele>
        <time>2021-12-21T10:40:57.000Z</time>
      </trkpt>
      <trkpt lat="44.0245" lon="6.01494">
        <ele>674</ele>
        <time>2021-12-21T10:40:58.000Z</time>
      </trkpt>
      <trkpt lat="44.02449" lon="6.01495">
        <ele>675</ele>
        <time>2021-12-21T10:40:59.000Z</time>
      </trkpt>
      <trkpt lat="44.02449" lon="6.01496">
        <ele>675</ele>
        <time>2021-12-21T10:41:00.000Z</time>
      </trkpt>
      <trkpt lat="44.02448" lon="6.01497">
        <ele>675</ele>
        <time>2021-12-21T10:41:01.000Z</time>
      </trkpt>
      <trkpt lat="44.02448" lon="6.01498">
        <ele>675</ele>
        <time>2021-12-21T10:41:02.000Z</time>
      </trkpt>
      <trkpt lat="44.02448" lon="6.01499">
        <ele>675</ele>
        <time>2021-12-21T10:41:03.000Z</time>
      </trkpt>
      <trkpt lat="44.02448" lon="6.015">
        <ele>676</ele>
        <time>2021-12-21T10:41:04.000Z</time>
      </trkpt>
      <trkpt lat="44.02448" lon="6.01501">
        <ele>676</ele>
        <time>2021-12-21T10:41:05.000Z</time>
      </trkpt>
      <trkpt lat="44.02447" lon="6.01502">
        <ele>676</ele>
        <time>2021-12-21T10:41:06.000Z</time>
      </trkpt>
      <trkpt lat="44.02447" lon="6.01504">
        <ele>676</ele>
        <time>2021-12-21T10:41:07.000Z</time>
      </trkpt>
      <trkpt lat="44.02447" lon="6.01505">
        <ele>677</ele>
        <time>2021-12-21T10:41:08.000Z</time>
      </trkpt>
      <trkpt lat="44.02447" lon="6.01506">
        <ele>677</ele>
        <time>2021-12-21T10:41:09.000Z</time>
      </trkpt>
      <trkpt lat="44.02447" lon="6.01507">
        <ele>677</ele>
        <time>2021-12-21T10:41:10.000Z</time>
      </trkpt>
      <trkpt lat="44.02446" lon="6.01508">
        <ele>677</ele>
        <time>2021-12-21T10:41:11.000Z</time>
      </trkpt>
      <trkpt lat="44.02446" lon="6.01509">
        <ele>678</ele>
        <time>2021-12-21T10:41:12.000Z</time>
      </trkpt>
      <trkpt lat="44.02446" lon="6.0151">
        <ele>678</ele>
        <time>2021-12-21T10:41:13.000Z</time>
      </trkpt>
      <trkpt lat="44.02445" lon="6.01511">
        <ele>678</ele>
        <time>2021-12-21T10:41:14.000Z</time>
      </trkpt>
      <trkpt lat="44.02445" lon="6.01512">
        <ele>679</ele>
        <time>2021-12-21T10:41:15.000Z</time>
      </trkpt>
      <trkpt lat="44.02444" lon="6.01513">
        <ele>679</ele>
        <time>2021-12-21T10:41:16.000Z</time>
      </trkpt>
      <trkpt lat="44.02444" lon="6.01514">
        <ele>679</ele>
        <time>2021-12-21T10:41:17.000Z</time>
      </trkpt>
      <trkpt lat="44.02444" lon="6.01515">
        <ele>679</ele>
        <time>2021-12-21T10:41:18.000Z</time>
      </trkpt>
      <trkpt lat="44.02443" lon="6.01515">
        <ele>679</ele>
        <time>2021-12-21T10:41:19.000Z</time>
      </trkpt>
      <trkpt lat="44.02443" lon="6.01516">
        <ele>679</ele>
        <time>2021-12-21T10:41:20.000Z</time>
      </trkpt>
      <trkpt lat="44.02443" lon="6.01517">
        <ele>680</ele>
        <time>2021-12-21T10:41:21.000Z</time>
      </trkpt>
      <trkpt lat="44.02443" lon="6.01518">
        <ele>680</ele>
        <time>2021-12-21T10:41:22.000Z</time>
      </trkpt>
      <trkpt lat="44.02443" lon="6.01519">
        <ele>680</ele>
        <time>2021-12-21T10:41:23.000Z</time>
      </trkpt>
      <trkpt lat="44.02442" lon="6.0152">
        <ele>680</ele>
        <time>2021-12-21T10:41:24.000Z</time>
      </trkpt>
      <trkpt lat="44.02442" lon="6.01521">
        <ele>680</ele>
        <time>2021-12-21T10:41:25.000Z</time>
      </trkpt>
      <trkpt lat="44.02442" lon="6.01522">
        <ele>680</ele>
        <time>2021-12-21T10:41:26.000Z</time>
      </trkpt>
      <trkpt lat="44.02441" lon="6.01523">
        <ele>681</ele>
        <time>2021-12-21T10:41:27.000Z</time>
      </trkpt>
      <trkpt lat="44.02441" lon="6.01524">
        <ele>680</ele>
        <time>2021-12-21T10:41:28.000Z</time>
      </trkpt>
      <trkpt lat="44.0244" lon="6.01525">
        <ele>680</ele>
        <time>2021-12-21T10:41:29.000Z</time>
      </trkpt>
      <trkpt lat="44.0244" lon="6.01526">
        <ele>680</ele>
        <time>2021-12-21T10:41:30.000Z</time>
      </trkpt>
      <trkpt lat="44.02439" lon="6.01527">
        <ele>680</ele>
        <time>2021-12-21T10:41:31.000Z</time>
      </trkpt>
      <trkpt lat="44.02438" lon="6.01528">
        <ele>680</ele>
        <time>2021-12-21T10:41:32.000Z</time>
      </trkpt>
      <trkpt lat="44.02438" lon="6.01529">
        <ele>680</ele>
        <time>2021-12-21T10:41:33.000Z</time>
      </trkpt>
      <trkpt lat="44.02437" lon="6.0153">
        <ele>680</ele>
        <time>2021-12-21T10:41:34.000Z</time>
      </trkpt>
      <trkpt lat="44.02436" lon="6.01531">
        <ele>680</ele>
        <time>2021-12-21T10:41:35.000Z</time>
      </trkpt>
      <trkpt lat="44.02436" lon="6.01532">
        <ele>680</ele>
        <time>2021-12-21T10:41:36.000Z</time>
      </trkpt>
      <trkpt lat="44.02435" lon="6.01533">
        <ele>680</ele>
        <time>2021-12-21T10:41:37.000Z</time>
      </trkpt>
      <trkpt lat="44.02435" lon="6.01534">
        <ele>680</ele>
        <time>2021-12-21T10:41:38.000Z</time>
      </trkpt>
      <trkpt lat="44.02434" lon="6.01535">
        <ele>680</ele>
        <time>2021-12-21T10:41:39.000Z</time>
      </trkpt>
      <trkpt lat="44.02433" lon="6.01536">
        <ele>680</ele>
        <time>2021-12-21T10:41:40.000Z</time>
      </trkpt>
      <trkpt lat="44.02433" lon="6.01537">
        <ele>680</ele>
        <time>2021-12-21T10:41:41.000Z</time>
      </trkpt>
      <trkpt lat="44.02432" lon="6.01538">
        <ele>680</ele>
        <time>2021-12-21T10:41:42.000Z</time>
      </trkpt>
      <trkpt lat="44.02432" lon="6.01539">
        <ele>680</ele>
        <time>2021-12-21T10:41:43.000Z</time>
      </trkpt>
      <trkpt lat="44.02431" lon="6.01539">
        <ele>680</ele>
        <time>2021-12-21T10:41:44.000Z</time>
      </trkpt>
      <trkpt lat="44.02431" lon="6.0154">
        <ele>680</ele>
        <time>2021-12-21T10:41:45.000Z</time>
      </trkpt>
      <trkpt lat="44.0243" lon="6.01541">
        <ele>680</ele>
        <time>2021-12-21T10:41:46.000Z</time>
      </trkpt>
      <trkpt lat="44.0243" lon="6.01542">
        <ele>680</ele>
        <time>2021-12-21T10:41:47.000Z</time>
      </trkpt>
      <trkpt lat="44.02429" lon="6.01543">
        <ele>680</ele>
        <time>2021-12-21T10:41:48.000Z</time>
      </trkpt>
      <trkpt lat="44.02429" lon="6.01544">
        <ele>680</ele>
        <time>2021-12-21T10:41:49.000Z</time>
      </trkpt>
      <trkpt lat="44.02428" lon="6.01544">
        <ele>680</ele>
        <time>2021-12-21T10:41:50.000Z</time>
      </trkpt>
      <trkpt lat="44.02427" lon="6.01545">
        <ele>680</ele>
        <time>2021-12-21T10:41:51.000Z</time>
      </trkpt>
      <trkpt lat="44.02427" lon="6.01545">
        <ele>680</ele>
        <time>2021-12-21T10:41:52.000Z</time>
      </trkpt>
      <trkpt lat="44.02427" lon="6.01545">
        <ele>680</ele>
        <time>2021-12-21T10:41:53.000Z</time>
      </trkpt>
      <trkpt lat="44.02426" lon="6.01545">
        <ele>680</ele>
        <time>2021-12-21T10:41:54.000Z</time>
      </trkpt>
      <trkpt lat="44.02426" lon="6.01545">
        <ele>680</ele>
        <time>2021-12-21T10:41:55.000Z</time>
      </trkpt>
      <trkpt lat="44.02426" lon="6.01545">
        <ele>680</ele>
        <time>2021-12-21T10:41:56.000Z</time>
      </trkpt>
      <trkpt lat="44.02426" lon="6.01545">
        <ele>680</ele>
        <time>2021-12-21T10:41:57.000Z</time>
      </trkpt>
      <trkpt lat="44.02426" lon="6.01545">
        <ele>679</ele>
        <time>2021-12-21T10:41:58.000Z</time>
      </trkpt>
      <trkpt lat="44.02426" lon="6.01545">
        <ele>679</ele>
        <time>2021-12-21T10:41:59.000Z</time>
      </trkpt>
      <trkpt lat="44.02426" lon="6.01545">
        <ele>679</ele>
        <time>2021-12-21T10:42:00.000Z</time>
      </trkpt>
      <trkpt lat="44.02426" lon="6.01545">
        <ele>679</ele>
        <time>2021-12-21T10:42:01.000Z</time>
      </trkpt>
      <trkpt lat="44.02426" lon="6.01545">
        <ele>679</ele>
        <time>2021-12-21T10:42:02.000Z</time>
      </trkpt>
      <trkpt lat="44.02426" lon="6.01545">
        <ele>679</ele>
        <time>2021-12-21T10:42:03.000Z</time>
      </trkpt>
      <trkpt lat="44.02426" lon="6.01545">
        <ele>679</ele>
        <time>2021-12-21T10:42:04.000Z</time>
      </trkpt>
      <trkpt lat="44.02426" lon="6.01545">
        <ele>679</ele>
        <time>2021-12-21T10:42:05.000Z</time>
      </trkpt>
      <trkpt lat="44.02426" lon="6.01545">
        <ele>679</ele>
        <time>2021-12-21T10:42:06.000Z</time>
      </trkpt>
      <trkpt lat="44.02426" lon="6.01545">
        <ele>679</ele>
        <time>2021-12-21T10:42:07.000Z</time>
      </trkpt>
      <trkpt lat="44.02426" lon="6.01545">
        <ele>679</ele>
        <time>2021-12-21T10:42:08.000Z</time>
      </trkpt>
      <trkpt lat="44.02426" lon="6.01545">
        <ele>679</ele>
        <time>2021-12-21T10:42:09.000Z</time>
      </trkpt>
      <trkpt lat="44.02426" lon="6.01545">
        <ele>679</ele>
        <time>2021-12-21T10:42:10.000Z</time>
      </trkpt>
      <trkpt lat="44.02426" lon="6.01545">
        <ele>679</ele>
        <time>2021-12-21T10:42:11.000Z</time>
      </trkpt>
      <trkpt lat="44.02426" lon="6.01545">
        <ele>679</ele>
        <time>2021-12-21T10:42:12.000Z</time>
      </trkpt>
      <trkpt lat="44.02426" lon="6.01546">
        <ele>679</ele>
        <time>2021-12-21T10:42:13.000Z</time>
      </trkpt>
      <trkpt lat="44.02426" lon="6.01548">
        <ele>679</ele>
        <time>2021-12-21T10:42:14.000Z</time>
      </trkpt>
      <trkpt lat="44.02426" lon="6.01549">
        <ele>680</ele>
        <time>2021-12-21T10:42:15.000Z</time>
      </trkpt>
      <trkpt lat="44.02426" lon="6.0155">
        <ele>680</ele>
        <time>2021-12-21T10:42:16.000Z</time>
      </trkpt>
      <trkpt lat="44.02426" lon="6.01551">
        <ele>680</ele>
        <time>2021-12-21T10:42:17.000Z</time>
      </trkpt>
      <trkpt lat="44.02425" lon="6.01552">
        <ele>680</ele>
        <time>2021-12-21T10:42:18.000Z</time>
      </trkpt>
      <trkpt lat="44.02425" lon="6.01553">
        <ele>680</ele>
        <time>2021-12-21T10:42:19.000Z</time>
      </trkpt>
      <trkpt lat="44.02425" lon="6.01553">
        <ele>681</ele>
        <time>2021-12-21T10:42:20.000Z</time>
      </trkpt>
      <trkpt lat="44.02424" lon="6.01555">
        <ele>681</ele>
        <time>2021-12-21T10:42:21.000Z</time>
      </trkpt>
      <trkpt lat="44.02424" lon="6.01556">
        <ele>681</ele>
        <time>2021-12-21T10:42:22.000Z</time>
      </trkpt>
      <trkpt lat="44.02424" lon="6.01557">
        <ele>682</ele>
        <time>2021-12-21T10:42:23.000Z</time>
      </trkpt>
      <trkpt lat="44.02424" lon="6.01558">
        <ele>682</ele>
        <time>2021-12-21T10:42:24.000Z</time>
      </trkpt>
      <trkpt lat="44.02423" lon="6.01559">
        <ele>682</ele>
        <time>2021-12-21T10:42:25.000Z</time>
      </trkpt>
      <trkpt lat="44.02423" lon="6.0156">
        <ele>683</ele>
        <time>2021-12-21T10:42:26.000Z</time>
      </trkpt>
      <trkpt lat="44.02423" lon="6.01561">
        <ele>683</ele>
        <time>2021-12-21T10:42:27.000Z</time>
      </trkpt>
      <trkpt lat="44.02423" lon="6.01562">
        <ele>683</ele>
        <time>2021-12-21T10:42:28.000Z</time>
      </trkpt>
      <trkpt lat="44.02422" lon="6.01563">
        <ele>683</ele>
        <time>2021-12-21T10:42:29.000Z</time>
      </trkpt>
      <trkpt lat="44.02422" lon="6.01564">
        <ele>684</ele>
        <time>2021-12-21T10:42:30.000Z</time>
      </trkpt>
      <trkpt lat="44.02422" lon="6.01565">
        <ele>684</ele>
        <time>2021-12-21T10:42:31.000Z</time>
      </trkpt>
      <trkpt lat="44.02422" lon="6.01566">
        <ele>684</ele>
        <time>2021-12-21T10:42:32.000Z</time>
      </trkpt>
      <trkpt lat="44.02421" lon="6.01567">
        <ele>685</ele>
        <time>2021-12-21T10:42:33.000Z</time>
      </trkpt>
      <trkpt lat="44.02421" lon="6.01568">
        <ele>685</ele>
        <time>2021-12-21T10:42:34.000Z</time>
      </trkpt>
      <trkpt lat="44.02421" lon="6.0157">
        <ele>685</ele>
        <time>2021-12-21T10:42:35.000Z</time>
      </trkpt>
      <trkpt lat="44.02421" lon="6.01571">
        <ele>686</ele>
        <time>2021-12-21T10:42:36.000Z</time>
      </trkpt>
      <trkpt lat="44.02421" lon="6.01572">
        <ele>686</ele>
        <time>2021-12-21T10:42:37.000Z</time>
      </trkpt>
      <trkpt lat="44.02421" lon="6.01573">
        <ele>686</ele>
        <time>2021-12-21T10:42:38.000Z</time>
      </trkpt>
      <trkpt lat="44.02421" lon="6.01574">
        <ele>686</ele>
        <time>2021-12-21T10:42:39.000Z</time>
      </trkpt>
      <trkpt lat="44.02421" lon="6.01575">
        <ele>687</ele>
        <time>2021-12-21T10:42:40.000Z</time>
      </trkpt>
      <trkpt lat="44.0242" lon="6.01576">
        <ele>687</ele>
        <time>2021-12-21T10:42:41.000Z</time>
      </trkpt>
      <trkpt lat="44.0242" lon="6.01577">
        <ele>687</ele>
        <time>2021-12-21T10:42:42.000Z</time>
      </trkpt>
      <trkpt lat="44.02419" lon="6.01578">
        <ele>688</ele>
        <time>2021-12-21T10:42:43.000Z</time>
      </trkpt>
      <trkpt lat="44.02419" lon="6.01579">
        <ele>688</ele>
        <time>2021-12-21T10:42:44.000Z</time>
      </trkpt>
      <trkpt lat="44.02419" lon="6.0158">
        <ele>688</ele>
        <time>2021-12-21T10:42:45.000Z</time>
      </trkpt>
      <trkpt lat="44.02419" lon="6.01581">
        <ele>689</ele>
        <time>2021-12-21T10:42:46.000Z</time>
      </trkpt>
      <trkpt lat="44.02419" lon="6.01583">
        <ele>689</ele>
        <time>2021-12-21T10:42:47.000Z</time>
      </trkpt>
      <trkpt lat="44.02418" lon="6.01583">
        <ele>689</ele>
        <time>2021-12-21T10:42:48.000Z</time>
      </trkpt>
      <trkpt lat="44.02418" lon="6.01585">
        <ele>689</ele>
        <time>2021-12-21T10:42:49.000Z</time>
      </trkpt>
      <trkpt lat="44.02418" lon="6.01586">
        <ele>689</ele>
        <time>2021-12-21T10:42:50.000Z</time>
      </trkpt>
      <trkpt lat="44.02418" lon="6.01587">
        <ele>689</ele>
        <time>2021-12-21T10:42:51.000Z</time>
      </trkpt>
      <trkpt lat="44.02418" lon="6.01588">
        <ele>690</ele>
        <time>2021-12-21T10:42:52.000Z</time>
      </trkpt>
      <trkpt lat="44.02418" lon="6.01589">
        <ele>690</ele>
        <time>2021-12-21T10:42:53.000Z</time>
      </trkpt>
      <trkpt lat="44.02418" lon="6.01591">
        <ele>690</ele>
        <time>2021-12-21T10:42:54.000Z</time>
      </trkpt>
      <trkpt lat="44.02418" lon="6.01592">
        <ele>690</ele>
        <time>2021-12-21T10:42:55.000Z</time>
      </trkpt>
      <trkpt lat="44.02418" lon="6.01593">
        <ele>690</ele>
        <time>2021-12-21T10:42:56.000Z</time>
      </trkpt>
      <trkpt lat="44.02418" lon="6.01594">
        <ele>690</ele>
        <time>2021-12-21T10:42:57.000Z</time>
      </trkpt>
      <trkpt lat="44.02418" lon="6.01595">
        <ele>690</ele>
        <time>2021-12-21T10:42:58.000Z</time>
      </trkpt>
      <trkpt lat="44.02418" lon="6.01597">
        <ele>690</ele>
        <time>2021-12-21T10:42:59.000Z</time>
      </trkpt>
      <trkpt lat="44.02418" lon="6.01598">
        <ele>691</ele>
        <time>2021-12-21T10:43:00.000Z</time>
      </trkpt>
      <trkpt lat="44.02417" lon="6.01599">
        <ele>691</ele>
        <time>2021-12-21T10:43:01.000Z</time>
      </trkpt>
      <trkpt lat="44.02417" lon="6.016">
        <ele>691</ele>
        <time>2021-12-21T10:43:02.000Z</time>
      </trkpt>
      <trkpt lat="44.02417" lon="6.01601">
        <ele>691</ele>
        <time>2021-12-21T10:43:03.000Z</time>
      </trkpt>
      <trkpt lat="44.02417" lon="6.01602">
        <ele>691</ele>
        <time>2021-12-21T10:43:04.000Z</time>
      </trkpt>
      <trkpt lat="44.02416" lon="6.01603">
        <ele>691</ele>
        <time>2021-12-21T10:43:05.000Z</time>
      </trkpt>
      <trkpt lat="44.02416" lon="6.01604">
        <ele>691</ele>
        <time>2021-12-21T10:43:06.000Z</time>
      </trkpt>
      <trkpt lat="44.02416" lon="6.01606">
        <ele>692</ele>
        <time>2021-12-21T10:43:07.000Z</time>
      </trkpt>
      <trkpt lat="44.02416" lon="6.01606">
        <ele>692</ele>
        <time>2021-12-21T10:43:08.000Z</time>
      </trkpt>
      <trkpt lat="44.02415" lon="6.01607">
        <ele>692</ele>
        <time>2021-12-21T10:43:09.000Z</time>
      </trkpt>
      <trkpt lat="44.02415" lon="6.01609">
        <ele>692</ele>
        <time>2021-12-21T10:43:10.000Z</time>
      </trkpt>
      <trkpt lat="44.02415" lon="6.01609">
        <ele>692</ele>
        <time>2021-12-21T10:43:11.000Z</time>
      </trkpt>
      <trkpt lat="44.02415" lon="6.01611">
        <ele>692</ele>
        <time>2021-12-21T10:43:12.000Z</time>
      </trkpt>
      <trkpt lat="44.02415" lon="6.01612">
        <ele>692</ele>
        <time>2021-12-21T10:43:13.000Z</time>
      </trkpt>
      <trkpt lat="44.02415" lon="6.01613">
        <ele>692</ele>
        <time>2021-12-21T10:43:14.000Z</time>
      </trkpt>
      <trkpt lat="44.02415" lon="6.01614">
        <ele>692</ele>
        <time>2021-12-21T10:43:15.000Z</time>
      </trkpt>
      <trkpt lat="44.02415" lon="6.01615">
        <ele>693</ele>
        <time>2021-12-21T10:43:16.000Z</time>
      </trkpt>
      <trkpt lat="44.02414" lon="6.01616">
        <ele>693</ele>
        <time>2021-12-21T10:43:17.000Z</time>
      </trkpt>
      <trkpt lat="44.02414" lon="6.01617">
        <ele>693</ele>
        <time>2021-12-21T10:43:18.000Z</time>
      </trkpt>
      <trkpt lat="44.02414" lon="6.01619">
        <ele>693</ele>
        <time>2021-12-21T10:43:19.000Z</time>
      </trkpt>
      <trkpt lat="44.02414" lon="6.0162">
        <ele>693</ele>
        <time>2021-12-21T10:43:20.000Z</time>
      </trkpt>
      <trkpt lat="44.02414" lon="6.01621">
        <ele>693</ele>
        <time>2021-12-21T10:43:21.000Z</time>
      </trkpt>
      <trkpt lat="44.02414" lon="6.01622">
        <ele>693</ele>
        <time>2021-12-21T10:43:22.000Z</time>
      </trkpt>
      <trkpt lat="44.02414" lon="6.01623">
        <ele>693</ele>
        <time>2021-12-21T10:43:23.000Z</time>
      </trkpt>
      <trkpt lat="44.02414" lon="6.01624">
        <ele>693</ele>
        <time>2021-12-21T10:43:24.000Z</time>
      </trkpt>
      <trkpt lat="44.02415" lon="6.01625">
        <ele>693</ele>
        <time>2021-12-21T10:43:25.000Z</time>
      </trkpt>
      <trkpt lat="44.02415" lon="6.01626">
        <ele>693</ele>
        <time>2021-12-21T10:43:26.000Z</time>
      </trkpt>
      <trkpt lat="44.02415" lon="6.01628">
        <ele>694</ele>
        <time>2021-12-21T10:43:27.000Z</time>
      </trkpt>
      <trkpt lat="44.02415" lon="6.01629">
        <ele>694</ele>
        <time>2021-12-21T10:43:28.000Z</time>
      </trkpt>
      <trkpt lat="44.02415" lon="6.0163">
        <ele>694</ele>
        <time>2021-12-21T10:43:29.000Z</time>
      </trkpt>
      <trkpt lat="44.02414" lon="6.01631">
        <ele>694</ele>
        <time>2021-12-21T10:43:30.000Z</time>
      </trkpt>
      <trkpt lat="44.02414" lon="6.01632">
        <ele>694</ele>
        <time>2021-12-21T10:43:31.000Z</time>
      </trkpt>
      <trkpt lat="44.02414" lon="6.01633">
        <ele>694</ele>
        <time>2021-12-21T10:43:32.000Z</time>
      </trkpt>
      <trkpt lat="44.02414" lon="6.01634">
        <ele>694</ele>
        <time>2021-12-21T10:43:33.000Z</time>
      </trkpt>
      <trkpt lat="44.02413" lon="6.01635">
        <ele>694</ele>
        <time>2021-12-21T10:43:34.000Z</time>
      </trkpt>
      <trkpt lat="44.02413" lon="6.01636">
        <ele>694</ele>
        <time>2021-12-21T10:43:35.000Z</time>
      </trkpt>
      <trkpt lat="44.02413" lon="6.01637">
        <ele>694</ele>
        <time>2021-12-21T10:43:36.000Z</time>
      </trkpt>
      <trkpt lat="44.02413" lon="6.01638">
        <ele>694</ele>
        <time>2021-12-21T10:43:37.000Z</time>
      </trkpt>
      <trkpt lat="44.02412" lon="6.01639">
        <ele>694</ele>
        <time>2021-12-21T10:43:38.000Z</time>
      </trkpt>
      <trkpt lat="44.02412" lon="6.0164">
        <ele>694</ele>
        <time>2021-12-21T10:43:39.000Z</time>
      </trkpt>
      <trkpt lat="44.02412" lon="6.01642">
        <ele>695</ele>
        <time>2021-12-21T10:43:40.000Z</time>
      </trkpt>
      <trkpt lat="44.02411" lon="6.01643">
        <ele>695</ele>
        <time>2021-12-21T10:43:41.000Z</time>
      </trkpt>
      <trkpt lat="44.02411" lon="6.01644">
        <ele>695</ele>
        <time>2021-12-21T10:43:42.000Z</time>
      </trkpt>
      <trkpt lat="44.02411" lon="6.01645">
        <ele>695</ele>
        <time>2021-12-21T10:43:43.000Z</time>
      </trkpt>
      <trkpt lat="44.02411" lon="6.01646">
        <ele>695</ele>
        <time>2021-12-21T10:43:44.000Z</time>
      </trkpt>
      <trkpt lat="44.0241" lon="6.01647">
        <ele>695</ele>
        <time>2021-12-21T10:43:45.000Z</time>
      </trkpt>
      <trkpt lat="44.0241" lon="6.01649">
        <ele>695</ele>
        <time>2021-12-21T10:43:46.000Z</time>
      </trkpt>
      <trkpt lat="44.0241" lon="6.0165">
        <ele>695</ele>
        <time>2021-12-21T10:43:47.000Z</time>
      </trkpt>
      <trkpt lat="44.02409" lon="6.01651">
        <ele>695</ele>
        <time>2021-12-21T10:43:48.000Z</time>
      </trkpt>
      <trkpt lat="44.02409" lon="6.01652">
        <ele>696</ele>
        <time>2021-12-21T10:43:49.000Z</time>
      </trkpt>
      <trkpt lat="44.02409" lon="6.01653">
        <ele>696</ele>
        <time>2021-12-21T10:43:50.000Z</time>
      </trkpt>
      <trkpt lat="44.02409" lon="6.01655">
        <ele>696</ele>
        <time>2021-12-21T10:43:51.000Z</time>
      </trkpt>
      <trkpt lat="44.02409" lon="6.01655">
        <ele>696</ele>
        <time>2021-12-21T10:43:52.000Z</time>
      </trkpt>
      <trkpt lat="44.02408" lon="6.01657">
        <ele>696</ele>
        <time>2021-12-21T10:43:53.000Z</time>
      </trkpt>
      <trkpt lat="44.02408" lon="6.01658">
        <ele>696</ele>
        <time>2021-12-21T10:43:54.000Z</time>
      </trkpt>
      <trkpt lat="44.02408" lon="6.01659">
        <ele>696</ele>
        <time>2021-12-21T10:43:55.000Z</time>
      </trkpt>
      <trkpt lat="44.02407" lon="6.0166">
        <ele>696</ele>
        <time>2021-12-21T10:43:56.000Z</time>
      </trkpt>
      <trkpt lat="44.02407" lon="6.01662">
        <ele>697</ele>
        <time>2021-12-21T10:43:57.000Z</time>
      </trkpt>
      <trkpt lat="44.02407" lon="6.01663">
        <ele>697</ele>
        <time>2021-12-21T10:43:58.000Z</time>
      </trkpt>
      <trkpt lat="44.02407" lon="6.01664">
        <ele>697</ele>
        <time>2021-12-21T10:43:59.000Z</time>
      </trkpt>
      <trkpt lat="44.02407" lon="6.01665">
        <ele>697</ele>
        <time>2021-12-21T10:44:00.000Z</time>
      </trkpt>
      <trkpt lat="44.02406" lon="6.01666">
        <ele>697</ele>
        <time>2021-12-21T10:44:01.000Z</time>
      </trkpt>
      <trkpt lat="44.02406" lon="6.01667">
        <ele>697</ele>
        <time>2021-12-21T10:44:02.000Z</time>
      </trkpt>
      <trkpt lat="44.02406" lon="6.01668">
        <ele>697</ele>
        <time>2021-12-21T10:44:03.000Z</time>
      </trkpt>
      <trkpt lat="44.02406" lon="6.01669">
        <ele>698</ele>
        <time>2021-12-21T10:44:04.000Z</time>
      </trkpt>
      <trkpt lat="44.02406" lon="6.0167">
        <ele>698</ele>
        <time>2021-12-21T10:44:05.000Z</time>
      </trkpt>
      <trkpt lat="44.02405" lon="6.01671">
        <ele>698</ele>
        <time>2021-12-21T10:44:06.000Z</time>
      </trkpt>
      <trkpt lat="44.02405" lon="6.01672">
        <ele>698</ele>
        <time>2021-12-21T10:44:07.000Z</time>
      </trkpt>
      <trkpt lat="44.02405" lon="6.01673">
        <ele>698</ele>
        <time>2021-12-21T10:44:08.000Z</time>
      </trkpt>
      <trkpt lat="44.02404" lon="6.01674">
        <ele>698</ele>
        <time>2021-12-21T10:44:09.000Z</time>
      </trkpt>
      <trkpt lat="44.02404" lon="6.01675">
        <ele>698</ele>
        <time>2021-12-21T10:44:10.000Z</time>
      </trkpt>
      <trkpt lat="44.02403" lon="6.01675">
        <ele>698</ele>
        <time>2021-12-21T10:44:11.000Z</time>
      </trkpt>
      <trkpt lat="44.02403" lon="6.01676">
        <ele>698</ele>
        <time>2021-12-21T10:44:12.000Z</time>
      </trkpt>
      <trkpt lat="44.02403" lon="6.01676">
        <ele>698</ele>
        <time>2021-12-21T10:44:13.000Z</time>
      </trkpt>
      <trkpt lat="44.02403" lon="6.01676">
        <ele>698</ele>
        <time>2021-12-21T10:44:14.000Z</time>
      </trkpt>
      <trkpt lat="44.02403" lon="6.01676">
        <ele>698</ele>
        <time>2021-12-21T10:44:15.000Z</time>
      </trkpt>
      <trkpt lat="44.02403" lon="6.01676">
        <ele>698</ele>
        <time>2021-12-21T10:44:16.000Z</time>
      </trkpt>
      <trkpt lat="44.02403" lon="6.01676">
        <ele>698</ele>
        <time>2021-12-21T10:44:17.000Z</time>
      </trkpt>
      <trkpt lat="44.02403" lon="6.01676">
        <ele>698</ele>
        <time>2021-12-21T10:44:18.000Z</time>
      </trkpt>
      <trkpt lat="44.02403" lon="6.01676">
        <ele>698</ele>
        <time>2021-12-21T10:44:19.000Z</time>
      </trkpt>
      <trkpt lat="44.02403" lon="6.01676">
        <ele>698</ele>
        <time>2021-12-21T10:44:20.000Z</time>
      </trkpt>
      <trkpt lat="44.02403" lon="6.01676">
        <ele>698</ele>
        <time>2021-12-21T10:44:21.000Z</time>
      </trkpt>
      <trkpt lat="44.02403" lon="6.01676">
        <ele>698</ele>
        <time>2021-12-21T10:44:22.000Z</time>
      </trkpt>
      <trkpt lat="44.02403" lon="6.01676">
        <ele>698</ele>
        <time>2021-12-21T10:44:23.000Z</time>
      </trkpt>
      <trkpt lat="44.02403" lon="6.01676">
        <ele>698</ele>
        <time>2021-12-21T10:44:24.000Z</time>
      </trkpt>
      <trkpt lat="44.02403" lon="6.01676">
        <ele>698</ele>
        <time>2021-12-21T10:44:25.000Z</time>
      </trkpt>
      <trkpt lat="44.02403" lon="6.01676">
        <ele>698</ele>
        <time>2021-12-21T10:44:26.000Z</time>
      </trkpt>
      <trkpt lat="44.02403" lon="6.01676">
        <ele>698</ele>
        <time>2021-12-21T10:44:27.000Z</time>
      </trkpt>
      <trkpt lat="44.02403" lon="6.01676">
        <ele>698</ele>
        <time>2021-12-21T10:44:28.000Z</time>
      </trkpt>
      <trkpt lat="44.02403" lon="6.01676">
        <ele>698</ele>
        <time>2021-12-21T10:44:29.000Z</time>
      </trkpt>
      <trkpt lat="44.02403" lon="6.01676">
        <ele>698</ele>
        <time>2021-12-21T10:44:30.000Z</time>
      </trkpt>
      <trkpt lat="44.02403" lon="6.01676">
        <ele>698</ele>
        <time>2021-12-21T10:44:31.000Z</time>
      </trkpt>
      <trkpt lat="44.02403" lon="6.01676">
        <ele>698</ele>
        <time>2021-12-21T10:44:32.000Z</time>
      </trkpt>
      <trkpt lat="44.02403" lon="6.01676">
        <ele>698</ele>
        <time>2021-12-21T10:44:33.000Z</time>
      </trkpt>
      <trkpt lat="44.02403" lon="6.01676">
        <ele>698</ele>
        <time>2021-12-21T10:44:34.000Z</time>
      </trkpt>
      <trkpt lat="44.02403" lon="6.01676">
        <ele>698</ele>
        <time>2021-12-21T10:44:35.000Z</time>
      </trkpt>
      <trkpt lat="44.02403" lon="6.01676">
        <ele>698</ele>
        <time>2021-12-21T10:44:36.000Z</time>
      </trkpt>
      <trkpt lat="44.02403" lon="6.01676">
        <ele>698</ele>
        <time>2021-12-21T10:44:37.000Z</time>
      </trkpt>
      <trkpt lat="44.02403" lon="6.01676">
        <ele>698</ele>
        <time>2021-12-21T10:44:38.000Z</time>
      </trkpt>
      <trkpt lat="44.02403" lon="6.01676">
        <ele>698</ele>
        <time>2021-12-21T10:44:39.000Z</time>
      </trkpt>
      <trkpt lat="44.02403" lon="6.01676">
        <ele>698</ele>
        <time>2021-12-21T10:44:40.000Z</time>
      </trkpt>
      <trkpt lat="44.02403" lon="6.01676">
        <ele>698</ele>
        <time>2021-12-21T10:44:41.000Z</time>
      </trkpt>
      <trkpt lat="44.02403" lon="6.01676">
        <ele>697</ele>
        <time>2021-12-21T10:44:42.000Z</time>
      </trkpt>
      <trkpt lat="44.02403" lon="6.01676">
        <ele>697</ele>
        <time>2021-12-21T10:44:43.000Z</time>
      </trkpt>
      <trkpt lat="44.02403" lon="6.01676">
        <ele>697</ele>
        <time>2021-12-21T10:44:44.000Z</time>
      </trkpt>
      <trkpt lat="44.02403" lon="6.01676">
        <ele>697</ele>
        <time>2021-12-21T10:44:45.000Z</time>
      </trkpt>
      <trkpt lat="44.02403" lon="6.01677">
        <ele>697</ele>
        <time>2021-12-21T10:44:46.000Z</time>
      </trkpt>
      <trkpt lat="44.02402" lon="6.01677">
        <ele>697</ele>
        <time>2021-12-21T10:44:47.000Z</time>
      </trkpt>
      <trkpt lat="44.02402" lon="6.01677">
        <ele>697</ele>
        <time>2021-12-21T10:44:48.000Z</time>
      </trkpt>
      <trkpt lat="44.02402" lon="6.01677">
        <ele>697</ele>
        <time>2021-12-21T10:44:49.000Z</time>
      </trkpt>
      <trkpt lat="44.02402" lon="6.01677">
        <ele>697</ele>
        <time>2021-12-21T10:44:50.000Z</time>
      </trkpt>
      <trkpt lat="44.02402" lon="6.01677">
        <ele>697</ele>
        <time>2021-12-21T10:44:51.000Z</time>
      </trkpt>
      <trkpt lat="44.02402" lon="6.01677">
        <ele>697</ele>
        <time>2021-12-21T10:44:52.000Z</time>
      </trkpt>
      <trkpt lat="44.02402" lon="6.01677">
        <ele>697</ele>
        <time>2021-12-21T10:44:53.000Z</time>
      </trkpt>
      <trkpt lat="44.02402" lon="6.01677">
        <ele>697</ele>
        <time>2021-12-21T10:44:54.000Z</time>
      </trkpt>
      <trkpt lat="44.02402" lon="6.01677">
        <ele>697</ele>
        <time>2021-12-21T10:44:55.000Z</time>
      </trkpt>
      <trkpt lat="44.02402" lon="6.01677">
        <ele>697</ele>
        <time>2021-12-21T10:44:56.000Z</time>
      </trkpt>
      <trkpt lat="44.02402" lon="6.01677">
        <ele>697</ele>
        <time>2021-12-21T10:44:57.000Z</time>
      </trkpt>
      <trkpt lat="44.02402" lon="6.01677">
        <ele>697</ele>
        <time>2021-12-21T10:44:58.000Z</time>
      </trkpt>
      <trkpt lat="44.02402" lon="6.01677">
        <ele>697</ele>
        <time>2021-12-21T10:44:59.000Z</time>
      </trkpt>
      <trkpt lat="44.02402" lon="6.01677">
        <ele>697</ele>
        <time>2021-12-21T10:45:00.000Z</time>
      </trkpt>
      <trkpt lat="44.02402" lon="6.01677">
        <ele>697</ele>
        <time>2021-12-21T10:45:01.000Z</time>
      </trkpt>
      <trkpt lat="44.02402" lon="6.01677">
        <ele>697</ele>
        <time>2021-12-21T10:45:02.000Z</time>
      </trkpt>
      <trkpt lat="44.02402" lon="6.01677">
        <ele>697</ele>
        <time>2021-12-21T10:45:03.000Z</time>
      </trkpt>
      <trkpt lat="44.02402" lon="6.01677">
        <ele>697</ele>
        <time>2021-12-21T10:45:04.000Z</time>
      </trkpt>
      <trkpt lat="44.02402" lon="6.01677">
        <ele>697</ele>
        <time>2021-12-21T10:45:05.000Z</time>
      </trkpt>
      <trkpt lat="44.02401" lon="6.01677">
        <ele>697</ele>
        <time>2021-12-21T10:45:06.000Z</time>
      </trkpt>
      <trkpt lat="44.02401" lon="6.01677">
        <ele>697</ele>
        <time>2021-12-21T10:45:07.000Z</time>
      </trkpt>
      <trkpt lat="44.02401" lon="6.01677">
        <ele>697</ele>
        <time>2021-12-21T10:45:08.000Z</time>
      </trkpt>
      <trkpt lat="44.02401" lon="6.01677">
        <ele>697</ele>
        <time>2021-12-21T10:45:09.000Z</time>
      </trkpt>
      <trkpt lat="44.02401" lon="6.01677">
        <ele>697</ele>
        <time>2021-12-21T10:45:10.000Z</time>
      </trkpt>
      <trkpt lat="44.02401" lon="6.01677">
        <ele>697</ele>
        <time>2021-12-21T10:45:11.000Z</time>
      </trkpt>
      <trkpt lat="44.02401" lon="6.01677">
        <ele>697</ele>
        <time>2021-12-21T10:45:12.000Z</time>
      </trkpt>
      <trkpt lat="44.02401" lon="6.01677">
        <ele>697</ele>
        <time>2021-12-21T10:45:13.000Z</time>
      </trkpt>
      <trkpt lat="44.02401" lon="6.01678">
        <ele>697</ele>
        <time>2021-12-21T10:45:14.000Z</time>
      </trkpt>
      <trkpt lat="44.02401" lon="6.01678">
        <ele>697</ele>
        <time>2021-12-21T10:45:15.000Z</time>
      </trkpt>
      <trkpt lat="44.02401" lon="6.01679">
        <ele>697</ele>
        <time>2021-12-21T10:45:16.000Z</time>
      </trkpt>
      <trkpt lat="44.02401" lon="6.01681">
        <ele>697</ele>
        <time>2021-12-21T10:45:17.000Z</time>
      </trkpt>
      <trkpt lat="44.024" lon="6.01681">
        <ele>697</ele>
        <time>2021-12-21T10:45:18.000Z</time>
      </trkpt>
      <trkpt lat="44.024" lon="6.01683">
        <ele>697</ele>
        <time>2021-12-21T10:45:19.000Z</time>
      </trkpt>
      <trkpt lat="44.02399" lon="6.01684">
        <ele>697</ele>
        <time>2021-12-21T10:45:20.000Z</time>
      </trkpt>
      <trkpt lat="44.02398" lon="6.01685">
        <ele>697</ele>
        <time>2021-12-21T10:45:21.000Z</time>
      </trkpt>
      <trkpt lat="44.02398" lon="6.01686">
        <ele>697</ele>
        <time>2021-12-21T10:45:22.000Z</time>
      </trkpt>
      <trkpt lat="44.02397" lon="6.01687">
        <ele>697</ele>
        <time>2021-12-21T10:45:23.000Z</time>
      </trkpt>
      <trkpt lat="44.02397" lon="6.01687">
        <ele>697</ele>
        <time>2021-12-21T10:45:24.000Z</time>
      </trkpt>
      <trkpt lat="44.02397" lon="6.01688">
        <ele>697</ele>
        <time>2021-12-21T10:45:25.000Z</time>
      </trkpt>
      <trkpt lat="44.02396" lon="6.01689">
        <ele>697</ele>
        <time>2021-12-21T10:45:26.000Z</time>
      </trkpt>
      <trkpt lat="44.02396" lon="6.0169">
        <ele>697</ele>
        <time>2021-12-21T10:45:27.000Z</time>
      </trkpt>
      <trkpt lat="44.02395" lon="6.0169">
        <ele>697</ele>
        <time>2021-12-21T10:45:28.000Z</time>
      </trkpt>
      <trkpt lat="44.02395" lon="6.01691">
        <ele>697</ele>
        <time>2021-12-21T10:45:29.000Z</time>
      </trkpt>
      <trkpt lat="44.02394" lon="6.01691">
        <ele>696</ele>
        <time>2021-12-21T10:45:30.000Z</time>
      </trkpt>
      <trkpt lat="44.02394" lon="6.01692">
        <ele>696</ele>
        <time>2021-12-21T10:45:31.000Z</time>
      </trkpt>
      <trkpt lat="44.02393" lon="6.01693">
        <ele>696</ele>
        <time>2021-12-21T10:45:32.000Z</time>
      </trkpt>
      <trkpt lat="44.02393" lon="6.01694">
        <ele>696</ele>
        <time>2021-12-21T10:45:33.000Z</time>
      </trkpt>
      <trkpt lat="44.02392" lon="6.01695">
        <ele>696</ele>
        <time>2021-12-21T10:45:34.000Z</time>
      </trkpt>
      <trkpt lat="44.02392" lon="6.01696">
        <ele>696</ele>
        <time>2021-12-21T10:45:35.000Z</time>
      </trkpt>
      <trkpt lat="44.02392" lon="6.01696">
        <ele>696</ele>
        <time>2021-12-21T10:45:36.000Z</time>
      </trkpt>
      <trkpt lat="44.02391" lon="6.01697">
        <ele>696</ele>
        <time>2021-12-21T10:45:37.000Z</time>
      </trkpt>
      <trkpt lat="44.02391" lon="6.01698">
        <ele>697</ele>
        <time>2021-12-21T10:45:38.000Z</time>
      </trkpt>
      <trkpt lat="44.02391" lon="6.01699">
        <ele>697</ele>
        <time>2021-12-21T10:45:39.000Z</time>
      </trkpt>
      <trkpt lat="44.0239" lon="6.017">
        <ele>697</ele>
        <time>2021-12-21T10:45:40.000Z</time>
      </trkpt>
      <trkpt lat="44.0239" lon="6.01701">
        <ele>697</ele>
        <time>2021-12-21T10:45:41.000Z</time>
      </trkpt>
      <trkpt lat="44.0239" lon="6.01702">
        <ele>697</ele>
        <time>2021-12-21T10:45:42.000Z</time>
      </trkpt>
      <trkpt lat="44.0239" lon="6.01703">
        <ele>697</ele>
        <time>2021-12-21T10:45:43.000Z</time>
      </trkpt>
      <trkpt lat="44.0239" lon="6.01704">
        <ele>697</ele>
        <time>2021-12-21T10:45:44.000Z</time>
      </trkpt>
      <trkpt lat="44.0239" lon="6.01705">
        <ele>697</ele>
        <time>2021-12-21T10:45:45.000Z</time>
      </trkpt>
      <trkpt lat="44.02389" lon="6.01706">
        <ele>697</ele>
        <time>2021-12-21T10:45:46.000Z</time>
      </trkpt>
      <trkpt lat="44.02389" lon="6.01707">
        <ele>697</ele>
        <time>2021-12-21T10:45:47.000Z</time>
      </trkpt>
      <trkpt lat="44.02389" lon="6.01708">
        <ele>697</ele>
        <time>2021-12-21T10:45:48.000Z</time>
      </trkpt>
      <trkpt lat="44.02389" lon="6.01709">
        <ele>698</ele>
        <time>2021-12-21T10:45:49.000Z</time>
      </trkpt>
      <trkpt lat="44.02388" lon="6.0171">
        <ele>698</ele>
        <time>2021-12-21T10:45:50.000Z</time>
      </trkpt>
      <trkpt lat="44.02388" lon="6.01711">
        <ele>698</ele>
        <time>2021-12-21T10:45:51.000Z</time>
      </trkpt>
      <trkpt lat="44.02387" lon="6.01712">
        <ele>698</ele>
        <time>2021-12-21T10:45:52.000Z</time>
      </trkpt>
      <trkpt lat="44.02386" lon="6.01713">
        <ele>698</ele>
        <time>2021-12-21T10:45:53.000Z</time>
      </trkpt>
      <trkpt lat="44.02385" lon="6.01713">
        <ele>698</ele>
        <time>2021-12-21T10:45:54.000Z</time>
      </trkpt>
      <trkpt lat="44.02385" lon="6.01714">
        <ele>698</ele>
        <time>2021-12-21T10:45:55.000Z</time>
      </trkpt>
      <trkpt lat="44.02384" lon="6.01715">
        <ele>698</ele>
        <time>2021-12-21T10:45:56.000Z</time>
      </trkpt>
      <trkpt lat="44.02384" lon="6.01716">
        <ele>698</ele>
        <time>2021-12-21T10:45:57.000Z</time>
      </trkpt>
      <trkpt lat="44.02383" lon="6.01717">
        <ele>698</ele>
        <time>2021-12-21T10:45:58.000Z</time>
      </trkpt>
      <trkpt lat="44.02383" lon="6.01717">
        <ele>698</ele>
        <time>2021-12-21T10:45:59.000Z</time>
      </trkpt>
      <trkpt lat="44.02383" lon="6.01718">
        <ele>698</ele>
        <time>2021-12-21T10:46:00.000Z</time>
      </trkpt>
      <trkpt lat="44.02382" lon="6.01719">
        <ele>698</ele>
        <time>2021-12-21T10:46:01.000Z</time>
      </trkpt>
      <trkpt lat="44.02382" lon="6.0172">
        <ele>698</ele>
        <time>2021-12-21T10:46:02.000Z</time>
      </trkpt>
      <trkpt lat="44.02381" lon="6.01721">
        <ele>699</ele>
        <time>2021-12-21T10:46:03.000Z</time>
      </trkpt>
      <trkpt lat="44.02381" lon="6.01722">
        <ele>699</ele>
        <time>2021-12-21T10:46:04.000Z</time>
      </trkpt>
      <trkpt lat="44.0238" lon="6.01722">
        <ele>699</ele>
        <time>2021-12-21T10:46:05.000Z</time>
      </trkpt>
      <trkpt lat="44.02379" lon="6.01724">
        <ele>699</ele>
        <time>2021-12-21T10:46:06.000Z</time>
      </trkpt>
      <trkpt lat="44.02379" lon="6.01725">
        <ele>699</ele>
        <time>2021-12-21T10:46:07.000Z</time>
      </trkpt>
      <trkpt lat="44.02379" lon="6.01725">
        <ele>699</ele>
        <time>2021-12-21T10:46:08.000Z</time>
      </trkpt>
      <trkpt lat="44.02378" lon="6.01726">
        <ele>699</ele>
        <time>2021-12-21T10:46:09.000Z</time>
      </trkpt>
      <trkpt lat="44.02378" lon="6.01727">
        <ele>699</ele>
        <time>2021-12-21T10:46:10.000Z</time>
      </trkpt>
      <trkpt lat="44.02377" lon="6.01729">
        <ele>700</ele>
        <time>2021-12-21T10:46:11.000Z</time>
      </trkpt>
      <trkpt lat="44.02377" lon="6.0173">
        <ele>700</ele>
        <time>2021-12-21T10:46:12.000Z</time>
      </trkpt>
      <trkpt lat="44.02376" lon="6.01731">
        <ele>700</ele>
        <time>2021-12-21T10:46:13.000Z</time>
      </trkpt>
      <trkpt lat="44.02376" lon="6.01732">
        <ele>700</ele>
        <time>2021-12-21T10:46:14.000Z</time>
      </trkpt>
      <trkpt lat="44.02375" lon="6.01733">
        <ele>700</ele>
        <time>2021-12-21T10:46:15.000Z</time>
      </trkpt>
      <trkpt lat="44.02375" lon="6.01734">
        <ele>701</ele>
        <time>2021-12-21T10:46:16.000Z</time>
      </trkpt>
      <trkpt lat="44.02374" lon="6.01735">
        <ele>701</ele>
        <time>2021-12-21T10:46:17.000Z</time>
      </trkpt>
      <trkpt lat="44.02374" lon="6.01736">
        <ele>701</ele>
        <time>2021-12-21T10:46:18.000Z</time>
      </trkpt>
      <trkpt lat="44.02373" lon="6.01736">
        <ele>701</ele>
        <time>2021-12-21T10:46:19.000Z</time>
      </trkpt>
      <trkpt lat="44.02373" lon="6.01738">
        <ele>701</ele>
        <time>2021-12-21T10:46:20.000Z</time>
      </trkpt>
      <trkpt lat="44.02372" lon="6.01739">
        <ele>701</ele>
        <time>2021-12-21T10:46:21.000Z</time>
      </trkpt>
      <trkpt lat="44.02372" lon="6.0174">
        <ele>701</ele>
        <time>2021-12-21T10:46:22.000Z</time>
      </trkpt>
      <trkpt lat="44.02371" lon="6.01741">
        <ele>702</ele>
        <time>2021-12-21T10:46:23.000Z</time>
      </trkpt>
      <trkpt lat="44.02371" lon="6.01742">
        <ele>702</ele>
        <time>2021-12-21T10:46:24.000Z</time>
      </trkpt>
      <trkpt lat="44.02371" lon="6.01743">
        <ele>702</ele>
        <time>2021-12-21T10:46:25.000Z</time>
      </trkpt>
      <trkpt lat="44.02371" lon="6.01744">
        <ele>702</ele>
        <time>2021-12-21T10:46:26.000Z</time>
      </trkpt>
      <trkpt lat="44.02371" lon="6.01745">
        <ele>702</ele>
        <time>2021-12-21T10:46:27.000Z</time>
      </trkpt>
      <trkpt lat="44.0237" lon="6.01746">
        <ele>702</ele>
        <time>2021-12-21T10:46:28.000Z</time>
      </trkpt>
      <trkpt lat="44.0237" lon="6.01747">
        <ele>702</ele>
        <time>2021-12-21T10:46:29.000Z</time>
      </trkpt>
      <trkpt lat="44.0237" lon="6.01748">
        <ele>703</ele>
        <time>2021-12-21T10:46:30.000Z</time>
      </trkpt>
      <trkpt lat="44.02369" lon="6.01749">
        <ele>703</ele>
        <time>2021-12-21T10:46:31.000Z</time>
      </trkpt>
      <trkpt lat="44.02369" lon="6.0175">
        <ele>703</ele>
        <time>2021-12-21T10:46:32.000Z</time>
      </trkpt>
      <trkpt lat="44.02368" lon="6.01751">
        <ele>703</ele>
        <time>2021-12-21T10:46:33.000Z</time>
      </trkpt>
      <trkpt lat="44.02368" lon="6.01752">
        <ele>703</ele>
        <time>2021-12-21T10:46:34.000Z</time>
      </trkpt>
      <trkpt lat="44.02367" lon="6.01753">
        <ele>703</ele>
        <time>2021-12-21T10:46:35.000Z</time>
      </trkpt>
      <trkpt lat="44.02367" lon="6.01755">
        <ele>704</ele>
        <time>2021-12-21T10:46:36.000Z</time>
      </trkpt>
      <trkpt lat="44.02366" lon="6.01756">
        <ele>704</ele>
        <time>2021-12-21T10:46:37.000Z</time>
      </trkpt>
      <trkpt lat="44.02366" lon="6.01757">
        <ele>704</ele>
        <time>2021-12-21T10:46:38.000Z</time>
      </trkpt>
      <trkpt lat="44.02366" lon="6.01758">
        <ele>704</ele>
        <time>2021-12-21T10:46:39.000Z</time>
      </trkpt>
      <trkpt lat="44.02366" lon="6.01759">
        <ele>704</ele>
        <time>2021-12-21T10:46:40.000Z</time>
      </trkpt>
      <trkpt lat="44.02366" lon="6.01761">
        <ele>705</ele>
        <time>2021-12-21T10:46:41.000Z</time>
      </trkpt>
      <trkpt lat="44.02366" lon="6.01761">
        <ele>705</ele>
        <time>2021-12-21T10:46:42.000Z</time>
      </trkpt>
      <trkpt lat="44.02366" lon="6.01762">
        <ele>705</ele>
        <time>2021-12-21T10:46:43.000Z</time>
      </trkpt>
      <trkpt lat="44.02366" lon="6.01763">
        <ele>706</ele>
        <time>2021-12-21T10:46:44.000Z</time>
      </trkpt>
      <trkpt lat="44.02366" lon="6.01764">
        <ele>706</ele>
        <time>2021-12-21T10:46:45.000Z</time>
      </trkpt>
      <trkpt lat="44.02366" lon="6.01764">
        <ele>706</ele>
        <time>2021-12-21T10:46:46.000Z</time>
      </trkpt>
      <trkpt lat="44.02366" lon="6.01765">
        <ele>706</ele>
        <time>2021-12-21T10:46:47.000Z</time>
      </trkpt>
      <trkpt lat="44.02366" lon="6.01765">
        <ele>706</ele>
        <time>2021-12-21T10:46:48.000Z</time>
      </trkpt>
      <trkpt lat="44.02366" lon="6.01765">
        <ele>706</ele>
        <time>2021-12-21T10:46:49.000Z</time>
      </trkpt>
      <trkpt lat="44.02366" lon="6.01765">
        <ele>706</ele>
        <time>2021-12-21T10:46:50.000Z</time>
      </trkpt>
      <trkpt lat="44.02366" lon="6.01765">
        <ele>706</ele>
        <time>2021-12-21T10:46:51.000Z</time>
      </trkpt>
      <trkpt lat="44.02366" lon="6.01765">
        <ele>706</ele>
        <time>2021-12-21T10:46:52.000Z</time>
      </trkpt>
      <trkpt lat="44.02366" lon="6.01765">
        <ele>706</ele>
        <time>2021-12-21T10:46:53.000Z</time>
      </trkpt>
      <trkpt lat="44.02366" lon="6.01765">
        <ele>706</ele>
        <time>2021-12-21T10:46:54.000Z</time>
      </trkpt>
      <trkpt lat="44.02366" lon="6.01765">
        <ele>706</ele>
        <time>2021-12-21T10:46:55.000Z</time>
      </trkpt>
      <trkpt lat="44.02366" lon="6.01765">
        <ele>706</ele>
        <time>2021-12-21T10:46:56.000Z</time>
      </trkpt>
      <trkpt lat="44.02366" lon="6.01765">
        <ele>706</ele>
        <time>2021-12-21T10:46:57.000Z</time>
      </trkpt>
      <trkpt lat="44.02366" lon="6.01765">
        <ele>706</ele>
        <time>2021-12-21T10:46:58.000Z</time>
      </trkpt>
      <trkpt lat="44.02366" lon="6.01765">
        <ele>706</ele>
        <time>2021-12-21T10:46:59.000Z</time>
      </trkpt>
      <trkpt lat="44.02366" lon="6.01765">
        <ele>706</ele>
        <time>2021-12-21T10:47:00.000Z</time>
      </trkpt>
      <trkpt lat="44.02366" lon="6.01765">
        <ele>706</ele>
        <time>2021-12-21T10:47:01.000Z</time>
      </trkpt>
      <trkpt lat="44.02366" lon="6.01765">
        <ele>706</ele>
        <time>2021-12-21T10:47:02.000Z</time>
      </trkpt>
      <trkpt lat="44.02366" lon="6.01766">
        <ele>707</ele>
        <time>2021-12-21T10:47:03.000Z</time>
      </trkpt>
      <trkpt lat="44.02366" lon="6.01766">
        <ele>707</ele>
        <time>2021-12-21T10:47:04.000Z</time>
      </trkpt>
      <trkpt lat="44.02366" lon="6.01766">
        <ele>707</ele>
        <time>2021-12-21T10:47:05.000Z</time>
      </trkpt>
      <trkpt lat="44.02366" lon="6.01766">
        <ele>707</ele>
        <time>2021-12-21T10:47:06.000Z</time>
      </trkpt>
      <trkpt lat="44.02366" lon="6.01766">
        <ele>707</ele>
        <time>2021-12-21T10:47:07.000Z</time>
      </trkpt>
      <trkpt lat="44.02366" lon="6.01766">
        <ele>707</ele>
        <time>2021-12-21T10:47:08.000Z</time>
      </trkpt>
      <trkpt lat="44.02366" lon="6.01766">
        <ele>707</ele>
        <time>2021-12-21T10:47:09.000Z</time>
      </trkpt>
      <trkpt lat="44.02366" lon="6.01766">
        <ele>707</ele>
        <time>2021-12-21T10:47:10.000Z</time>
      </trkpt>
      <trkpt lat="44.02366" lon="6.01765">
        <ele>707</ele>
        <time>2021-12-21T10:47:11.000Z</time>
      </trkpt>
      <trkpt lat="44.02366" lon="6.01765">
        <ele>707</ele>
        <time>2021-12-21T10:47:12.000Z</time>
      </trkpt>
      <trkpt lat="44.02366" lon="6.01765">
        <ele>707</ele>
        <time>2021-12-21T10:47:13.000Z</time>
      </trkpt>
      <trkpt lat="44.02366" lon="6.01765">
        <ele>707</ele>
        <time>2021-12-21T10:47:14.000Z</time>
      </trkpt>
      <trkpt lat="44.02366" lon="6.01765">
        <ele>707</ele>
        <time>2021-12-21T10:47:15.000Z</time>
      </trkpt>
      <trkpt lat="44.02366" lon="6.01765">
        <ele>706</ele>
        <time>2021-12-21T10:47:16.000Z</time>
      </trkpt>
      <trkpt lat="44.02366" lon="6.01765">
        <ele>706</ele>
        <time>2021-12-21T10:47:17.000Z</time>
      </trkpt>
      <trkpt lat="44.02366" lon="6.01765">
        <ele>706</ele>
        <time>2021-12-21T10:47:18.000Z</time>
      </trkpt>
      <trkpt lat="44.02366" lon="6.01765">
        <ele>706</ele>
        <time>2021-12-21T10:47:19.000Z</time>
      </trkpt>
      <trkpt lat="44.02366" lon="6.01765">
        <ele>706</ele>
        <time>2021-12-21T10:47:20.000Z</time>
      </trkpt>
      <trkpt lat="44.02366" lon="6.01765">
        <ele>706</ele>
        <time>2021-12-21T10:47:21.000Z</time>
      </trkpt>
      <trkpt lat="44.02366" lon="6.01765">
        <ele>706</ele>
        <time>2021-12-21T10:47:22.000Z</time>
      </trkpt>
      <trkpt lat="44.02366" lon="6.01765">
        <ele>706</ele>
        <time>2021-12-21T10:47:23.000Z</time>
      </trkpt>
      <trkpt lat="44.02367" lon="6.01766">
        <ele>706</ele>
        <time>2021-12-21T10:47:24.000Z</time>
      </trkpt>
      <trkpt lat="44.02366" lon="6.01766">
        <ele>706</ele>
        <time>2021-12-21T10:47:25.000Z</time>
      </trkpt>
      <trkpt lat="44.02366" lon="6.01766">
        <ele>706</ele>
        <time>2021-12-21T10:47:26.000Z</time>
      </trkpt>
      <trkpt lat="44.02366" lon="6.01766">
        <ele>706</ele>
        <time>2021-12-21T10:47:27.000Z</time>
      </trkpt>
      <trkpt lat="44.02366" lon="6.01766">
        <ele>706</ele>
        <time>2021-12-21T10:47:28.000Z</time>
      </trkpt>
      <trkpt lat="44.02366" lon="6.01766">
        <ele>706</ele>
        <time>2021-12-21T10:47:29.000Z</time>
      </trkpt>
      <trkpt lat="44.02366" lon="6.01766">
        <ele>706</ele>
        <time>2021-12-21T10:47:30.000Z</time>
      </trkpt>
      <trkpt lat="44.02366" lon="6.01766">
        <ele>706</ele>
        <time>2021-12-21T10:47:31.000Z</time>
      </trkpt>
      <trkpt lat="44.02366" lon="6.01766">
        <ele>706</ele>
        <time>2021-12-21T10:47:32.000Z</time>
      </trkpt>
      <trkpt lat="44.02366" lon="6.01766">
        <ele>706</ele>
        <time>2021-12-21T10:47:33.000Z</time>
      </trkpt>
      <trkpt lat="44.02367" lon="6.01766">
        <ele>706</ele>
        <time>2021-12-21T10:47:34.000Z</time>
      </trkpt>
      <trkpt lat="44.02366" lon="6.01766">
        <ele>706</ele>
        <time>2021-12-21T10:47:35.000Z</time>
      </trkpt>
      <trkpt lat="44.02366" lon="6.01766">
        <ele>706</ele>
        <time>2021-12-21T10:47:36.000Z</time>
      </trkpt>
      <trkpt lat="44.02366" lon="6.01766">
        <ele>706</ele>
        <time>2021-12-21T10:47:37.000Z</time>
      </trkpt>
      <trkpt lat="44.02367" lon="6.01766">
        <ele>706</ele>
        <time>2021-12-21T10:47:38.000Z</time>
      </trkpt>
      <trkpt lat="44.02367" lon="6.01766">
        <ele>706</ele>
        <time>2021-12-21T10:47:39.000Z</time>
      </trkpt>
      <trkpt lat="44.02367" lon="6.01766">
        <ele>706</ele>
        <time>2021-12-21T10:47:40.000Z</time>
      </trkpt>
      <trkpt lat="44.02367" lon="6.01766">
        <ele>706</ele>
        <time>2021-12-21T10:47:41.000Z</time>
      </trkpt>
      <trkpt lat="44.02366" lon="6.01766">
        <ele>706</ele>
        <time>2021-12-21T10:47:42.000Z</time>
      </trkpt>
      <trkpt lat="44.02366" lon="6.01766">
        <ele>706</ele>
        <time>2021-12-21T10:47:43.000Z</time>
      </trkpt>
      <trkpt lat="44.02367" lon="6.01766">
        <ele>706</ele>
        <time>2021-12-21T10:47:44.000Z</time>
      </trkpt>
      <trkpt lat="44.02367" lon="6.01766">
        <ele>706</ele>
        <time>2021-12-21T10:47:45.000Z</time>
      </trkpt>
      <trkpt lat="44.02367" lon="6.01767">
        <ele>706</ele>
        <time>2021-12-21T10:47:46.000Z</time>
      </trkpt>
      <trkpt lat="44.02367" lon="6.01767">
        <ele>706</ele>
        <time>2021-12-21T10:47:47.000Z</time>
      </trkpt>
      <trkpt lat="44.02367" lon="6.01768">
        <ele>706</ele>
        <time>2021-12-21T10:47:48.000Z</time>
      </trkpt>
      <trkpt lat="44.02367" lon="6.01769">
        <ele>706</ele>
        <time>2021-12-21T10:47:49.000Z</time>
      </trkpt>
      <trkpt lat="44.02367" lon="6.0177">
        <ele>706</ele>
        <time>2021-12-21T10:47:50.000Z</time>
      </trkpt>
      <trkpt lat="44.02367" lon="6.01771">
        <ele>706</ele>
        <time>2021-12-21T10:47:51.000Z</time>
      </trkpt>
      <trkpt lat="44.02366" lon="6.01772">
        <ele>706</ele>
        <time>2021-12-21T10:47:52.000Z</time>
      </trkpt>
      <trkpt lat="44.02366" lon="6.01773">
        <ele>706</ele>
        <time>2021-12-21T10:47:53.000Z</time>
      </trkpt>
      <trkpt lat="44.02365" lon="6.01774">
        <ele>706</ele>
        <time>2021-12-21T10:47:54.000Z</time>
      </trkpt>
      <trkpt lat="44.02365" lon="6.01775">
        <ele>706</ele>
        <time>2021-12-21T10:47:55.000Z</time>
      </trkpt>
      <trkpt lat="44.02364" lon="6.01775">
        <ele>706</ele>
        <time>2021-12-21T10:47:56.000Z</time>
      </trkpt>
      <trkpt lat="44.02364" lon="6.01776">
        <ele>707</ele>
        <time>2021-12-21T10:47:57.000Z</time>
      </trkpt>
      <trkpt lat="44.02363" lon="6.01777">
        <ele>707</ele>
        <time>2021-12-21T10:47:58.000Z</time>
      </trkpt>
      <trkpt lat="44.02363" lon="6.01779">
        <ele>707</ele>
        <time>2021-12-21T10:47:59.000Z</time>
      </trkpt>
      <trkpt lat="44.02363" lon="6.0178">
        <ele>707</ele>
        <time>2021-12-21T10:48:00.000Z</time>
      </trkpt>
      <trkpt lat="44.02363" lon="6.01781">
        <ele>707</ele>
        <time>2021-12-21T10:48:01.000Z</time>
      </trkpt>
      <trkpt lat="44.02363" lon="6.01782">
        <ele>707</ele>
        <time>2021-12-21T10:48:02.000Z</time>
      </trkpt>
      <trkpt lat="44.02362" lon="6.01783">
        <ele>707</ele>
        <time>2021-12-21T10:48:03.000Z</time>
      </trkpt>
      <trkpt lat="44.02362" lon="6.01785">
        <ele>708</ele>
        <time>2021-12-21T10:48:04.000Z</time>
      </trkpt>
      <trkpt lat="44.02362" lon="6.01786">
        <ele>708</ele>
        <time>2021-12-21T10:48:05.000Z</time>
      </trkpt>
      <trkpt lat="44.02362" lon="6.01787">
        <ele>708</ele>
        <time>2021-12-21T10:48:06.000Z</time>
      </trkpt>
      <trkpt lat="44.02362" lon="6.01789">
        <ele>708</ele>
        <time>2021-12-21T10:48:07.000Z</time>
      </trkpt>
      <trkpt lat="44.02362" lon="6.01789">
        <ele>708</ele>
        <time>2021-12-21T10:48:08.000Z</time>
      </trkpt>
      <trkpt lat="44.02362" lon="6.0179">
        <ele>708</ele>
        <time>2021-12-21T10:48:09.000Z</time>
      </trkpt>
      <trkpt lat="44.02362" lon="6.0179">
        <ele>708</ele>
        <time>2021-12-21T10:48:10.000Z</time>
      </trkpt>
      <trkpt lat="44.02362" lon="6.0179">
        <ele>708</ele>
        <time>2021-12-21T10:48:11.000Z</time>
      </trkpt>
      <trkpt lat="44.02362" lon="6.0179">
        <ele>708</ele>
        <time>2021-12-21T10:48:12.000Z</time>
      </trkpt>
      <trkpt lat="44.02362" lon="6.0179">
        <ele>708</ele>
        <time>2021-12-21T10:48:13.000Z</time>
      </trkpt>
      <trkpt lat="44.02362" lon="6.0179">
        <ele>708</ele>
        <time>2021-12-21T10:48:14.000Z</time>
      </trkpt>
      <trkpt lat="44.02362" lon="6.0179">
        <ele>708</ele>
        <time>2021-12-21T10:48:15.000Z</time>
      </trkpt>
      <trkpt lat="44.02362" lon="6.0179">
        <ele>708</ele>
        <time>2021-12-21T10:48:16.000Z</time>
      </trkpt>
      <trkpt lat="44.02362" lon="6.0179">
        <ele>708</ele>
        <time>2021-12-21T10:48:17.000Z</time>
      </trkpt>
      <trkpt lat="44.02362" lon="6.0179">
        <ele>708</ele>
        <time>2021-12-21T10:48:18.000Z</time>
      </trkpt>
      <trkpt lat="44.02362" lon="6.0179">
        <ele>708</ele>
        <time>2021-12-21T10:48:19.000Z</time>
      </trkpt>
      <trkpt lat="44.02362" lon="6.0179">
        <ele>708</ele>
        <time>2021-12-21T10:48:20.000Z</time>
      </trkpt>
      <trkpt lat="44.02362" lon="6.0179">
        <ele>708</ele>
        <time>2021-12-21T10:48:21.000Z</time>
      </trkpt>
      <trkpt lat="44.02362" lon="6.0179">
        <ele>708</ele>
        <time>2021-12-21T10:48:22.000Z</time>
      </trkpt>
      <trkpt lat="44.02362" lon="6.0179">
        <ele>708</ele>
        <time>2021-12-21T10:48:23.000Z</time>
      </trkpt>
      <trkpt lat="44.02362" lon="6.0179">
        <ele>708</ele>
        <time>2021-12-21T10:48:24.000Z</time>
      </trkpt>
      <trkpt lat="44.02362" lon="6.0179">
        <ele>708</ele>
        <time>2021-12-21T10:48:25.000Z</time>
      </trkpt>
      <trkpt lat="44.02362" lon="6.0179">
        <ele>708</ele>
        <time>2021-12-21T10:48:26.000Z</time>
      </trkpt>
      <trkpt lat="44.02362" lon="6.0179">
        <ele>708</ele>
        <time>2021-12-21T10:48:27.000Z</time>
      </trkpt>
      <trkpt lat="44.02362" lon="6.0179">
        <ele>708</ele>
        <time>2021-12-21T10:48:28.000Z</time>
      </trkpt>
      <trkpt lat="44.02362" lon="6.0179">
        <ele>708</ele>
        <time>2021-12-21T10:48:29.000Z</time>
      </trkpt>
      <trkpt lat="44.02362" lon="6.0179">
        <ele>708</ele>
        <time>2021-12-21T10:48:30.000Z</time>
      </trkpt>
      <trkpt lat="44.02362" lon="6.0179">
        <ele>708</ele>
        <time>2021-12-21T10:48:31.000Z</time>
      </trkpt>
      <trkpt lat="44.02362" lon="6.0179">
        <ele>708</ele>
        <time>2021-12-21T10:48:32.000Z</time>
      </trkpt>
      <trkpt lat="44.02362" lon="6.0179">
        <ele>708</ele>
        <time>2021-12-21T10:48:33.000Z</time>
      </trkpt>
      <trkpt lat="44.02362" lon="6.0179">
        <ele>708</ele>
        <time>2021-12-21T10:48:34.000Z</time>
      </trkpt>
      <trkpt lat="44.02362" lon="6.0179">
        <ele>708</ele>
        <time>2021-12-21T10:48:35.000Z</time>
      </trkpt>
      <trkpt lat="44.02362" lon="6.0179">
        <ele>708</ele>
        <time>2021-12-21T10:48:36.000Z</time>
      </trkpt>
      <trkpt lat="44.02362" lon="6.0179">
        <ele>708</ele>
        <time>2021-12-21T10:48:37.000Z</time>
      </trkpt>
      <trkpt lat="44.02362" lon="6.0179">
        <ele>708</ele>
        <time>2021-12-21T10:48:38.000Z</time>
      </trkpt>
      <trkpt lat="44.02362" lon="6.0179">
        <ele>708</ele>
        <time>2021-12-21T10:48:39.000Z</time>
      </trkpt>
      <trkpt lat="44.02362" lon="6.0179">
        <ele>708</ele>
        <time>2021-12-21T10:48:40.000Z</time>
      </trkpt>
      <trkpt lat="44.02362" lon="6.0179">
        <ele>708</ele>
        <time>2021-12-21T10:48:41.000Z</time>
      </trkpt>
      <trkpt lat="44.02362" lon="6.0179">
        <ele>708</ele>
        <time>2021-12-21T10:48:42.000Z</time>
      </trkpt>
      <trkpt lat="44.02362" lon="6.0179">
        <ele>708</ele>
        <time>2021-12-21T10:48:43.000Z</time>
      </trkpt>
      <trkpt lat="44.02362" lon="6.0179">
        <ele>708</ele>
        <time>2021-12-21T10:48:44.000Z</time>
      </trkpt>
      <trkpt lat="44.02362" lon="6.0179">
        <ele>708</ele>
        <time>2021-12-21T10:48:45.000Z</time>
      </trkpt>
      <trkpt lat="44.02362" lon="6.0179">
        <ele>708</ele>
        <time>2021-12-21T10:48:46.000Z</time>
      </trkpt>
      <trkpt lat="44.02362" lon="6.0179">
        <ele>708</ele>
        <time>2021-12-21T10:48:47.000Z</time>
      </trkpt>
      <trkpt lat="44.02362" lon="6.0179">
        <ele>708</ele>
        <time>2021-12-21T10:48:48.000Z</time>
      </trkpt>
      <trkpt lat="44.02362" lon="6.0179">
        <ele>708</ele>
        <time>2021-12-21T10:48:49.000Z</time>
      </trkpt>
      <trkpt lat="44.02362" lon="6.0179">
        <ele>708</ele>
        <time>2021-12-21T10:48:50.000Z</time>
      </trkpt>
      <trkpt lat="44.02362" lon="6.0179">
        <ele>708</ele>
        <time>2021-12-21T10:48:51.000Z</time>
      </trkpt>
      <trkpt lat="44.02362" lon="6.0179">
        <ele>708</ele>
        <time>2021-12-21T10:48:52.000Z</time>
      </trkpt>
      <trkpt lat="44.02362" lon="6.0179">
        <ele>708</ele>
        <time>2021-12-21T10:48:53.000Z</time>
      </trkpt>
      <trkpt lat="44.02362" lon="6.0179">
        <ele>708</ele>
        <time>2021-12-21T10:48:54.000Z</time>
      </trkpt>
      <trkpt lat="44.02362" lon="6.0179">
        <ele>708</ele>
        <time>2021-12-21T10:48:55.000Z</time>
      </trkpt>
      <trkpt lat="44.02362" lon="6.0179">
        <ele>708</ele>
        <time>2021-12-21T10:48:56.000Z</time>
      </trkpt>
      <trkpt lat="44.02362" lon="6.0179">
        <ele>708</ele>
        <time>2021-12-21T10:48:57.000Z</time>
      </trkpt>
      <trkpt lat="44.02362" lon="6.0179">
        <ele>708</ele>
        <time>2021-12-21T10:48:58.000Z</time>
      </trkpt>
      <trkpt lat="44.02362" lon="6.0179">
        <ele>708</ele>
        <time>2021-12-21T10:48:59.000Z</time>
      </trkpt>
      <trkpt lat="44.02362" lon="6.0179">
        <ele>708</ele>
        <time>2021-12-21T10:49:00.000Z</time>
      </trkpt>
      <trkpt lat="44.02362" lon="6.0179">
        <ele>708</ele>
        <time>2021-12-21T10:49:01.000Z</time>
      </trkpt>
      <trkpt lat="44.02362" lon="6.0179">
        <ele>708</ele>
        <time>2021-12-21T10:49:02.000Z</time>
      </trkpt>
      <trkpt lat="44.02362" lon="6.0179">
        <ele>708</ele>
        <time>2021-12-21T10:49:03.000Z</time>
      </trkpt>
      <trkpt lat="44.02362" lon="6.0179">
        <ele>708</ele>
        <time>2021-12-21T10:49:04.000Z</time>
      </trkpt>
      <trkpt lat="44.02362" lon="6.0179">
        <ele>708</ele>
        <time>2021-12-21T10:49:05.000Z</time>
      </trkpt>
      <trkpt lat="44.02362" lon="6.0179">
        <ele>708</ele>
        <time>2021-12-21T10:49:06.000Z</time>
      </trkpt>
      <trkpt lat="44.02362" lon="6.0179">
        <ele>708</ele>
        <time>2021-12-21T10:49:07.000Z</time>
      </trkpt>
      <trkpt lat="44.02362" lon="6.0179">
        <ele>708</ele>
        <time>2021-12-21T10:49:08.000Z</time>
      </trkpt>
      <trkpt lat="44.02362" lon="6.0179">
        <ele>708</ele>
        <time>2021-12-21T10:49:09.000Z</time>
      </trkpt>
      <trkpt lat="44.02362" lon="6.0179">
        <ele>708</ele>
        <time>2021-12-21T10:49:10.000Z</time>
      </trkpt>
      <trkpt lat="44.02362" lon="6.0179">
        <ele>708</ele>
        <time>2021-12-21T10:49:11.000Z</time>
      </trkpt>
      <trkpt lat="44.02362" lon="6.0179">
        <ele>708</ele>
        <time>2021-12-21T10:49:12.000Z</time>
      </trkpt>
      <trkpt lat="44.02362" lon="6.0179">
        <ele>708</ele>
        <time>2021-12-21T10:49:13.000Z</time>
      </trkpt>
      <trkpt lat="44.02362" lon="6.0179">
        <ele>708</ele>
        <time>2021-12-21T10:49:14.000Z</time>
      </trkpt>
      <trkpt lat="44.02362" lon="6.0179">
        <ele>708</ele>
        <time>2021-12-21T10:49:15.000Z</time>
      </trkpt>
      <trkpt lat="44.02362" lon="6.0179">
        <ele>708</ele>
        <time>2021-12-21T10:49:16.000Z</time>
      </trkpt>
      <trkpt lat="44.02362" lon="6.0179">
        <ele>708</ele>
        <time>2021-12-21T10:49:17.000Z</time>
      </trkpt>
      <trkpt lat="44.02362" lon="6.0179">
        <ele>708</ele>
        <time>2021-12-21T10:49:18.000Z</time>
      </trkpt>
      <trkpt lat="44.02362" lon="6.0179">
        <ele>708</ele>
        <time>2021-12-21T10:49:19.000Z</time>
      </trkpt>
      <trkpt lat="44.02362" lon="6.0179">
        <ele>708</ele>
        <time>2021-12-21T10:49:20.000Z</time>
      </trkpt>
      <trkpt lat="44.02362" lon="6.0179">
        <ele>708</ele>
        <time>2021-12-21T10:49:21.000Z</time>
      </trkpt>
      <trkpt lat="44.02362" lon="6.0179">
        <ele>708</ele>
        <time>2021-12-21T10:49:22.000Z</time>
      </trkpt>
      <trkpt lat="44.02362" lon="6.0179">
        <ele>708</ele>
        <time>2021-12-21T10:49:23.000Z</time>
      </trkpt>
      <trkpt lat="44.02362" lon="6.0179">
        <ele>708</ele>
        <time>2021-12-21T10:49:24.000Z</time>
      </trkpt>
      <trkpt lat="44.02362" lon="6.0179">
        <ele>708</ele>
        <time>2021-12-21T10:49:25.000Z</time>
      </trkpt>
      <trkpt lat="44.02362" lon="6.01791">
        <ele>708</ele>
        <time>2021-12-21T10:49:26.000Z</time>
      </trkpt>
      <trkpt lat="44.02362" lon="6.01792">
        <ele>708</ele>
        <time>2021-12-21T10:49:27.000Z</time>
      </trkpt>
      <trkpt lat="44.02362" lon="6.01793">
        <ele>708</ele>
        <time>2021-12-21T10:49:28.000Z</time>
      </trkpt>
      <trkpt lat="44.02362" lon="6.01795">
        <ele>708</ele>
        <time>2021-12-21T10:49:29.000Z</time>
      </trkpt>
      <trkpt lat="44.02362" lon="6.01796">
        <ele>708</ele>
        <time>2021-12-21T10:49:30.000Z</time>
      </trkpt>
      <trkpt lat="44.02362" lon="6.01797">
        <ele>708</ele>
        <time>2021-12-21T10:49:31.000Z</time>
      </trkpt>
      <trkpt lat="44.02362" lon="6.01799">
        <ele>708</ele>
        <time>2021-12-21T10:49:32.000Z</time>
      </trkpt>
      <trkpt lat="44.02362" lon="6.018">
        <ele>708</ele>
        <time>2021-12-21T10:49:33.000Z</time>
      </trkpt>
      <trkpt lat="44.02362" lon="6.01801">
        <ele>708</ele>
        <time>2021-12-21T10:49:34.000Z</time>
      </trkpt>
      <trkpt lat="44.02362" lon="6.01803">
        <ele>708</ele>
        <time>2021-12-21T10:49:35.000Z</time>
      </trkpt>
      <trkpt lat="44.02362" lon="6.01804">
        <ele>708</ele>
        <time>2021-12-21T10:49:36.000Z</time>
      </trkpt>
      <trkpt lat="44.02363" lon="6.01805">
        <ele>709</ele>
        <time>2021-12-21T10:49:37.000Z</time>
      </trkpt>
      <trkpt lat="44.02363" lon="6.01806">
        <ele>709</ele>
        <time>2021-12-21T10:49:38.000Z</time>
      </trkpt>
      <trkpt lat="44.02363" lon="6.01808">
        <ele>709</ele>
        <time>2021-12-21T10:49:39.000Z</time>
      </trkpt>
      <trkpt lat="44.02363" lon="6.01809">
        <ele>709</ele>
        <time>2021-12-21T10:49:40.000Z</time>
      </trkpt>
      <trkpt lat="44.02363" lon="6.0181">
        <ele>709</ele>
        <time>2021-12-21T10:49:41.000Z</time>
      </trkpt>
      <trkpt lat="44.02363" lon="6.01811">
        <ele>709</ele>
        <time>2021-12-21T10:49:42.000Z</time>
      </trkpt>
      <trkpt lat="44.02363" lon="6.01812">
        <ele>709</ele>
        <time>2021-12-21T10:49:43.000Z</time>
      </trkpt>
      <trkpt lat="44.02363" lon="6.01814">
        <ele>709</ele>
        <time>2021-12-21T10:49:44.000Z</time>
      </trkpt>
      <trkpt lat="44.02362" lon="6.01815">
        <ele>709</ele>
        <time>2021-12-21T10:49:45.000Z</time>
      </trkpt>
      <trkpt lat="44.02362" lon="6.01816">
        <ele>709</ele>
        <time>2021-12-21T10:49:46.000Z</time>
      </trkpt>
      <trkpt lat="44.02362" lon="6.01817">
        <ele>710</ele>
        <time>2021-12-21T10:49:47.000Z</time>
      </trkpt>
      <trkpt lat="44.02362" lon="6.01819">
        <ele>710</ele>
        <time>2021-12-21T10:49:48.000Z</time>
      </trkpt>
      <trkpt lat="44.02362" lon="6.0182">
        <ele>710</ele>
        <time>2021-12-21T10:49:49.000Z</time>
      </trkpt>
      <trkpt lat="44.02361" lon="6.01821">
        <ele>710</ele>
        <time>2021-12-21T10:49:50.000Z</time>
      </trkpt>
      <trkpt lat="44.02361" lon="6.01822">
        <ele>710</ele>
        <time>2021-12-21T10:49:51.000Z</time>
      </trkpt>
      <trkpt lat="44.02361" lon="6.01823">
        <ele>710</ele>
        <time>2021-12-21T10:49:52.000Z</time>
      </trkpt>
      <trkpt lat="44.02361" lon="6.01824">
        <ele>710</ele>
        <time>2021-12-21T10:49:53.000Z</time>
      </trkpt>
      <trkpt lat="44.0236" lon="6.01825">
        <ele>710</ele>
        <time>2021-12-21T10:49:54.000Z</time>
      </trkpt>
      <trkpt lat="44.0236" lon="6.01826">
        <ele>710</ele>
        <time>2021-12-21T10:49:55.000Z</time>
      </trkpt>
      <trkpt lat="44.0236" lon="6.01828">
        <ele>710</ele>
        <time>2021-12-21T10:49:56.000Z</time>
      </trkpt>
      <trkpt lat="44.0236" lon="6.01829">
        <ele>711</ele>
        <time>2021-12-21T10:49:57.000Z</time>
      </trkpt>
      <trkpt lat="44.02359" lon="6.0183">
        <ele>711</ele>
        <time>2021-12-21T10:49:58.000Z</time>
      </trkpt>
      <trkpt lat="44.0236" lon="6.01831">
        <ele>711</ele>
        <time>2021-12-21T10:49:59.000Z</time>
      </trkpt>
      <trkpt lat="44.0236" lon="6.01832">
        <ele>711</ele>
        <time>2021-12-21T10:50:00.000Z</time>
      </trkpt>
      <trkpt lat="44.0236" lon="6.01833">
        <ele>711</ele>
        <time>2021-12-21T10:50:01.000Z</time>
      </trkpt>
      <trkpt lat="44.02361" lon="6.01834">
        <ele>712</ele>
        <time>2021-12-21T10:50:02.000Z</time>
      </trkpt>
      <trkpt lat="44.02361" lon="6.01835">
        <ele>712</ele>
        <time>2021-12-21T10:50:03.000Z</time>
      </trkpt>
      <trkpt lat="44.02361" lon="6.01836">
        <ele>712</ele>
        <time>2021-12-21T10:50:04.000Z</time>
      </trkpt>
      <trkpt lat="44.02361" lon="6.01837">
        <ele>712</ele>
        <time>2021-12-21T10:50:05.000Z</time>
      </trkpt>
      <trkpt lat="44.02361" lon="6.01838">
        <ele>712</ele>
        <time>2021-12-21T10:50:06.000Z</time>
      </trkpt>
      <trkpt lat="44.02361" lon="6.01839">
        <ele>713</ele>
        <time>2021-12-21T10:50:07.000Z</time>
      </trkpt>
      <trkpt lat="44.02361" lon="6.0184">
        <ele>713</ele>
        <time>2021-12-21T10:50:08.000Z</time>
      </trkpt>
      <trkpt lat="44.02361" lon="6.01841">
        <ele>713</ele>
        <time>2021-12-21T10:50:09.000Z</time>
      </trkpt>
      <trkpt lat="44.02361" lon="6.01842">
        <ele>713</ele>
        <time>2021-12-21T10:50:10.000Z</time>
      </trkpt>
      <trkpt lat="44.02362" lon="6.01843">
        <ele>714</ele>
        <time>2021-12-21T10:50:11.000Z</time>
      </trkpt>
      <trkpt lat="44.02362" lon="6.01844">
        <ele>714</ele>
        <time>2021-12-21T10:50:12.000Z</time>
      </trkpt>
      <trkpt lat="44.02362" lon="6.01845">
        <ele>714</ele>
        <time>2021-12-21T10:50:13.000Z</time>
      </trkpt>
      <trkpt lat="44.02362" lon="6.01846">
        <ele>714</ele>
        <time>2021-12-21T10:50:14.000Z</time>
      </trkpt>
      <trkpt lat="44.02362" lon="6.01848">
        <ele>714</ele>
        <time>2021-12-21T10:50:15.000Z</time>
      </trkpt>
      <trkpt lat="44.02362" lon="6.01849">
        <ele>714</ele>
        <time>2021-12-21T10:50:16.000Z</time>
      </trkpt>
      <trkpt lat="44.02362" lon="6.0185">
        <ele>714</ele>
        <time>2021-12-21T10:50:17.000Z</time>
      </trkpt>
      <trkpt lat="44.02361" lon="6.01851">
        <ele>715</ele>
        <time>2021-12-21T10:50:18.000Z</time>
      </trkpt>
      <trkpt lat="44.02362" lon="6.01852">
        <ele>715</ele>
        <time>2021-12-21T10:50:19.000Z</time>
      </trkpt>
      <trkpt lat="44.02361" lon="6.01853">
        <ele>715</ele>
        <time>2021-12-21T10:50:20.000Z</time>
      </trkpt>
      <trkpt lat="44.02361" lon="6.01854">
        <ele>715</ele>
        <time>2021-12-21T10:50:21.000Z</time>
      </trkpt>
      <trkpt lat="44.02361" lon="6.01855">
        <ele>715</ele>
        <time>2021-12-21T10:50:22.000Z</time>
      </trkpt>
      <trkpt lat="44.02361" lon="6.01856">
        <ele>715</ele>
        <time>2021-12-21T10:50:23.000Z</time>
      </trkpt>
      <trkpt lat="44.02361" lon="6.01857">
        <ele>715</ele>
        <time>2021-12-21T10:50:24.000Z</time>
      </trkpt>
      <trkpt lat="44.02361" lon="6.01858">
        <ele>715</ele>
        <time>2021-12-21T10:50:25.000Z</time>
      </trkpt>
      <trkpt lat="44.02361" lon="6.01859">
        <ele>716</ele>
        <time>2021-12-21T10:50:26.000Z</time>
      </trkpt>
      <trkpt lat="44.02361" lon="6.0186">
        <ele>716</ele>
        <time>2021-12-21T10:50:27.000Z</time>
      </trkpt>
      <trkpt lat="44.02361" lon="6.01862">
        <ele>716</ele>
        <time>2021-12-21T10:50:28.000Z</time>
      </trkpt>
      <trkpt lat="44.02361" lon="6.01862">
        <ele>716</ele>
        <time>2021-12-21T10:50:29.000Z</time>
      </trkpt>
      <trkpt lat="44.02361" lon="6.01864">
        <ele>716</ele>
        <time>2021-12-21T10:50:30.000Z</time>
      </trkpt>
      <trkpt lat="44.02361" lon="6.01865">
        <ele>716</ele>
        <time>2021-12-21T10:50:31.000Z</time>
      </trkpt>
      <trkpt lat="44.02362" lon="6.01866">
        <ele>716</ele>
        <time>2021-12-21T10:50:32.000Z</time>
      </trkpt>
      <trkpt lat="44.02362" lon="6.01867">
        <ele>716</ele>
        <time>2021-12-21T10:50:33.000Z</time>
      </trkpt>
      <trkpt lat="44.02362" lon="6.01868">
        <ele>717</ele>
        <time>2021-12-21T10:50:34.000Z</time>
      </trkpt>
      <trkpt lat="44.02362" lon="6.01869">
        <ele>717</ele>
        <time>2021-12-21T10:50:35.000Z</time>
      </trkpt>
      <trkpt lat="44.02362" lon="6.0187">
        <ele>717</ele>
        <time>2021-12-21T10:50:36.000Z</time>
      </trkpt>
      <trkpt lat="44.02362" lon="6.01871">
        <ele>717</ele>
        <time>2021-12-21T10:50:37.000Z</time>
      </trkpt>
      <trkpt lat="44.02362" lon="6.01872">
        <ele>718</ele>
        <time>2021-12-21T10:50:38.000Z</time>
      </trkpt>
      <trkpt lat="44.02362" lon="6.01873">
        <ele>718</ele>
        <time>2021-12-21T10:50:39.000Z</time>
      </trkpt>
      <trkpt lat="44.02362" lon="6.01874">
        <ele>718</ele>
        <time>2021-12-21T10:50:40.000Z</time>
      </trkpt>
      <trkpt lat="44.02362" lon="6.01876">
        <ele>718</ele>
        <time>2021-12-21T10:50:41.000Z</time>
      </trkpt>
      <trkpt lat="44.02362" lon="6.01877">
        <ele>718</ele>
        <time>2021-12-21T10:50:42.000Z</time>
      </trkpt>
      <trkpt lat="44.02362" lon="6.01878">
        <ele>719</ele>
        <time>2021-12-21T10:50:43.000Z</time>
      </trkpt>
      <trkpt lat="44.02362" lon="6.01879">
        <ele>719</ele>
        <time>2021-12-21T10:50:44.000Z</time>
      </trkpt>
      <trkpt lat="44.02362" lon="6.0188">
        <ele>719</ele>
        <time>2021-12-21T10:50:45.000Z</time>
      </trkpt>
      <trkpt lat="44.02362" lon="6.01881">
        <ele>719</ele>
        <time>2021-12-21T10:50:46.000Z</time>
      </trkpt>
      <trkpt lat="44.02362" lon="6.01882">
        <ele>720</ele>
        <time>2021-12-21T10:50:47.000Z</time>
      </trkpt>
      <trkpt lat="44.02362" lon="6.01883">
        <ele>720</ele>
        <time>2021-12-21T10:50:48.000Z</time>
      </trkpt>
      <trkpt lat="44.02362" lon="6.01883">
        <ele>720</ele>
        <time>2021-12-21T10:50:49.000Z</time>
      </trkpt>
      <trkpt lat="44.02362" lon="6.01884">
        <ele>720</ele>
        <time>2021-12-21T10:50:50.000Z</time>
      </trkpt>
      <trkpt lat="44.02362" lon="6.01885">
        <ele>720</ele>
        <time>2021-12-21T10:50:51.000Z</time>
      </trkpt>
      <trkpt lat="44.02362" lon="6.01886">
        <ele>720</ele>
        <time>2021-12-21T10:50:52.000Z</time>
      </trkpt>
      <trkpt lat="44.02363" lon="6.01887">
        <ele>720</ele>
        <time>2021-12-21T10:50:53.000Z</time>
      </trkpt>
      <trkpt lat="44.02363" lon="6.01888">
        <ele>721</ele>
        <time>2021-12-21T10:50:54.000Z</time>
      </trkpt>
      <trkpt lat="44.02363" lon="6.01889">
        <ele>721</ele>
        <time>2021-12-21T10:50:55.000Z</time>
      </trkpt>
      <trkpt lat="44.02363" lon="6.0189">
        <ele>721</ele>
        <time>2021-12-21T10:50:56.000Z</time>
      </trkpt>
      <trkpt lat="44.02363" lon="6.01891">
        <ele>721</ele>
        <time>2021-12-21T10:50:57.000Z</time>
      </trkpt>
      <trkpt lat="44.02363" lon="6.01892">
        <ele>721</ele>
        <time>2021-12-21T10:50:58.000Z</time>
      </trkpt>
      <trkpt lat="44.02363" lon="6.01892">
        <ele>721</ele>
        <time>2021-12-21T10:50:59.000Z</time>
      </trkpt>
      <trkpt lat="44.02363" lon="6.01892">
        <ele>721</ele>
        <time>2021-12-21T10:51:00.000Z</time>
      </trkpt>
      <trkpt lat="44.02363" lon="6.01892">
        <ele>721</ele>
        <time>2021-12-21T10:51:01.000Z</time>
      </trkpt>
      <trkpt lat="44.02363" lon="6.01892">
        <ele>721</ele>
        <time>2021-12-21T10:51:02.000Z</time>
      </trkpt>
      <trkpt lat="44.02363" lon="6.01892">
        <ele>721</ele>
        <time>2021-12-21T10:51:03.000Z</time>
      </trkpt>
      <trkpt lat="44.02363" lon="6.01892">
        <ele>721</ele>
        <time>2021-12-21T10:51:04.000Z</time>
      </trkpt>
      <trkpt lat="44.02363" lon="6.01892">
        <ele>721</ele>
        <time>2021-12-21T10:51:05.000Z</time>
      </trkpt>
      <trkpt lat="44.02363" lon="6.01892">
        <ele>721</ele>
        <time>2021-12-21T10:51:06.000Z</time>
      </trkpt>
      <trkpt lat="44.02363" lon="6.01892">
        <ele>721</ele>
        <time>2021-12-21T10:51:07.000Z</time>
      </trkpt>
      <trkpt lat="44.02363" lon="6.01892">
        <ele>721</ele>
        <time>2021-12-21T10:51:08.000Z</time>
      </trkpt>
      <trkpt lat="44.02363" lon="6.01892">
        <ele>721</ele>
        <time>2021-12-21T10:51:09.000Z</time>
      </trkpt>
      <trkpt lat="44.02363" lon="6.01892">
        <ele>721</ele>
        <time>2021-12-21T10:51:10.000Z</time>
      </trkpt>
      <trkpt lat="44.02363" lon="6.01892">
        <ele>721</ele>
        <time>2021-12-21T10:51:11.000Z</time>
      </trkpt>
      <trkpt lat="44.02363" lon="6.01892">
        <ele>721</ele>
        <time>2021-12-21T10:51:12.000Z</time>
      </trkpt>
      <trkpt lat="44.02363" lon="6.01892">
        <ele>721</ele>
        <time>2021-12-21T10:51:13.000Z</time>
      </trkpt>
      <trkpt lat="44.02363" lon="6.01892">
        <ele>721</ele>
        <time>2021-12-21T10:51:14.000Z</time>
      </trkpt>
      <trkpt lat="44.02363" lon="6.01892">
        <ele>721</ele>
        <time>2021-12-21T10:51:15.000Z</time>
      </trkpt>
      <trkpt lat="44.02363" lon="6.01892">
        <ele>721</ele>
        <time>2021-12-21T10:51:16.000Z</time>
      </trkpt>
      <trkpt lat="44.02363" lon="6.01892">
        <ele>721</ele>
        <time>2021-12-21T10:51:17.000Z</time>
      </trkpt>
      <trkpt lat="44.02363" lon="6.01892">
        <ele>721</ele>
        <time>2021-12-21T10:51:18.000Z</time>
      </trkpt>
      <trkpt lat="44.02362" lon="6.01893">
        <ele>721</ele>
        <time>2021-12-21T10:51:19.000Z</time>
      </trkpt>
      <trkpt lat="44.02362" lon="6.01893">
        <ele>721</ele>
        <time>2021-12-21T10:51:20.000Z</time>
      </trkpt>
      <trkpt lat="44.02362" lon="6.01893">
        <ele>721</ele>
        <time>2021-12-21T10:51:21.000Z</time>
      </trkpt>
      <trkpt lat="44.02363" lon="6.01893">
        <ele>721</ele>
        <time>2021-12-21T10:51:22.000Z</time>
      </trkpt>
      <trkpt lat="44.02363" lon="6.01893">
        <ele>721</ele>
        <time>2021-12-21T10:51:23.000Z</time>
      </trkpt>
      <trkpt lat="44.02363" lon="6.01893">
        <ele>721</ele>
        <time>2021-12-21T10:51:24.000Z</time>
      </trkpt>
      <trkpt lat="44.02363" lon="6.01893">
        <ele>721</ele>
        <time>2021-12-21T10:51:25.000Z</time>
      </trkpt>
      <trkpt lat="44.02363" lon="6.01893">
        <ele>721</ele>
        <time>2021-12-21T10:51:26.000Z</time>
      </trkpt>
      <trkpt lat="44.02363" lon="6.01893">
        <ele>721</ele>
        <time>2021-12-21T10:51:27.000Z</time>
      </trkpt>
      <trkpt lat="44.02363" lon="6.01893">
        <ele>721</ele>
        <time>2021-12-21T10:51:28.000Z</time>
      </trkpt>
      <trkpt lat="44.02363" lon="6.01893">
        <ele>721</ele>
        <time>2021-12-21T10:51:29.000Z</time>
      </trkpt>
      <trkpt lat="44.02362" lon="6.01893">
        <ele>721</ele>
        <time>2021-12-21T10:51:30.000Z</time>
      </trkpt>
      <trkpt lat="44.02362" lon="6.01893">
        <ele>721</ele>
        <time>2021-12-21T10:51:31.000Z</time>
      </trkpt>
      <trkpt lat="44.02362" lon="6.01893">
        <ele>721</ele>
        <time>2021-12-21T10:51:32.000Z</time>
      </trkpt>
      <trkpt lat="44.02362" lon="6.01893">
        <ele>721</ele>
        <time>2021-12-21T10:51:33.000Z</time>
      </trkpt>
      <trkpt lat="44.02362" lon="6.01893">
        <ele>721</ele>
        <time>2021-12-21T10:51:34.000Z</time>
      </trkpt>
      <trkpt lat="44.02362" lon="6.01893">
        <ele>721</ele>
        <time>2021-12-21T10:51:35.000Z</time>
      </trkpt>
      <trkpt lat="44.02362" lon="6.01893">
        <ele>721</ele>
        <time>2021-12-21T10:51:36.000Z</time>
      </trkpt>
      <trkpt lat="44.02362" lon="6.01893">
        <ele>721</ele>
        <time>2021-12-21T10:51:37.000Z</time>
      </trkpt>
      <trkpt lat="44.02362" lon="6.01893">
        <ele>721</ele>
        <time>2021-12-21T10:51:38.000Z</time>
      </trkpt>
      <trkpt lat="44.02362" lon="6.01893">
        <ele>721</ele>
        <time>2021-12-21T10:51:39.000Z</time>
      </trkpt>
      <trkpt lat="44.02362" lon="6.01893">
        <ele>721</ele>
        <time>2021-12-21T10:51:40.000Z</time>
      </trkpt>
      <trkpt lat="44.02362" lon="6.01893">
        <ele>721</ele>
        <time>2021-12-21T10:51:41.000Z</time>
      </trkpt>
      <trkpt lat="44.02362" lon="6.01893">
        <ele>721</ele>
        <time>2021-12-21T10:51:42.000Z</time>
      </trkpt>
      <trkpt lat="44.02362" lon="6.01893">
        <ele>721</ele>
        <time>2021-12-21T10:51:43.000Z</time>
      </trkpt>
      <trkpt lat="44.02362" lon="6.01893">
        <ele>721</ele>
        <time>2021-12-21T10:51:44.000Z</time>
      </trkpt>
      <trkpt lat="44.02362" lon="6.01893">
        <ele>721</ele>
        <time>2021-12-21T10:51:45.000Z</time>
      </trkpt>
      <trkpt lat="44.02362" lon="6.01893">
        <ele>721</ele>
        <time>2021-12-21T10:51:46.000Z</time>
      </trkpt>
      <trkpt lat="44.02362" lon="6.01893">
        <ele>721</ele>
        <time>2021-12-21T10:51:47.000Z</time>
      </trkpt>
      <trkpt lat="44.02362" lon="6.01893">
        <ele>721</ele>
        <time>2021-12-21T10:51:48.000Z</time>
      </trkpt>
      <trkpt lat="44.02362" lon="6.01893">
        <ele>721</ele>
        <time>2021-12-21T10:51:49.000Z</time>
      </trkpt>
      <trkpt lat="44.02362" lon="6.01893">
        <ele>721</ele>
        <time>2021-12-21T10:51:50.000Z</time>
      </trkpt>
      <trkpt lat="44.02362" lon="6.01893">
        <ele>721</ele>
        <time>2021-12-21T10:51:51.000Z</time>
      </trkpt>
      <trkpt lat="44.02362" lon="6.01893">
        <ele>721</ele>
        <time>2021-12-21T10:51:52.000Z</time>
      </trkpt>
      <trkpt lat="44.02362" lon="6.01893">
        <ele>721</ele>
        <time>2021-12-21T10:51:53.000Z</time>
      </trkpt>
      <trkpt lat="44.02362" lon="6.01893">
        <ele>721</ele>
        <time>2021-12-21T10:51:54.000Z</time>
      </trkpt>
      <trkpt lat="44.02362" lon="6.01893">
        <ele>721</ele>
        <time>2021-12-21T10:51:55.000Z</time>
      </trkpt>
      <trkpt lat="44.02362" lon="6.01893">
        <ele>721</ele>
        <time>2021-12-21T10:51:56.000Z</time>
      </trkpt>
      <trkpt lat="44.02362" lon="6.01893">
        <ele>721</ele>
        <time>2021-12-21T10:51:57.000Z</time>
      </trkpt>
      <trkpt lat="44.02362" lon="6.01893">
        <ele>721</ele>
        <time>2021-12-21T10:51:58.000Z</time>
      </trkpt>
      <trkpt lat="44.02362" lon="6.01893">
        <ele>721</ele>
        <time>2021-12-21T10:51:59.000Z</time>
      </trkpt>
      <trkpt lat="44.02362" lon="6.01893">
        <ele>721</ele>
        <time>2021-12-21T10:52:00.000Z</time>
      </trkpt>
      <trkpt lat="44.02362" lon="6.01894">
        <ele>721</ele>
        <time>2021-12-21T10:52:01.000Z</time>
      </trkpt>
      <trkpt lat="44.02362" lon="6.01895">
        <ele>721</ele>
        <time>2021-12-21T10:52:02.000Z</time>
      </trkpt>
      <trkpt lat="44.02363" lon="6.01896">
        <ele>721</ele>
        <time>2021-12-21T10:52:03.000Z</time>
      </trkpt>
      <trkpt lat="44.02363" lon="6.01897">
        <ele>721</ele>
        <time>2021-12-21T10:52:04.000Z</time>
      </trkpt>
      <trkpt lat="44.02363" lon="6.01898">
        <ele>721</ele>
        <time>2021-12-21T10:52:05.000Z</time>
      </trkpt>
      <trkpt lat="44.02363" lon="6.01899">
        <ele>721</ele>
        <time>2021-12-21T10:52:06.000Z</time>
      </trkpt>
      <trkpt lat="44.02363" lon="6.019">
        <ele>721</ele>
        <time>2021-12-21T10:52:07.000Z</time>
      </trkpt>
      <trkpt lat="44.02363" lon="6.01902">
        <ele>721</ele>
        <time>2021-12-21T10:52:08.000Z</time>
      </trkpt>
      <trkpt lat="44.02363" lon="6.01903">
        <ele>721</ele>
        <time>2021-12-21T10:52:09.000Z</time>
      </trkpt>
      <trkpt lat="44.02364" lon="6.01904">
        <ele>721</ele>
        <time>2021-12-21T10:52:10.000Z</time>
      </trkpt>
      <trkpt lat="44.02364" lon="6.01905">
        <ele>721</ele>
        <time>2021-12-21T10:52:11.000Z</time>
      </trkpt>
      <trkpt lat="44.02364" lon="6.01907">
        <ele>721</ele>
        <time>2021-12-21T10:52:12.000Z</time>
      </trkpt>
      <trkpt lat="44.02364" lon="6.01908">
        <ele>721</ele>
        <time>2021-12-21T10:52:13.000Z</time>
      </trkpt>
      <trkpt lat="44.02364" lon="6.01909">
        <ele>721</ele>
        <time>2021-12-21T10:52:14.000Z</time>
      </trkpt>
      <trkpt lat="44.02364" lon="6.0191">
        <ele>721</ele>
        <time>2021-12-21T10:52:15.000Z</time>
      </trkpt>
      <trkpt lat="44.02364" lon="6.01911">
        <ele>721</ele>
        <time>2021-12-21T10:52:16.000Z</time>
      </trkpt>
      <trkpt lat="44.02364" lon="6.01913">
        <ele>721</ele>
        <time>2021-12-21T10:52:17.000Z</time>
      </trkpt>
      <trkpt lat="44.02364" lon="6.01913">
        <ele>721</ele>
        <time>2021-12-21T10:52:18.000Z</time>
      </trkpt>
      <trkpt lat="44.02365" lon="6.01914">
        <ele>722</ele>
        <time>2021-12-21T10:52:19.000Z</time>
      </trkpt>
      <trkpt lat="44.02365" lon="6.01916">
        <ele>722</ele>
        <time>2021-12-21T10:52:20.000Z</time>
      </trkpt>
      <trkpt lat="44.02365" lon="6.01917">
        <ele>722</ele>
        <time>2021-12-21T10:52:21.000Z</time>
      </trkpt>
      <trkpt lat="44.02365" lon="6.01919">
        <ele>722</ele>
        <time>2021-12-21T10:52:22.000Z</time>
      </trkpt>
      <trkpt lat="44.02365" lon="6.0192">
        <ele>722</ele>
        <time>2021-12-21T10:52:23.000Z</time>
      </trkpt>
      <trkpt lat="44.02365" lon="6.01921">
        <ele>723</ele>
        <time>2021-12-21T10:52:24.000Z</time>
      </trkpt>
      <trkpt lat="44.02366" lon="6.01922">
        <ele>723</ele>
        <time>2021-12-21T10:52:25.000Z</time>
      </trkpt>
      <trkpt lat="44.02366" lon="6.01923">
        <ele>723</ele>
        <time>2021-12-21T10:52:26.000Z</time>
      </trkpt>
      <trkpt lat="44.02366" lon="6.01924">
        <ele>723</ele>
        <time>2021-12-21T10:52:27.000Z</time>
      </trkpt>
      <trkpt lat="44.02366" lon="6.01925">
        <ele>723</ele>
        <time>2021-12-21T10:52:28.000Z</time>
      </trkpt>
      <trkpt lat="44.02366" lon="6.01926">
        <ele>724</ele>
        <time>2021-12-21T10:52:29.000Z</time>
      </trkpt>
      <trkpt lat="44.02367" lon="6.01927">
        <ele>724</ele>
        <time>2021-12-21T10:52:30.000Z</time>
      </trkpt>
      <trkpt lat="44.02367" lon="6.01928">
        <ele>724</ele>
        <time>2021-12-21T10:52:31.000Z</time>
      </trkpt>
      <trkpt lat="44.02368" lon="6.0193">
        <ele>724</ele>
        <time>2021-12-21T10:52:32.000Z</time>
      </trkpt>
      <trkpt lat="44.02368" lon="6.01931">
        <ele>724</ele>
        <time>2021-12-21T10:52:33.000Z</time>
      </trkpt>
      <trkpt lat="44.02368" lon="6.01932">
        <ele>724</ele>
        <time>2021-12-21T10:52:34.000Z</time>
      </trkpt>
      <trkpt lat="44.02368" lon="6.01933">
        <ele>725</ele>
        <time>2021-12-21T10:52:35.000Z</time>
      </trkpt>
      <trkpt lat="44.02368" lon="6.01935">
        <ele>725</ele>
        <time>2021-12-21T10:52:36.000Z</time>
      </trkpt>
      <trkpt lat="44.02368" lon="6.01936">
        <ele>725</ele>
        <time>2021-12-21T10:52:37.000Z</time>
      </trkpt>
      <trkpt lat="44.02369" lon="6.01937">
        <ele>725</ele>
        <time>2021-12-21T10:52:38.000Z</time>
      </trkpt>
      <trkpt lat="44.02369" lon="6.01938">
        <ele>726</ele>
        <time>2021-12-21T10:52:39.000Z</time>
      </trkpt>
      <trkpt lat="44.02369" lon="6.01939">
        <ele>726</ele>
        <time>2021-12-21T10:52:40.000Z</time>
      </trkpt>
      <trkpt lat="44.0237" lon="6.0194">
        <ele>726</ele>
        <time>2021-12-21T10:52:41.000Z</time>
      </trkpt>
      <trkpt lat="44.0237" lon="6.01941">
        <ele>726</ele>
        <time>2021-12-21T10:52:42.000Z</time>
      </trkpt>
      <trkpt lat="44.0237" lon="6.01942">
        <ele>727</ele>
        <time>2021-12-21T10:52:43.000Z</time>
      </trkpt>
      <trkpt lat="44.02371" lon="6.01943">
        <ele>727</ele>
        <time>2021-12-21T10:52:44.000Z</time>
      </trkpt>
      <trkpt lat="44.02371" lon="6.01945">
        <ele>727</ele>
        <time>2021-12-21T10:52:45.000Z</time>
      </trkpt>
      <trkpt lat="44.02371" lon="6.01946">
        <ele>727</ele>
        <time>2021-12-21T10:52:46.000Z</time>
      </trkpt>
      <trkpt lat="44.02371" lon="6.01947">
        <ele>728</ele>
        <time>2021-12-21T10:52:47.000Z</time>
      </trkpt>
      <trkpt lat="44.02371" lon="6.01948">
        <ele>728</ele>
        <time>2021-12-21T10:52:48.000Z</time>
      </trkpt>
      <trkpt lat="44.02372" lon="6.01949">
        <ele>728</ele>
        <time>2021-12-21T10:52:49.000Z</time>
      </trkpt>
      <trkpt lat="44.02372" lon="6.0195">
        <ele>728</ele>
        <time>2021-12-21T10:52:50.000Z</time>
      </trkpt>
      <trkpt lat="44.02372" lon="6.01951">
        <ele>728</ele>
        <time>2021-12-21T10:52:51.000Z</time>
      </trkpt>
      <trkpt lat="44.02373" lon="6.01952">
        <ele>728</ele>
        <time>2021-12-21T10:52:52.000Z</time>
      </trkpt>
      <trkpt lat="44.02373" lon="6.01953">
        <ele>728</ele>
        <time>2021-12-21T10:52:53.000Z</time>
      </trkpt>
      <trkpt lat="44.02373" lon="6.01954">
        <ele>728</ele>
        <time>2021-12-21T10:52:54.000Z</time>
      </trkpt>
      <trkpt lat="44.02374" lon="6.01955">
        <ele>728</ele>
        <time>2021-12-21T10:52:55.000Z</time>
      </trkpt>
      <trkpt lat="44.02374" lon="6.01956">
        <ele>728</ele>
        <time>2021-12-21T10:52:56.000Z</time>
      </trkpt>
      <trkpt lat="44.02374" lon="6.01957">
        <ele>728</ele>
        <time>2021-12-21T10:52:57.000Z</time>
      </trkpt>
      <trkpt lat="44.02374" lon="6.01958">
        <ele>729</ele>
        <time>2021-12-21T10:52:58.000Z</time>
      </trkpt>
      <trkpt lat="44.02374" lon="6.01958">
        <ele>729</ele>
        <time>2021-12-21T10:52:59.000Z</time>
      </trkpt>
      <trkpt lat="44.02374" lon="6.01958">
        <ele>729</ele>
        <time>2021-12-21T10:53:00.000Z</time>
      </trkpt>
      <trkpt lat="44.02374" lon="6.01958">
        <ele>729</ele>
        <time>2021-12-21T10:53:01.000Z</time>
      </trkpt>
      <trkpt lat="44.02374" lon="6.01958">
        <ele>729</ele>
        <time>2021-12-21T10:53:02.000Z</time>
      </trkpt>
      <trkpt lat="44.02374" lon="6.01958">
        <ele>729</ele>
        <time>2021-12-21T10:53:03.000Z</time>
      </trkpt>
      <trkpt lat="44.02374" lon="6.01958">
        <ele>729</ele>
        <time>2021-12-21T10:53:04.000Z</time>
      </trkpt>
      <trkpt lat="44.02374" lon="6.01958">
        <ele>729</ele>
        <time>2021-12-21T10:53:05.000Z</time>
      </trkpt>
      <trkpt lat="44.02374" lon="6.01958">
        <ele>729</ele>
        <time>2021-12-21T10:53:06.000Z</time>
      </trkpt>
      <trkpt lat="44.02374" lon="6.01958">
        <ele>729</ele>
        <time>2021-12-21T10:53:07.000Z</time>
      </trkpt>
      <trkpt lat="44.02374" lon="6.01958">
        <ele>729</ele>
        <time>2021-12-21T10:53:08.000Z</time>
      </trkpt>
      <trkpt lat="44.02374" lon="6.01958">
        <ele>729</ele>
        <time>2021-12-21T10:53:09.000Z</time>
      </trkpt>
      <trkpt lat="44.02374" lon="6.01959">
        <ele>730</ele>
        <time>2021-12-21T10:53:10.000Z</time>
      </trkpt>
      <trkpt lat="44.02374" lon="6.01959">
        <ele>730</ele>
        <time>2021-12-21T10:53:11.000Z</time>
      </trkpt>
      <trkpt lat="44.02375" lon="6.0196">
        <ele>730</ele>
        <time>2021-12-21T10:53:12.000Z</time>
      </trkpt>
      <trkpt lat="44.02375" lon="6.01961">
        <ele>730</ele>
        <time>2021-12-21T10:53:13.000Z</time>
      </trkpt>
      <trkpt lat="44.02375" lon="6.01963">
        <ele>730</ele>
        <time>2021-12-21T10:53:14.000Z</time>
      </trkpt>
      <trkpt lat="44.02375" lon="6.01964">
        <ele>730</ele>
        <time>2021-12-21T10:53:15.000Z</time>
      </trkpt>
      <trkpt lat="44.02375" lon="6.01965">
        <ele>730</ele>
        <time>2021-12-21T10:53:16.000Z</time>
      </trkpt>
      <trkpt lat="44.02375" lon="6.01966">
        <ele>730</ele>
        <time>2021-12-21T10:53:17.000Z</time>
      </trkpt>
      <trkpt lat="44.02375" lon="6.01967">
        <ele>730</ele>
        <time>2021-12-21T10:53:18.000Z</time>
      </trkpt>
      <trkpt lat="44.02375" lon="6.01968">
        <ele>731</ele>
        <time>2021-12-21T10:53:19.000Z</time>
      </trkpt>
      <trkpt lat="44.02375" lon="6.01969">
        <ele>731</ele>
        <time>2021-12-21T10:53:20.000Z</time>
      </trkpt>
      <trkpt lat="44.02375" lon="6.0197">
        <ele>731</ele>
        <time>2021-12-21T10:53:21.000Z</time>
      </trkpt>
      <trkpt lat="44.02375" lon="6.01971">
        <ele>731</ele>
        <time>2021-12-21T10:53:22.000Z</time>
      </trkpt>
      <trkpt lat="44.02375" lon="6.01973">
        <ele>731</ele>
        <time>2021-12-21T10:53:23.000Z</time>
      </trkpt>
      <trkpt lat="44.02375" lon="6.01974">
        <ele>731</ele>
        <time>2021-12-21T10:53:24.000Z</time>
      </trkpt>
      <trkpt lat="44.02375" lon="6.01974">
        <ele>731</ele>
        <time>2021-12-21T10:53:25.000Z</time>
      </trkpt>
      <trkpt lat="44.02374" lon="6.01976">
        <ele>731</ele>
        <time>2021-12-21T10:53:26.000Z</time>
      </trkpt>
      <trkpt lat="44.02374" lon="6.01977">
        <ele>731</ele>
        <time>2021-12-21T10:53:27.000Z</time>
      </trkpt>
      <trkpt lat="44.02374" lon="6.01978">
        <ele>731</ele>
        <time>2021-12-21T10:53:28.000Z</time>
      </trkpt>
      <trkpt lat="44.02374" lon="6.01979">
        <ele>731</ele>
        <time>2021-12-21T10:53:29.000Z</time>
      </trkpt>
      <trkpt lat="44.02374" lon="6.0198">
        <ele>731</ele>
        <time>2021-12-21T10:53:30.000Z</time>
      </trkpt>
      <trkpt lat="44.02374" lon="6.01981">
        <ele>732</ele>
        <time>2021-12-21T10:53:31.000Z</time>
      </trkpt>
      <trkpt lat="44.02374" lon="6.01982">
        <ele>732</ele>
        <time>2021-12-21T10:53:32.000Z</time>
      </trkpt>
      <trkpt lat="44.02374" lon="6.01984">
        <ele>732</ele>
        <time>2021-12-21T10:53:33.000Z</time>
      </trkpt>
      <trkpt lat="44.02374" lon="6.01985">
        <ele>732</ele>
        <time>2021-12-21T10:53:34.000Z</time>
      </trkpt>
      <trkpt lat="44.02374" lon="6.01986">
        <ele>732</ele>
        <time>2021-12-21T10:53:35.000Z</time>
      </trkpt>
      <trkpt lat="44.02374" lon="6.01987">
        <ele>733</ele>
        <time>2021-12-21T10:53:36.000Z</time>
      </trkpt>
      <trkpt lat="44.02374" lon="6.01988">
        <ele>733</ele>
        <time>2021-12-21T10:53:37.000Z</time>
      </trkpt>
      <trkpt lat="44.02374" lon="6.01989">
        <ele>733</ele>
        <time>2021-12-21T10:53:38.000Z</time>
      </trkpt>
      <trkpt lat="44.02374" lon="6.01991">
        <ele>733</ele>
        <time>2021-12-21T10:53:39.000Z</time>
      </trkpt>
      <trkpt lat="44.02374" lon="6.01992">
        <ele>733</ele>
        <time>2021-12-21T10:53:40.000Z</time>
      </trkpt>
      <trkpt lat="44.02374" lon="6.01993">
        <ele>733</ele>
        <time>2021-12-21T10:53:41.000Z</time>
      </trkpt>
      <trkpt lat="44.02373" lon="6.01994">
        <ele>733</ele>
        <time>2021-12-21T10:53:42.000Z</time>
      </trkpt>
      <trkpt lat="44.02373" lon="6.01995">
        <ele>733</ele>
        <time>2021-12-21T10:53:43.000Z</time>
      </trkpt>
      <trkpt lat="44.02373" lon="6.01997">
        <ele>733</ele>
        <time>2021-12-21T10:53:44.000Z</time>
      </trkpt>
      <trkpt lat="44.02373" lon="6.01998">
        <ele>733</ele>
        <time>2021-12-21T10:53:45.000Z</time>
      </trkpt>
      <trkpt lat="44.02373" lon="6.01999">
        <ele>734</ele>
        <time>2021-12-21T10:53:46.000Z</time>
      </trkpt>
      <trkpt lat="44.02374" lon="6.02">
        <ele>734</ele>
        <time>2021-12-21T10:53:47.000Z</time>
      </trkpt>
      <trkpt lat="44.02374" lon="6.02001">
        <ele>734</ele>
        <time>2021-12-21T10:53:48.000Z</time>
      </trkpt>
      <trkpt lat="44.02373" lon="6.02002">
        <ele>734</ele>
        <time>2021-12-21T10:53:49.000Z</time>
      </trkpt>
      <trkpt lat="44.02373" lon="6.02003">
        <ele>734</ele>
        <time>2021-12-21T10:53:50.000Z</time>
      </trkpt>
      <trkpt lat="44.02373" lon="6.02004">
        <ele>734</ele>
        <time>2021-12-21T10:53:51.000Z</time>
      </trkpt>
      <trkpt lat="44.02372" lon="6.02005">
        <ele>734</ele>
        <time>2021-12-21T10:53:52.000Z</time>
      </trkpt>
      <trkpt lat="44.02372" lon="6.02006">
        <ele>734</ele>
        <time>2021-12-21T10:53:53.000Z</time>
      </trkpt>
      <trkpt lat="44.02371" lon="6.02008">
        <ele>734</ele>
        <time>2021-12-21T10:53:54.000Z</time>
      </trkpt>
      <trkpt lat="44.0237" lon="6.02009">
        <ele>734</ele>
        <time>2021-12-21T10:53:55.000Z</time>
      </trkpt>
      <trkpt lat="44.02369" lon="6.0201">
        <ele>734</ele>
        <time>2021-12-21T10:53:56.000Z</time>
      </trkpt>
      <trkpt lat="44.02368" lon="6.02011">
        <ele>734</ele>
        <time>2021-12-21T10:53:57.000Z</time>
      </trkpt>
      <trkpt lat="44.02367" lon="6.02013">
        <ele>734</ele>
        <time>2021-12-21T10:53:58.000Z</time>
      </trkpt>
      <trkpt lat="44.02365" lon="6.02014">
        <ele>734</ele>
        <time>2021-12-21T10:53:59.000Z</time>
      </trkpt>
      <trkpt lat="44.02364" lon="6.02016">
        <ele>734</ele>
        <time>2021-12-21T10:54:00.000Z</time>
      </trkpt>
      <trkpt lat="44.02363" lon="6.02017">
        <ele>734</ele>
        <time>2021-12-21T10:54:01.000Z</time>
      </trkpt>
      <trkpt lat="44.02363" lon="6.02019">
        <ele>734</ele>
        <time>2021-12-21T10:54:02.000Z</time>
      </trkpt>
      <trkpt lat="44.02363" lon="6.0202">
        <ele>734</ele>
        <time>2021-12-21T10:54:03.000Z</time>
      </trkpt>
      <trkpt lat="44.02362" lon="6.02021">
        <ele>734</ele>
        <time>2021-12-21T10:54:04.000Z</time>
      </trkpt>
      <trkpt lat="44.02361" lon="6.02023">
        <ele>734</ele>
        <time>2021-12-21T10:54:05.000Z</time>
      </trkpt>
      <trkpt lat="44.02361" lon="6.02024">
        <ele>734</ele>
        <time>2021-12-21T10:54:06.000Z</time>
      </trkpt>
      <trkpt lat="44.0236" lon="6.02025">
        <ele>734</ele>
        <time>2021-12-21T10:54:07.000Z</time>
      </trkpt>
      <trkpt lat="44.0236" lon="6.02025">
        <ele>734</ele>
        <time>2021-12-21T10:54:08.000Z</time>
      </trkpt>
      <trkpt lat="44.0236" lon="6.02026">
        <ele>734</ele>
        <time>2021-12-21T10:54:09.000Z</time>
      </trkpt>
      <trkpt lat="44.02359" lon="6.02028">
        <ele>734</ele>
        <time>2021-12-21T10:54:10.000Z</time>
      </trkpt>
      <trkpt lat="44.02359" lon="6.02029">
        <ele>734</ele>
        <time>2021-12-21T10:54:11.000Z</time>
      </trkpt>
      <trkpt lat="44.02358" lon="6.0203">
        <ele>734</ele>
        <time>2021-12-21T10:54:12.000Z</time>
      </trkpt>
      <trkpt lat="44.02358" lon="6.0203">
        <ele>734</ele>
        <time>2021-12-21T10:54:13.000Z</time>
      </trkpt>
      <trkpt lat="44.02357" lon="6.02031">
        <ele>734</ele>
        <time>2021-12-21T10:54:14.000Z</time>
      </trkpt>
      <trkpt lat="44.02357" lon="6.02032">
        <ele>733</ele>
        <time>2021-12-21T10:54:15.000Z</time>
      </trkpt>
      <trkpt lat="44.02356" lon="6.02033">
        <ele>733</ele>
        <time>2021-12-21T10:54:16.000Z</time>
      </trkpt>
      <trkpt lat="44.02355" lon="6.02034">
        <ele>733</ele>
        <time>2021-12-21T10:54:17.000Z</time>
      </trkpt>
      <trkpt lat="44.02355" lon="6.02034">
        <ele>733</ele>
        <time>2021-12-21T10:54:18.000Z</time>
      </trkpt>
      <trkpt lat="44.02354" lon="6.02035">
        <ele>733</ele>
        <time>2021-12-21T10:54:19.000Z</time>
      </trkpt>
      <trkpt lat="44.02354" lon="6.02036">
        <ele>733</ele>
        <time>2021-12-21T10:54:20.000Z</time>
      </trkpt>
      <trkpt lat="44.02353" lon="6.02037">
        <ele>733</ele>
        <time>2021-12-21T10:54:21.000Z</time>
      </trkpt>
      <trkpt lat="44.02352" lon="6.02038">
        <ele>733</ele>
        <time>2021-12-21T10:54:22.000Z</time>
      </trkpt>
      <trkpt lat="44.02352" lon="6.02039">
        <ele>733</ele>
        <time>2021-12-21T10:54:23.000Z</time>
      </trkpt>
      <trkpt lat="44.02351" lon="6.0204">
        <ele>733</ele>
        <time>2021-12-21T10:54:24.000Z</time>
      </trkpt>
      <trkpt lat="44.02351" lon="6.02041">
        <ele>733</ele>
        <time>2021-12-21T10:54:25.000Z</time>
      </trkpt>
      <trkpt lat="44.0235" lon="6.02042">
        <ele>733</ele>
        <time>2021-12-21T10:54:26.000Z</time>
      </trkpt>
      <trkpt lat="44.02349" lon="6.02043">
        <ele>733</ele>
        <time>2021-12-21T10:54:27.000Z</time>
      </trkpt>
      <trkpt lat="44.02348" lon="6.02043">
        <ele>733</ele>
        <time>2021-12-21T10:54:28.000Z</time>
      </trkpt>
      <trkpt lat="44.02347" lon="6.02044">
        <ele>733</ele>
        <time>2021-12-21T10:54:29.000Z</time>
      </trkpt>
      <trkpt lat="44.02346" lon="6.02045">
        <ele>733</ele>
        <time>2021-12-21T10:54:30.000Z</time>
      </trkpt>
      <trkpt lat="44.02346" lon="6.02046">
        <ele>733</ele>
        <time>2021-12-21T10:54:31.000Z</time>
      </trkpt>
      <trkpt lat="44.02345" lon="6.02047">
        <ele>733</ele>
        <time>2021-12-21T10:54:32.000Z</time>
      </trkpt>
      <trkpt lat="44.02344" lon="6.02048">
        <ele>733</ele>
        <time>2021-12-21T10:54:33.000Z</time>
      </trkpt>
      <trkpt lat="44.02343" lon="6.02049">
        <ele>733</ele>
        <time>2021-12-21T10:54:34.000Z</time>
      </trkpt>
      <trkpt lat="44.02343" lon="6.0205">
        <ele>733</ele>
        <time>2021-12-21T10:54:35.000Z</time>
      </trkpt>
      <trkpt lat="44.02342" lon="6.02051">
        <ele>733</ele>
        <time>2021-12-21T10:54:36.000Z</time>
      </trkpt>
      <trkpt lat="44.02341" lon="6.02052">
        <ele>733</ele>
        <time>2021-12-21T10:54:37.000Z</time>
      </trkpt>
      <trkpt lat="44.02341" lon="6.02053">
        <ele>733</ele>
        <time>2021-12-21T10:54:38.000Z</time>
      </trkpt>
      <trkpt lat="44.0234" lon="6.02054">
        <ele>733</ele>
        <time>2021-12-21T10:54:39.000Z</time>
      </trkpt>
      <trkpt lat="44.02339" lon="6.02055">
        <ele>733</ele>
        <time>2021-12-21T10:54:40.000Z</time>
      </trkpt>
      <trkpt lat="44.02338" lon="6.02056">
        <ele>733</ele>
        <time>2021-12-21T10:54:41.000Z</time>
      </trkpt>
      <trkpt lat="44.02337" lon="6.02056">
        <ele>734</ele>
        <time>2021-12-21T10:54:42.000Z</time>
      </trkpt>
      <trkpt lat="44.02337" lon="6.02057">
        <ele>734</ele>
        <time>2021-12-21T10:54:43.000Z</time>
      </trkpt>
      <trkpt lat="44.02336" lon="6.02058">
        <ele>734</ele>
        <time>2021-12-21T10:54:44.000Z</time>
      </trkpt>
      <trkpt lat="44.02335" lon="6.02059">
        <ele>734</ele>
        <time>2021-12-21T10:54:45.000Z</time>
      </trkpt>
      <trkpt lat="44.02335" lon="6.0206">
        <ele>734</ele>
        <time>2021-12-21T10:54:46.000Z</time>
      </trkpt>
      <trkpt lat="44.02334" lon="6.0206">
        <ele>734</ele>
        <time>2021-12-21T10:54:47.000Z</time>
      </trkpt>
      <trkpt lat="44.02334" lon="6.02061">
        <ele>734</ele>
        <time>2021-12-21T10:54:48.000Z</time>
      </trkpt>
      <trkpt lat="44.02334" lon="6.02061">
        <ele>734</ele>
        <time>2021-12-21T10:54:49.000Z</time>
      </trkpt>
      <trkpt lat="44.02334" lon="6.02061">
        <ele>734</ele>
        <time>2021-12-21T10:54:50.000Z</time>
      </trkpt>
      <trkpt lat="44.02334" lon="6.02062">
        <ele>734</ele>
        <time>2021-12-21T10:54:51.000Z</time>
      </trkpt>
      <trkpt lat="44.02334" lon="6.02062">
        <ele>734</ele>
        <time>2021-12-21T10:54:52.000Z</time>
      </trkpt>
      <trkpt lat="44.02334" lon="6.02062">
        <ele>734</ele>
        <time>2021-12-21T10:54:53.000Z</time>
      </trkpt>
      <trkpt lat="44.02334" lon="6.02062">
        <ele>734</ele>
        <time>2021-12-21T10:54:54.000Z</time>
      </trkpt>
      <trkpt lat="44.02334" lon="6.02062">
        <ele>735</ele>
        <time>2021-12-21T10:54:55.000Z</time>
      </trkpt>
      <trkpt lat="44.02334" lon="6.02062">
        <ele>735</ele>
        <time>2021-12-21T10:54:56.000Z</time>
      </trkpt>
      <trkpt lat="44.02334" lon="6.02063">
        <ele>735</ele>
        <time>2021-12-21T10:54:57.000Z</time>
      </trkpt>
      <trkpt lat="44.02334" lon="6.02063">
        <ele>735</ele>
        <time>2021-12-21T10:54:58.000Z</time>
      </trkpt>
      <trkpt lat="44.02334" lon="6.02063">
        <ele>735</ele>
        <time>2021-12-21T10:54:59.000Z</time>
      </trkpt>
      <trkpt lat="44.02334" lon="6.02063">
        <ele>735</ele>
        <time>2021-12-21T10:55:00.000Z</time>
      </trkpt>
      <trkpt lat="44.02334" lon="6.02064">
        <ele>735</ele>
        <time>2021-12-21T10:55:01.000Z</time>
      </trkpt>
      <trkpt lat="44.02333" lon="6.02064">
        <ele>735</ele>
        <time>2021-12-21T10:55:02.000Z</time>
      </trkpt>
      <trkpt lat="44.02333" lon="6.02065">
        <ele>735</ele>
        <time>2021-12-21T10:55:03.000Z</time>
      </trkpt>
      <trkpt lat="44.02332" lon="6.02066">
        <ele>735</ele>
        <time>2021-12-21T10:55:04.000Z</time>
      </trkpt>
      <trkpt lat="44.02332" lon="6.02066">
        <ele>735</ele>
        <time>2021-12-21T10:55:05.000Z</time>
      </trkpt>
      <trkpt lat="44.02331" lon="6.02067">
        <ele>735</ele>
        <time>2021-12-21T10:55:06.000Z</time>
      </trkpt>
      <trkpt lat="44.0233" lon="6.02068">
        <ele>735</ele>
        <time>2021-12-21T10:55:07.000Z</time>
      </trkpt>
      <trkpt lat="44.02329" lon="6.02069">
        <ele>735</ele>
        <time>2021-12-21T10:55:08.000Z</time>
      </trkpt>
      <trkpt lat="44.02328" lon="6.0207">
        <ele>735</ele>
        <time>2021-12-21T10:55:09.000Z</time>
      </trkpt>
      <trkpt lat="44.02328" lon="6.0207">
        <ele>735</ele>
        <time>2021-12-21T10:55:10.000Z</time>
      </trkpt>
      <trkpt lat="44.02327" lon="6.02071">
        <ele>735</ele>
        <time>2021-12-21T10:55:11.000Z</time>
      </trkpt>
      <trkpt lat="44.02326" lon="6.02072">
        <ele>736</ele>
        <time>2021-12-21T10:55:12.000Z</time>
      </trkpt>
      <trkpt lat="44.02325" lon="6.02073">
        <ele>736</ele>
        <time>2021-12-21T10:55:13.000Z</time>
      </trkpt>
      <trkpt lat="44.02324" lon="6.02073">
        <ele>736</ele>
        <time>2021-12-21T10:55:14.000Z</time>
      </trkpt>
      <trkpt lat="44.02324" lon="6.02074">
        <ele>736</ele>
        <time>2021-12-21T10:55:15.000Z</time>
      </trkpt>
      <trkpt lat="44.02323" lon="6.02075">
        <ele>736</ele>
        <time>2021-12-21T10:55:16.000Z</time>
      </trkpt>
      <trkpt lat="44.02322" lon="6.02075">
        <ele>736</ele>
        <time>2021-12-21T10:55:17.000Z</time>
      </trkpt>
      <trkpt lat="44.02322" lon="6.02076">
        <ele>736</ele>
        <time>2021-12-21T10:55:18.000Z</time>
      </trkpt>
      <trkpt lat="44.02321" lon="6.02076">
        <ele>736</ele>
        <time>2021-12-21T10:55:19.000Z</time>
      </trkpt>
      <trkpt lat="44.0232" lon="6.02076">
        <ele>736</ele>
        <time>2021-12-21T10:55:20.000Z</time>
      </trkpt>
      <trkpt lat="44.0232" lon="6.02076">
        <ele>736</ele>
        <time>2021-12-21T10:55:21.000Z</time>
      </trkpt>
      <trkpt lat="44.02319" lon="6.02076">
        <ele>736</ele>
        <time>2021-12-21T10:55:22.000Z</time>
      </trkpt>
      <trkpt lat="44.02318" lon="6.02076">
        <ele>736</ele>
        <time>2021-12-21T10:55:23.000Z</time>
      </trkpt>
      <trkpt lat="44.02317" lon="6.02077">
        <ele>736</ele>
        <time>2021-12-21T10:55:24.000Z</time>
      </trkpt>
      <trkpt lat="44.02316" lon="6.02077">
        <ele>736</ele>
        <time>2021-12-21T10:55:25.000Z</time>
      </trkpt>
      <trkpt lat="44.02315" lon="6.02077">
        <ele>737</ele>
        <time>2021-12-21T10:55:26.000Z</time>
      </trkpt>
      <trkpt lat="44.02315" lon="6.02077">
        <ele>737</ele>
        <time>2021-12-21T10:55:27.000Z</time>
      </trkpt>
      <trkpt lat="44.02314" lon="6.02077">
        <ele>737</ele>
        <time>2021-12-21T10:55:28.000Z</time>
      </trkpt>
      <trkpt lat="44.02313" lon="6.02078">
        <ele>737</ele>
        <time>2021-12-21T10:55:29.000Z</time>
      </trkpt>
      <trkpt lat="44.02312" lon="6.02078">
        <ele>737</ele>
        <time>2021-12-21T10:55:30.000Z</time>
      </trkpt>
      <trkpt lat="44.02311" lon="6.02078">
        <ele>737</ele>
        <time>2021-12-21T10:55:31.000Z</time>
      </trkpt>
      <trkpt lat="44.0231" lon="6.02078">
        <ele>738</ele>
        <time>2021-12-21T10:55:32.000Z</time>
      </trkpt>
      <trkpt lat="44.02309" lon="6.02078">
        <ele>738</ele>
        <time>2021-12-21T10:55:33.000Z</time>
      </trkpt>
      <trkpt lat="44.02309" lon="6.02078">
        <ele>738</ele>
        <time>2021-12-21T10:55:34.000Z</time>
      </trkpt>
      <trkpt lat="44.02308" lon="6.02078">
        <ele>738</ele>
        <time>2021-12-21T10:55:35.000Z</time>
      </trkpt>
      <trkpt lat="44.02307" lon="6.02078">
        <ele>738</ele>
        <time>2021-12-21T10:55:36.000Z</time>
      </trkpt>
      <trkpt lat="44.02306" lon="6.02079">
        <ele>739</ele>
        <time>2021-12-21T10:55:37.000Z</time>
      </trkpt>
      <trkpt lat="44.02305" lon="6.02079">
        <ele>739</ele>
        <time>2021-12-21T10:55:38.000Z</time>
      </trkpt>
      <trkpt lat="44.02304" lon="6.02079">
        <ele>739</ele>
        <time>2021-12-21T10:55:39.000Z</time>
      </trkpt>
      <trkpt lat="44.02303" lon="6.02079">
        <ele>739</ele>
        <time>2021-12-21T10:55:40.000Z</time>
      </trkpt>
      <trkpt lat="44.02302" lon="6.0208">
        <ele>740</ele>
        <time>2021-12-21T10:55:41.000Z</time>
      </trkpt>
      <trkpt lat="44.02301" lon="6.0208">
        <ele>740</ele>
        <time>2021-12-21T10:55:42.000Z</time>
      </trkpt>
      <trkpt lat="44.023" lon="6.02081">
        <ele>740</ele>
        <time>2021-12-21T10:55:43.000Z</time>
      </trkpt>
      <trkpt lat="44.023" lon="6.02081">
        <ele>740</ele>
        <time>2021-12-21T10:55:44.000Z</time>
      </trkpt>
      <trkpt lat="44.02299" lon="6.02081">
        <ele>741</ele>
        <time>2021-12-21T10:55:45.000Z</time>
      </trkpt>
      <trkpt lat="44.02298" lon="6.02082">
        <ele>741</ele>
        <time>2021-12-21T10:55:46.000Z</time>
      </trkpt>
      <trkpt lat="44.02297" lon="6.02083">
        <ele>741</ele>
        <time>2021-12-21T10:55:47.000Z</time>
      </trkpt>
      <trkpt lat="44.02297" lon="6.02083">
        <ele>741</ele>
        <time>2021-12-21T10:55:48.000Z</time>
      </trkpt>
      <trkpt lat="44.02296" lon="6.02084">
        <ele>742</ele>
        <time>2021-12-21T10:55:49.000Z</time>
      </trkpt>
      <trkpt lat="44.02295" lon="6.02084">
        <ele>742</ele>
        <time>2021-12-21T10:55:50.000Z</time>
      </trkpt>
      <trkpt lat="44.02294" lon="6.02085">
        <ele>742</ele>
        <time>2021-12-21T10:55:51.000Z</time>
      </trkpt>
      <trkpt lat="44.02293" lon="6.02085">
        <ele>742</ele>
        <time>2021-12-21T10:55:52.000Z</time>
      </trkpt>
      <trkpt lat="44.02293" lon="6.02086">
        <ele>743</ele>
        <time>2021-12-21T10:55:53.000Z</time>
      </trkpt>
      <trkpt lat="44.02292" lon="6.02086">
        <ele>743</ele>
        <time>2021-12-21T10:55:54.000Z</time>
      </trkpt>
      <trkpt lat="44.02291" lon="6.02087">
        <ele>743</ele>
        <time>2021-12-21T10:55:55.000Z</time>
      </trkpt>
      <trkpt lat="44.0229" lon="6.02087">
        <ele>743</ele>
        <time>2021-12-21T10:55:56.000Z</time>
      </trkpt>
      <trkpt lat="44.0229" lon="6.02088">
        <ele>743</ele>
        <time>2021-12-21T10:55:57.000Z</time>
      </trkpt>
      <trkpt lat="44.02289" lon="6.02089">
        <ele>744</ele>
        <time>2021-12-21T10:55:58.000Z</time>
      </trkpt>
      <trkpt lat="44.02288" lon="6.02089">
        <ele>744</ele>
        <time>2021-12-21T10:55:59.000Z</time>
      </trkpt>
      <trkpt lat="44.02287" lon="6.02089">
        <ele>744</ele>
        <time>2021-12-21T10:56:00.000Z</time>
      </trkpt>
      <trkpt lat="44.02287" lon="6.0209">
        <ele>744</ele>
        <time>2021-12-21T10:56:01.000Z</time>
      </trkpt>
      <trkpt lat="44.02286" lon="6.0209">
        <ele>744</ele>
        <time>2021-12-21T10:56:02.000Z</time>
      </trkpt>
      <trkpt lat="44.02286" lon="6.0209">
        <ele>744</ele>
        <time>2021-12-21T10:56:03.000Z</time>
      </trkpt>
      <trkpt lat="44.02286" lon="6.0209">
        <ele>744</ele>
        <time>2021-12-21T10:56:04.000Z</time>
      </trkpt>
      <trkpt lat="44.02286" lon="6.0209">
        <ele>744</ele>
        <time>2021-12-21T10:56:05.000Z</time>
      </trkpt>
      <trkpt lat="44.02287" lon="6.0209">
        <ele>744</ele>
        <time>2021-12-21T10:56:06.000Z</time>
      </trkpt>
      <trkpt lat="44.02287" lon="6.0209">
        <ele>745</ele>
        <time>2021-12-21T10:56:07.000Z</time>
      </trkpt>
      <trkpt lat="44.02286" lon="6.0209">
        <ele>745</ele>
        <time>2021-12-21T10:56:08.000Z</time>
      </trkpt>
      <trkpt lat="44.02286" lon="6.0209">
        <ele>745</ele>
        <time>2021-12-21T10:56:09.000Z</time>
      </trkpt>
      <trkpt lat="44.02286" lon="6.0209">
        <ele>745</ele>
        <time>2021-12-21T10:56:10.000Z</time>
      </trkpt>
      <trkpt lat="44.02286" lon="6.0209">
        <ele>745</ele>
        <time>2021-12-21T10:56:11.000Z</time>
      </trkpt>
      <trkpt lat="44.02286" lon="6.0209">
        <ele>745</ele>
        <time>2021-12-21T10:56:12.000Z</time>
      </trkpt>
      <trkpt lat="44.02286" lon="6.02091">
        <ele>745</ele>
        <time>2021-12-21T10:56:13.000Z</time>
      </trkpt>
      <trkpt lat="44.02286" lon="6.02091">
        <ele>745</ele>
        <time>2021-12-21T10:56:14.000Z</time>
      </trkpt>
      <trkpt lat="44.02286" lon="6.02091">
        <ele>745</ele>
        <time>2021-12-21T10:56:15.000Z</time>
      </trkpt>
      <trkpt lat="44.02286" lon="6.02091">
        <ele>745</ele>
        <time>2021-12-21T10:56:16.000Z</time>
      </trkpt>
      <trkpt lat="44.02286" lon="6.02091">
        <ele>745</ele>
        <time>2021-12-21T10:56:17.000Z</time>
      </trkpt>
      <trkpt lat="44.02286" lon="6.02091">
        <ele>745</ele>
        <time>2021-12-21T10:56:18.000Z</time>
      </trkpt>
      <trkpt lat="44.02286" lon="6.02091">
        <ele>746</ele>
        <time>2021-12-21T10:56:19.000Z</time>
      </trkpt>
      <trkpt lat="44.02286" lon="6.02091">
        <ele>746</ele>
        <time>2021-12-21T10:56:20.000Z</time>
      </trkpt>
      <trkpt lat="44.02286" lon="6.02091">
        <ele>746</ele>
        <time>2021-12-21T10:56:21.000Z</time>
      </trkpt>
      <trkpt lat="44.02286" lon="6.02091">
        <ele>746</ele>
        <time>2021-12-21T10:56:22.000Z</time>
      </trkpt>
      <trkpt lat="44.02286" lon="6.02091">
        <ele>746</ele>
        <time>2021-12-21T10:56:23.000Z</time>
      </trkpt>
      <trkpt lat="44.02286" lon="6.02091">
        <ele>746</ele>
        <time>2021-12-21T10:56:24.000Z</time>
      </trkpt>
      <trkpt lat="44.02286" lon="6.02091">
        <ele>746</ele>
        <time>2021-12-21T10:56:25.000Z</time>
      </trkpt>
      <trkpt lat="44.02286" lon="6.02091">
        <ele>746</ele>
        <time>2021-12-21T10:56:26.000Z</time>
      </trkpt>
      <trkpt lat="44.02286" lon="6.02091">
        <ele>746</ele>
        <time>2021-12-21T10:56:27.000Z</time>
      </trkpt>
      <trkpt lat="44.02286" lon="6.02091">
        <ele>746</ele>
        <time>2021-12-21T10:56:28.000Z</time>
      </trkpt>
      <trkpt lat="44.02286" lon="6.02091">
        <ele>746</ele>
        <time>2021-12-21T10:56:29.000Z</time>
      </trkpt>
      <trkpt lat="44.02286" lon="6.02091">
        <ele>746</ele>
        <time>2021-12-21T10:56:30.000Z</time>
      </trkpt>
      <trkpt lat="44.02286" lon="6.02091">
        <ele>746</ele>
        <time>2021-12-21T10:56:31.000Z</time>
      </trkpt>
      <trkpt lat="44.02286" lon="6.02091">
        <ele>746</ele>
        <time>2021-12-21T10:56:32.000Z</time>
      </trkpt>
      <trkpt lat="44.02286" lon="6.02091">
        <ele>746</ele>
        <time>2021-12-21T10:56:33.000Z</time>
      </trkpt>
      <trkpt lat="44.02286" lon="6.02091">
        <ele>746</ele>
        <time>2021-12-21T10:56:34.000Z</time>
      </trkpt>
      <trkpt lat="44.02286" lon="6.02091">
        <ele>746</ele>
        <time>2021-12-21T10:56:35.000Z</time>
      </trkpt>
      <trkpt lat="44.02286" lon="6.02091">
        <ele>746</ele>
        <time>2021-12-21T10:56:36.000Z</time>
      </trkpt>
      <trkpt lat="44.02286" lon="6.02091">
        <ele>746</ele>
        <time>2021-12-21T10:56:37.000Z</time>
      </trkpt>
      <trkpt lat="44.02286" lon="6.02091">
        <ele>746</ele>
        <time>2021-12-21T10:56:38.000Z</time>
      </trkpt>
      <trkpt lat="44.02286" lon="6.02091">
        <ele>746</ele>
        <time>2021-12-21T10:56:39.000Z</time>
      </trkpt>
      <trkpt lat="44.02286" lon="6.02091">
        <ele>746</ele>
        <time>2021-12-21T10:56:40.000Z</time>
      </trkpt>
      <trkpt lat="44.02286" lon="6.02091">
        <ele>746</ele>
        <time>2021-12-21T10:56:41.000Z</time>
      </trkpt>
      <trkpt lat="44.02285" lon="6.02092">
        <ele>746</ele>
        <time>2021-12-21T10:56:42.000Z</time>
      </trkpt>
      <trkpt lat="44.02285" lon="6.02092">
        <ele>746</ele>
        <time>2021-12-21T10:56:43.000Z</time>
      </trkpt>
      <trkpt lat="44.02284" lon="6.02092">
        <ele>747</ele>
        <time>2021-12-21T10:56:44.000Z</time>
      </trkpt>
      <trkpt lat="44.02284" lon="6.02092">
        <ele>747</ele>
        <time>2021-12-21T10:56:45.000Z</time>
      </trkpt>
      <trkpt lat="44.02283" lon="6.02092">
        <ele>747</ele>
        <time>2021-12-21T10:56:46.000Z</time>
      </trkpt>
      <trkpt lat="44.02282" lon="6.02093">
        <ele>747</ele>
        <time>2021-12-21T10:56:47.000Z</time>
      </trkpt>
      <trkpt lat="44.02281" lon="6.02093">
        <ele>747</ele>
        <time>2021-12-21T10:56:48.000Z</time>
      </trkpt>
      <trkpt lat="44.0228" lon="6.02094">
        <ele>747</ele>
        <time>2021-12-21T10:56:49.000Z</time>
      </trkpt>
      <trkpt lat="44.02279" lon="6.02094">
        <ele>747</ele>
        <time>2021-12-21T10:56:50.000Z</time>
      </trkpt>
      <trkpt lat="44.02278" lon="6.02094">
        <ele>747</ele>
        <time>2021-12-21T10:56:51.000Z</time>
      </trkpt>
      <trkpt lat="44.02277" lon="6.02094">
        <ele>747</ele>
        <time>2021-12-21T10:56:52.000Z</time>
      </trkpt>
      <trkpt lat="44.02276" lon="6.02095">
        <ele>747</ele>
        <time>2021-12-21T10:56:53.000Z</time>
      </trkpt>
      <trkpt lat="44.02275" lon="6.02095">
        <ele>747</ele>
        <time>2021-12-21T10:56:54.000Z</time>
      </trkpt>
      <trkpt lat="44.02275" lon="6.02095">
        <ele>748</ele>
        <time>2021-12-21T10:56:55.000Z</time>
      </trkpt>
      <trkpt lat="44.02274" lon="6.02095">
        <ele>748</ele>
        <time>2021-12-21T10:56:56.000Z</time>
      </trkpt>
      <trkpt lat="44.02274" lon="6.02095">
        <ele>748</ele>
        <time>2021-12-21T10:56:57.000Z</time>
      </trkpt>
      <trkpt lat="44.02273" lon="6.02096">
        <ele>748</ele>
        <time>2021-12-21T10:56:58.000Z</time>
      </trkpt>
      <trkpt lat="44.02273" lon="6.02096">
        <ele>748</ele>
        <time>2021-12-21T10:56:59.000Z</time>
      </trkpt>
      <trkpt lat="44.02272" lon="6.02096">
        <ele>748</ele>
        <time>2021-12-21T10:57:00.000Z</time>
      </trkpt>
      <trkpt lat="44.02271" lon="6.02096">
        <ele>748</ele>
        <time>2021-12-21T10:57:01.000Z</time>
      </trkpt>
      <trkpt lat="44.02271" lon="6.02096">
        <ele>748</ele>
        <time>2021-12-21T10:57:02.000Z</time>
      </trkpt>
      <trkpt lat="44.0227" lon="6.02097">
        <ele>748</ele>
        <time>2021-12-21T10:57:03.000Z</time>
      </trkpt>
      <trkpt lat="44.0227" lon="6.02097">
        <ele>748</ele>
        <time>2021-12-21T10:57:04.000Z</time>
      </trkpt>
      <trkpt lat="44.02269" lon="6.02098">
        <ele>748</ele>
        <time>2021-12-21T10:57:05.000Z</time>
      </trkpt>
      <trkpt lat="44.02268" lon="6.02098">
        <ele>748</ele>
        <time>2021-12-21T10:57:06.000Z</time>
      </trkpt>
      <trkpt lat="44.02267" lon="6.02098">
        <ele>748</ele>
        <time>2021-12-21T10:57:07.000Z</time>
      </trkpt>
      <trkpt lat="44.02267" lon="6.02098">
        <ele>748</ele>
        <time>2021-12-21T10:57:08.000Z</time>
      </trkpt>
      <trkpt lat="44.02266" lon="6.02099">
        <ele>749</ele>
        <time>2021-12-21T10:57:09.000Z</time>
      </trkpt>
      <trkpt lat="44.02265" lon="6.02099">
        <ele>749</ele>
        <time>2021-12-21T10:57:10.000Z</time>
      </trkpt>
      <trkpt lat="44.02264" lon="6.02099">
        <ele>749</ele>
        <time>2021-12-21T10:57:11.000Z</time>
      </trkpt>
      <trkpt lat="44.02263" lon="6.021">
        <ele>749</ele>
        <time>2021-12-21T10:57:12.000Z</time>
      </trkpt>
      <trkpt lat="44.02262" lon="6.021">
        <ele>749</ele>
        <time>2021-12-21T10:57:13.000Z</time>
      </trkpt>
      <trkpt lat="44.02261" lon="6.02101">
        <ele>749</ele>
        <time>2021-12-21T10:57:14.000Z</time>
      </trkpt>
      <trkpt lat="44.02261" lon="6.02102">
        <ele>749</ele>
        <time>2021-12-21T10:57:15.000Z</time>
      </trkpt>
      <trkpt lat="44.0226" lon="6.02102">
        <ele>749</ele>
        <time>2021-12-21T10:57:16.000Z</time>
      </trkpt>
      <trkpt lat="44.02259" lon="6.02103">
        <ele>749</ele>
        <time>2021-12-21T10:57:17.000Z</time>
      </trkpt>
      <trkpt lat="44.02259" lon="6.02103">
        <ele>750</ele>
        <time>2021-12-21T10:57:18.000Z</time>
      </trkpt>
      <trkpt lat="44.02258" lon="6.02104">
        <ele>750</ele>
        <time>2021-12-21T10:57:19.000Z</time>
      </trkpt>
      <trkpt lat="44.02258" lon="6.02104">
        <ele>750</ele>
        <time>2021-12-21T10:57:20.000Z</time>
      </trkpt>
      <trkpt lat="44.02257" lon="6.02105">
        <ele>750</ele>
        <time>2021-12-21T10:57:21.000Z</time>
      </trkpt>
      <trkpt lat="44.02256" lon="6.02105">
        <ele>751</ele>
        <time>2021-12-21T10:57:22.000Z</time>
      </trkpt>
      <trkpt lat="44.02256" lon="6.02106">
        <ele>751</ele>
        <time>2021-12-21T10:57:23.000Z</time>
      </trkpt>
      <trkpt lat="44.02255" lon="6.02106">
        <ele>751</ele>
        <time>2021-12-21T10:57:24.000Z</time>
      </trkpt>
      <trkpt lat="44.02254" lon="6.02107">
        <ele>751</ele>
        <time>2021-12-21T10:57:25.000Z</time>
      </trkpt>
      <trkpt lat="44.02254" lon="6.02107">
        <ele>752</ele>
        <time>2021-12-21T10:57:26.000Z</time>
      </trkpt>
      <trkpt lat="44.02253" lon="6.02107">
        <ele>752</ele>
        <time>2021-12-21T10:57:27.000Z</time>
      </trkpt>
      <trkpt lat="44.02252" lon="6.02108">
        <ele>752</ele>
        <time>2021-12-21T10:57:28.000Z</time>
      </trkpt>
      <trkpt lat="44.02251" lon="6.02108">
        <ele>752</ele>
        <time>2021-12-21T10:57:29.000Z</time>
      </trkpt>
      <trkpt lat="44.02251" lon="6.02108">
        <ele>752</ele>
        <time>2021-12-21T10:57:30.000Z</time>
      </trkpt>
      <trkpt lat="44.0225" lon="6.02108">
        <ele>753</ele>
        <time>2021-12-21T10:57:31.000Z</time>
      </trkpt>
      <trkpt lat="44.02249" lon="6.02108">
        <ele>753</ele>
        <time>2021-12-21T10:57:32.000Z</time>
      </trkpt>
      <trkpt lat="44.02249" lon="6.02108">
        <ele>753</ele>
        <time>2021-12-21T10:57:33.000Z</time>
      </trkpt>
      <trkpt lat="44.02248" lon="6.02109">
        <ele>753</ele>
        <time>2021-12-21T10:57:34.000Z</time>
      </trkpt>
      <trkpt lat="44.02247" lon="6.02109">
        <ele>753</ele>
        <time>2021-12-21T10:57:35.000Z</time>
      </trkpt>
      <trkpt lat="44.02246" lon="6.0211">
        <ele>753</ele>
        <time>2021-12-21T10:57:36.000Z</time>
      </trkpt>
      <trkpt lat="44.02245" lon="6.0211">
        <ele>754</ele>
        <time>2021-12-21T10:57:37.000Z</time>
      </trkpt>
      <trkpt lat="44.02244" lon="6.02111">
        <ele>754</ele>
        <time>2021-12-21T10:57:38.000Z</time>
      </trkpt>
      <trkpt lat="44.02243" lon="6.02111">
        <ele>754</ele>
        <time>2021-12-21T10:57:39.000Z</time>
      </trkpt>
      <trkpt lat="44.02242" lon="6.02112">
        <ele>754</ele>
        <time>2021-12-21T10:57:40.000Z</time>
      </trkpt>
      <trkpt lat="44.02241" lon="6.02112">
        <ele>754</ele>
        <time>2021-12-21T10:57:41.000Z</time>
      </trkpt>
      <trkpt lat="44.02241" lon="6.02113">
        <ele>754</ele>
        <time>2021-12-21T10:57:42.000Z</time>
      </trkpt>
      <trkpt lat="44.0224" lon="6.02113">
        <ele>754</ele>
        <time>2021-12-21T10:57:43.000Z</time>
      </trkpt>
      <trkpt lat="44.02239" lon="6.02113">
        <ele>754</ele>
        <time>2021-12-21T10:57:44.000Z</time>
      </trkpt>
      <trkpt lat="44.02238" lon="6.02113">
        <ele>754</ele>
        <time>2021-12-21T10:57:45.000Z</time>
      </trkpt>
      <trkpt lat="44.02238" lon="6.02114">
        <ele>754</ele>
        <time>2021-12-21T10:57:46.000Z</time>
      </trkpt>
      <trkpt lat="44.02237" lon="6.02114">
        <ele>754</ele>
        <time>2021-12-21T10:57:47.000Z</time>
      </trkpt>
      <trkpt lat="44.02236" lon="6.02115">
        <ele>754</ele>
        <time>2021-12-21T10:57:48.000Z</time>
      </trkpt>
      <trkpt lat="44.02235" lon="6.02115">
        <ele>754</ele>
        <time>2021-12-21T10:57:49.000Z</time>
      </trkpt>
      <trkpt lat="44.02234" lon="6.02116">
        <ele>754</ele>
        <time>2021-12-21T10:57:50.000Z</time>
      </trkpt>
      <trkpt lat="44.02234" lon="6.02117">
        <ele>754</ele>
        <time>2021-12-21T10:57:51.000Z</time>
      </trkpt>
      <trkpt lat="44.02233" lon="6.02117">
        <ele>754</ele>
        <time>2021-12-21T10:57:52.000Z</time>
      </trkpt>
      <trkpt lat="44.02232" lon="6.02118">
        <ele>754</ele>
        <time>2021-12-21T10:57:53.000Z</time>
      </trkpt>
      <trkpt lat="44.02231" lon="6.02119">
        <ele>754</ele>
        <time>2021-12-21T10:57:54.000Z</time>
      </trkpt>
      <trkpt lat="44.0223" lon="6.0212">
        <ele>755</ele>
        <time>2021-12-21T10:57:55.000Z</time>
      </trkpt>
      <trkpt lat="44.02229" lon="6.0212">
        <ele>755</ele>
        <time>2021-12-21T10:57:56.000Z</time>
      </trkpt>
      <trkpt lat="44.02229" lon="6.02121">
        <ele>755</ele>
        <time>2021-12-21T10:57:57.000Z</time>
      </trkpt>
      <trkpt lat="44.02228" lon="6.02121">
        <ele>755</ele>
        <time>2021-12-21T10:57:58.000Z</time>
      </trkpt>
      <trkpt lat="44.02227" lon="6.02122">
        <ele>755</ele>
        <time>2021-12-21T10:57:59.000Z</time>
      </trkpt>
      <trkpt lat="44.02226" lon="6.02122">
        <ele>755</ele>
        <time>2021-12-21T10:58:00.000Z</time>
      </trkpt>
      <trkpt lat="44.02225" lon="6.02123">
        <ele>755</ele>
        <time>2021-12-21T10:58:01.000Z</time>
      </trkpt>
      <trkpt lat="44.02224" lon="6.02124">
        <ele>755</ele>
        <time>2021-12-21T10:58:02.000Z</time>
      </trkpt>
      <trkpt lat="44.02224" lon="6.02124">
        <ele>755</ele>
        <time>2021-12-21T10:58:03.000Z</time>
      </trkpt>
      <trkpt lat="44.02223" lon="6.02125">
        <ele>755</ele>
        <time>2021-12-21T10:58:04.000Z</time>
      </trkpt>
      <trkpt lat="44.02222" lon="6.02125">
        <ele>755</ele>
        <time>2021-12-21T10:58:05.000Z</time>
      </trkpt>
      <trkpt lat="44.02222" lon="6.02125">
        <ele>755</ele>
        <time>2021-12-21T10:58:06.000Z</time>
      </trkpt>
      <trkpt lat="44.02222" lon="6.02125">
        <ele>755</ele>
        <time>2021-12-21T10:58:07.000Z</time>
      </trkpt>
      <trkpt lat="44.02222" lon="6.02125">
        <ele>755</ele>
        <time>2021-12-21T10:58:08.000Z</time>
      </trkpt>
      <trkpt lat="44.02222" lon="6.02125">
        <ele>755</ele>
        <time>2021-12-21T10:58:09.000Z</time>
      </trkpt>
      <trkpt lat="44.02222" lon="6.02125">
        <ele>755</ele>
        <time>2021-12-21T10:58:10.000Z</time>
      </trkpt>
      <trkpt lat="44.02221" lon="6.02125">
        <ele>755</ele>
        <time>2021-12-21T10:58:11.000Z</time>
      </trkpt>
      <trkpt lat="44.02221" lon="6.02125">
        <ele>755</ele>
        <time>2021-12-21T10:58:12.000Z</time>
      </trkpt>
      <trkpt lat="44.02221" lon="6.02125">
        <ele>755</ele>
        <time>2021-12-21T10:58:13.000Z</time>
      </trkpt>
      <trkpt lat="44.02221" lon="6.02125">
        <ele>755</ele>
        <time>2021-12-21T10:58:14.000Z</time>
      </trkpt>
      <trkpt lat="44.02221" lon="6.02125">
        <ele>755</ele>
        <time>2021-12-21T10:58:15.000Z</time>
      </trkpt>
      <trkpt lat="44.02221" lon="6.02125">
        <ele>755</ele>
        <time>2021-12-21T10:58:16.000Z</time>
      </trkpt>
      <trkpt lat="44.02221" lon="6.02125">
        <ele>755</ele>
        <time>2021-12-21T10:58:17.000Z</time>
      </trkpt>
      <trkpt lat="44.02221" lon="6.02125">
        <ele>755</ele>
        <time>2021-12-21T10:58:18.000Z</time>
      </trkpt>
      <trkpt lat="44.0222" lon="6.02125">
        <ele>756</ele>
        <time>2021-12-21T10:58:19.000Z</time>
      </trkpt>
      <trkpt lat="44.0222" lon="6.02125">
        <ele>756</ele>
        <time>2021-12-21T10:58:20.000Z</time>
      </trkpt>
      <trkpt lat="44.0222" lon="6.02125">
        <ele>756</ele>
        <time>2021-12-21T10:58:21.000Z</time>
      </trkpt>
      <trkpt lat="44.0222" lon="6.02125">
        <ele>756</ele>
        <time>2021-12-21T10:58:22.000Z</time>
      </trkpt>
      <trkpt lat="44.0222" lon="6.02125">
        <ele>756</ele>
        <time>2021-12-21T10:58:23.000Z</time>
      </trkpt>
      <trkpt lat="44.0222" lon="6.02125">
        <ele>756</ele>
        <time>2021-12-21T10:58:24.000Z</time>
      </trkpt>
      <trkpt lat="44.0222" lon="6.02125">
        <ele>756</ele>
        <time>2021-12-21T10:58:25.000Z</time>
      </trkpt>
      <trkpt lat="44.0222" lon="6.02125">
        <ele>756</ele>
        <time>2021-12-21T10:58:26.000Z</time>
      </trkpt>
      <trkpt lat="44.0222" lon="6.02125">
        <ele>756</ele>
        <time>2021-12-21T10:58:27.000Z</time>
      </trkpt>
      <trkpt lat="44.02219" lon="6.02125">
        <ele>756</ele>
        <time>2021-12-21T10:58:28.000Z</time>
      </trkpt>
      <trkpt lat="44.02219" lon="6.02125">
        <ele>756</ele>
        <time>2021-12-21T10:58:29.000Z</time>
      </trkpt>
      <trkpt lat="44.02219" lon="6.02125">
        <ele>756</ele>
        <time>2021-12-21T10:58:30.000Z</time>
      </trkpt>
      <trkpt lat="44.02219" lon="6.02125">
        <ele>756</ele>
        <time>2021-12-21T10:58:31.000Z</time>
      </trkpt>
      <trkpt lat="44.02219" lon="6.02125">
        <ele>756</ele>
        <time>2021-12-21T10:58:32.000Z</time>
      </trkpt>
      <trkpt lat="44.02219" lon="6.02125">
        <ele>756</ele>
        <time>2021-12-21T10:58:33.000Z</time>
      </trkpt>
      <trkpt lat="44.02219" lon="6.02126">
        <ele>756</ele>
        <time>2021-12-21T10:58:34.000Z</time>
      </trkpt>
      <trkpt lat="44.02219" lon="6.02126">
        <ele>756</ele>
        <time>2021-12-21T10:58:35.000Z</time>
      </trkpt>
      <trkpt lat="44.02219" lon="6.02126">
        <ele>756</ele>
        <time>2021-12-21T10:58:36.000Z</time>
      </trkpt>
      <trkpt lat="44.02219" lon="6.02125">
        <ele>756</ele>
        <time>2021-12-21T10:58:37.000Z</time>
      </trkpt>
      <trkpt lat="44.02218" lon="6.02125">
        <ele>756</ele>
        <time>2021-12-21T10:58:38.000Z</time>
      </trkpt>
      <trkpt lat="44.02218" lon="6.02125">
        <ele>756</ele>
        <time>2021-12-21T10:58:39.000Z</time>
      </trkpt>
      <trkpt lat="44.02218" lon="6.02125">
        <ele>757</ele>
        <time>2021-12-21T10:58:40.000Z</time>
      </trkpt>
      <trkpt lat="44.02218" lon="6.02125">
        <ele>757</ele>
        <time>2021-12-21T10:58:41.000Z</time>
      </trkpt>
      <trkpt lat="44.02218" lon="6.02125">
        <ele>757</ele>
        <time>2021-12-21T10:58:42.000Z</time>
      </trkpt>
      <trkpt lat="44.02218" lon="6.02125">
        <ele>757</ele>
        <time>2021-12-21T10:58:43.000Z</time>
      </trkpt>
      <trkpt lat="44.02218" lon="6.02125">
        <ele>757</ele>
        <time>2021-12-21T10:58:44.000Z</time>
      </trkpt>
      <trkpt lat="44.02218" lon="6.02125">
        <ele>757</ele>
        <time>2021-12-21T10:58:45.000Z</time>
      </trkpt>
      <trkpt lat="44.02218" lon="6.02125">
        <ele>757</ele>
        <time>2021-12-21T10:58:46.000Z</time>
      </trkpt>
      <trkpt lat="44.02218" lon="6.02125">
        <ele>757</ele>
        <time>2021-12-21T10:58:47.000Z</time>
      </trkpt>
      <trkpt lat="44.02218" lon="6.02125">
        <ele>757</ele>
        <time>2021-12-21T10:58:48.000Z</time>
      </trkpt>
      <trkpt lat="44.02218" lon="6.02125">
        <ele>757</ele>
        <time>2021-12-21T10:58:49.000Z</time>
      </trkpt>
      <trkpt lat="44.02218" lon="6.02125">
        <ele>757</ele>
        <time>2021-12-21T10:58:50.000Z</time>
      </trkpt>
      <trkpt lat="44.02218" lon="6.02125">
        <ele>757</ele>
        <time>2021-12-21T10:58:51.000Z</time>
      </trkpt>
      <trkpt lat="44.02218" lon="6.02125">
        <ele>757</ele>
        <time>2021-12-21T10:58:52.000Z</time>
      </trkpt>
      <trkpt lat="44.02218" lon="6.02125">
        <ele>757</ele>
        <time>2021-12-21T10:58:53.000Z</time>
      </trkpt>
      <trkpt lat="44.02218" lon="6.02125">
        <ele>757</ele>
        <time>2021-12-21T10:58:54.000Z</time>
      </trkpt>
      <trkpt lat="44.02218" lon="6.02125">
        <ele>757</ele>
        <time>2021-12-21T10:58:55.000Z</time>
      </trkpt>
      <trkpt lat="44.02218" lon="6.02125">
        <ele>757</ele>
        <time>2021-12-21T10:58:56.000Z</time>
      </trkpt>
      <trkpt lat="44.02218" lon="6.02125">
        <ele>757</ele>
        <time>2021-12-21T10:58:57.000Z</time>
      </trkpt>
      <trkpt lat="44.02218" lon="6.02125">
        <ele>757</ele>
        <time>2021-12-21T10:58:58.000Z</time>
      </trkpt>
      <trkpt lat="44.02218" lon="6.02125">
        <ele>757</ele>
        <time>2021-12-21T10:58:59.000Z</time>
      </trkpt>
      <trkpt lat="44.02218" lon="6.02125">
        <ele>757</ele>
        <time>2021-12-21T10:59:00.000Z</time>
      </trkpt>
      <trkpt lat="44.02218" lon="6.02125">
        <ele>757</ele>
        <time>2021-12-21T10:59:01.000Z</time>
      </trkpt>
      <trkpt lat="44.02218" lon="6.02125">
        <ele>757</ele>
        <time>2021-12-21T10:59:02.000Z</time>
      </trkpt>
      <trkpt lat="44.02218" lon="6.02125">
        <ele>757</ele>
        <time>2021-12-21T10:59:03.000Z</time>
      </trkpt>
      <trkpt lat="44.02218" lon="6.02125">
        <ele>757</ele>
        <time>2021-12-21T10:59:04.000Z</time>
      </trkpt>
      <trkpt lat="44.02218" lon="6.02125">
        <ele>757</ele>
        <time>2021-12-21T10:59:05.000Z</time>
      </trkpt>
      <trkpt lat="44.02218" lon="6.02126">
        <ele>757</ele>
        <time>2021-12-21T10:59:06.000Z</time>
      </trkpt>
      <trkpt lat="44.02217" lon="6.02126">
        <ele>757</ele>
        <time>2021-12-21T10:59:07.000Z</time>
      </trkpt>
      <trkpt lat="44.02217" lon="6.02126">
        <ele>757</ele>
        <time>2021-12-21T10:59:08.000Z</time>
      </trkpt>
      <trkpt lat="44.02216" lon="6.02127">
        <ele>757</ele>
        <time>2021-12-21T10:59:09.000Z</time>
      </trkpt>
      <trkpt lat="44.02216" lon="6.02127">
        <ele>757</ele>
        <time>2021-12-21T10:59:10.000Z</time>
      </trkpt>
      <trkpt lat="44.02215" lon="6.02128">
        <ele>757</ele>
        <time>2021-12-21T10:59:11.000Z</time>
      </trkpt>
      <trkpt lat="44.02214" lon="6.02128">
        <ele>757</ele>
        <time>2021-12-21T10:59:12.000Z</time>
      </trkpt>
      <trkpt lat="44.02214" lon="6.02129">
        <ele>757</ele>
        <time>2021-12-21T10:59:13.000Z</time>
      </trkpt>
      <trkpt lat="44.02213" lon="6.02129">
        <ele>757</ele>
        <time>2021-12-21T10:59:14.000Z</time>
      </trkpt>
      <trkpt lat="44.02213" lon="6.0213">
        <ele>757</ele>
        <time>2021-12-21T10:59:15.000Z</time>
      </trkpt>
      <trkpt lat="44.02212" lon="6.0213">
        <ele>757</ele>
        <time>2021-12-21T10:59:16.000Z</time>
      </trkpt>
      <trkpt lat="44.02212" lon="6.02131">
        <ele>757</ele>
        <time>2021-12-21T10:59:17.000Z</time>
      </trkpt>
      <trkpt lat="44.02211" lon="6.02132">
        <ele>757</ele>
        <time>2021-12-21T10:59:18.000Z</time>
      </trkpt>
      <trkpt lat="44.02211" lon="6.02132">
        <ele>757</ele>
        <time>2021-12-21T10:59:19.000Z</time>
      </trkpt>
      <trkpt lat="44.0221" lon="6.02133">
        <ele>757</ele>
        <time>2021-12-21T10:59:20.000Z</time>
      </trkpt>
      <trkpt lat="44.0221" lon="6.02134">
        <ele>757</ele>
        <time>2021-12-21T10:59:21.000Z</time>
      </trkpt>
      <trkpt lat="44.02209" lon="6.02134">
        <ele>757</ele>
        <time>2021-12-21T10:59:22.000Z</time>
      </trkpt>
      <trkpt lat="44.02209" lon="6.02135">
        <ele>757</ele>
        <time>2021-12-21T10:59:23.000Z</time>
      </trkpt>
      <trkpt lat="44.02208" lon="6.02136">
        <ele>758</ele>
        <time>2021-12-21T10:59:24.000Z</time>
      </trkpt>
      <trkpt lat="44.02208" lon="6.02136">
        <ele>758</ele>
        <time>2021-12-21T10:59:25.000Z</time>
      </trkpt>
      <trkpt lat="44.02208" lon="6.02137">
        <ele>758</ele>
        <time>2021-12-21T10:59:26.000Z</time>
      </trkpt>
      <trkpt lat="44.02207" lon="6.02138">
        <ele>758</ele>
        <time>2021-12-21T10:59:27.000Z</time>
      </trkpt>
      <trkpt lat="44.02206" lon="6.02138">
        <ele>758</ele>
        <time>2021-12-21T10:59:28.000Z</time>
      </trkpt>
      <trkpt lat="44.02206" lon="6.02139">
        <ele>758</ele>
        <time>2021-12-21T10:59:29.000Z</time>
      </trkpt>
      <trkpt lat="44.02205" lon="6.0214">
        <ele>758</ele>
        <time>2021-12-21T10:59:30.000Z</time>
      </trkpt>
      <trkpt lat="44.02205" lon="6.0214">
        <ele>758</ele>
        <time>2021-12-21T10:59:31.000Z</time>
      </trkpt>
      <trkpt lat="44.02204" lon="6.02141">
        <ele>758</ele>
        <time>2021-12-21T10:59:32.000Z</time>
      </trkpt>
      <trkpt lat="44.02204" lon="6.02141">
        <ele>758</ele>
        <time>2021-12-21T10:59:33.000Z</time>
      </trkpt>
      <trkpt lat="44.02203" lon="6.02142">
        <ele>758</ele>
        <time>2021-12-21T10:59:34.000Z</time>
      </trkpt>
      <trkpt lat="44.02203" lon="6.02142">
        <ele>758</ele>
        <time>2021-12-21T10:59:35.000Z</time>
      </trkpt>
      <trkpt lat="44.02202" lon="6.02143">
        <ele>758</ele>
        <time>2021-12-21T10:59:36.000Z</time>
      </trkpt>
      <trkpt lat="44.02202" lon="6.02143">
        <ele>758</ele>
        <time>2021-12-21T10:59:37.000Z</time>
      </trkpt>
      <trkpt lat="44.02201" lon="6.02144">
        <ele>758</ele>
        <time>2021-12-21T10:59:38.000Z</time>
      </trkpt>
      <trkpt lat="44.02201" lon="6.02144">
        <ele>758</ele>
        <time>2021-12-21T10:59:39.000Z</time>
      </trkpt>
      <trkpt lat="44.022" lon="6.02145">
        <ele>758</ele>
        <time>2021-12-21T10:59:40.000Z</time>
      </trkpt>
      <trkpt lat="44.02199" lon="6.02145">
        <ele>758</ele>
        <time>2021-12-21T10:59:41.000Z</time>
      </trkpt>
      <trkpt lat="44.02198" lon="6.02146">
        <ele>758</ele>
        <time>2021-12-21T10:59:42.000Z</time>
      </trkpt>
      <trkpt lat="44.02198" lon="6.02146">
        <ele>758</ele>
        <time>2021-12-21T10:59:43.000Z</time>
      </trkpt>
      <trkpt lat="44.02197" lon="6.02146">
        <ele>758</ele>
        <time>2021-12-21T10:59:44.000Z</time>
      </trkpt>
      <trkpt lat="44.02197" lon="6.02147">
        <ele>759</ele>
        <time>2021-12-21T10:59:45.000Z</time>
      </trkpt>
      <trkpt lat="44.02196" lon="6.02147">
        <ele>759</ele>
        <time>2021-12-21T10:59:46.000Z</time>
      </trkpt>
      <trkpt lat="44.02196" lon="6.02147">
        <ele>759</ele>
        <time>2021-12-21T10:59:47.000Z</time>
      </trkpt>
      <trkpt lat="44.02195" lon="6.02148">
        <ele>759</ele>
        <time>2021-12-21T10:59:48.000Z</time>
      </trkpt>
      <trkpt lat="44.02195" lon="6.02148">
        <ele>759</ele>
        <time>2021-12-21T10:59:49.000Z</time>
      </trkpt>
      <trkpt lat="44.02194" lon="6.02149">
        <ele>759</ele>
        <time>2021-12-21T10:59:50.000Z</time>
      </trkpt>
      <trkpt lat="44.02194" lon="6.02149">
        <ele>759</ele>
        <time>2021-12-21T10:59:51.000Z</time>
      </trkpt>
      <trkpt lat="44.02193" lon="6.0215">
        <ele>759</ele>
        <time>2021-12-21T10:59:52.000Z</time>
      </trkpt>
      <trkpt lat="44.02193" lon="6.0215">
        <ele>759</ele>
        <time>2021-12-21T10:59:53.000Z</time>
      </trkpt>
      <trkpt lat="44.02192" lon="6.02151">
        <ele>759</ele>
        <time>2021-12-21T10:59:54.000Z</time>
      </trkpt>
      <trkpt lat="44.02192" lon="6.02151">
        <ele>759</ele>
        <time>2021-12-21T10:59:55.000Z</time>
      </trkpt>
      <trkpt lat="44.02191" lon="6.02152">
        <ele>759</ele>
        <time>2021-12-21T10:59:56.000Z</time>
      </trkpt>
      <trkpt lat="44.02191" lon="6.02153">
        <ele>759</ele>
        <time>2021-12-21T10:59:57.000Z</time>
      </trkpt>
      <trkpt lat="44.0219" lon="6.02153">
        <ele>759</ele>
        <time>2021-12-21T10:59:58.000Z</time>
      </trkpt>
      <trkpt lat="44.0219" lon="6.02154">
        <ele>759</ele>
        <time>2021-12-21T10:59:59.000Z</time>
      </trkpt>
      <trkpt lat="44.02189" lon="6.02155">
        <ele>759</ele>
        <time>2021-12-21T11:00:00.000Z</time>
      </trkpt>
      <trkpt lat="44.02189" lon="6.02155">
        <ele>759</ele>
        <time>2021-12-21T11:00:01.000Z</time>
      </trkpt>
      <trkpt lat="44.02188" lon="6.02156">
        <ele>760</ele>
        <time>2021-12-21T11:00:02.000Z</time>
      </trkpt>
      <trkpt lat="44.02188" lon="6.02157">
        <ele>760</ele>
        <time>2021-12-21T11:00:03.000Z</time>
      </trkpt>
      <trkpt lat="44.02187" lon="6.02157">
        <ele>760</ele>
        <time>2021-12-21T11:00:04.000Z</time>
      </trkpt>
      <trkpt lat="44.02187" lon="6.02158">
        <ele>760</ele>
        <time>2021-12-21T11:00:05.000Z</time>
      </trkpt>
      <trkpt lat="44.02187" lon="6.02159">
        <ele>760</ele>
        <time>2021-12-21T11:00:06.000Z</time>
      </trkpt>
      <trkpt lat="44.02186" lon="6.02159">
        <ele>760</ele>
        <time>2021-12-21T11:00:07.000Z</time>
      </trkpt>
      <trkpt lat="44.02186" lon="6.0216">
        <ele>760</ele>
        <time>2021-12-21T11:00:08.000Z</time>
      </trkpt>
      <trkpt lat="44.02186" lon="6.02161">
        <ele>761</ele>
        <time>2021-12-21T11:00:09.000Z</time>
      </trkpt>
      <trkpt lat="44.02185" lon="6.02161">
        <ele>761</ele>
        <time>2021-12-21T11:00:10.000Z</time>
      </trkpt>
      <trkpt lat="44.02185" lon="6.02162">
        <ele>761</ele>
        <time>2021-12-21T11:00:11.000Z</time>
      </trkpt>
      <trkpt lat="44.02184" lon="6.02162">
        <ele>761</ele>
        <time>2021-12-21T11:00:12.000Z</time>
      </trkpt>
      <trkpt lat="44.02184" lon="6.02163">
        <ele>761</ele>
        <time>2021-12-21T11:00:13.000Z</time>
      </trkpt>
      <trkpt lat="44.02184" lon="6.02164">
        <ele>761</ele>
        <time>2021-12-21T11:00:14.000Z</time>
      </trkpt>
      <trkpt lat="44.02183" lon="6.02164">
        <ele>761</ele>
        <time>2021-12-21T11:00:15.000Z</time>
      </trkpt>
      <trkpt lat="44.02183" lon="6.02165">
        <ele>761</ele>
        <time>2021-12-21T11:00:16.000Z</time>
      </trkpt>
      <trkpt lat="44.02182" lon="6.02166">
        <ele>762</ele>
        <time>2021-12-21T11:00:17.000Z</time>
      </trkpt>
      <trkpt lat="44.02182" lon="6.02167">
        <ele>762</ele>
        <time>2021-12-21T11:00:18.000Z</time>
      </trkpt>
      <trkpt lat="44.02182" lon="6.02168">
        <ele>762</ele>
        <time>2021-12-21T11:00:19.000Z</time>
      </trkpt>
      <trkpt lat="44.02182" lon="6.02168">
        <ele>762</ele>
        <time>2021-12-21T11:00:20.000Z</time>
      </trkpt>
      <trkpt lat="44.02181" lon="6.02169">
        <ele>762</ele>
        <time>2021-12-21T11:00:21.000Z</time>
      </trkpt>
      <trkpt lat="44.02181" lon="6.0217">
        <ele>762</ele>
        <time>2021-12-21T11:00:22.000Z</time>
      </trkpt>
      <trkpt lat="44.0218" lon="6.02171">
        <ele>762</ele>
        <time>2021-12-21T11:00:23.000Z</time>
      </trkpt>
      <trkpt lat="44.0218" lon="6.02171">
        <ele>762</ele>
        <time>2021-12-21T11:00:24.000Z</time>
      </trkpt>
      <trkpt lat="44.0218" lon="6.02173">
        <ele>763</ele>
        <time>2021-12-21T11:00:25.000Z</time>
      </trkpt>
      <trkpt lat="44.02179" lon="6.02174">
        <ele>763</ele>
        <time>2021-12-21T11:00:26.000Z</time>
      </trkpt>
      <trkpt lat="44.02179" lon="6.02175">
        <ele>763</ele>
        <time>2021-12-21T11:00:27.000Z</time>
      </trkpt>
      <trkpt lat="44.02178" lon="6.02175">
        <ele>763</ele>
        <time>2021-12-21T11:00:28.000Z</time>
      </trkpt>
      <trkpt lat="44.02178" lon="6.02176">
        <ele>764</ele>
        <time>2021-12-21T11:00:29.000Z</time>
      </trkpt>
      <trkpt lat="44.02178" lon="6.02176">
        <ele>764</ele>
        <time>2021-12-21T11:00:30.000Z</time>
      </trkpt>
      <trkpt lat="44.02178" lon="6.02176">
        <ele>764</ele>
        <time>2021-12-21T11:00:31.000Z</time>
      </trkpt>
      <trkpt lat="44.02178" lon="6.02176">
        <ele>764</ele>
        <time>2021-12-21T11:00:32.000Z</time>
      </trkpt>
      <trkpt lat="44.02178" lon="6.02176">
        <ele>764</ele>
        <time>2021-12-21T11:00:33.000Z</time>
      </trkpt>
      <trkpt lat="44.02178" lon="6.02176">
        <ele>764</ele>
        <time>2021-12-21T11:00:34.000Z</time>
      </trkpt>
      <trkpt lat="44.02178" lon="6.02177">
        <ele>765</ele>
        <time>2021-12-21T11:00:35.000Z</time>
      </trkpt>
      <trkpt lat="44.02178" lon="6.02177">
        <ele>765</ele>
        <time>2021-12-21T11:00:36.000Z</time>
      </trkpt>
      <trkpt lat="44.02178" lon="6.02177">
        <ele>765</ele>
        <time>2021-12-21T11:00:37.000Z</time>
      </trkpt>
      <trkpt lat="44.02178" lon="6.02177">
        <ele>765</ele>
        <time>2021-12-21T11:00:38.000Z</time>
      </trkpt>
      <trkpt lat="44.02178" lon="6.02177">
        <ele>765</ele>
        <time>2021-12-21T11:00:39.000Z</time>
      </trkpt>
      <trkpt lat="44.02178" lon="6.02177">
        <ele>765</ele>
        <time>2021-12-21T11:00:40.000Z</time>
      </trkpt>
      <trkpt lat="44.02178" lon="6.02177">
        <ele>765</ele>
        <time>2021-12-21T11:00:41.000Z</time>
      </trkpt>
      <trkpt lat="44.02178" lon="6.02177">
        <ele>766</ele>
        <time>2021-12-21T11:00:42.000Z</time>
      </trkpt>
      <trkpt lat="44.02178" lon="6.02177">
        <ele>766</ele>
        <time>2021-12-21T11:00:43.000Z</time>
      </trkpt>
      <trkpt lat="44.02178" lon="6.02177">
        <ele>766</ele>
        <time>2021-12-21T11:00:44.000Z</time>
      </trkpt>
      <trkpt lat="44.02178" lon="6.02177">
        <ele>766</ele>
        <time>2021-12-21T11:00:45.000Z</time>
      </trkpt>
      <trkpt lat="44.02178" lon="6.02177">
        <ele>766</ele>
        <time>2021-12-21T11:00:46.000Z</time>
      </trkpt>
      <trkpt lat="44.02178" lon="6.02177">
        <ele>766</ele>
        <time>2021-12-21T11:00:47.000Z</time>
      </trkpt>
      <trkpt lat="44.02178" lon="6.02177">
        <ele>766</ele>
        <time>2021-12-21T11:00:48.000Z</time>
      </trkpt>
      <trkpt lat="44.02178" lon="6.02178">
        <ele>766</ele>
        <time>2021-12-21T11:00:49.000Z</time>
      </trkpt>
      <trkpt lat="44.02178" lon="6.02178">
        <ele>766</ele>
        <time>2021-12-21T11:00:50.000Z</time>
      </trkpt>
      <trkpt lat="44.02178" lon="6.02178">
        <ele>766</ele>
        <time>2021-12-21T11:00:51.000Z</time>
      </trkpt>
      <trkpt lat="44.02178" lon="6.02178">
        <ele>766</ele>
        <time>2021-12-21T11:00:52.000Z</time>
      </trkpt>
      <trkpt lat="44.02178" lon="6.02178">
        <ele>766</ele>
        <time>2021-12-21T11:00:53.000Z</time>
      </trkpt>
      <trkpt lat="44.02178" lon="6.02178">
        <ele>766</ele>
        <time>2021-12-21T11:00:54.000Z</time>
      </trkpt>
      <trkpt lat="44.02178" lon="6.02178">
        <ele>766</ele>
        <time>2021-12-21T11:00:55.000Z</time>
      </trkpt>
      <trkpt lat="44.02178" lon="6.02178">
        <ele>766</ele>
        <time>2021-12-21T11:00:56.000Z</time>
      </trkpt>
      <trkpt lat="44.02178" lon="6.02178">
        <ele>766</ele>
        <time>2021-12-21T11:00:57.000Z</time>
      </trkpt>
      <trkpt lat="44.02178" lon="6.02178">
        <ele>766</ele>
        <time>2021-12-21T11:00:58.000Z</time>
      </trkpt>
      <trkpt lat="44.02178" lon="6.02178">
        <ele>766</ele>
        <time>2021-12-21T11:00:59.000Z</time>
      </trkpt>
      <trkpt lat="44.02177" lon="6.02178">
        <ele>766</ele>
        <time>2021-12-21T11:01:00.000Z</time>
      </trkpt>
      <trkpt lat="44.02177" lon="6.02178">
        <ele>766</ele>
        <time>2021-12-21T11:01:01.000Z</time>
      </trkpt>
      <trkpt lat="44.02177" lon="6.02178">
        <ele>766</ele>
        <time>2021-12-21T11:01:02.000Z</time>
      </trkpt>
      <trkpt lat="44.02177" lon="6.02178">
        <ele>766</ele>
        <time>2021-12-21T11:01:03.000Z</time>
      </trkpt>
      <trkpt lat="44.02177" lon="6.02178">
        <ele>766</ele>
        <time>2021-12-21T11:01:04.000Z</time>
      </trkpt>
      <trkpt lat="44.02177" lon="6.02178">
        <ele>766</ele>
        <time>2021-12-21T11:01:05.000Z</time>
      </trkpt>
      <trkpt lat="44.02177" lon="6.02178">
        <ele>766</ele>
        <time>2021-12-21T11:01:06.000Z</time>
      </trkpt>
      <trkpt lat="44.02177" lon="6.02178">
        <ele>766</ele>
        <time>2021-12-21T11:01:07.000Z</time>
      </trkpt>
      <trkpt lat="44.02177" lon="6.02178">
        <ele>766</ele>
        <time>2021-12-21T11:01:08.000Z</time>
      </trkpt>
      <trkpt lat="44.02177" lon="6.02178">
        <ele>766</ele>
        <time>2021-12-21T11:01:09.000Z</time>
      </trkpt>
      <trkpt lat="44.02177" lon="6.02178">
        <ele>766</ele>
        <time>2021-12-21T11:01:10.000Z</time>
      </trkpt>
      <trkpt lat="44.02177" lon="6.02178">
        <ele>767</ele>
        <time>2021-12-21T11:01:11.000Z</time>
      </trkpt>
      <trkpt lat="44.02177" lon="6.02178">
        <ele>767</ele>
        <time>2021-12-21T11:01:12.000Z</time>
      </trkpt>
      <trkpt lat="44.02178" lon="6.02178">
        <ele>767</ele>
        <time>2021-12-21T11:01:13.000Z</time>
      </trkpt>
      <trkpt lat="44.02177" lon="6.02178">
        <ele>767</ele>
        <time>2021-12-21T11:01:14.000Z</time>
      </trkpt>
      <trkpt lat="44.02177" lon="6.02179">
        <ele>767</ele>
        <time>2021-12-21T11:01:15.000Z</time>
      </trkpt>
      <trkpt lat="44.02177" lon="6.0218">
        <ele>767</ele>
        <time>2021-12-21T11:01:16.000Z</time>
      </trkpt>
      <trkpt lat="44.02176" lon="6.02181">
        <ele>767</ele>
        <time>2021-12-21T11:01:17.000Z</time>
      </trkpt>
      <trkpt lat="44.02176" lon="6.02182">
        <ele>768</ele>
        <time>2021-12-21T11:01:18.000Z</time>
      </trkpt>
      <trkpt lat="44.02175" lon="6.02183">
        <ele>768</ele>
        <time>2021-12-21T11:01:19.000Z</time>
      </trkpt>
      <trkpt lat="44.02175" lon="6.02184">
        <ele>768</ele>
        <time>2021-12-21T11:01:20.000Z</time>
      </trkpt>
      <trkpt lat="44.02174" lon="6.02185">
        <ele>768</ele>
        <time>2021-12-21T11:01:21.000Z</time>
      </trkpt>
      <trkpt lat="44.02174" lon="6.02185">
        <ele>768</ele>
        <time>2021-12-21T11:01:22.000Z</time>
      </trkpt>
      <trkpt lat="44.02173" lon="6.02186">
        <ele>768</ele>
        <time>2021-12-21T11:01:23.000Z</time>
      </trkpt>
      <trkpt lat="44.02173" lon="6.02187">
        <ele>768</ele>
        <time>2021-12-21T11:01:24.000Z</time>
      </trkpt>
      <trkpt lat="44.02172" lon="6.02188">
        <ele>769</ele>
        <time>2021-12-21T11:01:25.000Z</time>
      </trkpt>
      <trkpt lat="44.02172" lon="6.02189">
        <ele>769</ele>
        <time>2021-12-21T11:01:26.000Z</time>
      </trkpt>
      <trkpt lat="44.02172" lon="6.0219">
        <ele>769</ele>
        <time>2021-12-21T11:01:27.000Z</time>
      </trkpt>
      <trkpt lat="44.02171" lon="6.02191">
        <ele>769</ele>
        <time>2021-12-21T11:01:28.000Z</time>
      </trkpt>
      <trkpt lat="44.02171" lon="6.02192">
        <ele>769</ele>
        <time>2021-12-21T11:01:29.000Z</time>
      </trkpt>
      <trkpt lat="44.02171" lon="6.02193">
        <ele>769</ele>
        <time>2021-12-21T11:01:30.000Z</time>
      </trkpt>
      <trkpt lat="44.02171" lon="6.02194">
        <ele>769</ele>
        <time>2021-12-21T11:01:31.000Z</time>
      </trkpt>
      <trkpt lat="44.0217" lon="6.02195">
        <ele>769</ele>
        <time>2021-12-21T11:01:32.000Z</time>
      </trkpt>
      <trkpt lat="44.0217" lon="6.02196">
        <ele>769</ele>
        <time>2021-12-21T11:01:33.000Z</time>
      </trkpt>
      <trkpt lat="44.0217" lon="6.02197">
        <ele>769</ele>
        <time>2021-12-21T11:01:34.000Z</time>
      </trkpt>
      <trkpt lat="44.02169" lon="6.02198">
        <ele>769</ele>
        <time>2021-12-21T11:01:35.000Z</time>
      </trkpt>
      <trkpt lat="44.02169" lon="6.02199">
        <ele>769</ele>
        <time>2021-12-21T11:01:36.000Z</time>
      </trkpt>
      <trkpt lat="44.02169" lon="6.022">
        <ele>769</ele>
        <time>2021-12-21T11:01:37.000Z</time>
      </trkpt>
      <trkpt lat="44.02169" lon="6.02201">
        <ele>770</ele>
        <time>2021-12-21T11:01:38.000Z</time>
      </trkpt>
      <trkpt lat="44.02168" lon="6.02202">
        <ele>770</ele>
        <time>2021-12-21T11:01:39.000Z</time>
      </trkpt>
      <trkpt lat="44.02168" lon="6.02203">
        <ele>770</ele>
        <time>2021-12-21T11:01:40.000Z</time>
      </trkpt>
      <trkpt lat="44.02168" lon="6.02204">
        <ele>770</ele>
        <time>2021-12-21T11:01:41.000Z</time>
      </trkpt>
      <trkpt lat="44.02167" lon="6.02204">
        <ele>770</ele>
        <time>2021-12-21T11:01:42.000Z</time>
      </trkpt>
      <trkpt lat="44.02167" lon="6.02205">
        <ele>770</ele>
        <time>2021-12-21T11:01:43.000Z</time>
      </trkpt>
      <trkpt lat="44.02167" lon="6.02206">
        <ele>771</ele>
        <time>2021-12-21T11:01:44.000Z</time>
      </trkpt>
      <trkpt lat="44.02166" lon="6.02207">
        <ele>771</ele>
        <time>2021-12-21T11:01:45.000Z</time>
      </trkpt>
      <trkpt lat="44.02166" lon="6.02208">
        <ele>771</ele>
        <time>2021-12-21T11:01:46.000Z</time>
      </trkpt>
      <trkpt lat="44.02166" lon="6.02209">
        <ele>771</ele>
        <time>2021-12-21T11:01:47.000Z</time>
      </trkpt>
      <trkpt lat="44.02165" lon="6.0221">
        <ele>772</ele>
        <time>2021-12-21T11:01:48.000Z</time>
      </trkpt>
      <trkpt lat="44.02165" lon="6.02211">
        <ele>772</ele>
        <time>2021-12-21T11:01:49.000Z</time>
      </trkpt>
      <trkpt lat="44.02165" lon="6.02212">
        <ele>772</ele>
        <time>2021-12-21T11:01:50.000Z</time>
      </trkpt>
      <trkpt lat="44.02164" lon="6.02213">
        <ele>772</ele>
        <time>2021-12-21T11:01:51.000Z</time>
      </trkpt>
      <trkpt lat="44.02164" lon="6.02213">
        <ele>772</ele>
        <time>2021-12-21T11:01:52.000Z</time>
      </trkpt>
      <trkpt lat="44.02164" lon="6.02214">
        <ele>772</ele>
        <time>2021-12-21T11:01:53.000Z</time>
      </trkpt>
      <trkpt lat="44.02164" lon="6.02215">
        <ele>773</ele>
        <time>2021-12-21T11:01:54.000Z</time>
      </trkpt>
      <trkpt lat="44.02163" lon="6.02216">
        <ele>773</ele>
        <time>2021-12-21T11:01:55.000Z</time>
      </trkpt>
      <trkpt lat="44.02163" lon="6.02216">
        <ele>773</ele>
        <time>2021-12-21T11:01:56.000Z</time>
      </trkpt>
      <trkpt lat="44.02163" lon="6.02217">
        <ele>773</ele>
        <time>2021-12-21T11:01:57.000Z</time>
      </trkpt>
      <trkpt lat="44.02163" lon="6.02218">
        <ele>773</ele>
        <time>2021-12-21T11:01:58.000Z</time>
      </trkpt>
      <trkpt lat="44.02163" lon="6.02219">
        <ele>773</ele>
        <time>2021-12-21T11:01:59.000Z</time>
      </trkpt>
      <trkpt lat="44.02163" lon="6.0222">
        <ele>773</ele>
        <time>2021-12-21T11:02:00.000Z</time>
      </trkpt>
      <trkpt lat="44.02162" lon="6.02221">
        <ele>773</ele>
        <time>2021-12-21T11:02:01.000Z</time>
      </trkpt>
      <trkpt lat="44.02162" lon="6.02221">
        <ele>774</ele>
        <time>2021-12-21T11:02:02.000Z</time>
      </trkpt>
      <trkpt lat="44.02162" lon="6.02223">
        <ele>774</ele>
        <time>2021-12-21T11:02:03.000Z</time>
      </trkpt>
      <trkpt lat="44.02162" lon="6.02223">
        <ele>774</ele>
        <time>2021-12-21T11:02:04.000Z</time>
      </trkpt>
      <trkpt lat="44.02162" lon="6.02225">
        <ele>774</ele>
        <time>2021-12-21T11:02:05.000Z</time>
      </trkpt>
      <trkpt lat="44.02162" lon="6.02225">
        <ele>775</ele>
        <time>2021-12-21T11:02:06.000Z</time>
      </trkpt>
      <trkpt lat="44.02162" lon="6.02226">
        <ele>775</ele>
        <time>2021-12-21T11:02:07.000Z</time>
      </trkpt>
      <trkpt lat="44.02162" lon="6.02228">
        <ele>775</ele>
        <time>2021-12-21T11:02:08.000Z</time>
      </trkpt>
      <trkpt lat="44.02162" lon="6.02228">
        <ele>775</ele>
        <time>2021-12-21T11:02:09.000Z</time>
      </trkpt>
      <trkpt lat="44.02162" lon="6.02229">
        <ele>776</ele>
        <time>2021-12-21T11:02:10.000Z</time>
      </trkpt>
      <trkpt lat="44.02161" lon="6.0223">
        <ele>776</ele>
        <time>2021-12-21T11:02:11.000Z</time>
      </trkpt>
      <trkpt lat="44.02161" lon="6.02231">
        <ele>776</ele>
        <time>2021-12-21T11:02:12.000Z</time>
      </trkpt>
      <trkpt lat="44.02161" lon="6.02232">
        <ele>776</ele>
        <time>2021-12-21T11:02:13.000Z</time>
      </trkpt>
      <trkpt lat="44.02161" lon="6.02233">
        <ele>777</ele>
        <time>2021-12-21T11:02:14.000Z</time>
      </trkpt>
      <trkpt lat="44.02161" lon="6.02234">
        <ele>777</ele>
        <time>2021-12-21T11:02:15.000Z</time>
      </trkpt>
      <trkpt lat="44.02161" lon="6.02235">
        <ele>777</ele>
        <time>2021-12-21T11:02:16.000Z</time>
      </trkpt>
      <trkpt lat="44.02161" lon="6.02236">
        <ele>777</ele>
        <time>2021-12-21T11:02:17.000Z</time>
      </trkpt>
      <trkpt lat="44.02161" lon="6.02236">
        <ele>778</ele>
        <time>2021-12-21T11:02:18.000Z</time>
      </trkpt>
      <trkpt lat="44.02162" lon="6.02237">
        <ele>778</ele>
        <time>2021-12-21T11:02:19.000Z</time>
      </trkpt>
      <trkpt lat="44.02162" lon="6.02237">
        <ele>778</ele>
        <time>2021-12-21T11:02:20.000Z</time>
      </trkpt>
      <trkpt lat="44.02162" lon="6.02238">
        <ele>778</ele>
        <time>2021-12-21T11:02:21.000Z</time>
      </trkpt>
      <trkpt lat="44.02163" lon="6.02239">
        <ele>779</ele>
        <time>2021-12-21T11:02:22.000Z</time>
      </trkpt>
      <trkpt lat="44.02163" lon="6.0224">
        <ele>779</ele>
        <time>2021-12-21T11:02:23.000Z</time>
      </trkpt>
      <trkpt lat="44.02163" lon="6.02241">
        <ele>779</ele>
        <time>2021-12-21T11:02:24.000Z</time>
      </trkpt>
      <trkpt lat="44.02163" lon="6.02242">
        <ele>779</ele>
        <time>2021-12-21T11:02:25.000Z</time>
      </trkpt>
      <trkpt lat="44.02163" lon="6.02242">
        <ele>780</ele>
        <time>2021-12-21T11:02:26.000Z</time>
      </trkpt>
      <trkpt lat="44.02163" lon="6.02243">
        <ele>780</ele>
        <time>2021-12-21T11:02:27.000Z</time>
      </trkpt>
      <trkpt lat="44.02163" lon="6.02244">
        <ele>780</ele>
        <time>2021-12-21T11:02:28.000Z</time>
      </trkpt>
      <trkpt lat="44.02163" lon="6.02245">
        <ele>780</ele>
        <time>2021-12-21T11:02:29.000Z</time>
      </trkpt>
      <trkpt lat="44.02164" lon="6.02246">
        <ele>780</ele>
        <time>2021-12-21T11:02:30.000Z</time>
      </trkpt>
      <trkpt lat="44.02164" lon="6.02246">
        <ele>781</ele>
        <time>2021-12-21T11:02:31.000Z</time>
      </trkpt>
      <trkpt lat="44.02163" lon="6.02247">
        <ele>781</ele>
        <time>2021-12-21T11:02:32.000Z</time>
      </trkpt>
      <trkpt lat="44.02164" lon="6.02247">
        <ele>781</ele>
        <time>2021-12-21T11:02:33.000Z</time>
      </trkpt>
      <trkpt lat="44.02164" lon="6.02247">
        <ele>781</ele>
        <time>2021-12-21T11:02:34.000Z</time>
      </trkpt>
      <trkpt lat="44.02164" lon="6.02247">
        <ele>781</ele>
        <time>2021-12-21T11:02:35.000Z</time>
      </trkpt>
      <trkpt lat="44.02164" lon="6.02247">
        <ele>781</ele>
        <time>2021-12-21T11:02:36.000Z</time>
      </trkpt>
      <trkpt lat="44.02164" lon="6.02247">
        <ele>781</ele>
        <time>2021-12-21T11:02:37.000Z</time>
      </trkpt>
      <trkpt lat="44.02164" lon="6.02247">
        <ele>781</ele>
        <time>2021-12-21T11:02:38.000Z</time>
      </trkpt>
      <trkpt lat="44.02164" lon="6.02247">
        <ele>781</ele>
        <time>2021-12-21T11:02:39.000Z</time>
      </trkpt>
      <trkpt lat="44.02164" lon="6.02247">
        <ele>781</ele>
        <time>2021-12-21T11:02:40.000Z</time>
      </trkpt>
      <trkpt lat="44.02164" lon="6.02247">
        <ele>781</ele>
        <time>2021-12-21T11:02:41.000Z</time>
      </trkpt>
      <trkpt lat="44.02164" lon="6.02247">
        <ele>781</ele>
        <time>2021-12-21T11:02:42.000Z</time>
      </trkpt>
      <trkpt lat="44.02164" lon="6.02247">
        <ele>781</ele>
        <time>2021-12-21T11:02:43.000Z</time>
      </trkpt>
      <trkpt lat="44.02164" lon="6.02247">
        <ele>781</ele>
        <time>2021-12-21T11:02:44.000Z</time>
      </trkpt>
      <trkpt lat="44.02164" lon="6.02247">
        <ele>781</ele>
        <time>2021-12-21T11:02:45.000Z</time>
      </trkpt>
      <trkpt lat="44.02164" lon="6.02247">
        <ele>781</ele>
        <time>2021-12-21T11:02:46.000Z</time>
      </trkpt>
      <trkpt lat="44.02164" lon="6.02247">
        <ele>781</ele>
        <time>2021-12-21T11:02:47.000Z</time>
      </trkpt>
      <trkpt lat="44.02164" lon="6.02247">
        <ele>781</ele>
        <time>2021-12-21T11:02:48.000Z</time>
      </trkpt>
      <trkpt lat="44.02164" lon="6.02247">
        <ele>781</ele>
        <time>2021-12-21T11:02:49.000Z</time>
      </trkpt>
      <trkpt lat="44.02164" lon="6.02247">
        <ele>781</ele>
        <time>2021-12-21T11:02:50.000Z</time>
      </trkpt>
      <trkpt lat="44.02164" lon="6.02247">
        <ele>781</ele>
        <time>2021-12-21T11:02:51.000Z</time>
      </trkpt>
      <trkpt lat="44.02164" lon="6.02247">
        <ele>781</ele>
        <time>2021-12-21T11:02:52.000Z</time>
      </trkpt>
      <trkpt lat="44.02164" lon="6.02247">
        <ele>781</ele>
        <time>2021-12-21T11:02:53.000Z</time>
      </trkpt>
      <trkpt lat="44.02164" lon="6.02247">
        <ele>781</ele>
        <time>2021-12-21T11:02:54.000Z</time>
      </trkpt>
      <trkpt lat="44.02164" lon="6.02247">
        <ele>781</ele>
        <time>2021-12-21T11:02:55.000Z</time>
      </trkpt>
      <trkpt lat="44.02164" lon="6.02247">
        <ele>781</ele>
        <time>2021-12-21T11:02:56.000Z</time>
      </trkpt>
      <trkpt lat="44.02164" lon="6.02247">
        <ele>781</ele>
        <time>2021-12-21T11:02:57.000Z</time>
      </trkpt>
      <trkpt lat="44.02164" lon="6.02247">
        <ele>781</ele>
        <time>2021-12-21T11:02:58.000Z</time>
      </trkpt>
      <trkpt lat="44.02164" lon="6.02247">
        <ele>781</ele>
        <time>2021-12-21T11:02:59.000Z</time>
      </trkpt>
      <trkpt lat="44.02164" lon="6.02248">
        <ele>781</ele>
        <time>2021-12-21T11:03:00.000Z</time>
      </trkpt>
      <trkpt lat="44.02164" lon="6.02248">
        <ele>781</ele>
        <time>2021-12-21T11:03:01.000Z</time>
      </trkpt>
      <trkpt lat="44.02164" lon="6.02248">
        <ele>781</ele>
        <time>2021-12-21T11:03:02.000Z</time>
      </trkpt>
      <trkpt lat="44.02164" lon="6.02248">
        <ele>781</ele>
        <time>2021-12-21T11:03:03.000Z</time>
      </trkpt>
      <trkpt lat="44.02164" lon="6.02248">
        <ele>781</ele>
        <time>2021-12-21T11:03:04.000Z</time>
      </trkpt>
      <trkpt lat="44.02164" lon="6.02248">
        <ele>781</ele>
        <time>2021-12-21T11:03:05.000Z</time>
      </trkpt>
      <trkpt lat="44.02164" lon="6.02248">
        <ele>781</ele>
        <time>2021-12-21T11:03:06.000Z</time>
      </trkpt>
      <trkpt lat="44.02164" lon="6.02248">
        <ele>781</ele>
        <time>2021-12-21T11:03:07.000Z</time>
      </trkpt>
      <trkpt lat="44.02164" lon="6.02248">
        <ele>781</ele>
        <time>2021-12-21T11:03:08.000Z</time>
      </trkpt>
      <trkpt lat="44.02164" lon="6.02248">
        <ele>781</ele>
        <time>2021-12-21T11:03:09.000Z</time>
      </trkpt>
      <trkpt lat="44.02164" lon="6.02248">
        <ele>781</ele>
        <time>2021-12-21T11:03:10.000Z</time>
      </trkpt>
      <trkpt lat="44.02164" lon="6.02248">
        <ele>781</ele>
        <time>2021-12-21T11:03:11.000Z</time>
      </trkpt>
      <trkpt lat="44.02164" lon="6.02248">
        <ele>781</ele>
        <time>2021-12-21T11:03:12.000Z</time>
      </trkpt>
      <trkpt lat="44.02164" lon="6.02248">
        <ele>781</ele>
        <time>2021-12-21T11:03:13.000Z</time>
      </trkpt>
      <trkpt lat="44.02164" lon="6.02248">
        <ele>781</ele>
        <time>2021-12-21T11:03:14.000Z</time>
      </trkpt>
      <trkpt lat="44.02164" lon="6.02248">
        <ele>781</ele>
        <time>2021-12-21T11:03:15.000Z</time>
      </trkpt>
      <trkpt lat="44.02164" lon="6.02247">
        <ele>781</ele>
        <time>2021-12-21T11:03:16.000Z</time>
      </trkpt>
      <trkpt lat="44.02164" lon="6.02248">
        <ele>781</ele>
        <time>2021-12-21T11:03:17.000Z</time>
      </trkpt>
      <trkpt lat="44.02164" lon="6.02248">
        <ele>781</ele>
        <time>2021-12-21T11:03:18.000Z</time>
      </trkpt>
      <trkpt lat="44.02164" lon="6.02248">
        <ele>781</ele>
        <time>2021-12-21T11:03:19.000Z</time>
      </trkpt>
      <trkpt lat="44.02164" lon="6.02248">
        <ele>781</ele>
        <time>2021-12-21T11:03:20.000Z</time>
      </trkpt>
      <trkpt lat="44.02164" lon="6.02248">
        <ele>781</ele>
        <time>2021-12-21T11:03:21.000Z</time>
      </trkpt>
      <trkpt lat="44.02164" lon="6.02248">
        <ele>781</ele>
        <time>2021-12-21T11:03:22.000Z</time>
      </trkpt>
      <trkpt lat="44.02164" lon="6.02248">
        <ele>781</ele>
        <time>2021-12-21T11:03:23.000Z</time>
      </trkpt>
      <trkpt lat="44.02164" lon="6.02248">
        <ele>781</ele>
        <time>2021-12-21T11:03:24.000Z</time>
      </trkpt>
      <trkpt lat="44.02164" lon="6.02248">
        <ele>781</ele>
        <time>2021-12-21T11:03:25.000Z</time>
      </trkpt>
      <trkpt lat="44.02164" lon="6.02248">
        <ele>781</ele>
        <time>2021-12-21T11:03:26.000Z</time>
      </trkpt>
      <trkpt lat="44.02164" lon="6.02248">
        <ele>781</ele>
        <time>2021-12-21T11:03:27.000Z</time>
      </trkpt>
      <trkpt lat="44.02164" lon="6.02248">
        <ele>781</ele>
        <time>2021-12-21T11:03:28.000Z</time>
      </trkpt>
      <trkpt lat="44.02164" lon="6.02248">
        <ele>781</ele>
        <time>2021-12-21T11:03:29.000Z</time>
      </trkpt>
      <trkpt lat="44.02164" lon="6.02248">
        <ele>781</ele>
        <time>2021-12-21T11:03:30.000Z</time>
      </trkpt>
      <trkpt lat="44.02164" lon="6.02248">
        <ele>781</ele>
        <time>2021-12-21T11:03:31.000Z</time>
      </trkpt>
      <trkpt lat="44.02164" lon="6.02248">
        <ele>781</ele>
        <time>2021-12-21T11:03:32.000Z</time>
      </trkpt>
      <trkpt lat="44.02164" lon="6.02248">
        <ele>781</ele>
        <time>2021-12-21T11:03:33.000Z</time>
      </trkpt>
      <trkpt lat="44.02164" lon="6.02248">
        <ele>781</ele>
        <time>2021-12-21T11:03:34.000Z</time>
      </trkpt>
      <trkpt lat="44.02164" lon="6.02248">
        <ele>781</ele>
        <time>2021-12-21T11:03:35.000Z</time>
      </trkpt>
      <trkpt lat="44.02164" lon="6.02248">
        <ele>781</ele>
        <time>2021-12-21T11:03:36.000Z</time>
      </trkpt>
      <trkpt lat="44.02164" lon="6.02248">
        <ele>781</ele>
        <time>2021-12-21T11:03:37.000Z</time>
      </trkpt>
      <trkpt lat="44.02164" lon="6.02248">
        <ele>781</ele>
        <time>2021-12-21T11:03:38.000Z</time>
      </trkpt>
      <trkpt lat="44.02164" lon="6.02248">
        <ele>781</ele>
        <time>2021-12-21T11:03:39.000Z</time>
      </trkpt>
      <trkpt lat="44.02164" lon="6.02248">
        <ele>781</ele>
        <time>2021-12-21T11:03:40.000Z</time>
      </trkpt>
      <trkpt lat="44.02164" lon="6.02248">
        <ele>781</ele>
        <time>2021-12-21T11:03:41.000Z</time>
      </trkpt>
      <trkpt lat="44.02164" lon="6.02248">
        <ele>781</ele>
        <time>2021-12-21T11:03:42.000Z</time>
      </trkpt>
      <trkpt lat="44.02164" lon="6.02248">
        <ele>781</ele>
        <time>2021-12-21T11:03:43.000Z</time>
      </trkpt>
      <trkpt lat="44.02164" lon="6.02248">
        <ele>781</ele>
        <time>2021-12-21T11:03:44.000Z</time>
      </trkpt>
      <trkpt lat="44.02164" lon="6.02248">
        <ele>781</ele>
        <time>2021-12-21T11:03:45.000Z</time>
      </trkpt>
      <trkpt lat="44.02164" lon="6.02248">
        <ele>781</ele>
        <time>2021-12-21T11:03:46.000Z</time>
      </trkpt>
      <trkpt lat="44.02164" lon="6.02248">
        <ele>781</ele>
        <time>2021-12-21T11:03:47.000Z</time>
      </trkpt>
      <trkpt lat="44.02164" lon="6.02248">
        <ele>781</ele>
        <time>2021-12-21T11:03:48.000Z</time>
      </trkpt>
      <trkpt lat="44.02164" lon="6.02248">
        <ele>781</ele>
        <time>2021-12-21T11:03:49.000Z</time>
      </trkpt>
      <trkpt lat="44.02164" lon="6.02248">
        <ele>781</ele>
        <time>2021-12-21T11:03:50.000Z</time>
      </trkpt>
      <trkpt lat="44.02164" lon="6.02248">
        <ele>781</ele>
        <time>2021-12-21T11:03:51.000Z</time>
      </trkpt>
      <trkpt lat="44.02164" lon="6.02248">
        <ele>781</ele>
        <time>2021-12-21T11:03:52.000Z</time>
      </trkpt>
      <trkpt lat="44.02164" lon="6.02248">
        <ele>781</ele>
        <time>2021-12-21T11:03:53.000Z</time>
      </trkpt>
      <trkpt lat="44.02164" lon="6.02248">
        <ele>781</ele>
        <time>2021-12-21T11:03:54.000Z</time>
      </trkpt>
      <trkpt lat="44.02164" lon="6.02248">
        <ele>781</ele>
        <time>2021-12-21T11:03:55.000Z</time>
      </trkpt>
      <trkpt lat="44.02164" lon="6.02248">
        <ele>781</ele>
        <time>2021-12-21T11:03:56.000Z</time>
      </trkpt>
      <trkpt lat="44.02164" lon="6.02248">
        <ele>781</ele>
        <time>2021-12-21T11:03:57.000Z</time>
      </trkpt>
      <trkpt lat="44.02164" lon="6.02248">
        <ele>781</ele>
        <time>2021-12-21T11:03:58.000Z</time>
      </trkpt>
      <trkpt lat="44.02164" lon="6.02248">
        <ele>781</ele>
        <time>2021-12-21T11:03:59.000Z</time>
      </trkpt>
      <trkpt lat="44.02164" lon="6.02248">
        <ele>781</ele>
        <time>2021-12-21T11:04:00.000Z</time>
      </trkpt>
      <trkpt lat="44.02164" lon="6.02248">
        <ele>781</ele>
        <time>2021-12-21T11:04:01.000Z</time>
      </trkpt>
      <trkpt lat="44.02164" lon="6.02248">
        <ele>781</ele>
        <time>2021-12-21T11:04:02.000Z</time>
      </trkpt>
      <trkpt lat="44.02164" lon="6.02248">
        <ele>781</ele>
        <time>2021-12-21T11:04:03.000Z</time>
      </trkpt>
      <trkpt lat="44.02164" lon="6.02248">
        <ele>781</ele>
        <time>2021-12-21T11:04:04.000Z</time>
      </trkpt>
      <trkpt lat="44.02164" lon="6.02248">
        <ele>781</ele>
        <time>2021-12-21T11:04:05.000Z</time>
      </trkpt>
      <trkpt lat="44.02164" lon="6.02248">
        <ele>781</ele>
        <time>2021-12-21T11:04:06.000Z</time>
      </trkpt>
      <trkpt lat="44.02164" lon="6.02248">
        <ele>781</ele>
        <time>2021-12-21T11:04:07.000Z</time>
      </trkpt>
      <trkpt lat="44.02164" lon="6.02248">
        <ele>781</ele>
        <time>2021-12-21T11:04:08.000Z</time>
      </trkpt>
      <trkpt lat="44.02164" lon="6.02248">
        <ele>781</ele>
        <time>2021-12-21T11:04:09.000Z</time>
      </trkpt>
      <trkpt lat="44.02164" lon="6.02248">
        <ele>781</ele>
        <time>2021-12-21T11:04:10.000Z</time>
      </trkpt>
      <trkpt lat="44.02164" lon="6.02248">
        <ele>781</ele>
        <time>2021-12-21T11:04:11.000Z</time>
      </trkpt>
      <trkpt lat="44.02164" lon="6.02248">
        <ele>781</ele>
        <time>2021-12-21T11:04:12.000Z</time>
      </trkpt>
      <trkpt lat="44.02164" lon="6.02249">
        <ele>781</ele>
        <time>2021-12-21T11:04:13.000Z</time>
      </trkpt>
      <trkpt lat="44.02164" lon="6.02249">
        <ele>781</ele>
        <time>2021-12-21T11:04:14.000Z</time>
      </trkpt>
      <trkpt lat="44.02164" lon="6.0225">
        <ele>781</ele>
        <time>2021-12-21T11:04:15.000Z</time>
      </trkpt>
      <trkpt lat="44.02164" lon="6.02251">
        <ele>781</ele>
        <time>2021-12-21T11:04:16.000Z</time>
      </trkpt>
      <trkpt lat="44.02164" lon="6.02252">
        <ele>781</ele>
        <time>2021-12-21T11:04:17.000Z</time>
      </trkpt>
      <trkpt lat="44.02164" lon="6.02253">
        <ele>782</ele>
        <time>2021-12-21T11:04:18.000Z</time>
      </trkpt>
      <trkpt lat="44.02164" lon="6.02254">
        <ele>782</ele>
        <time>2021-12-21T11:04:19.000Z</time>
      </trkpt>
      <trkpt lat="44.02164" lon="6.02255">
        <ele>782</ele>
        <time>2021-12-21T11:04:20.000Z</time>
      </trkpt>
      <trkpt lat="44.02165" lon="6.02256">
        <ele>782</ele>
        <time>2021-12-21T11:04:21.000Z</time>
      </trkpt>
      <trkpt lat="44.02165" lon="6.02257">
        <ele>782</ele>
        <time>2021-12-21T11:04:22.000Z</time>
      </trkpt>
      <trkpt lat="44.02164" lon="6.02258">
        <ele>782</ele>
        <time>2021-12-21T11:04:23.000Z</time>
      </trkpt>
      <trkpt lat="44.02164" lon="6.02259">
        <ele>783</ele>
        <time>2021-12-21T11:04:24.000Z</time>
      </trkpt>
      <trkpt lat="44.02164" lon="6.0226">
        <ele>783</ele>
        <time>2021-12-21T11:04:25.000Z</time>
      </trkpt>
      <trkpt lat="44.02164" lon="6.02261">
        <ele>783</ele>
        <time>2021-12-21T11:04:26.000Z</time>
      </trkpt>
      <trkpt lat="44.02164" lon="6.02262">
        <ele>783</ele>
        <time>2021-12-21T11:04:27.000Z</time>
      </trkpt>
      <trkpt lat="44.02164" lon="6.02264">
        <ele>783</ele>
        <time>2021-12-21T11:04:28.000Z</time>
      </trkpt>
      <trkpt lat="44.02164" lon="6.02265">
        <ele>783</ele>
        <time>2021-12-21T11:04:29.000Z</time>
      </trkpt>
      <trkpt lat="44.02163" lon="6.02265">
        <ele>783</ele>
        <time>2021-12-21T11:04:30.000Z</time>
      </trkpt>
      <trkpt lat="44.02163" lon="6.02266">
        <ele>783</ele>
        <time>2021-12-21T11:04:31.000Z</time>
      </trkpt>
      <trkpt lat="44.02163" lon="6.02267">
        <ele>784</ele>
        <time>2021-12-21T11:04:32.000Z</time>
      </trkpt>
      <trkpt lat="44.02163" lon="6.02268">
        <ele>784</ele>
        <time>2021-12-21T11:04:33.000Z</time>
      </trkpt>
      <trkpt lat="44.02163" lon="6.02269">
        <ele>784</ele>
        <time>2021-12-21T11:04:34.000Z</time>
      </trkpt>
      <trkpt lat="44.02163" lon="6.02269">
        <ele>784</ele>
        <time>2021-12-21T11:04:35.000Z</time>
      </trkpt>
      <trkpt lat="44.02163" lon="6.0227">
        <ele>784</ele>
        <time>2021-12-21T11:04:36.000Z</time>
      </trkpt>
      <trkpt lat="44.02163" lon="6.02271">
        <ele>784</ele>
        <time>2021-12-21T11:04:37.000Z</time>
      </trkpt>
      <trkpt lat="44.02163" lon="6.02273">
        <ele>784</ele>
        <time>2021-12-21T11:04:38.000Z</time>
      </trkpt>
      <trkpt lat="44.02163" lon="6.02274">
        <ele>784</ele>
        <time>2021-12-21T11:04:39.000Z</time>
      </trkpt>
      <trkpt lat="44.02163" lon="6.02275">
        <ele>784</ele>
        <time>2021-12-21T11:04:40.000Z</time>
      </trkpt>
      <trkpt lat="44.02163" lon="6.02276">
        <ele>785</ele>
        <time>2021-12-21T11:04:41.000Z</time>
      </trkpt>
      <trkpt lat="44.02163" lon="6.02277">
        <ele>785</ele>
        <time>2021-12-21T11:04:42.000Z</time>
      </trkpt>
      <trkpt lat="44.02163" lon="6.02278">
        <ele>785</ele>
        <time>2021-12-21T11:04:43.000Z</time>
      </trkpt>
      <trkpt lat="44.02163" lon="6.02279">
        <ele>785</ele>
        <time>2021-12-21T11:04:44.000Z</time>
      </trkpt>
      <trkpt lat="44.02163" lon="6.0228">
        <ele>785</ele>
        <time>2021-12-21T11:04:45.000Z</time>
      </trkpt>
      <trkpt lat="44.02163" lon="6.02281">
        <ele>785</ele>
        <time>2021-12-21T11:04:46.000Z</time>
      </trkpt>
      <trkpt lat="44.02163" lon="6.02282">
        <ele>785</ele>
        <time>2021-12-21T11:04:47.000Z</time>
      </trkpt>
      <trkpt lat="44.02163" lon="6.02283">
        <ele>786</ele>
        <time>2021-12-21T11:04:48.000Z</time>
      </trkpt>
      <trkpt lat="44.02163" lon="6.02284">
        <ele>786</ele>
        <time>2021-12-21T11:04:49.000Z</time>
      </trkpt>
      <trkpt lat="44.02163" lon="6.02285">
        <ele>786</ele>
        <time>2021-12-21T11:04:50.000Z</time>
      </trkpt>
      <trkpt lat="44.02163" lon="6.02286">
        <ele>786</ele>
        <time>2021-12-21T11:04:51.000Z</time>
      </trkpt>
      <trkpt lat="44.02163" lon="6.02286">
        <ele>786</ele>
        <time>2021-12-21T11:04:52.000Z</time>
      </trkpt>
      <trkpt lat="44.02163" lon="6.02287">
        <ele>786</ele>
        <time>2021-12-21T11:04:53.000Z</time>
      </trkpt>
      <trkpt lat="44.02163" lon="6.02288">
        <ele>786</ele>
        <time>2021-12-21T11:04:54.000Z</time>
      </trkpt>
      <trkpt lat="44.02162" lon="6.02288">
        <ele>786</ele>
        <time>2021-12-21T11:04:55.000Z</time>
      </trkpt>
      <trkpt lat="44.02162" lon="6.02289">
        <ele>786</ele>
        <time>2021-12-21T11:04:56.000Z</time>
      </trkpt>
      <trkpt lat="44.02162" lon="6.0229">
        <ele>786</ele>
        <time>2021-12-21T11:04:57.000Z</time>
      </trkpt>
      <trkpt lat="44.02162" lon="6.02291">
        <ele>786</ele>
        <time>2021-12-21T11:04:58.000Z</time>
      </trkpt>
      <trkpt lat="44.02162" lon="6.02292">
        <ele>786</ele>
        <time>2021-12-21T11:04:59.000Z</time>
      </trkpt>
      <trkpt lat="44.02162" lon="6.02292">
        <ele>786</ele>
        <time>2021-12-21T11:05:00.000Z</time>
      </trkpt>
      <trkpt lat="44.02162" lon="6.02293">
        <ele>786</ele>
        <time>2021-12-21T11:05:01.000Z</time>
      </trkpt>
      <trkpt lat="44.02162" lon="6.02294">
        <ele>786</ele>
        <time>2021-12-21T11:05:02.000Z</time>
      </trkpt>
      <trkpt lat="44.02162" lon="6.02295">
        <ele>786</ele>
        <time>2021-12-21T11:05:03.000Z</time>
      </trkpt>
      <trkpt lat="44.02162" lon="6.02296">
        <ele>786</ele>
        <time>2021-12-21T11:05:04.000Z</time>
      </trkpt>
      <trkpt lat="44.02162" lon="6.02297">
        <ele>786</ele>
        <time>2021-12-21T11:05:05.000Z</time>
      </trkpt>
      <trkpt lat="44.02162" lon="6.02298">
        <ele>786</ele>
        <time>2021-12-21T11:05:06.000Z</time>
      </trkpt>
      <trkpt lat="44.02161" lon="6.02298">
        <ele>786</ele>
        <time>2021-12-21T11:05:07.000Z</time>
      </trkpt>
      <trkpt lat="44.02161" lon="6.02299">
        <ele>786</ele>
        <time>2021-12-21T11:05:08.000Z</time>
      </trkpt>
      <trkpt lat="44.02161" lon="6.023">
        <ele>786</ele>
        <time>2021-12-21T11:05:09.000Z</time>
      </trkpt>
      <trkpt lat="44.0216" lon="6.02301">
        <ele>786</ele>
        <time>2021-12-21T11:05:10.000Z</time>
      </trkpt>
      <trkpt lat="44.0216" lon="6.02302">
        <ele>786</ele>
        <time>2021-12-21T11:05:11.000Z</time>
      </trkpt>
      <trkpt lat="44.0216" lon="6.02303">
        <ele>786</ele>
        <time>2021-12-21T11:05:12.000Z</time>
      </trkpt>
      <trkpt lat="44.0216" lon="6.02304">
        <ele>787</ele>
        <time>2021-12-21T11:05:13.000Z</time>
      </trkpt>
      <trkpt lat="44.02159" lon="6.02305">
        <ele>787</ele>
        <time>2021-12-21T11:05:14.000Z</time>
      </trkpt>
      <trkpt lat="44.02159" lon="6.02306">
        <ele>787</ele>
        <time>2021-12-21T11:05:15.000Z</time>
      </trkpt>
      <trkpt lat="44.02158" lon="6.02306">
        <ele>787</ele>
        <time>2021-12-21T11:05:16.000Z</time>
      </trkpt>
      <trkpt lat="44.02158" lon="6.02308">
        <ele>787</ele>
        <time>2021-12-21T11:05:17.000Z</time>
      </trkpt>
      <trkpt lat="44.02158" lon="6.02308">
        <ele>787</ele>
        <time>2021-12-21T11:05:18.000Z</time>
      </trkpt>
      <trkpt lat="44.02158" lon="6.02309">
        <ele>787</ele>
        <time>2021-12-21T11:05:19.000Z</time>
      </trkpt>
      <trkpt lat="44.02157" lon="6.0231">
        <ele>787</ele>
        <time>2021-12-21T11:05:20.000Z</time>
      </trkpt>
      <trkpt lat="44.02157" lon="6.02311">
        <ele>787</ele>
        <time>2021-12-21T11:05:21.000Z</time>
      </trkpt>
      <trkpt lat="44.02156" lon="6.02312">
        <ele>788</ele>
        <time>2021-12-21T11:05:22.000Z</time>
      </trkpt>
      <trkpt lat="44.02156" lon="6.02313">
        <ele>788</ele>
        <time>2021-12-21T11:05:23.000Z</time>
      </trkpt>
      <trkpt lat="44.02156" lon="6.02313">
        <ele>788</ele>
        <time>2021-12-21T11:05:24.000Z</time>
      </trkpt>
      <trkpt lat="44.02156" lon="6.02314">
        <ele>788</ele>
        <time>2021-12-21T11:05:25.000Z</time>
      </trkpt>
      <trkpt lat="44.02156" lon="6.02315">
        <ele>788</ele>
        <time>2021-12-21T11:05:26.000Z</time>
      </trkpt>
      <trkpt lat="44.02156" lon="6.02316">
        <ele>788</ele>
        <time>2021-12-21T11:05:27.000Z</time>
      </trkpt>
      <trkpt lat="44.02155" lon="6.02317">
        <ele>789</ele>
        <time>2021-12-21T11:05:28.000Z</time>
      </trkpt>
      <trkpt lat="44.02155" lon="6.02318">
        <ele>789</ele>
        <time>2021-12-21T11:05:29.000Z</time>
      </trkpt>
      <trkpt lat="44.02155" lon="6.02319">
        <ele>789</ele>
        <time>2021-12-21T11:05:30.000Z</time>
      </trkpt>
      <trkpt lat="44.02155" lon="6.0232">
        <ele>789</ele>
        <time>2021-12-21T11:05:31.000Z</time>
      </trkpt>
      <trkpt lat="44.02155" lon="6.02321">
        <ele>789</ele>
        <time>2021-12-21T11:05:32.000Z</time>
      </trkpt>
      <trkpt lat="44.02155" lon="6.02322">
        <ele>789</ele>
        <time>2021-12-21T11:05:33.000Z</time>
      </trkpt>
      <trkpt lat="44.02154" lon="6.02323">
        <ele>789</ele>
        <time>2021-12-21T11:05:34.000Z</time>
      </trkpt>
      <trkpt lat="44.02154" lon="6.02324">
        <ele>789</ele>
        <time>2021-12-21T11:05:35.000Z</time>
      </trkpt>
      <trkpt lat="44.02154" lon="6.02324">
        <ele>790</ele>
        <time>2021-12-21T11:05:36.000Z</time>
      </trkpt>
      <trkpt lat="44.02154" lon="6.02325">
        <ele>790</ele>
        <time>2021-12-21T11:05:37.000Z</time>
      </trkpt>
      <trkpt lat="44.02154" lon="6.02326">
        <ele>790</ele>
        <time>2021-12-21T11:05:38.000Z</time>
      </trkpt>
      <trkpt lat="44.02154" lon="6.02326">
        <ele>790</ele>
        <time>2021-12-21T11:05:39.000Z</time>
      </trkpt>
      <trkpt lat="44.02154" lon="6.02326">
        <ele>790</ele>
        <time>2021-12-21T11:05:40.000Z</time>
      </trkpt>
      <trkpt lat="44.02154" lon="6.02327">
        <ele>790</ele>
        <time>2021-12-21T11:05:41.000Z</time>
      </trkpt>
      <trkpt lat="44.02154" lon="6.02327">
        <ele>790</ele>
        <time>2021-12-21T11:05:42.000Z</time>
      </trkpt>
      <trkpt lat="44.02154" lon="6.02327">
        <ele>790</ele>
        <time>2021-12-21T11:05:43.000Z</time>
      </trkpt>
      <trkpt lat="44.02154" lon="6.02327">
        <ele>790</ele>
        <time>2021-12-21T11:05:44.000Z</time>
      </trkpt>
      <trkpt lat="44.02154" lon="6.02327">
        <ele>790</ele>
        <time>2021-12-21T11:05:45.000Z</time>
      </trkpt>
      <trkpt lat="44.02154" lon="6.02327">
        <ele>790</ele>
        <time>2021-12-21T11:05:46.000Z</time>
      </trkpt>
      <trkpt lat="44.02154" lon="6.02327">
        <ele>790</ele>
        <time>2021-12-21T11:05:47.000Z</time>
      </trkpt>
      <trkpt lat="44.02154" lon="6.02327">
        <ele>790</ele>
        <time>2021-12-21T11:05:48.000Z</time>
      </trkpt>
      <trkpt lat="44.02154" lon="6.02327">
        <ele>790</ele>
        <time>2021-12-21T11:05:49.000Z</time>
      </trkpt>
      <trkpt lat="44.02154" lon="6.02327">
        <ele>790</ele>
        <time>2021-12-21T11:05:50.000Z</time>
      </trkpt>
      <trkpt lat="44.02154" lon="6.02327">
        <ele>790</ele>
        <time>2021-12-21T11:05:51.000Z</time>
      </trkpt>
      <trkpt lat="44.02154" lon="6.02327">
        <ele>790</ele>
        <time>2021-12-21T11:05:52.000Z</time>
      </trkpt>
      <trkpt lat="44.02154" lon="6.02328">
        <ele>790</ele>
        <time>2021-12-21T11:05:53.000Z</time>
      </trkpt>
      <trkpt lat="44.02154" lon="6.02328">
        <ele>790</ele>
        <time>2021-12-21T11:05:54.000Z</time>
      </trkpt>
      <trkpt lat="44.02154" lon="6.02328">
        <ele>790</ele>
        <time>2021-12-21T11:05:55.000Z</time>
      </trkpt>
      <trkpt lat="44.02154" lon="6.02328">
        <ele>790</ele>
        <time>2021-12-21T11:05:56.000Z</time>
      </trkpt>
      <trkpt lat="44.02154" lon="6.02328">
        <ele>790</ele>
        <time>2021-12-21T11:05:57.000Z</time>
      </trkpt>
      <trkpt lat="44.02154" lon="6.02328">
        <ele>790</ele>
        <time>2021-12-21T11:05:58.000Z</time>
      </trkpt>
      <trkpt lat="44.02154" lon="6.02328">
        <ele>790</ele>
        <time>2021-12-21T11:05:59.000Z</time>
      </trkpt>
      <trkpt lat="44.02154" lon="6.02328">
        <ele>790</ele>
        <time>2021-12-21T11:06:00.000Z</time>
      </trkpt>
      <trkpt lat="44.02155" lon="6.02328">
        <ele>790</ele>
        <time>2021-12-21T11:06:01.000Z</time>
      </trkpt>
      <trkpt lat="44.02155" lon="6.02328">
        <ele>790</ele>
        <time>2021-12-21T11:06:02.000Z</time>
      </trkpt>
      <trkpt lat="44.02154" lon="6.02328">
        <ele>790</ele>
        <time>2021-12-21T11:06:03.000Z</time>
      </trkpt>
      <trkpt lat="44.02154" lon="6.02328">
        <ele>790</ele>
        <time>2021-12-21T11:06:04.000Z</time>
      </trkpt>
      <trkpt lat="44.02154" lon="6.02328">
        <ele>790</ele>
        <time>2021-12-21T11:06:05.000Z</time>
      </trkpt>
      <trkpt lat="44.02154" lon="6.02328">
        <ele>790</ele>
        <time>2021-12-21T11:06:06.000Z</time>
      </trkpt>
      <trkpt lat="44.02154" lon="6.02328">
        <ele>790</ele>
        <time>2021-12-21T11:06:07.000Z</time>
      </trkpt>
      <trkpt lat="44.02154" lon="6.02328">
        <ele>790</ele>
        <time>2021-12-21T11:06:08.000Z</time>
      </trkpt>
      <trkpt lat="44.02154" lon="6.02328">
        <ele>790</ele>
        <time>2021-12-21T11:06:09.000Z</time>
      </trkpt>
      <trkpt lat="44.02154" lon="6.02328">
        <ele>790</ele>
        <time>2021-12-21T11:06:10.000Z</time>
      </trkpt>
      <trkpt lat="44.02154" lon="6.02328">
        <ele>790</ele>
        <time>2021-12-21T11:06:11.000Z</time>
      </trkpt>
      <trkpt lat="44.02154" lon="6.02328">
        <ele>790</ele>
        <time>2021-12-21T11:06:12.000Z</time>
      </trkpt>
      <trkpt lat="44.02154" lon="6.02328">
        <ele>790</ele>
        <time>2021-12-21T11:06:13.000Z</time>
      </trkpt>
      <trkpt lat="44.02154" lon="6.02329">
        <ele>790</ele>
        <time>2021-12-21T11:06:14.000Z</time>
      </trkpt>
      <trkpt lat="44.02154" lon="6.02329">
        <ele>790</ele>
        <time>2021-12-21T11:06:15.000Z</time>
      </trkpt>
      <trkpt lat="44.02154" lon="6.02329">
        <ele>790</ele>
        <time>2021-12-21T11:06:16.000Z</time>
      </trkpt>
      <trkpt lat="44.02154" lon="6.02329">
        <ele>790</ele>
        <time>2021-12-21T11:06:17.000Z</time>
      </trkpt>
      <trkpt lat="44.02154" lon="6.02329">
        <ele>790</ele>
        <time>2021-12-21T11:06:18.000Z</time>
      </trkpt>
      <trkpt lat="44.02154" lon="6.02329">
        <ele>790</ele>
        <time>2021-12-21T11:06:19.000Z</time>
      </trkpt>
      <trkpt lat="44.02154" lon="6.02329">
        <ele>790</ele>
        <time>2021-12-21T11:06:20.000Z</time>
      </trkpt>
      <trkpt lat="44.02154" lon="6.02329">
        <ele>790</ele>
        <time>2021-12-21T11:06:21.000Z</time>
      </trkpt>
      <trkpt lat="44.02154" lon="6.02329">
        <ele>790</ele>
        <time>2021-12-21T11:06:22.000Z</time>
      </trkpt>
      <trkpt lat="44.02154" lon="6.02329">
        <ele>790</ele>
        <time>2021-12-21T11:06:23.000Z</time>
      </trkpt>
      <trkpt lat="44.02154" lon="6.02329">
        <ele>790</ele>
        <time>2021-12-21T11:06:24.000Z</time>
      </trkpt>
      <trkpt lat="44.02154" lon="6.02329">
        <ele>790</ele>
        <time>2021-12-21T11:06:25.000Z</time>
      </trkpt>
      <trkpt lat="44.02154" lon="6.02329">
        <ele>790</ele>
        <time>2021-12-21T11:06:26.000Z</time>
      </trkpt>
      <trkpt lat="44.02154" lon="6.02329">
        <ele>790</ele>
        <time>2021-12-21T11:06:27.000Z</time>
      </trkpt>
      <trkpt lat="44.02154" lon="6.02329">
        <ele>790</ele>
        <time>2021-12-21T11:06:28.000Z</time>
      </trkpt>
      <trkpt lat="44.02154" lon="6.02329">
        <ele>790</ele>
        <time>2021-12-21T11:06:29.000Z</time>
      </trkpt>
      <trkpt lat="44.02154" lon="6.02329">
        <ele>790</ele>
        <time>2021-12-21T11:06:30.000Z</time>
      </trkpt>
      <trkpt lat="44.02154" lon="6.02329">
        <ele>790</ele>
        <time>2021-12-21T11:06:31.000Z</time>
      </trkpt>
      <trkpt lat="44.02154" lon="6.02329">
        <ele>790</ele>
        <time>2021-12-21T11:06:32.000Z</time>
      </trkpt>
      <trkpt lat="44.02154" lon="6.02329">
        <ele>790</ele>
        <time>2021-12-21T11:06:33.000Z</time>
      </trkpt>
      <trkpt lat="44.02154" lon="6.02329">
        <ele>790</ele>
        <time>2021-12-21T11:06:34.000Z</time>
      </trkpt>
      <trkpt lat="44.02154" lon="6.02329">
        <ele>790</ele>
        <time>2021-12-21T11:06:35.000Z</time>
      </trkpt>
      <trkpt lat="44.02154" lon="6.02329">
        <ele>790</ele>
        <time>2021-12-21T11:06:36.000Z</time>
      </trkpt>
      <trkpt lat="44.02154" lon="6.02329">
        <ele>790</ele>
        <time>2021-12-21T11:06:37.000Z</time>
      </trkpt>
      <trkpt lat="44.02154" lon="6.02329">
        <ele>790</ele>
        <time>2021-12-21T11:06:38.000Z</time>
      </trkpt>
      <trkpt lat="44.02154" lon="6.02329">
        <ele>790</ele>
        <time>2021-12-21T11:06:39.000Z</time>
      </trkpt>
      <trkpt lat="44.02154" lon="6.02329">
        <ele>790</ele>
        <time>2021-12-21T11:06:40.000Z</time>
      </trkpt>
      <trkpt lat="44.02154" lon="6.02329">
        <ele>790</ele>
        <time>2021-12-21T11:06:41.000Z</time>
      </trkpt>
      <trkpt lat="44.02154" lon="6.02329">
        <ele>790</ele>
        <time>2021-12-21T11:06:42.000Z</time>
      </trkpt>
      <trkpt lat="44.02154" lon="6.02329">
        <ele>790</ele>
        <time>2021-12-21T11:06:43.000Z</time>
      </trkpt>
      <trkpt lat="44.02154" lon="6.02329">
        <ele>790</ele>
        <time>2021-12-21T11:06:44.000Z</time>
      </trkpt>
      <trkpt lat="44.02154" lon="6.02329">
        <ele>790</ele>
        <time>2021-12-21T11:06:45.000Z</time>
      </trkpt>
      <trkpt lat="44.02154" lon="6.02329">
        <ele>790</ele>
        <time>2021-12-21T11:06:46.000Z</time>
      </trkpt>
      <trkpt lat="44.02154" lon="6.02329">
        <ele>790</ele>
        <time>2021-12-21T11:06:47.000Z</time>
      </trkpt>
      <trkpt lat="44.02154" lon="6.02329">
        <ele>790</ele>
        <time>2021-12-21T11:06:48.000Z</time>
      </trkpt>
      <trkpt lat="44.02154" lon="6.02329">
        <ele>790</ele>
        <time>2021-12-21T11:06:49.000Z</time>
      </trkpt>
      <trkpt lat="44.02154" lon="6.02329">
        <ele>790</ele>
        <time>2021-12-21T11:06:50.000Z</time>
      </trkpt>
      <trkpt lat="44.02154" lon="6.02329">
        <ele>790</ele>
        <time>2021-12-21T11:06:51.000Z</time>
      </trkpt>
      <trkpt lat="44.02154" lon="6.02329">
        <ele>790</ele>
        <time>2021-12-21T11:06:52.000Z</time>
      </trkpt>
      <trkpt lat="44.02154" lon="6.02329">
        <ele>790</ele>
        <time>2021-12-21T11:06:53.000Z</time>
      </trkpt>
      <trkpt lat="44.02154" lon="6.02329">
        <ele>790</ele>
        <time>2021-12-21T11:06:54.000Z</time>
      </trkpt>
      <trkpt lat="44.02154" lon="6.02329">
        <ele>790</ele>
        <time>2021-12-21T11:06:55.000Z</time>
      </trkpt>
      <trkpt lat="44.02154" lon="6.02329">
        <ele>790</ele>
        <time>2021-12-21T11:06:56.000Z</time>
      </trkpt>
      <trkpt lat="44.02154" lon="6.02329">
        <ele>790</ele>
        <time>2021-12-21T11:06:57.000Z</time>
      </trkpt>
      <trkpt lat="44.02154" lon="6.02329">
        <ele>790</ele>
        <time>2021-12-21T11:06:58.000Z</time>
      </trkpt>
      <trkpt lat="44.02154" lon="6.02329">
        <ele>790</ele>
        <time>2021-12-21T11:06:59.000Z</time>
      </trkpt>
      <trkpt lat="44.02154" lon="6.02329">
        <ele>790</ele>
        <time>2021-12-21T11:07:00.000Z</time>
      </trkpt>
      <trkpt lat="44.02154" lon="6.02329">
        <ele>790</ele>
        <time>2021-12-21T11:07:01.000Z</time>
      </trkpt>
      <trkpt lat="44.02154" lon="6.02329">
        <ele>790</ele>
        <time>2021-12-21T11:07:02.000Z</time>
      </trkpt>
      <trkpt lat="44.02154" lon="6.02329">
        <ele>790</ele>
        <time>2021-12-21T11:07:03.000Z</time>
      </trkpt>
      <trkpt lat="44.02154" lon="6.02329">
        <ele>790</ele>
        <time>2021-12-21T11:07:04.000Z</time>
      </trkpt>
      <trkpt lat="44.02154" lon="6.02329">
        <ele>790</ele>
        <time>2021-12-21T11:07:05.000Z</time>
      </trkpt>
      <trkpt lat="44.02154" lon="6.02329">
        <ele>790</ele>
        <time>2021-12-21T11:07:06.000Z</time>
      </trkpt>
      <trkpt lat="44.02154" lon="6.02329">
        <ele>790</ele>
        <time>2021-12-21T11:07:07.000Z</time>
      </trkpt>
      <trkpt lat="44.02154" lon="6.02329">
        <ele>790</ele>
        <time>2021-12-21T11:07:08.000Z</time>
      </trkpt>
      <trkpt lat="44.02154" lon="6.02329">
        <ele>790</ele>
        <time>2021-12-21T11:07:09.000Z</time>
      </trkpt>
      <trkpt lat="44.02154" lon="6.02329">
        <ele>790</ele>
        <time>2021-12-21T11:07:10.000Z</time>
      </trkpt>
      <trkpt lat="44.02154" lon="6.02329">
        <ele>790</ele>
        <time>2021-12-21T11:07:11.000Z</time>
      </trkpt>
      <trkpt lat="44.02154" lon="6.02329">
        <ele>790</ele>
        <time>2021-12-21T11:07:12.000Z</time>
      </trkpt>
      <trkpt lat="44.02154" lon="6.02329">
        <ele>790</ele>
        <time>2021-12-21T11:07:13.000Z</time>
      </trkpt>
      <trkpt lat="44.02154" lon="6.02329">
        <ele>790</ele>
        <time>2021-12-21T11:07:14.000Z</time>
      </trkpt>
      <trkpt lat="44.02154" lon="6.02329">
        <ele>790</ele>
        <time>2021-12-21T11:07:15.000Z</time>
      </trkpt>
      <trkpt lat="44.02154" lon="6.02329">
        <ele>790</ele>
        <time>2021-12-21T11:07:16.000Z</time>
      </trkpt>
      <trkpt lat="44.02154" lon="6.02329">
        <ele>790</ele>
        <time>2021-12-21T11:07:17.000Z</time>
      </trkpt>
      <trkpt lat="44.02154" lon="6.02329">
        <ele>790</ele>
        <time>2021-12-21T11:07:18.000Z</time>
      </trkpt>
      <trkpt lat="44.02154" lon="6.02329">
        <ele>790</ele>
        <time>2021-12-21T11:07:19.000Z</time>
      </trkpt>
      <trkpt lat="44.02154" lon="6.02329">
        <ele>790</ele>
        <time>2021-12-21T11:07:20.000Z</time>
      </trkpt>
      <trkpt lat="44.02154" lon="6.02329">
        <ele>790</ele>
        <time>2021-12-21T11:07:21.000Z</time>
      </trkpt>
      <trkpt lat="44.02154" lon="6.02329">
        <ele>790</ele>
        <time>2021-12-21T11:07:22.000Z</time>
      </trkpt>
      <trkpt lat="44.02154" lon="6.02329">
        <ele>790</ele>
        <time>2021-12-21T11:07:23.000Z</time>
      </trkpt>
      <trkpt lat="44.02154" lon="6.02329">
        <ele>790</ele>
        <time>2021-12-21T11:07:24.000Z</time>
      </trkpt>
      <trkpt lat="44.02154" lon="6.02329">
        <ele>790</ele>
        <time>2021-12-21T11:07:25.000Z</time>
      </trkpt>
      <trkpt lat="44.02154" lon="6.02329">
        <ele>790</ele>
        <time>2021-12-21T11:07:26.000Z</time>
      </trkpt>
      <trkpt lat="44.02154" lon="6.02329">
        <ele>790</ele>
        <time>2021-12-21T11:07:27.000Z</time>
      </trkpt>
      <trkpt lat="44.02154" lon="6.02329">
        <ele>790</ele>
        <time>2021-12-21T11:07:28.000Z</time>
      </trkpt>
      <trkpt lat="44.02153" lon="6.02329">
        <ele>790</ele>
        <time>2021-12-21T11:07:29.000Z</time>
      </trkpt>
      <trkpt lat="44.02153" lon="6.02329">
        <ele>790</ele>
        <time>2021-12-21T11:07:30.000Z</time>
      </trkpt>
      <trkpt lat="44.02153" lon="6.02329">
        <ele>790</ele>
        <time>2021-12-21T11:07:31.000Z</time>
      </trkpt>
      <trkpt lat="44.02153" lon="6.02329">
        <ele>790</ele>
        <time>2021-12-21T11:07:32.000Z</time>
      </trkpt>
      <trkpt lat="44.02153" lon="6.02329">
        <ele>790</ele>
        <time>2021-12-21T11:07:33.000Z</time>
      </trkpt>
      <trkpt lat="44.02153" lon="6.02329">
        <ele>790</ele>
        <time>2021-12-21T11:07:34.000Z</time>
      </trkpt>
      <trkpt lat="44.02153" lon="6.02329">
        <ele>790</ele>
        <time>2021-12-21T11:07:35.000Z</time>
      </trkpt>
      <trkpt lat="44.02153" lon="6.02329">
        <ele>790</ele>
        <time>2021-12-21T11:07:36.000Z</time>
      </trkpt>
      <trkpt lat="44.02153" lon="6.02329">
        <ele>790</ele>
        <time>2021-12-21T11:07:37.000Z</time>
      </trkpt>
      <trkpt lat="44.02153" lon="6.02329">
        <ele>790</ele>
        <time>2021-12-21T11:07:38.000Z</time>
      </trkpt>
      <trkpt lat="44.02153" lon="6.02329">
        <ele>790</ele>
        <time>2021-12-21T11:07:39.000Z</time>
      </trkpt>
      <trkpt lat="44.02153" lon="6.02329">
        <ele>790</ele>
        <time>2021-12-21T11:07:40.000Z</time>
      </trkpt>
      <trkpt lat="44.02153" lon="6.02329">
        <ele>790</ele>
        <time>2021-12-21T11:07:41.000Z</time>
      </trkpt>
      <trkpt lat="44.02153" lon="6.02329">
        <ele>790</ele>
        <time>2021-12-21T11:07:42.000Z</time>
      </trkpt>
      <trkpt lat="44.02153" lon="6.02329">
        <ele>790</ele>
        <time>2021-12-21T11:07:43.000Z</time>
      </trkpt>
      <trkpt lat="44.02153" lon="6.02329">
        <ele>790</ele>
        <time>2021-12-21T11:07:44.000Z</time>
      </trkpt>
      <trkpt lat="44.02153" lon="6.02329">
        <ele>790</ele>
        <time>2021-12-21T11:07:45.000Z</time>
      </trkpt>
      <trkpt lat="44.02153" lon="6.02329">
        <ele>790</ele>
        <time>2021-12-21T11:07:46.000Z</time>
      </trkpt>
      <trkpt lat="44.02153" lon="6.02329">
        <ele>790</ele>
        <time>2021-12-21T11:07:47.000Z</time>
      </trkpt>
      <trkpt lat="44.02153" lon="6.02329">
        <ele>790</ele>
        <time>2021-12-21T11:07:48.000Z</time>
      </trkpt>
      <trkpt lat="44.02153" lon="6.02329">
        <ele>790</ele>
        <time>2021-12-21T11:07:49.000Z</time>
      </trkpt>
      <trkpt lat="44.02153" lon="6.02329">
        <ele>790</ele>
        <time>2021-12-21T11:07:50.000Z</time>
      </trkpt>
      <trkpt lat="44.02153" lon="6.02329">
        <ele>790</ele>
        <time>2021-12-21T11:07:51.000Z</time>
      </trkpt>
      <trkpt lat="44.02153" lon="6.02329">
        <ele>790</ele>
        <time>2021-12-21T11:07:52.000Z</time>
      </trkpt>
      <trkpt lat="44.02153" lon="6.02329">
        <ele>790</ele>
        <time>2021-12-21T11:07:53.000Z</time>
      </trkpt>
      <trkpt lat="44.02153" lon="6.02329">
        <ele>790</ele>
        <time>2021-12-21T11:07:54.000Z</time>
      </trkpt>
      <trkpt lat="44.02153" lon="6.02329">
        <ele>790</ele>
        <time>2021-12-21T11:07:55.000Z</time>
      </trkpt>
      <trkpt lat="44.02153" lon="6.0233">
        <ele>790</ele>
        <time>2021-12-21T11:07:56.000Z</time>
      </trkpt>
      <trkpt lat="44.02153" lon="6.0233">
        <ele>790</ele>
        <time>2021-12-21T11:07:57.000Z</time>
      </trkpt>
      <trkpt lat="44.02153" lon="6.02331">
        <ele>790</ele>
        <time>2021-12-21T11:07:58.000Z</time>
      </trkpt>
      <trkpt lat="44.02152" lon="6.02332">
        <ele>790</ele>
        <time>2021-12-21T11:07:59.000Z</time>
      </trkpt>
      <trkpt lat="44.02152" lon="6.02333">
        <ele>790</ele>
        <time>2021-12-21T11:08:00.000Z</time>
      </trkpt>
      <trkpt lat="44.02152" lon="6.02334">
        <ele>790</ele>
        <time>2021-12-21T11:08:01.000Z</time>
      </trkpt>
      <trkpt lat="44.02151" lon="6.02335">
        <ele>790</ele>
        <time>2021-12-21T11:08:02.000Z</time>
      </trkpt>
      <trkpt lat="44.02151" lon="6.02336">
        <ele>791</ele>
        <time>2021-12-21T11:08:03.000Z</time>
      </trkpt>
      <trkpt lat="44.0215" lon="6.02337">
        <ele>791</ele>
        <time>2021-12-21T11:08:04.000Z</time>
      </trkpt>
      <trkpt lat="44.0215" lon="6.02338">
        <ele>791</ele>
        <time>2021-12-21T11:08:05.000Z</time>
      </trkpt>
      <trkpt lat="44.02149" lon="6.02339">
        <ele>791</ele>
        <time>2021-12-21T11:08:06.000Z</time>
      </trkpt>
      <trkpt lat="44.02148" lon="6.0234">
        <ele>791</ele>
        <time>2021-12-21T11:08:07.000Z</time>
      </trkpt>
      <trkpt lat="44.02148" lon="6.02341">
        <ele>791</ele>
        <time>2021-12-21T11:08:08.000Z</time>
      </trkpt>
      <trkpt lat="44.02147" lon="6.02341">
        <ele>791</ele>
        <time>2021-12-21T11:08:09.000Z</time>
      </trkpt>
      <trkpt lat="44.02147" lon="6.02342">
        <ele>791</ele>
        <time>2021-12-21T11:08:10.000Z</time>
      </trkpt>
      <trkpt lat="44.02146" lon="6.02343">
        <ele>791</ele>
        <time>2021-12-21T11:08:11.000Z</time>
      </trkpt>
      <trkpt lat="44.02146" lon="6.02343">
        <ele>791</ele>
        <time>2021-12-21T11:08:12.000Z</time>
      </trkpt>
      <trkpt lat="44.02145" lon="6.02344">
        <ele>791</ele>
        <time>2021-12-21T11:08:13.000Z</time>
      </trkpt>
      <trkpt lat="44.02144" lon="6.02344">
        <ele>791</ele>
        <time>2021-12-21T11:08:14.000Z</time>
      </trkpt>
      <trkpt lat="44.02144" lon="6.02345">
        <ele>791</ele>
        <time>2021-12-21T11:08:15.000Z</time>
      </trkpt>
      <trkpt lat="44.02143" lon="6.02345">
        <ele>791</ele>
        <time>2021-12-21T11:08:16.000Z</time>
      </trkpt>
      <trkpt lat="44.02142" lon="6.02345">
        <ele>791</ele>
        <time>2021-12-21T11:08:17.000Z</time>
      </trkpt>
      <trkpt lat="44.02141" lon="6.02346">
        <ele>791</ele>
        <time>2021-12-21T11:08:18.000Z</time>
      </trkpt>
      <trkpt lat="44.02141" lon="6.02346">
        <ele>791</ele>
        <time>2021-12-21T11:08:19.000Z</time>
      </trkpt>
      <trkpt lat="44.0214" lon="6.02347">
        <ele>791</ele>
        <time>2021-12-21T11:08:20.000Z</time>
      </trkpt>
      <trkpt lat="44.0214" lon="6.02347">
        <ele>791</ele>
        <time>2021-12-21T11:08:21.000Z</time>
      </trkpt>
      <trkpt lat="44.02139" lon="6.02347">
        <ele>792</ele>
        <time>2021-12-21T11:08:22.000Z</time>
      </trkpt>
      <trkpt lat="44.02138" lon="6.02347">
        <ele>792</ele>
        <time>2021-12-21T11:08:23.000Z</time>
      </trkpt>
      <trkpt lat="44.02138" lon="6.02347">
        <ele>792</ele>
        <time>2021-12-21T11:08:24.000Z</time>
      </trkpt>
      <trkpt lat="44.02137" lon="6.02348">
        <ele>792</ele>
        <time>2021-12-21T11:08:25.000Z</time>
      </trkpt>
      <trkpt lat="44.02137" lon="6.02348">
        <ele>792</ele>
        <time>2021-12-21T11:08:26.000Z</time>
      </trkpt>
      <trkpt lat="44.02136" lon="6.02349">
        <ele>792</ele>
        <time>2021-12-21T11:08:27.000Z</time>
      </trkpt>
      <trkpt lat="44.02136" lon="6.02349">
        <ele>792</ele>
        <time>2021-12-21T11:08:28.000Z</time>
      </trkpt>
      <trkpt lat="44.02135" lon="6.0235">
        <ele>792</ele>
        <time>2021-12-21T11:08:29.000Z</time>
      </trkpt>
      <trkpt lat="44.02134" lon="6.02351">
        <ele>792</ele>
        <time>2021-12-21T11:08:30.000Z</time>
      </trkpt>
      <trkpt lat="44.02134" lon="6.02352">
        <ele>793</ele>
        <time>2021-12-21T11:08:31.000Z</time>
      </trkpt>
      <trkpt lat="44.02133" lon="6.02353">
        <ele>793</ele>
        <time>2021-12-21T11:08:32.000Z</time>
      </trkpt>
      <trkpt lat="44.02133" lon="6.02353">
        <ele>793</ele>
        <time>2021-12-21T11:08:33.000Z</time>
      </trkpt>
      <trkpt lat="44.02132" lon="6.02355">
        <ele>793</ele>
        <time>2021-12-21T11:08:34.000Z</time>
      </trkpt>
      <trkpt lat="44.02132" lon="6.02356">
        <ele>793</ele>
        <time>2021-12-21T11:08:35.000Z</time>
      </trkpt>
      <trkpt lat="44.02132" lon="6.02357">
        <ele>793</ele>
        <time>2021-12-21T11:08:36.000Z</time>
      </trkpt>
      <trkpt lat="44.02131" lon="6.02358">
        <ele>793</ele>
        <time>2021-12-21T11:08:37.000Z</time>
      </trkpt>
      <trkpt lat="44.02131" lon="6.02359">
        <ele>793</ele>
        <time>2021-12-21T11:08:38.000Z</time>
      </trkpt>
      <trkpt lat="44.0213" lon="6.0236">
        <ele>793</ele>
        <time>2021-12-21T11:08:39.000Z</time>
      </trkpt>
      <trkpt lat="44.0213" lon="6.02361">
        <ele>794</ele>
        <time>2021-12-21T11:08:40.000Z</time>
      </trkpt>
      <trkpt lat="44.02129" lon="6.02362">
        <ele>794</ele>
        <time>2021-12-21T11:08:41.000Z</time>
      </trkpt>
      <trkpt lat="44.02128" lon="6.02363">
        <ele>794</ele>
        <time>2021-12-21T11:08:42.000Z</time>
      </trkpt>
      <trkpt lat="44.02128" lon="6.02364">
        <ele>794</ele>
        <time>2021-12-21T11:08:43.000Z</time>
      </trkpt>
      <trkpt lat="44.02128" lon="6.02364">
        <ele>794</ele>
        <time>2021-12-21T11:08:44.000Z</time>
      </trkpt>
      <trkpt lat="44.02127" lon="6.02365">
        <ele>794</ele>
        <time>2021-12-21T11:08:45.000Z</time>
      </trkpt>
      <trkpt lat="44.02126" lon="6.02366">
        <ele>794</ele>
        <time>2021-12-21T11:08:46.000Z</time>
      </trkpt>
      <trkpt lat="44.02126" lon="6.02367">
        <ele>795</ele>
        <time>2021-12-21T11:08:47.000Z</time>
      </trkpt>
      <trkpt lat="44.02125" lon="6.02368">
        <ele>795</ele>
        <time>2021-12-21T11:08:48.000Z</time>
      </trkpt>
      <trkpt lat="44.02125" lon="6.02369">
        <ele>795</ele>
        <time>2021-12-21T11:08:49.000Z</time>
      </trkpt>
      <trkpt lat="44.02124" lon="6.0237">
        <ele>795</ele>
        <time>2021-12-21T11:08:50.000Z</time>
      </trkpt>
      <trkpt lat="44.02123" lon="6.02371">
        <ele>795</ele>
        <time>2021-12-21T11:08:51.000Z</time>
      </trkpt>
      <trkpt lat="44.02123" lon="6.02372">
        <ele>795</ele>
        <time>2021-12-21T11:08:52.000Z</time>
      </trkpt>
      <trkpt lat="44.02122" lon="6.02373">
        <ele>795</ele>
        <time>2021-12-21T11:08:53.000Z</time>
      </trkpt>
      <trkpt lat="44.02122" lon="6.02373">
        <ele>795</ele>
        <time>2021-12-21T11:08:54.000Z</time>
      </trkpt>
      <trkpt lat="44.02121" lon="6.02374">
        <ele>796</ele>
        <time>2021-12-21T11:08:55.000Z</time>
      </trkpt>
      <trkpt lat="44.0212" lon="6.02375">
        <ele>796</ele>
        <time>2021-12-21T11:08:56.000Z</time>
      </trkpt>
      <trkpt lat="44.0212" lon="6.02376">
        <ele>796</ele>
        <time>2021-12-21T11:08:57.000Z</time>
      </trkpt>
      <trkpt lat="44.0212" lon="6.02377">
        <ele>796</ele>
        <time>2021-12-21T11:08:58.000Z</time>
      </trkpt>
      <trkpt lat="44.02119" lon="6.02378">
        <ele>797</ele>
        <time>2021-12-21T11:08:59.000Z</time>
      </trkpt>
      <trkpt lat="44.02119" lon="6.02379">
        <ele>797</ele>
        <time>2021-12-21T11:09:00.000Z</time>
      </trkpt>
      <trkpt lat="44.02118" lon="6.0238">
        <ele>797</ele>
        <time>2021-12-21T11:09:01.000Z</time>
      </trkpt>
      <trkpt lat="44.02118" lon="6.02381">
        <ele>797</ele>
        <time>2021-12-21T11:09:02.000Z</time>
      </trkpt>
      <trkpt lat="44.02117" lon="6.02382">
        <ele>798</ele>
        <time>2021-12-21T11:09:03.000Z</time>
      </trkpt>
      <trkpt lat="44.02117" lon="6.02383">
        <ele>798</ele>
        <time>2021-12-21T11:09:04.000Z</time>
      </trkpt>
      <trkpt lat="44.02116" lon="6.02384">
        <ele>798</ele>
        <time>2021-12-21T11:09:05.000Z</time>
      </trkpt>
      <trkpt lat="44.02116" lon="6.02385">
        <ele>798</ele>
        <time>2021-12-21T11:09:06.000Z</time>
      </trkpt>
      <trkpt lat="44.02116" lon="6.02385">
        <ele>798</ele>
        <time>2021-12-21T11:09:07.000Z</time>
      </trkpt>
      <trkpt lat="44.02116" lon="6.02386">
        <ele>799</ele>
        <time>2021-12-21T11:09:08.000Z</time>
      </trkpt>
      <trkpt lat="44.02116" lon="6.02386">
        <ele>799</ele>
        <time>2021-12-21T11:09:09.000Z</time>
      </trkpt>
      <trkpt lat="44.02116" lon="6.02386">
        <ele>799</ele>
        <time>2021-12-21T11:09:10.000Z</time>
      </trkpt>
      <trkpt lat="44.02116" lon="6.02386">
        <ele>799</ele>
        <time>2021-12-21T11:09:11.000Z</time>
      </trkpt>
      <trkpt lat="44.02116" lon="6.02386">
        <ele>799</ele>
        <time>2021-12-21T11:09:12.000Z</time>
      </trkpt>
      <trkpt lat="44.02116" lon="6.02386">
        <ele>799</ele>
        <time>2021-12-21T11:09:13.000Z</time>
      </trkpt>
      <trkpt lat="44.02116" lon="6.02385">
        <ele>799</ele>
        <time>2021-12-21T11:09:14.000Z</time>
      </trkpt>
      <trkpt lat="44.02116" lon="6.02386">
        <ele>799</ele>
        <time>2021-12-21T11:09:15.000Z</time>
      </trkpt>
      <trkpt lat="44.02116" lon="6.02386">
        <ele>799</ele>
        <time>2021-12-21T11:09:16.000Z</time>
      </trkpt>
      <trkpt lat="44.02116" lon="6.02386">
        <ele>799</ele>
        <time>2021-12-21T11:09:17.000Z</time>
      </trkpt>
      <trkpt lat="44.02116" lon="6.02386">
        <ele>799</ele>
        <time>2021-12-21T11:09:18.000Z</time>
      </trkpt>
      <trkpt lat="44.02116" lon="6.02386">
        <ele>799</ele>
        <time>2021-12-21T11:09:19.000Z</time>
      </trkpt>
      <trkpt lat="44.02116" lon="6.02386">
        <ele>799</ele>
        <time>2021-12-21T11:09:20.000Z</time>
      </trkpt>
      <trkpt lat="44.02115" lon="6.02385">
        <ele>799</ele>
        <time>2021-12-21T11:09:21.000Z</time>
      </trkpt>
      <trkpt lat="44.02115" lon="6.02386">
        <ele>799</ele>
        <time>2021-12-21T11:09:22.000Z</time>
      </trkpt>
      <trkpt lat="44.02115" lon="6.02386">
        <ele>799</ele>
        <time>2021-12-21T11:09:23.000Z</time>
      </trkpt>
      <trkpt lat="44.02115" lon="6.02386">
        <ele>799</ele>
        <time>2021-12-21T11:09:24.000Z</time>
      </trkpt>
      <trkpt lat="44.02115" lon="6.02386">
        <ele>799</ele>
        <time>2021-12-21T11:09:25.000Z</time>
      </trkpt>
      <trkpt lat="44.02115" lon="6.02386">
        <ele>799</ele>
        <time>2021-12-21T11:09:26.000Z</time>
      </trkpt>
      <trkpt lat="44.02115" lon="6.02385">
        <ele>799</ele>
        <time>2021-12-21T11:09:27.000Z</time>
      </trkpt>
      <trkpt lat="44.02115" lon="6.02385">
        <ele>799</ele>
        <time>2021-12-21T11:09:28.000Z</time>
      </trkpt>
      <trkpt lat="44.02115" lon="6.02385">
        <ele>799</ele>
        <time>2021-12-21T11:09:29.000Z</time>
      </trkpt>
      <trkpt lat="44.02115" lon="6.02385">
        <ele>799</ele>
        <time>2021-12-21T11:09:30.000Z</time>
      </trkpt>
      <trkpt lat="44.02115" lon="6.02385">
        <ele>799</ele>
        <time>2021-12-21T11:09:31.000Z</time>
      </trkpt>
      <trkpt lat="44.02115" lon="6.02385">
        <ele>799</ele>
        <time>2021-12-21T11:09:32.000Z</time>
      </trkpt>
      <trkpt lat="44.02115" lon="6.02385">
        <ele>799</ele>
        <time>2021-12-21T11:09:33.000Z</time>
      </trkpt>
      <trkpt lat="44.02115" lon="6.02385">
        <ele>799</ele>
        <time>2021-12-21T11:09:34.000Z</time>
      </trkpt>
      <trkpt lat="44.02115" lon="6.02386">
        <ele>799</ele>
        <time>2021-12-21T11:09:35.000Z</time>
      </trkpt>
      <trkpt lat="44.02115" lon="6.02386">
        <ele>799</ele>
        <time>2021-12-21T11:09:36.000Z</time>
      </trkpt>
      <trkpt lat="44.02115" lon="6.02386">
        <ele>799</ele>
        <time>2021-12-21T11:09:37.000Z</time>
      </trkpt>
      <trkpt lat="44.02115" lon="6.02386">
        <ele>799</ele>
        <time>2021-12-21T11:09:38.000Z</time>
      </trkpt>
      <trkpt lat="44.02115" lon="6.02386">
        <ele>799</ele>
        <time>2021-12-21T11:09:39.000Z</time>
      </trkpt>
      <trkpt lat="44.02115" lon="6.02386">
        <ele>799</ele>
        <time>2021-12-21T11:09:40.000Z</time>
      </trkpt>
      <trkpt lat="44.02115" lon="6.02385">
        <ele>799</ele>
        <time>2021-12-21T11:09:41.000Z</time>
      </trkpt>
      <trkpt lat="44.02115" lon="6.02385">
        <ele>798</ele>
        <time>2021-12-21T11:09:42.000Z</time>
      </trkpt>
      <trkpt lat="44.02115" lon="6.02385">
        <ele>798</ele>
        <time>2021-12-21T11:09:43.000Z</time>
      </trkpt>
      <trkpt lat="44.02115" lon="6.02385">
        <ele>798</ele>
        <time>2021-12-21T11:09:44.000Z</time>
      </trkpt>
      <trkpt lat="44.02115" lon="6.02386">
        <ele>798</ele>
        <time>2021-12-21T11:09:45.000Z</time>
      </trkpt>
      <trkpt lat="44.02114" lon="6.02387">
        <ele>798</ele>
        <time>2021-12-21T11:09:46.000Z</time>
      </trkpt>
      <trkpt lat="44.02114" lon="6.02388">
        <ele>798</ele>
        <time>2021-12-21T11:09:47.000Z</time>
      </trkpt>
      <trkpt lat="44.02113" lon="6.02389">
        <ele>798</ele>
        <time>2021-12-21T11:09:48.000Z</time>
      </trkpt>
      <trkpt lat="44.02113" lon="6.02389">
        <ele>798</ele>
        <time>2021-12-21T11:09:49.000Z</time>
      </trkpt>
      <trkpt lat="44.02113" lon="6.0239">
        <ele>798</ele>
        <time>2021-12-21T11:09:50.000Z</time>
      </trkpt>
      <trkpt lat="44.02112" lon="6.02391">
        <ele>798</ele>
        <time>2021-12-21T11:09:51.000Z</time>
      </trkpt>
      <trkpt lat="44.02112" lon="6.02392">
        <ele>798</ele>
        <time>2021-12-21T11:09:52.000Z</time>
      </trkpt>
      <trkpt lat="44.02111" lon="6.02393">
        <ele>798</ele>
        <time>2021-12-21T11:09:53.000Z</time>
      </trkpt>
      <trkpt lat="44.02111" lon="6.02394">
        <ele>798</ele>
        <time>2021-12-21T11:09:54.000Z</time>
      </trkpt>
      <trkpt lat="44.0211" lon="6.02395">
        <ele>798</ele>
        <time>2021-12-21T11:09:55.000Z</time>
      </trkpt>
      <trkpt lat="44.0211" lon="6.02396">
        <ele>798</ele>
        <time>2021-12-21T11:09:56.000Z</time>
      </trkpt>
      <trkpt lat="44.02109" lon="6.02397">
        <ele>798</ele>
        <time>2021-12-21T11:09:57.000Z</time>
      </trkpt>
      <trkpt lat="44.02109" lon="6.02397">
        <ele>798</ele>
        <time>2021-12-21T11:09:58.000Z</time>
      </trkpt>
      <trkpt lat="44.02108" lon="6.02398">
        <ele>798</ele>
        <time>2021-12-21T11:09:59.000Z</time>
      </trkpt>
      <trkpt lat="44.02108" lon="6.02399">
        <ele>798</ele>
        <time>2021-12-21T11:10:00.000Z</time>
      </trkpt>
      <trkpt lat="44.02108" lon="6.024">
        <ele>798</ele>
        <time>2021-12-21T11:10:01.000Z</time>
      </trkpt>
      <trkpt lat="44.02107" lon="6.02401">
        <ele>798</ele>
        <time>2021-12-21T11:10:02.000Z</time>
      </trkpt>
      <trkpt lat="44.02107" lon="6.02402">
        <ele>798</ele>
        <time>2021-12-21T11:10:03.000Z</time>
      </trkpt>
      <trkpt lat="44.02106" lon="6.02403">
        <ele>799</ele>
        <time>2021-12-21T11:10:04.000Z</time>
      </trkpt>
      <trkpt lat="44.02106" lon="6.02404">
        <ele>799</ele>
        <time>2021-12-21T11:10:05.000Z</time>
      </trkpt>
      <trkpt lat="44.02105" lon="6.02405">
        <ele>799</ele>
        <time>2021-12-21T11:10:06.000Z</time>
      </trkpt>
      <trkpt lat="44.02105" lon="6.02406">
        <ele>799</ele>
        <time>2021-12-21T11:10:07.000Z</time>
      </trkpt>
      <trkpt lat="44.02104" lon="6.02406">
        <ele>799</ele>
        <time>2021-12-21T11:10:08.000Z</time>
      </trkpt>
      <trkpt lat="44.02104" lon="6.02407">
        <ele>800</ele>
        <time>2021-12-21T11:10:09.000Z</time>
      </trkpt>
      <trkpt lat="44.02104" lon="6.02408">
        <ele>800</ele>
        <time>2021-12-21T11:10:10.000Z</time>
      </trkpt>
      <trkpt lat="44.02103" lon="6.02409">
        <ele>800</ele>
        <time>2021-12-21T11:10:11.000Z</time>
      </trkpt>
      <trkpt lat="44.02103" lon="6.0241">
        <ele>800</ele>
        <time>2021-12-21T11:10:12.000Z</time>
      </trkpt>
      <trkpt lat="44.02102" lon="6.02411">
        <ele>800</ele>
        <time>2021-12-21T11:10:13.000Z</time>
      </trkpt>
      <trkpt lat="44.02102" lon="6.02412">
        <ele>801</ele>
        <time>2021-12-21T11:10:14.000Z</time>
      </trkpt>
      <trkpt lat="44.02101" lon="6.02412">
        <ele>801</ele>
        <time>2021-12-21T11:10:15.000Z</time>
      </trkpt>
      <trkpt lat="44.02101" lon="6.02413">
        <ele>801</ele>
        <time>2021-12-21T11:10:16.000Z</time>
      </trkpt>
      <trkpt lat="44.02101" lon="6.02414">
        <ele>801</ele>
        <time>2021-12-21T11:10:17.000Z</time>
      </trkpt>
      <trkpt lat="44.021" lon="6.02415">
        <ele>802</ele>
        <time>2021-12-21T11:10:18.000Z</time>
      </trkpt>
      <trkpt lat="44.021" lon="6.02416">
        <ele>802</ele>
        <time>2021-12-21T11:10:19.000Z</time>
      </trkpt>
      <trkpt lat="44.02099" lon="6.02417">
        <ele>802</ele>
        <time>2021-12-21T11:10:20.000Z</time>
      </trkpt>
      <trkpt lat="44.02099" lon="6.02418">
        <ele>802</ele>
        <time>2021-12-21T11:10:21.000Z</time>
      </trkpt>
      <trkpt lat="44.02098" lon="6.02419">
        <ele>802</ele>
        <time>2021-12-21T11:10:22.000Z</time>
      </trkpt>
      <trkpt lat="44.02098" lon="6.0242">
        <ele>803</ele>
        <time>2021-12-21T11:10:23.000Z</time>
      </trkpt>
      <trkpt lat="44.02097" lon="6.02421">
        <ele>803</ele>
        <time>2021-12-21T11:10:24.000Z</time>
      </trkpt>
      <trkpt lat="44.02097" lon="6.02422">
        <ele>803</ele>
        <time>2021-12-21T11:10:25.000Z</time>
      </trkpt>
      <trkpt lat="44.02097" lon="6.02422">
        <ele>803</ele>
        <time>2021-12-21T11:10:26.000Z</time>
      </trkpt>
      <trkpt lat="44.02096" lon="6.02423">
        <ele>803</ele>
        <time>2021-12-21T11:10:27.000Z</time>
      </trkpt>
      <trkpt lat="44.02096" lon="6.02424">
        <ele>803</ele>
        <time>2021-12-21T11:10:28.000Z</time>
      </trkpt>
      <trkpt lat="44.02095" lon="6.02425">
        <ele>804</ele>
        <time>2021-12-21T11:10:29.000Z</time>
      </trkpt>
      <trkpt lat="44.02095" lon="6.02426">
        <ele>804</ele>
        <time>2021-12-21T11:10:30.000Z</time>
      </trkpt>
      <trkpt lat="44.02094" lon="6.02426">
        <ele>804</ele>
        <time>2021-12-21T11:10:31.000Z</time>
      </trkpt>
      <trkpt lat="44.02094" lon="6.02427">
        <ele>804</ele>
        <time>2021-12-21T11:10:32.000Z</time>
      </trkpt>
      <trkpt lat="44.02094" lon="6.02428">
        <ele>804</ele>
        <time>2021-12-21T11:10:33.000Z</time>
      </trkpt>
      <trkpt lat="44.02093" lon="6.02429">
        <ele>805</ele>
        <time>2021-12-21T11:10:34.000Z</time>
      </trkpt>
      <trkpt lat="44.02093" lon="6.0243">
        <ele>805</ele>
        <time>2021-12-21T11:10:35.000Z</time>
      </trkpt>
      <trkpt lat="44.02092" lon="6.02431">
        <ele>805</ele>
        <time>2021-12-21T11:10:36.000Z</time>
      </trkpt>
      <trkpt lat="44.02092" lon="6.02432">
        <ele>805</ele>
        <time>2021-12-21T11:10:37.000Z</time>
      </trkpt>
      <trkpt lat="44.02092" lon="6.02432">
        <ele>805</ele>
        <time>2021-12-21T11:10:38.000Z</time>
      </trkpt>
      <trkpt lat="44.02091" lon="6.02433">
        <ele>805</ele>
        <time>2021-12-21T11:10:39.000Z</time>
      </trkpt>
      <trkpt lat="44.02091" lon="6.02434">
        <ele>805</ele>
        <time>2021-12-21T11:10:40.000Z</time>
      </trkpt>
      <trkpt lat="44.0209" lon="6.02435">
        <ele>805</ele>
        <time>2021-12-21T11:10:41.000Z</time>
      </trkpt>
      <trkpt lat="44.0209" lon="6.02436">
        <ele>805</ele>
        <time>2021-12-21T11:10:42.000Z</time>
      </trkpt>
      <trkpt lat="44.0209" lon="6.02436">
        <ele>805</ele>
        <time>2021-12-21T11:10:43.000Z</time>
      </trkpt>
      <trkpt lat="44.02089" lon="6.02437">
        <ele>806</ele>
        <time>2021-12-21T11:10:44.000Z</time>
      </trkpt>
      <trkpt lat="44.02089" lon="6.02438">
        <ele>806</ele>
        <time>2021-12-21T11:10:45.000Z</time>
      </trkpt>
      <trkpt lat="44.02088" lon="6.02439">
        <ele>806</ele>
        <time>2021-12-21T11:10:46.000Z</time>
      </trkpt>
      <trkpt lat="44.02088" lon="6.0244">
        <ele>806</ele>
        <time>2021-12-21T11:10:47.000Z</time>
      </trkpt>
      <trkpt lat="44.02088" lon="6.02441">
        <ele>806</ele>
        <time>2021-12-21T11:10:48.000Z</time>
      </trkpt>
      <trkpt lat="44.02087" lon="6.02441">
        <ele>806</ele>
        <time>2021-12-21T11:10:49.000Z</time>
      </trkpt>
      <trkpt lat="44.02087" lon="6.02442">
        <ele>806</ele>
        <time>2021-12-21T11:10:50.000Z</time>
      </trkpt>
      <trkpt lat="44.02086" lon="6.02443">
        <ele>806</ele>
        <time>2021-12-21T11:10:51.000Z</time>
      </trkpt>
      <trkpt lat="44.02086" lon="6.02443">
        <ele>806</ele>
        <time>2021-12-21T11:10:52.000Z</time>
      </trkpt>
      <trkpt lat="44.02085" lon="6.02444">
        <ele>806</ele>
        <time>2021-12-21T11:10:53.000Z</time>
      </trkpt>
      <trkpt lat="44.02085" lon="6.02445">
        <ele>806</ele>
        <time>2021-12-21T11:10:54.000Z</time>
      </trkpt>
      <trkpt lat="44.02085" lon="6.02446">
        <ele>806</ele>
        <time>2021-12-21T11:10:55.000Z</time>
      </trkpt>
      <trkpt lat="44.02084" lon="6.02446">
        <ele>806</ele>
        <time>2021-12-21T11:10:56.000Z</time>
      </trkpt>
      <trkpt lat="44.02084" lon="6.02446">
        <ele>807</ele>
        <time>2021-12-21T11:10:57.000Z</time>
      </trkpt>
      <trkpt lat="44.02084" lon="6.02446">
        <ele>807</ele>
        <time>2021-12-21T11:10:58.000Z</time>
      </trkpt>
      <trkpt lat="44.02084" lon="6.02446">
        <ele>807</ele>
        <time>2021-12-21T11:10:59.000Z</time>
      </trkpt>
      <trkpt lat="44.02084" lon="6.02446">
        <ele>807</ele>
        <time>2021-12-21T11:11:00.000Z</time>
      </trkpt>
      <trkpt lat="44.02084" lon="6.02446">
        <ele>807</ele>
        <time>2021-12-21T11:11:01.000Z</time>
      </trkpt>
      <trkpt lat="44.02084" lon="6.02446">
        <ele>807</ele>
        <time>2021-12-21T11:11:02.000Z</time>
      </trkpt>
      <trkpt lat="44.02084" lon="6.02446">
        <ele>807</ele>
        <time>2021-12-21T11:11:03.000Z</time>
      </trkpt>
      <trkpt lat="44.02084" lon="6.02446">
        <ele>807</ele>
        <time>2021-12-21T11:11:04.000Z</time>
      </trkpt>
      <trkpt lat="44.02084" lon="6.02446">
        <ele>807</ele>
        <time>2021-12-21T11:11:05.000Z</time>
      </trkpt>
      <trkpt lat="44.02084" lon="6.02446">
        <ele>807</ele>
        <time>2021-12-21T11:11:06.000Z</time>
      </trkpt>
      <trkpt lat="44.02084" lon="6.02446">
        <ele>807</ele>
        <time>2021-12-21T11:11:07.000Z</time>
      </trkpt>
      <trkpt lat="44.02084" lon="6.02446">
        <ele>807</ele>
        <time>2021-12-21T11:11:08.000Z</time>
      </trkpt>
      <trkpt lat="44.02084" lon="6.02446">
        <ele>807</ele>
        <time>2021-12-21T11:11:09.000Z</time>
      </trkpt>
      <trkpt lat="44.02084" lon="6.02446">
        <ele>807</ele>
        <time>2021-12-21T11:11:10.000Z</time>
      </trkpt>
      <trkpt lat="44.02084" lon="6.02446">
        <ele>807</ele>
        <time>2021-12-21T11:11:11.000Z</time>
      </trkpt>
      <trkpt lat="44.02084" lon="6.02446">
        <ele>807</ele>
        <time>2021-12-21T11:11:12.000Z</time>
      </trkpt>
      <trkpt lat="44.02084" lon="6.02446">
        <ele>807</ele>
        <time>2021-12-21T11:11:13.000Z</time>
      </trkpt>
      <trkpt lat="44.02084" lon="6.02447">
        <ele>807</ele>
        <time>2021-12-21T11:11:14.000Z</time>
      </trkpt>
      <trkpt lat="44.02083" lon="6.02447">
        <ele>807</ele>
        <time>2021-12-21T11:11:15.000Z</time>
      </trkpt>
      <trkpt lat="44.02083" lon="6.02447">
        <ele>807</ele>
        <time>2021-12-21T11:11:16.000Z</time>
      </trkpt>
      <trkpt lat="44.02083" lon="6.02447">
        <ele>807</ele>
        <time>2021-12-21T11:11:17.000Z</time>
      </trkpt>
      <trkpt lat="44.02083" lon="6.02447">
        <ele>806</ele>
        <time>2021-12-21T11:11:18.000Z</time>
      </trkpt>
      <trkpt lat="44.02084" lon="6.02447">
        <ele>806</ele>
        <time>2021-12-21T11:11:19.000Z</time>
      </trkpt>
      <trkpt lat="44.02083" lon="6.02447">
        <ele>806</ele>
        <time>2021-12-21T11:11:20.000Z</time>
      </trkpt>
      <trkpt lat="44.02083" lon="6.02447">
        <ele>806</ele>
        <time>2021-12-21T11:11:21.000Z</time>
      </trkpt>
      <trkpt lat="44.02083" lon="6.02448">
        <ele>806</ele>
        <time>2021-12-21T11:11:22.000Z</time>
      </trkpt>
      <trkpt lat="44.02083" lon="6.02449">
        <ele>806</ele>
        <time>2021-12-21T11:11:23.000Z</time>
      </trkpt>
      <trkpt lat="44.02083" lon="6.0245">
        <ele>806</ele>
        <time>2021-12-21T11:11:24.000Z</time>
      </trkpt>
      <trkpt lat="44.02082" lon="6.0245">
        <ele>806</ele>
        <time>2021-12-21T11:11:25.000Z</time>
      </trkpt>
      <trkpt lat="44.02082" lon="6.02451">
        <ele>806</ele>
        <time>2021-12-21T11:11:26.000Z</time>
      </trkpt>
      <trkpt lat="44.02082" lon="6.02452">
        <ele>806</ele>
        <time>2021-12-21T11:11:27.000Z</time>
      </trkpt>
      <trkpt lat="44.02082" lon="6.02452">
        <ele>806</ele>
        <time>2021-12-21T11:11:28.000Z</time>
      </trkpt>
      <trkpt lat="44.02082" lon="6.02453">
        <ele>806</ele>
        <time>2021-12-21T11:11:29.000Z</time>
      </trkpt>
      <trkpt lat="44.02082" lon="6.02453">
        <ele>806</ele>
        <time>2021-12-21T11:11:30.000Z</time>
      </trkpt>
      <trkpt lat="44.02082" lon="6.02453">
        <ele>805</ele>
        <time>2021-12-21T11:11:31.000Z</time>
      </trkpt>
      <trkpt lat="44.02082" lon="6.02453">
        <ele>806</ele>
        <time>2021-12-21T11:11:32.000Z</time>
      </trkpt>
      <trkpt lat="44.02082" lon="6.02453">
        <ele>805</ele>
        <time>2021-12-21T11:11:33.000Z</time>
      </trkpt>
      <trkpt lat="44.02082" lon="6.02453">
        <ele>805</ele>
        <time>2021-12-21T11:11:34.000Z</time>
      </trkpt>
      <trkpt lat="44.02082" lon="6.02453">
        <ele>805</ele>
        <time>2021-12-21T11:11:35.000Z</time>
      </trkpt>
      <trkpt lat="44.02082" lon="6.02453">
        <ele>805</ele>
        <time>2021-12-21T11:11:36.000Z</time>
      </trkpt>
      <trkpt lat="44.02082" lon="6.02453">
        <ele>805</ele>
        <time>2021-12-21T11:11:37.000Z</time>
      </trkpt>
      <trkpt lat="44.02082" lon="6.02453">
        <ele>805</ele>
        <time>2021-12-21T11:11:38.000Z</time>
      </trkpt>
      <trkpt lat="44.02082" lon="6.02453">
        <ele>805</ele>
        <time>2021-12-21T11:11:39.000Z</time>
      </trkpt>
      <trkpt lat="44.02082" lon="6.02453">
        <ele>805</ele>
        <time>2021-12-21T11:11:40.000Z</time>
      </trkpt>
      <trkpt lat="44.02082" lon="6.02453">
        <ele>805</ele>
        <time>2021-12-21T11:11:41.000Z</time>
      </trkpt>
      <trkpt lat="44.02082" lon="6.02453">
        <ele>805</ele>
        <time>2021-12-21T11:11:42.000Z</time>
      </trkpt>
      <trkpt lat="44.02082" lon="6.02453">
        <ele>805</ele>
        <time>2021-12-21T11:11:43.000Z</time>
      </trkpt>
      <trkpt lat="44.02082" lon="6.02453">
        <ele>805</ele>
        <time>2021-12-21T11:11:44.000Z</time>
      </trkpt>
      <trkpt lat="44.02081" lon="6.02453">
        <ele>805</ele>
        <time>2021-12-21T11:11:45.000Z</time>
      </trkpt>
      <trkpt lat="44.0208" lon="6.02454">
        <ele>806</ele>
        <time>2021-12-21T11:11:46.000Z</time>
      </trkpt>
      <trkpt lat="44.0208" lon="6.02455">
        <ele>806</ele>
        <time>2021-12-21T11:11:47.000Z</time>
      </trkpt>
      <trkpt lat="44.02079" lon="6.02456">
        <ele>806</ele>
        <time>2021-12-21T11:11:48.000Z</time>
      </trkpt>
      <trkpt lat="44.02079" lon="6.02457">
        <ele>806</ele>
        <time>2021-12-21T11:11:49.000Z</time>
      </trkpt>
      <trkpt lat="44.02078" lon="6.02458">
        <ele>806</ele>
        <time>2021-12-21T11:11:50.000Z</time>
      </trkpt>
      <trkpt lat="44.02077" lon="6.02459">
        <ele>807</ele>
        <time>2021-12-21T11:11:51.000Z</time>
      </trkpt>
      <trkpt lat="44.02077" lon="6.0246">
        <ele>807</ele>
        <time>2021-12-21T11:11:52.000Z</time>
      </trkpt>
      <trkpt lat="44.02076" lon="6.02461">
        <ele>807</ele>
        <time>2021-12-21T11:11:53.000Z</time>
      </trkpt>
      <trkpt lat="44.02076" lon="6.02462">
        <ele>807</ele>
        <time>2021-12-21T11:11:54.000Z</time>
      </trkpt>
      <trkpt lat="44.02076" lon="6.02462">
        <ele>807</ele>
        <time>2021-12-21T11:11:55.000Z</time>
      </trkpt>
      <trkpt lat="44.02075" lon="6.02464">
        <ele>808</ele>
        <time>2021-12-21T11:11:56.000Z</time>
      </trkpt>
      <trkpt lat="44.02074" lon="6.02464">
        <ele>808</ele>
        <time>2021-12-21T11:11:57.000Z</time>
      </trkpt>
      <trkpt lat="44.02074" lon="6.02465">
        <ele>808</ele>
        <time>2021-12-21T11:11:58.000Z</time>
      </trkpt>
      <trkpt lat="44.02073" lon="6.02466">
        <ele>808</ele>
        <time>2021-12-21T11:11:59.000Z</time>
      </trkpt>
      <trkpt lat="44.02073" lon="6.02467">
        <ele>808</ele>
        <time>2021-12-21T11:12:00.000Z</time>
      </trkpt>
      <trkpt lat="44.02072" lon="6.02468">
        <ele>809</ele>
        <time>2021-12-21T11:12:01.000Z</time>
      </trkpt>
      <trkpt lat="44.02071" lon="6.02469">
        <ele>809</ele>
        <time>2021-12-21T11:12:02.000Z</time>
      </trkpt>
      <trkpt lat="44.02071" lon="6.02469">
        <ele>809</ele>
        <time>2021-12-21T11:12:03.000Z</time>
      </trkpt>
      <trkpt lat="44.0207" lon="6.0247">
        <ele>809</ele>
        <time>2021-12-21T11:12:04.000Z</time>
      </trkpt>
      <trkpt lat="44.0207" lon="6.02471">
        <ele>810</ele>
        <time>2021-12-21T11:12:05.000Z</time>
      </trkpt>
      <trkpt lat="44.02069" lon="6.02472">
        <ele>810</ele>
        <time>2021-12-21T11:12:06.000Z</time>
      </trkpt>
      <trkpt lat="44.02068" lon="6.02473">
        <ele>810</ele>
        <time>2021-12-21T11:12:07.000Z</time>
      </trkpt>
      <trkpt lat="44.02068" lon="6.02473">
        <ele>810</ele>
        <time>2021-12-21T11:12:08.000Z</time>
      </trkpt>
      <trkpt lat="44.02067" lon="6.02474">
        <ele>811</ele>
        <time>2021-12-21T11:12:09.000Z</time>
      </trkpt>
      <trkpt lat="44.02067" lon="6.02475">
        <ele>811</ele>
        <time>2021-12-21T11:12:10.000Z</time>
      </trkpt>
      <trkpt lat="44.02066" lon="6.02476">
        <ele>811</ele>
        <time>2021-12-21T11:12:11.000Z</time>
      </trkpt>
      <trkpt lat="44.02065" lon="6.02476">
        <ele>811</ele>
        <time>2021-12-21T11:12:12.000Z</time>
      </trkpt>
      <trkpt lat="44.02065" lon="6.02477">
        <ele>811</ele>
        <time>2021-12-21T11:12:13.000Z</time>
      </trkpt>
      <trkpt lat="44.02064" lon="6.02478">
        <ele>812</ele>
        <time>2021-12-21T11:12:14.000Z</time>
      </trkpt>
      <trkpt lat="44.02064" lon="6.02479">
        <ele>812</ele>
        <time>2021-12-21T11:12:15.000Z</time>
      </trkpt>
      <trkpt lat="44.02063" lon="6.02479">
        <ele>812</ele>
        <time>2021-12-21T11:12:16.000Z</time>
      </trkpt>
      <trkpt lat="44.02062" lon="6.0248">
        <ele>812</ele>
        <time>2021-12-21T11:12:17.000Z</time>
      </trkpt>
      <trkpt lat="44.02062" lon="6.02481">
        <ele>813</ele>
        <time>2021-12-21T11:12:18.000Z</time>
      </trkpt>
      <trkpt lat="44.02061" lon="6.02481">
        <ele>813</ele>
        <time>2021-12-21T11:12:19.000Z</time>
      </trkpt>
      <trkpt lat="44.02061" lon="6.02482">
        <ele>813</ele>
        <time>2021-12-21T11:12:20.000Z</time>
      </trkpt>
      <trkpt lat="44.0206" lon="6.02483">
        <ele>813</ele>
        <time>2021-12-21T11:12:21.000Z</time>
      </trkpt>
      <trkpt lat="44.0206" lon="6.02483">
        <ele>813</ele>
        <time>2021-12-21T11:12:22.000Z</time>
      </trkpt>
      <trkpt lat="44.02059" lon="6.02484">
        <ele>813</ele>
        <time>2021-12-21T11:12:23.000Z</time>
      </trkpt>
      <trkpt lat="44.02058" lon="6.02485">
        <ele>814</ele>
        <time>2021-12-21T11:12:24.000Z</time>
      </trkpt>
      <trkpt lat="44.02058" lon="6.02485">
        <ele>814</ele>
        <time>2021-12-21T11:12:25.000Z</time>
      </trkpt>
      <trkpt lat="44.02057" lon="6.02486">
        <ele>814</ele>
        <time>2021-12-21T11:12:26.000Z</time>
      </trkpt>
      <trkpt lat="44.02056" lon="6.02486">
        <ele>814</ele>
        <time>2021-12-21T11:12:27.000Z</time>
      </trkpt>
      <trkpt lat="44.02056" lon="6.02487">
        <ele>814</ele>
        <time>2021-12-21T11:12:28.000Z</time>
      </trkpt>
      <trkpt lat="44.02055" lon="6.02488">
        <ele>814</ele>
        <time>2021-12-21T11:12:29.000Z</time>
      </trkpt>
      <trkpt lat="44.02054" lon="6.02488">
        <ele>814</ele>
        <time>2021-12-21T11:12:30.000Z</time>
      </trkpt>
      <trkpt lat="44.02053" lon="6.02489">
        <ele>815</ele>
        <time>2021-12-21T11:12:31.000Z</time>
      </trkpt>
      <trkpt lat="44.02053" lon="6.0249">
        <ele>815</ele>
        <time>2021-12-21T11:12:32.000Z</time>
      </trkpt>
      <trkpt lat="44.02052" lon="6.0249">
        <ele>815</ele>
        <time>2021-12-21T11:12:33.000Z</time>
      </trkpt>
      <trkpt lat="44.02051" lon="6.02491">
        <ele>815</ele>
        <time>2021-12-21T11:12:34.000Z</time>
      </trkpt>
      <trkpt lat="44.0205" lon="6.02492">
        <ele>815</ele>
        <time>2021-12-21T11:12:35.000Z</time>
      </trkpt>
      <trkpt lat="44.02049" lon="6.02492">
        <ele>815</ele>
        <time>2021-12-21T11:12:36.000Z</time>
      </trkpt>
      <trkpt lat="44.02049" lon="6.02493">
        <ele>816</ele>
        <time>2021-12-21T11:12:37.000Z</time>
      </trkpt>
      <trkpt lat="44.02048" lon="6.02494">
        <ele>816</ele>
        <time>2021-12-21T11:12:38.000Z</time>
      </trkpt>
      <trkpt lat="44.02047" lon="6.02494">
        <ele>816</ele>
        <time>2021-12-21T11:12:39.000Z</time>
      </trkpt>
      <trkpt lat="44.02046" lon="6.02495">
        <ele>816</ele>
        <time>2021-12-21T11:12:40.000Z</time>
      </trkpt>
      <trkpt lat="44.02046" lon="6.02496">
        <ele>816</ele>
        <time>2021-12-21T11:12:41.000Z</time>
      </trkpt>
      <trkpt lat="44.02044" lon="6.02496">
        <ele>816</ele>
        <time>2021-12-21T11:12:42.000Z</time>
      </trkpt>
      <trkpt lat="44.02044" lon="6.02497">
        <ele>817</ele>
        <time>2021-12-21T11:12:43.000Z</time>
      </trkpt>
      <trkpt lat="44.02043" lon="6.02497">
        <ele>817</ele>
        <time>2021-12-21T11:12:44.000Z</time>
      </trkpt>
      <trkpt lat="44.02042" lon="6.02498">
        <ele>817</ele>
        <time>2021-12-21T11:12:45.000Z</time>
      </trkpt>
      <trkpt lat="44.02041" lon="6.02499">
        <ele>817</ele>
        <time>2021-12-21T11:12:46.000Z</time>
      </trkpt>
      <trkpt lat="44.0204" lon="6.02499">
        <ele>817</ele>
        <time>2021-12-21T11:12:47.000Z</time>
      </trkpt>
      <trkpt lat="44.0204" lon="6.02499">
        <ele>817</ele>
        <time>2021-12-21T11:12:48.000Z</time>
      </trkpt>
      <trkpt lat="44.02039" lon="6.02499">
        <ele>818</ele>
        <time>2021-12-21T11:12:49.000Z</time>
      </trkpt>
      <trkpt lat="44.02039" lon="6.02499">
        <ele>818</ele>
        <time>2021-12-21T11:12:50.000Z</time>
      </trkpt>
      <trkpt lat="44.02039" lon="6.02499">
        <ele>818</ele>
        <time>2021-12-21T11:12:51.000Z</time>
      </trkpt>
      <trkpt lat="44.02039" lon="6.02499">
        <ele>818</ele>
        <time>2021-12-21T11:12:52.000Z</time>
      </trkpt>
      <trkpt lat="44.02039" lon="6.02499">
        <ele>818</ele>
        <time>2021-12-21T11:12:53.000Z</time>
      </trkpt>
      <trkpt lat="44.02039" lon="6.02499">
        <ele>818</ele>
        <time>2021-12-21T11:12:54.000Z</time>
      </trkpt>
      <trkpt lat="44.02039" lon="6.02499">
        <ele>818</ele>
        <time>2021-12-21T11:12:55.000Z</time>
      </trkpt>
      <trkpt lat="44.02039" lon="6.02499">
        <ele>818</ele>
        <time>2021-12-21T11:12:56.000Z</time>
      </trkpt>
      <trkpt lat="44.02039" lon="6.02499">
        <ele>818</ele>
        <time>2021-12-21T11:12:57.000Z</time>
      </trkpt>
      <trkpt lat="44.02039" lon="6.02499">
        <ele>818</ele>
        <time>2021-12-21T11:12:58.000Z</time>
      </trkpt>
      <trkpt lat="44.02039" lon="6.02499">
        <ele>818</ele>
        <time>2021-12-21T11:12:59.000Z</time>
      </trkpt>
      <trkpt lat="44.0204" lon="6.02499">
        <ele>818</ele>
        <time>2021-12-21T11:13:00.000Z</time>
      </trkpt>
      <trkpt lat="44.0204" lon="6.02499">
        <ele>818</ele>
        <time>2021-12-21T11:13:01.000Z</time>
      </trkpt>
      <trkpt lat="44.02039" lon="6.02499">
        <ele>818</ele>
        <time>2021-12-21T11:13:02.000Z</time>
      </trkpt>
      <trkpt lat="44.02039" lon="6.025">
        <ele>818</ele>
        <time>2021-12-21T11:13:03.000Z</time>
      </trkpt>
      <trkpt lat="44.02038" lon="6.025">
        <ele>818</ele>
        <time>2021-12-21T11:13:04.000Z</time>
      </trkpt>
      <trkpt lat="44.02037" lon="6.025">
        <ele>818</ele>
        <time>2021-12-21T11:13:05.000Z</time>
      </trkpt>
      <trkpt lat="44.02037" lon="6.02501">
        <ele>819</ele>
        <time>2021-12-21T11:13:06.000Z</time>
      </trkpt>
      <trkpt lat="44.02036" lon="6.02501">
        <ele>819</ele>
        <time>2021-12-21T11:13:07.000Z</time>
      </trkpt>
      <trkpt lat="44.02035" lon="6.02502">
        <ele>819</ele>
        <time>2021-12-21T11:13:08.000Z</time>
      </trkpt>
      <trkpt lat="44.02034" lon="6.02502">
        <ele>819</ele>
        <time>2021-12-21T11:13:09.000Z</time>
      </trkpt>
      <trkpt lat="44.02033" lon="6.02502">
        <ele>819</ele>
        <time>2021-12-21T11:13:10.000Z</time>
      </trkpt>
      <trkpt lat="44.02032" lon="6.02503">
        <ele>819</ele>
        <time>2021-12-21T11:13:11.000Z</time>
      </trkpt>
      <trkpt lat="44.02031" lon="6.02503">
        <ele>819</ele>
        <time>2021-12-21T11:13:12.000Z</time>
      </trkpt>
      <trkpt lat="44.0203" lon="6.02503">
        <ele>819</ele>
        <time>2021-12-21T11:13:13.000Z</time>
      </trkpt>
      <trkpt lat="44.02029" lon="6.02504">
        <ele>819</ele>
        <time>2021-12-21T11:13:14.000Z</time>
      </trkpt>
      <trkpt lat="44.02029" lon="6.02504">
        <ele>819</ele>
        <time>2021-12-21T11:13:15.000Z</time>
      </trkpt>
      <trkpt lat="44.02028" lon="6.02505">
        <ele>820</ele>
        <time>2021-12-21T11:13:16.000Z</time>
      </trkpt>
      <trkpt lat="44.02027" lon="6.02506">
        <ele>820</ele>
        <time>2021-12-21T11:13:17.000Z</time>
      </trkpt>
      <trkpt lat="44.02026" lon="6.02506">
        <ele>820</ele>
        <time>2021-12-21T11:13:18.000Z</time>
      </trkpt>
      <trkpt lat="44.02025" lon="6.02507">
        <ele>820</ele>
        <time>2021-12-21T11:13:19.000Z</time>
      </trkpt>
      <trkpt lat="44.02024" lon="6.02508">
        <ele>820</ele>
        <time>2021-12-21T11:13:20.000Z</time>
      </trkpt>
      <trkpt lat="44.02023" lon="6.02509">
        <ele>820</ele>
        <time>2021-12-21T11:13:21.000Z</time>
      </trkpt>
      <trkpt lat="44.02023" lon="6.0251">
        <ele>820</ele>
        <time>2021-12-21T11:13:22.000Z</time>
      </trkpt>
      <trkpt lat="44.02022" lon="6.0251">
        <ele>821</ele>
        <time>2021-12-21T11:13:23.000Z</time>
      </trkpt>
      <trkpt lat="44.02021" lon="6.02511">
        <ele>821</ele>
        <time>2021-12-21T11:13:24.000Z</time>
      </trkpt>
      <trkpt lat="44.02021" lon="6.02512">
        <ele>821</ele>
        <time>2021-12-21T11:13:25.000Z</time>
      </trkpt>
      <trkpt lat="44.0202" lon="6.02513">
        <ele>821</ele>
        <time>2021-12-21T11:13:26.000Z</time>
      </trkpt>
      <trkpt lat="44.02019" lon="6.02514">
        <ele>821</ele>
        <time>2021-12-21T11:13:27.000Z</time>
      </trkpt>
      <trkpt lat="44.02019" lon="6.02515">
        <ele>821</ele>
        <time>2021-12-21T11:13:28.000Z</time>
      </trkpt>
      <trkpt lat="44.02018" lon="6.02516">
        <ele>821</ele>
        <time>2021-12-21T11:13:29.000Z</time>
      </trkpt>
      <trkpt lat="44.02017" lon="6.02517">
        <ele>821</ele>
        <time>2021-12-21T11:13:30.000Z</time>
      </trkpt>
      <trkpt lat="44.02017" lon="6.02517">
        <ele>821</ele>
        <time>2021-12-21T11:13:31.000Z</time>
      </trkpt>
      <trkpt lat="44.02016" lon="6.02518">
        <ele>822</ele>
        <time>2021-12-21T11:13:32.000Z</time>
      </trkpt>
      <trkpt lat="44.02015" lon="6.02519">
        <ele>822</ele>
        <time>2021-12-21T11:13:33.000Z</time>
      </trkpt>
      <trkpt lat="44.02014" lon="6.0252">
        <ele>822</ele>
        <time>2021-12-21T11:13:34.000Z</time>
      </trkpt>
      <trkpt lat="44.02014" lon="6.0252">
        <ele>822</ele>
        <time>2021-12-21T11:13:35.000Z</time>
      </trkpt>
      <trkpt lat="44.02013" lon="6.02521">
        <ele>822</ele>
        <time>2021-12-21T11:13:36.000Z</time>
      </trkpt>
      <trkpt lat="44.02012" lon="6.02521">
        <ele>822</ele>
        <time>2021-12-21T11:13:37.000Z</time>
      </trkpt>
      <trkpt lat="44.02011" lon="6.02522">
        <ele>822</ele>
        <time>2021-12-21T11:13:38.000Z</time>
      </trkpt>
      <trkpt lat="44.02011" lon="6.02522">
        <ele>822</ele>
        <time>2021-12-21T11:13:39.000Z</time>
      </trkpt>
      <trkpt lat="44.0201" lon="6.02522">
        <ele>822</ele>
        <time>2021-12-21T11:13:40.000Z</time>
      </trkpt>
      <trkpt lat="44.02009" lon="6.02522">
        <ele>822</ele>
        <time>2021-12-21T11:13:41.000Z</time>
      </trkpt>
      <trkpt lat="44.02008" lon="6.02522">
        <ele>823</ele>
        <time>2021-12-21T11:13:42.000Z</time>
      </trkpt>
      <trkpt lat="44.02007" lon="6.02523">
        <ele>823</ele>
        <time>2021-12-21T11:13:43.000Z</time>
      </trkpt>
      <trkpt lat="44.02007" lon="6.02522">
        <ele>823</ele>
        <time>2021-12-21T11:13:44.000Z</time>
      </trkpt>
      <trkpt lat="44.02006" lon="6.02523">
        <ele>823</ele>
        <time>2021-12-21T11:13:45.000Z</time>
      </trkpt>
      <trkpt lat="44.02005" lon="6.02523">
        <ele>823</ele>
        <time>2021-12-21T11:13:46.000Z</time>
      </trkpt>
      <trkpt lat="44.02005" lon="6.02523">
        <ele>823</ele>
        <time>2021-12-21T11:13:47.000Z</time>
      </trkpt>
      <trkpt lat="44.02005" lon="6.02523">
        <ele>823</ele>
        <time>2021-12-21T11:13:48.000Z</time>
      </trkpt>
      <trkpt lat="44.02005" lon="6.02523">
        <ele>823</ele>
        <time>2021-12-21T11:13:49.000Z</time>
      </trkpt>
      <trkpt lat="44.02005" lon="6.02523">
        <ele>823</ele>
        <time>2021-12-21T11:13:50.000Z</time>
      </trkpt>
      <trkpt lat="44.02005" lon="6.02523">
        <ele>823</ele>
        <time>2021-12-21T11:13:51.000Z</time>
      </trkpt>
      <trkpt lat="44.02005" lon="6.02523">
        <ele>824</ele>
        <time>2021-12-21T11:13:52.000Z</time>
      </trkpt>
      <trkpt lat="44.02005" lon="6.02524">
        <ele>824</ele>
        <time>2021-12-21T11:13:53.000Z</time>
      </trkpt>
      <trkpt lat="44.02004" lon="6.02525">
        <ele>824</ele>
        <time>2021-12-21T11:13:54.000Z</time>
      </trkpt>
      <trkpt lat="44.02003" lon="6.02526">
        <ele>824</ele>
        <time>2021-12-21T11:13:55.000Z</time>
      </trkpt>
      <trkpt lat="44.02003" lon="6.02527">
        <ele>824</ele>
        <time>2021-12-21T11:13:56.000Z</time>
      </trkpt>
      <trkpt lat="44.02002" lon="6.02528">
        <ele>824</ele>
        <time>2021-12-21T11:13:57.000Z</time>
      </trkpt>
      <trkpt lat="44.02002" lon="6.02529">
        <ele>824</ele>
        <time>2021-12-21T11:13:58.000Z</time>
      </trkpt>
      <trkpt lat="44.02001" lon="6.02531">
        <ele>824</ele>
        <time>2021-12-21T11:13:59.000Z</time>
      </trkpt>
      <trkpt lat="44.02001" lon="6.02532">
        <ele>824</ele>
        <time>2021-12-21T11:14:00.000Z</time>
      </trkpt>
      <trkpt lat="44.02" lon="6.02532">
        <ele>824</ele>
        <time>2021-12-21T11:14:01.000Z</time>
      </trkpt>
      <trkpt lat="44.02" lon="6.02532">
        <ele>824</ele>
        <time>2021-12-21T11:14:02.000Z</time>
      </trkpt>
      <trkpt lat="44.02" lon="6.02532">
        <ele>824</ele>
        <time>2021-12-21T11:14:03.000Z</time>
      </trkpt>
      <trkpt lat="44.02" lon="6.02532">
        <ele>824</ele>
        <time>2021-12-21T11:14:04.000Z</time>
      </trkpt>
      <trkpt lat="44.02" lon="6.02532">
        <ele>824</ele>
        <time>2021-12-21T11:14:05.000Z</time>
      </trkpt>
      <trkpt lat="44.02" lon="6.02532">
        <ele>824</ele>
        <time>2021-12-21T11:14:06.000Z</time>
      </trkpt>
      <trkpt lat="44.02" lon="6.02532">
        <ele>824</ele>
        <time>2021-12-21T11:14:07.000Z</time>
      </trkpt>
      <trkpt lat="44.02" lon="6.02532">
        <ele>824</ele>
        <time>2021-12-21T11:14:08.000Z</time>
      </trkpt>
      <trkpt lat="44.02" lon="6.02532">
        <ele>824</ele>
        <time>2021-12-21T11:14:09.000Z</time>
      </trkpt>
      <trkpt lat="44.02" lon="6.02532">
        <ele>824</ele>
        <time>2021-12-21T11:14:10.000Z</time>
      </trkpt>
      <trkpt lat="44.02" lon="6.02532">
        <ele>824</ele>
        <time>2021-12-21T11:14:11.000Z</time>
      </trkpt>
      <trkpt lat="44.01999" lon="6.02532">
        <ele>824</ele>
        <time>2021-12-21T11:14:12.000Z</time>
      </trkpt>
      <trkpt lat="44.01999" lon="6.02531">
        <ele>825</ele>
        <time>2021-12-21T11:14:13.000Z</time>
      </trkpt>
      <trkpt lat="44.01999" lon="6.02531">
        <ele>825</ele>
        <time>2021-12-21T11:14:14.000Z</time>
      </trkpt>
      <trkpt lat="44.01998" lon="6.02531">
        <ele>825</ele>
        <time>2021-12-21T11:14:15.000Z</time>
      </trkpt>
      <trkpt lat="44.01998" lon="6.02531">
        <ele>825</ele>
        <time>2021-12-21T11:14:16.000Z</time>
      </trkpt>
      <trkpt lat="44.01998" lon="6.02531">
        <ele>825</ele>
        <time>2021-12-21T11:14:17.000Z</time>
      </trkpt>
      <trkpt lat="44.01998" lon="6.02531">
        <ele>825</ele>
        <time>2021-12-21T11:14:18.000Z</time>
      </trkpt>
      <trkpt lat="44.01998" lon="6.02531">
        <ele>825</ele>
        <time>2021-12-21T11:14:19.000Z</time>
      </trkpt>
      <trkpt lat="44.01998" lon="6.02531">
        <ele>825</ele>
        <time>2021-12-21T11:14:20.000Z</time>
      </trkpt>
      <trkpt lat="44.01998" lon="6.02531">
        <ele>825</ele>
        <time>2021-12-21T11:14:21.000Z</time>
      </trkpt>
      <trkpt lat="44.01998" lon="6.02531">
        <ele>825</ele>
        <time>2021-12-21T11:14:22.000Z</time>
      </trkpt>
      <trkpt lat="44.01998" lon="6.02531">
        <ele>825</ele>
        <time>2021-12-21T11:14:23.000Z</time>
      </trkpt>
      <trkpt lat="44.01998" lon="6.02531">
        <ele>825</ele>
        <time>2021-12-21T11:14:24.000Z</time>
      </trkpt>
      <trkpt lat="44.01998" lon="6.0253">
        <ele>825</ele>
        <time>2021-12-21T11:14:25.000Z</time>
      </trkpt>
      <trkpt lat="44.01998" lon="6.02531">
        <ele>825</ele>
        <time>2021-12-21T11:14:26.000Z</time>
      </trkpt>
      <trkpt lat="44.01997" lon="6.02531">
        <ele>825</ele>
        <time>2021-12-21T11:14:27.000Z</time>
      </trkpt>
      <trkpt lat="44.01997" lon="6.02531">
        <ele>825</ele>
        <time>2021-12-21T11:14:28.000Z</time>
      </trkpt>
      <trkpt lat="44.01997" lon="6.02531">
        <ele>825</ele>
        <time>2021-12-21T11:14:29.000Z</time>
      </trkpt>
      <trkpt lat="44.01997" lon="6.02531">
        <ele>825</ele>
        <time>2021-12-21T11:14:30.000Z</time>
      </trkpt>
      <trkpt lat="44.01997" lon="6.02531">
        <ele>825</ele>
        <time>2021-12-21T11:14:31.000Z</time>
      </trkpt>
      <trkpt lat="44.01997" lon="6.02531">
        <ele>825</ele>
        <time>2021-12-21T11:14:32.000Z</time>
      </trkpt>
      <trkpt lat="44.01997" lon="6.02531">
        <ele>825</ele>
        <time>2021-12-21T11:14:33.000Z</time>
      </trkpt>
      <trkpt lat="44.01997" lon="6.02531">
        <ele>825</ele>
        <time>2021-12-21T11:14:34.000Z</time>
      </trkpt>
      <trkpt lat="44.01998" lon="6.02531">
        <ele>825</ele>
        <time>2021-12-21T11:14:35.000Z</time>
      </trkpt>
      <trkpt lat="44.01998" lon="6.02531">
        <ele>825</ele>
        <time>2021-12-21T11:14:36.000Z</time>
      </trkpt>
      <trkpt lat="44.01998" lon="6.02531">
        <ele>825</ele>
        <time>2021-12-21T11:14:37.000Z</time>
      </trkpt>
      <trkpt lat="44.01998" lon="6.02531">
        <ele>825</ele>
        <time>2021-12-21T11:14:38.000Z</time>
      </trkpt>
      <trkpt lat="44.01998" lon="6.02531">
        <ele>825</ele>
        <time>2021-12-21T11:14:39.000Z</time>
      </trkpt>
      <trkpt lat="44.01998" lon="6.02531">
        <ele>825</ele>
        <time>2021-12-21T11:14:40.000Z</time>
      </trkpt>
      <trkpt lat="44.01998" lon="6.02531">
        <ele>825</ele>
        <time>2021-12-21T11:14:41.000Z</time>
      </trkpt>
      <trkpt lat="44.01998" lon="6.02531">
        <ele>825</ele>
        <time>2021-12-21T11:14:42.000Z</time>
      </trkpt>
      <trkpt lat="44.01998" lon="6.0253">
        <ele>825</ele>
        <time>2021-12-21T11:14:43.000Z</time>
      </trkpt>
      <trkpt lat="44.01998" lon="6.0253">
        <ele>825</ele>
        <time>2021-12-21T11:14:44.000Z</time>
      </trkpt>
      <trkpt lat="44.01999" lon="6.0253">
        <ele>825</ele>
        <time>2021-12-21T11:14:45.000Z</time>
      </trkpt>
      <trkpt lat="44.01999" lon="6.0253">
        <ele>825</ele>
        <time>2021-12-21T11:14:46.000Z</time>
      </trkpt>
      <trkpt lat="44.01999" lon="6.0253">
        <ele>825</ele>
        <time>2021-12-21T11:14:47.000Z</time>
      </trkpt>
      <trkpt lat="44.01999" lon="6.0253">
        <ele>825</ele>
        <time>2021-12-21T11:14:48.000Z</time>
      </trkpt>
      <trkpt lat="44.01999" lon="6.0253">
        <ele>825</ele>
        <time>2021-12-21T11:14:49.000Z</time>
      </trkpt>
      <trkpt lat="44.01999" lon="6.0253">
        <ele>825</ele>
        <time>2021-12-21T11:14:50.000Z</time>
      </trkpt>
      <trkpt lat="44.01999" lon="6.0253">
        <ele>825</ele>
        <time>2021-12-21T11:14:51.000Z</time>
      </trkpt>
      <trkpt lat="44.01999" lon="6.0253">
        <ele>825</ele>
        <time>2021-12-21T11:14:52.000Z</time>
      </trkpt>
      <trkpt lat="44.01999" lon="6.0253">
        <ele>825</ele>
        <time>2021-12-21T11:14:53.000Z</time>
      </trkpt>
      <trkpt lat="44.02" lon="6.02531">
        <ele>825</ele>
        <time>2021-12-21T11:14:54.000Z</time>
      </trkpt>
      <trkpt lat="44.02" lon="6.02531">
        <ele>825</ele>
        <time>2021-12-21T11:14:55.000Z</time>
      </trkpt>
      <trkpt lat="44.01999" lon="6.02531">
        <ele>825</ele>
        <time>2021-12-21T11:14:56.000Z</time>
      </trkpt>
      <trkpt lat="44.01999" lon="6.02531">
        <ele>825</ele>
        <time>2021-12-21T11:14:57.000Z</time>
      </trkpt>
      <trkpt lat="44.02" lon="6.02531">
        <ele>825</ele>
        <time>2021-12-21T11:14:58.000Z</time>
      </trkpt>
      <trkpt lat="44.02" lon="6.02531">
        <ele>825</ele>
        <time>2021-12-21T11:14:59.000Z</time>
      </trkpt>
      <trkpt lat="44.02" lon="6.02531">
        <ele>825</ele>
        <time>2021-12-21T11:15:00.000Z</time>
      </trkpt>
      <trkpt lat="44.02" lon="6.02531">
        <ele>825</ele>
        <time>2021-12-21T11:15:01.000Z</time>
      </trkpt>
      <trkpt lat="44.02" lon="6.02531">
        <ele>825</ele>
        <time>2021-12-21T11:15:02.000Z</time>
      </trkpt>
      <trkpt lat="44.02" lon="6.02531">
        <ele>825</ele>
        <time>2021-12-21T11:15:03.000Z</time>
      </trkpt>
      <trkpt lat="44.02" lon="6.02531">
        <ele>825</ele>
        <time>2021-12-21T11:15:04.000Z</time>
      </trkpt>
      <trkpt lat="44.02" lon="6.02531">
        <ele>825</ele>
        <time>2021-12-21T11:15:05.000Z</time>
      </trkpt>
      <trkpt lat="44.02" lon="6.02531">
        <ele>825</ele>
        <time>2021-12-21T11:15:06.000Z</time>
      </trkpt>
      <trkpt lat="44.01999" lon="6.02531">
        <ele>826</ele>
        <time>2021-12-21T11:15:07.000Z</time>
      </trkpt>
      <trkpt lat="44.01999" lon="6.02531">
        <ele>826</ele>
        <time>2021-12-21T11:15:08.000Z</time>
      </trkpt>
      <trkpt lat="44.01999" lon="6.02531">
        <ele>826</ele>
        <time>2021-12-21T11:15:09.000Z</time>
      </trkpt>
      <trkpt lat="44.01999" lon="6.02531">
        <ele>826</ele>
        <time>2021-12-21T11:15:10.000Z</time>
      </trkpt>
      <trkpt lat="44.01999" lon="6.02531">
        <ele>826</ele>
        <time>2021-12-21T11:15:11.000Z</time>
      </trkpt>
      <trkpt lat="44.01999" lon="6.02531">
        <ele>826</ele>
        <time>2021-12-21T11:15:12.000Z</time>
      </trkpt>
      <trkpt lat="44.01999" lon="6.02532">
        <ele>826</ele>
        <time>2021-12-21T11:15:13.000Z</time>
      </trkpt>
      <trkpt lat="44.01999" lon="6.02532">
        <ele>826</ele>
        <time>2021-12-21T11:15:14.000Z</time>
      </trkpt>
      <trkpt lat="44.01999" lon="6.02532">
        <ele>826</ele>
        <time>2021-12-21T11:15:15.000Z</time>
      </trkpt>
      <trkpt lat="44.01999" lon="6.02532">
        <ele>826</ele>
        <time>2021-12-21T11:15:16.000Z</time>
      </trkpt>
      <trkpt lat="44.01999" lon="6.02532">
        <ele>826</ele>
        <time>2021-12-21T11:15:17.000Z</time>
      </trkpt>
      <trkpt lat="44.01999" lon="6.02532">
        <ele>826</ele>
        <time>2021-12-21T11:15:18.000Z</time>
      </trkpt>
      <trkpt lat="44.01999" lon="6.02532">
        <ele>826</ele>
        <time>2021-12-21T11:15:19.000Z</time>
      </trkpt>
      <trkpt lat="44.01999" lon="6.02532">
        <ele>826</ele>
        <time>2021-12-21T11:15:20.000Z</time>
      </trkpt>
      <trkpt lat="44.01999" lon="6.02532">
        <ele>826</ele>
        <time>2021-12-21T11:15:21.000Z</time>
      </trkpt>
      <trkpt lat="44.01999" lon="6.02532">
        <ele>826</ele>
        <time>2021-12-21T11:15:22.000Z</time>
      </trkpt>
      <trkpt lat="44.01999" lon="6.02532">
        <ele>826</ele>
        <time>2021-12-21T11:15:23.000Z</time>
      </trkpt>
      <trkpt lat="44.01999" lon="6.02532">
        <ele>826</ele>
        <time>2021-12-21T11:15:24.000Z</time>
      </trkpt>
      <trkpt lat="44.01999" lon="6.02532">
        <ele>826</ele>
        <time>2021-12-21T11:15:25.000Z</time>
      </trkpt>
      <trkpt lat="44.01999" lon="6.02532">
        <ele>827</ele>
        <time>2021-12-21T11:15:26.000Z</time>
      </trkpt>
      <trkpt lat="44.01998" lon="6.02532">
        <ele>827</ele>
        <time>2021-12-21T11:15:27.000Z</time>
      </trkpt>
      <trkpt lat="44.01999" lon="6.02532">
        <ele>827</ele>
        <time>2021-12-21T11:15:28.000Z</time>
      </trkpt>
      <trkpt lat="44.01999" lon="6.02532">
        <ele>827</ele>
        <time>2021-12-21T11:15:29.000Z</time>
      </trkpt>
      <trkpt lat="44.01999" lon="6.02532">
        <ele>827</ele>
        <time>2021-12-21T11:15:30.000Z</time>
      </trkpt>
      <trkpt lat="44.01999" lon="6.02532">
        <ele>827</ele>
        <time>2021-12-21T11:15:31.000Z</time>
      </trkpt>
      <trkpt lat="44.01999" lon="6.02532">
        <ele>827</ele>
        <time>2021-12-21T11:15:32.000Z</time>
      </trkpt>
      <trkpt lat="44.01999" lon="6.02532">
        <ele>827</ele>
        <time>2021-12-21T11:15:33.000Z</time>
      </trkpt>
      <trkpt lat="44.01999" lon="6.02532">
        <ele>827</ele>
        <time>2021-12-21T11:15:34.000Z</time>
      </trkpt>
      <trkpt lat="44.01999" lon="6.02532">
        <ele>827</ele>
        <time>2021-12-21T11:15:35.000Z</time>
      </trkpt>
      <trkpt lat="44.01999" lon="6.02532">
        <ele>827</ele>
        <time>2021-12-21T11:15:36.000Z</time>
      </trkpt>
      <trkpt lat="44.01999" lon="6.02532">
        <ele>827</ele>
        <time>2021-12-21T11:15:37.000Z</time>
      </trkpt>
      <trkpt lat="44.01999" lon="6.02532">
        <ele>827</ele>
        <time>2021-12-21T11:15:38.000Z</time>
      </trkpt>
      <trkpt lat="44.01999" lon="6.02532">
        <ele>827</ele>
        <time>2021-12-21T11:15:39.000Z</time>
      </trkpt>
      <trkpt lat="44.01999" lon="6.02532">
        <ele>827</ele>
        <time>2021-12-21T11:15:40.000Z</time>
      </trkpt>
      <trkpt lat="44.01999" lon="6.02532">
        <ele>827</ele>
        <time>2021-12-21T11:15:41.000Z</time>
      </trkpt>
      <trkpt lat="44.01998" lon="6.02531">
        <ele>827</ele>
        <time>2021-12-21T11:15:42.000Z</time>
      </trkpt>
      <trkpt lat="44.01998" lon="6.02532">
        <ele>827</ele>
        <time>2021-12-21T11:15:43.000Z</time>
      </trkpt>
      <trkpt lat="44.01998" lon="6.02531">
        <ele>827</ele>
        <time>2021-12-21T11:15:44.000Z</time>
      </trkpt>
      <trkpt lat="44.01998" lon="6.02531">
        <ele>827</ele>
        <time>2021-12-21T11:15:45.000Z</time>
      </trkpt>
      <trkpt lat="44.01998" lon="6.02531">
        <ele>827</ele>
        <time>2021-12-21T11:15:46.000Z</time>
      </trkpt>
      <trkpt lat="44.01998" lon="6.02531">
        <ele>827</ele>
        <time>2021-12-21T11:15:47.000Z</time>
      </trkpt>
      <trkpt lat="44.01998" lon="6.02531">
        <ele>827</ele>
        <time>2021-12-21T11:15:48.000Z</time>
      </trkpt>
      <trkpt lat="44.01998" lon="6.02531">
        <ele>827</ele>
        <time>2021-12-21T11:15:49.000Z</time>
      </trkpt>
      <trkpt lat="44.01998" lon="6.02531">
        <ele>827</ele>
        <time>2021-12-21T11:15:50.000Z</time>
      </trkpt>
      <trkpt lat="44.01998" lon="6.02531">
        <ele>827</ele>
        <time>2021-12-21T11:15:51.000Z</time>
      </trkpt>
      <trkpt lat="44.01998" lon="6.02531">
        <ele>827</ele>
        <time>2021-12-21T11:15:52.000Z</time>
      </trkpt>
      <trkpt lat="44.01998" lon="6.02531">
        <ele>827</ele>
        <time>2021-12-21T11:15:53.000Z</time>
      </trkpt>
      <trkpt lat="44.01998" lon="6.02532">
        <ele>827</ele>
        <time>2021-12-21T11:15:54.000Z</time>
      </trkpt>
      <trkpt lat="44.01998" lon="6.02532">
        <ele>827</ele>
        <time>2021-12-21T11:15:55.000Z</time>
      </trkpt>
      <trkpt lat="44.01998" lon="6.02532">
        <ele>827</ele>
        <time>2021-12-21T11:15:56.000Z</time>
      </trkpt>
      <trkpt lat="44.01998" lon="6.02532">
        <ele>827</ele>
        <time>2021-12-21T11:15:57.000Z</time>
      </trkpt>
      <trkpt lat="44.01998" lon="6.02532">
        <ele>827</ele>
        <time>2021-12-21T11:15:58.000Z</time>
      </trkpt>
      <trkpt lat="44.01998" lon="6.02532">
        <ele>827</ele>
        <time>2021-12-21T11:15:59.000Z</time>
      </trkpt>
      <trkpt lat="44.01998" lon="6.02531">
        <ele>827</ele>
        <time>2021-12-21T11:16:00.000Z</time>
      </trkpt>
      <trkpt lat="44.01998" lon="6.02531">
        <ele>827</ele>
        <time>2021-12-21T11:16:01.000Z</time>
      </trkpt>
      <trkpt lat="44.01998" lon="6.02531">
        <ele>827</ele>
        <time>2021-12-21T11:16:02.000Z</time>
      </trkpt>
      <trkpt lat="44.01998" lon="6.02531">
        <ele>827</ele>
        <time>2021-12-21T11:16:03.000Z</time>
      </trkpt>
      <trkpt lat="44.01998" lon="6.02531">
        <ele>826</ele>
        <time>2021-12-21T11:16:04.000Z</time>
      </trkpt>
      <trkpt lat="44.01998" lon="6.02531">
        <ele>826</ele>
        <time>2021-12-21T11:16:05.000Z</time>
      </trkpt>
      <trkpt lat="44.01998" lon="6.02531">
        <ele>826</ele>
        <time>2021-12-21T11:16:06.000Z</time>
      </trkpt>
      <trkpt lat="44.01998" lon="6.02532">
        <ele>826</ele>
        <time>2021-12-21T11:16:07.000Z</time>
      </trkpt>
      <trkpt lat="44.01998" lon="6.02532">
        <ele>826</ele>
        <time>2021-12-21T11:16:08.000Z</time>
      </trkpt>
      <trkpt lat="44.01998" lon="6.02532">
        <ele>826</ele>
        <time>2021-12-21T11:16:09.000Z</time>
      </trkpt>
      <trkpt lat="44.01998" lon="6.02532">
        <ele>826</ele>
        <time>2021-12-21T11:16:10.000Z</time>
      </trkpt>
      <trkpt lat="44.01998" lon="6.02532">
        <ele>826</ele>
        <time>2021-12-21T11:16:11.000Z</time>
      </trkpt>
      <trkpt lat="44.01998" lon="6.02531">
        <ele>826</ele>
        <time>2021-12-21T11:16:12.000Z</time>
      </trkpt>
      <trkpt lat="44.01998" lon="6.02531">
        <ele>826</ele>
        <time>2021-12-21T11:16:13.000Z</time>
      </trkpt>
      <trkpt lat="44.01998" lon="6.02531">
        <ele>826</ele>
        <time>2021-12-21T11:16:14.000Z</time>
      </trkpt>
      <trkpt lat="44.01998" lon="6.02531">
        <ele>826</ele>
        <time>2021-12-21T11:16:15.000Z</time>
      </trkpt>
      <trkpt lat="44.01998" lon="6.02531">
        <ele>826</ele>
        <time>2021-12-21T11:16:16.000Z</time>
      </trkpt>
      <trkpt lat="44.01997" lon="6.02531">
        <ele>826</ele>
        <time>2021-12-21T11:16:17.000Z</time>
      </trkpt>
      <trkpt lat="44.01998" lon="6.02531">
        <ele>826</ele>
        <time>2021-12-21T11:16:18.000Z</time>
      </trkpt>
      <trkpt lat="44.01998" lon="6.02531">
        <ele>826</ele>
        <time>2021-12-21T11:16:19.000Z</time>
      </trkpt>
      <trkpt lat="44.01998" lon="6.02531">
        <ele>826</ele>
        <time>2021-12-21T11:16:20.000Z</time>
      </trkpt>
      <trkpt lat="44.01998" lon="6.02531">
        <ele>826</ele>
        <time>2021-12-21T11:16:21.000Z</time>
      </trkpt>
      <trkpt lat="44.01998" lon="6.02531">
        <ele>826</ele>
        <time>2021-12-21T11:16:22.000Z</time>
      </trkpt>
      <trkpt lat="44.01998" lon="6.02531">
        <ele>826</ele>
        <time>2021-12-21T11:16:23.000Z</time>
      </trkpt>
      <trkpt lat="44.01997" lon="6.02531">
        <ele>826</ele>
        <time>2021-12-21T11:16:24.000Z</time>
      </trkpt>
      <trkpt lat="44.01998" lon="6.02531">
        <ele>826</ele>
        <time>2021-12-21T11:16:25.000Z</time>
      </trkpt>
      <trkpt lat="44.01998" lon="6.02531">
        <ele>826</ele>
        <time>2021-12-21T11:16:26.000Z</time>
      </trkpt>
      <trkpt lat="44.01998" lon="6.02531">
        <ele>826</ele>
        <time>2021-12-21T11:16:27.000Z</time>
      </trkpt>
      <trkpt lat="44.01997" lon="6.0253">
        <ele>826</ele>
        <time>2021-12-21T11:16:28.000Z</time>
      </trkpt>
      <trkpt lat="44.01997" lon="6.0253">
        <ele>826</ele>
        <time>2021-12-21T11:16:29.000Z</time>
      </trkpt>
      <trkpt lat="44.01997" lon="6.0253">
        <ele>826</ele>
        <time>2021-12-21T11:16:30.000Z</time>
      </trkpt>
      <trkpt lat="44.01997" lon="6.0253">
        <ele>825</ele>
        <time>2021-12-21T11:16:31.000Z</time>
      </trkpt>
      <trkpt lat="44.01997" lon="6.0253">
        <ele>825</ele>
        <time>2021-12-21T11:16:32.000Z</time>
      </trkpt>
      <trkpt lat="44.01997" lon="6.0253">
        <ele>825</ele>
        <time>2021-12-21T11:16:33.000Z</time>
      </trkpt>
      <trkpt lat="44.01997" lon="6.0253">
        <ele>825</ele>
        <time>2021-12-21T11:16:34.000Z</time>
      </trkpt>
      <trkpt lat="44.01997" lon="6.0253">
        <ele>825</ele>
        <time>2021-12-21T11:16:35.000Z</time>
      </trkpt>
      <trkpt lat="44.01997" lon="6.0253">
        <ele>825</ele>
        <time>2021-12-21T11:16:36.000Z</time>
      </trkpt>
      <trkpt lat="44.01997" lon="6.0253">
        <ele>825</ele>
        <time>2021-12-21T11:16:37.000Z</time>
      </trkpt>
      <trkpt lat="44.01997" lon="6.0253">
        <ele>825</ele>
        <time>2021-12-21T11:16:38.000Z</time>
      </trkpt>
      <trkpt lat="44.01997" lon="6.0253">
        <ele>825</ele>
        <time>2021-12-21T11:16:39.000Z</time>
      </trkpt>
      <trkpt lat="44.01997" lon="6.0253">
        <ele>825</ele>
        <time>2021-12-21T11:16:40.000Z</time>
      </trkpt>
      <trkpt lat="44.01998" lon="6.0253">
        <ele>825</ele>
        <time>2021-12-21T11:16:41.000Z</time>
      </trkpt>
      <trkpt lat="44.01998" lon="6.02531">
        <ele>825</ele>
        <time>2021-12-21T11:16:42.000Z</time>
      </trkpt>
      <trkpt lat="44.01998" lon="6.02531">
        <ele>825</ele>
        <time>2021-12-21T11:16:43.000Z</time>
      </trkpt>
      <trkpt lat="44.01998" lon="6.02531">
        <ele>825</ele>
        <time>2021-12-21T11:16:44.000Z</time>
      </trkpt>
      <trkpt lat="44.01998" lon="6.02531">
        <ele>825</ele>
        <time>2021-12-21T11:16:45.000Z</time>
      </trkpt>
      <trkpt lat="44.01998" lon="6.02531">
        <ele>825</ele>
        <time>2021-12-21T11:16:46.000Z</time>
      </trkpt>
      <trkpt lat="44.01998" lon="6.02531">
        <ele>825</ele>
        <time>2021-12-21T11:16:47.000Z</time>
      </trkpt>
      <trkpt lat="44.01997" lon="6.0253">
        <ele>825</ele>
        <time>2021-12-21T11:16:48.000Z</time>
      </trkpt>
      <trkpt lat="44.01997" lon="6.0253">
        <ele>826</ele>
        <time>2021-12-21T11:16:49.000Z</time>
      </trkpt>
      <trkpt lat="44.01997" lon="6.0253">
        <ele>826</ele>
        <time>2021-12-21T11:16:50.000Z</time>
      </trkpt>
      <trkpt lat="44.01997" lon="6.0253">
        <ele>826</ele>
        <time>2021-12-21T11:16:51.000Z</time>
      </trkpt>
      <trkpt lat="44.01997" lon="6.0253">
        <ele>826</ele>
        <time>2021-12-21T11:16:52.000Z</time>
      </trkpt>
      <trkpt lat="44.01997" lon="6.0253">
        <ele>826</ele>
        <time>2021-12-21T11:16:53.000Z</time>
      </trkpt>
      <trkpt lat="44.01997" lon="6.0253">
        <ele>826</ele>
        <time>2021-12-21T11:16:54.000Z</time>
      </trkpt>
      <trkpt lat="44.01997" lon="6.0253">
        <ele>826</ele>
        <time>2021-12-21T11:16:55.000Z</time>
      </trkpt>
      <trkpt lat="44.01997" lon="6.0253">
        <ele>826</ele>
        <time>2021-12-21T11:16:56.000Z</time>
      </trkpt>
      <trkpt lat="44.01997" lon="6.0253">
        <ele>826</ele>
        <time>2021-12-21T11:16:57.000Z</time>
      </trkpt>
      <trkpt lat="44.01997" lon="6.0253">
        <ele>826</ele>
        <time>2021-12-21T11:16:58.000Z</time>
      </trkpt>
      <trkpt lat="44.01997" lon="6.0253">
        <ele>826</ele>
        <time>2021-12-21T11:16:59.000Z</time>
      </trkpt>
      <trkpt lat="44.01997" lon="6.0253">
        <ele>826</ele>
        <time>2021-12-21T11:17:00.000Z</time>
      </trkpt>
      <trkpt lat="44.01997" lon="6.0253">
        <ele>826</ele>
        <time>2021-12-21T11:17:01.000Z</time>
      </trkpt>
      <trkpt lat="44.01997" lon="6.0253">
        <ele>826</ele>
        <time>2021-12-21T11:17:02.000Z</time>
      </trkpt>
      <trkpt lat="44.01997" lon="6.0253">
        <ele>826</ele>
        <time>2021-12-21T11:17:03.000Z</time>
      </trkpt>
      <trkpt lat="44.01997" lon="6.0253">
        <ele>826</ele>
        <time>2021-12-21T11:17:04.000Z</time>
      </trkpt>
      <trkpt lat="44.01997" lon="6.0253">
        <ele>826</ele>
        <time>2021-12-21T11:17:05.000Z</time>
      </trkpt>
      <trkpt lat="44.01997" lon="6.0253">
        <ele>825</ele>
        <time>2021-12-21T11:17:06.000Z</time>
      </trkpt>
      <trkpt lat="44.01997" lon="6.0253">
        <ele>825</ele>
        <time>2021-12-21T11:17:07.000Z</time>
      </trkpt>
      <trkpt lat="44.01997" lon="6.0253">
        <ele>825</ele>
        <time>2021-12-21T11:17:08.000Z</time>
      </trkpt>
      <trkpt lat="44.01997" lon="6.0253">
        <ele>826</ele>
        <time>2021-12-21T11:17:09.000Z</time>
      </trkpt>
      <trkpt lat="44.01997" lon="6.0253">
        <ele>826</ele>
        <time>2021-12-21T11:17:10.000Z</time>
      </trkpt>
      <trkpt lat="44.01997" lon="6.0253">
        <ele>826</ele>
        <time>2021-12-21T11:17:11.000Z</time>
      </trkpt>
      <trkpt lat="44.01997" lon="6.0253">
        <ele>826</ele>
        <time>2021-12-21T11:17:12.000Z</time>
      </trkpt>
      <trkpt lat="44.01997" lon="6.02529">
        <ele>826</ele>
        <time>2021-12-21T11:17:13.000Z</time>
      </trkpt>
      <trkpt lat="44.01997" lon="6.02529">
        <ele>826</ele>
        <time>2021-12-21T11:17:14.000Z</time>
      </trkpt>
      <trkpt lat="44.01997" lon="6.02529">
        <ele>826</ele>
        <time>2021-12-21T11:17:15.000Z</time>
      </trkpt>
      <trkpt lat="44.01997" lon="6.02529">
        <ele>826</ele>
        <time>2021-12-21T11:17:16.000Z</time>
      </trkpt>
      <trkpt lat="44.01997" lon="6.02529">
        <ele>826</ele>
        <time>2021-12-21T11:17:17.000Z</time>
      </trkpt>
      <trkpt lat="44.01997" lon="6.02529">
        <ele>826</ele>
        <time>2021-12-21T11:17:18.000Z</time>
      </trkpt>
      <trkpt lat="44.01997" lon="6.02529">
        <ele>826</ele>
        <time>2021-12-21T11:17:19.000Z</time>
      </trkpt>
      <trkpt lat="44.01997" lon="6.02529">
        <ele>826</ele>
        <time>2021-12-21T11:17:20.000Z</time>
      </trkpt>
      <trkpt lat="44.01997" lon="6.0253">
        <ele>826</ele>
        <time>2021-12-21T11:17:21.000Z</time>
      </trkpt>
      <trkpt lat="44.01997" lon="6.0253">
        <ele>826</ele>
        <time>2021-12-21T11:17:22.000Z</time>
      </trkpt>
      <trkpt lat="44.01997" lon="6.0253">
        <ele>826</ele>
        <time>2021-12-21T11:17:23.000Z</time>
      </trkpt>
      <trkpt lat="44.01998" lon="6.02529">
        <ele>826</ele>
        <time>2021-12-21T11:17:24.000Z</time>
      </trkpt>
      <trkpt lat="44.01998" lon="6.02529">
        <ele>826</ele>
        <time>2021-12-21T11:17:25.000Z</time>
      </trkpt>
      <trkpt lat="44.01999" lon="6.02529">
        <ele>826</ele>
        <time>2021-12-21T11:17:26.000Z</time>
      </trkpt>
      <trkpt lat="44.01999" lon="6.0253">
        <ele>826</ele>
        <time>2021-12-21T11:17:27.000Z</time>
      </trkpt>
      <trkpt lat="44.02" lon="6.02531">
        <ele>826</ele>
        <time>2021-12-21T11:17:28.000Z</time>
      </trkpt>
      <trkpt lat="44.02001" lon="6.02533">
        <ele>825</ele>
        <time>2021-12-21T11:17:29.000Z</time>
      </trkpt>
      <trkpt lat="44.02001" lon="6.02534">
        <ele>825</ele>
        <time>2021-12-21T11:17:30.000Z</time>
      </trkpt>
      <trkpt lat="44.02001" lon="6.02536">
        <ele>825</ele>
        <time>2021-12-21T11:17:31.000Z</time>
      </trkpt>
      <trkpt lat="44.02001" lon="6.02538">
        <ele>825</ele>
        <time>2021-12-21T11:17:32.000Z</time>
      </trkpt>
      <trkpt lat="44.02001" lon="6.02539">
        <ele>825</ele>
        <time>2021-12-21T11:17:33.000Z</time>
      </trkpt>
      <trkpt lat="44.02001" lon="6.0254">
        <ele>825</ele>
        <time>2021-12-21T11:17:34.000Z</time>
      </trkpt>
      <trkpt lat="44.02001" lon="6.02542">
        <ele>826</ele>
        <time>2021-12-21T11:17:35.000Z</time>
      </trkpt>
      <trkpt lat="44.02" lon="6.02543">
        <ele>826</ele>
        <time>2021-12-21T11:17:36.000Z</time>
      </trkpt>
      <trkpt lat="44.02" lon="6.02545">
        <ele>826</ele>
        <time>2021-12-21T11:17:37.000Z</time>
      </trkpt>
      <trkpt lat="44.01999" lon="6.02546">
        <ele>826</ele>
        <time>2021-12-21T11:17:38.000Z</time>
      </trkpt>
      <trkpt lat="44.01999" lon="6.02547">
        <ele>826</ele>
        <time>2021-12-21T11:17:39.000Z</time>
      </trkpt>
      <trkpt lat="44.01999" lon="6.02548">
        <ele>826</ele>
        <time>2021-12-21T11:17:40.000Z</time>
      </trkpt>
      <trkpt lat="44.01998" lon="6.02549">
        <ele>826</ele>
        <time>2021-12-21T11:17:41.000Z</time>
      </trkpt>
      <trkpt lat="44.01998" lon="6.0255">
        <ele>826</ele>
        <time>2021-12-21T11:17:42.000Z</time>
      </trkpt>
      <trkpt lat="44.01998" lon="6.02552">
        <ele>826</ele>
        <time>2021-12-21T11:17:43.000Z</time>
      </trkpt>
      <trkpt lat="44.01998" lon="6.02552">
        <ele>826</ele>
        <time>2021-12-21T11:17:44.000Z</time>
      </trkpt>
      <trkpt lat="44.01997" lon="6.02553">
        <ele>826</ele>
        <time>2021-12-21T11:17:45.000Z</time>
      </trkpt>
      <trkpt lat="44.01997" lon="6.02554">
        <ele>826</ele>
        <time>2021-12-21T11:17:46.000Z</time>
      </trkpt>
      <trkpt lat="44.01997" lon="6.02554">
        <ele>826</ele>
        <time>2021-12-21T11:17:47.000Z</time>
      </trkpt>
      <trkpt lat="44.01996" lon="6.02556">
        <ele>826</ele>
        <time>2021-12-21T11:17:48.000Z</time>
      </trkpt>
      <trkpt lat="44.01996" lon="6.02557">
        <ele>826</ele>
        <time>2021-12-21T11:17:49.000Z</time>
      </trkpt>
      <trkpt lat="44.01995" lon="6.02558">
        <ele>826</ele>
        <time>2021-12-21T11:17:50.000Z</time>
      </trkpt>
      <trkpt lat="44.01995" lon="6.02558">
        <ele>826</ele>
        <time>2021-12-21T11:17:51.000Z</time>
      </trkpt>
      <trkpt lat="44.01995" lon="6.02559">
        <ele>826</ele>
        <time>2021-12-21T11:17:52.000Z</time>
      </trkpt>
      <trkpt lat="44.01995" lon="6.02559">
        <ele>826</ele>
        <time>2021-12-21T11:17:53.000Z</time>
      </trkpt>
      <trkpt lat="44.01995" lon="6.0256">
        <ele>827</ele>
        <time>2021-12-21T11:17:54.000Z</time>
      </trkpt>
      <trkpt lat="44.01994" lon="6.0256">
        <ele>827</ele>
        <time>2021-12-21T11:17:55.000Z</time>
      </trkpt>
      <trkpt lat="44.01994" lon="6.0256">
        <ele>827</ele>
        <time>2021-12-21T11:17:56.000Z</time>
      </trkpt>
      <trkpt lat="44.01994" lon="6.0256">
        <ele>827</ele>
        <time>2021-12-21T11:17:57.000Z</time>
      </trkpt>
      <trkpt lat="44.01994" lon="6.0256">
        <ele>827</ele>
        <time>2021-12-21T11:17:58.000Z</time>
      </trkpt>
      <trkpt lat="44.01994" lon="6.0256">
        <ele>827</ele>
        <time>2021-12-21T11:17:59.000Z</time>
      </trkpt>
      <trkpt lat="44.01994" lon="6.0256">
        <ele>827</ele>
        <time>2021-12-21T11:18:00.000Z</time>
      </trkpt>
      <trkpt lat="44.01994" lon="6.0256">
        <ele>827</ele>
        <time>2021-12-21T11:18:01.000Z</time>
      </trkpt>
      <trkpt lat="44.01994" lon="6.0256">
        <ele>827</ele>
        <time>2021-12-21T11:18:02.000Z</time>
      </trkpt>
      <trkpt lat="44.01994" lon="6.0256">
        <ele>827</ele>
        <time>2021-12-21T11:18:03.000Z</time>
      </trkpt>
      <trkpt lat="44.01994" lon="6.0256">
        <ele>827</ele>
        <time>2021-12-21T11:18:04.000Z</time>
      </trkpt>
      <trkpt lat="44.01994" lon="6.02561">
        <ele>827</ele>
        <time>2021-12-21T11:18:05.000Z</time>
      </trkpt>
      <trkpt lat="44.01994" lon="6.02561">
        <ele>827</ele>
        <time>2021-12-21T11:18:06.000Z</time>
      </trkpt>
      <trkpt lat="44.01994" lon="6.02562">
        <ele>827</ele>
        <time>2021-12-21T11:18:07.000Z</time>
      </trkpt>
      <trkpt lat="44.01993" lon="6.02562">
        <ele>827</ele>
        <time>2021-12-21T11:18:08.000Z</time>
      </trkpt>
      <trkpt lat="44.01993" lon="6.02562">
        <ele>827</ele>
        <time>2021-12-21T11:18:09.000Z</time>
      </trkpt>
      <trkpt lat="44.01993" lon="6.02563">
        <ele>827</ele>
        <time>2021-12-21T11:18:10.000Z</time>
      </trkpt>
      <trkpt lat="44.01993" lon="6.02564">
        <ele>827</ele>
        <time>2021-12-21T11:18:11.000Z</time>
      </trkpt>
      <trkpt lat="44.01992" lon="6.02566">
        <ele>827</ele>
        <time>2021-12-21T11:18:12.000Z</time>
      </trkpt>
      <trkpt lat="44.01991" lon="6.02566">
        <ele>827</ele>
        <time>2021-12-21T11:18:13.000Z</time>
      </trkpt>
      <trkpt lat="44.01991" lon="6.02567">
        <ele>827</ele>
        <time>2021-12-21T11:18:14.000Z</time>
      </trkpt>
      <trkpt lat="44.0199" lon="6.02569">
        <ele>827</ele>
        <time>2021-12-21T11:18:15.000Z</time>
      </trkpt>
      <trkpt lat="44.01989" lon="6.0257">
        <ele>827</ele>
        <time>2021-12-21T11:18:16.000Z</time>
      </trkpt>
      <trkpt lat="44.01989" lon="6.02571">
        <ele>827</ele>
        <time>2021-12-21T11:18:17.000Z</time>
      </trkpt>
      <trkpt lat="44.01988" lon="6.02572">
        <ele>827</ele>
        <time>2021-12-21T11:18:18.000Z</time>
      </trkpt>
      <trkpt lat="44.01987" lon="6.02573">
        <ele>827</ele>
        <time>2021-12-21T11:18:19.000Z</time>
      </trkpt>
      <trkpt lat="44.01987" lon="6.02574">
        <ele>827</ele>
        <time>2021-12-21T11:18:20.000Z</time>
      </trkpt>
      <trkpt lat="44.01986" lon="6.02575">
        <ele>827</ele>
        <time>2021-12-21T11:18:21.000Z</time>
      </trkpt>
      <trkpt lat="44.01986" lon="6.02576">
        <ele>827</ele>
        <time>2021-12-21T11:18:22.000Z</time>
      </trkpt>
      <trkpt lat="44.01985" lon="6.02577">
        <ele>827</ele>
        <time>2021-12-21T11:18:23.000Z</time>
      </trkpt>
      <trkpt lat="44.01984" lon="6.02578">
        <ele>827</ele>
        <time>2021-12-21T11:18:24.000Z</time>
      </trkpt>
      <trkpt lat="44.01984" lon="6.02579">
        <ele>827</ele>
        <time>2021-12-21T11:18:25.000Z</time>
      </trkpt>
      <trkpt lat="44.01983" lon="6.0258">
        <ele>827</ele>
        <time>2021-12-21T11:18:26.000Z</time>
      </trkpt>
      <trkpt lat="44.01983" lon="6.02581">
        <ele>827</ele>
        <time>2021-12-21T11:18:27.000Z</time>
      </trkpt>
      <trkpt lat="44.01982" lon="6.02582">
        <ele>827</ele>
        <time>2021-12-21T11:18:28.000Z</time>
      </trkpt>
      <trkpt lat="44.01982" lon="6.02584">
        <ele>827</ele>
        <time>2021-12-21T11:18:29.000Z</time>
      </trkpt>
      <trkpt lat="44.01982" lon="6.02585">
        <ele>827</ele>
        <time>2021-12-21T11:18:30.000Z</time>
      </trkpt>
      <trkpt lat="44.01981" lon="6.02585">
        <ele>827</ele>
        <time>2021-12-21T11:18:31.000Z</time>
      </trkpt>
      <trkpt lat="44.01981" lon="6.02586">
        <ele>827</ele>
        <time>2021-12-21T11:18:32.000Z</time>
      </trkpt>
      <trkpt lat="44.01981" lon="6.02586">
        <ele>827</ele>
        <time>2021-12-21T11:18:33.000Z</time>
      </trkpt>
      <trkpt lat="44.01981" lon="6.02586">
        <ele>827</ele>
        <time>2021-12-21T11:18:34.000Z</time>
      </trkpt>
      <trkpt lat="44.01981" lon="6.02586">
        <ele>827</ele>
        <time>2021-12-21T11:18:35.000Z</time>
      </trkpt>
      <trkpt lat="44.01981" lon="6.02586">
        <ele>827</ele>
        <time>2021-12-21T11:18:36.000Z</time>
      </trkpt>
      <trkpt lat="44.01981" lon="6.02586">
        <ele>827</ele>
        <time>2021-12-21T11:18:37.000Z</time>
      </trkpt>
      <trkpt lat="44.01981" lon="6.02586">
        <ele>827</ele>
        <time>2021-12-21T11:18:38.000Z</time>
      </trkpt>
      <trkpt lat="44.01981" lon="6.02586">
        <ele>827</ele>
        <time>2021-12-21T11:18:39.000Z</time>
      </trkpt>
      <trkpt lat="44.01981" lon="6.02586">
        <ele>827</ele>
        <time>2021-12-21T11:18:40.000Z</time>
      </trkpt>
      <trkpt lat="44.01981" lon="6.02586">
        <ele>827</ele>
        <time>2021-12-21T11:18:41.000Z</time>
      </trkpt>
      <trkpt lat="44.01981" lon="6.02586">
        <ele>827</ele>
        <time>2021-12-21T11:18:42.000Z</time>
      </trkpt>
      <trkpt lat="44.01981" lon="6.02586">
        <ele>827</ele>
        <time>2021-12-21T11:18:43.000Z</time>
      </trkpt>
      <trkpt lat="44.01981" lon="6.02586">
        <ele>827</ele>
        <time>2021-12-21T11:18:44.000Z</time>
      </trkpt>
      <trkpt lat="44.01981" lon="6.02586">
        <ele>827</ele>
        <time>2021-12-21T11:18:45.000Z</time>
      </trkpt>
      <trkpt lat="44.01981" lon="6.02586">
        <ele>827</ele>
        <time>2021-12-21T11:18:46.000Z</time>
      </trkpt>
      <trkpt lat="44.0198" lon="6.02587">
        <ele>827</ele>
        <time>2021-12-21T11:18:47.000Z</time>
      </trkpt>
      <trkpt lat="44.0198" lon="6.02587">
        <ele>827</ele>
        <time>2021-12-21T11:18:48.000Z</time>
      </trkpt>
      <trkpt lat="44.0198" lon="6.02587">
        <ele>827</ele>
        <time>2021-12-21T11:18:49.000Z</time>
      </trkpt>
      <trkpt lat="44.0198" lon="6.02587">
        <ele>827</ele>
        <time>2021-12-21T11:18:50.000Z</time>
      </trkpt>
      <trkpt lat="44.0198" lon="6.02586">
        <ele>827</ele>
        <time>2021-12-21T11:18:51.000Z</time>
      </trkpt>
      <trkpt lat="44.0198" lon="6.02586">
        <ele>827</ele>
        <time>2021-12-21T11:18:52.000Z</time>
      </trkpt>
      <trkpt lat="44.0198" lon="6.02586">
        <ele>827</ele>
        <time>2021-12-21T11:18:53.000Z</time>
      </trkpt>
      <trkpt lat="44.0198" lon="6.02586">
        <ele>827</ele>
        <time>2021-12-21T11:18:54.000Z</time>
      </trkpt>
      <trkpt lat="44.0198" lon="6.02586">
        <ele>827</ele>
        <time>2021-12-21T11:18:55.000Z</time>
      </trkpt>
      <trkpt lat="44.0198" lon="6.02586">
        <ele>827</ele>
        <time>2021-12-21T11:18:56.000Z</time>
      </trkpt>
      <trkpt lat="44.0198" lon="6.02586">
        <ele>827</ele>
        <time>2021-12-21T11:18:57.000Z</time>
      </trkpt>
      <trkpt lat="44.0198" lon="6.02586">
        <ele>827</ele>
        <time>2021-12-21T11:18:58.000Z</time>
      </trkpt>
      <trkpt lat="44.01981" lon="6.02586">
        <ele>827</ele>
        <time>2021-12-21T11:18:59.000Z</time>
      </trkpt>
      <trkpt lat="44.01981" lon="6.02586">
        <ele>827</ele>
        <time>2021-12-21T11:19:00.000Z</time>
      </trkpt>
      <trkpt lat="44.01981" lon="6.02586">
        <ele>827</ele>
        <time>2021-12-21T11:19:01.000Z</time>
      </trkpt>
      <trkpt lat="44.01981" lon="6.02587">
        <ele>827</ele>
        <time>2021-12-21T11:19:02.000Z</time>
      </trkpt>
      <trkpt lat="44.01981" lon="6.02587">
        <ele>827</ele>
        <time>2021-12-21T11:19:03.000Z</time>
      </trkpt>
      <trkpt lat="44.01981" lon="6.02587">
        <ele>827</ele>
        <time>2021-12-21T11:19:04.000Z</time>
      </trkpt>
      <trkpt lat="44.01981" lon="6.02587">
        <ele>827</ele>
        <time>2021-12-21T11:19:05.000Z</time>
      </trkpt>
      <trkpt lat="44.01981" lon="6.02587">
        <ele>827</ele>
        <time>2021-12-21T11:19:06.000Z</time>
      </trkpt>
      <trkpt lat="44.01981" lon="6.02587">
        <ele>827</ele>
        <time>2021-12-21T11:19:07.000Z</time>
      </trkpt>
      <trkpt lat="44.01981" lon="6.02587">
        <ele>827</ele>
        <time>2021-12-21T11:19:08.000Z</time>
      </trkpt>
      <trkpt lat="44.01981" lon="6.02587">
        <ele>827</ele>
        <time>2021-12-21T11:19:09.000Z</time>
      </trkpt>
      <trkpt lat="44.01981" lon="6.02587">
        <ele>827</ele>
        <time>2021-12-21T11:19:10.000Z</time>
      </trkpt>
      <trkpt lat="44.01981" lon="6.02587">
        <ele>827</ele>
        <time>2021-12-21T11:19:11.000Z</time>
      </trkpt>
      <trkpt lat="44.01981" lon="6.02587">
        <ele>827</ele>
        <time>2021-12-21T11:19:12.000Z</time>
      </trkpt>
      <trkpt lat="44.01981" lon="6.02587">
        <ele>827</ele>
        <time>2021-12-21T11:19:13.000Z</time>
      </trkpt>
      <trkpt lat="44.01981" lon="6.02587">
        <ele>827</ele>
        <time>2021-12-21T11:19:14.000Z</time>
      </trkpt>
      <trkpt lat="44.01981" lon="6.02587">
        <ele>826</ele>
        <time>2021-12-21T11:19:15.000Z</time>
      </trkpt>
      <trkpt lat="44.01981" lon="6.02587">
        <ele>826</ele>
        <time>2021-12-21T11:19:16.000Z</time>
      </trkpt>
      <trkpt lat="44.01981" lon="6.02587">
        <ele>826</ele>
        <time>2021-12-21T11:19:17.000Z</time>
      </trkpt>
      <trkpt lat="44.01981" lon="6.02586">
        <ele>826</ele>
        <time>2021-12-21T11:19:18.000Z</time>
      </trkpt>
      <trkpt lat="44.01981" lon="6.02586">
        <ele>826</ele>
        <time>2021-12-21T11:19:19.000Z</time>
      </trkpt>
      <trkpt lat="44.01981" lon="6.02586">
        <ele>826</ele>
        <time>2021-12-21T11:19:20.000Z</time>
      </trkpt>
      <trkpt lat="44.01981" lon="6.02587">
        <ele>826</ele>
        <time>2021-12-21T11:19:21.000Z</time>
      </trkpt>
      <trkpt lat="44.01981" lon="6.02587">
        <ele>826</ele>
        <time>2021-12-21T11:19:22.000Z</time>
      </trkpt>
      <trkpt lat="44.01981" lon="6.02587">
        <ele>826</ele>
        <time>2021-12-21T11:19:23.000Z</time>
      </trkpt>
      <trkpt lat="44.01981" lon="6.02587">
        <ele>826</ele>
        <time>2021-12-21T11:19:24.000Z</time>
      </trkpt>
      <trkpt lat="44.01981" lon="6.02587">
        <ele>826</ele>
        <time>2021-12-21T11:19:25.000Z</time>
      </trkpt>
      <trkpt lat="44.01981" lon="6.02587">
        <ele>826</ele>
        <time>2021-12-21T11:19:26.000Z</time>
      </trkpt>
      <trkpt lat="44.01981" lon="6.02587">
        <ele>826</ele>
        <time>2021-12-21T11:19:27.000Z</time>
      </trkpt>
      <trkpt lat="44.01981" lon="6.02587">
        <ele>826</ele>
        <time>2021-12-21T11:19:28.000Z</time>
      </trkpt>
      <trkpt lat="44.01981" lon="6.02587">
        <ele>826</ele>
        <time>2021-12-21T11:19:29.000Z</time>
      </trkpt>
      <trkpt lat="44.01981" lon="6.02587">
        <ele>826</ele>
        <time>2021-12-21T11:19:30.000Z</time>
      </trkpt>
      <trkpt lat="44.01981" lon="6.02587">
        <ele>826</ele>
        <time>2021-12-21T11:19:31.000Z</time>
      </trkpt>
      <trkpt lat="44.01981" lon="6.02587">
        <ele>826</ele>
        <time>2021-12-21T11:19:32.000Z</time>
      </trkpt>
      <trkpt lat="44.01981" lon="6.02586">
        <ele>826</ele>
        <time>2021-12-21T11:19:33.000Z</time>
      </trkpt>
      <trkpt lat="44.01981" lon="6.02586">
        <ele>826</ele>
        <time>2021-12-21T11:19:34.000Z</time>
      </trkpt>
      <trkpt lat="44.01981" lon="6.02586">
        <ele>826</ele>
        <time>2021-12-21T11:19:35.000Z</time>
      </trkpt>
      <trkpt lat="44.01981" lon="6.02586">
        <ele>826</ele>
        <time>2021-12-21T11:19:36.000Z</time>
      </trkpt>
      <trkpt lat="44.01981" lon="6.02586">
        <ele>826</ele>
        <time>2021-12-21T11:19:37.000Z</time>
      </trkpt>
      <trkpt lat="44.01981" lon="6.02586">
        <ele>826</ele>
        <time>2021-12-21T11:19:38.000Z</time>
      </trkpt>
      <trkpt lat="44.01981" lon="6.02586">
        <ele>826</ele>
        <time>2021-12-21T11:19:39.000Z</time>
      </trkpt>
      <trkpt lat="44.01981" lon="6.02586">
        <ele>826</ele>
        <time>2021-12-21T11:19:40.000Z</time>
      </trkpt>
      <trkpt lat="44.01981" lon="6.02586">
        <ele>826</ele>
        <time>2021-12-21T11:19:41.000Z</time>
      </trkpt>
      <trkpt lat="44.01981" lon="6.02586">
        <ele>826</ele>
        <time>2021-12-21T11:19:42.000Z</time>
      </trkpt>
      <trkpt lat="44.01981" lon="6.02586">
        <ele>826</ele>
        <time>2021-12-21T11:19:43.000Z</time>
      </trkpt>
      <trkpt lat="44.01981" lon="6.02586">
        <ele>826</ele>
        <time>2021-12-21T11:19:44.000Z</time>
      </trkpt>
      <trkpt lat="44.01981" lon="6.02586">
        <ele>826</ele>
        <time>2021-12-21T11:19:45.000Z</time>
      </trkpt>
      <trkpt lat="44.01981" lon="6.02586">
        <ele>826</ele>
        <time>2021-12-21T11:19:46.000Z</time>
      </trkpt>
      <trkpt lat="44.01981" lon="6.02586">
        <ele>826</ele>
        <time>2021-12-21T11:19:47.000Z</time>
      </trkpt>
      <trkpt lat="44.01981" lon="6.02586">
        <ele>826</ele>
        <time>2021-12-21T11:19:48.000Z</time>
      </trkpt>
      <trkpt lat="44.01981" lon="6.02586">
        <ele>826</ele>
        <time>2021-12-21T11:19:49.000Z</time>
      </trkpt>
      <trkpt lat="44.01981" lon="6.02586">
        <ele>826</ele>
        <time>2021-12-21T11:19:50.000Z</time>
      </trkpt>
      <trkpt lat="44.01981" lon="6.02586">
        <ele>826</ele>
        <time>2021-12-21T11:19:51.000Z</time>
      </trkpt>
      <trkpt lat="44.01981" lon="6.02586">
        <ele>826</ele>
        <time>2021-12-21T11:19:52.000Z</time>
      </trkpt>
      <trkpt lat="44.01981" lon="6.02586">
        <ele>826</ele>
        <time>2021-12-21T11:19:53.000Z</time>
      </trkpt>
      <trkpt lat="44.01981" lon="6.02586">
        <ele>826</ele>
        <time>2021-12-21T11:19:54.000Z</time>
      </trkpt>
      <trkpt lat="44.01981" lon="6.02586">
        <ele>826</ele>
        <time>2021-12-21T11:19:55.000Z</time>
      </trkpt>
      <trkpt lat="44.01981" lon="6.02586">
        <ele>826</ele>
        <time>2021-12-21T11:19:56.000Z</time>
      </trkpt>
      <trkpt lat="44.01981" lon="6.02586">
        <ele>826</ele>
        <time>2021-12-21T11:19:57.000Z</time>
      </trkpt>
      <trkpt lat="44.01981" lon="6.02586">
        <ele>826</ele>
        <time>2021-12-21T11:19:58.000Z</time>
      </trkpt>
      <trkpt lat="44.01981" lon="6.02586">
        <ele>826</ele>
        <time>2021-12-21T11:19:59.000Z</time>
      </trkpt>
      <trkpt lat="44.01981" lon="6.02586">
        <ele>826</ele>
        <time>2021-12-21T11:20:00.000Z</time>
      </trkpt>
      <trkpt lat="44.01981" lon="6.02586">
        <ele>826</ele>
        <time>2021-12-21T11:20:01.000Z</time>
      </trkpt>
      <trkpt lat="44.01981" lon="6.02586">
        <ele>826</ele>
        <time>2021-12-21T11:20:02.000Z</time>
      </trkpt>
      <trkpt lat="44.01981" lon="6.02586">
        <ele>826</ele>
        <time>2021-12-21T11:20:03.000Z</time>
      </trkpt>
      <trkpt lat="44.01981" lon="6.02586">
        <ele>826</ele>
        <time>2021-12-21T11:20:04.000Z</time>
      </trkpt>
      <trkpt lat="44.01981" lon="6.02586">
        <ele>826</ele>
        <time>2021-12-21T11:20:05.000Z</time>
      </trkpt>
      <trkpt lat="44.01981" lon="6.02586">
        <ele>826</ele>
        <time>2021-12-21T11:20:06.000Z</time>
      </trkpt>
      <trkpt lat="44.01981" lon="6.02586">
        <ele>826</ele>
        <time>2021-12-21T11:20:07.000Z</time>
      </trkpt>
      <trkpt lat="44.01981" lon="6.02586">
        <ele>826</ele>
        <time>2021-12-21T11:20:08.000Z</time>
      </trkpt>
      <trkpt lat="44.01981" lon="6.02586">
        <ele>826</ele>
        <time>2021-12-21T11:20:09.000Z</time>
      </trkpt>
      <trkpt lat="44.01981" lon="6.02586">
        <ele>826</ele>
        <time>2021-12-21T11:20:10.000Z</time>
      </trkpt>
      <trkpt lat="44.01981" lon="6.02586">
        <ele>826</ele>
        <time>2021-12-21T11:20:11.000Z</time>
      </trkpt>
      <trkpt lat="44.01981" lon="6.02586">
        <ele>826</ele>
        <time>2021-12-21T11:20:12.000Z</time>
      </trkpt>
      <trkpt lat="44.01981" lon="6.02586">
        <ele>826</ele>
        <time>2021-12-21T11:20:13.000Z</time>
      </trkpt>
      <trkpt lat="44.01981" lon="6.02586">
        <ele>826</ele>
        <time>2021-12-21T11:20:14.000Z</time>
      </trkpt>
      <trkpt lat="44.01981" lon="6.02586">
        <ele>826</ele>
        <time>2021-12-21T11:20:15.000Z</time>
      </trkpt>
      <trkpt lat="44.01981" lon="6.02586">
        <ele>826</ele>
        <time>2021-12-21T11:20:16.000Z</time>
      </trkpt>
      <trkpt lat="44.01981" lon="6.02586">
        <ele>826</ele>
        <time>2021-12-21T11:20:17.000Z</time>
      </trkpt>
      <trkpt lat="44.01981" lon="6.02586">
        <ele>826</ele>
        <time>2021-12-21T11:20:18.000Z</time>
      </trkpt>
      <trkpt lat="44.01981" lon="6.02586">
        <ele>826</ele>
        <time>2021-12-21T11:20:19.000Z</time>
      </trkpt>
      <trkpt lat="44.01981" lon="6.02586">
        <ele>826</ele>
        <time>2021-12-21T11:20:20.000Z</time>
      </trkpt>
      <trkpt lat="44.01981" lon="6.02586">
        <ele>826</ele>
        <time>2021-12-21T11:20:21.000Z</time>
      </trkpt>
      <trkpt lat="44.01981" lon="6.02586">
        <ele>826</ele>
        <time>2021-12-21T11:20:22.000Z</time>
      </trkpt>
      <trkpt lat="44.01981" lon="6.02586">
        <ele>826</ele>
        <time>2021-12-21T11:20:23.000Z</time>
      </trkpt>
      <trkpt lat="44.01982" lon="6.02585">
        <ele>826</ele>
        <time>2021-12-21T11:20:24.000Z</time>
      </trkpt>
      <trkpt lat="44.01982" lon="6.02584">
        <ele>826</ele>
        <time>2021-12-21T11:20:25.000Z</time>
      </trkpt>
      <trkpt lat="44.01983" lon="6.02583">
        <ele>826</ele>
        <time>2021-12-21T11:20:26.000Z</time>
      </trkpt>
      <trkpt lat="44.01983" lon="6.02582">
        <ele>826</ele>
        <time>2021-12-21T11:20:27.000Z</time>
      </trkpt>
      <trkpt lat="44.01984" lon="6.02581">
        <ele>826</ele>
        <time>2021-12-21T11:20:28.000Z</time>
      </trkpt>
      <trkpt lat="44.01984" lon="6.0258">
        <ele>826</ele>
        <time>2021-12-21T11:20:29.000Z</time>
      </trkpt>
      <trkpt lat="44.01985" lon="6.02579">
        <ele>826</ele>
        <time>2021-12-21T11:20:30.000Z</time>
      </trkpt>
      <trkpt lat="44.01986" lon="6.02577">
        <ele>826</ele>
        <time>2021-12-21T11:20:31.000Z</time>
      </trkpt>
      <trkpt lat="44.01987" lon="6.02576">
        <ele>826</ele>
        <time>2021-12-21T11:20:32.000Z</time>
      </trkpt>
      <trkpt lat="44.01987" lon="6.02575">
        <ele>826</ele>
        <time>2021-12-21T11:20:33.000Z</time>
      </trkpt>
      <trkpt lat="44.01988" lon="6.02574">
        <ele>826</ele>
        <time>2021-12-21T11:20:34.000Z</time>
      </trkpt>
      <trkpt lat="44.01988" lon="6.02573">
        <ele>827</ele>
        <time>2021-12-21T11:20:35.000Z</time>
      </trkpt>
      <trkpt lat="44.01989" lon="6.02571">
        <ele>827</ele>
        <time>2021-12-21T11:20:36.000Z</time>
      </trkpt>
      <trkpt lat="44.0199" lon="6.02569">
        <ele>827</ele>
        <time>2021-12-21T11:20:37.000Z</time>
      </trkpt>
      <trkpt lat="44.0199" lon="6.02568">
        <ele>827</ele>
        <time>2021-12-21T11:20:38.000Z</time>
      </trkpt>
      <trkpt lat="44.01991" lon="6.02567">
        <ele>827</ele>
        <time>2021-12-21T11:20:39.000Z</time>
      </trkpt>
      <trkpt lat="44.01991" lon="6.02565">
        <ele>827</ele>
        <time>2021-12-21T11:20:40.000Z</time>
      </trkpt>
      <trkpt lat="44.01992" lon="6.02564">
        <ele>827</ele>
        <time>2021-12-21T11:20:41.000Z</time>
      </trkpt>
      <trkpt lat="44.01993" lon="6.02563">
        <ele>827</ele>
        <time>2021-12-21T11:20:42.000Z</time>
      </trkpt>
      <trkpt lat="44.01993" lon="6.02561">
        <ele>827</ele>
        <time>2021-12-21T11:20:43.000Z</time>
      </trkpt>
      <trkpt lat="44.01994" lon="6.02559">
        <ele>827</ele>
        <time>2021-12-21T11:20:44.000Z</time>
      </trkpt>
      <trkpt lat="44.01994" lon="6.02558">
        <ele>827</ele>
        <time>2021-12-21T11:20:45.000Z</time>
      </trkpt>
      <trkpt lat="44.01995" lon="6.02557">
        <ele>827</ele>
        <time>2021-12-21T11:20:46.000Z</time>
      </trkpt>
      <trkpt lat="44.01995" lon="6.02556">
        <ele>827</ele>
        <time>2021-12-21T11:20:47.000Z</time>
      </trkpt>
      <trkpt lat="44.01996" lon="6.02554">
        <ele>827</ele>
        <time>2021-12-21T11:20:48.000Z</time>
      </trkpt>
      <trkpt lat="44.01996" lon="6.02553">
        <ele>827</ele>
        <time>2021-12-21T11:20:49.000Z</time>
      </trkpt>
      <trkpt lat="44.01997" lon="6.02551">
        <ele>827</ele>
        <time>2021-12-21T11:20:50.000Z</time>
      </trkpt>
      <trkpt lat="44.01997" lon="6.02549">
        <ele>827</ele>
        <time>2021-12-21T11:20:51.000Z</time>
      </trkpt>
      <trkpt lat="44.01997" lon="6.02548">
        <ele>827</ele>
        <time>2021-12-21T11:20:52.000Z</time>
      </trkpt>
      <trkpt lat="44.01997" lon="6.02546">
        <ele>827</ele>
        <time>2021-12-21T11:20:53.000Z</time>
      </trkpt>
      <trkpt lat="44.01997" lon="6.02545">
        <ele>827</ele>
        <time>2021-12-21T11:20:54.000Z</time>
      </trkpt>
      <trkpt lat="44.01997" lon="6.02543">
        <ele>827</ele>
        <time>2021-12-21T11:20:55.000Z</time>
      </trkpt>
      <trkpt lat="44.01997" lon="6.02541">
        <ele>827</ele>
        <time>2021-12-21T11:20:56.000Z</time>
      </trkpt>
      <trkpt lat="44.01998" lon="6.0254">
        <ele>827</ele>
        <time>2021-12-21T11:20:57.000Z</time>
      </trkpt>
      <trkpt lat="44.01998" lon="6.02538">
        <ele>827</ele>
        <time>2021-12-21T11:20:58.000Z</time>
      </trkpt>
      <trkpt lat="44.01999" lon="6.02537">
        <ele>827</ele>
        <time>2021-12-21T11:20:59.000Z</time>
      </trkpt>
      <trkpt lat="44.01999" lon="6.02536">
        <ele>827</ele>
        <time>2021-12-21T11:21:00.000Z</time>
      </trkpt>
      <trkpt lat="44.01999" lon="6.02534">
        <ele>826</ele>
        <time>2021-12-21T11:21:01.000Z</time>
      </trkpt>
      <trkpt lat="44.01999" lon="6.02533">
        <ele>826</ele>
        <time>2021-12-21T11:21:02.000Z</time>
      </trkpt>
      <trkpt lat="44.01999" lon="6.02532">
        <ele>826</ele>
        <time>2021-12-21T11:21:03.000Z</time>
      </trkpt>
      <trkpt lat="44.01999" lon="6.02531">
        <ele>826</ele>
        <time>2021-12-21T11:21:04.000Z</time>
      </trkpt>
      <trkpt lat="44.01998" lon="6.0253">
        <ele>826</ele>
        <time>2021-12-21T11:21:05.000Z</time>
      </trkpt>
      <trkpt lat="44.01998" lon="6.02529">
        <ele>826</ele>
        <time>2021-12-21T11:21:06.000Z</time>
      </trkpt>
      <trkpt lat="44.01998" lon="6.02529">
        <ele>826</ele>
        <time>2021-12-21T11:21:07.000Z</time>
      </trkpt>
      <trkpt lat="44.01998" lon="6.02529">
        <ele>826</ele>
        <time>2021-12-21T11:21:08.000Z</time>
      </trkpt>
      <trkpt lat="44.01998" lon="6.02529">
        <ele>826</ele>
        <time>2021-12-21T11:21:09.000Z</time>
      </trkpt>
      <trkpt lat="44.01998" lon="6.02529">
        <ele>826</ele>
        <time>2021-12-21T11:21:10.000Z</time>
      </trkpt>
      <trkpt lat="44.01998" lon="6.02529">
        <ele>826</ele>
        <time>2021-12-21T11:21:11.000Z</time>
      </trkpt>
      <trkpt lat="44.01998" lon="6.02529">
        <ele>826</ele>
        <time>2021-12-21T11:21:12.000Z</time>
      </trkpt>
      <trkpt lat="44.01998" lon="6.02529">
        <ele>826</ele>
        <time>2021-12-21T11:21:13.000Z</time>
      </trkpt>
      <trkpt lat="44.01998" lon="6.02529">
        <ele>826</ele>
        <time>2021-12-21T11:21:14.000Z</time>
      </trkpt>
      <trkpt lat="44.01998" lon="6.02529">
        <ele>826</ele>
        <time>2021-12-21T11:21:15.000Z</time>
      </trkpt>
      <trkpt lat="44.01998" lon="6.02529">
        <ele>826</ele>
        <time>2021-12-21T11:21:16.000Z</time>
      </trkpt>
      <trkpt lat="44.01998" lon="6.02529">
        <ele>826</ele>
        <time>2021-12-21T11:21:17.000Z</time>
      </trkpt>
      <trkpt lat="44.01998" lon="6.02529">
        <ele>826</ele>
        <time>2021-12-21T11:21:18.000Z</time>
      </trkpt>
      <trkpt lat="44.01998" lon="6.02529">
        <ele>826</ele>
        <time>2021-12-21T11:21:19.000Z</time>
      </trkpt>
      <trkpt lat="44.01999" lon="6.02528">
        <ele>826</ele>
        <time>2021-12-21T11:21:20.000Z</time>
      </trkpt>
      <trkpt lat="44.01999" lon="6.02528">
        <ele>826</ele>
        <time>2021-12-21T11:21:21.000Z</time>
      </trkpt>
      <trkpt lat="44.01999" lon="6.02529">
        <ele>826</ele>
        <time>2021-12-21T11:21:22.000Z</time>
      </trkpt>
      <trkpt lat="44.01999" lon="6.02529">
        <ele>826</ele>
        <time>2021-12-21T11:21:23.000Z</time>
      </trkpt>
      <trkpt lat="44.01999" lon="6.02529">
        <ele>826</ele>
        <time>2021-12-21T11:21:24.000Z</time>
      </trkpt>
      <trkpt lat="44.01999" lon="6.02529">
        <ele>825</ele>
        <time>2021-12-21T11:21:25.000Z</time>
      </trkpt>
      <trkpt lat="44.01999" lon="6.02529">
        <ele>825</ele>
        <time>2021-12-21T11:21:26.000Z</time>
      </trkpt>
      <trkpt lat="44.01999" lon="6.02529">
        <ele>825</ele>
        <time>2021-12-21T11:21:27.000Z</time>
      </trkpt>
      <trkpt lat="44.01999" lon="6.02529">
        <ele>825</ele>
        <time>2021-12-21T11:21:28.000Z</time>
      </trkpt>
      <trkpt lat="44.01999" lon="6.02529">
        <ele>825</ele>
        <time>2021-12-21T11:21:29.000Z</time>
      </trkpt>
      <trkpt lat="44.01999" lon="6.02529">
        <ele>825</ele>
        <time>2021-12-21T11:21:30.000Z</time>
      </trkpt>
      <trkpt lat="44.01999" lon="6.02529">
        <ele>825</ele>
        <time>2021-12-21T11:21:31.000Z</time>
      </trkpt>
      <trkpt lat="44.01999" lon="6.02529">
        <ele>825</ele>
        <time>2021-12-21T11:21:32.000Z</time>
      </trkpt>
      <trkpt lat="44.01999" lon="6.02529">
        <ele>825</ele>
        <time>2021-12-21T11:21:33.000Z</time>
      </trkpt>
      <trkpt lat="44.01999" lon="6.02529">
        <ele>825</ele>
        <time>2021-12-21T11:21:34.000Z</time>
      </trkpt>
      <trkpt lat="44.01999" lon="6.02529">
        <ele>825</ele>
        <time>2021-12-21T11:21:35.000Z</time>
      </trkpt>
      <trkpt lat="44.01999" lon="6.02529">
        <ele>825</ele>
        <time>2021-12-21T11:21:36.000Z</time>
      </trkpt>
      <trkpt lat="44.01999" lon="6.02529">
        <ele>825</ele>
        <time>2021-12-21T11:21:37.000Z</time>
      </trkpt>
      <trkpt lat="44.01999" lon="6.02529">
        <ele>825</ele>
        <time>2021-12-21T11:21:38.000Z</time>
      </trkpt>
      <trkpt lat="44.01999" lon="6.02529">
        <ele>825</ele>
        <time>2021-12-21T11:21:39.000Z</time>
      </trkpt>
      <trkpt lat="44.01999" lon="6.02529">
        <ele>825</ele>
        <time>2021-12-21T11:21:40.000Z</time>
      </trkpt>
      <trkpt lat="44.01999" lon="6.02529">
        <ele>825</ele>
        <time>2021-12-21T11:21:41.000Z</time>
      </trkpt>
      <trkpt lat="44.01999" lon="6.02529">
        <ele>825</ele>
        <time>2021-12-21T11:21:42.000Z</time>
      </trkpt>
      <trkpt lat="44.01999" lon="6.02529">
        <ele>825</ele>
        <time>2021-12-21T11:21:43.000Z</time>
      </trkpt>
      <trkpt lat="44.01999" lon="6.02529">
        <ele>825</ele>
        <time>2021-12-21T11:21:44.000Z</time>
      </trkpt>
      <trkpt lat="44.01999" lon="6.02529">
        <ele>825</ele>
        <time>2021-12-21T11:21:45.000Z</time>
      </trkpt>
      <trkpt lat="44.01999" lon="6.02529">
        <ele>825</ele>
        <time>2021-12-21T11:21:46.000Z</time>
      </trkpt>
      <trkpt lat="44.01999" lon="6.02529">
        <ele>825</ele>
        <time>2021-12-21T11:21:47.000Z</time>
      </trkpt>
      <trkpt lat="44.01999" lon="6.02529">
        <ele>826</ele>
        <time>2021-12-21T11:21:48.000Z</time>
      </trkpt>
      <trkpt lat="44.01999" lon="6.0253">
        <ele>825</ele>
        <time>2021-12-21T11:21:49.000Z</time>
      </trkpt>
      <trkpt lat="44.01999" lon="6.0253">
        <ele>825</ele>
        <time>2021-12-21T11:21:50.000Z</time>
      </trkpt>
      <trkpt lat="44.01998" lon="6.0253">
        <ele>825</ele>
        <time>2021-12-21T11:21:51.000Z</time>
      </trkpt>
      <trkpt lat="44.01998" lon="6.0253">
        <ele>825</ele>
        <time>2021-12-21T11:21:52.000Z</time>
      </trkpt>
      <trkpt lat="44.01999" lon="6.0253">
        <ele>825</ele>
        <time>2021-12-21T11:21:53.000Z</time>
      </trkpt>
      <trkpt lat="44.01999" lon="6.0253">
        <ele>826</ele>
        <time>2021-12-21T11:21:54.000Z</time>
      </trkpt>
      <trkpt lat="44.01999" lon="6.0253">
        <ele>826</ele>
        <time>2021-12-21T11:21:55.000Z</time>
      </trkpt>
      <trkpt lat="44.01999" lon="6.0253">
        <ele>826</ele>
        <time>2021-12-21T11:21:56.000Z</time>
      </trkpt>
      <trkpt lat="44.01999" lon="6.0253">
        <ele>826</ele>
        <time>2021-12-21T11:21:57.000Z</time>
      </trkpt>
      <trkpt lat="44.01999" lon="6.0253">
        <ele>826</ele>
        <time>2021-12-21T11:21:58.000Z</time>
      </trkpt>
      <trkpt lat="44.01999" lon="6.0253">
        <ele>826</ele>
        <time>2021-12-21T11:21:59.000Z</time>
      </trkpt>
      <trkpt lat="44.01999" lon="6.0253">
        <ele>826</ele>
        <time>2021-12-21T11:22:00.000Z</time>
      </trkpt>
      <trkpt lat="44.01998" lon="6.0253">
        <ele>826</ele>
        <time>2021-12-21T11:22:01.000Z</time>
      </trkpt>
      <trkpt lat="44.01999" lon="6.0253">
        <ele>826</ele>
        <time>2021-12-21T11:22:02.000Z</time>
      </trkpt>
      <trkpt lat="44.01999" lon="6.0253">
        <ele>826</ele>
        <time>2021-12-21T11:22:03.000Z</time>
      </trkpt>
      <trkpt lat="44.01999" lon="6.0253">
        <ele>826</ele>
        <time>2021-12-21T11:22:04.000Z</time>
      </trkpt>
      <trkpt lat="44.01999" lon="6.0253">
        <ele>826</ele>
        <time>2021-12-21T11:22:05.000Z</time>
      </trkpt>
      <trkpt lat="44.01999" lon="6.0253">
        <ele>826</ele>
        <time>2021-12-21T11:22:06.000Z</time>
      </trkpt>
      <trkpt lat="44.01999" lon="6.0253">
        <ele>826</ele>
        <time>2021-12-21T11:22:07.000Z</time>
      </trkpt>
      <trkpt lat="44.01999" lon="6.0253">
        <ele>826</ele>
        <time>2021-12-21T11:22:08.000Z</time>
      </trkpt>
      <trkpt lat="44.01999" lon="6.0253">
        <ele>826</ele>
        <time>2021-12-21T11:22:09.000Z</time>
      </trkpt>
      <trkpt lat="44.01999" lon="6.0253">
        <ele>826</ele>
        <time>2021-12-21T11:22:10.000Z</time>
      </trkpt>
      <trkpt lat="44.01999" lon="6.0253">
        <ele>826</ele>
        <time>2021-12-21T11:22:11.000Z</time>
      </trkpt>
      <trkpt lat="44.01999" lon="6.0253">
        <ele>826</ele>
        <time>2021-12-21T11:22:12.000Z</time>
      </trkpt>
      <trkpt lat="44.01999" lon="6.0253">
        <ele>826</ele>
        <time>2021-12-21T11:22:13.000Z</time>
      </trkpt>
      <trkpt lat="44.01999" lon="6.0253">
        <ele>826</ele>
        <time>2021-12-21T11:22:14.000Z</time>
      </trkpt>
      <trkpt lat="44.01999" lon="6.0253">
        <ele>826</ele>
        <time>2021-12-21T11:22:15.000Z</time>
      </trkpt>
      <trkpt lat="44.01999" lon="6.0253">
        <ele>826</ele>
        <time>2021-12-21T11:22:16.000Z</time>
      </trkpt>
      <trkpt lat="44.01999" lon="6.0253">
        <ele>826</ele>
        <time>2021-12-21T11:22:17.000Z</time>
      </trkpt>
      <trkpt lat="44.01999" lon="6.0253">
        <ele>826</ele>
        <time>2021-12-21T11:22:18.000Z</time>
      </trkpt>
      <trkpt lat="44.01999" lon="6.0253">
        <ele>826</ele>
        <time>2021-12-21T11:22:19.000Z</time>
      </trkpt>
      <trkpt lat="44.01999" lon="6.0253">
        <ele>826</ele>
        <time>2021-12-21T11:22:20.000Z</time>
      </trkpt>
      <trkpt lat="44.01999" lon="6.0253">
        <ele>826</ele>
        <time>2021-12-21T11:22:21.000Z</time>
      </trkpt>
      <trkpt lat="44.01999" lon="6.0253">
        <ele>826</ele>
        <time>2021-12-21T11:22:22.000Z</time>
      </trkpt>
      <trkpt lat="44.01999" lon="6.0253">
        <ele>826</ele>
        <time>2021-12-21T11:22:23.000Z</time>
      </trkpt>
      <trkpt lat="44.01999" lon="6.0253">
        <ele>826</ele>
        <time>2021-12-21T11:22:24.000Z</time>
      </trkpt>
      <trkpt lat="44.01999" lon="6.0253">
        <ele>826</ele>
        <time>2021-12-21T11:22:25.000Z</time>
      </trkpt>
      <trkpt lat="44.01999" lon="6.0253">
        <ele>826</ele>
        <time>2021-12-21T11:22:26.000Z</time>
      </trkpt>
      <trkpt lat="44.01999" lon="6.0253">
        <ele>826</ele>
        <time>2021-12-21T11:22:27.000Z</time>
      </trkpt>
      <trkpt lat="44.01999" lon="6.0253">
        <ele>826</ele>
        <time>2021-12-21T11:22:28.000Z</time>
      </trkpt>
      <trkpt lat="44.01999" lon="6.0253">
        <ele>826</ele>
        <time>2021-12-21T11:22:29.000Z</time>
      </trkpt>
      <trkpt lat="44.01999" lon="6.0253">
        <ele>826</ele>
        <time>2021-12-21T11:22:30.000Z</time>
      </trkpt>
      <trkpt lat="44.01999" lon="6.0253">
        <ele>826</ele>
        <time>2021-12-21T11:22:31.000Z</time>
      </trkpt>
      <trkpt lat="44.01999" lon="6.0253">
        <ele>826</ele>
        <time>2021-12-21T11:22:32.000Z</time>
      </trkpt>
      <trkpt lat="44.01999" lon="6.0253">
        <ele>826</ele>
        <time>2021-12-21T11:22:33.000Z</time>
      </trkpt>
      <trkpt lat="44.01999" lon="6.0253">
        <ele>826</ele>
        <time>2021-12-21T11:22:34.000Z</time>
      </trkpt>
      <trkpt lat="44.01999" lon="6.0253">
        <ele>826</ele>
        <time>2021-12-21T11:22:35.000Z</time>
      </trkpt>
      <trkpt lat="44.01999" lon="6.0253">
        <ele>826</ele>
        <time>2021-12-21T11:22:36.000Z</time>
      </trkpt>
      <trkpt lat="44.01999" lon="6.0253">
        <ele>826</ele>
        <time>2021-12-21T11:22:37.000Z</time>
      </trkpt>
      <trkpt lat="44.01999" lon="6.0253">
        <ele>826</ele>
        <time>2021-12-21T11:22:38.000Z</time>
      </trkpt>
      <trkpt lat="44.01998" lon="6.0253">
        <ele>826</ele>
        <time>2021-12-21T11:22:39.000Z</time>
      </trkpt>
      <trkpt lat="44.01998" lon="6.0253">
        <ele>826</ele>
        <time>2021-12-21T11:22:40.000Z</time>
      </trkpt>
      <trkpt lat="44.01998" lon="6.02531">
        <ele>826</ele>
        <time>2021-12-21T11:22:41.000Z</time>
      </trkpt>
      <trkpt lat="44.01998" lon="6.0253">
        <ele>826</ele>
        <time>2021-12-21T11:22:42.000Z</time>
      </trkpt>
      <trkpt lat="44.01998" lon="6.0253">
        <ele>826</ele>
        <time>2021-12-21T11:22:43.000Z</time>
      </trkpt>
      <trkpt lat="44.01998" lon="6.0253">
        <ele>826</ele>
        <time>2021-12-21T11:22:44.000Z</time>
      </trkpt>
      <trkpt lat="44.01998" lon="6.0253">
        <ele>826</ele>
        <time>2021-12-21T11:22:45.000Z</time>
      </trkpt>
      <trkpt lat="44.01998" lon="6.02531">
        <ele>826</ele>
        <time>2021-12-21T11:22:46.000Z</time>
      </trkpt>
      <trkpt lat="44.01998" lon="6.02531">
        <ele>826</ele>
        <time>2021-12-21T11:22:47.000Z</time>
      </trkpt>
      <trkpt lat="44.01998" lon="6.02531">
        <ele>826</ele>
        <time>2021-12-21T11:22:48.000Z</time>
      </trkpt>
      <trkpt lat="44.01998" lon="6.02531">
        <ele>826</ele>
        <time>2021-12-21T11:22:49.000Z</time>
      </trkpt>
      <trkpt lat="44.01997" lon="6.02531">
        <ele>826</ele>
        <time>2021-12-21T11:22:50.000Z</time>
      </trkpt>
      <trkpt lat="44.01997" lon="6.02531">
        <ele>826</ele>
        <time>2021-12-21T11:22:51.000Z</time>
      </trkpt>
      <trkpt lat="44.01998" lon="6.02531">
        <ele>826</ele>
        <time>2021-12-21T11:22:52.000Z</time>
      </trkpt>
      <trkpt lat="44.01997" lon="6.02531">
        <ele>826</ele>
        <time>2021-12-21T11:22:53.000Z</time>
      </trkpt>
      <trkpt lat="44.01997" lon="6.02531">
        <ele>826</ele>
        <time>2021-12-21T11:22:54.000Z</time>
      </trkpt>
      <trkpt lat="44.01997" lon="6.02531">
        <ele>826</ele>
        <time>2021-12-21T11:22:55.000Z</time>
      </trkpt>
      <trkpt lat="44.01997" lon="6.02531">
        <ele>826</ele>
        <time>2021-12-21T11:22:56.000Z</time>
      </trkpt>
      <trkpt lat="44.01997" lon="6.02531">
        <ele>826</ele>
        <time>2021-12-21T11:22:57.000Z</time>
      </trkpt>
      <trkpt lat="44.01997" lon="6.02531">
        <ele>825</ele>
        <time>2021-12-21T11:22:58.000Z</time>
      </trkpt>
      <trkpt lat="44.01997" lon="6.02531">
        <ele>825</ele>
        <time>2021-12-21T11:22:59.000Z</time>
      </trkpt>
      <trkpt lat="44.01998" lon="6.02531">
        <ele>825</ele>
        <time>2021-12-21T11:23:00.000Z</time>
      </trkpt>
      <trkpt lat="44.01998" lon="6.02531">
        <ele>825</ele>
        <time>2021-12-21T11:23:01.000Z</time>
      </trkpt>
      <trkpt lat="44.01998" lon="6.02531">
        <ele>825</ele>
        <time>2021-12-21T11:23:02.000Z</time>
      </trkpt>
      <trkpt lat="44.01998" lon="6.02531">
        <ele>825</ele>
        <time>2021-12-21T11:23:03.000Z</time>
      </trkpt>
      <trkpt lat="44.01998" lon="6.0253">
        <ele>825</ele>
        <time>2021-12-21T11:23:04.000Z</time>
      </trkpt>
      <trkpt lat="44.01997" lon="6.02531">
        <ele>825</ele>
        <time>2021-12-21T11:23:05.000Z</time>
      </trkpt>
      <trkpt lat="44.01998" lon="6.02531">
        <ele>825</ele>
        <time>2021-12-21T11:23:06.000Z</time>
      </trkpt>
      <trkpt lat="44.01998" lon="6.0253">
        <ele>825</ele>
        <time>2021-12-21T11:23:07.000Z</time>
      </trkpt>
      <trkpt lat="44.01998" lon="6.0253">
        <ele>825</ele>
        <time>2021-12-21T11:23:08.000Z</time>
      </trkpt>
      <trkpt lat="44.01998" lon="6.02531">
        <ele>825</ele>
        <time>2021-12-21T11:23:09.000Z</time>
      </trkpt>
      <trkpt lat="44.01998" lon="6.0253">
        <ele>825</ele>
        <time>2021-12-21T11:23:10.000Z</time>
      </trkpt>
      <trkpt lat="44.01998" lon="6.0253">
        <ele>825</ele>
        <time>2021-12-21T11:23:11.000Z</time>
      </trkpt>
      <trkpt lat="44.01998" lon="6.0253">
        <ele>825</ele>
        <time>2021-12-21T11:23:12.000Z</time>
      </trkpt>
      <trkpt lat="44.01998" lon="6.0253">
        <ele>825</ele>
        <time>2021-12-21T11:23:13.000Z</time>
      </trkpt>
      <trkpt lat="44.01998" lon="6.0253">
        <ele>825</ele>
        <time>2021-12-21T11:23:14.000Z</time>
      </trkpt>
      <trkpt lat="44.01998" lon="6.0253">
        <ele>825</ele>
        <time>2021-12-21T11:23:15.000Z</time>
      </trkpt>
      <trkpt lat="44.01998" lon="6.02531">
        <ele>825</ele>
        <time>2021-12-21T11:23:16.000Z</time>
      </trkpt>
      <trkpt lat="44.01998" lon="6.0253">
        <ele>825</ele>
        <time>2021-12-21T11:23:17.000Z</time>
      </trkpt>
      <trkpt lat="44.01998" lon="6.0253">
        <ele>825</ele>
        <time>2021-12-21T11:23:18.000Z</time>
      </trkpt>
      <trkpt lat="44.01998" lon="6.0253">
        <ele>825</ele>
        <time>2021-12-21T11:23:19.000Z</time>
      </trkpt>
      <trkpt lat="44.01998" lon="6.0253">
        <ele>825</ele>
        <time>2021-12-21T11:23:20.000Z</time>
      </trkpt>
      <trkpt lat="44.01998" lon="6.0253">
        <ele>825</ele>
        <time>2021-12-21T11:23:21.000Z</time>
      </trkpt>
      <trkpt lat="44.01998" lon="6.0253">
        <ele>825</ele>
        <time>2021-12-21T11:23:22.000Z</time>
      </trkpt>
      <trkpt lat="44.01998" lon="6.0253">
        <ele>825</ele>
        <time>2021-12-21T11:23:23.000Z</time>
      </trkpt>
      <trkpt lat="44.01998" lon="6.0253">
        <ele>825</ele>
        <time>2021-12-21T11:23:24.000Z</time>
      </trkpt>
      <trkpt lat="44.01998" lon="6.02531">
        <ele>825</ele>
        <time>2021-12-21T11:23:25.000Z</time>
      </trkpt>
      <trkpt lat="44.01998" lon="6.02531">
        <ele>825</ele>
        <time>2021-12-21T11:23:26.000Z</time>
      </trkpt>
      <trkpt lat="44.01998" lon="6.0253">
        <ele>825</ele>
        <time>2021-12-21T11:23:27.000Z</time>
      </trkpt>
      <trkpt lat="44.01998" lon="6.0253">
        <ele>825</ele>
        <time>2021-12-21T11:23:28.000Z</time>
      </trkpt>
      <trkpt lat="44.01998" lon="6.0253">
        <ele>825</ele>
        <time>2021-12-21T11:23:29.000Z</time>
      </trkpt>
      <trkpt lat="44.01998" lon="6.0253">
        <ele>825</ele>
        <time>2021-12-21T11:23:30.000Z</time>
      </trkpt>
      <trkpt lat="44.01998" lon="6.0253">
        <ele>825</ele>
        <time>2021-12-21T11:23:31.000Z</time>
      </trkpt>
      <trkpt lat="44.01998" lon="6.0253">
        <ele>825</ele>
        <time>2021-12-21T11:23:32.000Z</time>
      </trkpt>
      <trkpt lat="44.01998" lon="6.0253">
        <ele>825</ele>
        <time>2021-12-21T11:23:33.000Z</time>
      </trkpt>
      <trkpt lat="44.01998" lon="6.0253">
        <ele>825</ele>
        <time>2021-12-21T11:23:34.000Z</time>
      </trkpt>
      <trkpt lat="44.01998" lon="6.0253">
        <ele>825</ele>
        <time>2021-12-21T11:23:35.000Z</time>
      </trkpt>
      <trkpt lat="44.01998" lon="6.0253">
        <ele>825</ele>
        <time>2021-12-21T11:23:36.000Z</time>
      </trkpt>
      <trkpt lat="44.01998" lon="6.0253">
        <ele>825</ele>
        <time>2021-12-21T11:23:37.000Z</time>
      </trkpt>
      <trkpt lat="44.01998" lon="6.0253">
        <ele>825</ele>
        <time>2021-12-21T11:23:38.000Z</time>
      </trkpt>
      <trkpt lat="44.01998" lon="6.0253">
        <ele>825</ele>
        <time>2021-12-21T11:23:39.000Z</time>
      </trkpt>
      <trkpt lat="44.01998" lon="6.0253">
        <ele>825</ele>
        <time>2021-12-21T11:23:40.000Z</time>
      </trkpt>
      <trkpt lat="44.01998" lon="6.0253">
        <ele>825</ele>
        <time>2021-12-21T11:23:41.000Z</time>
      </trkpt>
      <trkpt lat="44.01998" lon="6.0253">
        <ele>825</ele>
        <time>2021-12-21T11:23:42.000Z</time>
      </trkpt>
      <trkpt lat="44.01998" lon="6.0253">
        <ele>825</ele>
        <time>2021-12-21T11:23:43.000Z</time>
      </trkpt>
      <trkpt lat="44.01998" lon="6.0253">
        <ele>825</ele>
        <time>2021-12-21T11:23:44.000Z</time>
      </trkpt>
      <trkpt lat="44.01998" lon="6.0253">
        <ele>825</ele>
        <time>2021-12-21T11:23:45.000Z</time>
      </trkpt>
      <trkpt lat="44.01998" lon="6.0253">
        <ele>825</ele>
        <time>2021-12-21T11:23:46.000Z</time>
      </trkpt>
      <trkpt lat="44.01998" lon="6.0253">
        <ele>825</ele>
        <time>2021-12-21T11:23:47.000Z</time>
      </trkpt>
      <trkpt lat="44.01998" lon="6.0253">
        <ele>825</ele>
        <time>2021-12-21T11:23:48.000Z</time>
      </trkpt>
      <trkpt lat="44.01998" lon="6.0253">
        <ele>825</ele>
        <time>2021-12-21T11:23:49.000Z</time>
      </trkpt>
      <trkpt lat="44.01998" lon="6.0253">
        <ele>825</ele>
        <time>2021-12-21T11:23:50.000Z</time>
      </trkpt>
      <trkpt lat="44.01998" lon="6.0253">
        <ele>825</ele>
        <time>2021-12-21T11:23:51.000Z</time>
      </trkpt>
      <trkpt lat="44.01998" lon="6.0253">
        <ele>825</ele>
        <time>2021-12-21T11:23:52.000Z</time>
      </trkpt>
      <trkpt lat="44.01998" lon="6.0253">
        <ele>825</ele>
        <time>2021-12-21T11:23:53.000Z</time>
      </trkpt>
      <trkpt lat="44.01998" lon="6.0253">
        <ele>825</ele>
        <time>2021-12-21T11:23:54.000Z</time>
      </trkpt>
      <trkpt lat="44.01998" lon="6.0253">
        <ele>824</ele>
        <time>2021-12-21T11:23:55.000Z</time>
      </trkpt>
      <trkpt lat="44.01998" lon="6.0253">
        <ele>824</ele>
        <time>2021-12-21T11:23:56.000Z</time>
      </trkpt>
      <trkpt lat="44.01998" lon="6.0253">
        <ele>824</ele>
        <time>2021-12-21T11:23:57.000Z</time>
      </trkpt>
      <trkpt lat="44.01998" lon="6.0253">
        <ele>824</ele>
        <time>2021-12-21T11:23:58.000Z</time>
      </trkpt>
      <trkpt lat="44.01998" lon="6.0253">
        <ele>824</ele>
        <time>2021-12-21T11:23:59.000Z</time>
      </trkpt>
      <trkpt lat="44.01998" lon="6.0253">
        <ele>824</ele>
        <time>2021-12-21T11:24:00.000Z</time>
      </trkpt>
      <trkpt lat="44.01998" lon="6.0253">
        <ele>824</ele>
        <time>2021-12-21T11:24:01.000Z</time>
      </trkpt>
      <trkpt lat="44.01998" lon="6.0253">
        <ele>824</ele>
        <time>2021-12-21T11:24:02.000Z</time>
      </trkpt>
      <trkpt lat="44.01998" lon="6.0253">
        <ele>824</ele>
        <time>2021-12-21T11:24:03.000Z</time>
      </trkpt>
      <trkpt lat="44.01998" lon="6.0253">
        <ele>824</ele>
        <time>2021-12-21T11:24:04.000Z</time>
      </trkpt>
      <trkpt lat="44.01998" lon="6.0253">
        <ele>824</ele>
        <time>2021-12-21T11:24:05.000Z</time>
      </trkpt>
      <trkpt lat="44.01998" lon="6.0253">
        <ele>824</ele>
        <time>2021-12-21T11:24:06.000Z</time>
      </trkpt>
      <trkpt lat="44.01998" lon="6.0253">
        <ele>824</ele>
        <time>2021-12-21T11:24:07.000Z</time>
      </trkpt>
      <trkpt lat="44.01998" lon="6.0253">
        <ele>824</ele>
        <time>2021-12-21T11:24:08.000Z</time>
      </trkpt>
      <trkpt lat="44.01998" lon="6.0253">
        <ele>824</ele>
        <time>2021-12-21T11:24:09.000Z</time>
      </trkpt>
      <trkpt lat="44.01998" lon="6.0253">
        <ele>824</ele>
        <time>2021-12-21T11:24:10.000Z</time>
      </trkpt>
      <trkpt lat="44.01998" lon="6.0253">
        <ele>824</ele>
        <time>2021-12-21T11:24:11.000Z</time>
      </trkpt>
      <trkpt lat="44.01998" lon="6.0253">
        <ele>824</ele>
        <time>2021-12-21T11:24:12.000Z</time>
      </trkpt>
      <trkpt lat="44.01998" lon="6.0253">
        <ele>824</ele>
        <time>2021-12-21T11:24:13.000Z</time>
      </trkpt>
      <trkpt lat="44.01998" lon="6.0253">
        <ele>824</ele>
        <time>2021-12-21T11:24:14.000Z</time>
      </trkpt>
      <trkpt lat="44.01998" lon="6.0253">
        <ele>824</ele>
        <time>2021-12-21T11:24:15.000Z</time>
      </trkpt>
      <trkpt lat="44.01998" lon="6.0253">
        <ele>824</ele>
        <time>2021-12-21T11:24:16.000Z</time>
      </trkpt>
      <trkpt lat="44.01998" lon="6.02531">
        <ele>824</ele>
        <time>2021-12-21T11:24:17.000Z</time>
      </trkpt>
      <trkpt lat="44.01998" lon="6.02531">
        <ele>824</ele>
        <time>2021-12-21T11:24:18.000Z</time>
      </trkpt>
      <trkpt lat="44.01998" lon="6.02531">
        <ele>824</ele>
        <time>2021-12-21T11:24:19.000Z</time>
      </trkpt>
      <trkpt lat="44.01998" lon="6.02531">
        <ele>824</ele>
        <time>2021-12-21T11:24:20.000Z</time>
      </trkpt>
      <trkpt lat="44.01998" lon="6.02531">
        <ele>824</ele>
        <time>2021-12-21T11:24:21.000Z</time>
      </trkpt>
      <trkpt lat="44.01998" lon="6.02531">
        <ele>824</ele>
        <time>2021-12-21T11:24:22.000Z</time>
      </trkpt>
      <trkpt lat="44.01998" lon="6.02531">
        <ele>824</ele>
        <time>2021-12-21T11:24:23.000Z</time>
      </trkpt>
      <trkpt lat="44.01998" lon="6.02531">
        <ele>824</ele>
        <time>2021-12-21T11:24:24.000Z</time>
      </trkpt>
      <trkpt lat="44.01998" lon="6.02531">
        <ele>824</ele>
        <time>2021-12-21T11:24:25.000Z</time>
      </trkpt>
      <trkpt lat="44.01998" lon="6.02531">
        <ele>824</ele>
        <time>2021-12-21T11:24:26.000Z</time>
      </trkpt>
      <trkpt lat="44.01998" lon="6.02531">
        <ele>824</ele>
        <time>2021-12-21T11:24:27.000Z</time>
      </trkpt>
      <trkpt lat="44.01998" lon="6.02531">
        <ele>824</ele>
        <time>2021-12-21T11:24:28.000Z</time>
      </trkpt>
      <trkpt lat="44.01998" lon="6.02531">
        <ele>824</ele>
        <time>2021-12-21T11:24:29.000Z</time>
      </trkpt>
      <trkpt lat="44.01998" lon="6.02531">
        <ele>824</ele>
        <time>2021-12-21T11:24:30.000Z</time>
      </trkpt>
      <trkpt lat="44.01998" lon="6.02531">
        <ele>824</ele>
        <time>2021-12-21T11:24:31.000Z</time>
      </trkpt>
      <trkpt lat="44.01998" lon="6.02531">
        <ele>824</ele>
        <time>2021-12-21T11:24:32.000Z</time>
      </trkpt>
      <trkpt lat="44.01998" lon="6.02531">
        <ele>824</ele>
        <time>2021-12-21T11:24:33.000Z</time>
      </trkpt>
      <trkpt lat="44.01998" lon="6.02531">
        <ele>824</ele>
        <time>2021-12-21T11:24:34.000Z</time>
      </trkpt>
      <trkpt lat="44.01998" lon="6.02531">
        <ele>824</ele>
        <time>2021-12-21T11:24:35.000Z</time>
      </trkpt>
      <trkpt lat="44.01998" lon="6.02531">
        <ele>824</ele>
        <time>2021-12-21T11:24:36.000Z</time>
      </trkpt>
      <trkpt lat="44.01998" lon="6.02531">
        <ele>824</ele>
        <time>2021-12-21T11:24:37.000Z</time>
      </trkpt>
      <trkpt lat="44.01998" lon="6.02531">
        <ele>824</ele>
        <time>2021-12-21T11:24:38.000Z</time>
      </trkpt>
      <trkpt lat="44.01998" lon="6.02531">
        <ele>824</ele>
        <time>2021-12-21T11:24:39.000Z</time>
      </trkpt>
      <trkpt lat="44.01998" lon="6.02531">
        <ele>824</ele>
        <time>2021-12-21T11:24:40.000Z</time>
      </trkpt>
      <trkpt lat="44.01998" lon="6.02531">
        <ele>824</ele>
        <time>2021-12-21T11:24:41.000Z</time>
      </trkpt>
      <trkpt lat="44.01998" lon="6.02531">
        <ele>824</ele>
        <time>2021-12-21T11:24:42.000Z</time>
      </trkpt>
      <trkpt lat="44.01998" lon="6.02531">
        <ele>824</ele>
        <time>2021-12-21T11:24:43.000Z</time>
      </trkpt>
      <trkpt lat="44.01998" lon="6.02531">
        <ele>824</ele>
        <time>2021-12-21T11:24:44.000Z</time>
      </trkpt>
      <trkpt lat="44.01998" lon="6.02531">
        <ele>824</ele>
        <time>2021-12-21T11:24:45.000Z</time>
      </trkpt>
      <trkpt lat="44.01998" lon="6.0253">
        <ele>824</ele>
        <time>2021-12-21T11:24:46.000Z</time>
      </trkpt>
      <trkpt lat="44.01998" lon="6.0253">
        <ele>824</ele>
        <time>2021-12-21T11:24:47.000Z</time>
      </trkpt>
      <trkpt lat="44.01998" lon="6.0253">
        <ele>824</ele>
        <time>2021-12-21T11:24:48.000Z</time>
      </trkpt>
      <trkpt lat="44.01998" lon="6.0253">
        <ele>824</ele>
        <time>2021-12-21T11:24:49.000Z</time>
      </trkpt>
      <trkpt lat="44.01999" lon="6.02531">
        <ele>824</ele>
        <time>2021-12-21T11:24:50.000Z</time>
      </trkpt>
      <trkpt lat="44.01999" lon="6.02531">
        <ele>824</ele>
        <time>2021-12-21T11:24:51.000Z</time>
      </trkpt>
      <trkpt lat="44.01999" lon="6.02531">
        <ele>824</ele>
        <time>2021-12-21T11:24:52.000Z</time>
      </trkpt>
      <trkpt lat="44.01999" lon="6.02531">
        <ele>824</ele>
        <time>2021-12-21T11:24:53.000Z</time>
      </trkpt>
      <trkpt lat="44.01999" lon="6.02531">
        <ele>824</ele>
        <time>2021-12-21T11:24:54.000Z</time>
      </trkpt>
      <trkpt lat="44.01999" lon="6.02531">
        <ele>824</ele>
        <time>2021-12-21T11:24:55.000Z</time>
      </trkpt>
      <trkpt lat="44.01999" lon="6.02531">
        <ele>824</ele>
        <time>2021-12-21T11:24:56.000Z</time>
      </trkpt>
      <trkpt lat="44.02" lon="6.02531">
        <ele>824</ele>
        <time>2021-12-21T11:24:57.000Z</time>
      </trkpt>
      <trkpt lat="44.02" lon="6.02532">
        <ele>824</ele>
        <time>2021-12-21T11:24:58.000Z</time>
      </trkpt>
      <trkpt lat="44.02" lon="6.02533">
        <ele>824</ele>
        <time>2021-12-21T11:24:59.000Z</time>
      </trkpt>
      <trkpt lat="44.02" lon="6.02534">
        <ele>824</ele>
        <time>2021-12-21T11:25:00.000Z</time>
      </trkpt>
      <trkpt lat="44.02001" lon="6.02534">
        <ele>824</ele>
        <time>2021-12-21T11:25:01.000Z</time>
      </trkpt>
      <trkpt lat="44.02001" lon="6.02534">
        <ele>824</ele>
        <time>2021-12-21T11:25:02.000Z</time>
      </trkpt>
      <trkpt lat="44.02001" lon="6.02535">
        <ele>824</ele>
        <time>2021-12-21T11:25:03.000Z</time>
      </trkpt>
      <trkpt lat="44.02002" lon="6.02535">
        <ele>824</ele>
        <time>2021-12-21T11:25:04.000Z</time>
      </trkpt>
      <trkpt lat="44.02002" lon="6.02535">
        <ele>824</ele>
        <time>2021-12-21T11:25:05.000Z</time>
      </trkpt>
      <trkpt lat="44.02002" lon="6.02535">
        <ele>824</ele>
        <time>2021-12-21T11:25:06.000Z</time>
      </trkpt>
      <trkpt lat="44.02002" lon="6.02535">
        <ele>824</ele>
        <time>2021-12-21T11:25:07.000Z</time>
      </trkpt>
      <trkpt lat="44.02002" lon="6.02535">
        <ele>824</ele>
        <time>2021-12-21T11:25:08.000Z</time>
      </trkpt>
      <trkpt lat="44.02002" lon="6.02534">
        <ele>824</ele>
        <time>2021-12-21T11:25:09.000Z</time>
      </trkpt>
      <trkpt lat="44.02002" lon="6.02534">
        <ele>824</ele>
        <time>2021-12-21T11:25:10.000Z</time>
      </trkpt>
      <trkpt lat="44.02002" lon="6.02534">
        <ele>824</ele>
        <time>2021-12-21T11:25:11.000Z</time>
      </trkpt>
      <trkpt lat="44.02002" lon="6.02534">
        <ele>824</ele>
        <time>2021-12-21T11:25:12.000Z</time>
      </trkpt>
      <trkpt lat="44.02002" lon="6.02534">
        <ele>824</ele>
        <time>2021-12-21T11:25:13.000Z</time>
      </trkpt>
      <trkpt lat="44.02003" lon="6.02535">
        <ele>824</ele>
        <time>2021-12-21T11:25:14.000Z</time>
      </trkpt>
      <trkpt lat="44.02004" lon="6.02536">
        <ele>824</ele>
        <time>2021-12-21T11:25:15.000Z</time>
      </trkpt>
      <trkpt lat="44.02005" lon="6.02538">
        <ele>825</ele>
        <time>2021-12-21T11:25:16.000Z</time>
      </trkpt>
      <trkpt lat="44.02006" lon="6.02539">
        <ele>825</ele>
        <time>2021-12-21T11:25:17.000Z</time>
      </trkpt>
      <trkpt lat="44.02007" lon="6.0254">
        <ele>825</ele>
        <time>2021-12-21T11:25:18.000Z</time>
      </trkpt>
      <trkpt lat="44.02007" lon="6.02542">
        <ele>825</ele>
        <time>2021-12-21T11:25:19.000Z</time>
      </trkpt>
      <trkpt lat="44.02008" lon="6.02544">
        <ele>825</ele>
        <time>2021-12-21T11:25:20.000Z</time>
      </trkpt>
      <trkpt lat="44.02008" lon="6.02545">
        <ele>825</ele>
        <time>2021-12-21T11:25:21.000Z</time>
      </trkpt>
      <trkpt lat="44.02008" lon="6.02546">
        <ele>825</ele>
        <time>2021-12-21T11:25:22.000Z</time>
      </trkpt>
      <trkpt lat="44.02007" lon="6.02547">
        <ele>825</ele>
        <time>2021-12-21T11:25:23.000Z</time>
      </trkpt>
      <trkpt lat="44.02007" lon="6.02547">
        <ele>825</ele>
        <time>2021-12-21T11:25:24.000Z</time>
      </trkpt>
      <trkpt lat="44.02006" lon="6.02547">
        <ele>825</ele>
        <time>2021-12-21T11:25:25.000Z</time>
      </trkpt>
      <trkpt lat="44.02006" lon="6.02547">
        <ele>825</ele>
        <time>2021-12-21T11:25:26.000Z</time>
      </trkpt>
      <trkpt lat="44.02006" lon="6.02547">
        <ele>825</ele>
        <time>2021-12-21T11:25:27.000Z</time>
      </trkpt>
      <trkpt lat="44.02006" lon="6.02547">
        <ele>825</ele>
        <time>2021-12-21T11:25:28.000Z</time>
      </trkpt>
      <trkpt lat="44.02007" lon="6.02547">
        <ele>825</ele>
        <time>2021-12-21T11:25:29.000Z</time>
      </trkpt>
      <trkpt lat="44.02008" lon="6.02548">
        <ele>825</ele>
        <time>2021-12-21T11:25:30.000Z</time>
      </trkpt>
      <trkpt lat="44.02009" lon="6.02549">
        <ele>825</ele>
        <time>2021-12-21T11:25:31.000Z</time>
      </trkpt>
      <trkpt lat="44.0201" lon="6.0255">
        <ele>825</ele>
        <time>2021-12-21T11:25:32.000Z</time>
      </trkpt>
      <trkpt lat="44.02011" lon="6.02551">
        <ele>825</ele>
        <time>2021-12-21T11:25:33.000Z</time>
      </trkpt>
      <trkpt lat="44.02012" lon="6.02552">
        <ele>825</ele>
        <time>2021-12-21T11:25:34.000Z</time>
      </trkpt>
      <trkpt lat="44.02013" lon="6.02554">
        <ele>825</ele>
        <time>2021-12-21T11:25:35.000Z</time>
      </trkpt>
      <trkpt lat="44.02013" lon="6.02555">
        <ele>825</ele>
        <time>2021-12-21T11:25:36.000Z</time>
      </trkpt>
      <trkpt lat="44.02014" lon="6.02557">
        <ele>825</ele>
        <time>2021-12-21T11:25:37.000Z</time>
      </trkpt>
      <trkpt lat="44.02015" lon="6.02558">
        <ele>825</ele>
        <time>2021-12-21T11:25:38.000Z</time>
      </trkpt>
      <trkpt lat="44.02016" lon="6.02558">
        <ele>825</ele>
        <time>2021-12-21T11:25:39.000Z</time>
      </trkpt>
      <trkpt lat="44.02017" lon="6.0256">
        <ele>825</ele>
        <time>2021-12-21T11:25:40.000Z</time>
      </trkpt>
      <trkpt lat="44.02018" lon="6.02561">
        <ele>825</ele>
        <time>2021-12-21T11:25:41.000Z</time>
      </trkpt>
      <trkpt lat="44.02019" lon="6.02562">
        <ele>825</ele>
        <time>2021-12-21T11:25:42.000Z</time>
      </trkpt>
      <trkpt lat="44.0202" lon="6.02563">
        <ele>825</ele>
        <time>2021-12-21T11:25:43.000Z</time>
      </trkpt>
      <trkpt lat="44.02021" lon="6.02564">
        <ele>825</ele>
        <time>2021-12-21T11:25:44.000Z</time>
      </trkpt>
      <trkpt lat="44.02022" lon="6.02565">
        <ele>825</ele>
        <time>2021-12-21T11:25:45.000Z</time>
      </trkpt>
      <trkpt lat="44.02023" lon="6.02567">
        <ele>825</ele>
        <time>2021-12-21T11:25:46.000Z</time>
      </trkpt>
      <trkpt lat="44.02024" lon="6.02568">
        <ele>825</ele>
        <time>2021-12-21T11:25:47.000Z</time>
      </trkpt>
      <trkpt lat="44.02025" lon="6.02569">
        <ele>825</ele>
        <time>2021-12-21T11:25:48.000Z</time>
      </trkpt>
      <trkpt lat="44.02026" lon="6.0257">
        <ele>825</ele>
        <time>2021-12-21T11:25:49.000Z</time>
      </trkpt>
      <trkpt lat="44.02027" lon="6.02571">
        <ele>825</ele>
        <time>2021-12-21T11:25:50.000Z</time>
      </trkpt>
      <trkpt lat="44.02029" lon="6.02572">
        <ele>826</ele>
        <time>2021-12-21T11:25:51.000Z</time>
      </trkpt>
      <trkpt lat="44.02029" lon="6.02573">
        <ele>826</ele>
        <time>2021-12-21T11:25:52.000Z</time>
      </trkpt>
      <trkpt lat="44.0203" lon="6.02574">
        <ele>826</ele>
        <time>2021-12-21T11:25:53.000Z</time>
      </trkpt>
      <trkpt lat="44.02031" lon="6.02575">
        <ele>826</ele>
        <time>2021-12-21T11:25:54.000Z</time>
      </trkpt>
      <trkpt lat="44.02033" lon="6.02576">
        <ele>826</ele>
        <time>2021-12-21T11:25:55.000Z</time>
      </trkpt>
      <trkpt lat="44.02034" lon="6.02576">
        <ele>826</ele>
        <time>2021-12-21T11:25:56.000Z</time>
      </trkpt>
      <trkpt lat="44.02035" lon="6.02577">
        <ele>826</ele>
        <time>2021-12-21T11:25:57.000Z</time>
      </trkpt>
      <trkpt lat="44.02036" lon="6.02578">
        <ele>826</ele>
        <time>2021-12-21T11:25:58.000Z</time>
      </trkpt>
      <trkpt lat="44.02037" lon="6.02579">
        <ele>826</ele>
        <time>2021-12-21T11:25:59.000Z</time>
      </trkpt>
      <trkpt lat="44.02038" lon="6.02579">
        <ele>826</ele>
        <time>2021-12-21T11:26:00.000Z</time>
      </trkpt>
      <trkpt lat="44.02039" lon="6.0258">
        <ele>826</ele>
        <time>2021-12-21T11:26:01.000Z</time>
      </trkpt>
      <trkpt lat="44.02041" lon="6.0258">
        <ele>826</ele>
        <time>2021-12-21T11:26:02.000Z</time>
      </trkpt>
      <trkpt lat="44.02042" lon="6.02581">
        <ele>826</ele>
        <time>2021-12-21T11:26:03.000Z</time>
      </trkpt>
      <trkpt lat="44.02043" lon="6.02582">
        <ele>826</ele>
        <time>2021-12-21T11:26:04.000Z</time>
      </trkpt>
      <trkpt lat="44.02045" lon="6.02582">
        <ele>826</ele>
        <time>2021-12-21T11:26:05.000Z</time>
      </trkpt>
      <trkpt lat="44.02046" lon="6.02582">
        <ele>826</ele>
        <time>2021-12-21T11:26:06.000Z</time>
      </trkpt>
      <trkpt lat="44.02047" lon="6.02583">
        <ele>826</ele>
        <time>2021-12-21T11:26:07.000Z</time>
      </trkpt>
      <trkpt lat="44.02048" lon="6.02583">
        <ele>826</ele>
        <time>2021-12-21T11:26:08.000Z</time>
      </trkpt>
      <trkpt lat="44.02049" lon="6.02584">
        <ele>826</ele>
        <time>2021-12-21T11:26:09.000Z</time>
      </trkpt>
      <trkpt lat="44.0205" lon="6.02584">
        <ele>826</ele>
        <time>2021-12-21T11:26:10.000Z</time>
      </trkpt>
      <trkpt lat="44.02052" lon="6.02585">
        <ele>826</ele>
        <time>2021-12-21T11:26:11.000Z</time>
      </trkpt>
      <trkpt lat="44.02053" lon="6.02585">
        <ele>826</ele>
        <time>2021-12-21T11:26:12.000Z</time>
      </trkpt>
      <trkpt lat="44.02054" lon="6.02586">
        <ele>826</ele>
        <time>2021-12-21T11:26:13.000Z</time>
      </trkpt>
      <trkpt lat="44.02056" lon="6.02587">
        <ele>826</ele>
        <time>2021-12-21T11:26:14.000Z</time>
      </trkpt>
      <trkpt lat="44.02057" lon="6.02587">
        <ele>826</ele>
        <time>2021-12-21T11:26:15.000Z</time>
      </trkpt>
      <trkpt lat="44.02058" lon="6.02588">
        <ele>826</ele>
        <time>2021-12-21T11:26:16.000Z</time>
      </trkpt>
      <trkpt lat="44.02059" lon="6.02588">
        <ele>826</ele>
        <time>2021-12-21T11:26:17.000Z</time>
      </trkpt>
      <trkpt lat="44.0206" lon="6.02589">
        <ele>826</ele>
        <time>2021-12-21T11:26:18.000Z</time>
      </trkpt>
      <trkpt lat="44.02062" lon="6.02589">
        <ele>826</ele>
        <time>2021-12-21T11:26:19.000Z</time>
      </trkpt>
      <trkpt lat="44.02063" lon="6.0259">
        <ele>826</ele>
        <time>2021-12-21T11:26:20.000Z</time>
      </trkpt>
      <trkpt lat="44.02064" lon="6.0259">
        <ele>826</ele>
        <time>2021-12-21T11:26:21.000Z</time>
      </trkpt>
      <trkpt lat="44.02065" lon="6.0259">
        <ele>826</ele>
        <time>2021-12-21T11:26:22.000Z</time>
      </trkpt>
      <trkpt lat="44.02067" lon="6.02591">
        <ele>826</ele>
        <time>2021-12-21T11:26:23.000Z</time>
      </trkpt>
      <trkpt lat="44.02068" lon="6.02591">
        <ele>826</ele>
        <time>2021-12-21T11:26:24.000Z</time>
      </trkpt>
      <trkpt lat="44.02069" lon="6.02592">
        <ele>827</ele>
        <time>2021-12-21T11:26:25.000Z</time>
      </trkpt>
      <trkpt lat="44.0207" lon="6.02592">
        <ele>827</ele>
        <time>2021-12-21T11:26:26.000Z</time>
      </trkpt>
      <trkpt lat="44.02071" lon="6.02592">
        <ele>827</ele>
        <time>2021-12-21T11:26:27.000Z</time>
      </trkpt>
      <trkpt lat="44.02073" lon="6.02593">
        <ele>827</ele>
        <time>2021-12-21T11:26:28.000Z</time>
      </trkpt>
      <trkpt lat="44.02074" lon="6.02593">
        <ele>827</ele>
        <time>2021-12-21T11:26:29.000Z</time>
      </trkpt>
      <trkpt lat="44.02075" lon="6.02594">
        <ele>827</ele>
        <time>2021-12-21T11:26:30.000Z</time>
      </trkpt>
      <trkpt lat="44.02076" lon="6.02594">
        <ele>827</ele>
        <time>2021-12-21T11:26:31.000Z</time>
      </trkpt>
      <trkpt lat="44.02078" lon="6.02594">
        <ele>827</ele>
        <time>2021-12-21T11:26:32.000Z</time>
      </trkpt>
      <trkpt lat="44.02079" lon="6.02594">
        <ele>827</ele>
        <time>2021-12-21T11:26:33.000Z</time>
      </trkpt>
      <trkpt lat="44.0208" lon="6.02595">
        <ele>827</ele>
        <time>2021-12-21T11:26:34.000Z</time>
      </trkpt>
      <trkpt lat="44.02081" lon="6.02595">
        <ele>827</ele>
        <time>2021-12-21T11:26:35.000Z</time>
      </trkpt>
      <trkpt lat="44.02082" lon="6.02595">
        <ele>827</ele>
        <time>2021-12-21T11:26:36.000Z</time>
      </trkpt>
      <trkpt lat="44.02083" lon="6.02595">
        <ele>827</ele>
        <time>2021-12-21T11:26:37.000Z</time>
      </trkpt>
      <trkpt lat="44.02084" lon="6.02595">
        <ele>827</ele>
        <time>2021-12-21T11:26:38.000Z</time>
      </trkpt>
      <trkpt lat="44.02085" lon="6.02596">
        <ele>828</ele>
        <time>2021-12-21T11:26:39.000Z</time>
      </trkpt>
      <trkpt lat="44.02086" lon="6.02596">
        <ele>828</ele>
        <time>2021-12-21T11:26:40.000Z</time>
      </trkpt>
      <trkpt lat="44.02087" lon="6.02596">
        <ele>828</ele>
        <time>2021-12-21T11:26:41.000Z</time>
      </trkpt>
      <trkpt lat="44.02089" lon="6.02596">
        <ele>828</ele>
        <time>2021-12-21T11:26:42.000Z</time>
      </trkpt>
      <trkpt lat="44.0209" lon="6.02597">
        <ele>828</ele>
        <time>2021-12-21T11:26:43.000Z</time>
      </trkpt>
      <trkpt lat="44.02091" lon="6.02597">
        <ele>828</ele>
        <time>2021-12-21T11:26:44.000Z</time>
      </trkpt>
      <trkpt lat="44.02093" lon="6.02597">
        <ele>828</ele>
        <time>2021-12-21T11:26:45.000Z</time>
      </trkpt>
      <trkpt lat="44.02094" lon="6.02597">
        <ele>828</ele>
        <time>2021-12-21T11:26:46.000Z</time>
      </trkpt>
      <trkpt lat="44.02095" lon="6.02598">
        <ele>829</ele>
        <time>2021-12-21T11:26:47.000Z</time>
      </trkpt>
      <trkpt lat="44.02096" lon="6.02598">
        <ele>829</ele>
        <time>2021-12-21T11:26:48.000Z</time>
      </trkpt>
      <trkpt lat="44.02097" lon="6.02598">
        <ele>829</ele>
        <time>2021-12-21T11:26:49.000Z</time>
      </trkpt>
      <trkpt lat="44.02099" lon="6.02599">
        <ele>829</ele>
        <time>2021-12-21T11:26:50.000Z</time>
      </trkpt>
      <trkpt lat="44.021" lon="6.02599">
        <ele>829</ele>
        <time>2021-12-21T11:26:51.000Z</time>
      </trkpt>
      <trkpt lat="44.02101" lon="6.02599">
        <ele>829</ele>
        <time>2021-12-21T11:26:52.000Z</time>
      </trkpt>
      <trkpt lat="44.02102" lon="6.02598">
        <ele>829</ele>
        <time>2021-12-21T11:26:53.000Z</time>
      </trkpt>
      <trkpt lat="44.02103" lon="6.02598">
        <ele>829</ele>
        <time>2021-12-21T11:26:54.000Z</time>
      </trkpt>
      <trkpt lat="44.02105" lon="6.02598">
        <ele>829</ele>
        <time>2021-12-21T11:26:55.000Z</time>
      </trkpt>
      <trkpt lat="44.02106" lon="6.02598">
        <ele>830</ele>
        <time>2021-12-21T11:26:56.000Z</time>
      </trkpt>
      <trkpt lat="44.02107" lon="6.02598">
        <ele>830</ele>
        <time>2021-12-21T11:26:57.000Z</time>
      </trkpt>
      <trkpt lat="44.02108" lon="6.02598">
        <ele>830</ele>
        <time>2021-12-21T11:26:58.000Z</time>
      </trkpt>
      <trkpt lat="44.0211" lon="6.02598">
        <ele>830</ele>
        <time>2021-12-21T11:26:59.000Z</time>
      </trkpt>
      <trkpt lat="44.02111" lon="6.02598">
        <ele>830</ele>
        <time>2021-12-21T11:27:00.000Z</time>
      </trkpt>
      <trkpt lat="44.02112" lon="6.02597">
        <ele>830</ele>
        <time>2021-12-21T11:27:01.000Z</time>
      </trkpt>
      <trkpt lat="44.02113" lon="6.02597">
        <ele>831</ele>
        <time>2021-12-21T11:27:02.000Z</time>
      </trkpt>
      <trkpt lat="44.02114" lon="6.02597">
        <ele>831</ele>
        <time>2021-12-21T11:27:03.000Z</time>
      </trkpt>
      <trkpt lat="44.02116" lon="6.02597">
        <ele>831</ele>
        <time>2021-12-21T11:27:04.000Z</time>
      </trkpt>
      <trkpt lat="44.02117" lon="6.02596">
        <ele>831</ele>
        <time>2021-12-21T11:27:05.000Z</time>
      </trkpt>
      <trkpt lat="44.02118" lon="6.02596">
        <ele>831</ele>
        <time>2021-12-21T11:27:06.000Z</time>
      </trkpt>
      <trkpt lat="44.02119" lon="6.02595">
        <ele>831</ele>
        <time>2021-12-21T11:27:07.000Z</time>
      </trkpt>
      <trkpt lat="44.0212" lon="6.02595">
        <ele>831</ele>
        <time>2021-12-21T11:27:08.000Z</time>
      </trkpt>
      <trkpt lat="44.02122" lon="6.02594">
        <ele>831</ele>
        <time>2021-12-21T11:27:09.000Z</time>
      </trkpt>
      <trkpt lat="44.02123" lon="6.02594">
        <ele>831</ele>
        <time>2021-12-21T11:27:10.000Z</time>
      </trkpt>
      <trkpt lat="44.02124" lon="6.02593">
        <ele>832</ele>
        <time>2021-12-21T11:27:11.000Z</time>
      </trkpt>
      <trkpt lat="44.02125" lon="6.02593">
        <ele>832</ele>
        <time>2021-12-21T11:27:12.000Z</time>
      </trkpt>
      <trkpt lat="44.02126" lon="6.02592">
        <ele>832</ele>
        <time>2021-12-21T11:27:13.000Z</time>
      </trkpt>
      <trkpt lat="44.02127" lon="6.02592">
        <ele>832</ele>
        <time>2021-12-21T11:27:14.000Z</time>
      </trkpt>
      <trkpt lat="44.02128" lon="6.02591">
        <ele>832</ele>
        <time>2021-12-21T11:27:15.000Z</time>
      </trkpt>
      <trkpt lat="44.02129" lon="6.02591">
        <ele>832</ele>
        <time>2021-12-21T11:27:16.000Z</time>
      </trkpt>
      <trkpt lat="44.02131" lon="6.0259">
        <ele>832</ele>
        <time>2021-12-21T11:27:17.000Z</time>
      </trkpt>
      <trkpt lat="44.02132" lon="6.02589">
        <ele>832</ele>
        <time>2021-12-21T11:27:18.000Z</time>
      </trkpt>
      <trkpt lat="44.02133" lon="6.02589">
        <ele>832</ele>
        <time>2021-12-21T11:27:19.000Z</time>
      </trkpt>
      <trkpt lat="44.02134" lon="6.02588">
        <ele>832</ele>
        <time>2021-12-21T11:27:20.000Z</time>
      </trkpt>
      <trkpt lat="44.02136" lon="6.02588">
        <ele>832</ele>
        <time>2021-12-21T11:27:21.000Z</time>
      </trkpt>
      <trkpt lat="44.02137" lon="6.02587">
        <ele>832</ele>
        <time>2021-12-21T11:27:22.000Z</time>
      </trkpt>
      <trkpt lat="44.02138" lon="6.02586">
        <ele>832</ele>
        <time>2021-12-21T11:27:23.000Z</time>
      </trkpt>
      <trkpt lat="44.02139" lon="6.02586">
        <ele>832</ele>
        <time>2021-12-21T11:27:24.000Z</time>
      </trkpt>
      <trkpt lat="44.0214" lon="6.02585">
        <ele>832</ele>
        <time>2021-12-21T11:27:25.000Z</time>
      </trkpt>
      <trkpt lat="44.02141" lon="6.02584">
        <ele>832</ele>
        <time>2021-12-21T11:27:26.000Z</time>
      </trkpt>
      <trkpt lat="44.02142" lon="6.02584">
        <ele>832</ele>
        <time>2021-12-21T11:27:27.000Z</time>
      </trkpt>
      <trkpt lat="44.02143" lon="6.02583">
        <ele>832</ele>
        <time>2021-12-21T11:27:28.000Z</time>
      </trkpt>
      <trkpt lat="44.02144" lon="6.02583">
        <ele>832</ele>
        <time>2021-12-21T11:27:29.000Z</time>
      </trkpt>
      <trkpt lat="44.02146" lon="6.02582">
        <ele>832</ele>
        <time>2021-12-21T11:27:30.000Z</time>
      </trkpt>
      <trkpt lat="44.02147" lon="6.02581">
        <ele>832</ele>
        <time>2021-12-21T11:27:31.000Z</time>
      </trkpt>
      <trkpt lat="44.02148" lon="6.0258">
        <ele>832</ele>
        <time>2021-12-21T11:27:32.000Z</time>
      </trkpt>
      <trkpt lat="44.02149" lon="6.0258">
        <ele>833</ele>
        <time>2021-12-21T11:27:33.000Z</time>
      </trkpt>
      <trkpt lat="44.0215" lon="6.02579">
        <ele>833</ele>
        <time>2021-12-21T11:27:34.000Z</time>
      </trkpt>
      <trkpt lat="44.02151" lon="6.02578">
        <ele>833</ele>
        <time>2021-12-21T11:27:35.000Z</time>
      </trkpt>
      <trkpt lat="44.02152" lon="6.02578">
        <ele>833</ele>
        <time>2021-12-21T11:27:36.000Z</time>
      </trkpt>
      <trkpt lat="44.02154" lon="6.02577">
        <ele>833</ele>
        <time>2021-12-21T11:27:37.000Z</time>
      </trkpt>
      <trkpt lat="44.02155" lon="6.02577">
        <ele>833</ele>
        <time>2021-12-21T11:27:38.000Z</time>
      </trkpt>
      <trkpt lat="44.02156" lon="6.02577">
        <ele>833</ele>
        <time>2021-12-21T11:27:39.000Z</time>
      </trkpt>
      <trkpt lat="44.02157" lon="6.02576">
        <ele>833</ele>
        <time>2021-12-21T11:27:40.000Z</time>
      </trkpt>
      <trkpt lat="44.02158" lon="6.02576">
        <ele>833</ele>
        <time>2021-12-21T11:27:41.000Z</time>
      </trkpt>
      <trkpt lat="44.0216" lon="6.02576">
        <ele>833</ele>
        <time>2021-12-21T11:27:42.000Z</time>
      </trkpt>
      <trkpt lat="44.02161" lon="6.02576">
        <ele>833</ele>
        <time>2021-12-21T11:27:43.000Z</time>
      </trkpt>
      <trkpt lat="44.02162" lon="6.02575">
        <ele>833</ele>
        <time>2021-12-21T11:27:44.000Z</time>
      </trkpt>
      <trkpt lat="44.02164" lon="6.02575">
        <ele>833</ele>
        <time>2021-12-21T11:27:45.000Z</time>
      </trkpt>
      <trkpt lat="44.02165" lon="6.02575">
        <ele>833</ele>
        <time>2021-12-21T11:27:46.000Z</time>
      </trkpt>
      <trkpt lat="44.02166" lon="6.02575">
        <ele>833</ele>
        <time>2021-12-21T11:27:47.000Z</time>
      </trkpt>
      <trkpt lat="44.02167" lon="6.02575">
        <ele>833</ele>
        <time>2021-12-21T11:27:48.000Z</time>
      </trkpt>
      <trkpt lat="44.02169" lon="6.02575">
        <ele>833</ele>
        <time>2021-12-21T11:27:49.000Z</time>
      </trkpt>
      <trkpt lat="44.0217" lon="6.02575">
        <ele>833</ele>
        <time>2021-12-21T11:27:50.000Z</time>
      </trkpt>
      <trkpt lat="44.02171" lon="6.02576">
        <ele>832</ele>
        <time>2021-12-21T11:27:51.000Z</time>
      </trkpt>
      <trkpt lat="44.02173" lon="6.02576">
        <ele>832</ele>
        <time>2021-12-21T11:27:52.000Z</time>
      </trkpt>
      <trkpt lat="44.02174" lon="6.02576">
        <ele>832</ele>
        <time>2021-12-21T11:27:53.000Z</time>
      </trkpt>
      <trkpt lat="44.02175" lon="6.02576">
        <ele>832</ele>
        <time>2021-12-21T11:27:54.000Z</time>
      </trkpt>
      <trkpt lat="44.02176" lon="6.02576">
        <ele>832</ele>
        <time>2021-12-21T11:27:55.000Z</time>
      </trkpt>
      <trkpt lat="44.02178" lon="6.02576">
        <ele>832</ele>
        <time>2021-12-21T11:27:56.000Z</time>
      </trkpt>
      <trkpt lat="44.02179" lon="6.02576">
        <ele>832</ele>
        <time>2021-12-21T11:27:57.000Z</time>
      </trkpt>
      <trkpt lat="44.0218" lon="6.02576">
        <ele>832</ele>
        <time>2021-12-21T11:27:58.000Z</time>
      </trkpt>
      <trkpt lat="44.02181" lon="6.02576">
        <ele>832</ele>
        <time>2021-12-21T11:27:59.000Z</time>
      </trkpt>
      <trkpt lat="44.02182" lon="6.02576">
        <ele>832</ele>
        <time>2021-12-21T11:28:00.000Z</time>
      </trkpt>
      <trkpt lat="44.02183" lon="6.02576">
        <ele>832</ele>
        <time>2021-12-21T11:28:01.000Z</time>
      </trkpt>
      <trkpt lat="44.02184" lon="6.02576">
        <ele>832</ele>
        <time>2021-12-21T11:28:02.000Z</time>
      </trkpt>
      <trkpt lat="44.02185" lon="6.02576">
        <ele>832</ele>
        <time>2021-12-21T11:28:03.000Z</time>
      </trkpt>
      <trkpt lat="44.02186" lon="6.02577">
        <ele>831</ele>
        <time>2021-12-21T11:28:04.000Z</time>
      </trkpt>
      <trkpt lat="44.02187" lon="6.02577">
        <ele>831</ele>
        <time>2021-12-21T11:28:05.000Z</time>
      </trkpt>
      <trkpt lat="44.02188" lon="6.02577">
        <ele>831</ele>
        <time>2021-12-21T11:28:06.000Z</time>
      </trkpt>
      <trkpt lat="44.02189" lon="6.02577">
        <ele>831</ele>
        <time>2021-12-21T11:28:07.000Z</time>
      </trkpt>
      <trkpt lat="44.0219" lon="6.02577">
        <ele>831</ele>
        <time>2021-12-21T11:28:08.000Z</time>
      </trkpt>
      <trkpt lat="44.02191" lon="6.02577">
        <ele>831</ele>
        <time>2021-12-21T11:28:09.000Z</time>
      </trkpt>
      <trkpt lat="44.02192" lon="6.02577">
        <ele>831</ele>
        <time>2021-12-21T11:28:10.000Z</time>
      </trkpt>
      <trkpt lat="44.02193" lon="6.02577">
        <ele>830</ele>
        <time>2021-12-21T11:28:11.000Z</time>
      </trkpt>
      <trkpt lat="44.02194" lon="6.02578">
        <ele>830</ele>
        <time>2021-12-21T11:28:12.000Z</time>
      </trkpt>
      <trkpt lat="44.02195" lon="6.02577">
        <ele>830</ele>
        <time>2021-12-21T11:28:13.000Z</time>
      </trkpt>
      <trkpt lat="44.02196" lon="6.02578">
        <ele>830</ele>
        <time>2021-12-21T11:28:14.000Z</time>
      </trkpt>
      <trkpt lat="44.02197" lon="6.02578">
        <ele>830</ele>
        <time>2021-12-21T11:28:15.000Z</time>
      </trkpt>
      <trkpt lat="44.02198" lon="6.02578">
        <ele>830</ele>
        <time>2021-12-21T11:28:16.000Z</time>
      </trkpt>
      <trkpt lat="44.02199" lon="6.02578">
        <ele>830</ele>
        <time>2021-12-21T11:28:17.000Z</time>
      </trkpt>
      <trkpt lat="44.02199" lon="6.02578">
        <ele>830</ele>
        <time>2021-12-21T11:28:18.000Z</time>
      </trkpt>
      <trkpt lat="44.022" lon="6.02578">
        <ele>829</ele>
        <time>2021-12-21T11:28:19.000Z</time>
      </trkpt>
      <trkpt lat="44.022" lon="6.02578">
        <ele>829</ele>
        <time>2021-12-21T11:28:20.000Z</time>
      </trkpt>
      <trkpt lat="44.022" lon="6.02578">
        <ele>829</ele>
        <time>2021-12-21T11:28:21.000Z</time>
      </trkpt>
      <trkpt lat="44.022" lon="6.02578">
        <ele>829</ele>
        <time>2021-12-21T11:28:22.000Z</time>
      </trkpt>
      <trkpt lat="44.02201" lon="6.02578">
        <ele>829</ele>
        <time>2021-12-21T11:28:23.000Z</time>
      </trkpt>
      <trkpt lat="44.02201" lon="6.02578">
        <ele>829</ele>
        <time>2021-12-21T11:28:24.000Z</time>
      </trkpt>
      <trkpt lat="44.02201" lon="6.02578">
        <ele>829</ele>
        <time>2021-12-21T11:28:25.000Z</time>
      </trkpt>
      <trkpt lat="44.02201" lon="6.02578">
        <ele>829</ele>
        <time>2021-12-21T11:28:26.000Z</time>
      </trkpt>
      <trkpt lat="44.02201" lon="6.02578">
        <ele>829</ele>
        <time>2021-12-21T11:28:27.000Z</time>
      </trkpt>
      <trkpt lat="44.02201" lon="6.02578">
        <ele>829</ele>
        <time>2021-12-21T11:28:28.000Z</time>
      </trkpt>
      <trkpt lat="44.02202" lon="6.02578">
        <ele>829</ele>
        <time>2021-12-21T11:28:29.000Z</time>
      </trkpt>
      <trkpt lat="44.02203" lon="6.02578">
        <ele>829</ele>
        <time>2021-12-21T11:28:30.000Z</time>
      </trkpt>
      <trkpt lat="44.02204" lon="6.02578">
        <ele>829</ele>
        <time>2021-12-21T11:28:31.000Z</time>
      </trkpt>
      <trkpt lat="44.02205" lon="6.02578">
        <ele>829</ele>
        <time>2021-12-21T11:28:32.000Z</time>
      </trkpt>
      <trkpt lat="44.02206" lon="6.02578">
        <ele>829</ele>
        <time>2021-12-21T11:28:33.000Z</time>
      </trkpt>
      <trkpt lat="44.02207" lon="6.02578">
        <ele>829</ele>
        <time>2021-12-21T11:28:34.000Z</time>
      </trkpt>
      <trkpt lat="44.02208" lon="6.02578">
        <ele>829</ele>
        <time>2021-12-21T11:28:35.000Z</time>
      </trkpt>
      <trkpt lat="44.02209" lon="6.02578">
        <ele>828</ele>
        <time>2021-12-21T11:28:36.000Z</time>
      </trkpt>
      <trkpt lat="44.0221" lon="6.02579">
        <ele>828</ele>
        <time>2021-12-21T11:28:37.000Z</time>
      </trkpt>
      <trkpt lat="44.02211" lon="6.02579">
        <ele>828</ele>
        <time>2021-12-21T11:28:38.000Z</time>
      </trkpt>
      <trkpt lat="44.02212" lon="6.02579">
        <ele>828</ele>
        <time>2021-12-21T11:28:39.000Z</time>
      </trkpt>
      <trkpt lat="44.02213" lon="6.02579">
        <ele>828</ele>
        <time>2021-12-21T11:28:40.000Z</time>
      </trkpt>
      <trkpt lat="44.02214" lon="6.02579">
        <ele>827</ele>
        <time>2021-12-21T11:28:41.000Z</time>
      </trkpt>
      <trkpt lat="44.02215" lon="6.0258">
        <ele>827</ele>
        <time>2021-12-21T11:28:42.000Z</time>
      </trkpt>
      <trkpt lat="44.02216" lon="6.0258">
        <ele>827</ele>
        <time>2021-12-21T11:28:43.000Z</time>
      </trkpt>
      <trkpt lat="44.02218" lon="6.0258">
        <ele>827</ele>
        <time>2021-12-21T11:28:44.000Z</time>
      </trkpt>
      <trkpt lat="44.02219" lon="6.0258">
        <ele>827</ele>
        <time>2021-12-21T11:28:45.000Z</time>
      </trkpt>
      <trkpt lat="44.0222" lon="6.0258">
        <ele>827</ele>
        <time>2021-12-21T11:28:46.000Z</time>
      </trkpt>
      <trkpt lat="44.02221" lon="6.0258">
        <ele>826</ele>
        <time>2021-12-21T11:28:47.000Z</time>
      </trkpt>
      <trkpt lat="44.02222" lon="6.0258">
        <ele>826</ele>
        <time>2021-12-21T11:28:48.000Z</time>
      </trkpt>
      <trkpt lat="44.02224" lon="6.0258">
        <ele>826</ele>
        <time>2021-12-21T11:28:49.000Z</time>
      </trkpt>
      <trkpt lat="44.02225" lon="6.0258">
        <ele>826</ele>
        <time>2021-12-21T11:28:50.000Z</time>
      </trkpt>
      <trkpt lat="44.02226" lon="6.02581">
        <ele>826</ele>
        <time>2021-12-21T11:28:51.000Z</time>
      </trkpt>
      <trkpt lat="44.02227" lon="6.02581">
        <ele>826</ele>
        <time>2021-12-21T11:28:52.000Z</time>
      </trkpt>
      <trkpt lat="44.02228" lon="6.02581">
        <ele>826</ele>
        <time>2021-12-21T11:28:53.000Z</time>
      </trkpt>
      <trkpt lat="44.0223" lon="6.02581">
        <ele>826</ele>
        <time>2021-12-21T11:28:54.000Z</time>
      </trkpt>
      <trkpt lat="44.02231" lon="6.02581">
        <ele>825</ele>
        <time>2021-12-21T11:28:55.000Z</time>
      </trkpt>
      <trkpt lat="44.02232" lon="6.02581">
        <ele>825</ele>
        <time>2021-12-21T11:28:56.000Z</time>
      </trkpt>
      <trkpt lat="44.02233" lon="6.02581">
        <ele>825</ele>
        <time>2021-12-21T11:28:57.000Z</time>
      </trkpt>
      <trkpt lat="44.02235" lon="6.02582">
        <ele>825</ele>
        <time>2021-12-21T11:28:58.000Z</time>
      </trkpt>
      <trkpt lat="44.02236" lon="6.02582">
        <ele>825</ele>
        <time>2021-12-21T11:28:59.000Z</time>
      </trkpt>
      <trkpt lat="44.02237" lon="6.02583">
        <ele>825</ele>
        <time>2021-12-21T11:29:00.000Z</time>
      </trkpt>
      <trkpt lat="44.02238" lon="6.02583">
        <ele>825</ele>
        <time>2021-12-21T11:29:01.000Z</time>
      </trkpt>
      <trkpt lat="44.02239" lon="6.02584">
        <ele>825</ele>
        <time>2021-12-21T11:29:02.000Z</time>
      </trkpt>
      <trkpt lat="44.02241" lon="6.02584">
        <ele>824</ele>
        <time>2021-12-21T11:29:03.000Z</time>
      </trkpt>
      <trkpt lat="44.02242" lon="6.02584">
        <ele>824</ele>
        <time>2021-12-21T11:29:04.000Z</time>
      </trkpt>
      <trkpt lat="44.02243" lon="6.02585">
        <ele>824</ele>
        <time>2021-12-21T11:29:05.000Z</time>
      </trkpt>
      <trkpt lat="44.02244" lon="6.02586">
        <ele>824</ele>
        <time>2021-12-21T11:29:06.000Z</time>
      </trkpt>
      <trkpt lat="44.02245" lon="6.02586">
        <ele>824</ele>
        <time>2021-12-21T11:29:07.000Z</time>
      </trkpt>
      <trkpt lat="44.02246" lon="6.02587">
        <ele>824</ele>
        <time>2021-12-21T11:29:08.000Z</time>
      </trkpt>
      <trkpt lat="44.02247" lon="6.02587">
        <ele>824</ele>
        <time>2021-12-21T11:29:09.000Z</time>
      </trkpt>
      <trkpt lat="44.02249" lon="6.02588">
        <ele>824</ele>
        <time>2021-12-21T11:29:10.000Z</time>
      </trkpt>
      <trkpt lat="44.0225" lon="6.02588">
        <ele>823</ele>
        <time>2021-12-21T11:29:11.000Z</time>
      </trkpt>
      <trkpt lat="44.02251" lon="6.02589">
        <ele>823</ele>
        <time>2021-12-21T11:29:12.000Z</time>
      </trkpt>
      <trkpt lat="44.02252" lon="6.0259">
        <ele>823</ele>
        <time>2021-12-21T11:29:13.000Z</time>
      </trkpt>
      <trkpt lat="44.02253" lon="6.0259">
        <ele>823</ele>
        <time>2021-12-21T11:29:14.000Z</time>
      </trkpt>
      <trkpt lat="44.02254" lon="6.02591">
        <ele>823</ele>
        <time>2021-12-21T11:29:15.000Z</time>
      </trkpt>
      <trkpt lat="44.02255" lon="6.02592">
        <ele>823</ele>
        <time>2021-12-21T11:29:16.000Z</time>
      </trkpt>
      <trkpt lat="44.02257" lon="6.02592">
        <ele>823</ele>
        <time>2021-12-21T11:29:17.000Z</time>
      </trkpt>
      <trkpt lat="44.02258" lon="6.02593">
        <ele>823</ele>
        <time>2021-12-21T11:29:18.000Z</time>
      </trkpt>
      <trkpt lat="44.02259" lon="6.02594">
        <ele>823</ele>
        <time>2021-12-21T11:29:19.000Z</time>
      </trkpt>
      <trkpt lat="44.0226" lon="6.02594">
        <ele>822</ele>
        <time>2021-12-21T11:29:20.000Z</time>
      </trkpt>
      <trkpt lat="44.02261" lon="6.02595">
        <ele>822</ele>
        <time>2021-12-21T11:29:21.000Z</time>
      </trkpt>
      <trkpt lat="44.02263" lon="6.02596">
        <ele>822</ele>
        <time>2021-12-21T11:29:22.000Z</time>
      </trkpt>
      <trkpt lat="44.02264" lon="6.02596">
        <ele>822</ele>
        <time>2021-12-21T11:29:23.000Z</time>
      </trkpt>
      <trkpt lat="44.02265" lon="6.02597">
        <ele>822</ele>
        <time>2021-12-21T11:29:24.000Z</time>
      </trkpt>
      <trkpt lat="44.02266" lon="6.02598">
        <ele>822</ele>
        <time>2021-12-21T11:29:25.000Z</time>
      </trkpt>
      <trkpt lat="44.02267" lon="6.02598">
        <ele>822</ele>
        <time>2021-12-21T11:29:26.000Z</time>
      </trkpt>
      <trkpt lat="44.02268" lon="6.02599">
        <ele>822</ele>
        <time>2021-12-21T11:29:27.000Z</time>
      </trkpt>
      <trkpt lat="44.02269" lon="6.026">
        <ele>822</ele>
        <time>2021-12-21T11:29:28.000Z</time>
      </trkpt>
      <trkpt lat="44.0227" lon="6.026">
        <ele>822</ele>
        <time>2021-12-21T11:29:29.000Z</time>
      </trkpt>
      <trkpt lat="44.02272" lon="6.02601">
        <ele>822</ele>
        <time>2021-12-21T11:29:30.000Z</time>
      </trkpt>
      <trkpt lat="44.02273" lon="6.02601">
        <ele>822</ele>
        <time>2021-12-21T11:29:31.000Z</time>
      </trkpt>
      <trkpt lat="44.02274" lon="6.02602">
        <ele>822</ele>
        <time>2021-12-21T11:29:32.000Z</time>
      </trkpt>
      <trkpt lat="44.02275" lon="6.02603">
        <ele>822</ele>
        <time>2021-12-21T11:29:33.000Z</time>
      </trkpt>
      <trkpt lat="44.02277" lon="6.02603">
        <ele>822</ele>
        <time>2021-12-21T11:29:34.000Z</time>
      </trkpt>
      <trkpt lat="44.02278" lon="6.02604">
        <ele>822</ele>
        <time>2021-12-21T11:29:35.000Z</time>
      </trkpt>
      <trkpt lat="44.02279" lon="6.02604">
        <ele>822</ele>
        <time>2021-12-21T11:29:36.000Z</time>
      </trkpt>
      <trkpt lat="44.0228" lon="6.02605">
        <ele>822</ele>
        <time>2021-12-21T11:29:37.000Z</time>
      </trkpt>
      <trkpt lat="44.02281" lon="6.02606">
        <ele>822</ele>
        <time>2021-12-21T11:29:38.000Z</time>
      </trkpt>
      <trkpt lat="44.02282" lon="6.02606">
        <ele>822</ele>
        <time>2021-12-21T11:29:39.000Z</time>
      </trkpt>
      <trkpt lat="44.02284" lon="6.02606">
        <ele>822</ele>
        <time>2021-12-21T11:29:40.000Z</time>
      </trkpt>
      <trkpt lat="44.02285" lon="6.02607">
        <ele>822</ele>
        <time>2021-12-21T11:29:41.000Z</time>
      </trkpt>
      <trkpt lat="44.02286" lon="6.02607">
        <ele>822</ele>
        <time>2021-12-21T11:29:42.000Z</time>
      </trkpt>
      <trkpt lat="44.02287" lon="6.02607">
        <ele>822</ele>
        <time>2021-12-21T11:29:43.000Z</time>
      </trkpt>
      <trkpt lat="44.02288" lon="6.02608">
        <ele>822</ele>
        <time>2021-12-21T11:29:44.000Z</time>
      </trkpt>
      <trkpt lat="44.02289" lon="6.02608">
        <ele>822</ele>
        <time>2021-12-21T11:29:45.000Z</time>
      </trkpt>
      <trkpt lat="44.02291" lon="6.02607">
        <ele>822</ele>
        <time>2021-12-21T11:29:46.000Z</time>
      </trkpt>
      <trkpt lat="44.02292" lon="6.02608">
        <ele>822</ele>
        <time>2021-12-21T11:29:47.000Z</time>
      </trkpt>
      <trkpt lat="44.02293" lon="6.02608">
        <ele>822</ele>
        <time>2021-12-21T11:29:48.000Z</time>
      </trkpt>
      <trkpt lat="44.02295" lon="6.02608">
        <ele>822</ele>
        <time>2021-12-21T11:29:49.000Z</time>
      </trkpt>
      <trkpt lat="44.02296" lon="6.02608">
        <ele>822</ele>
        <time>2021-12-21T11:29:50.000Z</time>
      </trkpt>
      <trkpt lat="44.02297" lon="6.02608">
        <ele>822</ele>
        <time>2021-12-21T11:29:51.000Z</time>
      </trkpt>
      <trkpt lat="44.02298" lon="6.02608">
        <ele>822</ele>
        <time>2021-12-21T11:29:52.000Z</time>
      </trkpt>
      <trkpt lat="44.023" lon="6.02609">
        <ele>822</ele>
        <time>2021-12-21T11:29:53.000Z</time>
      </trkpt>
      <trkpt lat="44.02301" lon="6.0261">
        <ele>822</ele>
        <time>2021-12-21T11:29:54.000Z</time>
      </trkpt>
      <trkpt lat="44.02302" lon="6.0261">
        <ele>822</ele>
        <time>2021-12-21T11:29:55.000Z</time>
      </trkpt>
      <trkpt lat="44.02303" lon="6.02611">
        <ele>822</ele>
        <time>2021-12-21T11:29:56.000Z</time>
      </trkpt>
      <trkpt lat="44.02304" lon="6.02612">
        <ele>822</ele>
        <time>2021-12-21T11:29:57.000Z</time>
      </trkpt>
      <trkpt lat="44.02305" lon="6.02613">
        <ele>822</ele>
        <time>2021-12-21T11:29:58.000Z</time>
      </trkpt>
      <trkpt lat="44.02306" lon="6.02614">
        <ele>822</ele>
        <time>2021-12-21T11:29:59.000Z</time>
      </trkpt>
      <trkpt lat="44.02308" lon="6.02615">
        <ele>822</ele>
        <time>2021-12-21T11:30:00.000Z</time>
      </trkpt>
      <trkpt lat="44.02309" lon="6.02616">
        <ele>822</ele>
        <time>2021-12-21T11:30:01.000Z</time>
      </trkpt>
      <trkpt lat="44.0231" lon="6.02617">
        <ele>822</ele>
        <time>2021-12-21T11:30:02.000Z</time>
      </trkpt>
      <trkpt lat="44.02311" lon="6.02617">
        <ele>822</ele>
        <time>2021-12-21T11:30:03.000Z</time>
      </trkpt>
      <trkpt lat="44.02312" lon="6.02618">
        <ele>822</ele>
        <time>2021-12-21T11:30:04.000Z</time>
      </trkpt>
      <trkpt lat="44.02313" lon="6.02619">
        <ele>822</ele>
        <time>2021-12-21T11:30:05.000Z</time>
      </trkpt>
      <trkpt lat="44.02314" lon="6.02619">
        <ele>822</ele>
        <time>2021-12-21T11:30:06.000Z</time>
      </trkpt>
      <trkpt lat="44.02315" lon="6.0262">
        <ele>823</ele>
        <time>2021-12-21T11:30:07.000Z</time>
      </trkpt>
      <trkpt lat="44.02316" lon="6.02621">
        <ele>823</ele>
        <time>2021-12-21T11:30:08.000Z</time>
      </trkpt>
      <trkpt lat="44.02316" lon="6.02622">
        <ele>823</ele>
        <time>2021-12-21T11:30:09.000Z</time>
      </trkpt>
      <trkpt lat="44.02317" lon="6.02623">
        <ele>823</ele>
        <time>2021-12-21T11:30:10.000Z</time>
      </trkpt>
      <trkpt lat="44.02318" lon="6.02624">
        <ele>823</ele>
        <time>2021-12-21T11:30:11.000Z</time>
      </trkpt>
      <trkpt lat="44.02319" lon="6.02625">
        <ele>823</ele>
        <time>2021-12-21T11:30:12.000Z</time>
      </trkpt>
      <trkpt lat="44.0232" lon="6.02626">
        <ele>823</ele>
        <time>2021-12-21T11:30:13.000Z</time>
      </trkpt>
      <trkpt lat="44.0232" lon="6.02626">
        <ele>823</ele>
        <time>2021-12-21T11:30:14.000Z</time>
      </trkpt>
      <trkpt lat="44.02321" lon="6.02626">
        <ele>823</ele>
        <time>2021-12-21T11:30:15.000Z</time>
      </trkpt>
      <trkpt lat="44.02322" lon="6.02626">
        <ele>823</ele>
        <time>2021-12-21T11:30:16.000Z</time>
      </trkpt>
      <trkpt lat="44.02322" lon="6.02626">
        <ele>823</ele>
        <time>2021-12-21T11:30:17.000Z</time>
      </trkpt>
      <trkpt lat="44.02322" lon="6.02626">
        <ele>823</ele>
        <time>2021-12-21T11:30:18.000Z</time>
      </trkpt>
      <trkpt lat="44.02322" lon="6.02626">
        <ele>823</ele>
        <time>2021-12-21T11:30:19.000Z</time>
      </trkpt>
      <trkpt lat="44.02322" lon="6.02626">
        <ele>823</ele>
        <time>2021-12-21T11:30:20.000Z</time>
      </trkpt>
      <trkpt lat="44.02322" lon="6.02626">
        <ele>823</ele>
        <time>2021-12-21T11:30:21.000Z</time>
      </trkpt>
      <trkpt lat="44.02323" lon="6.02626">
        <ele>823</ele>
        <time>2021-12-21T11:30:22.000Z</time>
      </trkpt>
      <trkpt lat="44.02323" lon="6.02626">
        <ele>823</ele>
        <time>2021-12-21T11:30:23.000Z</time>
      </trkpt>
      <trkpt lat="44.02323" lon="6.02626">
        <ele>823</ele>
        <time>2021-12-21T11:30:24.000Z</time>
      </trkpt>
      <trkpt lat="44.02323" lon="6.02626">
        <ele>823</ele>
        <time>2021-12-21T11:30:25.000Z</time>
      </trkpt>
      <trkpt lat="44.02323" lon="6.02626">
        <ele>823</ele>
        <time>2021-12-21T11:30:26.000Z</time>
      </trkpt>
      <trkpt lat="44.02323" lon="6.02626">
        <ele>823</ele>
        <time>2021-12-21T11:30:27.000Z</time>
      </trkpt>
      <trkpt lat="44.02323" lon="6.02626">
        <ele>823</ele>
        <time>2021-12-21T11:30:28.000Z</time>
      </trkpt>
      <trkpt lat="44.02323" lon="6.02626">
        <ele>823</ele>
        <time>2021-12-21T11:30:29.000Z</time>
      </trkpt>
      <trkpt lat="44.02323" lon="6.02626">
        <ele>824</ele>
        <time>2021-12-21T11:30:30.000Z</time>
      </trkpt>
      <trkpt lat="44.02323" lon="6.02626">
        <ele>824</ele>
        <time>2021-12-21T11:30:31.000Z</time>
      </trkpt>
      <trkpt lat="44.02323" lon="6.02626">
        <ele>824</ele>
        <time>2021-12-21T11:30:32.000Z</time>
      </trkpt>
      <trkpt lat="44.02323" lon="6.02626">
        <ele>824</ele>
        <time>2021-12-21T11:30:33.000Z</time>
      </trkpt>
      <trkpt lat="44.02323" lon="6.02626">
        <ele>824</ele>
        <time>2021-12-21T11:30:34.000Z</time>
      </trkpt>
      <trkpt lat="44.02323" lon="6.02626">
        <ele>824</ele>
        <time>2021-12-21T11:30:35.000Z</time>
      </trkpt>
      <trkpt lat="44.02323" lon="6.02626">
        <ele>824</ele>
        <time>2021-12-21T11:30:36.000Z</time>
      </trkpt>
      <trkpt lat="44.02323" lon="6.02626">
        <ele>824</ele>
        <time>2021-12-21T11:30:37.000Z</time>
      </trkpt>
      <trkpt lat="44.02323" lon="6.02626">
        <ele>824</ele>
        <time>2021-12-21T11:30:38.000Z</time>
      </trkpt>
      <trkpt lat="44.02323" lon="6.02626">
        <ele>824</ele>
        <time>2021-12-21T11:30:39.000Z</time>
      </trkpt>
      <trkpt lat="44.02323" lon="6.02626">
        <ele>824</ele>
        <time>2021-12-21T11:30:40.000Z</time>
      </trkpt>
      <trkpt lat="44.02323" lon="6.02626">
        <ele>824</ele>
        <time>2021-12-21T11:30:41.000Z</time>
      </trkpt>
      <trkpt lat="44.02323" lon="6.02626">
        <ele>824</ele>
        <time>2021-12-21T11:30:42.000Z</time>
      </trkpt>
      <trkpt lat="44.02323" lon="6.02626">
        <ele>824</ele>
        <time>2021-12-21T11:30:43.000Z</time>
      </trkpt>
      <trkpt lat="44.02323" lon="6.02626">
        <ele>824</ele>
        <time>2021-12-21T11:30:44.000Z</time>
      </trkpt>
      <trkpt lat="44.02323" lon="6.02626">
        <ele>824</ele>
        <time>2021-12-21T11:30:45.000Z</time>
      </trkpt>
      <trkpt lat="44.02323" lon="6.02626">
        <ele>824</ele>
        <time>2021-12-21T11:30:46.000Z</time>
      </trkpt>
      <trkpt lat="44.02323" lon="6.02626">
        <ele>824</ele>
        <time>2021-12-21T11:30:47.000Z</time>
      </trkpt>
      <trkpt lat="44.02323" lon="6.02626">
        <ele>824</ele>
        <time>2021-12-21T11:30:48.000Z</time>
      </trkpt>
      <trkpt lat="44.02323" lon="6.02626">
        <ele>824</ele>
        <time>2021-12-21T11:30:49.000Z</time>
      </trkpt>
      <trkpt lat="44.02323" lon="6.02626">
        <ele>824</ele>
        <time>2021-12-21T11:30:50.000Z</time>
      </trkpt>
      <trkpt lat="44.02323" lon="6.02626">
        <ele>824</ele>
        <time>2021-12-21T11:30:51.000Z</time>
      </trkpt>
      <trkpt lat="44.02323" lon="6.02626">
        <ele>824</ele>
        <time>2021-12-21T11:30:52.000Z</time>
      </trkpt>
      <trkpt lat="44.02323" lon="6.02627">
        <ele>824</ele>
        <time>2021-12-21T11:30:53.000Z</time>
      </trkpt>
      <trkpt lat="44.02323" lon="6.02626">
        <ele>824</ele>
        <time>2021-12-21T11:30:54.000Z</time>
      </trkpt>
      <trkpt lat="44.02323" lon="6.02626">
        <ele>824</ele>
        <time>2021-12-21T11:30:55.000Z</time>
      </trkpt>
      <trkpt lat="44.02324" lon="6.02625">
        <ele>824</ele>
        <time>2021-12-21T11:30:56.000Z</time>
      </trkpt>
      <trkpt lat="44.02324" lon="6.02624">
        <ele>824</ele>
        <time>2021-12-21T11:30:57.000Z</time>
      </trkpt>
      <trkpt lat="44.02324" lon="6.02623">
        <ele>824</ele>
        <time>2021-12-21T11:30:58.000Z</time>
      </trkpt>
      <trkpt lat="44.02325" lon="6.02622">
        <ele>823</ele>
        <time>2021-12-21T11:30:59.000Z</time>
      </trkpt>
      <trkpt lat="44.02325" lon="6.02621">
        <ele>823</ele>
        <time>2021-12-21T11:31:00.000Z</time>
      </trkpt>
      <trkpt lat="44.02326" lon="6.0262">
        <ele>823</ele>
        <time>2021-12-21T11:31:01.000Z</time>
      </trkpt>
      <trkpt lat="44.02326" lon="6.02618">
        <ele>823</ele>
        <time>2021-12-21T11:31:02.000Z</time>
      </trkpt>
      <trkpt lat="44.02327" lon="6.02617">
        <ele>823</ele>
        <time>2021-12-21T11:31:03.000Z</time>
      </trkpt>
      <trkpt lat="44.02327" lon="6.02616">
        <ele>823</ele>
        <time>2021-12-21T11:31:04.000Z</time>
      </trkpt>
      <trkpt lat="44.02328" lon="6.02615">
        <ele>823</ele>
        <time>2021-12-21T11:31:05.000Z</time>
      </trkpt>
      <trkpt lat="44.02328" lon="6.02613">
        <ele>822</ele>
        <time>2021-12-21T11:31:06.000Z</time>
      </trkpt>
      <trkpt lat="44.02329" lon="6.02612">
        <ele>822</ele>
        <time>2021-12-21T11:31:07.000Z</time>
      </trkpt>
      <trkpt lat="44.02329" lon="6.02611">
        <ele>822</ele>
        <time>2021-12-21T11:31:08.000Z</time>
      </trkpt>
      <trkpt lat="44.02329" lon="6.02611">
        <ele>822</ele>
        <time>2021-12-21T11:31:09.000Z</time>
      </trkpt>
      <trkpt lat="44.0233" lon="6.0261">
        <ele>822</ele>
        <time>2021-12-21T11:31:10.000Z</time>
      </trkpt>
      <trkpt lat="44.02331" lon="6.02609">
        <ele>822</ele>
        <time>2021-12-21T11:31:11.000Z</time>
      </trkpt>
      <trkpt lat="44.02331" lon="6.02608">
        <ele>822</ele>
        <time>2021-12-21T11:31:12.000Z</time>
      </trkpt>
      <trkpt lat="44.02332" lon="6.02607">
        <ele>822</ele>
        <time>2021-12-21T11:31:13.000Z</time>
      </trkpt>
      <trkpt lat="44.02332" lon="6.02606">
        <ele>822</ele>
        <time>2021-12-21T11:31:14.000Z</time>
      </trkpt>
      <trkpt lat="44.02333" lon="6.02605">
        <ele>821</ele>
        <time>2021-12-21T11:31:15.000Z</time>
      </trkpt>
      <trkpt lat="44.02334" lon="6.02604">
        <ele>821</ele>
        <time>2021-12-21T11:31:16.000Z</time>
      </trkpt>
      <trkpt lat="44.02335" lon="6.02603">
        <ele>821</ele>
        <time>2021-12-21T11:31:17.000Z</time>
      </trkpt>
      <trkpt lat="44.02336" lon="6.02602">
        <ele>821</ele>
        <time>2021-12-21T11:31:18.000Z</time>
      </trkpt>
      <trkpt lat="44.02337" lon="6.02601">
        <ele>821</ele>
        <time>2021-12-21T11:31:19.000Z</time>
      </trkpt>
      <trkpt lat="44.02338" lon="6.026">
        <ele>821</ele>
        <time>2021-12-21T11:31:20.000Z</time>
      </trkpt>
      <trkpt lat="44.02339" lon="6.02599">
        <ele>821</ele>
        <time>2021-12-21T11:31:21.000Z</time>
      </trkpt>
      <trkpt lat="44.0234" lon="6.02598">
        <ele>821</ele>
        <time>2021-12-21T11:31:22.000Z</time>
      </trkpt>
      <trkpt lat="44.0234" lon="6.02597">
        <ele>821</ele>
        <time>2021-12-21T11:31:23.000Z</time>
      </trkpt>
      <trkpt lat="44.02341" lon="6.02597">
        <ele>821</ele>
        <time>2021-12-21T11:31:24.000Z</time>
      </trkpt>
      <trkpt lat="44.02341" lon="6.02597">
        <ele>821</ele>
        <time>2021-12-21T11:31:25.000Z</time>
      </trkpt>
      <trkpt lat="44.02341" lon="6.02597">
        <ele>821</ele>
        <time>2021-12-21T11:31:26.000Z</time>
      </trkpt>
      <trkpt lat="44.02341" lon="6.02596">
        <ele>821</ele>
        <time>2021-12-21T11:31:27.000Z</time>
      </trkpt>
      <trkpt lat="44.02341" lon="6.02596">
        <ele>821</ele>
        <time>2021-12-21T11:31:28.000Z</time>
      </trkpt>
      <trkpt lat="44.02342" lon="6.02595">
        <ele>821</ele>
        <time>2021-12-21T11:31:29.000Z</time>
      </trkpt>
      <trkpt lat="44.02343" lon="6.02594">
        <ele>821</ele>
        <time>2021-12-21T11:31:30.000Z</time>
      </trkpt>
      <trkpt lat="44.02343" lon="6.02594">
        <ele>821</ele>
        <time>2021-12-21T11:31:31.000Z</time>
      </trkpt>
      <trkpt lat="44.02343" lon="6.02594">
        <ele>821</ele>
        <time>2021-12-21T11:31:32.000Z</time>
      </trkpt>
      <trkpt lat="44.02343" lon="6.02594">
        <ele>821</ele>
        <time>2021-12-21T11:31:33.000Z</time>
      </trkpt>
      <trkpt lat="44.02343" lon="6.02594">
        <ele>821</ele>
        <time>2021-12-21T11:31:34.000Z</time>
      </trkpt>
      <trkpt lat="44.02343" lon="6.02593">
        <ele>821</ele>
        <time>2021-12-21T11:31:35.000Z</time>
      </trkpt>
      <trkpt lat="44.02343" lon="6.02593">
        <ele>821</ele>
        <time>2021-12-21T11:31:36.000Z</time>
      </trkpt>
      <trkpt lat="44.02343" lon="6.02593">
        <ele>821</ele>
        <time>2021-12-21T11:31:37.000Z</time>
      </trkpt>
      <trkpt lat="44.02343" lon="6.02593">
        <ele>822</ele>
        <time>2021-12-21T11:31:38.000Z</time>
      </trkpt>
      <trkpt lat="44.02343" lon="6.02593">
        <ele>822</ele>
        <time>2021-12-21T11:31:39.000Z</time>
      </trkpt>
      <trkpt lat="44.02343" lon="6.02593">
        <ele>821</ele>
        <time>2021-12-21T11:31:40.000Z</time>
      </trkpt>
      <trkpt lat="44.02344" lon="6.02592">
        <ele>821</ele>
        <time>2021-12-21T11:31:41.000Z</time>
      </trkpt>
      <trkpt lat="44.02345" lon="6.02591">
        <ele>821</ele>
        <time>2021-12-21T11:31:42.000Z</time>
      </trkpt>
      <trkpt lat="44.02346" lon="6.02589">
        <ele>821</ele>
        <time>2021-12-21T11:31:43.000Z</time>
      </trkpt>
      <trkpt lat="44.02346" lon="6.02588">
        <ele>821</ele>
        <time>2021-12-21T11:31:44.000Z</time>
      </trkpt>
      <trkpt lat="44.02347" lon="6.02587">
        <ele>821</ele>
        <time>2021-12-21T11:31:45.000Z</time>
      </trkpt>
      <trkpt lat="44.02348" lon="6.02585">
        <ele>821</ele>
        <time>2021-12-21T11:31:46.000Z</time>
      </trkpt>
      <trkpt lat="44.02349" lon="6.02584">
        <ele>821</ele>
        <time>2021-12-21T11:31:47.000Z</time>
      </trkpt>
      <trkpt lat="44.0235" lon="6.02582">
        <ele>821</ele>
        <time>2021-12-21T11:31:48.000Z</time>
      </trkpt>
      <trkpt lat="44.0235" lon="6.02581">
        <ele>821</ele>
        <time>2021-12-21T11:31:49.000Z</time>
      </trkpt>
      <trkpt lat="44.02351" lon="6.0258">
        <ele>821</ele>
        <time>2021-12-21T11:31:50.000Z</time>
      </trkpt>
      <trkpt lat="44.02351" lon="6.02578">
        <ele>821</ele>
        <time>2021-12-21T11:31:51.000Z</time>
      </trkpt>
      <trkpt lat="44.02352" lon="6.02577">
        <ele>821</ele>
        <time>2021-12-21T11:31:52.000Z</time>
      </trkpt>
      <trkpt lat="44.02353" lon="6.02575">
        <ele>821</ele>
        <time>2021-12-21T11:31:53.000Z</time>
      </trkpt>
      <trkpt lat="44.02354" lon="6.02574">
        <ele>821</ele>
        <time>2021-12-21T11:31:54.000Z</time>
      </trkpt>
      <trkpt lat="44.02355" lon="6.02573">
        <ele>821</ele>
        <time>2021-12-21T11:31:55.000Z</time>
      </trkpt>
      <trkpt lat="44.02356" lon="6.02572">
        <ele>821</ele>
        <time>2021-12-21T11:31:56.000Z</time>
      </trkpt>
      <trkpt lat="44.02356" lon="6.02571">
        <ele>821</ele>
        <time>2021-12-21T11:31:57.000Z</time>
      </trkpt>
      <trkpt lat="44.02357" lon="6.0257">
        <ele>821</ele>
        <time>2021-12-21T11:31:58.000Z</time>
      </trkpt>
      <trkpt lat="44.02358" lon="6.02568">
        <ele>821</ele>
        <time>2021-12-21T11:31:59.000Z</time>
      </trkpt>
      <trkpt lat="44.02359" lon="6.02567">
        <ele>821</ele>
        <time>2021-12-21T11:32:00.000Z</time>
      </trkpt>
      <trkpt lat="44.0236" lon="6.02566">
        <ele>821</ele>
        <time>2021-12-21T11:32:01.000Z</time>
      </trkpt>
      <trkpt lat="44.02361" lon="6.02565">
        <ele>821</ele>
        <time>2021-12-21T11:32:02.000Z</time>
      </trkpt>
      <trkpt lat="44.02362" lon="6.02564">
        <ele>821</ele>
        <time>2021-12-21T11:32:03.000Z</time>
      </trkpt>
      <trkpt lat="44.02363" lon="6.02563">
        <ele>821</ele>
        <time>2021-12-21T11:32:04.000Z</time>
      </trkpt>
      <trkpt lat="44.02364" lon="6.02562">
        <ele>821</ele>
        <time>2021-12-21T11:32:05.000Z</time>
      </trkpt>
      <trkpt lat="44.02365" lon="6.02561">
        <ele>821</ele>
        <time>2021-12-21T11:32:06.000Z</time>
      </trkpt>
      <trkpt lat="44.02366" lon="6.0256">
        <ele>821</ele>
        <time>2021-12-21T11:32:07.000Z</time>
      </trkpt>
      <trkpt lat="44.02367" lon="6.02559">
        <ele>821</ele>
        <time>2021-12-21T11:32:08.000Z</time>
      </trkpt>
      <trkpt lat="44.02368" lon="6.02558">
        <ele>821</ele>
        <time>2021-12-21T11:32:09.000Z</time>
      </trkpt>
      <trkpt lat="44.02368" lon="6.02557">
        <ele>821</ele>
        <time>2021-12-21T11:32:10.000Z</time>
      </trkpt>
      <trkpt lat="44.02369" lon="6.02556">
        <ele>821</ele>
        <time>2021-12-21T11:32:11.000Z</time>
      </trkpt>
      <trkpt lat="44.0237" lon="6.02555">
        <ele>821</ele>
        <time>2021-12-21T11:32:12.000Z</time>
      </trkpt>
      <trkpt lat="44.0237" lon="6.02553">
        <ele>821</ele>
        <time>2021-12-21T11:32:13.000Z</time>
      </trkpt>
      <trkpt lat="44.02371" lon="6.02552">
        <ele>821</ele>
        <time>2021-12-21T11:32:14.000Z</time>
      </trkpt>
      <trkpt lat="44.02372" lon="6.02552">
        <ele>821</ele>
        <time>2021-12-21T11:32:15.000Z</time>
      </trkpt>
      <trkpt lat="44.02372" lon="6.02551">
        <ele>821</ele>
        <time>2021-12-21T11:32:16.000Z</time>
      </trkpt>
      <trkpt lat="44.02373" lon="6.0255">
        <ele>821</ele>
        <time>2021-12-21T11:32:17.000Z</time>
      </trkpt>
      <trkpt lat="44.02374" lon="6.02549">
        <ele>821</ele>
        <time>2021-12-21T11:32:18.000Z</time>
      </trkpt>
      <trkpt lat="44.02374" lon="6.02548">
        <ele>821</ele>
        <time>2021-12-21T11:32:19.000Z</time>
      </trkpt>
      <trkpt lat="44.02375" lon="6.02548">
        <ele>822</ele>
        <time>2021-12-21T11:32:20.000Z</time>
      </trkpt>
      <trkpt lat="44.02375" lon="6.02547">
        <ele>822</ele>
        <time>2021-12-21T11:32:21.000Z</time>
      </trkpt>
      <trkpt lat="44.02376" lon="6.02546">
        <ele>822</ele>
        <time>2021-12-21T11:32:22.000Z</time>
      </trkpt>
      <trkpt lat="44.02377" lon="6.02545">
        <ele>822</ele>
        <time>2021-12-21T11:32:23.000Z</time>
      </trkpt>
      <trkpt lat="44.02378" lon="6.02544">
        <ele>822</ele>
        <time>2021-12-21T11:32:24.000Z</time>
      </trkpt>
      <trkpt lat="44.02378" lon="6.02543">
        <ele>822</ele>
        <time>2021-12-21T11:32:25.000Z</time>
      </trkpt>
      <trkpt lat="44.02379" lon="6.02541">
        <ele>822</ele>
        <time>2021-12-21T11:32:26.000Z</time>
      </trkpt>
      <trkpt lat="44.0238" lon="6.0254">
        <ele>822</ele>
        <time>2021-12-21T11:32:27.000Z</time>
      </trkpt>
      <trkpt lat="44.0238" lon="6.02539">
        <ele>822</ele>
        <time>2021-12-21T11:32:28.000Z</time>
      </trkpt>
      <trkpt lat="44.02381" lon="6.02538">
        <ele>822</ele>
        <time>2021-12-21T11:32:29.000Z</time>
      </trkpt>
      <trkpt lat="44.02382" lon="6.02536">
        <ele>822</ele>
        <time>2021-12-21T11:32:30.000Z</time>
      </trkpt>
      <trkpt lat="44.02382" lon="6.02535">
        <ele>822</ele>
        <time>2021-12-21T11:32:31.000Z</time>
      </trkpt>
      <trkpt lat="44.02382" lon="6.02534">
        <ele>822</ele>
        <time>2021-12-21T11:32:32.000Z</time>
      </trkpt>
      <trkpt lat="44.02383" lon="6.02534">
        <ele>822</ele>
        <time>2021-12-21T11:32:33.000Z</time>
      </trkpt>
      <trkpt lat="44.02383" lon="6.02534">
        <ele>822</ele>
        <time>2021-12-21T11:32:34.000Z</time>
      </trkpt>
      <trkpt lat="44.02383" lon="6.02534">
        <ele>822</ele>
        <time>2021-12-21T11:32:35.000Z</time>
      </trkpt>
      <trkpt lat="44.02383" lon="6.02532">
        <ele>823</ele>
        <time>2021-12-21T11:32:36.000Z</time>
      </trkpt>
      <trkpt lat="44.02383" lon="6.02531">
        <ele>823</ele>
        <time>2021-12-21T11:32:37.000Z</time>
      </trkpt>
      <trkpt lat="44.02384" lon="6.02529">
        <ele>823</ele>
        <time>2021-12-21T11:32:38.000Z</time>
      </trkpt>
      <trkpt lat="44.02384" lon="6.02528">
        <ele>823</ele>
        <time>2021-12-21T11:32:39.000Z</time>
      </trkpt>
      <trkpt lat="44.02385" lon="6.02527">
        <ele>823</ele>
        <time>2021-12-21T11:32:40.000Z</time>
      </trkpt>
      <trkpt lat="44.02385" lon="6.02525">
        <ele>823</ele>
        <time>2021-12-21T11:32:41.000Z</time>
      </trkpt>
      <trkpt lat="44.02385" lon="6.02524">
        <ele>823</ele>
        <time>2021-12-21T11:32:42.000Z</time>
      </trkpt>
      <trkpt lat="44.02386" lon="6.02523">
        <ele>823</ele>
        <time>2021-12-21T11:32:43.000Z</time>
      </trkpt>
      <trkpt lat="44.02386" lon="6.02521">
        <ele>823</ele>
        <time>2021-12-21T11:32:44.000Z</time>
      </trkpt>
      <trkpt lat="44.02386" lon="6.02519">
        <ele>823</ele>
        <time>2021-12-21T11:32:45.000Z</time>
      </trkpt>
      <trkpt lat="44.02386" lon="6.02518">
        <ele>823</ele>
        <time>2021-12-21T11:32:46.000Z</time>
      </trkpt>
      <trkpt lat="44.02387" lon="6.02517">
        <ele>823</ele>
        <time>2021-12-21T11:32:47.000Z</time>
      </trkpt>
      <trkpt lat="44.02387" lon="6.02515">
        <ele>823</ele>
        <time>2021-12-21T11:32:48.000Z</time>
      </trkpt>
      <trkpt lat="44.02387" lon="6.02514">
        <ele>823</ele>
        <time>2021-12-21T11:32:49.000Z</time>
      </trkpt>
      <trkpt lat="44.02387" lon="6.02513">
        <ele>823</ele>
        <time>2021-12-21T11:32:50.000Z</time>
      </trkpt>
      <trkpt lat="44.02387" lon="6.02511">
        <ele>823</ele>
        <time>2021-12-21T11:32:51.000Z</time>
      </trkpt>
      <trkpt lat="44.02387" lon="6.0251">
        <ele>823</ele>
        <time>2021-12-21T11:32:52.000Z</time>
      </trkpt>
      <trkpt lat="44.02387" lon="6.02508">
        <ele>824</ele>
        <time>2021-12-21T11:32:53.000Z</time>
      </trkpt>
      <trkpt lat="44.02387" lon="6.02507">
        <ele>824</ele>
        <time>2021-12-21T11:32:54.000Z</time>
      </trkpt>
      <trkpt lat="44.02387" lon="6.02506">
        <ele>824</ele>
        <time>2021-12-21T11:32:55.000Z</time>
      </trkpt>
      <trkpt lat="44.02387" lon="6.02504">
        <ele>824</ele>
        <time>2021-12-21T11:32:56.000Z</time>
      </trkpt>
      <trkpt lat="44.02387" lon="6.02503">
        <ele>824</ele>
        <time>2021-12-21T11:32:57.000Z</time>
      </trkpt>
      <trkpt lat="44.02387" lon="6.02501">
        <ele>824</ele>
        <time>2021-12-21T11:32:58.000Z</time>
      </trkpt>
      <trkpt lat="44.02387" lon="6.025">
        <ele>824</ele>
        <time>2021-12-21T11:32:59.000Z</time>
      </trkpt>
      <trkpt lat="44.02387" lon="6.02498">
        <ele>825</ele>
        <time>2021-12-21T11:33:00.000Z</time>
      </trkpt>
      <trkpt lat="44.02387" lon="6.02496">
        <ele>825</ele>
        <time>2021-12-21T11:33:01.000Z</time>
      </trkpt>
      <trkpt lat="44.02387" lon="6.02494">
        <ele>825</ele>
        <time>2021-12-21T11:33:02.000Z</time>
      </trkpt>
      <trkpt lat="44.02387" lon="6.02493">
        <ele>825</ele>
        <time>2021-12-21T11:33:03.000Z</time>
      </trkpt>
      <trkpt lat="44.02387" lon="6.02491">
        <ele>825</ele>
        <time>2021-12-21T11:33:04.000Z</time>
      </trkpt>
      <trkpt lat="44.02388" lon="6.02489">
        <ele>825</ele>
        <time>2021-12-21T11:33:05.000Z</time>
      </trkpt>
      <trkpt lat="44.02388" lon="6.02487">
        <ele>825</ele>
        <time>2021-12-21T11:33:06.000Z</time>
      </trkpt>
      <trkpt lat="44.02389" lon="6.02486">
        <ele>824</ele>
        <time>2021-12-21T11:33:07.000Z</time>
      </trkpt>
      <trkpt lat="44.02389" lon="6.02484">
        <ele>824</ele>
        <time>2021-12-21T11:33:08.000Z</time>
      </trkpt>
      <trkpt lat="44.0239" lon="6.02483">
        <ele>824</ele>
        <time>2021-12-21T11:33:09.000Z</time>
      </trkpt>
      <trkpt lat="44.0239" lon="6.02482">
        <ele>824</ele>
        <time>2021-12-21T11:33:10.000Z</time>
      </trkpt>
      <trkpt lat="44.02391" lon="6.02481">
        <ele>824</ele>
        <time>2021-12-21T11:33:11.000Z</time>
      </trkpt>
      <trkpt lat="44.02391" lon="6.02479">
        <ele>823</ele>
        <time>2021-12-21T11:33:12.000Z</time>
      </trkpt>
      <trkpt lat="44.02392" lon="6.02478">
        <ele>823</ele>
        <time>2021-12-21T11:33:13.000Z</time>
      </trkpt>
      <trkpt lat="44.02393" lon="6.02476">
        <ele>823</ele>
        <time>2021-12-21T11:33:14.000Z</time>
      </trkpt>
      <trkpt lat="44.02393" lon="6.02475">
        <ele>823</ele>
        <time>2021-12-21T11:33:15.000Z</time>
      </trkpt>
      <trkpt lat="44.02394" lon="6.02473">
        <ele>823</ele>
        <time>2021-12-21T11:33:16.000Z</time>
      </trkpt>
      <trkpt lat="44.02394" lon="6.02471">
        <ele>822</ele>
        <time>2021-12-21T11:33:17.000Z</time>
      </trkpt>
      <trkpt lat="44.02395" lon="6.0247">
        <ele>822</ele>
        <time>2021-12-21T11:33:18.000Z</time>
      </trkpt>
      <trkpt lat="44.02395" lon="6.02468">
        <ele>822</ele>
        <time>2021-12-21T11:33:19.000Z</time>
      </trkpt>
      <trkpt lat="44.02395" lon="6.02467">
        <ele>821</ele>
        <time>2021-12-21T11:33:20.000Z</time>
      </trkpt>
      <trkpt lat="44.02396" lon="6.02465">
        <ele>821</ele>
        <time>2021-12-21T11:33:21.000Z</time>
      </trkpt>
      <trkpt lat="44.02396" lon="6.02464">
        <ele>821</ele>
        <time>2021-12-21T11:33:22.000Z</time>
      </trkpt>
      <trkpt lat="44.02397" lon="6.02463">
        <ele>821</ele>
        <time>2021-12-21T11:33:23.000Z</time>
      </trkpt>
      <trkpt lat="44.02398" lon="6.02462">
        <ele>820</ele>
        <time>2021-12-21T11:33:24.000Z</time>
      </trkpt>
      <trkpt lat="44.02398" lon="6.02461">
        <ele>820</ele>
        <time>2021-12-21T11:33:25.000Z</time>
      </trkpt>
      <trkpt lat="44.02398" lon="6.0246">
        <ele>820</ele>
        <time>2021-12-21T11:33:26.000Z</time>
      </trkpt>
      <trkpt lat="44.02398" lon="6.02458">
        <ele>820</ele>
        <time>2021-12-21T11:33:27.000Z</time>
      </trkpt>
      <trkpt lat="44.02399" lon="6.02457">
        <ele>819</ele>
        <time>2021-12-21T11:33:28.000Z</time>
      </trkpt>
      <trkpt lat="44.02399" lon="6.02456">
        <ele>819</ele>
        <time>2021-12-21T11:33:29.000Z</time>
      </trkpt>
      <trkpt lat="44.024" lon="6.02454">
        <ele>819</ele>
        <time>2021-12-21T11:33:30.000Z</time>
      </trkpt>
      <trkpt lat="44.024" lon="6.02453">
        <ele>819</ele>
        <time>2021-12-21T11:33:31.000Z</time>
      </trkpt>
      <trkpt lat="44.024" lon="6.02452">
        <ele>819</ele>
        <time>2021-12-21T11:33:32.000Z</time>
      </trkpt>
      <trkpt lat="44.024" lon="6.02451">
        <ele>818</ele>
        <time>2021-12-21T11:33:33.000Z</time>
      </trkpt>
      <trkpt lat="44.024" lon="6.02449">
        <ele>818</ele>
        <time>2021-12-21T11:33:34.000Z</time>
      </trkpt>
      <trkpt lat="44.024" lon="6.02448">
        <ele>818</ele>
        <time>2021-12-21T11:33:35.000Z</time>
      </trkpt>
      <trkpt lat="44.024" lon="6.02447">
        <ele>818</ele>
        <time>2021-12-21T11:33:36.000Z</time>
      </trkpt>
      <trkpt lat="44.024" lon="6.02445">
        <ele>818</ele>
        <time>2021-12-21T11:33:37.000Z</time>
      </trkpt>
      <trkpt lat="44.02401" lon="6.02444">
        <ele>818</ele>
        <time>2021-12-21T11:33:38.000Z</time>
      </trkpt>
      <trkpt lat="44.024" lon="6.02443">
        <ele>818</ele>
        <time>2021-12-21T11:33:39.000Z</time>
      </trkpt>
      <trkpt lat="44.024" lon="6.02442">
        <ele>817</ele>
        <time>2021-12-21T11:33:40.000Z</time>
      </trkpt>
      <trkpt lat="44.024" lon="6.0244">
        <ele>817</ele>
        <time>2021-12-21T11:33:41.000Z</time>
      </trkpt>
      <trkpt lat="44.024" lon="6.02438">
        <ele>817</ele>
        <time>2021-12-21T11:33:42.000Z</time>
      </trkpt>
      <trkpt lat="44.024" lon="6.02436">
        <ele>817</ele>
        <time>2021-12-21T11:33:43.000Z</time>
      </trkpt>
      <trkpt lat="44.024" lon="6.02435">
        <ele>817</ele>
        <time>2021-12-21T11:33:44.000Z</time>
      </trkpt>
      <trkpt lat="44.024" lon="6.02433">
        <ele>817</ele>
        <time>2021-12-21T11:33:45.000Z</time>
      </trkpt>
      <trkpt lat="44.024" lon="6.02431">
        <ele>816</ele>
        <time>2021-12-21T11:33:46.000Z</time>
      </trkpt>
      <trkpt lat="44.024" lon="6.0243">
        <ele>816</ele>
        <time>2021-12-21T11:33:47.000Z</time>
      </trkpt>
      <trkpt lat="44.024" lon="6.02428">
        <ele>816</ele>
        <time>2021-12-21T11:33:48.000Z</time>
      </trkpt>
      <trkpt lat="44.024" lon="6.02426">
        <ele>816</ele>
        <time>2021-12-21T11:33:49.000Z</time>
      </trkpt>
      <trkpt lat="44.024" lon="6.02425">
        <ele>816</ele>
        <time>2021-12-21T11:33:50.000Z</time>
      </trkpt>
      <trkpt lat="44.02399" lon="6.02424">
        <ele>816</ele>
        <time>2021-12-21T11:33:51.000Z</time>
      </trkpt>
      <trkpt lat="44.02399" lon="6.02423">
        <ele>816</ele>
        <time>2021-12-21T11:33:52.000Z</time>
      </trkpt>
      <trkpt lat="44.02399" lon="6.02423">
        <ele>816</ele>
        <time>2021-12-21T11:33:53.000Z</time>
      </trkpt>
      <trkpt lat="44.02399" lon="6.02423">
        <ele>816</ele>
        <time>2021-12-21T11:33:54.000Z</time>
      </trkpt>
      <trkpt lat="44.02399" lon="6.02423">
        <ele>816</ele>
        <time>2021-12-21T11:33:55.000Z</time>
      </trkpt>
      <trkpt lat="44.02399" lon="6.02423">
        <ele>816</ele>
        <time>2021-12-21T11:33:56.000Z</time>
      </trkpt>
      <trkpt lat="44.02399" lon="6.02423">
        <ele>815</ele>
        <time>2021-12-21T11:33:57.000Z</time>
      </trkpt>
      <trkpt lat="44.02399" lon="6.02423">
        <ele>815</ele>
        <time>2021-12-21T11:33:58.000Z</time>
      </trkpt>
      <trkpt lat="44.02399" lon="6.02423">
        <ele>815</ele>
        <time>2021-12-21T11:33:59.000Z</time>
      </trkpt>
      <trkpt lat="44.02399" lon="6.02423">
        <ele>815</ele>
        <time>2021-12-21T11:34:00.000Z</time>
      </trkpt>
      <trkpt lat="44.02399" lon="6.02423">
        <ele>815</ele>
        <time>2021-12-21T11:34:01.000Z</time>
      </trkpt>
      <trkpt lat="44.02399" lon="6.02422">
        <ele>815</ele>
        <time>2021-12-21T11:34:02.000Z</time>
      </trkpt>
      <trkpt lat="44.02399" lon="6.02421">
        <ele>815</ele>
        <time>2021-12-21T11:34:03.000Z</time>
      </trkpt>
      <trkpt lat="44.02399" lon="6.0242">
        <ele>815</ele>
        <time>2021-12-21T11:34:04.000Z</time>
      </trkpt>
      <trkpt lat="44.02398" lon="6.02419">
        <ele>814</ele>
        <time>2021-12-21T11:34:05.000Z</time>
      </trkpt>
      <trkpt lat="44.02398" lon="6.02418">
        <ele>814</ele>
        <time>2021-12-21T11:34:06.000Z</time>
      </trkpt>
      <trkpt lat="44.02398" lon="6.02416">
        <ele>814</ele>
        <time>2021-12-21T11:34:07.000Z</time>
      </trkpt>
      <trkpt lat="44.02398" lon="6.02415">
        <ele>814</ele>
        <time>2021-12-21T11:34:08.000Z</time>
      </trkpt>
      <trkpt lat="44.02398" lon="6.02413">
        <ele>814</ele>
        <time>2021-12-21T11:34:09.000Z</time>
      </trkpt>
      <trkpt lat="44.02399" lon="6.02412">
        <ele>814</ele>
        <time>2021-12-21T11:34:10.000Z</time>
      </trkpt>
      <trkpt lat="44.02399" lon="6.0241">
        <ele>814</ele>
        <time>2021-12-21T11:34:11.000Z</time>
      </trkpt>
      <trkpt lat="44.02399" lon="6.02408">
        <ele>813</ele>
        <time>2021-12-21T11:34:12.000Z</time>
      </trkpt>
      <trkpt lat="44.02399" lon="6.02407">
        <ele>813</ele>
        <time>2021-12-21T11:34:13.000Z</time>
      </trkpt>
      <trkpt lat="44.024" lon="6.02405">
        <ele>813</ele>
        <time>2021-12-21T11:34:14.000Z</time>
      </trkpt>
      <trkpt lat="44.024" lon="6.02404">
        <ele>813</ele>
        <time>2021-12-21T11:34:15.000Z</time>
      </trkpt>
      <trkpt lat="44.02401" lon="6.02402">
        <ele>813</ele>
        <time>2021-12-21T11:34:16.000Z</time>
      </trkpt>
      <trkpt lat="44.02401" lon="6.024">
        <ele>812</ele>
        <time>2021-12-21T11:34:17.000Z</time>
      </trkpt>
      <trkpt lat="44.02402" lon="6.02398">
        <ele>812</ele>
        <time>2021-12-21T11:34:18.000Z</time>
      </trkpt>
      <trkpt lat="44.02402" lon="6.02397">
        <ele>812</ele>
        <time>2021-12-21T11:34:19.000Z</time>
      </trkpt>
      <trkpt lat="44.02403" lon="6.02395">
        <ele>811</ele>
        <time>2021-12-21T11:34:20.000Z</time>
      </trkpt>
      <trkpt lat="44.02404" lon="6.02394">
        <ele>811</ele>
        <time>2021-12-21T11:34:21.000Z</time>
      </trkpt>
      <trkpt lat="44.02405" lon="6.02393">
        <ele>811</ele>
        <time>2021-12-21T11:34:22.000Z</time>
      </trkpt>
      <trkpt lat="44.02406" lon="6.02392">
        <ele>810</ele>
        <time>2021-12-21T11:34:23.000Z</time>
      </trkpt>
      <trkpt lat="44.02407" lon="6.02391">
        <ele>810</ele>
        <time>2021-12-21T11:34:24.000Z</time>
      </trkpt>
      <trkpt lat="44.02407" lon="6.02389">
        <ele>810</ele>
        <time>2021-12-21T11:34:25.000Z</time>
      </trkpt>
      <trkpt lat="44.02408" lon="6.02388">
        <ele>810</ele>
        <time>2021-12-21T11:34:26.000Z</time>
      </trkpt>
      <trkpt lat="44.02409" lon="6.02386">
        <ele>809</ele>
        <time>2021-12-21T11:34:27.000Z</time>
      </trkpt>
      <trkpt lat="44.02409" lon="6.02385">
        <ele>809</ele>
        <time>2021-12-21T11:34:28.000Z</time>
      </trkpt>
      <trkpt lat="44.0241" lon="6.02383">
        <ele>809</ele>
        <time>2021-12-21T11:34:29.000Z</time>
      </trkpt>
      <trkpt lat="44.0241" lon="6.02382">
        <ele>809</ele>
        <time>2021-12-21T11:34:30.000Z</time>
      </trkpt>
      <trkpt lat="44.02411" lon="6.0238">
        <ele>809</ele>
        <time>2021-12-21T11:34:31.000Z</time>
      </trkpt>
      <trkpt lat="44.02411" lon="6.02379">
        <ele>808</ele>
        <time>2021-12-21T11:34:32.000Z</time>
      </trkpt>
      <trkpt lat="44.02412" lon="6.02377">
        <ele>808</ele>
        <time>2021-12-21T11:34:33.000Z</time>
      </trkpt>
      <trkpt lat="44.02412" lon="6.02376">
        <ele>808</ele>
        <time>2021-12-21T11:34:34.000Z</time>
      </trkpt>
      <trkpt lat="44.02413" lon="6.02375">
        <ele>808</ele>
        <time>2021-12-21T11:34:35.000Z</time>
      </trkpt>
      <trkpt lat="44.02413" lon="6.02373">
        <ele>807</ele>
        <time>2021-12-21T11:34:36.000Z</time>
      </trkpt>
      <trkpt lat="44.02414" lon="6.02372">
        <ele>807</ele>
        <time>2021-12-21T11:34:37.000Z</time>
      </trkpt>
      <trkpt lat="44.02414" lon="6.02371">
        <ele>807</ele>
        <time>2021-12-21T11:34:38.000Z</time>
      </trkpt>
      <trkpt lat="44.02415" lon="6.02369">
        <ele>807</ele>
        <time>2021-12-21T11:34:39.000Z</time>
      </trkpt>
      <trkpt lat="44.02416" lon="6.02368">
        <ele>806</ele>
        <time>2021-12-21T11:34:40.000Z</time>
      </trkpt>
      <trkpt lat="44.02416" lon="6.02367">
        <ele>806</ele>
        <time>2021-12-21T11:34:41.000Z</time>
      </trkpt>
      <trkpt lat="44.02417" lon="6.02365">
        <ele>806</ele>
        <time>2021-12-21T11:34:42.000Z</time>
      </trkpt>
      <trkpt lat="44.02417" lon="6.02364">
        <ele>806</ele>
        <time>2021-12-21T11:34:43.000Z</time>
      </trkpt>
      <trkpt lat="44.02418" lon="6.02363">
        <ele>806</ele>
        <time>2021-12-21T11:34:44.000Z</time>
      </trkpt>
      <trkpt lat="44.02418" lon="6.02361">
        <ele>806</ele>
        <time>2021-12-21T11:34:45.000Z</time>
      </trkpt>
      <trkpt lat="44.02419" lon="6.0236">
        <ele>805</ele>
        <time>2021-12-21T11:34:46.000Z</time>
      </trkpt>
      <trkpt lat="44.0242" lon="6.02358">
        <ele>805</ele>
        <time>2021-12-21T11:34:47.000Z</time>
      </trkpt>
      <trkpt lat="44.0242" lon="6.02357">
        <ele>805</ele>
        <time>2021-12-21T11:34:48.000Z</time>
      </trkpt>
      <trkpt lat="44.02421" lon="6.02356">
        <ele>805</ele>
        <time>2021-12-21T11:34:49.000Z</time>
      </trkpt>
      <trkpt lat="44.02421" lon="6.02355">
        <ele>805</ele>
        <time>2021-12-21T11:34:50.000Z</time>
      </trkpt>
      <trkpt lat="44.02422" lon="6.02354">
        <ele>804</ele>
        <time>2021-12-21T11:34:51.000Z</time>
      </trkpt>
      <trkpt lat="44.02422" lon="6.02352">
        <ele>804</ele>
        <time>2021-12-21T11:34:52.000Z</time>
      </trkpt>
      <trkpt lat="44.02423" lon="6.02351">
        <ele>804</ele>
        <time>2021-12-21T11:34:53.000Z</time>
      </trkpt>
      <trkpt lat="44.02423" lon="6.0235">
        <ele>804</ele>
        <time>2021-12-21T11:34:54.000Z</time>
      </trkpt>
      <trkpt lat="44.02424" lon="6.02348">
        <ele>804</ele>
        <time>2021-12-21T11:34:55.000Z</time>
      </trkpt>
      <trkpt lat="44.02424" lon="6.02347">
        <ele>803</ele>
        <time>2021-12-21T11:34:56.000Z</time>
      </trkpt>
      <trkpt lat="44.02425" lon="6.02346">
        <ele>803</ele>
        <time>2021-12-21T11:34:57.000Z</time>
      </trkpt>
      <trkpt lat="44.02426" lon="6.02344">
        <ele>803</ele>
        <time>2021-12-21T11:34:58.000Z</time>
      </trkpt>
      <trkpt lat="44.02426" lon="6.02343">
        <ele>803</ele>
        <time>2021-12-21T11:34:59.000Z</time>
      </trkpt>
      <trkpt lat="44.02427" lon="6.02342">
        <ele>802</ele>
        <time>2021-12-21T11:35:00.000Z</time>
      </trkpt>
      <trkpt lat="44.02427" lon="6.02341">
        <ele>802</ele>
        <time>2021-12-21T11:35:01.000Z</time>
      </trkpt>
      <trkpt lat="44.02428" lon="6.0234">
        <ele>802</ele>
        <time>2021-12-21T11:35:02.000Z</time>
      </trkpt>
      <trkpt lat="44.02428" lon="6.02338">
        <ele>802</ele>
        <time>2021-12-21T11:35:03.000Z</time>
      </trkpt>
      <trkpt lat="44.02429" lon="6.02337">
        <ele>802</ele>
        <time>2021-12-21T11:35:04.000Z</time>
      </trkpt>
      <trkpt lat="44.02429" lon="6.02335">
        <ele>802</ele>
        <time>2021-12-21T11:35:05.000Z</time>
      </trkpt>
      <trkpt lat="44.0243" lon="6.02334">
        <ele>802</ele>
        <time>2021-12-21T11:35:06.000Z</time>
      </trkpt>
      <trkpt lat="44.0243" lon="6.02332">
        <ele>802</ele>
        <time>2021-12-21T11:35:07.000Z</time>
      </trkpt>
      <trkpt lat="44.0243" lon="6.02331">
        <ele>802</ele>
        <time>2021-12-21T11:35:08.000Z</time>
      </trkpt>
      <trkpt lat="44.02431" lon="6.0233">
        <ele>802</ele>
        <time>2021-12-21T11:35:09.000Z</time>
      </trkpt>
      <trkpt lat="44.02431" lon="6.02328">
        <ele>801</ele>
        <time>2021-12-21T11:35:10.000Z</time>
      </trkpt>
      <trkpt lat="44.02432" lon="6.02327">
        <ele>801</ele>
        <time>2021-12-21T11:35:11.000Z</time>
      </trkpt>
      <trkpt lat="44.02432" lon="6.02325">
        <ele>801</ele>
        <time>2021-12-21T11:35:12.000Z</time>
      </trkpt>
      <trkpt lat="44.02433" lon="6.02324">
        <ele>801</ele>
        <time>2021-12-21T11:35:13.000Z</time>
      </trkpt>
      <trkpt lat="44.02434" lon="6.02322">
        <ele>801</ele>
        <time>2021-12-21T11:35:14.000Z</time>
      </trkpt>
      <trkpt lat="44.02434" lon="6.02321">
        <ele>801</ele>
        <time>2021-12-21T11:35:15.000Z</time>
      </trkpt>
      <trkpt lat="44.02435" lon="6.0232">
        <ele>801</ele>
        <time>2021-12-21T11:35:16.000Z</time>
      </trkpt>
      <trkpt lat="44.02435" lon="6.02318">
        <ele>800</ele>
        <time>2021-12-21T11:35:17.000Z</time>
      </trkpt>
      <trkpt lat="44.02436" lon="6.02317">
        <ele>800</ele>
        <time>2021-12-21T11:35:18.000Z</time>
      </trkpt>
      <trkpt lat="44.02436" lon="6.02315">
        <ele>800</ele>
        <time>2021-12-21T11:35:19.000Z</time>
      </trkpt>
      <trkpt lat="44.02437" lon="6.02314">
        <ele>800</ele>
        <time>2021-12-21T11:35:20.000Z</time>
      </trkpt>
      <trkpt lat="44.02438" lon="6.02312">
        <ele>800</ele>
        <time>2021-12-21T11:35:21.000Z</time>
      </trkpt>
      <trkpt lat="44.02438" lon="6.02311">
        <ele>800</ele>
        <time>2021-12-21T11:35:22.000Z</time>
      </trkpt>
      <trkpt lat="44.02439" lon="6.0231">
        <ele>799</ele>
        <time>2021-12-21T11:35:23.000Z</time>
      </trkpt>
      <trkpt lat="44.0244" lon="6.02308">
        <ele>799</ele>
        <time>2021-12-21T11:35:24.000Z</time>
      </trkpt>
      <trkpt lat="44.0244" lon="6.02307">
        <ele>799</ele>
        <time>2021-12-21T11:35:25.000Z</time>
      </trkpt>
      <trkpt lat="44.0244" lon="6.02306">
        <ele>799</ele>
        <time>2021-12-21T11:35:26.000Z</time>
      </trkpt>
      <trkpt lat="44.0244" lon="6.02304">
        <ele>799</ele>
        <time>2021-12-21T11:35:27.000Z</time>
      </trkpt>
      <trkpt lat="44.02441" lon="6.02303">
        <ele>799</ele>
        <time>2021-12-21T11:35:28.000Z</time>
      </trkpt>
      <trkpt lat="44.02441" lon="6.02302">
        <ele>799</ele>
        <time>2021-12-21T11:35:29.000Z</time>
      </trkpt>
      <trkpt lat="44.02441" lon="6.023">
        <ele>798</ele>
        <time>2021-12-21T11:35:30.000Z</time>
      </trkpt>
      <trkpt lat="44.02441" lon="6.02299">
        <ele>798</ele>
        <time>2021-12-21T11:35:31.000Z</time>
      </trkpt>
      <trkpt lat="44.02441" lon="6.02298">
        <ele>798</ele>
        <time>2021-12-21T11:35:32.000Z</time>
      </trkpt>
      <trkpt lat="44.02442" lon="6.02296">
        <ele>798</ele>
        <time>2021-12-21T11:35:33.000Z</time>
      </trkpt>
      <trkpt lat="44.02442" lon="6.02295">
        <ele>798</ele>
        <time>2021-12-21T11:35:34.000Z</time>
      </trkpt>
      <trkpt lat="44.02443" lon="6.02293">
        <ele>797</ele>
        <time>2021-12-21T11:35:35.000Z</time>
      </trkpt>
      <trkpt lat="44.02444" lon="6.02292">
        <ele>797</ele>
        <time>2021-12-21T11:35:36.000Z</time>
      </trkpt>
      <trkpt lat="44.02444" lon="6.02291">
        <ele>797</ele>
        <time>2021-12-21T11:35:37.000Z</time>
      </trkpt>
      <trkpt lat="44.02445" lon="6.0229">
        <ele>797</ele>
        <time>2021-12-21T11:35:38.000Z</time>
      </trkpt>
      <trkpt lat="44.02445" lon="6.02289">
        <ele>797</ele>
        <time>2021-12-21T11:35:39.000Z</time>
      </trkpt>
      <trkpt lat="44.02446" lon="6.02288">
        <ele>797</ele>
        <time>2021-12-21T11:35:40.000Z</time>
      </trkpt>
      <trkpt lat="44.02447" lon="6.02287">
        <ele>797</ele>
        <time>2021-12-21T11:35:41.000Z</time>
      </trkpt>
      <trkpt lat="44.02448" lon="6.02286">
        <ele>796</ele>
        <time>2021-12-21T11:35:42.000Z</time>
      </trkpt>
      <trkpt lat="44.02449" lon="6.02285">
        <ele>796</ele>
        <time>2021-12-21T11:35:43.000Z</time>
      </trkpt>
      <trkpt lat="44.02449" lon="6.02284">
        <ele>796</ele>
        <time>2021-12-21T11:35:44.000Z</time>
      </trkpt>
      <trkpt lat="44.02449" lon="6.02283">
        <ele>796</ele>
        <time>2021-12-21T11:35:45.000Z</time>
      </trkpt>
      <trkpt lat="44.0245" lon="6.02282">
        <ele>795</ele>
        <time>2021-12-21T11:35:46.000Z</time>
      </trkpt>
      <trkpt lat="44.0245" lon="6.02282">
        <ele>795</ele>
        <time>2021-12-21T11:35:47.000Z</time>
      </trkpt>
      <trkpt lat="44.0245" lon="6.02282">
        <ele>795</ele>
        <time>2021-12-21T11:35:48.000Z</time>
      </trkpt>
      <trkpt lat="44.0245" lon="6.02282">
        <ele>795</ele>
        <time>2021-12-21T11:35:49.000Z</time>
      </trkpt>
      <trkpt lat="44.0245" lon="6.02282">
        <ele>795</ele>
        <time>2021-12-21T11:35:50.000Z</time>
      </trkpt>
      <trkpt lat="44.0245" lon="6.02282">
        <ele>795</ele>
        <time>2021-12-21T11:35:51.000Z</time>
      </trkpt>
      <trkpt lat="44.0245" lon="6.02282">
        <ele>795</ele>
        <time>2021-12-21T11:35:52.000Z</time>
      </trkpt>
      <trkpt lat="44.0245" lon="6.02282">
        <ele>795</ele>
        <time>2021-12-21T11:35:53.000Z</time>
      </trkpt>
      <trkpt lat="44.0245" lon="6.02282">
        <ele>795</ele>
        <time>2021-12-21T11:35:54.000Z</time>
      </trkpt>
      <trkpt lat="44.0245" lon="6.02282">
        <ele>795</ele>
        <time>2021-12-21T11:35:55.000Z</time>
      </trkpt>
      <trkpt lat="44.02451" lon="6.02282">
        <ele>795</ele>
        <time>2021-12-21T11:35:56.000Z</time>
      </trkpt>
      <trkpt lat="44.02451" lon="6.02282">
        <ele>795</ele>
        <time>2021-12-21T11:35:57.000Z</time>
      </trkpt>
      <trkpt lat="44.02451" lon="6.02282">
        <ele>795</ele>
        <time>2021-12-21T11:35:58.000Z</time>
      </trkpt>
      <trkpt lat="44.02451" lon="6.02282">
        <ele>795</ele>
        <time>2021-12-21T11:35:59.000Z</time>
      </trkpt>
      <trkpt lat="44.02451" lon="6.02282">
        <ele>794</ele>
        <time>2021-12-21T11:36:00.000Z</time>
      </trkpt>
      <trkpt lat="44.02451" lon="6.02282">
        <ele>794</ele>
        <time>2021-12-21T11:36:01.000Z</time>
      </trkpt>
      <trkpt lat="44.02451" lon="6.02282">
        <ele>794</ele>
        <time>2021-12-21T11:36:02.000Z</time>
      </trkpt>
      <trkpt lat="44.02451" lon="6.02282">
        <ele>794</ele>
        <time>2021-12-21T11:36:03.000Z</time>
      </trkpt>
      <trkpt lat="44.02451" lon="6.02282">
        <ele>794</ele>
        <time>2021-12-21T11:36:04.000Z</time>
      </trkpt>
      <trkpt lat="44.02451" lon="6.02282">
        <ele>794</ele>
        <time>2021-12-21T11:36:05.000Z</time>
      </trkpt>
      <trkpt lat="44.02451" lon="6.02282">
        <ele>794</ele>
        <time>2021-12-21T11:36:06.000Z</time>
      </trkpt>
      <trkpt lat="44.02451" lon="6.02282">
        <ele>794</ele>
        <time>2021-12-21T11:36:07.000Z</time>
      </trkpt>
      <trkpt lat="44.02451" lon="6.02282">
        <ele>794</ele>
        <time>2021-12-21T11:36:08.000Z</time>
      </trkpt>
      <trkpt lat="44.02451" lon="6.02282">
        <ele>794</ele>
        <time>2021-12-21T11:36:09.000Z</time>
      </trkpt>
      <trkpt lat="44.02451" lon="6.02282">
        <ele>794</ele>
        <time>2021-12-21T11:36:10.000Z</time>
      </trkpt>
      <trkpt lat="44.02451" lon="6.02282">
        <ele>794</ele>
        <time>2021-12-21T11:36:11.000Z</time>
      </trkpt>
      <trkpt lat="44.02451" lon="6.02282">
        <ele>794</ele>
        <time>2021-12-21T11:36:12.000Z</time>
      </trkpt>
      <trkpt lat="44.02451" lon="6.02282">
        <ele>794</ele>
        <time>2021-12-21T11:36:13.000Z</time>
      </trkpt>
      <trkpt lat="44.02451" lon="6.02282">
        <ele>794</ele>
        <time>2021-12-21T11:36:14.000Z</time>
      </trkpt>
      <trkpt lat="44.02451" lon="6.02282">
        <ele>794</ele>
        <time>2021-12-21T11:36:15.000Z</time>
      </trkpt>
      <trkpt lat="44.02451" lon="6.02282">
        <ele>794</ele>
        <time>2021-12-21T11:36:16.000Z</time>
      </trkpt>
      <trkpt lat="44.02451" lon="6.02282">
        <ele>794</ele>
        <time>2021-12-21T11:36:17.000Z</time>
      </trkpt>
      <trkpt lat="44.02451" lon="6.02281">
        <ele>794</ele>
        <time>2021-12-21T11:36:18.000Z</time>
      </trkpt>
      <trkpt lat="44.02451" lon="6.02281">
        <ele>794</ele>
        <time>2021-12-21T11:36:19.000Z</time>
      </trkpt>
      <trkpt lat="44.02451" lon="6.0228">
        <ele>794</ele>
        <time>2021-12-21T11:36:20.000Z</time>
      </trkpt>
      <trkpt lat="44.02451" lon="6.02279">
        <ele>794</ele>
        <time>2021-12-21T11:36:21.000Z</time>
      </trkpt>
      <trkpt lat="44.02452" lon="6.02277">
        <ele>794</ele>
        <time>2021-12-21T11:36:22.000Z</time>
      </trkpt>
      <trkpt lat="44.02452" lon="6.02276">
        <ele>794</ele>
        <time>2021-12-21T11:36:23.000Z</time>
      </trkpt>
      <trkpt lat="44.02452" lon="6.02275">
        <ele>794</ele>
        <time>2021-12-21T11:36:24.000Z</time>
      </trkpt>
      <trkpt lat="44.02452" lon="6.02274">
        <ele>795</ele>
        <time>2021-12-21T11:36:25.000Z</time>
      </trkpt>
      <trkpt lat="44.02451" lon="6.02272">
        <ele>795</ele>
        <time>2021-12-21T11:36:26.000Z</time>
      </trkpt>
      <trkpt lat="44.02451" lon="6.02272">
        <ele>795</ele>
        <time>2021-12-21T11:36:27.000Z</time>
      </trkpt>
      <trkpt lat="44.02451" lon="6.02271">
        <ele>795</ele>
        <time>2021-12-21T11:36:28.000Z</time>
      </trkpt>
      <trkpt lat="44.02451" lon="6.0227">
        <ele>795</ele>
        <time>2021-12-21T11:36:29.000Z</time>
      </trkpt>
      <trkpt lat="44.02451" lon="6.02269">
        <ele>795</ele>
        <time>2021-12-21T11:36:30.000Z</time>
      </trkpt>
      <trkpt lat="44.0245" lon="6.02268">
        <ele>795</ele>
        <time>2021-12-21T11:36:31.000Z</time>
      </trkpt>
      <trkpt lat="44.0245" lon="6.02267">
        <ele>794</ele>
        <time>2021-12-21T11:36:32.000Z</time>
      </trkpt>
      <trkpt lat="44.0245" lon="6.02266">
        <ele>794</ele>
        <time>2021-12-21T11:36:33.000Z</time>
      </trkpt>
      <trkpt lat="44.0245" lon="6.02265">
        <ele>794</ele>
        <time>2021-12-21T11:36:34.000Z</time>
      </trkpt>
      <trkpt lat="44.0245" lon="6.02264">
        <ele>794</ele>
        <time>2021-12-21T11:36:35.000Z</time>
      </trkpt>
      <trkpt lat="44.02449" lon="6.02263">
        <ele>794</ele>
        <time>2021-12-21T11:36:36.000Z</time>
      </trkpt>
      <trkpt lat="44.02449" lon="6.02263">
        <ele>794</ele>
        <time>2021-12-21T11:36:37.000Z</time>
      </trkpt>
      <trkpt lat="44.02448" lon="6.02262">
        <ele>794</ele>
        <time>2021-12-21T11:36:38.000Z</time>
      </trkpt>
      <trkpt lat="44.02448" lon="6.02261">
        <ele>794</ele>
        <time>2021-12-21T11:36:39.000Z</time>
      </trkpt>
      <trkpt lat="44.02448" lon="6.0226">
        <ele>794</ele>
        <time>2021-12-21T11:36:40.000Z</time>
      </trkpt>
      <trkpt lat="44.02448" lon="6.02258">
        <ele>794</ele>
        <time>2021-12-21T11:36:41.000Z</time>
      </trkpt>
      <trkpt lat="44.02449" lon="6.02257">
        <ele>793</ele>
        <time>2021-12-21T11:36:42.000Z</time>
      </trkpt>
      <trkpt lat="44.02449" lon="6.02256">
        <ele>793</ele>
        <time>2021-12-21T11:36:43.000Z</time>
      </trkpt>
      <trkpt lat="44.0245" lon="6.02255">
        <ele>793</ele>
        <time>2021-12-21T11:36:44.000Z</time>
      </trkpt>
      <trkpt lat="44.0245" lon="6.02253">
        <ele>792</ele>
        <time>2021-12-21T11:36:45.000Z</time>
      </trkpt>
      <trkpt lat="44.02451" lon="6.02252">
        <ele>792</ele>
        <time>2021-12-21T11:36:46.000Z</time>
      </trkpt>
      <trkpt lat="44.02451" lon="6.02251">
        <ele>792</ele>
        <time>2021-12-21T11:36:47.000Z</time>
      </trkpt>
      <trkpt lat="44.02452" lon="6.02251">
        <ele>791</ele>
        <time>2021-12-21T11:36:48.000Z</time>
      </trkpt>
      <trkpt lat="44.02453" lon="6.0225">
        <ele>791</ele>
        <time>2021-12-21T11:36:49.000Z</time>
      </trkpt>
      <trkpt lat="44.02454" lon="6.02249">
        <ele>790</ele>
        <time>2021-12-21T11:36:50.000Z</time>
      </trkpt>
      <trkpt lat="44.02455" lon="6.02248">
        <ele>790</ele>
        <time>2021-12-21T11:36:51.000Z</time>
      </trkpt>
      <trkpt lat="44.02455" lon="6.02247">
        <ele>790</ele>
        <time>2021-12-21T11:36:52.000Z</time>
      </trkpt>
      <trkpt lat="44.02456" lon="6.02246">
        <ele>789</ele>
        <time>2021-12-21T11:36:53.000Z</time>
      </trkpt>
      <trkpt lat="44.02457" lon="6.02244">
        <ele>789</ele>
        <time>2021-12-21T11:36:54.000Z</time>
      </trkpt>
      <trkpt lat="44.02458" lon="6.02243">
        <ele>788</ele>
        <time>2021-12-21T11:36:55.000Z</time>
      </trkpt>
      <trkpt lat="44.02458" lon="6.02241">
        <ele>788</ele>
        <time>2021-12-21T11:36:56.000Z</time>
      </trkpt>
      <trkpt lat="44.02459" lon="6.0224">
        <ele>787</ele>
        <time>2021-12-21T11:36:57.000Z</time>
      </trkpt>
      <trkpt lat="44.0246" lon="6.02239">
        <ele>787</ele>
        <time>2021-12-21T11:36:58.000Z</time>
      </trkpt>
      <trkpt lat="44.02461" lon="6.02237">
        <ele>786</ele>
        <time>2021-12-21T11:36:59.000Z</time>
      </trkpt>
      <trkpt lat="44.02461" lon="6.02236">
        <ele>786</ele>
        <time>2021-12-21T11:37:00.000Z</time>
      </trkpt>
      <trkpt lat="44.02462" lon="6.02234">
        <ele>785</ele>
        <time>2021-12-21T11:37:01.000Z</time>
      </trkpt>
      <trkpt lat="44.02463" lon="6.02233">
        <ele>785</ele>
        <time>2021-12-21T11:37:02.000Z</time>
      </trkpt>
      <trkpt lat="44.02463" lon="6.02232">
        <ele>785</ele>
        <time>2021-12-21T11:37:03.000Z</time>
      </trkpt>
      <trkpt lat="44.02464" lon="6.0223">
        <ele>785</ele>
        <time>2021-12-21T11:37:04.000Z</time>
      </trkpt>
      <trkpt lat="44.02464" lon="6.02229">
        <ele>784</ele>
        <time>2021-12-21T11:37:05.000Z</time>
      </trkpt>
      <trkpt lat="44.02465" lon="6.02227">
        <ele>784</ele>
        <time>2021-12-21T11:37:06.000Z</time>
      </trkpt>
      <trkpt lat="44.02465" lon="6.02226">
        <ele>784</ele>
        <time>2021-12-21T11:37:07.000Z</time>
      </trkpt>
      <trkpt lat="44.02465" lon="6.02224">
        <ele>784</ele>
        <time>2021-12-21T11:37:08.000Z</time>
      </trkpt>
      <trkpt lat="44.02465" lon="6.02223">
        <ele>784</ele>
        <time>2021-12-21T11:37:09.000Z</time>
      </trkpt>
      <trkpt lat="44.02465" lon="6.02221">
        <ele>784</ele>
        <time>2021-12-21T11:37:10.000Z</time>
      </trkpt>
      <trkpt lat="44.02465" lon="6.0222">
        <ele>783</ele>
        <time>2021-12-21T11:37:11.000Z</time>
      </trkpt>
      <trkpt lat="44.02464" lon="6.02218">
        <ele>783</ele>
        <time>2021-12-21T11:37:12.000Z</time>
      </trkpt>
      <trkpt lat="44.02464" lon="6.02217">
        <ele>783</ele>
        <time>2021-12-21T11:37:13.000Z</time>
      </trkpt>
      <trkpt lat="44.02464" lon="6.02216">
        <ele>783</ele>
        <time>2021-12-21T11:37:14.000Z</time>
      </trkpt>
      <trkpt lat="44.02463" lon="6.02214">
        <ele>783</ele>
        <time>2021-12-21T11:37:15.000Z</time>
      </trkpt>
      <trkpt lat="44.02463" lon="6.02213">
        <ele>783</ele>
        <time>2021-12-21T11:37:16.000Z</time>
      </trkpt>
      <trkpt lat="44.02462" lon="6.02212">
        <ele>782</ele>
        <time>2021-12-21T11:37:17.000Z</time>
      </trkpt>
      <trkpt lat="44.02462" lon="6.02211">
        <ele>782</ele>
        <time>2021-12-21T11:37:18.000Z</time>
      </trkpt>
      <trkpt lat="44.02462" lon="6.02209">
        <ele>782</ele>
        <time>2021-12-21T11:37:19.000Z</time>
      </trkpt>
      <trkpt lat="44.02462" lon="6.02207">
        <ele>782</ele>
        <time>2021-12-21T11:37:20.000Z</time>
      </trkpt>
      <trkpt lat="44.02461" lon="6.02206">
        <ele>782</ele>
        <time>2021-12-21T11:37:21.000Z</time>
      </trkpt>
      <trkpt lat="44.02461" lon="6.02204">
        <ele>782</ele>
        <time>2021-12-21T11:37:22.000Z</time>
      </trkpt>
      <trkpt lat="44.02461" lon="6.02203">
        <ele>782</ele>
        <time>2021-12-21T11:37:23.000Z</time>
      </trkpt>
      <trkpt lat="44.02461" lon="6.02201">
        <ele>782</ele>
        <time>2021-12-21T11:37:24.000Z</time>
      </trkpt>
      <trkpt lat="44.02462" lon="6.022">
        <ele>782</ele>
        <time>2021-12-21T11:37:25.000Z</time>
      </trkpt>
      <trkpt lat="44.02462" lon="6.02199">
        <ele>782</ele>
        <time>2021-12-21T11:37:26.000Z</time>
      </trkpt>
      <trkpt lat="44.02461" lon="6.02197">
        <ele>782</ele>
        <time>2021-12-21T11:37:27.000Z</time>
      </trkpt>
      <trkpt lat="44.02461" lon="6.02196">
        <ele>782</ele>
        <time>2021-12-21T11:37:28.000Z</time>
      </trkpt>
      <trkpt lat="44.02461" lon="6.02194">
        <ele>782</ele>
        <time>2021-12-21T11:37:29.000Z</time>
      </trkpt>
      <trkpt lat="44.02461" lon="6.02192">
        <ele>782</ele>
        <time>2021-12-21T11:37:30.000Z</time>
      </trkpt>
      <trkpt lat="44.02461" lon="6.02191">
        <ele>782</ele>
        <time>2021-12-21T11:37:31.000Z</time>
      </trkpt>
      <trkpt lat="44.02461" lon="6.02189">
        <ele>782</ele>
        <time>2021-12-21T11:37:32.000Z</time>
      </trkpt>
      <trkpt lat="44.02461" lon="6.02187">
        <ele>782</ele>
        <time>2021-12-21T11:37:33.000Z</time>
      </trkpt>
      <trkpt lat="44.0246" lon="6.02186">
        <ele>782</ele>
        <time>2021-12-21T11:37:34.000Z</time>
      </trkpt>
      <trkpt lat="44.0246" lon="6.02184">
        <ele>782</ele>
        <time>2021-12-21T11:37:35.000Z</time>
      </trkpt>
      <trkpt lat="44.02461" lon="6.02183">
        <ele>782</ele>
        <time>2021-12-21T11:37:36.000Z</time>
      </trkpt>
      <trkpt lat="44.0246" lon="6.02181">
        <ele>782</ele>
        <time>2021-12-21T11:37:37.000Z</time>
      </trkpt>
      <trkpt lat="44.0246" lon="6.0218">
        <ele>782</ele>
        <time>2021-12-21T11:37:38.000Z</time>
      </trkpt>
      <trkpt lat="44.0246" lon="6.02178">
        <ele>782</ele>
        <time>2021-12-21T11:37:39.000Z</time>
      </trkpt>
      <trkpt lat="44.0246" lon="6.02177">
        <ele>782</ele>
        <time>2021-12-21T11:37:40.000Z</time>
      </trkpt>
      <trkpt lat="44.0246" lon="6.02175">
        <ele>782</ele>
        <time>2021-12-21T11:37:41.000Z</time>
      </trkpt>
      <trkpt lat="44.0246" lon="6.02174">
        <ele>782</ele>
        <time>2021-12-21T11:37:42.000Z</time>
      </trkpt>
      <trkpt lat="44.0246" lon="6.02172">
        <ele>782</ele>
        <time>2021-12-21T11:37:43.000Z</time>
      </trkpt>
      <trkpt lat="44.0246" lon="6.02171">
        <ele>782</ele>
        <time>2021-12-21T11:37:44.000Z</time>
      </trkpt>
      <trkpt lat="44.0246" lon="6.02169">
        <ele>782</ele>
        <time>2021-12-21T11:37:45.000Z</time>
      </trkpt>
      <trkpt lat="44.02459" lon="6.02168">
        <ele>782</ele>
        <time>2021-12-21T11:37:46.000Z</time>
      </trkpt>
      <trkpt lat="44.02459" lon="6.02166">
        <ele>782</ele>
        <time>2021-12-21T11:37:47.000Z</time>
      </trkpt>
      <trkpt lat="44.02459" lon="6.02164">
        <ele>782</ele>
        <time>2021-12-21T11:37:48.000Z</time>
      </trkpt>
      <trkpt lat="44.02459" lon="6.02163">
        <ele>782</ele>
        <time>2021-12-21T11:37:49.000Z</time>
      </trkpt>
      <trkpt lat="44.02459" lon="6.02161">
        <ele>782</ele>
        <time>2021-12-21T11:37:50.000Z</time>
      </trkpt>
      <trkpt lat="44.02458" lon="6.0216">
        <ele>782</ele>
        <time>2021-12-21T11:37:51.000Z</time>
      </trkpt>
      <trkpt lat="44.02459" lon="6.02159">
        <ele>781</ele>
        <time>2021-12-21T11:37:52.000Z</time>
      </trkpt>
      <trkpt lat="44.02458" lon="6.02158">
        <ele>781</ele>
        <time>2021-12-21T11:37:53.000Z</time>
      </trkpt>
      <trkpt lat="44.02458" lon="6.02158">
        <ele>781</ele>
        <time>2021-12-21T11:37:54.000Z</time>
      </trkpt>
      <trkpt lat="44.02458" lon="6.02158">
        <ele>781</ele>
        <time>2021-12-21T11:37:55.000Z</time>
      </trkpt>
      <trkpt lat="44.02458" lon="6.02158">
        <ele>781</ele>
        <time>2021-12-21T11:37:56.000Z</time>
      </trkpt>
      <trkpt lat="44.02458" lon="6.02158">
        <ele>781</ele>
        <time>2021-12-21T11:37:57.000Z</time>
      </trkpt>
      <trkpt lat="44.02458" lon="6.02158">
        <ele>781</ele>
        <time>2021-12-21T11:37:58.000Z</time>
      </trkpt>
      <trkpt lat="44.02458" lon="6.02157">
        <ele>781</ele>
        <time>2021-12-21T11:37:59.000Z</time>
      </trkpt>
      <trkpt lat="44.02457" lon="6.02156">
        <ele>780</ele>
        <time>2021-12-21T11:38:00.000Z</time>
      </trkpt>
      <trkpt lat="44.02457" lon="6.02155">
        <ele>780</ele>
        <time>2021-12-21T11:38:01.000Z</time>
      </trkpt>
      <trkpt lat="44.02457" lon="6.02154">
        <ele>780</ele>
        <time>2021-12-21T11:38:02.000Z</time>
      </trkpt>
      <trkpt lat="44.02457" lon="6.02153">
        <ele>780</ele>
        <time>2021-12-21T11:38:03.000Z</time>
      </trkpt>
      <trkpt lat="44.02457" lon="6.02153">
        <ele>779</ele>
        <time>2021-12-21T11:38:04.000Z</time>
      </trkpt>
      <trkpt lat="44.02457" lon="6.02153">
        <ele>779</ele>
        <time>2021-12-21T11:38:05.000Z</time>
      </trkpt>
      <trkpt lat="44.02457" lon="6.02153">
        <ele>779</ele>
        <time>2021-12-21T11:38:06.000Z</time>
      </trkpt>
      <trkpt lat="44.02457" lon="6.02153">
        <ele>779</ele>
        <time>2021-12-21T11:38:07.000Z</time>
      </trkpt>
      <trkpt lat="44.02457" lon="6.02153">
        <ele>778</ele>
        <time>2021-12-21T11:38:08.000Z</time>
      </trkpt>
      <trkpt lat="44.02457" lon="6.02154">
        <ele>778</ele>
        <time>2021-12-21T11:38:09.000Z</time>
      </trkpt>
      <trkpt lat="44.02457" lon="6.02155">
        <ele>778</ele>
        <time>2021-12-21T11:38:10.000Z</time>
      </trkpt>
      <trkpt lat="44.02457" lon="6.02155">
        <ele>778</ele>
        <time>2021-12-21T11:38:11.000Z</time>
      </trkpt>
      <trkpt lat="44.02457" lon="6.02155">
        <ele>778</ele>
        <time>2021-12-21T11:38:12.000Z</time>
      </trkpt>
      <trkpt lat="44.02457" lon="6.02155">
        <ele>777</ele>
        <time>2021-12-21T11:38:13.000Z</time>
      </trkpt>
      <trkpt lat="44.02457" lon="6.02155">
        <ele>777</ele>
        <time>2021-12-21T11:38:14.000Z</time>
      </trkpt>
      <trkpt lat="44.02457" lon="6.02155">
        <ele>777</ele>
        <time>2021-12-21T11:38:15.000Z</time>
      </trkpt>
      <trkpt lat="44.02457" lon="6.02155">
        <ele>777</ele>
        <time>2021-12-21T11:38:16.000Z</time>
      </trkpt>
      <trkpt lat="44.02457" lon="6.02155">
        <ele>777</ele>
        <time>2021-12-21T11:38:17.000Z</time>
      </trkpt>
      <trkpt lat="44.02457" lon="6.02155">
        <ele>777</ele>
        <time>2021-12-21T11:38:18.000Z</time>
      </trkpt>
      <trkpt lat="44.02457" lon="6.02154">
        <ele>776</ele>
        <time>2021-12-21T11:38:19.000Z</time>
      </trkpt>
      <trkpt lat="44.02457" lon="6.02154">
        <ele>776</ele>
        <time>2021-12-21T11:38:20.000Z</time>
      </trkpt>
      <trkpt lat="44.02457" lon="6.02154">
        <ele>776</ele>
        <time>2021-12-21T11:38:21.000Z</time>
      </trkpt>
      <trkpt lat="44.02457" lon="6.02154">
        <ele>776</ele>
        <time>2021-12-21T11:38:22.000Z</time>
      </trkpt>
      <trkpt lat="44.02457" lon="6.02154">
        <ele>776</ele>
        <time>2021-12-21T11:38:23.000Z</time>
      </trkpt>
      <trkpt lat="44.02457" lon="6.02154">
        <ele>776</ele>
        <time>2021-12-21T11:38:24.000Z</time>
      </trkpt>
      <trkpt lat="44.02457" lon="6.02154">
        <ele>776</ele>
        <time>2021-12-21T11:38:25.000Z</time>
      </trkpt>
      <trkpt lat="44.02457" lon="6.02154">
        <ele>776</ele>
        <time>2021-12-21T11:38:26.000Z</time>
      </trkpt>
      <trkpt lat="44.02457" lon="6.02153">
        <ele>776</ele>
        <time>2021-12-21T11:38:27.000Z</time>
      </trkpt>
      <trkpt lat="44.02458" lon="6.02153">
        <ele>775</ele>
        <time>2021-12-21T11:38:28.000Z</time>
      </trkpt>
      <trkpt lat="44.02457" lon="6.02153">
        <ele>775</ele>
        <time>2021-12-21T11:38:29.000Z</time>
      </trkpt>
      <trkpt lat="44.02457" lon="6.02152">
        <ele>775</ele>
        <time>2021-12-21T11:38:30.000Z</time>
      </trkpt>
      <trkpt lat="44.02458" lon="6.02151">
        <ele>775</ele>
        <time>2021-12-21T11:38:31.000Z</time>
      </trkpt>
      <trkpt lat="44.02458" lon="6.02151">
        <ele>775</ele>
        <time>2021-12-21T11:38:32.000Z</time>
      </trkpt>
      <trkpt lat="44.02458" lon="6.0215">
        <ele>775</ele>
        <time>2021-12-21T11:38:33.000Z</time>
      </trkpt>
      <trkpt lat="44.02458" lon="6.02148">
        <ele>775</ele>
        <time>2021-12-21T11:38:34.000Z</time>
      </trkpt>
      <trkpt lat="44.02459" lon="6.02147">
        <ele>775</ele>
        <time>2021-12-21T11:38:35.000Z</time>
      </trkpt>
      <trkpt lat="44.02459" lon="6.02146">
        <ele>775</ele>
        <time>2021-12-21T11:38:36.000Z</time>
      </trkpt>
      <trkpt lat="44.0246" lon="6.02145">
        <ele>775</ele>
        <time>2021-12-21T11:38:37.000Z</time>
      </trkpt>
      <trkpt lat="44.0246" lon="6.02144">
        <ele>775</ele>
        <time>2021-12-21T11:38:38.000Z</time>
      </trkpt>
      <trkpt lat="44.0246" lon="6.02144">
        <ele>775</ele>
        <time>2021-12-21T11:38:39.000Z</time>
      </trkpt>
      <trkpt lat="44.02461" lon="6.02143">
        <ele>775</ele>
        <time>2021-12-21T11:38:40.000Z</time>
      </trkpt>
      <trkpt lat="44.02461" lon="6.02143">
        <ele>775</ele>
        <time>2021-12-21T11:38:41.000Z</time>
      </trkpt>
      <trkpt lat="44.02461" lon="6.02143">
        <ele>775</ele>
        <time>2021-12-21T11:38:42.000Z</time>
      </trkpt>
      <trkpt lat="44.02461" lon="6.02143">
        <ele>775</ele>
        <time>2021-12-21T11:38:43.000Z</time>
      </trkpt>
      <trkpt lat="44.02461" lon="6.02143">
        <ele>775</ele>
        <time>2021-12-21T11:38:44.000Z</time>
      </trkpt>
      <trkpt lat="44.0246" lon="6.02143">
        <ele>775</ele>
        <time>2021-12-21T11:38:45.000Z</time>
      </trkpt>
      <trkpt lat="44.02461" lon="6.02142">
        <ele>775</ele>
        <time>2021-12-21T11:38:46.000Z</time>
      </trkpt>
      <trkpt lat="44.02461" lon="6.02141">
        <ele>775</ele>
        <time>2021-12-21T11:38:47.000Z</time>
      </trkpt>
      <trkpt lat="44.02461" lon="6.02141">
        <ele>775</ele>
        <time>2021-12-21T11:38:48.000Z</time>
      </trkpt>
      <trkpt lat="44.02462" lon="6.0214">
        <ele>775</ele>
        <time>2021-12-21T11:38:49.000Z</time>
      </trkpt>
      <trkpt lat="44.02462" lon="6.02139">
        <ele>775</ele>
        <time>2021-12-21T11:38:50.000Z</time>
      </trkpt>
      <trkpt lat="44.02462" lon="6.02138">
        <ele>775</ele>
        <time>2021-12-21T11:38:51.000Z</time>
      </trkpt>
      <trkpt lat="44.02463" lon="6.02136">
        <ele>775</ele>
        <time>2021-12-21T11:38:52.000Z</time>
      </trkpt>
      <trkpt lat="44.02463" lon="6.02135">
        <ele>775</ele>
        <time>2021-12-21T11:38:53.000Z</time>
      </trkpt>
      <trkpt lat="44.02464" lon="6.02133">
        <ele>775</ele>
        <time>2021-12-21T11:38:54.000Z</time>
      </trkpt>
      <trkpt lat="44.02464" lon="6.02132">
        <ele>775</ele>
        <time>2021-12-21T11:38:55.000Z</time>
      </trkpt>
      <trkpt lat="44.02465" lon="6.0213">
        <ele>775</ele>
        <time>2021-12-21T11:38:56.000Z</time>
      </trkpt>
      <trkpt lat="44.02466" lon="6.02128">
        <ele>776</ele>
        <time>2021-12-21T11:38:57.000Z</time>
      </trkpt>
      <trkpt lat="44.02466" lon="6.02127">
        <ele>776</ele>
        <time>2021-12-21T11:38:58.000Z</time>
      </trkpt>
      <trkpt lat="44.02467" lon="6.02125">
        <ele>776</ele>
        <time>2021-12-21T11:38:59.000Z</time>
      </trkpt>
      <trkpt lat="44.02467" lon="6.02123">
        <ele>776</ele>
        <time>2021-12-21T11:39:00.000Z</time>
      </trkpt>
      <trkpt lat="44.02468" lon="6.02121">
        <ele>776</ele>
        <time>2021-12-21T11:39:01.000Z</time>
      </trkpt>
      <trkpt lat="44.02468" lon="6.02119">
        <ele>776</ele>
        <time>2021-12-21T11:39:02.000Z</time>
      </trkpt>
      <trkpt lat="44.02469" lon="6.02118">
        <ele>776</ele>
        <time>2021-12-21T11:39:03.000Z</time>
      </trkpt>
      <trkpt lat="44.02469" lon="6.02116">
        <ele>776</ele>
        <time>2021-12-21T11:39:04.000Z</time>
      </trkpt>
      <trkpt lat="44.0247" lon="6.02114">
        <ele>776</ele>
        <time>2021-12-21T11:39:05.000Z</time>
      </trkpt>
      <trkpt lat="44.0247" lon="6.02113">
        <ele>776</ele>
        <time>2021-12-21T11:39:06.000Z</time>
      </trkpt>
      <trkpt lat="44.02471" lon="6.02111">
        <ele>776</ele>
        <time>2021-12-21T11:39:07.000Z</time>
      </trkpt>
      <trkpt lat="44.02472" lon="6.0211">
        <ele>776</ele>
        <time>2021-12-21T11:39:08.000Z</time>
      </trkpt>
      <trkpt lat="44.02472" lon="6.02109">
        <ele>776</ele>
        <time>2021-12-21T11:39:09.000Z</time>
      </trkpt>
      <trkpt lat="44.02473" lon="6.02107">
        <ele>776</ele>
        <time>2021-12-21T11:39:10.000Z</time>
      </trkpt>
      <trkpt lat="44.02474" lon="6.02106">
        <ele>776</ele>
        <time>2021-12-21T11:39:11.000Z</time>
      </trkpt>
      <trkpt lat="44.02474" lon="6.02104">
        <ele>776</ele>
        <time>2021-12-21T11:39:12.000Z</time>
      </trkpt>
      <trkpt lat="44.02475" lon="6.02103">
        <ele>776</ele>
        <time>2021-12-21T11:39:13.000Z</time>
      </trkpt>
      <trkpt lat="44.02476" lon="6.02102">
        <ele>776</ele>
        <time>2021-12-21T11:39:14.000Z</time>
      </trkpt>
      <trkpt lat="44.02476" lon="6.02101">
        <ele>776</ele>
        <time>2021-12-21T11:39:15.000Z</time>
      </trkpt>
      <trkpt lat="44.02477" lon="6.021">
        <ele>776</ele>
        <time>2021-12-21T11:39:16.000Z</time>
      </trkpt>
      <trkpt lat="44.02478" lon="6.02098">
        <ele>776</ele>
        <time>2021-12-21T11:39:17.000Z</time>
      </trkpt>
      <trkpt lat="44.02479" lon="6.02097">
        <ele>776</ele>
        <time>2021-12-21T11:39:18.000Z</time>
      </trkpt>
      <trkpt lat="44.02479" lon="6.02096">
        <ele>776</ele>
        <time>2021-12-21T11:39:19.000Z</time>
      </trkpt>
      <trkpt lat="44.0248" lon="6.02094">
        <ele>776</ele>
        <time>2021-12-21T11:39:20.000Z</time>
      </trkpt>
      <trkpt lat="44.02481" lon="6.02093">
        <ele>776</ele>
        <time>2021-12-21T11:39:21.000Z</time>
      </trkpt>
      <trkpt lat="44.02482" lon="6.02092">
        <ele>776</ele>
        <time>2021-12-21T11:39:22.000Z</time>
      </trkpt>
      <trkpt lat="44.02483" lon="6.02091">
        <ele>777</ele>
        <time>2021-12-21T11:39:23.000Z</time>
      </trkpt>
      <trkpt lat="44.02483" lon="6.0209">
        <ele>777</ele>
        <time>2021-12-21T11:39:24.000Z</time>
      </trkpt>
      <trkpt lat="44.02484" lon="6.02089">
        <ele>777</ele>
        <time>2021-12-21T11:39:25.000Z</time>
      </trkpt>
      <trkpt lat="44.02485" lon="6.02088">
        <ele>777</ele>
        <time>2021-12-21T11:39:26.000Z</time>
      </trkpt>
      <trkpt lat="44.02486" lon="6.02087">
        <ele>777</ele>
        <time>2021-12-21T11:39:27.000Z</time>
      </trkpt>
      <trkpt lat="44.02487" lon="6.02086">
        <ele>777</ele>
        <time>2021-12-21T11:39:28.000Z</time>
      </trkpt>
      <trkpt lat="44.02488" lon="6.02084">
        <ele>777</ele>
        <time>2021-12-21T11:39:29.000Z</time>
      </trkpt>
      <trkpt lat="44.02489" lon="6.02083">
        <ele>777</ele>
        <time>2021-12-21T11:39:30.000Z</time>
      </trkpt>
      <trkpt lat="44.02489" lon="6.02082">
        <ele>777</ele>
        <time>2021-12-21T11:39:31.000Z</time>
      </trkpt>
      <trkpt lat="44.0249" lon="6.02081">
        <ele>777</ele>
        <time>2021-12-21T11:39:32.000Z</time>
      </trkpt>
      <trkpt lat="44.02491" lon="6.0208">
        <ele>777</ele>
        <time>2021-12-21T11:39:33.000Z</time>
      </trkpt>
      <trkpt lat="44.02492" lon="6.02079">
        <ele>777</ele>
        <time>2021-12-21T11:39:34.000Z</time>
      </trkpt>
      <trkpt lat="44.02493" lon="6.02078">
        <ele>777</ele>
        <time>2021-12-21T11:39:35.000Z</time>
      </trkpt>
      <trkpt lat="44.02494" lon="6.02077">
        <ele>776</ele>
        <time>2021-12-21T11:39:36.000Z</time>
      </trkpt>
      <trkpt lat="44.02495" lon="6.02076">
        <ele>776</ele>
        <time>2021-12-21T11:39:37.000Z</time>
      </trkpt>
      <trkpt lat="44.02496" lon="6.02075">
        <ele>776</ele>
        <time>2021-12-21T11:39:38.000Z</time>
      </trkpt>
      <trkpt lat="44.02497" lon="6.02074">
        <ele>776</ele>
        <time>2021-12-21T11:39:39.000Z</time>
      </trkpt>
      <trkpt lat="44.02497" lon="6.02073">
        <ele>776</ele>
        <time>2021-12-21T11:39:40.000Z</time>
      </trkpt>
      <trkpt lat="44.02498" lon="6.02072">
        <ele>776</ele>
        <time>2021-12-21T11:39:41.000Z</time>
      </trkpt>
      <trkpt lat="44.02499" lon="6.02071">
        <ele>776</ele>
        <time>2021-12-21T11:39:42.000Z</time>
      </trkpt>
      <trkpt lat="44.025" lon="6.0207">
        <ele>776</ele>
        <time>2021-12-21T11:39:43.000Z</time>
      </trkpt>
      <trkpt lat="44.025" lon="6.02068">
        <ele>776</ele>
        <time>2021-12-21T11:39:44.000Z</time>
      </trkpt>
      <trkpt lat="44.02501" lon="6.02067">
        <ele>775</ele>
        <time>2021-12-21T11:39:45.000Z</time>
      </trkpt>
      <trkpt lat="44.02502" lon="6.02066">
        <ele>775</ele>
        <time>2021-12-21T11:39:46.000Z</time>
      </trkpt>
      <trkpt lat="44.02503" lon="6.02065">
        <ele>775</ele>
        <time>2021-12-21T11:39:47.000Z</time>
      </trkpt>
      <trkpt lat="44.02503" lon="6.02064">
        <ele>775</ele>
        <time>2021-12-21T11:39:48.000Z</time>
      </trkpt>
      <trkpt lat="44.02504" lon="6.02063">
        <ele>775</ele>
        <time>2021-12-21T11:39:49.000Z</time>
      </trkpt>
      <trkpt lat="44.02505" lon="6.02062">
        <ele>775</ele>
        <time>2021-12-21T11:39:50.000Z</time>
      </trkpt>
      <trkpt lat="44.02506" lon="6.02061">
        <ele>775</ele>
        <time>2021-12-21T11:39:51.000Z</time>
      </trkpt>
      <trkpt lat="44.02507" lon="6.0206">
        <ele>775</ele>
        <time>2021-12-21T11:39:52.000Z</time>
      </trkpt>
      <trkpt lat="44.02508" lon="6.02058">
        <ele>775</ele>
        <time>2021-12-21T11:39:53.000Z</time>
      </trkpt>
      <trkpt lat="44.02509" lon="6.02057">
        <ele>775</ele>
        <time>2021-12-21T11:39:54.000Z</time>
      </trkpt>
      <trkpt lat="44.0251" lon="6.02056">
        <ele>775</ele>
        <time>2021-12-21T11:39:55.000Z</time>
      </trkpt>
      <trkpt lat="44.0251" lon="6.02055">
        <ele>775</ele>
        <time>2021-12-21T11:39:56.000Z</time>
      </trkpt>
      <trkpt lat="44.02511" lon="6.02054">
        <ele>775</ele>
        <time>2021-12-21T11:39:57.000Z</time>
      </trkpt>
      <trkpt lat="44.02512" lon="6.02053">
        <ele>775</ele>
        <time>2021-12-21T11:39:58.000Z</time>
      </trkpt>
      <trkpt lat="44.02513" lon="6.02052">
        <ele>775</ele>
        <time>2021-12-21T11:39:59.000Z</time>
      </trkpt>
      <trkpt lat="44.02514" lon="6.02051">
        <ele>775</ele>
        <time>2021-12-21T11:40:00.000Z</time>
      </trkpt>
      <trkpt lat="44.02515" lon="6.0205">
        <ele>775</ele>
        <time>2021-12-21T11:40:01.000Z</time>
      </trkpt>
      <trkpt lat="44.02516" lon="6.02049">
        <ele>775</ele>
        <time>2021-12-21T11:40:02.000Z</time>
      </trkpt>
      <trkpt lat="44.02516" lon="6.02048">
        <ele>775</ele>
        <time>2021-12-21T11:40:03.000Z</time>
      </trkpt>
      <trkpt lat="44.02517" lon="6.02047">
        <ele>775</ele>
        <time>2021-12-21T11:40:04.000Z</time>
      </trkpt>
      <trkpt lat="44.02518" lon="6.02045">
        <ele>776</ele>
        <time>2021-12-21T11:40:05.000Z</time>
      </trkpt>
      <trkpt lat="44.02519" lon="6.02044">
        <ele>776</ele>
        <time>2021-12-21T11:40:06.000Z</time>
      </trkpt>
      <trkpt lat="44.02521" lon="6.02043">
        <ele>776</ele>
        <time>2021-12-21T11:40:07.000Z</time>
      </trkpt>
      <trkpt lat="44.02521" lon="6.02042">
        <ele>776</ele>
        <time>2021-12-21T11:40:08.000Z</time>
      </trkpt>
      <trkpt lat="44.02523" lon="6.02042">
        <ele>776</ele>
        <time>2021-12-21T11:40:09.000Z</time>
      </trkpt>
      <trkpt lat="44.02524" lon="6.02041">
        <ele>777</ele>
        <time>2021-12-21T11:40:10.000Z</time>
      </trkpt>
      <trkpt lat="44.02525" lon="6.0204">
        <ele>777</ele>
        <time>2021-12-21T11:40:11.000Z</time>
      </trkpt>
      <trkpt lat="44.02526" lon="6.02039">
        <ele>777</ele>
        <time>2021-12-21T11:40:12.000Z</time>
      </trkpt>
      <trkpt lat="44.02527" lon="6.02038">
        <ele>777</ele>
        <time>2021-12-21T11:40:13.000Z</time>
      </trkpt>
      <trkpt lat="44.02528" lon="6.02037">
        <ele>777</ele>
        <time>2021-12-21T11:40:14.000Z</time>
      </trkpt>
      <trkpt lat="44.02529" lon="6.02037">
        <ele>777</ele>
        <time>2021-12-21T11:40:15.000Z</time>
      </trkpt>
      <trkpt lat="44.0253" lon="6.02036">
        <ele>778</ele>
        <time>2021-12-21T11:40:16.000Z</time>
      </trkpt>
      <trkpt lat="44.02531" lon="6.02036">
        <ele>778</ele>
        <time>2021-12-21T11:40:17.000Z</time>
      </trkpt>
      <trkpt lat="44.02532" lon="6.02035">
        <ele>778</ele>
        <time>2021-12-21T11:40:18.000Z</time>
      </trkpt>
      <trkpt lat="44.02533" lon="6.02034">
        <ele>778</ele>
        <time>2021-12-21T11:40:19.000Z</time>
      </trkpt>
      <trkpt lat="44.02534" lon="6.02033">
        <ele>779</ele>
        <time>2021-12-21T11:40:20.000Z</time>
      </trkpt>
      <trkpt lat="44.02535" lon="6.02032">
        <ele>779</ele>
        <time>2021-12-21T11:40:21.000Z</time>
      </trkpt>
      <trkpt lat="44.02536" lon="6.02031">
        <ele>779</ele>
        <time>2021-12-21T11:40:22.000Z</time>
      </trkpt>
      <trkpt lat="44.02537" lon="6.02031">
        <ele>779</ele>
        <time>2021-12-21T11:40:23.000Z</time>
      </trkpt>
      <trkpt lat="44.02538" lon="6.0203">
        <ele>779</ele>
        <time>2021-12-21T11:40:24.000Z</time>
      </trkpt>
      <trkpt lat="44.02539" lon="6.02029">
        <ele>779</ele>
        <time>2021-12-21T11:40:25.000Z</time>
      </trkpt>
      <trkpt lat="44.0254" lon="6.02028">
        <ele>779</ele>
        <time>2021-12-21T11:40:26.000Z</time>
      </trkpt>
      <trkpt lat="44.02541" lon="6.02028">
        <ele>779</ele>
        <time>2021-12-21T11:40:27.000Z</time>
      </trkpt>
      <trkpt lat="44.02542" lon="6.02027">
        <ele>779</ele>
        <time>2021-12-21T11:40:28.000Z</time>
      </trkpt>
      <trkpt lat="44.02543" lon="6.02027">
        <ele>779</ele>
        <time>2021-12-21T11:40:29.000Z</time>
      </trkpt>
      <trkpt lat="44.02544" lon="6.02026">
        <ele>779</ele>
        <time>2021-12-21T11:40:30.000Z</time>
      </trkpt>
      <trkpt lat="44.02545" lon="6.02026">
        <ele>779</ele>
        <time>2021-12-21T11:40:31.000Z</time>
      </trkpt>
      <trkpt lat="44.02546" lon="6.02025">
        <ele>779</ele>
        <time>2021-12-21T11:40:32.000Z</time>
      </trkpt>
      <trkpt lat="44.02547" lon="6.02024">
        <ele>780</ele>
        <time>2021-12-21T11:40:33.000Z</time>
      </trkpt>
      <trkpt lat="44.02548" lon="6.02024">
        <ele>780</ele>
        <time>2021-12-21T11:40:34.000Z</time>
      </trkpt>
      <trkpt lat="44.02549" lon="6.02023">
        <ele>780</ele>
        <time>2021-12-21T11:40:35.000Z</time>
      </trkpt>
      <trkpt lat="44.0255" lon="6.02022">
        <ele>780</ele>
        <time>2021-12-21T11:40:36.000Z</time>
      </trkpt>
      <trkpt lat="44.02551" lon="6.02022">
        <ele>780</ele>
        <time>2021-12-21T11:40:37.000Z</time>
      </trkpt>
      <trkpt lat="44.02552" lon="6.02022">
        <ele>780</ele>
        <time>2021-12-21T11:40:38.000Z</time>
      </trkpt>
      <trkpt lat="44.02553" lon="6.02021">
        <ele>780</ele>
        <time>2021-12-21T11:40:39.000Z</time>
      </trkpt>
      <trkpt lat="44.02554" lon="6.02021">
        <ele>780</ele>
        <time>2021-12-21T11:40:40.000Z</time>
      </trkpt>
      <trkpt lat="44.02555" lon="6.0202">
        <ele>781</ele>
        <time>2021-12-21T11:40:41.000Z</time>
      </trkpt>
      <trkpt lat="44.02556" lon="6.0202">
        <ele>781</ele>
        <time>2021-12-21T11:40:42.000Z</time>
      </trkpt>
      <trkpt lat="44.02557" lon="6.0202">
        <ele>781</ele>
        <time>2021-12-21T11:40:43.000Z</time>
      </trkpt>
      <trkpt lat="44.02557" lon="6.02019">
        <ele>781</ele>
        <time>2021-12-21T11:40:44.000Z</time>
      </trkpt>
      <trkpt lat="44.02558" lon="6.02019">
        <ele>781</ele>
        <time>2021-12-21T11:40:45.000Z</time>
      </trkpt>
      <trkpt lat="44.02559" lon="6.02019">
        <ele>781</ele>
        <time>2021-12-21T11:40:46.000Z</time>
      </trkpt>
      <trkpt lat="44.0256" lon="6.02019">
        <ele>781</ele>
        <time>2021-12-21T11:40:47.000Z</time>
      </trkpt>
      <trkpt lat="44.02561" lon="6.02019">
        <ele>781</ele>
        <time>2021-12-21T11:40:48.000Z</time>
      </trkpt>
      <trkpt lat="44.02562" lon="6.02018">
        <ele>782</ele>
        <time>2021-12-21T11:40:49.000Z</time>
      </trkpt>
      <trkpt lat="44.02563" lon="6.02018">
        <ele>782</ele>
        <time>2021-12-21T11:40:50.000Z</time>
      </trkpt>
      <trkpt lat="44.02564" lon="6.02018">
        <ele>782</ele>
        <time>2021-12-21T11:40:51.000Z</time>
      </trkpt>
      <trkpt lat="44.02565" lon="6.02017">
        <ele>782</ele>
        <time>2021-12-21T11:40:52.000Z</time>
      </trkpt>
      <trkpt lat="44.02566" lon="6.02017">
        <ele>782</ele>
        <time>2021-12-21T11:40:53.000Z</time>
      </trkpt>
      <trkpt lat="44.02567" lon="6.02017">
        <ele>782</ele>
        <time>2021-12-21T11:40:54.000Z</time>
      </trkpt>
      <trkpt lat="44.02568" lon="6.02017">
        <ele>783</ele>
        <time>2021-12-21T11:40:55.000Z</time>
      </trkpt>
      <trkpt lat="44.02569" lon="6.02017">
        <ele>783</ele>
        <time>2021-12-21T11:40:56.000Z</time>
      </trkpt>
      <trkpt lat="44.02571" lon="6.02016">
        <ele>783</ele>
        <time>2021-12-21T11:40:57.000Z</time>
      </trkpt>
      <trkpt lat="44.02572" lon="6.02016">
        <ele>783</ele>
        <time>2021-12-21T11:40:58.000Z</time>
      </trkpt>
      <trkpt lat="44.02573" lon="6.02016">
        <ele>783</ele>
        <time>2021-12-21T11:40:59.000Z</time>
      </trkpt>
      <trkpt lat="44.02574" lon="6.02015">
        <ele>784</ele>
        <time>2021-12-21T11:41:00.000Z</time>
      </trkpt>
      <trkpt lat="44.02575" lon="6.02015">
        <ele>784</ele>
        <time>2021-12-21T11:41:01.000Z</time>
      </trkpt>
      <trkpt lat="44.02576" lon="6.02015">
        <ele>784</ele>
        <time>2021-12-21T11:41:02.000Z</time>
      </trkpt>
      <trkpt lat="44.02577" lon="6.02014">
        <ele>784</ele>
        <time>2021-12-21T11:41:03.000Z</time>
      </trkpt>
      <trkpt lat="44.02578" lon="6.02014">
        <ele>784</ele>
        <time>2021-12-21T11:41:04.000Z</time>
      </trkpt>
      <trkpt lat="44.02579" lon="6.02014">
        <ele>785</ele>
        <time>2021-12-21T11:41:05.000Z</time>
      </trkpt>
      <trkpt lat="44.0258" lon="6.02013">
        <ele>785</ele>
        <time>2021-12-21T11:41:06.000Z</time>
      </trkpt>
      <trkpt lat="44.02581" lon="6.02013">
        <ele>785</ele>
        <time>2021-12-21T11:41:07.000Z</time>
      </trkpt>
      <trkpt lat="44.02582" lon="6.02013">
        <ele>785</ele>
        <time>2021-12-21T11:41:08.000Z</time>
      </trkpt>
      <trkpt lat="44.02583" lon="6.02013">
        <ele>785</ele>
        <time>2021-12-21T11:41:09.000Z</time>
      </trkpt>
      <trkpt lat="44.02584" lon="6.02012">
        <ele>785</ele>
        <time>2021-12-21T11:41:10.000Z</time>
      </trkpt>
      <trkpt lat="44.02585" lon="6.02012">
        <ele>785</ele>
        <time>2021-12-21T11:41:11.000Z</time>
      </trkpt>
      <trkpt lat="44.02587" lon="6.02012">
        <ele>785</ele>
        <time>2021-12-21T11:41:12.000Z</time>
      </trkpt>
      <trkpt lat="44.02588" lon="6.02011">
        <ele>785</ele>
        <time>2021-12-21T11:41:13.000Z</time>
      </trkpt>
      <trkpt lat="44.02589" lon="6.02011">
        <ele>785</ele>
        <time>2021-12-21T11:41:14.000Z</time>
      </trkpt>
      <trkpt lat="44.0259" lon="6.0201">
        <ele>785</ele>
        <time>2021-12-21T11:41:15.000Z</time>
      </trkpt>
      <trkpt lat="44.02591" lon="6.0201">
        <ele>785</ele>
        <time>2021-12-21T11:41:16.000Z</time>
      </trkpt>
      <trkpt lat="44.02592" lon="6.02011">
        <ele>785</ele>
        <time>2021-12-21T11:41:17.000Z</time>
      </trkpt>
      <trkpt lat="44.02593" lon="6.0201">
        <ele>785</ele>
        <time>2021-12-21T11:41:18.000Z</time>
      </trkpt>
      <trkpt lat="44.02594" lon="6.0201">
        <ele>785</ele>
        <time>2021-12-21T11:41:19.000Z</time>
      </trkpt>
      <trkpt lat="44.02595" lon="6.02009">
        <ele>785</ele>
        <time>2021-12-21T11:41:20.000Z</time>
      </trkpt>
      <trkpt lat="44.02596" lon="6.02009">
        <ele>785</ele>
        <time>2021-12-21T11:41:21.000Z</time>
      </trkpt>
      <trkpt lat="44.02597" lon="6.02008">
        <ele>784</ele>
        <time>2021-12-21T11:41:22.000Z</time>
      </trkpt>
      <trkpt lat="44.02598" lon="6.02007">
        <ele>784</ele>
        <time>2021-12-21T11:41:23.000Z</time>
      </trkpt>
      <trkpt lat="44.02599" lon="6.02006">
        <ele>784</ele>
        <time>2021-12-21T11:41:24.000Z</time>
      </trkpt>
      <trkpt lat="44.026" lon="6.02006">
        <ele>784</ele>
        <time>2021-12-21T11:41:25.000Z</time>
      </trkpt>
      <trkpt lat="44.02601" lon="6.02005">
        <ele>784</ele>
        <time>2021-12-21T11:41:26.000Z</time>
      </trkpt>
      <trkpt lat="44.02602" lon="6.02005">
        <ele>784</ele>
        <time>2021-12-21T11:41:27.000Z</time>
      </trkpt>
      <trkpt lat="44.02603" lon="6.02004">
        <ele>784</ele>
        <time>2021-12-21T11:41:28.000Z</time>
      </trkpt>
      <trkpt lat="44.02603" lon="6.02003">
        <ele>784</ele>
        <time>2021-12-21T11:41:29.000Z</time>
      </trkpt>
      <trkpt lat="44.02604" lon="6.02003">
        <ele>784</ele>
        <time>2021-12-21T11:41:30.000Z</time>
      </trkpt>
      <trkpt lat="44.02605" lon="6.02003">
        <ele>784</ele>
        <time>2021-12-21T11:41:31.000Z</time>
      </trkpt>
      <trkpt lat="44.02605" lon="6.02002">
        <ele>784</ele>
        <time>2021-12-21T11:41:32.000Z</time>
      </trkpt>
      <trkpt lat="44.02605" lon="6.02002">
        <ele>784</ele>
        <time>2021-12-21T11:41:33.000Z</time>
      </trkpt>
      <trkpt lat="44.02605" lon="6.02002">
        <ele>784</ele>
        <time>2021-12-21T11:41:34.000Z</time>
      </trkpt>
      <trkpt lat="44.02605" lon="6.02002">
        <ele>784</ele>
        <time>2021-12-21T11:41:35.000Z</time>
      </trkpt>
      <trkpt lat="44.02605" lon="6.02002">
        <ele>784</ele>
        <time>2021-12-21T11:41:36.000Z</time>
      </trkpt>
      <trkpt lat="44.02606" lon="6.02003">
        <ele>784</ele>
        <time>2021-12-21T11:41:37.000Z</time>
      </trkpt>
      <trkpt lat="44.02606" lon="6.02003">
        <ele>784</ele>
        <time>2021-12-21T11:41:38.000Z</time>
      </trkpt>
      <trkpt lat="44.02606" lon="6.02003">
        <ele>784</ele>
        <time>2021-12-21T11:41:39.000Z</time>
      </trkpt>
      <trkpt lat="44.02606" lon="6.02003">
        <ele>784</ele>
        <time>2021-12-21T11:41:40.000Z</time>
      </trkpt>
      <trkpt lat="44.02606" lon="6.02003">
        <ele>784</ele>
        <time>2021-12-21T11:41:41.000Z</time>
      </trkpt>
      <trkpt lat="44.02606" lon="6.02003">
        <ele>784</ele>
        <time>2021-12-21T11:41:42.000Z</time>
      </trkpt>
      <trkpt lat="44.02606" lon="6.02003">
        <ele>784</ele>
        <time>2021-12-21T11:41:43.000Z</time>
      </trkpt>
      <trkpt lat="44.02606" lon="6.02003">
        <ele>784</ele>
        <time>2021-12-21T11:41:44.000Z</time>
      </trkpt>
      <trkpt lat="44.02606" lon="6.02003">
        <ele>784</ele>
        <time>2021-12-21T11:41:45.000Z</time>
      </trkpt>
      <trkpt lat="44.02606" lon="6.02003">
        <ele>784</ele>
        <time>2021-12-21T11:41:46.000Z</time>
      </trkpt>
      <trkpt lat="44.02606" lon="6.02003">
        <ele>784</ele>
        <time>2021-12-21T11:41:47.000Z</time>
      </trkpt>
      <trkpt lat="44.02606" lon="6.02003">
        <ele>784</ele>
        <time>2021-12-21T11:41:48.000Z</time>
      </trkpt>
      <trkpt lat="44.02606" lon="6.02003">
        <ele>784</ele>
        <time>2021-12-21T11:41:49.000Z</time>
      </trkpt>
      <trkpt lat="44.02606" lon="6.02003">
        <ele>784</ele>
        <time>2021-12-21T11:41:50.000Z</time>
      </trkpt>
      <trkpt lat="44.02606" lon="6.02003">
        <ele>784</ele>
        <time>2021-12-21T11:41:51.000Z</time>
      </trkpt>
      <trkpt lat="44.02606" lon="6.02003">
        <ele>784</ele>
        <time>2021-12-21T11:41:52.000Z</time>
      </trkpt>
      <trkpt lat="44.02606" lon="6.02003">
        <ele>784</ele>
        <time>2021-12-21T11:41:53.000Z</time>
      </trkpt>
      <trkpt lat="44.02606" lon="6.02003">
        <ele>784</ele>
        <time>2021-12-21T11:41:54.000Z</time>
      </trkpt>
      <trkpt lat="44.02606" lon="6.02003">
        <ele>784</ele>
        <time>2021-12-21T11:41:55.000Z</time>
      </trkpt>
      <trkpt lat="44.02606" lon="6.02003">
        <ele>784</ele>
        <time>2021-12-21T11:41:56.000Z</time>
      </trkpt>
      <trkpt lat="44.02606" lon="6.02003">
        <ele>784</ele>
        <time>2021-12-21T11:41:57.000Z</time>
      </trkpt>
      <trkpt lat="44.02606" lon="6.02003">
        <ele>784</ele>
        <time>2021-12-21T11:41:58.000Z</time>
      </trkpt>
      <trkpt lat="44.02606" lon="6.02003">
        <ele>783</ele>
        <time>2021-12-21T11:41:59.000Z</time>
      </trkpt>
      <trkpt lat="44.02606" lon="6.02003">
        <ele>783</ele>
        <time>2021-12-21T11:42:00.000Z</time>
      </trkpt>
      <trkpt lat="44.02606" lon="6.02003">
        <ele>783</ele>
        <time>2021-12-21T11:42:01.000Z</time>
      </trkpt>
      <trkpt lat="44.02606" lon="6.02003">
        <ele>783</ele>
        <time>2021-12-21T11:42:02.000Z</time>
      </trkpt>
      <trkpt lat="44.02606" lon="6.02003">
        <ele>783</ele>
        <time>2021-12-21T11:42:03.000Z</time>
      </trkpt>
      <trkpt lat="44.02606" lon="6.02003">
        <ele>783</ele>
        <time>2021-12-21T11:42:04.000Z</time>
      </trkpt>
      <trkpt lat="44.02606" lon="6.02003">
        <ele>783</ele>
        <time>2021-12-21T11:42:05.000Z</time>
      </trkpt>
      <trkpt lat="44.02606" lon="6.02003">
        <ele>783</ele>
        <time>2021-12-21T11:42:06.000Z</time>
      </trkpt>
      <trkpt lat="44.02606" lon="6.02003">
        <ele>783</ele>
        <time>2021-12-21T11:42:07.000Z</time>
      </trkpt>
      <trkpt lat="44.02606" lon="6.02003">
        <ele>783</ele>
        <time>2021-12-21T11:42:08.000Z</time>
      </trkpt>
      <trkpt lat="44.02606" lon="6.02003">
        <ele>783</ele>
        <time>2021-12-21T11:42:09.000Z</time>
      </trkpt>
      <trkpt lat="44.02606" lon="6.02003">
        <ele>783</ele>
        <time>2021-12-21T11:42:10.000Z</time>
      </trkpt>
      <trkpt lat="44.02606" lon="6.02003">
        <ele>783</ele>
        <time>2021-12-21T11:42:11.000Z</time>
      </trkpt>
      <trkpt lat="44.02606" lon="6.02003">
        <ele>783</ele>
        <time>2021-12-21T11:42:12.000Z</time>
      </trkpt>
      <trkpt lat="44.02606" lon="6.02003">
        <ele>783</ele>
        <time>2021-12-21T11:42:13.000Z</time>
      </trkpt>
      <trkpt lat="44.02606" lon="6.02003">
        <ele>783</ele>
        <time>2021-12-21T11:42:14.000Z</time>
      </trkpt>
      <trkpt lat="44.02606" lon="6.02003">
        <ele>783</ele>
        <time>2021-12-21T11:42:15.000Z</time>
      </trkpt>
      <trkpt lat="44.02606" lon="6.02003">
        <ele>783</ele>
        <time>2021-12-21T11:42:16.000Z</time>
      </trkpt>
      <trkpt lat="44.02606" lon="6.02002">
        <ele>783</ele>
        <time>2021-12-21T11:42:17.000Z</time>
      </trkpt>
      <trkpt lat="44.02606" lon="6.02002">
        <ele>783</ele>
        <time>2021-12-21T11:42:18.000Z</time>
      </trkpt>
      <trkpt lat="44.02606" lon="6.02002">
        <ele>783</ele>
        <time>2021-12-21T11:42:19.000Z</time>
      </trkpt>
      <trkpt lat="44.02606" lon="6.02003">
        <ele>783</ele>
        <time>2021-12-21T11:42:20.000Z</time>
      </trkpt>
      <trkpt lat="44.02606" lon="6.02003">
        <ele>783</ele>
        <time>2021-12-21T11:42:21.000Z</time>
      </trkpt>
      <trkpt lat="44.02606" lon="6.02003">
        <ele>783</ele>
        <time>2021-12-21T11:42:22.000Z</time>
      </trkpt>
      <trkpt lat="44.02607" lon="6.02003">
        <ele>783</ele>
        <time>2021-12-21T11:42:23.000Z</time>
      </trkpt>
      <trkpt lat="44.02607" lon="6.02003">
        <ele>783</ele>
        <time>2021-12-21T11:42:24.000Z</time>
      </trkpt>
      <trkpt lat="44.02607" lon="6.02003">
        <ele>783</ele>
        <time>2021-12-21T11:42:25.000Z</time>
      </trkpt>
      <trkpt lat="44.02607" lon="6.02003">
        <ele>783</ele>
        <time>2021-12-21T11:42:26.000Z</time>
      </trkpt>
      <trkpt lat="44.02606" lon="6.02002">
        <ele>783</ele>
        <time>2021-12-21T11:42:27.000Z</time>
      </trkpt>
      <trkpt lat="44.02607" lon="6.02002">
        <ele>783</ele>
        <time>2021-12-21T11:42:28.000Z</time>
      </trkpt>
      <trkpt lat="44.02608" lon="6.02001">
        <ele>783</ele>
        <time>2021-12-21T11:42:29.000Z</time>
      </trkpt>
      <trkpt lat="44.02609" lon="6.02">
        <ele>783</ele>
        <time>2021-12-21T11:42:30.000Z</time>
      </trkpt>
      <trkpt lat="44.0261" lon="6.01999">
        <ele>783</ele>
        <time>2021-12-21T11:42:31.000Z</time>
      </trkpt>
      <trkpt lat="44.02611" lon="6.01998">
        <ele>783</ele>
        <time>2021-12-21T11:42:32.000Z</time>
      </trkpt>
      <trkpt lat="44.02612" lon="6.01997">
        <ele>783</ele>
        <time>2021-12-21T11:42:33.000Z</time>
      </trkpt>
      <trkpt lat="44.02613" lon="6.01996">
        <ele>783</ele>
        <time>2021-12-21T11:42:34.000Z</time>
      </trkpt>
      <trkpt lat="44.02614" lon="6.01995">
        <ele>783</ele>
        <time>2021-12-21T11:42:35.000Z</time>
      </trkpt>
      <trkpt lat="44.02614" lon="6.01994">
        <ele>783</ele>
        <time>2021-12-21T11:42:36.000Z</time>
      </trkpt>
      <trkpt lat="44.02615" lon="6.01993">
        <ele>782</ele>
        <time>2021-12-21T11:42:37.000Z</time>
      </trkpt>
      <trkpt lat="44.02616" lon="6.01992">
        <ele>782</ele>
        <time>2021-12-21T11:42:38.000Z</time>
      </trkpt>
      <trkpt lat="44.02617" lon="6.01991">
        <ele>782</ele>
        <time>2021-12-21T11:42:39.000Z</time>
      </trkpt>
      <trkpt lat="44.02618" lon="6.0199">
        <ele>782</ele>
        <time>2021-12-21T11:42:40.000Z</time>
      </trkpt>
      <trkpt lat="44.02619" lon="6.01988">
        <ele>782</ele>
        <time>2021-12-21T11:42:41.000Z</time>
      </trkpt>
      <trkpt lat="44.02619" lon="6.01987">
        <ele>782</ele>
        <time>2021-12-21T11:42:42.000Z</time>
      </trkpt>
      <trkpt lat="44.0262" lon="6.01986">
        <ele>782</ele>
        <time>2021-12-21T11:42:43.000Z</time>
      </trkpt>
      <trkpt lat="44.02621" lon="6.01984">
        <ele>782</ele>
        <time>2021-12-21T11:42:44.000Z</time>
      </trkpt>
      <trkpt lat="44.02622" lon="6.01983">
        <ele>782</ele>
        <time>2021-12-21T11:42:45.000Z</time>
      </trkpt>
      <trkpt lat="44.02622" lon="6.01982">
        <ele>782</ele>
        <time>2021-12-21T11:42:46.000Z</time>
      </trkpt>
      <trkpt lat="44.02623" lon="6.0198">
        <ele>782</ele>
        <time>2021-12-21T11:42:47.000Z</time>
      </trkpt>
      <trkpt lat="44.02624" lon="6.01979">
        <ele>782</ele>
        <time>2021-12-21T11:42:48.000Z</time>
      </trkpt>
      <trkpt lat="44.02625" lon="6.01978">
        <ele>781</ele>
        <time>2021-12-21T11:42:49.000Z</time>
      </trkpt>
      <trkpt lat="44.02625" lon="6.01977">
        <ele>781</ele>
        <time>2021-12-21T11:42:50.000Z</time>
      </trkpt>
      <trkpt lat="44.02626" lon="6.01976">
        <ele>781</ele>
        <time>2021-12-21T11:42:51.000Z</time>
      </trkpt>
      <trkpt lat="44.02627" lon="6.01974">
        <ele>781</ele>
        <time>2021-12-21T11:42:52.000Z</time>
      </trkpt>
      <trkpt lat="44.02628" lon="6.01973">
        <ele>781</ele>
        <time>2021-12-21T11:42:53.000Z</time>
      </trkpt>
      <trkpt lat="44.02628" lon="6.01972">
        <ele>781</ele>
        <time>2021-12-21T11:42:54.000Z</time>
      </trkpt>
      <trkpt lat="44.02629" lon="6.0197">
        <ele>781</ele>
        <time>2021-12-21T11:42:55.000Z</time>
      </trkpt>
      <trkpt lat="44.0263" lon="6.01969">
        <ele>781</ele>
        <time>2021-12-21T11:42:56.000Z</time>
      </trkpt>
      <trkpt lat="44.02631" lon="6.01967">
        <ele>781</ele>
        <time>2021-12-21T11:42:57.000Z</time>
      </trkpt>
      <trkpt lat="44.02631" lon="6.01966">
        <ele>781</ele>
        <time>2021-12-21T11:42:58.000Z</time>
      </trkpt>
      <trkpt lat="44.02632" lon="6.01964">
        <ele>781</ele>
        <time>2021-12-21T11:42:59.000Z</time>
      </trkpt>
      <trkpt lat="44.02633" lon="6.01963">
        <ele>781</ele>
        <time>2021-12-21T11:43:00.000Z</time>
      </trkpt>
      <trkpt lat="44.02634" lon="6.01961">
        <ele>781</ele>
        <time>2021-12-21T11:43:01.000Z</time>
      </trkpt>
      <trkpt lat="44.02634" lon="6.0196">
        <ele>781</ele>
        <time>2021-12-21T11:43:02.000Z</time>
      </trkpt>
      <trkpt lat="44.02635" lon="6.01959">
        <ele>781</ele>
        <time>2021-12-21T11:43:03.000Z</time>
      </trkpt>
      <trkpt lat="44.02636" lon="6.01957">
        <ele>781</ele>
        <time>2021-12-21T11:43:04.000Z</time>
      </trkpt>
      <trkpt lat="44.02637" lon="6.01956">
        <ele>781</ele>
        <time>2021-12-21T11:43:05.000Z</time>
      </trkpt>
      <trkpt lat="44.02637" lon="6.01954">
        <ele>781</ele>
        <time>2021-12-21T11:43:06.000Z</time>
      </trkpt>
      <trkpt lat="44.02638" lon="6.01953">
        <ele>781</ele>
        <time>2021-12-21T11:43:07.000Z</time>
      </trkpt>
      <trkpt lat="44.02639" lon="6.01951">
        <ele>781</ele>
        <time>2021-12-21T11:43:08.000Z</time>
      </trkpt>
      <trkpt lat="44.0264" lon="6.0195">
        <ele>781</ele>
        <time>2021-12-21T11:43:09.000Z</time>
      </trkpt>
      <trkpt lat="44.02641" lon="6.01948">
        <ele>780</ele>
        <time>2021-12-21T11:43:10.000Z</time>
      </trkpt>
      <trkpt lat="44.02642" lon="6.01947">
        <ele>780</ele>
        <time>2021-12-21T11:43:11.000Z</time>
      </trkpt>
      <trkpt lat="44.02642" lon="6.01945">
        <ele>780</ele>
        <time>2021-12-21T11:43:12.000Z</time>
      </trkpt>
      <trkpt lat="44.02643" lon="6.01944">
        <ele>780</ele>
        <time>2021-12-21T11:43:13.000Z</time>
      </trkpt>
      <trkpt lat="44.02644" lon="6.01943">
        <ele>780</ele>
        <time>2021-12-21T11:43:14.000Z</time>
      </trkpt>
      <trkpt lat="44.02645" lon="6.01941">
        <ele>780</ele>
        <time>2021-12-21T11:43:15.000Z</time>
      </trkpt>
      <trkpt lat="44.02645" lon="6.0194">
        <ele>780</ele>
        <time>2021-12-21T11:43:16.000Z</time>
      </trkpt>
      <trkpt lat="44.02646" lon="6.01938">
        <ele>780</ele>
        <time>2021-12-21T11:43:17.000Z</time>
      </trkpt>
      <trkpt lat="44.02647" lon="6.01937">
        <ele>780</ele>
        <time>2021-12-21T11:43:18.000Z</time>
      </trkpt>
      <trkpt lat="44.02648" lon="6.01936">
        <ele>780</ele>
        <time>2021-12-21T11:43:19.000Z</time>
      </trkpt>
      <trkpt lat="44.02648" lon="6.01934">
        <ele>780</ele>
        <time>2021-12-21T11:43:20.000Z</time>
      </trkpt>
      <trkpt lat="44.02649" lon="6.01933">
        <ele>780</ele>
        <time>2021-12-21T11:43:21.000Z</time>
      </trkpt>
      <trkpt lat="44.0265" lon="6.01931">
        <ele>780</ele>
        <time>2021-12-21T11:43:22.000Z</time>
      </trkpt>
      <trkpt lat="44.02651" lon="6.0193">
        <ele>780</ele>
        <time>2021-12-21T11:43:23.000Z</time>
      </trkpt>
      <trkpt lat="44.02652" lon="6.01928">
        <ele>780</ele>
        <time>2021-12-21T11:43:24.000Z</time>
      </trkpt>
      <trkpt lat="44.02652" lon="6.01927">
        <ele>780</ele>
        <time>2021-12-21T11:43:25.000Z</time>
      </trkpt>
      <trkpt lat="44.02653" lon="6.01925">
        <ele>780</ele>
        <time>2021-12-21T11:43:26.000Z</time>
      </trkpt>
      <trkpt lat="44.02654" lon="6.01924">
        <ele>780</ele>
        <time>2021-12-21T11:43:27.000Z</time>
      </trkpt>
      <trkpt lat="44.02655" lon="6.01923">
        <ele>780</ele>
        <time>2021-12-21T11:43:28.000Z</time>
      </trkpt>
      <trkpt lat="44.02655" lon="6.01921">
        <ele>780</ele>
        <time>2021-12-21T11:43:29.000Z</time>
      </trkpt>
      <trkpt lat="44.02656" lon="6.0192">
        <ele>780</ele>
        <time>2021-12-21T11:43:30.000Z</time>
      </trkpt>
      <trkpt lat="44.02657" lon="6.01919">
        <ele>780</ele>
        <time>2021-12-21T11:43:31.000Z</time>
      </trkpt>
      <trkpt lat="44.02657" lon="6.01917">
        <ele>780</ele>
        <time>2021-12-21T11:43:32.000Z</time>
      </trkpt>
      <trkpt lat="44.02658" lon="6.01916">
        <ele>780</ele>
        <time>2021-12-21T11:43:33.000Z</time>
      </trkpt>
      <trkpt lat="44.02659" lon="6.01915">
        <ele>780</ele>
        <time>2021-12-21T11:43:34.000Z</time>
      </trkpt>
      <trkpt lat="44.0266" lon="6.01913">
        <ele>780</ele>
        <time>2021-12-21T11:43:35.000Z</time>
      </trkpt>
      <trkpt lat="44.02661" lon="6.01912">
        <ele>779</ele>
        <time>2021-12-21T11:43:36.000Z</time>
      </trkpt>
      <trkpt lat="44.02661" lon="6.01911">
        <ele>779</ele>
        <time>2021-12-21T11:43:37.000Z</time>
      </trkpt>
      <trkpt lat="44.02662" lon="6.01909">
        <ele>779</ele>
        <time>2021-12-21T11:43:38.000Z</time>
      </trkpt>
      <trkpt lat="44.02663" lon="6.01908">
        <ele>779</ele>
        <time>2021-12-21T11:43:39.000Z</time>
      </trkpt>
      <trkpt lat="44.02664" lon="6.01907">
        <ele>779</ele>
        <time>2021-12-21T11:43:40.000Z</time>
      </trkpt>
      <trkpt lat="44.02665" lon="6.01905">
        <ele>779</ele>
        <time>2021-12-21T11:43:41.000Z</time>
      </trkpt>
      <trkpt lat="44.02666" lon="6.01904">
        <ele>778</ele>
        <time>2021-12-21T11:43:42.000Z</time>
      </trkpt>
      <trkpt lat="44.02667" lon="6.01903">
        <ele>778</ele>
        <time>2021-12-21T11:43:43.000Z</time>
      </trkpt>
      <trkpt lat="44.02668" lon="6.01901">
        <ele>778</ele>
        <time>2021-12-21T11:43:44.000Z</time>
      </trkpt>
      <trkpt lat="44.02669" lon="6.019">
        <ele>778</ele>
        <time>2021-12-21T11:43:45.000Z</time>
      </trkpt>
      <trkpt lat="44.0267" lon="6.01899">
        <ele>778</ele>
        <time>2021-12-21T11:43:46.000Z</time>
      </trkpt>
      <trkpt lat="44.02671" lon="6.01898">
        <ele>778</ele>
        <time>2021-12-21T11:43:47.000Z</time>
      </trkpt>
      <trkpt lat="44.02671" lon="6.01897">
        <ele>778</ele>
        <time>2021-12-21T11:43:48.000Z</time>
      </trkpt>
      <trkpt lat="44.02672" lon="6.01896">
        <ele>777</ele>
        <time>2021-12-21T11:43:49.000Z</time>
      </trkpt>
      <trkpt lat="44.02673" lon="6.01895">
        <ele>777</ele>
        <time>2021-12-21T11:43:50.000Z</time>
      </trkpt>
      <trkpt lat="44.02674" lon="6.01894">
        <ele>777</ele>
        <time>2021-12-21T11:43:51.000Z</time>
      </trkpt>
      <trkpt lat="44.02675" lon="6.01892">
        <ele>777</ele>
        <time>2021-12-21T11:43:52.000Z</time>
      </trkpt>
      <trkpt lat="44.02676" lon="6.01891">
        <ele>777</ele>
        <time>2021-12-21T11:43:53.000Z</time>
      </trkpt>
      <trkpt lat="44.02677" lon="6.01889">
        <ele>777</ele>
        <time>2021-12-21T11:43:54.000Z</time>
      </trkpt>
      <trkpt lat="44.02678" lon="6.01888">
        <ele>777</ele>
        <time>2021-12-21T11:43:55.000Z</time>
      </trkpt>
      <trkpt lat="44.02679" lon="6.01887">
        <ele>778</ele>
        <time>2021-12-21T11:43:56.000Z</time>
      </trkpt>
      <trkpt lat="44.0268" lon="6.01886">
        <ele>778</ele>
        <time>2021-12-21T11:43:57.000Z</time>
      </trkpt>
      <trkpt lat="44.02681" lon="6.01885">
        <ele>778</ele>
        <time>2021-12-21T11:43:58.000Z</time>
      </trkpt>
      <trkpt lat="44.02681" lon="6.01884">
        <ele>778</ele>
        <time>2021-12-21T11:43:59.000Z</time>
      </trkpt>
      <trkpt lat="44.02682" lon="6.01882">
        <ele>778</ele>
        <time>2021-12-21T11:44:00.000Z</time>
      </trkpt>
      <trkpt lat="44.02683" lon="6.01881">
        <ele>778</ele>
        <time>2021-12-21T11:44:01.000Z</time>
      </trkpt>
      <trkpt lat="44.02684" lon="6.0188">
        <ele>778</ele>
        <time>2021-12-21T11:44:02.000Z</time>
      </trkpt>
      <trkpt lat="44.02685" lon="6.01879">
        <ele>778</ele>
        <time>2021-12-21T11:44:03.000Z</time>
      </trkpt>
      <trkpt lat="44.02685" lon="6.01877">
        <ele>778</ele>
        <time>2021-12-21T11:44:04.000Z</time>
      </trkpt>
      <trkpt lat="44.02686" lon="6.01876">
        <ele>778</ele>
        <time>2021-12-21T11:44:05.000Z</time>
      </trkpt>
      <trkpt lat="44.02687" lon="6.01874">
        <ele>778</ele>
        <time>2021-12-21T11:44:06.000Z</time>
      </trkpt>
      <trkpt lat="44.02687" lon="6.01873">
        <ele>778</ele>
        <time>2021-12-21T11:44:07.000Z</time>
      </trkpt>
      <trkpt lat="44.02688" lon="6.01872">
        <ele>778</ele>
        <time>2021-12-21T11:44:08.000Z</time>
      </trkpt>
      <trkpt lat="44.02689" lon="6.0187">
        <ele>778</ele>
        <time>2021-12-21T11:44:09.000Z</time>
      </trkpt>
      <trkpt lat="44.02689" lon="6.01869">
        <ele>778</ele>
        <time>2021-12-21T11:44:10.000Z</time>
      </trkpt>
      <trkpt lat="44.0269" lon="6.01868">
        <ele>778</ele>
        <time>2021-12-21T11:44:11.000Z</time>
      </trkpt>
      <trkpt lat="44.02691" lon="6.01866">
        <ele>778</ele>
        <time>2021-12-21T11:44:12.000Z</time>
      </trkpt>
      <trkpt lat="44.02691" lon="6.01866">
        <ele>778</ele>
        <time>2021-12-21T11:44:13.000Z</time>
      </trkpt>
      <trkpt lat="44.02692" lon="6.01865">
        <ele>778</ele>
        <time>2021-12-21T11:44:14.000Z</time>
      </trkpt>
      <trkpt lat="44.02693" lon="6.01864">
        <ele>778</ele>
        <time>2021-12-21T11:44:15.000Z</time>
      </trkpt>
      <trkpt lat="44.02693" lon="6.01863">
        <ele>778</ele>
        <time>2021-12-21T11:44:16.000Z</time>
      </trkpt>
      <trkpt lat="44.02693" lon="6.01862">
        <ele>778</ele>
        <time>2021-12-21T11:44:17.000Z</time>
      </trkpt>
      <trkpt lat="44.02693" lon="6.01861">
        <ele>778</ele>
        <time>2021-12-21T11:44:18.000Z</time>
      </trkpt>
      <trkpt lat="44.02693" lon="6.0186">
        <ele>778</ele>
        <time>2021-12-21T11:44:19.000Z</time>
      </trkpt>
      <trkpt lat="44.02693" lon="6.01859">
        <ele>778</ele>
        <time>2021-12-21T11:44:20.000Z</time>
      </trkpt>
      <trkpt lat="44.02693" lon="6.01858">
        <ele>778</ele>
        <time>2021-12-21T11:44:21.000Z</time>
      </trkpt>
      <trkpt lat="44.02694" lon="6.01858">
        <ele>778</ele>
        <time>2021-12-21T11:44:22.000Z</time>
      </trkpt>
      <trkpt lat="44.02695" lon="6.01858">
        <ele>778</ele>
        <time>2021-12-21T11:44:23.000Z</time>
      </trkpt>
      <trkpt lat="44.02695" lon="6.01858">
        <ele>778</ele>
        <time>2021-12-21T11:44:24.000Z</time>
      </trkpt>
      <trkpt lat="44.02695" lon="6.01858">
        <ele>778</ele>
        <time>2021-12-21T11:44:25.000Z</time>
      </trkpt>
      <trkpt lat="44.02695" lon="6.01858">
        <ele>779</ele>
        <time>2021-12-21T11:44:26.000Z</time>
      </trkpt>
      <trkpt lat="44.02695" lon="6.01858">
        <ele>779</ele>
        <time>2021-12-21T11:44:27.000Z</time>
      </trkpt>
      <trkpt lat="44.02695" lon="6.01858">
        <ele>779</ele>
        <time>2021-12-21T11:44:28.000Z</time>
      </trkpt>
      <trkpt lat="44.02695" lon="6.01858">
        <ele>779</ele>
        <time>2021-12-21T11:44:29.000Z</time>
      </trkpt>
      <trkpt lat="44.02695" lon="6.01858">
        <ele>779</ele>
        <time>2021-12-21T11:44:30.000Z</time>
      </trkpt>
      <trkpt lat="44.02695" lon="6.01858">
        <ele>779</ele>
        <time>2021-12-21T11:44:31.000Z</time>
      </trkpt>
      <trkpt lat="44.02696" lon="6.01858">
        <ele>779</ele>
        <time>2021-12-21T11:44:32.000Z</time>
      </trkpt>
      <trkpt lat="44.02696" lon="6.01858">
        <ele>779</ele>
        <time>2021-12-21T11:44:33.000Z</time>
      </trkpt>
      <trkpt lat="44.02696" lon="6.01858">
        <ele>779</ele>
        <time>2021-12-21T11:44:34.000Z</time>
      </trkpt>
      <trkpt lat="44.02696" lon="6.01858">
        <ele>779</ele>
        <time>2021-12-21T11:44:35.000Z</time>
      </trkpt>
      <trkpt lat="44.02696" lon="6.01858">
        <ele>779</ele>
        <time>2021-12-21T11:44:36.000Z</time>
      </trkpt>
      <trkpt lat="44.02696" lon="6.01858">
        <ele>779</ele>
        <time>2021-12-21T11:44:37.000Z</time>
      </trkpt>
      <trkpt lat="44.02695" lon="6.01858">
        <ele>779</ele>
        <time>2021-12-21T11:44:38.000Z</time>
      </trkpt>
      <trkpt lat="44.02695" lon="6.01858">
        <ele>779</ele>
        <time>2021-12-21T11:44:39.000Z</time>
      </trkpt>
      <trkpt lat="44.02694" lon="6.01858">
        <ele>779</ele>
        <time>2021-12-21T11:44:40.000Z</time>
      </trkpt>
      <trkpt lat="44.02694" lon="6.01857">
        <ele>779</ele>
        <time>2021-12-21T11:44:41.000Z</time>
      </trkpt>
      <trkpt lat="44.02694" lon="6.01857">
        <ele>779</ele>
        <time>2021-12-21T11:44:42.000Z</time>
      </trkpt>
      <trkpt lat="44.02695" lon="6.01857">
        <ele>779</ele>
        <time>2021-12-21T11:44:43.000Z</time>
      </trkpt>
      <trkpt lat="44.02695" lon="6.01857">
        <ele>779</ele>
        <time>2021-12-21T11:44:44.000Z</time>
      </trkpt>
      <trkpt lat="44.02695" lon="6.01856">
        <ele>779</ele>
        <time>2021-12-21T11:44:45.000Z</time>
      </trkpt>
      <trkpt lat="44.02695" lon="6.01856">
        <ele>779</ele>
        <time>2021-12-21T11:44:46.000Z</time>
      </trkpt>
      <trkpt lat="44.02695" lon="6.01856">
        <ele>779</ele>
        <time>2021-12-21T11:44:47.000Z</time>
      </trkpt>
      <trkpt lat="44.02695" lon="6.01856">
        <ele>779</ele>
        <time>2021-12-21T11:44:48.000Z</time>
      </trkpt>
      <trkpt lat="44.02696" lon="6.01856">
        <ele>779</ele>
        <time>2021-12-21T11:44:49.000Z</time>
      </trkpt>
      <trkpt lat="44.02696" lon="6.01855">
        <ele>779</ele>
        <time>2021-12-21T11:44:50.000Z</time>
      </trkpt>
      <trkpt lat="44.02696" lon="6.01855">
        <ele>779</ele>
        <time>2021-12-21T11:44:51.000Z</time>
      </trkpt>
      <trkpt lat="44.02697" lon="6.01855">
        <ele>779</ele>
        <time>2021-12-21T11:44:52.000Z</time>
      </trkpt>
      <trkpt lat="44.02697" lon="6.01856">
        <ele>779</ele>
        <time>2021-12-21T11:44:53.000Z</time>
      </trkpt>
      <trkpt lat="44.02698" lon="6.01856">
        <ele>779</ele>
        <time>2021-12-21T11:44:54.000Z</time>
      </trkpt>
      <trkpt lat="44.02699" lon="6.01856">
        <ele>779</ele>
        <time>2021-12-21T11:44:55.000Z</time>
      </trkpt>
      <trkpt lat="44.027" lon="6.01855">
        <ele>779</ele>
        <time>2021-12-21T11:44:56.000Z</time>
      </trkpt>
      <trkpt lat="44.027" lon="6.01855">
        <ele>779</ele>
        <time>2021-12-21T11:44:57.000Z</time>
      </trkpt>
      <trkpt lat="44.02701" lon="6.01854">
        <ele>779</ele>
        <time>2021-12-21T11:44:58.000Z</time>
      </trkpt>
      <trkpt lat="44.02702" lon="6.01853">
        <ele>779</ele>
        <time>2021-12-21T11:44:59.000Z</time>
      </trkpt>
      <trkpt lat="44.02703" lon="6.01852">
        <ele>779</ele>
        <time>2021-12-21T11:45:00.000Z</time>
      </trkpt>
      <trkpt lat="44.02704" lon="6.01851">
        <ele>779</ele>
        <time>2021-12-21T11:45:01.000Z</time>
      </trkpt>
      <trkpt lat="44.02705" lon="6.0185">
        <ele>779</ele>
        <time>2021-12-21T11:45:02.000Z</time>
      </trkpt>
      <trkpt lat="44.02706" lon="6.01849">
        <ele>779</ele>
        <time>2021-12-21T11:45:03.000Z</time>
      </trkpt>
      <trkpt lat="44.02707" lon="6.01848">
        <ele>779</ele>
        <time>2021-12-21T11:45:04.000Z</time>
      </trkpt>
      <trkpt lat="44.02708" lon="6.01847">
        <ele>780</ele>
        <time>2021-12-21T11:45:05.000Z</time>
      </trkpt>
      <trkpt lat="44.02709" lon="6.01846">
        <ele>780</ele>
        <time>2021-12-21T11:45:06.000Z</time>
      </trkpt>
      <trkpt lat="44.0271" lon="6.01845">
        <ele>780</ele>
        <time>2021-12-21T11:45:07.000Z</time>
      </trkpt>
      <trkpt lat="44.0271" lon="6.01844">
        <ele>780</ele>
        <time>2021-12-21T11:45:08.000Z</time>
      </trkpt>
      <trkpt lat="44.02711" lon="6.01842">
        <ele>780</ele>
        <time>2021-12-21T11:45:09.000Z</time>
      </trkpt>
      <trkpt lat="44.02712" lon="6.01841">
        <ele>780</ele>
        <time>2021-12-21T11:45:10.000Z</time>
      </trkpt>
      <trkpt lat="44.02713" lon="6.01839">
        <ele>780</ele>
        <time>2021-12-21T11:45:11.000Z</time>
      </trkpt>
      <trkpt lat="44.02714" lon="6.01838">
        <ele>780</ele>
        <time>2021-12-21T11:45:12.000Z</time>
      </trkpt>
      <trkpt lat="44.02714" lon="6.01837">
        <ele>780</ele>
        <time>2021-12-21T11:45:13.000Z</time>
      </trkpt>
      <trkpt lat="44.02715" lon="6.01835">
        <ele>780</ele>
        <time>2021-12-21T11:45:14.000Z</time>
      </trkpt>
      <trkpt lat="44.02716" lon="6.01834">
        <ele>780</ele>
        <time>2021-12-21T11:45:15.000Z</time>
      </trkpt>
      <trkpt lat="44.02717" lon="6.01833">
        <ele>780</ele>
        <time>2021-12-21T11:45:16.000Z</time>
      </trkpt>
      <trkpt lat="44.02717" lon="6.01832">
        <ele>780</ele>
        <time>2021-12-21T11:45:17.000Z</time>
      </trkpt>
      <trkpt lat="44.02718" lon="6.0183">
        <ele>780</ele>
        <time>2021-12-21T11:45:18.000Z</time>
      </trkpt>
      <trkpt lat="44.02719" lon="6.01829">
        <ele>780</ele>
        <time>2021-12-21T11:45:19.000Z</time>
      </trkpt>
      <trkpt lat="44.0272" lon="6.01828">
        <ele>781</ele>
        <time>2021-12-21T11:45:20.000Z</time>
      </trkpt>
      <trkpt lat="44.02721" lon="6.01827">
        <ele>781</ele>
        <time>2021-12-21T11:45:21.000Z</time>
      </trkpt>
      <trkpt lat="44.02722" lon="6.01826">
        <ele>781</ele>
        <time>2021-12-21T11:45:22.000Z</time>
      </trkpt>
      <trkpt lat="44.02723" lon="6.01825">
        <ele>781</ele>
        <time>2021-12-21T11:45:23.000Z</time>
      </trkpt>
      <trkpt lat="44.02724" lon="6.01824">
        <ele>781</ele>
        <time>2021-12-21T11:45:24.000Z</time>
      </trkpt>
      <trkpt lat="44.02724" lon="6.01823">
        <ele>781</ele>
        <time>2021-12-21T11:45:25.000Z</time>
      </trkpt>
      <trkpt lat="44.02725" lon="6.01822">
        <ele>781</ele>
        <time>2021-12-21T11:45:26.000Z</time>
      </trkpt>
      <trkpt lat="44.02726" lon="6.01821">
        <ele>781</ele>
        <time>2021-12-21T11:45:27.000Z</time>
      </trkpt>
      <trkpt lat="44.02727" lon="6.01819">
        <ele>781</ele>
        <time>2021-12-21T11:45:28.000Z</time>
      </trkpt>
      <trkpt lat="44.02728" lon="6.01818">
        <ele>781</ele>
        <time>2021-12-21T11:45:29.000Z</time>
      </trkpt>
      <trkpt lat="44.02729" lon="6.01816">
        <ele>781</ele>
        <time>2021-12-21T11:45:30.000Z</time>
      </trkpt>
      <trkpt lat="44.0273" lon="6.01815">
        <ele>781</ele>
        <time>2021-12-21T11:45:31.000Z</time>
      </trkpt>
      <trkpt lat="44.02731" lon="6.01814">
        <ele>782</ele>
        <time>2021-12-21T11:45:32.000Z</time>
      </trkpt>
      <trkpt lat="44.02732" lon="6.01812">
        <ele>781</ele>
        <time>2021-12-21T11:45:33.000Z</time>
      </trkpt>
      <trkpt lat="44.02732" lon="6.01811">
        <ele>781</ele>
        <time>2021-12-21T11:45:34.000Z</time>
      </trkpt>
      <trkpt lat="44.02733" lon="6.0181">
        <ele>781</ele>
        <time>2021-12-21T11:45:35.000Z</time>
      </trkpt>
      <trkpt lat="44.02734" lon="6.01809">
        <ele>781</ele>
        <time>2021-12-21T11:45:36.000Z</time>
      </trkpt>
      <trkpt lat="44.02735" lon="6.01808">
        <ele>781</ele>
        <time>2021-12-21T11:45:37.000Z</time>
      </trkpt>
      <trkpt lat="44.02736" lon="6.01807">
        <ele>781</ele>
        <time>2021-12-21T11:45:38.000Z</time>
      </trkpt>
      <trkpt lat="44.02737" lon="6.01806">
        <ele>781</ele>
        <time>2021-12-21T11:45:39.000Z</time>
      </trkpt>
      <trkpt lat="44.02737" lon="6.01804">
        <ele>781</ele>
        <time>2021-12-21T11:45:40.000Z</time>
      </trkpt>
      <trkpt lat="44.02739" lon="6.01803">
        <ele>781</ele>
        <time>2021-12-21T11:45:41.000Z</time>
      </trkpt>
      <trkpt lat="44.02739" lon="6.01802">
        <ele>781</ele>
        <time>2021-12-21T11:45:42.000Z</time>
      </trkpt>
      <trkpt lat="44.0274" lon="6.01801">
        <ele>781</ele>
        <time>2021-12-21T11:45:43.000Z</time>
      </trkpt>
      <trkpt lat="44.02741" lon="6.018">
        <ele>781</ele>
        <time>2021-12-21T11:45:44.000Z</time>
      </trkpt>
      <trkpt lat="44.02742" lon="6.01799">
        <ele>781</ele>
        <time>2021-12-21T11:45:45.000Z</time>
      </trkpt>
      <trkpt lat="44.02743" lon="6.01798">
        <ele>781</ele>
        <time>2021-12-21T11:45:46.000Z</time>
      </trkpt>
      <trkpt lat="44.02744" lon="6.01797">
        <ele>781</ele>
        <time>2021-12-21T11:45:47.000Z</time>
      </trkpt>
      <trkpt lat="44.02745" lon="6.01796">
        <ele>781</ele>
        <time>2021-12-21T11:45:48.000Z</time>
      </trkpt>
      <trkpt lat="44.02747" lon="6.01796">
        <ele>781</ele>
        <time>2021-12-21T11:45:49.000Z</time>
      </trkpt>
      <trkpt lat="44.02748" lon="6.01795">
        <ele>780</ele>
        <time>2021-12-21T11:45:50.000Z</time>
      </trkpt>
      <trkpt lat="44.02749" lon="6.01795">
        <ele>780</ele>
        <time>2021-12-21T11:45:51.000Z</time>
      </trkpt>
      <trkpt lat="44.0275" lon="6.01794">
        <ele>780</ele>
        <time>2021-12-21T11:45:52.000Z</time>
      </trkpt>
      <trkpt lat="44.02751" lon="6.01794">
        <ele>780</ele>
        <time>2021-12-21T11:45:53.000Z</time>
      </trkpt>
      <trkpt lat="44.02753" lon="6.01794">
        <ele>780</ele>
        <time>2021-12-21T11:45:54.000Z</time>
      </trkpt>
      <trkpt lat="44.02754" lon="6.01794">
        <ele>780</ele>
        <time>2021-12-21T11:45:55.000Z</time>
      </trkpt>
      <trkpt lat="44.02755" lon="6.01793">
        <ele>780</ele>
        <time>2021-12-21T11:45:56.000Z</time>
      </trkpt>
      <trkpt lat="44.02756" lon="6.01793">
        <ele>780</ele>
        <time>2021-12-21T11:45:57.000Z</time>
      </trkpt>
      <trkpt lat="44.02757" lon="6.01793">
        <ele>780</ele>
        <time>2021-12-21T11:45:58.000Z</time>
      </trkpt>
      <trkpt lat="44.02758" lon="6.01792">
        <ele>780</ele>
        <time>2021-12-21T11:45:59.000Z</time>
      </trkpt>
      <trkpt lat="44.02759" lon="6.01792">
        <ele>780</ele>
        <time>2021-12-21T11:46:00.000Z</time>
      </trkpt>
      <trkpt lat="44.0276" lon="6.01791">
        <ele>780</ele>
        <time>2021-12-21T11:46:01.000Z</time>
      </trkpt>
      <trkpt lat="44.02761" lon="6.01791">
        <ele>780</ele>
        <time>2021-12-21T11:46:02.000Z</time>
      </trkpt>
      <trkpt lat="44.02763" lon="6.0179">
        <ele>779</ele>
        <time>2021-12-21T11:46:03.000Z</time>
      </trkpt>
      <trkpt lat="44.02764" lon="6.0179">
        <ele>779</ele>
        <time>2021-12-21T11:46:04.000Z</time>
      </trkpt>
      <trkpt lat="44.02765" lon="6.0179">
        <ele>779</ele>
        <time>2021-12-21T11:46:05.000Z</time>
      </trkpt>
      <trkpt lat="44.02766" lon="6.01789">
        <ele>779</ele>
        <time>2021-12-21T11:46:06.000Z</time>
      </trkpt>
      <trkpt lat="44.02767" lon="6.01788">
        <ele>779</ele>
        <time>2021-12-21T11:46:07.000Z</time>
      </trkpt>
      <trkpt lat="44.02768" lon="6.01787">
        <ele>779</ele>
        <time>2021-12-21T11:46:08.000Z</time>
      </trkpt>
      <trkpt lat="44.0277" lon="6.01787">
        <ele>779</ele>
        <time>2021-12-21T11:46:09.000Z</time>
      </trkpt>
      <trkpt lat="44.02771" lon="6.01786">
        <ele>779</ele>
        <time>2021-12-21T11:46:10.000Z</time>
      </trkpt>
      <trkpt lat="44.02772" lon="6.01785">
        <ele>779</ele>
        <time>2021-12-21T11:46:11.000Z</time>
      </trkpt>
      <trkpt lat="44.02773" lon="6.01785">
        <ele>779</ele>
        <time>2021-12-21T11:46:12.000Z</time>
      </trkpt>
      <trkpt lat="44.02774" lon="6.01784">
        <ele>779</ele>
        <time>2021-12-21T11:46:13.000Z</time>
      </trkpt>
      <trkpt lat="44.02775" lon="6.01784">
        <ele>779</ele>
        <time>2021-12-21T11:46:14.000Z</time>
      </trkpt>
      <trkpt lat="44.02776" lon="6.01783">
        <ele>779</ele>
        <time>2021-12-21T11:46:15.000Z</time>
      </trkpt>
      <trkpt lat="44.02777" lon="6.01782">
        <ele>779</ele>
        <time>2021-12-21T11:46:16.000Z</time>
      </trkpt>
      <trkpt lat="44.02779" lon="6.01782">
        <ele>779</ele>
        <time>2021-12-21T11:46:17.000Z</time>
      </trkpt>
      <trkpt lat="44.0278" lon="6.01781">
        <ele>779</ele>
        <time>2021-12-21T11:46:18.000Z</time>
      </trkpt>
      <trkpt lat="44.02781" lon="6.0178">
        <ele>779</ele>
        <time>2021-12-21T11:46:19.000Z</time>
      </trkpt>
      <trkpt lat="44.02782" lon="6.0178">
        <ele>779</ele>
        <time>2021-12-21T11:46:20.000Z</time>
      </trkpt>
      <trkpt lat="44.02784" lon="6.0178">
        <ele>779</ele>
        <time>2021-12-21T11:46:21.000Z</time>
      </trkpt>
      <trkpt lat="44.02785" lon="6.01779">
        <ele>779</ele>
        <time>2021-12-21T11:46:22.000Z</time>
      </trkpt>
      <trkpt lat="44.02786" lon="6.01779">
        <ele>779</ele>
        <time>2021-12-21T11:46:23.000Z</time>
      </trkpt>
      <trkpt lat="44.02787" lon="6.01778">
        <ele>779</ele>
        <time>2021-12-21T11:46:24.000Z</time>
      </trkpt>
      <trkpt lat="44.02789" lon="6.01777">
        <ele>779</ele>
        <time>2021-12-21T11:46:25.000Z</time>
      </trkpt>
      <trkpt lat="44.0279" lon="6.01777">
        <ele>779</ele>
        <time>2021-12-21T11:46:26.000Z</time>
      </trkpt>
      <trkpt lat="44.02791" lon="6.01777">
        <ele>779</ele>
        <time>2021-12-21T11:46:27.000Z</time>
      </trkpt>
      <trkpt lat="44.02792" lon="6.01777">
        <ele>779</ele>
        <time>2021-12-21T11:46:28.000Z</time>
      </trkpt>
      <trkpt lat="44.02794" lon="6.01777">
        <ele>779</ele>
        <time>2021-12-21T11:46:29.000Z</time>
      </trkpt>
      <trkpt lat="44.02795" lon="6.01777">
        <ele>779</ele>
        <time>2021-12-21T11:46:30.000Z</time>
      </trkpt>
      <trkpt lat="44.02797" lon="6.01777">
        <ele>779</ele>
        <time>2021-12-21T11:46:31.000Z</time>
      </trkpt>
      <trkpt lat="44.02798" lon="6.01777">
        <ele>779</ele>
        <time>2021-12-21T11:46:32.000Z</time>
      </trkpt>
      <trkpt lat="44.02799" lon="6.01776">
        <ele>779</ele>
        <time>2021-12-21T11:46:33.000Z</time>
      </trkpt>
      <trkpt lat="44.02801" lon="6.01776">
        <ele>779</ele>
        <time>2021-12-21T11:46:34.000Z</time>
      </trkpt>
      <trkpt lat="44.02802" lon="6.01776">
        <ele>779</ele>
        <time>2021-12-21T11:46:35.000Z</time>
      </trkpt>
      <trkpt lat="44.02803" lon="6.01776">
        <ele>779</ele>
        <time>2021-12-21T11:46:36.000Z</time>
      </trkpt>
      <trkpt lat="44.02804" lon="6.01776">
        <ele>779</ele>
        <time>2021-12-21T11:46:37.000Z</time>
      </trkpt>
      <trkpt lat="44.02806" lon="6.01775">
        <ele>778</ele>
        <time>2021-12-21T11:46:38.000Z</time>
      </trkpt>
      <trkpt lat="44.02807" lon="6.01775">
        <ele>778</ele>
        <time>2021-12-21T11:46:39.000Z</time>
      </trkpt>
      <trkpt lat="44.02808" lon="6.01775">
        <ele>778</ele>
        <time>2021-12-21T11:46:40.000Z</time>
      </trkpt>
      <trkpt lat="44.02809" lon="6.01775">
        <ele>778</ele>
        <time>2021-12-21T11:46:41.000Z</time>
      </trkpt>
      <trkpt lat="44.0281" lon="6.01774">
        <ele>778</ele>
        <time>2021-12-21T11:46:42.000Z</time>
      </trkpt>
      <trkpt lat="44.02812" lon="6.01775">
        <ele>778</ele>
        <time>2021-12-21T11:46:43.000Z</time>
      </trkpt>
      <trkpt lat="44.02813" lon="6.01774">
        <ele>778</ele>
        <time>2021-12-21T11:46:44.000Z</time>
      </trkpt>
      <trkpt lat="44.02814" lon="6.01775">
        <ele>778</ele>
        <time>2021-12-21T11:46:45.000Z</time>
      </trkpt>
      <trkpt lat="44.02815" lon="6.01775">
        <ele>778</ele>
        <time>2021-12-21T11:46:46.000Z</time>
      </trkpt>
      <trkpt lat="44.02817" lon="6.01775">
        <ele>778</ele>
        <time>2021-12-21T11:46:47.000Z</time>
      </trkpt>
      <trkpt lat="44.02818" lon="6.01775">
        <ele>778</ele>
        <time>2021-12-21T11:46:48.000Z</time>
      </trkpt>
      <trkpt lat="44.02819" lon="6.01775">
        <ele>778</ele>
        <time>2021-12-21T11:46:49.000Z</time>
      </trkpt>
      <trkpt lat="44.0282" lon="6.01774">
        <ele>778</ele>
        <time>2021-12-21T11:46:50.000Z</time>
      </trkpt>
      <trkpt lat="44.02821" lon="6.01774">
        <ele>778</ele>
        <time>2021-12-21T11:46:51.000Z</time>
      </trkpt>
      <trkpt lat="44.02822" lon="6.01774">
        <ele>778</ele>
        <time>2021-12-21T11:46:52.000Z</time>
      </trkpt>
      <trkpt lat="44.02823" lon="6.01773">
        <ele>778</ele>
        <time>2021-12-21T11:46:53.000Z</time>
      </trkpt>
      <trkpt lat="44.02824" lon="6.01772">
        <ele>778</ele>
        <time>2021-12-21T11:46:54.000Z</time>
      </trkpt>
      <trkpt lat="44.02826" lon="6.01772">
        <ele>778</ele>
        <time>2021-12-21T11:46:55.000Z</time>
      </trkpt>
      <trkpt lat="44.02827" lon="6.01772">
        <ele>778</ele>
        <time>2021-12-21T11:46:56.000Z</time>
      </trkpt>
      <trkpt lat="44.02828" lon="6.01772">
        <ele>778</ele>
        <time>2021-12-21T11:46:57.000Z</time>
      </trkpt>
      <trkpt lat="44.02829" lon="6.01771">
        <ele>778</ele>
        <time>2021-12-21T11:46:58.000Z</time>
      </trkpt>
      <trkpt lat="44.0283" lon="6.01771">
        <ele>778</ele>
        <time>2021-12-21T11:46:59.000Z</time>
      </trkpt>
      <trkpt lat="44.02831" lon="6.0177">
        <ele>778</ele>
        <time>2021-12-21T11:47:00.000Z</time>
      </trkpt>
      <trkpt lat="44.02832" lon="6.0177">
        <ele>778</ele>
        <time>2021-12-21T11:47:01.000Z</time>
      </trkpt>
      <trkpt lat="44.02833" lon="6.01769">
        <ele>778</ele>
        <time>2021-12-21T11:47:02.000Z</time>
      </trkpt>
      <trkpt lat="44.02834" lon="6.01769">
        <ele>778</ele>
        <time>2021-12-21T11:47:03.000Z</time>
      </trkpt>
      <trkpt lat="44.02835" lon="6.01768">
        <ele>778</ele>
        <time>2021-12-21T11:47:04.000Z</time>
      </trkpt>
      <trkpt lat="44.02836" lon="6.01768">
        <ele>778</ele>
        <time>2021-12-21T11:47:05.000Z</time>
      </trkpt>
      <trkpt lat="44.02837" lon="6.01767">
        <ele>778</ele>
        <time>2021-12-21T11:47:06.000Z</time>
      </trkpt>
      <trkpt lat="44.02838" lon="6.01767">
        <ele>778</ele>
        <time>2021-12-21T11:47:07.000Z</time>
      </trkpt>
      <trkpt lat="44.02839" lon="6.01767">
        <ele>777</ele>
        <time>2021-12-21T11:47:08.000Z</time>
      </trkpt>
      <trkpt lat="44.0284" lon="6.01767">
        <ele>777</ele>
        <time>2021-12-21T11:47:09.000Z</time>
      </trkpt>
      <trkpt lat="44.02841" lon="6.01766">
        <ele>777</ele>
        <time>2021-12-21T11:47:10.000Z</time>
      </trkpt>
      <trkpt lat="44.02842" lon="6.01765">
        <ele>777</ele>
        <time>2021-12-21T11:47:11.000Z</time>
      </trkpt>
      <trkpt lat="44.02842" lon="6.01765">
        <ele>777</ele>
        <time>2021-12-21T11:47:12.000Z</time>
      </trkpt>
      <trkpt lat="44.02843" lon="6.01764">
        <ele>777</ele>
        <time>2021-12-21T11:47:13.000Z</time>
      </trkpt>
      <trkpt lat="44.02844" lon="6.01763">
        <ele>777</ele>
        <time>2021-12-21T11:47:14.000Z</time>
      </trkpt>
      <trkpt lat="44.02844" lon="6.01762">
        <ele>777</ele>
        <time>2021-12-21T11:47:15.000Z</time>
      </trkpt>
      <trkpt lat="44.02845" lon="6.0176">
        <ele>777</ele>
        <time>2021-12-21T11:47:16.000Z</time>
      </trkpt>
      <trkpt lat="44.02845" lon="6.01759">
        <ele>777</ele>
        <time>2021-12-21T11:47:17.000Z</time>
      </trkpt>
      <trkpt lat="44.02845" lon="6.01757">
        <ele>777</ele>
        <time>2021-12-21T11:47:18.000Z</time>
      </trkpt>
      <trkpt lat="44.02846" lon="6.01755">
        <ele>777</ele>
        <time>2021-12-21T11:47:19.000Z</time>
      </trkpt>
      <trkpt lat="44.02847" lon="6.01754">
        <ele>776</ele>
        <time>2021-12-21T11:47:20.000Z</time>
      </trkpt>
      <trkpt lat="44.02848" lon="6.01753">
        <ele>776</ele>
        <time>2021-12-21T11:47:21.000Z</time>
      </trkpt>
      <trkpt lat="44.02848" lon="6.01751">
        <ele>776</ele>
        <time>2021-12-21T11:47:22.000Z</time>
      </trkpt>
      <trkpt lat="44.02849" lon="6.0175">
        <ele>776</ele>
        <time>2021-12-21T11:47:23.000Z</time>
      </trkpt>
      <trkpt lat="44.0285" lon="6.01749">
        <ele>775</ele>
        <time>2021-12-21T11:47:24.000Z</time>
      </trkpt>
      <trkpt lat="44.02851" lon="6.01748">
        <ele>775</ele>
        <time>2021-12-21T11:47:25.000Z</time>
      </trkpt>
      <trkpt lat="44.02852" lon="6.01746">
        <ele>775</ele>
        <time>2021-12-21T11:47:26.000Z</time>
      </trkpt>
      <trkpt lat="44.02853" lon="6.01745">
        <ele>774</ele>
        <time>2021-12-21T11:47:27.000Z</time>
      </trkpt>
      <trkpt lat="44.02854" lon="6.01744">
        <ele>774</ele>
        <time>2021-12-21T11:47:28.000Z</time>
      </trkpt>
      <trkpt lat="44.02855" lon="6.01743">
        <ele>774</ele>
        <time>2021-12-21T11:47:29.000Z</time>
      </trkpt>
      <trkpt lat="44.02856" lon="6.01742">
        <ele>774</ele>
        <time>2021-12-21T11:47:30.000Z</time>
      </trkpt>
      <trkpt lat="44.02857" lon="6.01741">
        <ele>774</ele>
        <time>2021-12-21T11:47:31.000Z</time>
      </trkpt>
      <trkpt lat="44.02858" lon="6.0174">
        <ele>774</ele>
        <time>2021-12-21T11:47:32.000Z</time>
      </trkpt>
      <trkpt lat="44.02859" lon="6.01739">
        <ele>774</ele>
        <time>2021-12-21T11:47:33.000Z</time>
      </trkpt>
      <trkpt lat="44.0286" lon="6.01738">
        <ele>774</ele>
        <time>2021-12-21T11:47:34.000Z</time>
      </trkpt>
      <trkpt lat="44.02861" lon="6.01737">
        <ele>774</ele>
        <time>2021-12-21T11:47:35.000Z</time>
      </trkpt>
      <trkpt lat="44.02862" lon="6.01736">
        <ele>774</ele>
        <time>2021-12-21T11:47:36.000Z</time>
      </trkpt>
      <trkpt lat="44.02863" lon="6.01735">
        <ele>774</ele>
        <time>2021-12-21T11:47:37.000Z</time>
      </trkpt>
      <trkpt lat="44.02863" lon="6.01734">
        <ele>774</ele>
        <time>2021-12-21T11:47:38.000Z</time>
      </trkpt>
      <trkpt lat="44.02864" lon="6.01733">
        <ele>774</ele>
        <time>2021-12-21T11:47:39.000Z</time>
      </trkpt>
      <trkpt lat="44.02864" lon="6.01732">
        <ele>774</ele>
        <time>2021-12-21T11:47:40.000Z</time>
      </trkpt>
      <trkpt lat="44.02865" lon="6.0173">
        <ele>774</ele>
        <time>2021-12-21T11:47:41.000Z</time>
      </trkpt>
      <trkpt lat="44.02866" lon="6.01729">
        <ele>773</ele>
        <time>2021-12-21T11:47:42.000Z</time>
      </trkpt>
      <trkpt lat="44.02867" lon="6.01728">
        <ele>773</ele>
        <time>2021-12-21T11:47:43.000Z</time>
      </trkpt>
      <trkpt lat="44.02868" lon="6.01726">
        <ele>773</ele>
        <time>2021-12-21T11:47:44.000Z</time>
      </trkpt>
      <trkpt lat="44.02869" lon="6.01726">
        <ele>773</ele>
        <time>2021-12-21T11:47:45.000Z</time>
      </trkpt>
      <trkpt lat="44.0287" lon="6.01725">
        <ele>773</ele>
        <time>2021-12-21T11:47:46.000Z</time>
      </trkpt>
      <trkpt lat="44.02871" lon="6.01724">
        <ele>773</ele>
        <time>2021-12-21T11:47:47.000Z</time>
      </trkpt>
      <trkpt lat="44.02872" lon="6.01723">
        <ele>773</ele>
        <time>2021-12-21T11:47:48.000Z</time>
      </trkpt>
      <trkpt lat="44.02872" lon="6.01722">
        <ele>772</ele>
        <time>2021-12-21T11:47:49.000Z</time>
      </trkpt>
      <trkpt lat="44.02873" lon="6.01721">
        <ele>772</ele>
        <time>2021-12-21T11:47:50.000Z</time>
      </trkpt>
      <trkpt lat="44.02873" lon="6.01719">
        <ele>772</ele>
        <time>2021-12-21T11:47:51.000Z</time>
      </trkpt>
      <trkpt lat="44.02874" lon="6.01717">
        <ele>772</ele>
        <time>2021-12-21T11:47:52.000Z</time>
      </trkpt>
      <trkpt lat="44.02874" lon="6.01716">
        <ele>772</ele>
        <time>2021-12-21T11:47:53.000Z</time>
      </trkpt>
      <trkpt lat="44.02875" lon="6.01714">
        <ele>772</ele>
        <time>2021-12-21T11:47:54.000Z</time>
      </trkpt>
      <trkpt lat="44.02876" lon="6.01712">
        <ele>772</ele>
        <time>2021-12-21T11:47:55.000Z</time>
      </trkpt>
      <trkpt lat="44.02876" lon="6.01711">
        <ele>772</ele>
        <time>2021-12-21T11:47:56.000Z</time>
      </trkpt>
      <trkpt lat="44.02877" lon="6.0171">
        <ele>772</ele>
        <time>2021-12-21T11:47:57.000Z</time>
      </trkpt>
      <trkpt lat="44.02878" lon="6.01708">
        <ele>772</ele>
        <time>2021-12-21T11:47:58.000Z</time>
      </trkpt>
      <trkpt lat="44.02879" lon="6.01707">
        <ele>772</ele>
        <time>2021-12-21T11:47:59.000Z</time>
      </trkpt>
      <trkpt lat="44.02879" lon="6.01706">
        <ele>772</ele>
        <time>2021-12-21T11:48:00.000Z</time>
      </trkpt>
      <trkpt lat="44.0288" lon="6.01704">
        <ele>772</ele>
        <time>2021-12-21T11:48:01.000Z</time>
      </trkpt>
      <trkpt lat="44.02881" lon="6.01703">
        <ele>772</ele>
        <time>2021-12-21T11:48:02.000Z</time>
      </trkpt>
      <trkpt lat="44.02882" lon="6.01701">
        <ele>772</ele>
        <time>2021-12-21T11:48:03.000Z</time>
      </trkpt>
      <trkpt lat="44.02882" lon="6.017">
        <ele>772</ele>
        <time>2021-12-21T11:48:04.000Z</time>
      </trkpt>
      <trkpt lat="44.02883" lon="6.01699">
        <ele>772</ele>
        <time>2021-12-21T11:48:05.000Z</time>
      </trkpt>
      <trkpt lat="44.02884" lon="6.01698">
        <ele>772</ele>
        <time>2021-12-21T11:48:06.000Z</time>
      </trkpt>
      <trkpt lat="44.02885" lon="6.01696">
        <ele>772</ele>
        <time>2021-12-21T11:48:07.000Z</time>
      </trkpt>
      <trkpt lat="44.02886" lon="6.01695">
        <ele>772</ele>
        <time>2021-12-21T11:48:08.000Z</time>
      </trkpt>
      <trkpt lat="44.02887" lon="6.01694">
        <ele>772</ele>
        <time>2021-12-21T11:48:09.000Z</time>
      </trkpt>
      <trkpt lat="44.02887" lon="6.01693">
        <ele>773</ele>
        <time>2021-12-21T11:48:10.000Z</time>
      </trkpt>
      <trkpt lat="44.02888" lon="6.01692">
        <ele>773</ele>
        <time>2021-12-21T11:48:11.000Z</time>
      </trkpt>
      <trkpt lat="44.02889" lon="6.01691">
        <ele>773</ele>
        <time>2021-12-21T11:48:12.000Z</time>
      </trkpt>
      <trkpt lat="44.0289" lon="6.0169">
        <ele>773</ele>
        <time>2021-12-21T11:48:13.000Z</time>
      </trkpt>
      <trkpt lat="44.02891" lon="6.01688">
        <ele>773</ele>
        <time>2021-12-21T11:48:14.000Z</time>
      </trkpt>
      <trkpt lat="44.02891" lon="6.01688">
        <ele>773</ele>
        <time>2021-12-21T11:48:15.000Z</time>
      </trkpt>
      <trkpt lat="44.02892" lon="6.01686">
        <ele>773</ele>
        <time>2021-12-21T11:48:16.000Z</time>
      </trkpt>
      <trkpt lat="44.02893" lon="6.01685">
        <ele>773</ele>
        <time>2021-12-21T11:48:17.000Z</time>
      </trkpt>
      <trkpt lat="44.02893" lon="6.01684">
        <ele>773</ele>
        <time>2021-12-21T11:48:18.000Z</time>
      </trkpt>
      <trkpt lat="44.02894" lon="6.01683">
        <ele>773</ele>
        <time>2021-12-21T11:48:19.000Z</time>
      </trkpt>
      <trkpt lat="44.02895" lon="6.01681">
        <ele>774</ele>
        <time>2021-12-21T11:48:20.000Z</time>
      </trkpt>
      <trkpt lat="44.02896" lon="6.0168">
        <ele>774</ele>
        <time>2021-12-21T11:48:21.000Z</time>
      </trkpt>
      <trkpt lat="44.02896" lon="6.01678">
        <ele>774</ele>
        <time>2021-12-21T11:48:22.000Z</time>
      </trkpt>
      <trkpt lat="44.02896" lon="6.01677">
        <ele>774</ele>
        <time>2021-12-21T11:48:23.000Z</time>
      </trkpt>
      <trkpt lat="44.02897" lon="6.01675">
        <ele>774</ele>
        <time>2021-12-21T11:48:24.000Z</time>
      </trkpt>
      <trkpt lat="44.02898" lon="6.01674">
        <ele>774</ele>
        <time>2021-12-21T11:48:25.000Z</time>
      </trkpt>
      <trkpt lat="44.02898" lon="6.01673">
        <ele>774</ele>
        <time>2021-12-21T11:48:26.000Z</time>
      </trkpt>
      <trkpt lat="44.02899" lon="6.01671">
        <ele>774</ele>
        <time>2021-12-21T11:48:27.000Z</time>
      </trkpt>
      <trkpt lat="44.02899" lon="6.01669">
        <ele>774</ele>
        <time>2021-12-21T11:48:28.000Z</time>
      </trkpt>
      <trkpt lat="44.029" lon="6.01668">
        <ele>774</ele>
        <time>2021-12-21T11:48:29.000Z</time>
      </trkpt>
      <trkpt lat="44.029" lon="6.01666">
        <ele>774</ele>
        <time>2021-12-21T11:48:30.000Z</time>
      </trkpt>
      <trkpt lat="44.02901" lon="6.01665">
        <ele>774</ele>
        <time>2021-12-21T11:48:31.000Z</time>
      </trkpt>
      <trkpt lat="44.02902" lon="6.01664">
        <ele>774</ele>
        <time>2021-12-21T11:48:32.000Z</time>
      </trkpt>
      <trkpt lat="44.02903" lon="6.01663">
        <ele>775</ele>
        <time>2021-12-21T11:48:33.000Z</time>
      </trkpt>
      <trkpt lat="44.02903" lon="6.01662">
        <ele>775</ele>
        <time>2021-12-21T11:48:34.000Z</time>
      </trkpt>
      <trkpt lat="44.02904" lon="6.01661">
        <ele>775</ele>
        <time>2021-12-21T11:48:35.000Z</time>
      </trkpt>
      <trkpt lat="44.02905" lon="6.0166">
        <ele>775</ele>
        <time>2021-12-21T11:48:36.000Z</time>
      </trkpt>
      <trkpt lat="44.02906" lon="6.01659">
        <ele>775</ele>
        <time>2021-12-21T11:48:37.000Z</time>
      </trkpt>
      <trkpt lat="44.02907" lon="6.01658">
        <ele>775</ele>
        <time>2021-12-21T11:48:38.000Z</time>
      </trkpt>
      <trkpt lat="44.02907" lon="6.01658">
        <ele>775</ele>
        <time>2021-12-21T11:48:39.000Z</time>
      </trkpt>
      <trkpt lat="44.02907" lon="6.01658">
        <ele>775</ele>
        <time>2021-12-21T11:48:40.000Z</time>
      </trkpt>
      <trkpt lat="44.02907" lon="6.01657">
        <ele>775</ele>
        <time>2021-12-21T11:48:41.000Z</time>
      </trkpt>
      <trkpt lat="44.02908" lon="6.01656">
        <ele>776</ele>
        <time>2021-12-21T11:48:42.000Z</time>
      </trkpt>
      <trkpt lat="44.02908" lon="6.01656">
        <ele>776</ele>
        <time>2021-12-21T11:48:43.000Z</time>
      </trkpt>
      <trkpt lat="44.02909" lon="6.01655">
        <ele>776</ele>
        <time>2021-12-21T11:48:44.000Z</time>
      </trkpt>
      <trkpt lat="44.0291" lon="6.01654">
        <ele>776</ele>
        <time>2021-12-21T11:48:45.000Z</time>
      </trkpt>
      <trkpt lat="44.0291" lon="6.01653">
        <ele>776</ele>
        <time>2021-12-21T11:48:46.000Z</time>
      </trkpt>
      <trkpt lat="44.02911" lon="6.01652">
        <ele>776</ele>
        <time>2021-12-21T11:48:47.000Z</time>
      </trkpt>
      <trkpt lat="44.02912" lon="6.01651">
        <ele>776</ele>
        <time>2021-12-21T11:48:48.000Z</time>
      </trkpt>
      <trkpt lat="44.02913" lon="6.0165">
        <ele>776</ele>
        <time>2021-12-21T11:48:49.000Z</time>
      </trkpt>
      <trkpt lat="44.02913" lon="6.01649">
        <ele>777</ele>
        <time>2021-12-21T11:48:50.000Z</time>
      </trkpt>
      <trkpt lat="44.02914" lon="6.01648">
        <ele>777</ele>
        <time>2021-12-21T11:48:51.000Z</time>
      </trkpt>
      <trkpt lat="44.02915" lon="6.01647">
        <ele>777</ele>
        <time>2021-12-21T11:48:52.000Z</time>
      </trkpt>
      <trkpt lat="44.02915" lon="6.01646">
        <ele>777</ele>
        <time>2021-12-21T11:48:53.000Z</time>
      </trkpt>
      <trkpt lat="44.02916" lon="6.01645">
        <ele>777</ele>
        <time>2021-12-21T11:48:54.000Z</time>
      </trkpt>
      <trkpt lat="44.02917" lon="6.01644">
        <ele>777</ele>
        <time>2021-12-21T11:48:55.000Z</time>
      </trkpt>
      <trkpt lat="44.02918" lon="6.01643">
        <ele>778</ele>
        <time>2021-12-21T11:48:56.000Z</time>
      </trkpt>
      <trkpt lat="44.02919" lon="6.01643">
        <ele>778</ele>
        <time>2021-12-21T11:48:57.000Z</time>
      </trkpt>
      <trkpt lat="44.0292" lon="6.01642">
        <ele>778</ele>
        <time>2021-12-21T11:48:58.000Z</time>
      </trkpt>
      <trkpt lat="44.02921" lon="6.01641">
        <ele>778</ele>
        <time>2021-12-21T11:48:59.000Z</time>
      </trkpt>
      <trkpt lat="44.02922" lon="6.01641">
        <ele>778</ele>
        <time>2021-12-21T11:49:00.000Z</time>
      </trkpt>
      <trkpt lat="44.02923" lon="6.0164">
        <ele>778</ele>
        <time>2021-12-21T11:49:01.000Z</time>
      </trkpt>
      <trkpt lat="44.02923" lon="6.01639">
        <ele>778</ele>
        <time>2021-12-21T11:49:02.000Z</time>
      </trkpt>
      <trkpt lat="44.02923" lon="6.01639">
        <ele>779</ele>
        <time>2021-12-21T11:49:03.000Z</time>
      </trkpt>
      <trkpt lat="44.02924" lon="6.01638">
        <ele>779</ele>
        <time>2021-12-21T11:49:04.000Z</time>
      </trkpt>
      <trkpt lat="44.02925" lon="6.01638">
        <ele>779</ele>
        <time>2021-12-21T11:49:05.000Z</time>
      </trkpt>
      <trkpt lat="44.02925" lon="6.01638">
        <ele>779</ele>
        <time>2021-12-21T11:49:06.000Z</time>
      </trkpt>
      <trkpt lat="44.02925" lon="6.01638">
        <ele>779</ele>
        <time>2021-12-21T11:49:07.000Z</time>
      </trkpt>
      <trkpt lat="44.02926" lon="6.01637">
        <ele>779</ele>
        <time>2021-12-21T11:49:08.000Z</time>
      </trkpt>
      <trkpt lat="44.02926" lon="6.01637">
        <ele>779</ele>
        <time>2021-12-21T11:49:09.000Z</time>
      </trkpt>
      <trkpt lat="44.02926" lon="6.01637">
        <ele>779</ele>
        <time>2021-12-21T11:49:10.000Z</time>
      </trkpt>
      <trkpt lat="44.02926" lon="6.01637">
        <ele>779</ele>
        <time>2021-12-21T11:49:11.000Z</time>
      </trkpt>
      <trkpt lat="44.02926" lon="6.01637">
        <ele>779</ele>
        <time>2021-12-21T11:49:12.000Z</time>
      </trkpt>
      <trkpt lat="44.02926" lon="6.01637">
        <ele>779</ele>
        <time>2021-12-21T11:49:13.000Z</time>
      </trkpt>
      <trkpt lat="44.02926" lon="6.01636">
        <ele>779</ele>
        <time>2021-12-21T11:49:14.000Z</time>
      </trkpt>
      <trkpt lat="44.02926" lon="6.01636">
        <ele>779</ele>
        <time>2021-12-21T11:49:15.000Z</time>
      </trkpt>
      <trkpt lat="44.02926" lon="6.01636">
        <ele>779</ele>
        <time>2021-12-21T11:49:16.000Z</time>
      </trkpt>
      <trkpt lat="44.02926" lon="6.01636">
        <ele>779</ele>
        <time>2021-12-21T11:49:17.000Z</time>
      </trkpt>
      <trkpt lat="44.02927" lon="6.01636">
        <ele>779</ele>
        <time>2021-12-21T11:49:18.000Z</time>
      </trkpt>
      <trkpt lat="44.02928" lon="6.01636">
        <ele>779</ele>
        <time>2021-12-21T11:49:19.000Z</time>
      </trkpt>
      <trkpt lat="44.02929" lon="6.01635">
        <ele>779</ele>
        <time>2021-12-21T11:49:20.000Z</time>
      </trkpt>
      <trkpt lat="44.0293" lon="6.01634">
        <ele>779</ele>
        <time>2021-12-21T11:49:21.000Z</time>
      </trkpt>
      <trkpt lat="44.02931" lon="6.01634">
        <ele>779</ele>
        <time>2021-12-21T11:49:22.000Z</time>
      </trkpt>
      <trkpt lat="44.02932" lon="6.01633">
        <ele>779</ele>
        <time>2021-12-21T11:49:23.000Z</time>
      </trkpt>
      <trkpt lat="44.02933" lon="6.01632">
        <ele>779</ele>
        <time>2021-12-21T11:49:24.000Z</time>
      </trkpt>
      <trkpt lat="44.02934" lon="6.01632">
        <ele>779</ele>
        <time>2021-12-21T11:49:25.000Z</time>
      </trkpt>
      <trkpt lat="44.02935" lon="6.0163">
        <ele>779</ele>
        <time>2021-12-21T11:49:26.000Z</time>
      </trkpt>
      <trkpt lat="44.02935" lon="6.01629">
        <ele>779</ele>
        <time>2021-12-21T11:49:27.000Z</time>
      </trkpt>
      <trkpt lat="44.02935" lon="6.01627">
        <ele>779</ele>
        <time>2021-12-21T11:49:28.000Z</time>
      </trkpt>
      <trkpt lat="44.02935" lon="6.01625">
        <ele>779</ele>
        <time>2021-12-21T11:49:29.000Z</time>
      </trkpt>
      <trkpt lat="44.02935" lon="6.01624">
        <ele>779</ele>
        <time>2021-12-21T11:49:30.000Z</time>
      </trkpt>
      <trkpt lat="44.02935" lon="6.01622">
        <ele>779</ele>
        <time>2021-12-21T11:49:31.000Z</time>
      </trkpt>
      <trkpt lat="44.02935" lon="6.01621">
        <ele>779</ele>
        <time>2021-12-21T11:49:32.000Z</time>
      </trkpt>
      <trkpt lat="44.02935" lon="6.01619">
        <ele>779</ele>
        <time>2021-12-21T11:49:33.000Z</time>
      </trkpt>
      <trkpt lat="44.02935" lon="6.01617">
        <ele>780</ele>
        <time>2021-12-21T11:49:34.000Z</time>
      </trkpt>
      <trkpt lat="44.02935" lon="6.01616">
        <ele>780</ele>
        <time>2021-12-21T11:49:35.000Z</time>
      </trkpt>
      <trkpt lat="44.02935" lon="6.01615">
        <ele>780</ele>
        <time>2021-12-21T11:49:36.000Z</time>
      </trkpt>
      <trkpt lat="44.02935" lon="6.01613">
        <ele>780</ele>
        <time>2021-12-21T11:49:37.000Z</time>
      </trkpt>
      <trkpt lat="44.02935" lon="6.01612">
        <ele>780</ele>
        <time>2021-12-21T11:49:38.000Z</time>
      </trkpt>
      <trkpt lat="44.02936" lon="6.0161">
        <ele>780</ele>
        <time>2021-12-21T11:49:39.000Z</time>
      </trkpt>
      <trkpt lat="44.02936" lon="6.01609">
        <ele>780</ele>
        <time>2021-12-21T11:49:40.000Z</time>
      </trkpt>
      <trkpt lat="44.02936" lon="6.01607">
        <ele>780</ele>
        <time>2021-12-21T11:49:41.000Z</time>
      </trkpt>
      <trkpt lat="44.02936" lon="6.01606">
        <ele>780</ele>
        <time>2021-12-21T11:49:42.000Z</time>
      </trkpt>
      <trkpt lat="44.02937" lon="6.01604">
        <ele>780</ele>
        <time>2021-12-21T11:49:43.000Z</time>
      </trkpt>
      <trkpt lat="44.02937" lon="6.01603">
        <ele>780</ele>
        <time>2021-12-21T11:49:44.000Z</time>
      </trkpt>
      <trkpt lat="44.02937" lon="6.01601">
        <ele>780</ele>
        <time>2021-12-21T11:49:45.000Z</time>
      </trkpt>
      <trkpt lat="44.02938" lon="6.016">
        <ele>780</ele>
        <time>2021-12-21T11:49:46.000Z</time>
      </trkpt>
      <trkpt lat="44.02938" lon="6.01598">
        <ele>780</ele>
        <time>2021-12-21T11:49:47.000Z</time>
      </trkpt>
      <trkpt lat="44.02939" lon="6.01597">
        <ele>780</ele>
        <time>2021-12-21T11:49:48.000Z</time>
      </trkpt>
      <trkpt lat="44.0294" lon="6.01596">
        <ele>780</ele>
        <time>2021-12-21T11:49:49.000Z</time>
      </trkpt>
      <trkpt lat="44.02941" lon="6.01595">
        <ele>779</ele>
        <time>2021-12-21T11:49:50.000Z</time>
      </trkpt>
      <trkpt lat="44.02942" lon="6.01594">
        <ele>779</ele>
        <time>2021-12-21T11:49:51.000Z</time>
      </trkpt>
      <trkpt lat="44.02942" lon="6.01593">
        <ele>779</ele>
        <time>2021-12-21T11:49:52.000Z</time>
      </trkpt>
      <trkpt lat="44.02942" lon="6.01592">
        <ele>779</ele>
        <time>2021-12-21T11:49:53.000Z</time>
      </trkpt>
      <trkpt lat="44.02943" lon="6.01591">
        <ele>779</ele>
        <time>2021-12-21T11:49:54.000Z</time>
      </trkpt>
      <trkpt lat="44.02943" lon="6.01589">
        <ele>779</ele>
        <time>2021-12-21T11:49:55.000Z</time>
      </trkpt>
      <trkpt lat="44.02943" lon="6.01589">
        <ele>779</ele>
        <time>2021-12-21T11:49:56.000Z</time>
      </trkpt>
      <trkpt lat="44.02943" lon="6.01588">
        <ele>779</ele>
        <time>2021-12-21T11:49:57.000Z</time>
      </trkpt>
      <trkpt lat="44.02943" lon="6.01588">
        <ele>779</ele>
        <time>2021-12-21T11:49:58.000Z</time>
      </trkpt>
      <trkpt lat="44.02943" lon="6.01588">
        <ele>779</ele>
        <time>2021-12-21T11:49:59.000Z</time>
      </trkpt>
      <trkpt lat="44.02943" lon="6.01588">
        <ele>779</ele>
        <time>2021-12-21T11:50:00.000Z</time>
      </trkpt>
      <trkpt lat="44.02943" lon="6.01588">
        <ele>779</ele>
        <time>2021-12-21T11:50:01.000Z</time>
      </trkpt>
      <trkpt lat="44.02943" lon="6.01588">
        <ele>779</ele>
        <time>2021-12-21T11:50:02.000Z</time>
      </trkpt>
      <trkpt lat="44.02943" lon="6.01588">
        <ele>779</ele>
        <time>2021-12-21T11:50:03.000Z</time>
      </trkpt>
      <trkpt lat="44.02943" lon="6.01588">
        <ele>779</ele>
        <time>2021-12-21T11:50:04.000Z</time>
      </trkpt>
      <trkpt lat="44.02943" lon="6.01588">
        <ele>779</ele>
        <time>2021-12-21T11:50:05.000Z</time>
      </trkpt>
      <trkpt lat="44.02943" lon="6.01588">
        <ele>779</ele>
        <time>2021-12-21T11:50:06.000Z</time>
      </trkpt>
      <trkpt lat="44.02943" lon="6.01588">
        <ele>779</ele>
        <time>2021-12-21T11:50:07.000Z</time>
      </trkpt>
      <trkpt lat="44.02943" lon="6.01588">
        <ele>779</ele>
        <time>2021-12-21T11:50:08.000Z</time>
      </trkpt>
      <trkpt lat="44.02943" lon="6.01588">
        <ele>779</ele>
        <time>2021-12-21T11:50:09.000Z</time>
      </trkpt>
      <trkpt lat="44.02943" lon="6.01588">
        <ele>779</ele>
        <time>2021-12-21T11:50:10.000Z</time>
      </trkpt>
      <trkpt lat="44.02944" lon="6.01588">
        <ele>778</ele>
        <time>2021-12-21T11:50:11.000Z</time>
      </trkpt>
      <trkpt lat="44.02944" lon="6.01588">
        <ele>778</ele>
        <time>2021-12-21T11:50:12.000Z</time>
      </trkpt>
      <trkpt lat="44.02944" lon="6.01588">
        <ele>778</ele>
        <time>2021-12-21T11:50:13.000Z</time>
      </trkpt>
      <trkpt lat="44.02944" lon="6.01588">
        <ele>778</ele>
        <time>2021-12-21T11:50:14.000Z</time>
      </trkpt>
      <trkpt lat="44.02944" lon="6.01588">
        <ele>778</ele>
        <time>2021-12-21T11:50:15.000Z</time>
      </trkpt>
      <trkpt lat="44.02944" lon="6.01588">
        <ele>778</ele>
        <time>2021-12-21T11:50:16.000Z</time>
      </trkpt>
      <trkpt lat="44.02944" lon="6.01587">
        <ele>778</ele>
        <time>2021-12-21T11:50:17.000Z</time>
      </trkpt>
      <trkpt lat="44.02944" lon="6.01586">
        <ele>778</ele>
        <time>2021-12-21T11:50:18.000Z</time>
      </trkpt>
      <trkpt lat="44.02943" lon="6.01585">
        <ele>778</ele>
        <time>2021-12-21T11:50:19.000Z</time>
      </trkpt>
      <trkpt lat="44.02943" lon="6.01584">
        <ele>778</ele>
        <time>2021-12-21T11:50:20.000Z</time>
      </trkpt>
      <trkpt lat="44.02942" lon="6.01582">
        <ele>778</ele>
        <time>2021-12-21T11:50:21.000Z</time>
      </trkpt>
      <trkpt lat="44.02942" lon="6.01581">
        <ele>778</ele>
        <time>2021-12-21T11:50:22.000Z</time>
      </trkpt>
      <trkpt lat="44.02941" lon="6.0158">
        <ele>778</ele>
        <time>2021-12-21T11:50:23.000Z</time>
      </trkpt>
      <trkpt lat="44.02941" lon="6.01579">
        <ele>778</ele>
        <time>2021-12-21T11:50:24.000Z</time>
      </trkpt>
      <trkpt lat="44.02941" lon="6.01577">
        <ele>778</ele>
        <time>2021-12-21T11:50:25.000Z</time>
      </trkpt>
      <trkpt lat="44.0294" lon="6.01576">
        <ele>778</ele>
        <time>2021-12-21T11:50:26.000Z</time>
      </trkpt>
      <trkpt lat="44.0294" lon="6.01575">
        <ele>777</ele>
        <time>2021-12-21T11:50:27.000Z</time>
      </trkpt>
      <trkpt lat="44.02939" lon="6.01574">
        <ele>777</ele>
        <time>2021-12-21T11:50:28.000Z</time>
      </trkpt>
      <trkpt lat="44.02939" lon="6.01573">
        <ele>777</ele>
        <time>2021-12-21T11:50:29.000Z</time>
      </trkpt>
      <trkpt lat="44.02938" lon="6.01571">
        <ele>777</ele>
        <time>2021-12-21T11:50:30.000Z</time>
      </trkpt>
      <trkpt lat="44.02938" lon="6.0157">
        <ele>777</ele>
        <time>2021-12-21T11:50:31.000Z</time>
      </trkpt>
      <trkpt lat="44.02937" lon="6.01568">
        <ele>777</ele>
        <time>2021-12-21T11:50:32.000Z</time>
      </trkpt>
      <trkpt lat="44.02937" lon="6.01567">
        <ele>777</ele>
        <time>2021-12-21T11:50:33.000Z</time>
      </trkpt>
      <trkpt lat="44.02936" lon="6.01566">
        <ele>776</ele>
        <time>2021-12-21T11:50:34.000Z</time>
      </trkpt>
      <trkpt lat="44.02935" lon="6.01565">
        <ele>776</ele>
        <time>2021-12-21T11:50:35.000Z</time>
      </trkpt>
      <trkpt lat="44.02935" lon="6.01563">
        <ele>776</ele>
        <time>2021-12-21T11:50:36.000Z</time>
      </trkpt>
      <trkpt lat="44.02935" lon="6.01562">
        <ele>776</ele>
        <time>2021-12-21T11:50:37.000Z</time>
      </trkpt>
      <trkpt lat="44.02934" lon="6.0156">
        <ele>776</ele>
        <time>2021-12-21T11:50:38.000Z</time>
      </trkpt>
      <trkpt lat="44.02934" lon="6.01559">
        <ele>776</ele>
        <time>2021-12-21T11:50:39.000Z</time>
      </trkpt>
      <trkpt lat="44.02934" lon="6.01557">
        <ele>776</ele>
        <time>2021-12-21T11:50:40.000Z</time>
      </trkpt>
      <trkpt lat="44.02934" lon="6.01556">
        <ele>775</ele>
        <time>2021-12-21T11:50:41.000Z</time>
      </trkpt>
      <trkpt lat="44.02933" lon="6.01554">
        <ele>775</ele>
        <time>2021-12-21T11:50:42.000Z</time>
      </trkpt>
      <trkpt lat="44.02933" lon="6.01552">
        <ele>775</ele>
        <time>2021-12-21T11:50:43.000Z</time>
      </trkpt>
      <trkpt lat="44.02933" lon="6.01551">
        <ele>775</ele>
        <time>2021-12-21T11:50:44.000Z</time>
      </trkpt>
      <trkpt lat="44.02933" lon="6.01549">
        <ele>775</ele>
        <time>2021-12-21T11:50:45.000Z</time>
      </trkpt>
      <trkpt lat="44.02932" lon="6.01548">
        <ele>775</ele>
        <time>2021-12-21T11:50:46.000Z</time>
      </trkpt>
      <trkpt lat="44.02932" lon="6.01546">
        <ele>775</ele>
        <time>2021-12-21T11:50:47.000Z</time>
      </trkpt>
      <trkpt lat="44.02932" lon="6.01545">
        <ele>775</ele>
        <time>2021-12-21T11:50:48.000Z</time>
      </trkpt>
      <trkpt lat="44.02931" lon="6.01543">
        <ele>775</ele>
        <time>2021-12-21T11:50:49.000Z</time>
      </trkpt>
      <trkpt lat="44.02931" lon="6.01542">
        <ele>775</ele>
        <time>2021-12-21T11:50:50.000Z</time>
      </trkpt>
      <trkpt lat="44.0293" lon="6.0154">
        <ele>774</ele>
        <time>2021-12-21T11:50:51.000Z</time>
      </trkpt>
      <trkpt lat="44.0293" lon="6.01539">
        <ele>774</ele>
        <time>2021-12-21T11:50:52.000Z</time>
      </trkpt>
      <trkpt lat="44.02929" lon="6.01538">
        <ele>774</ele>
        <time>2021-12-21T11:50:53.000Z</time>
      </trkpt>
      <trkpt lat="44.02929" lon="6.01536">
        <ele>774</ele>
        <time>2021-12-21T11:50:54.000Z</time>
      </trkpt>
      <trkpt lat="44.02929" lon="6.01534">
        <ele>774</ele>
        <time>2021-12-21T11:50:55.000Z</time>
      </trkpt>
      <trkpt lat="44.02929" lon="6.01533">
        <ele>773</ele>
        <time>2021-12-21T11:50:56.000Z</time>
      </trkpt>
      <trkpt lat="44.02928" lon="6.01531">
        <ele>773</ele>
        <time>2021-12-21T11:50:57.000Z</time>
      </trkpt>
      <trkpt lat="44.02928" lon="6.01529">
        <ele>773</ele>
        <time>2021-12-21T11:50:58.000Z</time>
      </trkpt>
      <trkpt lat="44.02928" lon="6.01528">
        <ele>773</ele>
        <time>2021-12-21T11:50:59.000Z</time>
      </trkpt>
      <trkpt lat="44.02927" lon="6.01526">
        <ele>773</ele>
        <time>2021-12-21T11:51:00.000Z</time>
      </trkpt>
      <trkpt lat="44.02927" lon="6.01524">
        <ele>773</ele>
        <time>2021-12-21T11:51:01.000Z</time>
      </trkpt>
      <trkpt lat="44.02926" lon="6.01523">
        <ele>773</ele>
        <time>2021-12-21T11:51:02.000Z</time>
      </trkpt>
      <trkpt lat="44.02926" lon="6.01521">
        <ele>773</ele>
        <time>2021-12-21T11:51:03.000Z</time>
      </trkpt>
      <trkpt lat="44.02926" lon="6.01519">
        <ele>773</ele>
        <time>2021-12-21T11:51:04.000Z</time>
      </trkpt>
      <trkpt lat="44.02926" lon="6.01518">
        <ele>772</ele>
        <time>2021-12-21T11:51:05.000Z</time>
      </trkpt>
      <trkpt lat="44.02925" lon="6.01516">
        <ele>772</ele>
        <time>2021-12-21T11:51:06.000Z</time>
      </trkpt>
      <trkpt lat="44.02925" lon="6.01515">
        <ele>772</ele>
        <time>2021-12-21T11:51:07.000Z</time>
      </trkpt>
      <trkpt lat="44.02924" lon="6.01513">
        <ele>772</ele>
        <time>2021-12-21T11:51:08.000Z</time>
      </trkpt>
      <trkpt lat="44.02923" lon="6.01512">
        <ele>772</ele>
        <time>2021-12-21T11:51:09.000Z</time>
      </trkpt>
      <trkpt lat="44.02923" lon="6.0151">
        <ele>772</ele>
        <time>2021-12-21T11:51:10.000Z</time>
      </trkpt>
      <trkpt lat="44.02922" lon="6.01509">
        <ele>772</ele>
        <time>2021-12-21T11:51:11.000Z</time>
      </trkpt>
      <trkpt lat="44.02921" lon="6.01507">
        <ele>771</ele>
        <time>2021-12-21T11:51:12.000Z</time>
      </trkpt>
      <trkpt lat="44.02921" lon="6.01505">
        <ele>771</ele>
        <time>2021-12-21T11:51:13.000Z</time>
      </trkpt>
      <trkpt lat="44.0292" lon="6.01504">
        <ele>771</ele>
        <time>2021-12-21T11:51:14.000Z</time>
      </trkpt>
      <trkpt lat="44.0292" lon="6.01502">
        <ele>771</ele>
        <time>2021-12-21T11:51:15.000Z</time>
      </trkpt>
      <trkpt lat="44.02919" lon="6.015">
        <ele>771</ele>
        <time>2021-12-21T11:51:16.000Z</time>
      </trkpt>
      <trkpt lat="44.02919" lon="6.01498">
        <ele>771</ele>
        <time>2021-12-21T11:51:17.000Z</time>
      </trkpt>
      <trkpt lat="44.02919" lon="6.01496">
        <ele>771</ele>
        <time>2021-12-21T11:51:18.000Z</time>
      </trkpt>
      <trkpt lat="44.02918" lon="6.01495">
        <ele>771</ele>
        <time>2021-12-21T11:51:19.000Z</time>
      </trkpt>
      <trkpt lat="44.02918" lon="6.01493">
        <ele>771</ele>
        <time>2021-12-21T11:51:20.000Z</time>
      </trkpt>
      <trkpt lat="44.02918" lon="6.01492">
        <ele>771</ele>
        <time>2021-12-21T11:51:21.000Z</time>
      </trkpt>
      <trkpt lat="44.02917" lon="6.0149">
        <ele>771</ele>
        <time>2021-12-21T11:51:22.000Z</time>
      </trkpt>
      <trkpt lat="44.02917" lon="6.01488">
        <ele>771</ele>
        <time>2021-12-21T11:51:23.000Z</time>
      </trkpt>
      <trkpt lat="44.02916" lon="6.01487">
        <ele>771</ele>
        <time>2021-12-21T11:51:24.000Z</time>
      </trkpt>
      <trkpt lat="44.02916" lon="6.01485">
        <ele>771</ele>
        <time>2021-12-21T11:51:25.000Z</time>
      </trkpt>
      <trkpt lat="44.02916" lon="6.01484">
        <ele>771</ele>
        <time>2021-12-21T11:51:26.000Z</time>
      </trkpt>
      <trkpt lat="44.02915" lon="6.01482">
        <ele>771</ele>
        <time>2021-12-21T11:51:27.000Z</time>
      </trkpt>
      <trkpt lat="44.02915" lon="6.0148">
        <ele>771</ele>
        <time>2021-12-21T11:51:28.000Z</time>
      </trkpt>
      <trkpt lat="44.02914" lon="6.01478">
        <ele>771</ele>
        <time>2021-12-21T11:51:29.000Z</time>
      </trkpt>
      <trkpt lat="44.02914" lon="6.01477">
        <ele>771</ele>
        <time>2021-12-21T11:51:30.000Z</time>
      </trkpt>
      <trkpt lat="44.02913" lon="6.01475">
        <ele>771</ele>
        <time>2021-12-21T11:51:31.000Z</time>
      </trkpt>
      <trkpt lat="44.02913" lon="6.01474">
        <ele>771</ele>
        <time>2021-12-21T11:51:32.000Z</time>
      </trkpt>
      <trkpt lat="44.02912" lon="6.01472">
        <ele>771</ele>
        <time>2021-12-21T11:51:33.000Z</time>
      </trkpt>
      <trkpt lat="44.02912" lon="6.0147">
        <ele>771</ele>
        <time>2021-12-21T11:51:34.000Z</time>
      </trkpt>
      <trkpt lat="44.02912" lon="6.01469">
        <ele>771</ele>
        <time>2021-12-21T11:51:35.000Z</time>
      </trkpt>
      <trkpt lat="44.02911" lon="6.01468">
        <ele>771</ele>
        <time>2021-12-21T11:51:36.000Z</time>
      </trkpt>
      <trkpt lat="44.02911" lon="6.01466">
        <ele>771</ele>
        <time>2021-12-21T11:51:37.000Z</time>
      </trkpt>
      <trkpt lat="44.0291" lon="6.01465">
        <ele>771</ele>
        <time>2021-12-21T11:51:38.000Z</time>
      </trkpt>
      <trkpt lat="44.0291" lon="6.01464">
        <ele>771</ele>
        <time>2021-12-21T11:51:39.000Z</time>
      </trkpt>
      <trkpt lat="44.02909" lon="6.01463">
        <ele>771</ele>
        <time>2021-12-21T11:51:40.000Z</time>
      </trkpt>
      <trkpt lat="44.02909" lon="6.01461">
        <ele>771</ele>
        <time>2021-12-21T11:51:41.000Z</time>
      </trkpt>
      <trkpt lat="44.02909" lon="6.0146">
        <ele>771</ele>
        <time>2021-12-21T11:51:42.000Z</time>
      </trkpt>
      <trkpt lat="44.02908" lon="6.01458">
        <ele>771</ele>
        <time>2021-12-21T11:51:43.000Z</time>
      </trkpt>
      <trkpt lat="44.02908" lon="6.01457">
        <ele>771</ele>
        <time>2021-12-21T11:51:44.000Z</time>
      </trkpt>
      <trkpt lat="44.02908" lon="6.01455">
        <ele>771</ele>
        <time>2021-12-21T11:51:45.000Z</time>
      </trkpt>
      <trkpt lat="44.02908" lon="6.01454">
        <ele>771</ele>
        <time>2021-12-21T11:51:46.000Z</time>
      </trkpt>
      <trkpt lat="44.02908" lon="6.01452">
        <ele>771</ele>
        <time>2021-12-21T11:51:47.000Z</time>
      </trkpt>
      <trkpt lat="44.02907" lon="6.0145">
        <ele>771</ele>
        <time>2021-12-21T11:51:48.000Z</time>
      </trkpt>
      <trkpt lat="44.02908" lon="6.01449">
        <ele>771</ele>
        <time>2021-12-21T11:51:49.000Z</time>
      </trkpt>
      <trkpt lat="44.02908" lon="6.01447">
        <ele>771</ele>
        <time>2021-12-21T11:51:50.000Z</time>
      </trkpt>
      <trkpt lat="44.02908" lon="6.01446">
        <ele>771</ele>
        <time>2021-12-21T11:51:51.000Z</time>
      </trkpt>
      <trkpt lat="44.02908" lon="6.01444">
        <ele>771</ele>
        <time>2021-12-21T11:51:52.000Z</time>
      </trkpt>
      <trkpt lat="44.02908" lon="6.01443">
        <ele>771</ele>
        <time>2021-12-21T11:51:53.000Z</time>
      </trkpt>
      <trkpt lat="44.02908" lon="6.01441">
        <ele>771</ele>
        <time>2021-12-21T11:51:54.000Z</time>
      </trkpt>
      <trkpt lat="44.02909" lon="6.0144">
        <ele>771</ele>
        <time>2021-12-21T11:51:55.000Z</time>
      </trkpt>
      <trkpt lat="44.02909" lon="6.01438">
        <ele>771</ele>
        <time>2021-12-21T11:51:56.000Z</time>
      </trkpt>
      <trkpt lat="44.02909" lon="6.01437">
        <ele>771</ele>
        <time>2021-12-21T11:51:57.000Z</time>
      </trkpt>
      <trkpt lat="44.02909" lon="6.01435">
        <ele>772</ele>
        <time>2021-12-21T11:51:58.000Z</time>
      </trkpt>
      <trkpt lat="44.0291" lon="6.01434">
        <ele>772</ele>
        <time>2021-12-21T11:51:59.000Z</time>
      </trkpt>
      <trkpt lat="44.0291" lon="6.01432">
        <ele>772</ele>
        <time>2021-12-21T11:52:00.000Z</time>
      </trkpt>
      <trkpt lat="44.0291" lon="6.01431">
        <ele>771</ele>
        <time>2021-12-21T11:52:01.000Z</time>
      </trkpt>
      <trkpt lat="44.0291" lon="6.01429">
        <ele>771</ele>
        <time>2021-12-21T11:52:02.000Z</time>
      </trkpt>
      <trkpt lat="44.02909" lon="6.01428">
        <ele>771</ele>
        <time>2021-12-21T11:52:03.000Z</time>
      </trkpt>
      <trkpt lat="44.02909" lon="6.01426">
        <ele>772</ele>
        <time>2021-12-21T11:52:04.000Z</time>
      </trkpt>
      <trkpt lat="44.02909" lon="6.01424">
        <ele>772</ele>
        <time>2021-12-21T11:52:05.000Z</time>
      </trkpt>
      <trkpt lat="44.02909" lon="6.01422">
        <ele>772</ele>
        <time>2021-12-21T11:52:06.000Z</time>
      </trkpt>
      <trkpt lat="44.0291" lon="6.01421">
        <ele>772</ele>
        <time>2021-12-21T11:52:07.000Z</time>
      </trkpt>
      <trkpt lat="44.02911" lon="6.0142">
        <ele>772</ele>
        <time>2021-12-21T11:52:08.000Z</time>
      </trkpt>
      <trkpt lat="44.02911" lon="6.01418">
        <ele>772</ele>
        <time>2021-12-21T11:52:09.000Z</time>
      </trkpt>
      <trkpt lat="44.02911" lon="6.01418">
        <ele>772</ele>
        <time>2021-12-21T11:52:10.000Z</time>
      </trkpt>
      <trkpt lat="44.02911" lon="6.01417">
        <ele>771</ele>
        <time>2021-12-21T11:52:11.000Z</time>
      </trkpt>
      <trkpt lat="44.02911" lon="6.01417">
        <ele>771</ele>
        <time>2021-12-21T11:52:12.000Z</time>
      </trkpt>
      <trkpt lat="44.02911" lon="6.01417">
        <ele>771</ele>
        <time>2021-12-21T11:52:13.000Z</time>
      </trkpt>
      <trkpt lat="44.02912" lon="6.01417">
        <ele>771</ele>
        <time>2021-12-21T11:52:14.000Z</time>
      </trkpt>
      <trkpt lat="44.02912" lon="6.01417">
        <ele>771</ele>
        <time>2021-12-21T11:52:15.000Z</time>
      </trkpt>
      <trkpt lat="44.02912" lon="6.01416">
        <ele>771</ele>
        <time>2021-12-21T11:52:16.000Z</time>
      </trkpt>
      <trkpt lat="44.02912" lon="6.01416">
        <ele>771</ele>
        <time>2021-12-21T11:52:17.000Z</time>
      </trkpt>
      <trkpt lat="44.02912" lon="6.01416">
        <ele>771</ele>
        <time>2021-12-21T11:52:18.000Z</time>
      </trkpt>
      <trkpt lat="44.02912" lon="6.01416">
        <ele>771</ele>
        <time>2021-12-21T11:52:19.000Z</time>
      </trkpt>
      <trkpt lat="44.02912" lon="6.01416">
        <ele>771</ele>
        <time>2021-12-21T11:52:20.000Z</time>
      </trkpt>
      <trkpt lat="44.02912" lon="6.01416">
        <ele>771</ele>
        <time>2021-12-21T11:52:21.000Z</time>
      </trkpt>
      <trkpt lat="44.02912" lon="6.01416">
        <ele>771</ele>
        <time>2021-12-21T11:52:22.000Z</time>
      </trkpt>
      <trkpt lat="44.02912" lon="6.01416">
        <ele>771</ele>
        <time>2021-12-21T11:52:23.000Z</time>
      </trkpt>
      <trkpt lat="44.02912" lon="6.01415">
        <ele>771</ele>
        <time>2021-12-21T11:52:24.000Z</time>
      </trkpt>
      <trkpt lat="44.02912" lon="6.01415">
        <ele>771</ele>
        <time>2021-12-21T11:52:25.000Z</time>
      </trkpt>
      <trkpt lat="44.02912" lon="6.01415">
        <ele>771</ele>
        <time>2021-12-21T11:52:26.000Z</time>
      </trkpt>
      <trkpt lat="44.02912" lon="6.01415">
        <ele>771</ele>
        <time>2021-12-21T11:52:27.000Z</time>
      </trkpt>
      <trkpt lat="44.02912" lon="6.01415">
        <ele>771</ele>
        <time>2021-12-21T11:52:28.000Z</time>
      </trkpt>
      <trkpt lat="44.02912" lon="6.01415">
        <ele>771</ele>
        <time>2021-12-21T11:52:29.000Z</time>
      </trkpt>
      <trkpt lat="44.02912" lon="6.01415">
        <ele>771</ele>
        <time>2021-12-21T11:52:30.000Z</time>
      </trkpt>
      <trkpt lat="44.02913" lon="6.01415">
        <ele>771</ele>
        <time>2021-12-21T11:52:31.000Z</time>
      </trkpt>
      <trkpt lat="44.02913" lon="6.01415">
        <ele>771</ele>
        <time>2021-12-21T11:52:32.000Z</time>
      </trkpt>
      <trkpt lat="44.02913" lon="6.01415">
        <ele>771</ele>
        <time>2021-12-21T11:52:33.000Z</time>
      </trkpt>
      <trkpt lat="44.02913" lon="6.01415">
        <ele>771</ele>
        <time>2021-12-21T11:52:34.000Z</time>
      </trkpt>
      <trkpt lat="44.02913" lon="6.01415">
        <ele>771</ele>
        <time>2021-12-21T11:52:35.000Z</time>
      </trkpt>
      <trkpt lat="44.02913" lon="6.01415">
        <ele>771</ele>
        <time>2021-12-21T11:52:36.000Z</time>
      </trkpt>
      <trkpt lat="44.02913" lon="6.01415">
        <ele>771</ele>
        <time>2021-12-21T11:52:37.000Z</time>
      </trkpt>
      <trkpt lat="44.02913" lon="6.01414">
        <ele>771</ele>
        <time>2021-12-21T11:52:38.000Z</time>
      </trkpt>
      <trkpt lat="44.02913" lon="6.01414">
        <ele>771</ele>
        <time>2021-12-21T11:52:39.000Z</time>
      </trkpt>
      <trkpt lat="44.02913" lon="6.01414">
        <ele>771</ele>
        <time>2021-12-21T11:52:40.000Z</time>
      </trkpt>
      <trkpt lat="44.02913" lon="6.01414">
        <ele>771</ele>
        <time>2021-12-21T11:52:41.000Z</time>
      </trkpt>
      <trkpt lat="44.02913" lon="6.01414">
        <ele>771</ele>
        <time>2021-12-21T11:52:42.000Z</time>
      </trkpt>
      <trkpt lat="44.02913" lon="6.01414">
        <ele>771</ele>
        <time>2021-12-21T11:52:43.000Z</time>
      </trkpt>
      <trkpt lat="44.02913" lon="6.01414">
        <ele>771</ele>
        <time>2021-12-21T11:52:44.000Z</time>
      </trkpt>
      <trkpt lat="44.02913" lon="6.01414">
        <ele>771</ele>
        <time>2021-12-21T11:52:45.000Z</time>
      </trkpt>
      <trkpt lat="44.02913" lon="6.01414">
        <ele>771</ele>
        <time>2021-12-21T11:52:46.000Z</time>
      </trkpt>
      <trkpt lat="44.02913" lon="6.01414">
        <ele>771</ele>
        <time>2021-12-21T11:52:47.000Z</time>
      </trkpt>
      <trkpt lat="44.02913" lon="6.01414">
        <ele>771</ele>
        <time>2021-12-21T11:52:48.000Z</time>
      </trkpt>
      <trkpt lat="44.02913" lon="6.01414">
        <ele>771</ele>
        <time>2021-12-21T11:52:49.000Z</time>
      </trkpt>
      <trkpt lat="44.02913" lon="6.01414">
        <ele>771</ele>
        <time>2021-12-21T11:52:50.000Z</time>
      </trkpt>
      <trkpt lat="44.02913" lon="6.01414">
        <ele>771</ele>
        <time>2021-12-21T11:52:51.000Z</time>
      </trkpt>
      <trkpt lat="44.02913" lon="6.01414">
        <ele>771</ele>
        <time>2021-12-21T11:52:52.000Z</time>
      </trkpt>
      <trkpt lat="44.02913" lon="6.01414">
        <ele>771</ele>
        <time>2021-12-21T11:52:53.000Z</time>
      </trkpt>
      <trkpt lat="44.02913" lon="6.01414">
        <ele>771</ele>
        <time>2021-12-21T11:52:54.000Z</time>
      </trkpt>
      <trkpt lat="44.02913" lon="6.01414">
        <ele>771</ele>
        <time>2021-12-21T11:52:55.000Z</time>
      </trkpt>
      <trkpt lat="44.02913" lon="6.01414">
        <ele>771</ele>
        <time>2021-12-21T11:52:56.000Z</time>
      </trkpt>
      <trkpt lat="44.02913" lon="6.01414">
        <ele>771</ele>
        <time>2021-12-21T11:52:57.000Z</time>
      </trkpt>
      <trkpt lat="44.02913" lon="6.01414">
        <ele>771</ele>
        <time>2021-12-21T11:52:58.000Z</time>
      </trkpt>
      <trkpt lat="44.02913" lon="6.01414">
        <ele>771</ele>
        <time>2021-12-21T11:52:59.000Z</time>
      </trkpt>
      <trkpt lat="44.02913" lon="6.01414">
        <ele>771</ele>
        <time>2021-12-21T11:53:00.000Z</time>
      </trkpt>
      <trkpt lat="44.02913" lon="6.01414">
        <ele>771</ele>
        <time>2021-12-21T11:53:01.000Z</time>
      </trkpt>
      <trkpt lat="44.02913" lon="6.01414">
        <ele>771</ele>
        <time>2021-12-21T11:53:02.000Z</time>
      </trkpt>
      <trkpt lat="44.02913" lon="6.01414">
        <ele>771</ele>
        <time>2021-12-21T11:53:03.000Z</time>
      </trkpt>
      <trkpt lat="44.02913" lon="6.01414">
        <ele>771</ele>
        <time>2021-12-21T11:53:04.000Z</time>
      </trkpt>
      <trkpt lat="44.02913" lon="6.01414">
        <ele>771</ele>
        <time>2021-12-21T11:53:05.000Z</time>
      </trkpt>
      <trkpt lat="44.02913" lon="6.01414">
        <ele>771</ele>
        <time>2021-12-21T11:53:06.000Z</time>
      </trkpt>
      <trkpt lat="44.02913" lon="6.01414">
        <ele>771</ele>
        <time>2021-12-21T11:53:07.000Z</time>
      </trkpt>
      <trkpt lat="44.02913" lon="6.01414">
        <ele>771</ele>
        <time>2021-12-21T11:53:08.000Z</time>
      </trkpt>
      <trkpt lat="44.02913" lon="6.01414">
        <ele>771</ele>
        <time>2021-12-21T11:53:09.000Z</time>
      </trkpt>
      <trkpt lat="44.02913" lon="6.01414">
        <ele>771</ele>
        <time>2021-12-21T11:53:10.000Z</time>
      </trkpt>
      <trkpt lat="44.02913" lon="6.01414">
        <ele>771</ele>
        <time>2021-12-21T11:53:11.000Z</time>
      </trkpt>
      <trkpt lat="44.02913" lon="6.01414">
        <ele>771</ele>
        <time>2021-12-21T11:53:12.000Z</time>
      </trkpt>
      <trkpt lat="44.02913" lon="6.01414">
        <ele>771</ele>
        <time>2021-12-21T11:53:13.000Z</time>
      </trkpt>
      <trkpt lat="44.02913" lon="6.01414">
        <ele>771</ele>
        <time>2021-12-21T11:53:14.000Z</time>
      </trkpt>
      <trkpt lat="44.02913" lon="6.01414">
        <ele>771</ele>
        <time>2021-12-21T11:53:15.000Z</time>
      </trkpt>
      <trkpt lat="44.02913" lon="6.01414">
        <ele>771</ele>
        <time>2021-12-21T11:53:16.000Z</time>
      </trkpt>
      <trkpt lat="44.02913" lon="6.01414">
        <ele>771</ele>
        <time>2021-12-21T11:53:17.000Z</time>
      </trkpt>
      <trkpt lat="44.02913" lon="6.01414">
        <ele>771</ele>
        <time>2021-12-21T11:53:18.000Z</time>
      </trkpt>
      <trkpt lat="44.02913" lon="6.01414">
        <ele>771</ele>
        <time>2021-12-21T11:53:19.000Z</time>
      </trkpt>
      <trkpt lat="44.02913" lon="6.01414">
        <ele>771</ele>
        <time>2021-12-21T11:53:20.000Z</time>
      </trkpt>
      <trkpt lat="44.02913" lon="6.01414">
        <ele>771</ele>
        <time>2021-12-21T11:53:21.000Z</time>
      </trkpt>
      <trkpt lat="44.02913" lon="6.01414">
        <ele>771</ele>
        <time>2021-12-21T11:53:22.000Z</time>
      </trkpt>
      <trkpt lat="44.02914" lon="6.01413">
        <ele>771</ele>
        <time>2021-12-21T11:53:23.000Z</time>
      </trkpt>
      <trkpt lat="44.02914" lon="6.01411">
        <ele>771</ele>
        <time>2021-12-21T11:53:24.000Z</time>
      </trkpt>
      <trkpt lat="44.02915" lon="6.0141">
        <ele>771</ele>
        <time>2021-12-21T11:53:25.000Z</time>
      </trkpt>
      <trkpt lat="44.02916" lon="6.01409">
        <ele>771</ele>
        <time>2021-12-21T11:53:26.000Z</time>
      </trkpt>
      <trkpt lat="44.02916" lon="6.01408">
        <ele>771</ele>
        <time>2021-12-21T11:53:27.000Z</time>
      </trkpt>
      <trkpt lat="44.02917" lon="6.01407">
        <ele>771</ele>
        <time>2021-12-21T11:53:28.000Z</time>
      </trkpt>
      <trkpt lat="44.02918" lon="6.01406">
        <ele>771</ele>
        <time>2021-12-21T11:53:29.000Z</time>
      </trkpt>
      <trkpt lat="44.02918" lon="6.01405">
        <ele>771</ele>
        <time>2021-12-21T11:53:30.000Z</time>
      </trkpt>
      <trkpt lat="44.02918" lon="6.01403">
        <ele>771</ele>
        <time>2021-12-21T11:53:31.000Z</time>
      </trkpt>
      <trkpt lat="44.02918" lon="6.01402">
        <ele>770</ele>
        <time>2021-12-21T11:53:32.000Z</time>
      </trkpt>
      <trkpt lat="44.02919" lon="6.014">
        <ele>770</ele>
        <time>2021-12-21T11:53:33.000Z</time>
      </trkpt>
      <trkpt lat="44.02919" lon="6.01399">
        <ele>770</ele>
        <time>2021-12-21T11:53:34.000Z</time>
      </trkpt>
      <trkpt lat="44.02919" lon="6.01398">
        <ele>770</ele>
        <time>2021-12-21T11:53:35.000Z</time>
      </trkpt>
      <trkpt lat="44.02919" lon="6.01396">
        <ele>770</ele>
        <time>2021-12-21T11:53:36.000Z</time>
      </trkpt>
      <trkpt lat="44.02919" lon="6.01395">
        <ele>770</ele>
        <time>2021-12-21T11:53:37.000Z</time>
      </trkpt>
      <trkpt lat="44.0292" lon="6.01394">
        <ele>770</ele>
        <time>2021-12-21T11:53:38.000Z</time>
      </trkpt>
      <trkpt lat="44.0292" lon="6.01393">
        <ele>770</ele>
        <time>2021-12-21T11:53:39.000Z</time>
      </trkpt>
      <trkpt lat="44.0292" lon="6.01391">
        <ele>770</ele>
        <time>2021-12-21T11:53:40.000Z</time>
      </trkpt>
      <trkpt lat="44.02921" lon="6.0139">
        <ele>769</ele>
        <time>2021-12-21T11:53:41.000Z</time>
      </trkpt>
      <trkpt lat="44.02921" lon="6.01389">
        <ele>769</ele>
        <time>2021-12-21T11:53:42.000Z</time>
      </trkpt>
      <trkpt lat="44.02921" lon="6.01387">
        <ele>769</ele>
        <time>2021-12-21T11:53:43.000Z</time>
      </trkpt>
      <trkpt lat="44.02922" lon="6.01386">
        <ele>769</ele>
        <time>2021-12-21T11:53:44.000Z</time>
      </trkpt>
      <trkpt lat="44.02922" lon="6.01385">
        <ele>769</ele>
        <time>2021-12-21T11:53:45.000Z</time>
      </trkpt>
      <trkpt lat="44.02923" lon="6.01383">
        <ele>769</ele>
        <time>2021-12-21T11:53:46.000Z</time>
      </trkpt>
      <trkpt lat="44.02923" lon="6.01382">
        <ele>768</ele>
        <time>2021-12-21T11:53:47.000Z</time>
      </trkpt>
      <trkpt lat="44.02923" lon="6.01381">
        <ele>768</ele>
        <time>2021-12-21T11:53:48.000Z</time>
      </trkpt>
      <trkpt lat="44.02923" lon="6.0138">
        <ele>768</ele>
        <time>2021-12-21T11:53:49.000Z</time>
      </trkpt>
      <trkpt lat="44.02924" lon="6.01379">
        <ele>768</ele>
        <time>2021-12-21T11:53:50.000Z</time>
      </trkpt>
      <trkpt lat="44.02924" lon="6.01377">
        <ele>768</ele>
        <time>2021-12-21T11:53:51.000Z</time>
      </trkpt>
      <trkpt lat="44.02924" lon="6.01376">
        <ele>768</ele>
        <time>2021-12-21T11:53:52.000Z</time>
      </trkpt>
      <trkpt lat="44.02924" lon="6.01375">
        <ele>768</ele>
        <time>2021-12-21T11:53:53.000Z</time>
      </trkpt>
      <trkpt lat="44.02924" lon="6.01373">
        <ele>768</ele>
        <time>2021-12-21T11:53:54.000Z</time>
      </trkpt>
      <trkpt lat="44.02924" lon="6.01372">
        <ele>768</ele>
        <time>2021-12-21T11:53:55.000Z</time>
      </trkpt>
      <trkpt lat="44.02924" lon="6.0137">
        <ele>768</ele>
        <time>2021-12-21T11:53:56.000Z</time>
      </trkpt>
      <trkpt lat="44.02924" lon="6.01369">
        <ele>768</ele>
        <time>2021-12-21T11:53:57.000Z</time>
      </trkpt>
      <trkpt lat="44.02924" lon="6.01368">
        <ele>768</ele>
        <time>2021-12-21T11:53:58.000Z</time>
      </trkpt>
      <trkpt lat="44.02924" lon="6.01366">
        <ele>768</ele>
        <time>2021-12-21T11:53:59.000Z</time>
      </trkpt>
      <trkpt lat="44.02924" lon="6.01365">
        <ele>767</ele>
        <time>2021-12-21T11:54:00.000Z</time>
      </trkpt>
      <trkpt lat="44.02924" lon="6.01363">
        <ele>767</ele>
        <time>2021-12-21T11:54:01.000Z</time>
      </trkpt>
      <trkpt lat="44.02924" lon="6.01362">
        <ele>767</ele>
        <time>2021-12-21T11:54:02.000Z</time>
      </trkpt>
      <trkpt lat="44.02925" lon="6.0136">
        <ele>767</ele>
        <time>2021-12-21T11:54:03.000Z</time>
      </trkpt>
      <trkpt lat="44.02925" lon="6.01359">
        <ele>767</ele>
        <time>2021-12-21T11:54:04.000Z</time>
      </trkpt>
      <trkpt lat="44.02925" lon="6.01357">
        <ele>767</ele>
        <time>2021-12-21T11:54:05.000Z</time>
      </trkpt>
      <trkpt lat="44.02926" lon="6.01355">
        <ele>766</ele>
        <time>2021-12-21T11:54:06.000Z</time>
      </trkpt>
      <trkpt lat="44.02926" lon="6.01354">
        <ele>766</ele>
        <time>2021-12-21T11:54:07.000Z</time>
      </trkpt>
      <trkpt lat="44.02926" lon="6.01352">
        <ele>766</ele>
        <time>2021-12-21T11:54:08.000Z</time>
      </trkpt>
      <trkpt lat="44.02926" lon="6.0135">
        <ele>766</ele>
        <time>2021-12-21T11:54:09.000Z</time>
      </trkpt>
      <trkpt lat="44.02927" lon="6.01349">
        <ele>765</ele>
        <time>2021-12-21T11:54:10.000Z</time>
      </trkpt>
      <trkpt lat="44.02927" lon="6.01347">
        <ele>765</ele>
        <time>2021-12-21T11:54:11.000Z</time>
      </trkpt>
      <trkpt lat="44.02927" lon="6.01346">
        <ele>765</ele>
        <time>2021-12-21T11:54:12.000Z</time>
      </trkpt>
      <trkpt lat="44.02927" lon="6.01344">
        <ele>765</ele>
        <time>2021-12-21T11:54:13.000Z</time>
      </trkpt>
      <trkpt lat="44.02927" lon="6.01343">
        <ele>765</ele>
        <time>2021-12-21T11:54:14.000Z</time>
      </trkpt>
      <trkpt lat="44.02928" lon="6.01341">
        <ele>764</ele>
        <time>2021-12-21T11:54:15.000Z</time>
      </trkpt>
      <trkpt lat="44.02928" lon="6.01339">
        <ele>764</ele>
        <time>2021-12-21T11:54:16.000Z</time>
      </trkpt>
      <trkpt lat="44.02928" lon="6.01337">
        <ele>764</ele>
        <time>2021-12-21T11:54:17.000Z</time>
      </trkpt>
      <trkpt lat="44.02929" lon="6.01336">
        <ele>764</ele>
        <time>2021-12-21T11:54:18.000Z</time>
      </trkpt>
      <trkpt lat="44.02929" lon="6.01334">
        <ele>764</ele>
        <time>2021-12-21T11:54:19.000Z</time>
      </trkpt>
      <trkpt lat="44.02929" lon="6.01332">
        <ele>764</ele>
        <time>2021-12-21T11:54:20.000Z</time>
      </trkpt>
      <trkpt lat="44.0293" lon="6.0133">
        <ele>763</ele>
        <time>2021-12-21T11:54:21.000Z</time>
      </trkpt>
      <trkpt lat="44.0293" lon="6.01328">
        <ele>763</ele>
        <time>2021-12-21T11:54:22.000Z</time>
      </trkpt>
      <trkpt lat="44.0293" lon="6.01326">
        <ele>763</ele>
        <time>2021-12-21T11:54:23.000Z</time>
      </trkpt>
      <trkpt lat="44.02931" lon="6.01324">
        <ele>763</ele>
        <time>2021-12-21T11:54:24.000Z</time>
      </trkpt>
      <trkpt lat="44.02931" lon="6.01323">
        <ele>763</ele>
        <time>2021-12-21T11:54:25.000Z</time>
      </trkpt>
      <trkpt lat="44.02931" lon="6.01321">
        <ele>763</ele>
        <time>2021-12-21T11:54:26.000Z</time>
      </trkpt>
      <trkpt lat="44.02931" lon="6.01319">
        <ele>763</ele>
        <time>2021-12-21T11:54:27.000Z</time>
      </trkpt>
      <trkpt lat="44.02931" lon="6.01317">
        <ele>762</ele>
        <time>2021-12-21T11:54:28.000Z</time>
      </trkpt>
      <trkpt lat="44.02932" lon="6.01315">
        <ele>762</ele>
        <time>2021-12-21T11:54:29.000Z</time>
      </trkpt>
      <trkpt lat="44.02932" lon="6.01313">
        <ele>762</ele>
        <time>2021-12-21T11:54:30.000Z</time>
      </trkpt>
      <trkpt lat="44.02932" lon="6.01312">
        <ele>762</ele>
        <time>2021-12-21T11:54:31.000Z</time>
      </trkpt>
      <trkpt lat="44.02933" lon="6.0131">
        <ele>762</ele>
        <time>2021-12-21T11:54:32.000Z</time>
      </trkpt>
      <trkpt lat="44.02933" lon="6.01308">
        <ele>762</ele>
        <time>2021-12-21T11:54:33.000Z</time>
      </trkpt>
      <trkpt lat="44.02934" lon="6.01306">
        <ele>762</ele>
        <time>2021-12-21T11:54:34.000Z</time>
      </trkpt>
      <trkpt lat="44.02934" lon="6.01305">
        <ele>762</ele>
        <time>2021-12-21T11:54:35.000Z</time>
      </trkpt>
      <trkpt lat="44.02935" lon="6.01303">
        <ele>762</ele>
        <time>2021-12-21T11:54:36.000Z</time>
      </trkpt>
      <trkpt lat="44.02935" lon="6.01301">
        <ele>762</ele>
        <time>2021-12-21T11:54:37.000Z</time>
      </trkpt>
      <trkpt lat="44.02936" lon="6.013">
        <ele>762</ele>
        <time>2021-12-21T11:54:38.000Z</time>
      </trkpt>
      <trkpt lat="44.02936" lon="6.01298">
        <ele>762</ele>
        <time>2021-12-21T11:54:39.000Z</time>
      </trkpt>
      <trkpt lat="44.02937" lon="6.01296">
        <ele>762</ele>
        <time>2021-12-21T11:54:40.000Z</time>
      </trkpt>
      <trkpt lat="44.02937" lon="6.01295">
        <ele>762</ele>
        <time>2021-12-21T11:54:41.000Z</time>
      </trkpt>
      <trkpt lat="44.02938" lon="6.01293">
        <ele>762</ele>
        <time>2021-12-21T11:54:42.000Z</time>
      </trkpt>
      <trkpt lat="44.02939" lon="6.01291">
        <ele>761</ele>
        <time>2021-12-21T11:54:43.000Z</time>
      </trkpt>
      <trkpt lat="44.02939" lon="6.0129">
        <ele>761</ele>
        <time>2021-12-21T11:54:44.000Z</time>
      </trkpt>
      <trkpt lat="44.0294" lon="6.01289">
        <ele>761</ele>
        <time>2021-12-21T11:54:45.000Z</time>
      </trkpt>
      <trkpt lat="44.02941" lon="6.01288">
        <ele>761</ele>
        <time>2021-12-21T11:54:46.000Z</time>
      </trkpt>
      <trkpt lat="44.02942" lon="6.01287">
        <ele>761</ele>
        <time>2021-12-21T11:54:47.000Z</time>
      </trkpt>
      <trkpt lat="44.02943" lon="6.01286">
        <ele>760</ele>
        <time>2021-12-21T11:54:48.000Z</time>
      </trkpt>
      <trkpt lat="44.02944" lon="6.01284">
        <ele>760</ele>
        <time>2021-12-21T11:54:49.000Z</time>
      </trkpt>
      <trkpt lat="44.02944" lon="6.01283">
        <ele>760</ele>
        <time>2021-12-21T11:54:50.000Z</time>
      </trkpt>
      <trkpt lat="44.02945" lon="6.01281">
        <ele>760</ele>
        <time>2021-12-21T11:54:51.000Z</time>
      </trkpt>
      <trkpt lat="44.02946" lon="6.0128">
        <ele>759</ele>
        <time>2021-12-21T11:54:52.000Z</time>
      </trkpt>
      <trkpt lat="44.02946" lon="6.01278">
        <ele>759</ele>
        <time>2021-12-21T11:54:53.000Z</time>
      </trkpt>
      <trkpt lat="44.02947" lon="6.01277">
        <ele>759</ele>
        <time>2021-12-21T11:54:54.000Z</time>
      </trkpt>
      <trkpt lat="44.02948" lon="6.01275">
        <ele>759</ele>
        <time>2021-12-21T11:54:55.000Z</time>
      </trkpt>
      <trkpt lat="44.02949" lon="6.01274">
        <ele>759</ele>
        <time>2021-12-21T11:54:56.000Z</time>
      </trkpt>
      <trkpt lat="44.0295" lon="6.01272">
        <ele>758</ele>
        <time>2021-12-21T11:54:57.000Z</time>
      </trkpt>
      <trkpt lat="44.0295" lon="6.0127">
        <ele>758</ele>
        <time>2021-12-21T11:54:58.000Z</time>
      </trkpt>
      <trkpt lat="44.02951" lon="6.01269">
        <ele>758</ele>
        <time>2021-12-21T11:54:59.000Z</time>
      </trkpt>
      <trkpt lat="44.02952" lon="6.01267">
        <ele>757</ele>
        <time>2021-12-21T11:55:00.000Z</time>
      </trkpt>
      <trkpt lat="44.02953" lon="6.01265">
        <ele>757</ele>
        <time>2021-12-21T11:55:01.000Z</time>
      </trkpt>
      <trkpt lat="44.02954" lon="6.01264">
        <ele>757</ele>
        <time>2021-12-21T11:55:02.000Z</time>
      </trkpt>
      <trkpt lat="44.02955" lon="6.01262">
        <ele>757</ele>
        <time>2021-12-21T11:55:03.000Z</time>
      </trkpt>
      <trkpt lat="44.02955" lon="6.01261">
        <ele>756</ele>
        <time>2021-12-21T11:55:04.000Z</time>
      </trkpt>
      <trkpt lat="44.02956" lon="6.01259">
        <ele>756</ele>
        <time>2021-12-21T11:55:05.000Z</time>
      </trkpt>
      <trkpt lat="44.02957" lon="6.01257">
        <ele>756</ele>
        <time>2021-12-21T11:55:06.000Z</time>
      </trkpt>
      <trkpt lat="44.02958" lon="6.01256">
        <ele>756</ele>
        <time>2021-12-21T11:55:07.000Z</time>
      </trkpt>
      <trkpt lat="44.02959" lon="6.01254">
        <ele>756</ele>
        <time>2021-12-21T11:55:08.000Z</time>
      </trkpt>
      <trkpt lat="44.0296" lon="6.01253">
        <ele>756</ele>
        <time>2021-12-21T11:55:09.000Z</time>
      </trkpt>
      <trkpt lat="44.02961" lon="6.01251">
        <ele>756</ele>
        <time>2021-12-21T11:55:10.000Z</time>
      </trkpt>
      <trkpt lat="44.02961" lon="6.0125">
        <ele>755</ele>
        <time>2021-12-21T11:55:11.000Z</time>
      </trkpt>
      <trkpt lat="44.02962" lon="6.01248">
        <ele>755</ele>
        <time>2021-12-21T11:55:12.000Z</time>
      </trkpt>
      <trkpt lat="44.02963" lon="6.01247">
        <ele>755</ele>
        <time>2021-12-21T11:55:13.000Z</time>
      </trkpt>
      <trkpt lat="44.02964" lon="6.01245">
        <ele>755</ele>
        <time>2021-12-21T11:55:14.000Z</time>
      </trkpt>
      <trkpt lat="44.02965" lon="6.01244">
        <ele>755</ele>
        <time>2021-12-21T11:55:15.000Z</time>
      </trkpt>
      <trkpt lat="44.02966" lon="6.01243">
        <ele>755</ele>
        <time>2021-12-21T11:55:16.000Z</time>
      </trkpt>
      <trkpt lat="44.02967" lon="6.01241">
        <ele>754</ele>
        <time>2021-12-21T11:55:17.000Z</time>
      </trkpt>
      <trkpt lat="44.02968" lon="6.0124">
        <ele>754</ele>
        <time>2021-12-21T11:55:18.000Z</time>
      </trkpt>
      <trkpt lat="44.02969" lon="6.01238">
        <ele>754</ele>
        <time>2021-12-21T11:55:19.000Z</time>
      </trkpt>
      <trkpt lat="44.0297" lon="6.01237">
        <ele>754</ele>
        <time>2021-12-21T11:55:20.000Z</time>
      </trkpt>
      <trkpt lat="44.02971" lon="6.01236">
        <ele>754</ele>
        <time>2021-12-21T11:55:21.000Z</time>
      </trkpt>
      <trkpt lat="44.02972" lon="6.01234">
        <ele>754</ele>
        <time>2021-12-21T11:55:22.000Z</time>
      </trkpt>
      <trkpt lat="44.02973" lon="6.01233">
        <ele>754</ele>
        <time>2021-12-21T11:55:23.000Z</time>
      </trkpt>
      <trkpt lat="44.02974" lon="6.01231">
        <ele>754</ele>
        <time>2021-12-21T11:55:24.000Z</time>
      </trkpt>
      <trkpt lat="44.02975" lon="6.0123">
        <ele>754</ele>
        <time>2021-12-21T11:55:25.000Z</time>
      </trkpt>
      <trkpt lat="44.02975" lon="6.01229">
        <ele>753</ele>
        <time>2021-12-21T11:55:26.000Z</time>
      </trkpt>
      <trkpt lat="44.02976" lon="6.01227">
        <ele>753</ele>
        <time>2021-12-21T11:55:27.000Z</time>
      </trkpt>
      <trkpt lat="44.02977" lon="6.01226">
        <ele>753</ele>
        <time>2021-12-21T11:55:28.000Z</time>
      </trkpt>
      <trkpt lat="44.02978" lon="6.01224">
        <ele>753</ele>
        <time>2021-12-21T11:55:29.000Z</time>
      </trkpt>
      <trkpt lat="44.02979" lon="6.01223">
        <ele>753</ele>
        <time>2021-12-21T11:55:30.000Z</time>
      </trkpt>
      <trkpt lat="44.02979" lon="6.01221">
        <ele>752</ele>
        <time>2021-12-21T11:55:31.000Z</time>
      </trkpt>
      <trkpt lat="44.0298" lon="6.0122">
        <ele>752</ele>
        <time>2021-12-21T11:55:32.000Z</time>
      </trkpt>
      <trkpt lat="44.02981" lon="6.01218">
        <ele>752</ele>
        <time>2021-12-21T11:55:33.000Z</time>
      </trkpt>
      <trkpt lat="44.02982" lon="6.01217">
        <ele>752</ele>
        <time>2021-12-21T11:55:34.000Z</time>
      </trkpt>
      <trkpt lat="44.02983" lon="6.01215">
        <ele>752</ele>
        <time>2021-12-21T11:55:35.000Z</time>
      </trkpt>
      <trkpt lat="44.02984" lon="6.01213">
        <ele>752</ele>
        <time>2021-12-21T11:55:36.000Z</time>
      </trkpt>
      <trkpt lat="44.02984" lon="6.01212">
        <ele>752</ele>
        <time>2021-12-21T11:55:37.000Z</time>
      </trkpt>
      <trkpt lat="44.02985" lon="6.0121">
        <ele>752</ele>
        <time>2021-12-21T11:55:38.000Z</time>
      </trkpt>
      <trkpt lat="44.02986" lon="6.01209">
        <ele>752</ele>
        <time>2021-12-21T11:55:39.000Z</time>
      </trkpt>
      <trkpt lat="44.02987" lon="6.01207">
        <ele>752</ele>
        <time>2021-12-21T11:55:40.000Z</time>
      </trkpt>
      <trkpt lat="44.02987" lon="6.01206">
        <ele>752</ele>
        <time>2021-12-21T11:55:41.000Z</time>
      </trkpt>
      <trkpt lat="44.02988" lon="6.01204">
        <ele>752</ele>
        <time>2021-12-21T11:55:42.000Z</time>
      </trkpt>
      <trkpt lat="44.02989" lon="6.01203">
        <ele>752</ele>
        <time>2021-12-21T11:55:43.000Z</time>
      </trkpt>
      <trkpt lat="44.0299" lon="6.01202">
        <ele>752</ele>
        <time>2021-12-21T11:55:44.000Z</time>
      </trkpt>
      <trkpt lat="44.02991" lon="6.012">
        <ele>752</ele>
        <time>2021-12-21T11:55:45.000Z</time>
      </trkpt>
      <trkpt lat="44.02991" lon="6.01199">
        <ele>752</ele>
        <time>2021-12-21T11:55:46.000Z</time>
      </trkpt>
      <trkpt lat="44.02992" lon="6.01197">
        <ele>752</ele>
        <time>2021-12-21T11:55:47.000Z</time>
      </trkpt>
      <trkpt lat="44.02993" lon="6.01195">
        <ele>752</ele>
        <time>2021-12-21T11:55:48.000Z</time>
      </trkpt>
      <trkpt lat="44.02993" lon="6.01194">
        <ele>752</ele>
        <time>2021-12-21T11:55:49.000Z</time>
      </trkpt>
      <trkpt lat="44.02994" lon="6.01192">
        <ele>752</ele>
        <time>2021-12-21T11:55:50.000Z</time>
      </trkpt>
      <trkpt lat="44.02994" lon="6.0119">
        <ele>752</ele>
        <time>2021-12-21T11:55:51.000Z</time>
      </trkpt>
      <trkpt lat="44.02995" lon="6.01188">
        <ele>752</ele>
        <time>2021-12-21T11:55:52.000Z</time>
      </trkpt>
      <trkpt lat="44.02995" lon="6.01187">
        <ele>752</ele>
        <time>2021-12-21T11:55:53.000Z</time>
      </trkpt>
      <trkpt lat="44.02996" lon="6.01185">
        <ele>752</ele>
        <time>2021-12-21T11:55:54.000Z</time>
      </trkpt>
      <trkpt lat="44.02997" lon="6.01183">
        <ele>752</ele>
        <time>2021-12-21T11:55:55.000Z</time>
      </trkpt>
      <trkpt lat="44.02997" lon="6.01181">
        <ele>752</ele>
        <time>2021-12-21T11:55:56.000Z</time>
      </trkpt>
      <trkpt lat="44.02998" lon="6.01179">
        <ele>752</ele>
        <time>2021-12-21T11:55:57.000Z</time>
      </trkpt>
      <trkpt lat="44.02999" lon="6.01178">
        <ele>752</ele>
        <time>2021-12-21T11:55:58.000Z</time>
      </trkpt>
      <trkpt lat="44.03" lon="6.01176">
        <ele>752</ele>
        <time>2021-12-21T11:55:59.000Z</time>
      </trkpt>
      <trkpt lat="44.03" lon="6.01175">
        <ele>752</ele>
        <time>2021-12-21T11:56:00.000Z</time>
      </trkpt>
      <trkpt lat="44.03001" lon="6.01173">
        <ele>752</ele>
        <time>2021-12-21T11:56:01.000Z</time>
      </trkpt>
      <trkpt lat="44.03001" lon="6.01172">
        <ele>752</ele>
        <time>2021-12-21T11:56:02.000Z</time>
      </trkpt>
      <trkpt lat="44.03002" lon="6.0117">
        <ele>752</ele>
        <time>2021-12-21T11:56:03.000Z</time>
      </trkpt>
      <trkpt lat="44.03002" lon="6.01168">
        <ele>752</ele>
        <time>2021-12-21T11:56:04.000Z</time>
      </trkpt>
      <trkpt lat="44.03003" lon="6.01166">
        <ele>752</ele>
        <time>2021-12-21T11:56:05.000Z</time>
      </trkpt>
      <trkpt lat="44.03003" lon="6.01164">
        <ele>752</ele>
        <time>2021-12-21T11:56:06.000Z</time>
      </trkpt>
      <trkpt lat="44.03004" lon="6.01163">
        <ele>752</ele>
        <time>2021-12-21T11:56:07.000Z</time>
      </trkpt>
      <trkpt lat="44.03004" lon="6.01161">
        <ele>752</ele>
        <time>2021-12-21T11:56:08.000Z</time>
      </trkpt>
      <trkpt lat="44.03004" lon="6.01159">
        <ele>752</ele>
        <time>2021-12-21T11:56:09.000Z</time>
      </trkpt>
      <trkpt lat="44.03004" lon="6.01157">
        <ele>752</ele>
        <time>2021-12-21T11:56:10.000Z</time>
      </trkpt>
      <trkpt lat="44.03004" lon="6.01155">
        <ele>752</ele>
        <time>2021-12-21T11:56:11.000Z</time>
      </trkpt>
      <trkpt lat="44.03004" lon="6.01153">
        <ele>752</ele>
        <time>2021-12-21T11:56:12.000Z</time>
      </trkpt>
      <trkpt lat="44.03004" lon="6.01151">
        <ele>752</ele>
        <time>2021-12-21T11:56:13.000Z</time>
      </trkpt>
      <trkpt lat="44.03004" lon="6.0115">
        <ele>752</ele>
        <time>2021-12-21T11:56:14.000Z</time>
      </trkpt>
      <trkpt lat="44.03004" lon="6.01148">
        <ele>752</ele>
        <time>2021-12-21T11:56:15.000Z</time>
      </trkpt>
      <trkpt lat="44.03004" lon="6.01146">
        <ele>752</ele>
        <time>2021-12-21T11:56:16.000Z</time>
      </trkpt>
      <trkpt lat="44.03004" lon="6.01144">
        <ele>752</ele>
        <time>2021-12-21T11:56:17.000Z</time>
      </trkpt>
      <trkpt lat="44.03004" lon="6.01143">
        <ele>752</ele>
        <time>2021-12-21T11:56:18.000Z</time>
      </trkpt>
      <trkpt lat="44.03004" lon="6.01141">
        <ele>752</ele>
        <time>2021-12-21T11:56:19.000Z</time>
      </trkpt>
      <trkpt lat="44.03004" lon="6.01139">
        <ele>752</ele>
        <time>2021-12-21T11:56:20.000Z</time>
      </trkpt>
      <trkpt lat="44.03004" lon="6.01137">
        <ele>753</ele>
        <time>2021-12-21T11:56:21.000Z</time>
      </trkpt>
      <trkpt lat="44.03004" lon="6.01135">
        <ele>753</ele>
        <time>2021-12-21T11:56:22.000Z</time>
      </trkpt>
      <trkpt lat="44.03003" lon="6.01134">
        <ele>753</ele>
        <time>2021-12-21T11:56:23.000Z</time>
      </trkpt>
      <trkpt lat="44.03003" lon="6.01132">
        <ele>753</ele>
        <time>2021-12-21T11:56:24.000Z</time>
      </trkpt>
      <trkpt lat="44.03003" lon="6.0113">
        <ele>753</ele>
        <time>2021-12-21T11:56:25.000Z</time>
      </trkpt>
      <trkpt lat="44.03003" lon="6.01128">
        <ele>753</ele>
        <time>2021-12-21T11:56:26.000Z</time>
      </trkpt>
      <trkpt lat="44.03003" lon="6.01126">
        <ele>753</ele>
        <time>2021-12-21T11:56:27.000Z</time>
      </trkpt>
      <trkpt lat="44.03003" lon="6.01125">
        <ele>753</ele>
        <time>2021-12-21T11:56:28.000Z</time>
      </trkpt>
      <trkpt lat="44.03003" lon="6.01123">
        <ele>753</ele>
        <time>2021-12-21T11:56:29.000Z</time>
      </trkpt>
      <trkpt lat="44.03003" lon="6.01122">
        <ele>754</ele>
        <time>2021-12-21T11:56:30.000Z</time>
      </trkpt>
      <trkpt lat="44.03003" lon="6.0112">
        <ele>754</ele>
        <time>2021-12-21T11:56:31.000Z</time>
      </trkpt>
      <trkpt lat="44.03003" lon="6.01118">
        <ele>754</ele>
        <time>2021-12-21T11:56:32.000Z</time>
      </trkpt>
      <trkpt lat="44.03003" lon="6.01116">
        <ele>754</ele>
        <time>2021-12-21T11:56:33.000Z</time>
      </trkpt>
      <trkpt lat="44.03003" lon="6.01114">
        <ele>754</ele>
        <time>2021-12-21T11:56:34.000Z</time>
      </trkpt>
      <trkpt lat="44.03003" lon="6.01112">
        <ele>754</ele>
        <time>2021-12-21T11:56:35.000Z</time>
      </trkpt>
      <trkpt lat="44.03003" lon="6.0111">
        <ele>754</ele>
        <time>2021-12-21T11:56:36.000Z</time>
      </trkpt>
      <trkpt lat="44.03003" lon="6.01108">
        <ele>754</ele>
        <time>2021-12-21T11:56:37.000Z</time>
      </trkpt>
      <trkpt lat="44.03003" lon="6.01107">
        <ele>755</ele>
        <time>2021-12-21T11:56:38.000Z</time>
      </trkpt>
      <trkpt lat="44.03004" lon="6.01105">
        <ele>755</ele>
        <time>2021-12-21T11:56:39.000Z</time>
      </trkpt>
      <trkpt lat="44.03004" lon="6.01103">
        <ele>755</ele>
        <time>2021-12-21T11:56:40.000Z</time>
      </trkpt>
      <trkpt lat="44.03004" lon="6.01101">
        <ele>755</ele>
        <time>2021-12-21T11:56:41.000Z</time>
      </trkpt>
      <trkpt lat="44.03005" lon="6.011">
        <ele>754</ele>
        <time>2021-12-21T11:56:42.000Z</time>
      </trkpt>
      <trkpt lat="44.03005" lon="6.01098">
        <ele>754</ele>
        <time>2021-12-21T11:56:43.000Z</time>
      </trkpt>
      <trkpt lat="44.03006" lon="6.01096">
        <ele>754</ele>
        <time>2021-12-21T11:56:44.000Z</time>
      </trkpt>
      <trkpt lat="44.03007" lon="6.01095">
        <ele>754</ele>
        <time>2021-12-21T11:56:45.000Z</time>
      </trkpt>
      <trkpt lat="44.03008" lon="6.01093">
        <ele>754</ele>
        <time>2021-12-21T11:56:46.000Z</time>
      </trkpt>
      <trkpt lat="44.03008" lon="6.01091">
        <ele>754</ele>
        <time>2021-12-21T11:56:47.000Z</time>
      </trkpt>
      <trkpt lat="44.03009" lon="6.01089">
        <ele>753</ele>
        <time>2021-12-21T11:56:48.000Z</time>
      </trkpt>
      <trkpt lat="44.0301" lon="6.01088">
        <ele>753</ele>
        <time>2021-12-21T11:56:49.000Z</time>
      </trkpt>
      <trkpt lat="44.03011" lon="6.01087">
        <ele>753</ele>
        <time>2021-12-21T11:56:50.000Z</time>
      </trkpt>
      <trkpt lat="44.03013" lon="6.01086">
        <ele>753</ele>
        <time>2021-12-21T11:56:51.000Z</time>
      </trkpt>
      <trkpt lat="44.03014" lon="6.01084">
        <ele>753</ele>
        <time>2021-12-21T11:56:52.000Z</time>
      </trkpt>
      <trkpt lat="44.03015" lon="6.01083">
        <ele>753</ele>
        <time>2021-12-21T11:56:53.000Z</time>
      </trkpt>
      <trkpt lat="44.03016" lon="6.01083">
        <ele>753</ele>
        <time>2021-12-21T11:56:54.000Z</time>
      </trkpt>
      <trkpt lat="44.03018" lon="6.01082">
        <ele>753</ele>
        <time>2021-12-21T11:56:55.000Z</time>
      </trkpt>
      <trkpt lat="44.03019" lon="6.01081">
        <ele>753</ele>
        <time>2021-12-21T11:56:56.000Z</time>
      </trkpt>
      <trkpt lat="44.0302" lon="6.0108">
        <ele>752</ele>
        <time>2021-12-21T11:56:57.000Z</time>
      </trkpt>
      <trkpt lat="44.03022" lon="6.0108">
        <ele>752</ele>
        <time>2021-12-21T11:56:58.000Z</time>
      </trkpt>
      <trkpt lat="44.03023" lon="6.01079">
        <ele>752</ele>
        <time>2021-12-21T11:56:59.000Z</time>
      </trkpt>
      <trkpt lat="44.03024" lon="6.01078">
        <ele>752</ele>
        <time>2021-12-21T11:57:00.000Z</time>
      </trkpt>
      <trkpt lat="44.03025" lon="6.01078">
        <ele>752</ele>
        <time>2021-12-21T11:57:01.000Z</time>
      </trkpt>
      <trkpt lat="44.03027" lon="6.01077">
        <ele>752</ele>
        <time>2021-12-21T11:57:02.000Z</time>
      </trkpt>
      <trkpt lat="44.03028" lon="6.01077">
        <ele>752</ele>
        <time>2021-12-21T11:57:03.000Z</time>
      </trkpt>
      <trkpt lat="44.03029" lon="6.01076">
        <ele>752</ele>
        <time>2021-12-21T11:57:04.000Z</time>
      </trkpt>
      <trkpt lat="44.0303" lon="6.01076">
        <ele>752</ele>
        <time>2021-12-21T11:57:05.000Z</time>
      </trkpt>
      <trkpt lat="44.03032" lon="6.01075">
        <ele>752</ele>
        <time>2021-12-21T11:57:06.000Z</time>
      </trkpt>
      <trkpt lat="44.03033" lon="6.01074">
        <ele>752</ele>
        <time>2021-12-21T11:57:07.000Z</time>
      </trkpt>
      <trkpt lat="44.03034" lon="6.01074">
        <ele>752</ele>
        <time>2021-12-21T11:57:08.000Z</time>
      </trkpt>
      <trkpt lat="44.03035" lon="6.01073">
        <ele>752</ele>
        <time>2021-12-21T11:57:09.000Z</time>
      </trkpt>
      <trkpt lat="44.03037" lon="6.01072">
        <ele>752</ele>
        <time>2021-12-21T11:57:10.000Z</time>
      </trkpt>
      <trkpt lat="44.03038" lon="6.01072">
        <ele>751</ele>
        <time>2021-12-21T11:57:11.000Z</time>
      </trkpt>
      <trkpt lat="44.03039" lon="6.01071">
        <ele>751</ele>
        <time>2021-12-21T11:57:12.000Z</time>
      </trkpt>
      <trkpt lat="44.03041" lon="6.0107">
        <ele>751</ele>
        <time>2021-12-21T11:57:13.000Z</time>
      </trkpt>
      <trkpt lat="44.03042" lon="6.01069">
        <ele>751</ele>
        <time>2021-12-21T11:57:14.000Z</time>
      </trkpt>
      <trkpt lat="44.03043" lon="6.01069">
        <ele>751</ele>
        <time>2021-12-21T11:57:15.000Z</time>
      </trkpt>
      <trkpt lat="44.03044" lon="6.01068">
        <ele>751</ele>
        <time>2021-12-21T11:57:16.000Z</time>
      </trkpt>
      <trkpt lat="44.03045" lon="6.01067">
        <ele>751</ele>
        <time>2021-12-21T11:57:17.000Z</time>
      </trkpt>
      <trkpt lat="44.03047" lon="6.01067">
        <ele>751</ele>
        <time>2021-12-21T11:57:18.000Z</time>
      </trkpt>
      <trkpt lat="44.03048" lon="6.01066">
        <ele>750</ele>
        <time>2021-12-21T11:57:19.000Z</time>
      </trkpt>
      <trkpt lat="44.03049" lon="6.01065">
        <ele>750</ele>
        <time>2021-12-21T11:57:20.000Z</time>
      </trkpt>
      <trkpt lat="44.0305" lon="6.01064">
        <ele>750</ele>
        <time>2021-12-21T11:57:21.000Z</time>
      </trkpt>
      <trkpt lat="44.03051" lon="6.01064">
        <ele>750</ele>
        <time>2021-12-21T11:57:22.000Z</time>
      </trkpt>
      <trkpt lat="44.03053" lon="6.01063">
        <ele>750</ele>
        <time>2021-12-21T11:57:23.000Z</time>
      </trkpt>
      <trkpt lat="44.03054" lon="6.01062">
        <ele>750</ele>
        <time>2021-12-21T11:57:24.000Z</time>
      </trkpt>
      <trkpt lat="44.03055" lon="6.01061">
        <ele>750</ele>
        <time>2021-12-21T11:57:25.000Z</time>
      </trkpt>
      <trkpt lat="44.03056" lon="6.0106">
        <ele>750</ele>
        <time>2021-12-21T11:57:26.000Z</time>
      </trkpt>
      <trkpt lat="44.03057" lon="6.01059">
        <ele>750</ele>
        <time>2021-12-21T11:57:27.000Z</time>
      </trkpt>
      <trkpt lat="44.03059" lon="6.01059">
        <ele>750</ele>
        <time>2021-12-21T11:57:28.000Z</time>
      </trkpt>
      <trkpt lat="44.0306" lon="6.01058">
        <ele>749</ele>
        <time>2021-12-21T11:57:29.000Z</time>
      </trkpt>
      <trkpt lat="44.03061" lon="6.01058">
        <ele>749</ele>
        <time>2021-12-21T11:57:30.000Z</time>
      </trkpt>
      <trkpt lat="44.03062" lon="6.01057">
        <ele>749</ele>
        <time>2021-12-21T11:57:31.000Z</time>
      </trkpt>
      <trkpt lat="44.03063" lon="6.01056">
        <ele>749</ele>
        <time>2021-12-21T11:57:32.000Z</time>
      </trkpt>
      <trkpt lat="44.03064" lon="6.01055">
        <ele>749</ele>
        <time>2021-12-21T11:57:33.000Z</time>
      </trkpt>
      <trkpt lat="44.03065" lon="6.01054">
        <ele>749</ele>
        <time>2021-12-21T11:57:34.000Z</time>
      </trkpt>
      <trkpt lat="44.03066" lon="6.01054">
        <ele>748</ele>
        <time>2021-12-21T11:57:35.000Z</time>
      </trkpt>
      <trkpt lat="44.03067" lon="6.01052">
        <ele>748</ele>
        <time>2021-12-21T11:57:36.000Z</time>
      </trkpt>
      <trkpt lat="44.03067" lon="6.01051">
        <ele>748</ele>
        <time>2021-12-21T11:57:37.000Z</time>
      </trkpt>
      <trkpt lat="44.03068" lon="6.0105">
        <ele>748</ele>
        <time>2021-12-21T11:57:38.000Z</time>
      </trkpt>
      <trkpt lat="44.03069" lon="6.01049">
        <ele>748</ele>
        <time>2021-12-21T11:57:39.000Z</time>
      </trkpt>
      <trkpt lat="44.0307" lon="6.01048">
        <ele>747</ele>
        <time>2021-12-21T11:57:40.000Z</time>
      </trkpt>
      <trkpt lat="44.0307" lon="6.01046">
        <ele>747</ele>
        <time>2021-12-21T11:57:41.000Z</time>
      </trkpt>
      <trkpt lat="44.03071" lon="6.01045">
        <ele>747</ele>
        <time>2021-12-21T11:57:42.000Z</time>
      </trkpt>
      <trkpt lat="44.03072" lon="6.01044">
        <ele>747</ele>
        <time>2021-12-21T11:57:43.000Z</time>
      </trkpt>
      <trkpt lat="44.03072" lon="6.01043">
        <ele>746</ele>
        <time>2021-12-21T11:57:44.000Z</time>
      </trkpt>
      <trkpt lat="44.03073" lon="6.01042">
        <ele>746</ele>
        <time>2021-12-21T11:57:45.000Z</time>
      </trkpt>
      <trkpt lat="44.03074" lon="6.01041">
        <ele>746</ele>
        <time>2021-12-21T11:57:46.000Z</time>
      </trkpt>
      <trkpt lat="44.03074" lon="6.0104">
        <ele>745</ele>
        <time>2021-12-21T11:57:47.000Z</time>
      </trkpt>
      <trkpt lat="44.03075" lon="6.01038">
        <ele>745</ele>
        <time>2021-12-21T11:57:48.000Z</time>
      </trkpt>
      <trkpt lat="44.03076" lon="6.01037">
        <ele>745</ele>
        <time>2021-12-21T11:57:49.000Z</time>
      </trkpt>
      <trkpt lat="44.03076" lon="6.01036">
        <ele>745</ele>
        <time>2021-12-21T11:57:50.000Z</time>
      </trkpt>
      <trkpt lat="44.03077" lon="6.01035">
        <ele>745</ele>
        <time>2021-12-21T11:57:51.000Z</time>
      </trkpt>
      <trkpt lat="44.03078" lon="6.01033">
        <ele>745</ele>
        <time>2021-12-21T11:57:52.000Z</time>
      </trkpt>
      <trkpt lat="44.03078" lon="6.01032">
        <ele>744</ele>
        <time>2021-12-21T11:57:53.000Z</time>
      </trkpt>
      <trkpt lat="44.03079" lon="6.01031">
        <ele>744</ele>
        <time>2021-12-21T11:57:54.000Z</time>
      </trkpt>
      <trkpt lat="44.0308" lon="6.01029">
        <ele>744</ele>
        <time>2021-12-21T11:57:55.000Z</time>
      </trkpt>
      <trkpt lat="44.0308" lon="6.01028">
        <ele>744</ele>
        <time>2021-12-21T11:57:56.000Z</time>
      </trkpt>
      <trkpt lat="44.03081" lon="6.01027">
        <ele>744</ele>
        <time>2021-12-21T11:57:57.000Z</time>
      </trkpt>
      <trkpt lat="44.03082" lon="6.01025">
        <ele>744</ele>
        <time>2021-12-21T11:57:58.000Z</time>
      </trkpt>
      <trkpt lat="44.03083" lon="6.01024">
        <ele>744</ele>
        <time>2021-12-21T11:57:59.000Z</time>
      </trkpt>
      <trkpt lat="44.03083" lon="6.01022">
        <ele>744</ele>
        <time>2021-12-21T11:58:00.000Z</time>
      </trkpt>
      <trkpt lat="44.03084" lon="6.01021">
        <ele>744</ele>
        <time>2021-12-21T11:58:01.000Z</time>
      </trkpt>
      <trkpt lat="44.03084" lon="6.0102">
        <ele>744</ele>
        <time>2021-12-21T11:58:02.000Z</time>
      </trkpt>
      <trkpt lat="44.03085" lon="6.01019">
        <ele>743</ele>
        <time>2021-12-21T11:58:03.000Z</time>
      </trkpt>
      <trkpt lat="44.03086" lon="6.01018">
        <ele>743</ele>
        <time>2021-12-21T11:58:04.000Z</time>
      </trkpt>
      <trkpt lat="44.03087" lon="6.01016">
        <ele>743</ele>
        <time>2021-12-21T11:58:05.000Z</time>
      </trkpt>
      <trkpt lat="44.03088" lon="6.01015">
        <ele>743</ele>
        <time>2021-12-21T11:58:06.000Z</time>
      </trkpt>
      <trkpt lat="44.03089" lon="6.01014">
        <ele>743</ele>
        <time>2021-12-21T11:58:07.000Z</time>
      </trkpt>
      <trkpt lat="44.0309" lon="6.01012">
        <ele>743</ele>
        <time>2021-12-21T11:58:08.000Z</time>
      </trkpt>
      <trkpt lat="44.0309" lon="6.01011">
        <ele>742</ele>
        <time>2021-12-21T11:58:09.000Z</time>
      </trkpt>
      <trkpt lat="44.03091" lon="6.0101">
        <ele>742</ele>
        <time>2021-12-21T11:58:10.000Z</time>
      </trkpt>
      <trkpt lat="44.03092" lon="6.01009">
        <ele>742</ele>
        <time>2021-12-21T11:58:11.000Z</time>
      </trkpt>
      <trkpt lat="44.03093" lon="6.01008">
        <ele>742</ele>
        <time>2021-12-21T11:58:12.000Z</time>
      </trkpt>
      <trkpt lat="44.03095" lon="6.01007">
        <ele>742</ele>
        <time>2021-12-21T11:58:13.000Z</time>
      </trkpt>
      <trkpt lat="44.03096" lon="6.01006">
        <ele>741</ele>
        <time>2021-12-21T11:58:14.000Z</time>
      </trkpt>
      <trkpt lat="44.03097" lon="6.01005">
        <ele>741</ele>
        <time>2021-12-21T11:58:15.000Z</time>
      </trkpt>
      <trkpt lat="44.03098" lon="6.01004">
        <ele>741</ele>
        <time>2021-12-21T11:58:16.000Z</time>
      </trkpt>
      <trkpt lat="44.03099" lon="6.01003">
        <ele>740</ele>
        <time>2021-12-21T11:58:17.000Z</time>
      </trkpt>
      <trkpt lat="44.031" lon="6.01002">
        <ele>740</ele>
        <time>2021-12-21T11:58:18.000Z</time>
      </trkpt>
      <trkpt lat="44.03101" lon="6.01002">
        <ele>740</ele>
        <time>2021-12-21T11:58:19.000Z</time>
      </trkpt>
      <trkpt lat="44.03103" lon="6.01001">
        <ele>739</ele>
        <time>2021-12-21T11:58:20.000Z</time>
      </trkpt>
      <trkpt lat="44.03104" lon="6.01">
        <ele>739</ele>
        <time>2021-12-21T11:58:21.000Z</time>
      </trkpt>
      <trkpt lat="44.03105" lon="6.00999">
        <ele>739</ele>
        <time>2021-12-21T11:58:22.000Z</time>
      </trkpt>
      <trkpt lat="44.03106" lon="6.00999">
        <ele>739</ele>
        <time>2021-12-21T11:58:23.000Z</time>
      </trkpt>
      <trkpt lat="44.03108" lon="6.00998">
        <ele>738</ele>
        <time>2021-12-21T11:58:24.000Z</time>
      </trkpt>
      <trkpt lat="44.03109" lon="6.00997">
        <ele>738</ele>
        <time>2021-12-21T11:58:25.000Z</time>
      </trkpt>
      <trkpt lat="44.0311" lon="6.00997">
        <ele>738</ele>
        <time>2021-12-21T11:58:26.000Z</time>
      </trkpt>
      <trkpt lat="44.03112" lon="6.00996">
        <ele>738</ele>
        <time>2021-12-21T11:58:27.000Z</time>
      </trkpt>
      <trkpt lat="44.03113" lon="6.00996">
        <ele>738</ele>
        <time>2021-12-21T11:58:28.000Z</time>
      </trkpt>
      <trkpt lat="44.03114" lon="6.00996">
        <ele>738</ele>
        <time>2021-12-21T11:58:29.000Z</time>
      </trkpt>
      <trkpt lat="44.03115" lon="6.00995">
        <ele>737</ele>
        <time>2021-12-21T11:58:30.000Z</time>
      </trkpt>
      <trkpt lat="44.03116" lon="6.00995">
        <ele>737</ele>
        <time>2021-12-21T11:58:31.000Z</time>
      </trkpt>
      <trkpt lat="44.03117" lon="6.00994">
        <ele>737</ele>
        <time>2021-12-21T11:58:32.000Z</time>
      </trkpt>
      <trkpt lat="44.03118" lon="6.00994">
        <ele>737</ele>
        <time>2021-12-21T11:58:33.000Z</time>
      </trkpt>
      <trkpt lat="44.03119" lon="6.00994">
        <ele>737</ele>
        <time>2021-12-21T11:58:34.000Z</time>
      </trkpt>
      <trkpt lat="44.0312" lon="6.00993">
        <ele>737</ele>
        <time>2021-12-21T11:58:35.000Z</time>
      </trkpt>
      <trkpt lat="44.03121" lon="6.00992">
        <ele>737</ele>
        <time>2021-12-21T11:58:36.000Z</time>
      </trkpt>
      <trkpt lat="44.03122" lon="6.00992">
        <ele>737</ele>
        <time>2021-12-21T11:58:37.000Z</time>
      </trkpt>
      <trkpt lat="44.03123" lon="6.00991">
        <ele>737</ele>
        <time>2021-12-21T11:58:38.000Z</time>
      </trkpt>
      <trkpt lat="44.03124" lon="6.00991">
        <ele>737</ele>
        <time>2021-12-21T11:58:39.000Z</time>
      </trkpt>
      <trkpt lat="44.03126" lon="6.0099">
        <ele>737</ele>
        <time>2021-12-21T11:58:40.000Z</time>
      </trkpt>
      <trkpt lat="44.03127" lon="6.00989">
        <ele>736</ele>
        <time>2021-12-21T11:58:41.000Z</time>
      </trkpt>
      <trkpt lat="44.03128" lon="6.00988">
        <ele>736</ele>
        <time>2021-12-21T11:58:42.000Z</time>
      </trkpt>
      <trkpt lat="44.03129" lon="6.00988">
        <ele>736</ele>
        <time>2021-12-21T11:58:43.000Z</time>
      </trkpt>
      <trkpt lat="44.0313" lon="6.00987">
        <ele>736</ele>
        <time>2021-12-21T11:58:44.000Z</time>
      </trkpt>
      <trkpt lat="44.03131" lon="6.00986">
        <ele>736</ele>
        <time>2021-12-21T11:58:45.000Z</time>
      </trkpt>
      <trkpt lat="44.03132" lon="6.00985">
        <ele>736</ele>
        <time>2021-12-21T11:58:46.000Z</time>
      </trkpt>
      <trkpt lat="44.03134" lon="6.00985">
        <ele>736</ele>
        <time>2021-12-21T11:58:47.000Z</time>
      </trkpt>
      <trkpt lat="44.03135" lon="6.00984">
        <ele>735</ele>
        <time>2021-12-21T11:58:48.000Z</time>
      </trkpt>
      <trkpt lat="44.03136" lon="6.00983">
        <ele>735</ele>
        <time>2021-12-21T11:58:49.000Z</time>
      </trkpt>
      <trkpt lat="44.03137" lon="6.00982">
        <ele>735</ele>
        <time>2021-12-21T11:58:50.000Z</time>
      </trkpt>
      <trkpt lat="44.03138" lon="6.00981">
        <ele>735</ele>
        <time>2021-12-21T11:58:51.000Z</time>
      </trkpt>
      <trkpt lat="44.03139" lon="6.0098">
        <ele>734</ele>
        <time>2021-12-21T11:58:52.000Z</time>
      </trkpt>
      <trkpt lat="44.0314" lon="6.00979">
        <ele>734</ele>
        <time>2021-12-21T11:58:53.000Z</time>
      </trkpt>
      <trkpt lat="44.03141" lon="6.00978">
        <ele>734</ele>
        <time>2021-12-21T11:58:54.000Z</time>
      </trkpt>
      <trkpt lat="44.03141" lon="6.00977">
        <ele>734</ele>
        <time>2021-12-21T11:58:55.000Z</time>
      </trkpt>
      <trkpt lat="44.03142" lon="6.00976">
        <ele>733</ele>
        <time>2021-12-21T11:58:56.000Z</time>
      </trkpt>
      <trkpt lat="44.03143" lon="6.00975">
        <ele>733</ele>
        <time>2021-12-21T11:58:57.000Z</time>
      </trkpt>
      <trkpt lat="44.03143" lon="6.00974">
        <ele>733</ele>
        <time>2021-12-21T11:58:58.000Z</time>
      </trkpt>
      <trkpt lat="44.03144" lon="6.00973">
        <ele>733</ele>
        <time>2021-12-21T11:58:59.000Z</time>
      </trkpt>
      <trkpt lat="44.03144" lon="6.00972">
        <ele>732</ele>
        <time>2021-12-21T11:59:00.000Z</time>
      </trkpt>
      <trkpt lat="44.03145" lon="6.0097">
        <ele>732</ele>
        <time>2021-12-21T11:59:01.000Z</time>
      </trkpt>
      <trkpt lat="44.03145" lon="6.00969">
        <ele>732</ele>
        <time>2021-12-21T11:59:02.000Z</time>
      </trkpt>
      <trkpt lat="44.03145" lon="6.00968">
        <ele>731</ele>
        <time>2021-12-21T11:59:03.000Z</time>
      </trkpt>
      <trkpt lat="44.03145" lon="6.00966">
        <ele>731</ele>
        <time>2021-12-21T11:59:04.000Z</time>
      </trkpt>
      <trkpt lat="44.03145" lon="6.00965">
        <ele>731</ele>
        <time>2021-12-21T11:59:05.000Z</time>
      </trkpt>
      <trkpt lat="44.03145" lon="6.00964">
        <ele>731</ele>
        <time>2021-12-21T11:59:06.000Z</time>
      </trkpt>
      <trkpt lat="44.03144" lon="6.00962">
        <ele>730</ele>
        <time>2021-12-21T11:59:07.000Z</time>
      </trkpt>
      <trkpt lat="44.03144" lon="6.00961">
        <ele>730</ele>
        <time>2021-12-21T11:59:08.000Z</time>
      </trkpt>
      <trkpt lat="44.03144" lon="6.0096">
        <ele>730</ele>
        <time>2021-12-21T11:59:09.000Z</time>
      </trkpt>
      <trkpt lat="44.03143" lon="6.00958">
        <ele>730</ele>
        <time>2021-12-21T11:59:10.000Z</time>
      </trkpt>
      <trkpt lat="44.03143" lon="6.00957">
        <ele>729</ele>
        <time>2021-12-21T11:59:11.000Z</time>
      </trkpt>
      <trkpt lat="44.03143" lon="6.00956">
        <ele>729</ele>
        <time>2021-12-21T11:59:12.000Z</time>
      </trkpt>
      <trkpt lat="44.03142" lon="6.00955">
        <ele>729</ele>
        <time>2021-12-21T11:59:13.000Z</time>
      </trkpt>
      <trkpt lat="44.03142" lon="6.00954">
        <ele>729</ele>
        <time>2021-12-21T11:59:14.000Z</time>
      </trkpt>
      <trkpt lat="44.03141" lon="6.00952">
        <ele>729</ele>
        <time>2021-12-21T11:59:15.000Z</time>
      </trkpt>
      <trkpt lat="44.03141" lon="6.00951">
        <ele>728</ele>
        <time>2021-12-21T11:59:16.000Z</time>
      </trkpt>
      <trkpt lat="44.0314" lon="6.0095">
        <ele>728</ele>
        <time>2021-12-21T11:59:17.000Z</time>
      </trkpt>
      <trkpt lat="44.0314" lon="6.00949">
        <ele>728</ele>
        <time>2021-12-21T11:59:18.000Z</time>
      </trkpt>
      <trkpt lat="44.03139" lon="6.00947">
        <ele>728</ele>
        <time>2021-12-21T11:59:19.000Z</time>
      </trkpt>
      <trkpt lat="44.03138" lon="6.00946">
        <ele>727</ele>
        <time>2021-12-21T11:59:20.000Z</time>
      </trkpt>
      <trkpt lat="44.03138" lon="6.00945">
        <ele>727</ele>
        <time>2021-12-21T11:59:21.000Z</time>
      </trkpt>
      <trkpt lat="44.03138" lon="6.00943">
        <ele>727</ele>
        <time>2021-12-21T11:59:22.000Z</time>
      </trkpt>
      <trkpt lat="44.03137" lon="6.00942">
        <ele>727</ele>
        <time>2021-12-21T11:59:23.000Z</time>
      </trkpt>
      <trkpt lat="44.03137" lon="6.00941">
        <ele>727</ele>
        <time>2021-12-21T11:59:24.000Z</time>
      </trkpt>
      <trkpt lat="44.03136" lon="6.00939">
        <ele>727</ele>
        <time>2021-12-21T11:59:25.000Z</time>
      </trkpt>
      <trkpt lat="44.03136" lon="6.00937">
        <ele>726</ele>
        <time>2021-12-21T11:59:26.000Z</time>
      </trkpt>
      <trkpt lat="44.03136" lon="6.00936">
        <ele>726</ele>
        <time>2021-12-21T11:59:27.000Z</time>
      </trkpt>
      <trkpt lat="44.03135" lon="6.00935">
        <ele>726</ele>
        <time>2021-12-21T11:59:28.000Z</time>
      </trkpt>
      <trkpt lat="44.03135" lon="6.00933">
        <ele>726</ele>
        <time>2021-12-21T11:59:29.000Z</time>
      </trkpt>
      <trkpt lat="44.03135" lon="6.00931">
        <ele>725</ele>
        <time>2021-12-21T11:59:30.000Z</time>
      </trkpt>
      <trkpt lat="44.03134" lon="6.0093">
        <ele>725</ele>
        <time>2021-12-21T11:59:31.000Z</time>
      </trkpt>
      <trkpt lat="44.03133" lon="6.00929">
        <ele>725</ele>
        <time>2021-12-21T11:59:32.000Z</time>
      </trkpt>
      <trkpt lat="44.03133" lon="6.00928">
        <ele>725</ele>
        <time>2021-12-21T11:59:33.000Z</time>
      </trkpt>
      <trkpt lat="44.03132" lon="6.00926">
        <ele>725</ele>
        <time>2021-12-21T11:59:34.000Z</time>
      </trkpt>
      <trkpt lat="44.03131" lon="6.00925">
        <ele>724</ele>
        <time>2021-12-21T11:59:35.000Z</time>
      </trkpt>
      <trkpt lat="44.03131" lon="6.00924">
        <ele>724</ele>
        <time>2021-12-21T11:59:36.000Z</time>
      </trkpt>
      <trkpt lat="44.0313" lon="6.00922">
        <ele>724</ele>
        <time>2021-12-21T11:59:37.000Z</time>
      </trkpt>
      <trkpt lat="44.03129" lon="6.00921">
        <ele>724</ele>
        <time>2021-12-21T11:59:38.000Z</time>
      </trkpt>
      <trkpt lat="44.03129" lon="6.0092">
        <ele>724</ele>
        <time>2021-12-21T11:59:39.000Z</time>
      </trkpt>
      <trkpt lat="44.03129" lon="6.00918">
        <ele>723</ele>
        <time>2021-12-21T11:59:40.000Z</time>
      </trkpt>
      <trkpt lat="44.03129" lon="6.00917">
        <ele>723</ele>
        <time>2021-12-21T11:59:41.000Z</time>
      </trkpt>
      <trkpt lat="44.03128" lon="6.00916">
        <ele>723</ele>
        <time>2021-12-21T11:59:42.000Z</time>
      </trkpt>
      <trkpt lat="44.03128" lon="6.00914">
        <ele>723</ele>
        <time>2021-12-21T11:59:43.000Z</time>
      </trkpt>
      <trkpt lat="44.03128" lon="6.00913">
        <ele>723</ele>
        <time>2021-12-21T11:59:44.000Z</time>
      </trkpt>
      <trkpt lat="44.03129" lon="6.00912">
        <ele>723</ele>
        <time>2021-12-21T11:59:45.000Z</time>
      </trkpt>
      <trkpt lat="44.03129" lon="6.00912">
        <ele>723</ele>
        <time>2021-12-21T11:59:46.000Z</time>
      </trkpt>
      <trkpt lat="44.03129" lon="6.00911">
        <ele>724</ele>
        <time>2021-12-21T11:59:47.000Z</time>
      </trkpt>
      <trkpt lat="44.03129" lon="6.00911">
        <ele>724</ele>
        <time>2021-12-21T11:59:48.000Z</time>
      </trkpt>
      <trkpt lat="44.03129" lon="6.00911">
        <ele>724</ele>
        <time>2021-12-21T11:59:49.000Z</time>
      </trkpt>
      <trkpt lat="44.03129" lon="6.00911">
        <ele>724</ele>
        <time>2021-12-21T11:59:50.000Z</time>
      </trkpt>
      <trkpt lat="44.03129" lon="6.00911">
        <ele>724</ele>
        <time>2021-12-21T11:59:51.000Z</time>
      </trkpt>
      <trkpt lat="44.03129" lon="6.00911">
        <ele>724</ele>
        <time>2021-12-21T11:59:52.000Z</time>
      </trkpt>
      <trkpt lat="44.03129" lon="6.00911">
        <ele>724</ele>
        <time>2021-12-21T11:59:53.000Z</time>
      </trkpt>
      <trkpt lat="44.03129" lon="6.0091">
        <ele>724</ele>
        <time>2021-12-21T11:59:54.000Z</time>
      </trkpt>
      <trkpt lat="44.0313" lon="6.0091">
        <ele>724</ele>
        <time>2021-12-21T11:59:55.000Z</time>
      </trkpt>
      <trkpt lat="44.03129" lon="6.0091">
        <ele>724</ele>
        <time>2021-12-21T11:59:56.000Z</time>
      </trkpt>
      <trkpt lat="44.0313" lon="6.0091">
        <ele>724</ele>
        <time>2021-12-21T11:59:57.000Z</time>
      </trkpt>
      <trkpt lat="44.0313" lon="6.0091">
        <ele>724</ele>
        <time>2021-12-21T11:59:58.000Z</time>
      </trkpt>
      <trkpt lat="44.03131" lon="6.0091">
        <ele>724</ele>
        <time>2021-12-21T11:59:59.000Z</time>
      </trkpt>
      <trkpt lat="44.03132" lon="6.0091">
        <ele>724</ele>
        <time>2021-12-21T12:00:00.000Z</time>
      </trkpt>
      <trkpt lat="44.03132" lon="6.0091">
        <ele>724</ele>
        <time>2021-12-21T12:00:01.000Z</time>
      </trkpt>
      <trkpt lat="44.03132" lon="6.0091">
        <ele>724</ele>
        <time>2021-12-21T12:00:02.000Z</time>
      </trkpt>
      <trkpt lat="44.03131" lon="6.00911">
        <ele>724</ele>
        <time>2021-12-21T12:00:03.000Z</time>
      </trkpt>
      <trkpt lat="44.03131" lon="6.00911">
        <ele>724</ele>
        <time>2021-12-21T12:00:04.000Z</time>
      </trkpt>
      <trkpt lat="44.03131" lon="6.00911">
        <ele>724</ele>
        <time>2021-12-21T12:00:05.000Z</time>
      </trkpt>
      <trkpt lat="44.03131" lon="6.0091">
        <ele>724</ele>
        <time>2021-12-21T12:00:06.000Z</time>
      </trkpt>
      <trkpt lat="44.03131" lon="6.0091">
        <ele>724</ele>
        <time>2021-12-21T12:00:07.000Z</time>
      </trkpt>
      <trkpt lat="44.03131" lon="6.0091">
        <ele>724</ele>
        <time>2021-12-21T12:00:08.000Z</time>
      </trkpt>
      <trkpt lat="44.03131" lon="6.0091">
        <ele>724</ele>
        <time>2021-12-21T12:00:09.000Z</time>
      </trkpt>
      <trkpt lat="44.03131" lon="6.0091">
        <ele>724</ele>
        <time>2021-12-21T12:00:10.000Z</time>
      </trkpt>
      <trkpt lat="44.03131" lon="6.0091">
        <ele>723</ele>
        <time>2021-12-21T12:00:11.000Z</time>
      </trkpt>
      <trkpt lat="44.03131" lon="6.0091">
        <ele>723</ele>
        <time>2021-12-21T12:00:12.000Z</time>
      </trkpt>
      <trkpt lat="44.03131" lon="6.00909">
        <ele>723</ele>
        <time>2021-12-21T12:00:13.000Z</time>
      </trkpt>
      <trkpt lat="44.03131" lon="6.00909">
        <ele>723</ele>
        <time>2021-12-21T12:00:14.000Z</time>
      </trkpt>
      <trkpt lat="44.03131" lon="6.00909">
        <ele>723</ele>
        <time>2021-12-21T12:00:15.000Z</time>
      </trkpt>
      <trkpt lat="44.03131" lon="6.00909">
        <ele>723</ele>
        <time>2021-12-21T12:00:16.000Z</time>
      </trkpt>
      <trkpt lat="44.03131" lon="6.00909">
        <ele>723</ele>
        <time>2021-12-21T12:00:17.000Z</time>
      </trkpt>
      <trkpt lat="44.03131" lon="6.00909">
        <ele>723</ele>
        <time>2021-12-21T12:00:18.000Z</time>
      </trkpt>
      <trkpt lat="44.03131" lon="6.00909">
        <ele>723</ele>
        <time>2021-12-21T12:00:19.000Z</time>
      </trkpt>
      <trkpt lat="44.03131" lon="6.00909">
        <ele>723</ele>
        <time>2021-12-21T12:00:20.000Z</time>
      </trkpt>
      <trkpt lat="44.03131" lon="6.00909">
        <ele>723</ele>
        <time>2021-12-21T12:00:21.000Z</time>
      </trkpt>
      <trkpt lat="44.03131" lon="6.00909">
        <ele>723</ele>
        <time>2021-12-21T12:00:22.000Z</time>
      </trkpt>
      <trkpt lat="44.03131" lon="6.00909">
        <ele>723</ele>
        <time>2021-12-21T12:00:23.000Z</time>
      </trkpt>
      <trkpt lat="44.03131" lon="6.00909">
        <ele>723</ele>
        <time>2021-12-21T12:00:24.000Z</time>
      </trkpt>
      <trkpt lat="44.03131" lon="6.00909">
        <ele>723</ele>
        <time>2021-12-21T12:00:25.000Z</time>
      </trkpt>
      <trkpt lat="44.03131" lon="6.00909">
        <ele>723</ele>
        <time>2021-12-21T12:00:26.000Z</time>
      </trkpt>
      <trkpt lat="44.03131" lon="6.00909">
        <ele>723</ele>
        <time>2021-12-21T12:00:27.000Z</time>
      </trkpt>
      <trkpt lat="44.03131" lon="6.00909">
        <ele>723</ele>
        <time>2021-12-21T12:00:28.000Z</time>
      </trkpt>
      <trkpt lat="44.03131" lon="6.00909">
        <ele>723</ele>
        <time>2021-12-21T12:00:29.000Z</time>
      </trkpt>
      <trkpt lat="44.03131" lon="6.00909">
        <ele>723</ele>
        <time>2021-12-21T12:00:30.000Z</time>
      </trkpt>
      <trkpt lat="44.03131" lon="6.00909">
        <ele>723</ele>
        <time>2021-12-21T12:00:31.000Z</time>
      </trkpt>
      <trkpt lat="44.03131" lon="6.00909">
        <ele>723</ele>
        <time>2021-12-21T12:00:32.000Z</time>
      </trkpt>
      <trkpt lat="44.03131" lon="6.00909">
        <ele>723</ele>
        <time>2021-12-21T12:00:33.000Z</time>
      </trkpt>
      <trkpt lat="44.03131" lon="6.00909">
        <ele>723</ele>
        <time>2021-12-21T12:00:34.000Z</time>
      </trkpt>
      <trkpt lat="44.03131" lon="6.00909">
        <ele>723</ele>
        <time>2021-12-21T12:00:35.000Z</time>
      </trkpt>
      <trkpt lat="44.03131" lon="6.00909">
        <ele>723</ele>
        <time>2021-12-21T12:00:36.000Z</time>
      </trkpt>
      <trkpt lat="44.03131" lon="6.00909">
        <ele>723</ele>
        <time>2021-12-21T12:00:37.000Z</time>
      </trkpt>
      <trkpt lat="44.03131" lon="6.00909">
        <ele>723</ele>
        <time>2021-12-21T12:00:38.000Z</time>
      </trkpt>
      <trkpt lat="44.03131" lon="6.00909">
        <ele>723</ele>
        <time>2021-12-21T12:00:39.000Z</time>
      </trkpt>
      <trkpt lat="44.03131" lon="6.00909">
        <ele>723</ele>
        <time>2021-12-21T12:00:40.000Z</time>
      </trkpt>
      <trkpt lat="44.03131" lon="6.00909">
        <ele>723</ele>
        <time>2021-12-21T12:00:41.000Z</time>
      </trkpt>
      <trkpt lat="44.03131" lon="6.00909">
        <ele>723</ele>
        <time>2021-12-21T12:00:42.000Z</time>
      </trkpt>
      <trkpt lat="44.03131" lon="6.00909">
        <ele>723</ele>
        <time>2021-12-21T12:00:43.000Z</time>
      </trkpt>
      <trkpt lat="44.03131" lon="6.00909">
        <ele>723</ele>
        <time>2021-12-21T12:00:44.000Z</time>
      </trkpt>
      <trkpt lat="44.03131" lon="6.00909">
        <ele>723</ele>
        <time>2021-12-21T12:00:45.000Z</time>
      </trkpt>
      <trkpt lat="44.03131" lon="6.00908">
        <ele>723</ele>
        <time>2021-12-21T12:00:46.000Z</time>
      </trkpt>
      <trkpt lat="44.03131" lon="6.00908">
        <ele>723</ele>
        <time>2021-12-21T12:00:47.000Z</time>
      </trkpt>
      <trkpt lat="44.03131" lon="6.00907">
        <ele>723</ele>
        <time>2021-12-21T12:00:48.000Z</time>
      </trkpt>
      <trkpt lat="44.03131" lon="6.00906">
        <ele>723</ele>
        <time>2021-12-21T12:00:49.000Z</time>
      </trkpt>
      <trkpt lat="44.03131" lon="6.00905">
        <ele>723</ele>
        <time>2021-12-21T12:00:50.000Z</time>
      </trkpt>
      <trkpt lat="44.03131" lon="6.00904">
        <ele>723</ele>
        <time>2021-12-21T12:00:51.000Z</time>
      </trkpt>
      <trkpt lat="44.0313" lon="6.00904">
        <ele>723</ele>
        <time>2021-12-21T12:00:52.000Z</time>
      </trkpt>
      <trkpt lat="44.0313" lon="6.00902">
        <ele>723</ele>
        <time>2021-12-21T12:00:53.000Z</time>
      </trkpt>
      <trkpt lat="44.03129" lon="6.00901">
        <ele>723</ele>
        <time>2021-12-21T12:00:54.000Z</time>
      </trkpt>
      <trkpt lat="44.03129" lon="6.009">
        <ele>723</ele>
        <time>2021-12-21T12:00:55.000Z</time>
      </trkpt>
      <trkpt lat="44.03129" lon="6.00899">
        <ele>723</ele>
        <time>2021-12-21T12:00:56.000Z</time>
      </trkpt>
      <trkpt lat="44.03129" lon="6.00897">
        <ele>724</ele>
        <time>2021-12-21T12:00:57.000Z</time>
      </trkpt>
      <trkpt lat="44.03128" lon="6.00896">
        <ele>724</ele>
        <time>2021-12-21T12:00:58.000Z</time>
      </trkpt>
      <trkpt lat="44.03128" lon="6.00895">
        <ele>724</ele>
        <time>2021-12-21T12:00:59.000Z</time>
      </trkpt>
      <trkpt lat="44.03128" lon="6.00894">
        <ele>724</ele>
        <time>2021-12-21T12:01:00.000Z</time>
      </trkpt>
      <trkpt lat="44.03127" lon="6.00893">
        <ele>724</ele>
        <time>2021-12-21T12:01:01.000Z</time>
      </trkpt>
      <trkpt lat="44.03127" lon="6.00892">
        <ele>724</ele>
        <time>2021-12-21T12:01:02.000Z</time>
      </trkpt>
      <trkpt lat="44.03127" lon="6.00892">
        <ele>724</ele>
        <time>2021-12-21T12:01:03.000Z</time>
      </trkpt>
      <trkpt lat="44.03127" lon="6.00892">
        <ele>724</ele>
        <time>2021-12-21T12:01:04.000Z</time>
      </trkpt>
      <trkpt lat="44.03127" lon="6.00892">
        <ele>724</ele>
        <time>2021-12-21T12:01:05.000Z</time>
      </trkpt>
      <trkpt lat="44.03127" lon="6.00892">
        <ele>724</ele>
        <time>2021-12-21T12:01:06.000Z</time>
      </trkpt>
      <trkpt lat="44.03127" lon="6.00892">
        <ele>724</ele>
        <time>2021-12-21T12:01:07.000Z</time>
      </trkpt>
      <trkpt lat="44.03127" lon="6.00892">
        <ele>724</ele>
        <time>2021-12-21T12:01:08.000Z</time>
      </trkpt>
      <trkpt lat="44.03127" lon="6.00892">
        <ele>725</ele>
        <time>2021-12-21T12:01:09.000Z</time>
      </trkpt>
      <trkpt lat="44.03127" lon="6.00893">
        <ele>725</ele>
        <time>2021-12-21T12:01:10.000Z</time>
      </trkpt>
      <trkpt lat="44.03127" lon="6.00893">
        <ele>724</ele>
        <time>2021-12-21T12:01:11.000Z</time>
      </trkpt>
      <trkpt lat="44.03127" lon="6.00893">
        <ele>724</ele>
        <time>2021-12-21T12:01:12.000Z</time>
      </trkpt>
      <trkpt lat="44.03127" lon="6.00893">
        <ele>724</ele>
        <time>2021-12-21T12:01:13.000Z</time>
      </trkpt>
      <trkpt lat="44.03127" lon="6.00893">
        <ele>724</ele>
        <time>2021-12-21T12:01:14.000Z</time>
      </trkpt>
      <trkpt lat="44.03127" lon="6.00893">
        <ele>724</ele>
        <time>2021-12-21T12:01:15.000Z</time>
      </trkpt>
      <trkpt lat="44.03129" lon="6.00897">
        <ele>720</ele>
        <time>2021-12-21T12:01:16.000Z</time>
      </trkpt>
      <trkpt lat="44.03129" lon="6.00897">
        <ele>720</ele>
        <time>2021-12-21T12:01:17.000Z</time>
      </trkpt>
      <trkpt lat="44.03129" lon="6.00897">
        <ele>720</ele>
        <time>2021-12-21T12:01:18.000Z</time>
      </trkpt>
      <trkpt lat="44.03129" lon="6.00897">
        <ele>720</ele>
        <time>2021-12-21T12:01:19.000Z</time>
      </trkpt>
      <trkpt lat="44.03129" lon="6.00897">
        <ele>720</ele>
        <time>2021-12-21T12:01:20.000Z</time>
      </trkpt>
      <trkpt lat="44.03129" lon="6.00897">
        <ele>720</ele>
        <time>2021-12-21T12:01:21.000Z</time>
      </trkpt>
      <trkpt lat="44.03128" lon="6.00897">
        <ele>721</ele>
        <time>2021-12-21T12:01:22.000Z</time>
      </trkpt>
      <trkpt lat="44.03128" lon="6.00897">
        <ele>721</ele>
        <time>2021-12-21T12:01:23.000Z</time>
      </trkpt>
      <trkpt lat="44.03128" lon="6.00897">
        <ele>721</ele>
        <time>2021-12-21T12:01:24.000Z</time>
      </trkpt>
      <trkpt lat="44.03128" lon="6.00897">
        <ele>721</ele>
        <time>2021-12-21T12:01:25.000Z</time>
      </trkpt>
      <trkpt lat="44.03128" lon="6.00897">
        <ele>721</ele>
        <time>2021-12-21T12:01:26.000Z</time>
      </trkpt>
      <trkpt lat="44.03128" lon="6.00897">
        <ele>721</ele>
        <time>2021-12-21T12:01:27.000Z</time>
      </trkpt>
      <trkpt lat="44.03128" lon="6.00897">
        <ele>721</ele>
        <time>2021-12-21T12:01:28.000Z</time>
      </trkpt>
      <trkpt lat="44.03128" lon="6.00897">
        <ele>721</ele>
        <time>2021-12-21T12:01:29.000Z</time>
      </trkpt>
      <trkpt lat="44.03128" lon="6.00897">
        <ele>721</ele>
        <time>2021-12-21T12:01:30.000Z</time>
      </trkpt>
      <trkpt lat="44.03127" lon="6.00897">
        <ele>721</ele>
        <time>2021-12-21T12:01:31.000Z</time>
      </trkpt>
      <trkpt lat="44.03127" lon="6.00897">
        <ele>721</ele>
        <time>2021-12-21T12:01:32.000Z</time>
      </trkpt>
      <trkpt lat="44.03127" lon="6.00897">
        <ele>721</ele>
        <time>2021-12-21T12:01:33.000Z</time>
      </trkpt>
      <trkpt lat="44.03127" lon="6.00897">
        <ele>721</ele>
        <time>2021-12-21T12:01:34.000Z</time>
      </trkpt>
      <trkpt lat="44.03127" lon="6.00897">
        <ele>720</ele>
        <time>2021-12-21T12:01:35.000Z</time>
      </trkpt>
      <trkpt lat="44.03127" lon="6.00897">
        <ele>721</ele>
        <time>2021-12-21T12:01:36.000Z</time>
      </trkpt>
      <trkpt lat="44.03127" lon="6.00897">
        <ele>721</ele>
        <time>2021-12-21T12:01:37.000Z</time>
      </trkpt>
      <trkpt lat="44.03127" lon="6.00897">
        <ele>720</ele>
        <time>2021-12-21T12:01:38.000Z</time>
      </trkpt>
      <trkpt lat="44.03128" lon="6.00897">
        <ele>720</ele>
        <time>2021-12-21T12:01:39.000Z</time>
      </trkpt>
      <trkpt lat="44.03128" lon="6.00897">
        <ele>720</ele>
        <time>2021-12-21T12:01:40.000Z</time>
      </trkpt>
      <trkpt lat="44.03128" lon="6.00897">
        <ele>720</ele>
        <time>2021-12-21T12:01:41.000Z</time>
      </trkpt>
      <trkpt lat="44.03128" lon="6.00897">
        <ele>720</ele>
        <time>2021-12-21T12:01:42.000Z</time>
      </trkpt>
      <trkpt lat="44.03128" lon="6.00897">
        <ele>720</ele>
        <time>2021-12-21T12:01:43.000Z</time>
      </trkpt>
      <trkpt lat="44.03127" lon="6.00897">
        <ele>720</ele>
        <time>2021-12-21T12:01:44.000Z</time>
      </trkpt>
      <trkpt lat="44.03127" lon="6.00897">
        <ele>720</ele>
        <time>2021-12-21T12:01:45.000Z</time>
      </trkpt>
      <trkpt lat="44.03127" lon="6.00897">
        <ele>720</ele>
        <time>2021-12-21T12:01:46.000Z</time>
      </trkpt>
      <trkpt lat="44.03127" lon="6.00898">
        <ele>720</ele>
        <time>2021-12-21T12:01:47.000Z</time>
      </trkpt>
      <trkpt lat="44.03128" lon="6.00897">
        <ele>720</ele>
        <time>2021-12-21T12:01:48.000Z</time>
      </trkpt>
      <trkpt lat="44.03128" lon="6.00898">
        <ele>720</ele>
        <time>2021-12-21T12:01:49.000Z</time>
      </trkpt>
      <trkpt lat="44.03128" lon="6.00897">
        <ele>720</ele>
        <time>2021-12-21T12:01:50.000Z</time>
      </trkpt>
      <trkpt lat="44.03128" lon="6.00897">
        <ele>720</ele>
        <time>2021-12-21T12:01:51.000Z</time>
      </trkpt>
      <trkpt lat="44.03128" lon="6.00898">
        <ele>720</ele>
        <time>2021-12-21T12:01:52.000Z</time>
      </trkpt>
      <trkpt lat="44.03128" lon="6.00897">
        <ele>720</ele>
        <time>2021-12-21T12:01:53.000Z</time>
      </trkpt>
      <trkpt lat="44.03128" lon="6.00897">
        <ele>720</ele>
        <time>2021-12-21T12:01:54.000Z</time>
      </trkpt>
      <trkpt lat="44.03128" lon="6.00897">
        <ele>721</ele>
        <time>2021-12-21T12:01:55.000Z</time>
      </trkpt>
      <trkpt lat="44.03128" lon="6.00897">
        <ele>721</ele>
        <time>2021-12-21T12:01:56.000Z</time>
      </trkpt>
      <trkpt lat="44.03128" lon="6.00897">
        <ele>721</ele>
        <time>2021-12-21T12:01:57.000Z</time>
      </trkpt>
      <trkpt lat="44.03128" lon="6.00897">
        <ele>721</ele>
        <time>2021-12-21T12:01:58.000Z</time>
      </trkpt>
      <trkpt lat="44.03128" lon="6.00897">
        <ele>721</ele>
        <time>2021-12-21T12:01:59.000Z</time>
      </trkpt>
      <trkpt lat="44.03128" lon="6.00897">
        <ele>721</ele>
        <time>2021-12-21T12:02:00.000Z</time>
      </trkpt>
      <trkpt lat="44.03128" lon="6.00897">
        <ele>721</ele>
        <time>2021-12-21T12:02:01.000Z</time>
      </trkpt>
      <trkpt lat="44.03128" lon="6.00897">
        <ele>721</ele>
        <time>2021-12-21T12:02:02.000Z</time>
      </trkpt>
      <trkpt lat="44.03128" lon="6.00897">
        <ele>721</ele>
        <time>2021-12-21T12:02:03.000Z</time>
      </trkpt>
      <trkpt lat="44.03128" lon="6.00897">
        <ele>721</ele>
        <time>2021-12-21T12:02:04.000Z</time>
      </trkpt>
      <trkpt lat="44.03128" lon="6.00897">
        <ele>721</ele>
        <time>2021-12-21T12:02:05.000Z</time>
      </trkpt>
      <trkpt lat="44.03128" lon="6.00897">
        <ele>721</ele>
        <time>2021-12-21T12:02:06.000Z</time>
      </trkpt>
      <trkpt lat="44.03128" lon="6.00897">
        <ele>721</ele>
        <time>2021-12-21T12:02:07.000Z</time>
      </trkpt>
      <trkpt lat="44.03128" lon="6.00897">
        <ele>721</ele>
        <time>2021-12-21T12:02:08.000Z</time>
      </trkpt>
      <trkpt lat="44.03128" lon="6.00897">
        <ele>721</ele>
        <time>2021-12-21T12:02:09.000Z</time>
      </trkpt>
      <trkpt lat="44.03128" lon="6.00897">
        <ele>721</ele>
        <time>2021-12-21T12:02:10.000Z</time>
      </trkpt>
      <trkpt lat="44.03128" lon="6.00897">
        <ele>721</ele>
        <time>2021-12-21T12:02:11.000Z</time>
      </trkpt>
      <trkpt lat="44.03128" lon="6.00897">
        <ele>721</ele>
        <time>2021-12-21T12:02:12.000Z</time>
      </trkpt>
      <trkpt lat="44.03128" lon="6.00897">
        <ele>721</ele>
        <time>2021-12-21T12:02:13.000Z</time>
      </trkpt>
      <trkpt lat="44.03128" lon="6.00897">
        <ele>721</ele>
        <time>2021-12-21T12:02:14.000Z</time>
      </trkpt>
      <trkpt lat="44.03128" lon="6.00897">
        <ele>721</ele>
        <time>2021-12-21T12:02:15.000Z</time>
      </trkpt>
      <trkpt lat="44.03128" lon="6.00897">
        <ele>721</ele>
        <time>2021-12-21T12:02:16.000Z</time>
      </trkpt>
      <trkpt lat="44.03128" lon="6.00897">
        <ele>721</ele>
        <time>2021-12-21T12:02:17.000Z</time>
      </trkpt>
      <trkpt lat="44.03128" lon="6.00897">
        <ele>721</ele>
        <time>2021-12-21T12:02:18.000Z</time>
      </trkpt>
      <trkpt lat="44.03128" lon="6.00897">
        <ele>721</ele>
        <time>2021-12-21T12:02:19.000Z</time>
      </trkpt>
      <trkpt lat="44.03128" lon="6.00897">
        <ele>721</ele>
        <time>2021-12-21T12:02:20.000Z</time>
      </trkpt>
      <trkpt lat="44.03128" lon="6.00897">
        <ele>721</ele>
        <time>2021-12-21T12:02:21.000Z</time>
      </trkpt>
      <trkpt lat="44.03128" lon="6.00897">
        <ele>720</ele>
        <time>2021-12-21T12:02:22.000Z</time>
      </trkpt>
      <trkpt lat="44.03128" lon="6.00897">
        <ele>720</ele>
        <time>2021-12-21T12:02:23.000Z</time>
      </trkpt>
      <trkpt lat="44.03128" lon="6.00897">
        <ele>720</ele>
        <time>2021-12-21T12:02:24.000Z</time>
      </trkpt>
      <trkpt lat="44.03127" lon="6.00897">
        <ele>720</ele>
        <time>2021-12-21T12:02:25.000Z</time>
      </trkpt>
      <trkpt lat="44.03127" lon="6.00897">
        <ele>720</ele>
        <time>2021-12-21T12:02:26.000Z</time>
      </trkpt>
      <trkpt lat="44.03127" lon="6.00897">
        <ele>720</ele>
        <time>2021-12-21T12:02:27.000Z</time>
      </trkpt>
      <trkpt lat="44.03127" lon="6.00897">
        <ele>720</ele>
        <time>2021-12-21T12:02:28.000Z</time>
      </trkpt>
      <trkpt lat="44.03127" lon="6.00897">
        <ele>720</ele>
        <time>2021-12-21T12:02:29.000Z</time>
      </trkpt>
      <trkpt lat="44.03127" lon="6.00897">
        <ele>720</ele>
        <time>2021-12-21T12:02:30.000Z</time>
      </trkpt>
      <trkpt lat="44.03127" lon="6.00897">
        <ele>720</ele>
        <time>2021-12-21T12:02:31.000Z</time>
      </trkpt>
      <trkpt lat="44.03127" lon="6.00897">
        <ele>720</ele>
        <time>2021-12-21T12:02:32.000Z</time>
      </trkpt>
      <trkpt lat="44.03127" lon="6.00897">
        <ele>720</ele>
        <time>2021-12-21T12:02:33.000Z</time>
      </trkpt>
      <trkpt lat="44.03127" lon="6.00897">
        <ele>720</ele>
        <time>2021-12-21T12:02:34.000Z</time>
      </trkpt>
      <trkpt lat="44.03127" lon="6.00897">
        <ele>720</ele>
        <time>2021-12-21T12:02:35.000Z</time>
      </trkpt>
      <trkpt lat="44.03127" lon="6.00897">
        <ele>720</ele>
        <time>2021-12-21T12:02:36.000Z</time>
      </trkpt>
      <trkpt lat="44.03127" lon="6.00897">
        <ele>720</ele>
        <time>2021-12-21T12:02:37.000Z</time>
      </trkpt>
      <trkpt lat="44.03127" lon="6.00897">
        <ele>720</ele>
        <time>2021-12-21T12:02:38.000Z</time>
      </trkpt>
      <trkpt lat="44.03127" lon="6.00897">
        <ele>720</ele>
        <time>2021-12-21T12:02:39.000Z</time>
      </trkpt>
      <trkpt lat="44.03127" lon="6.00897">
        <ele>720</ele>
        <time>2021-12-21T12:02:40.000Z</time>
      </trkpt>
      <trkpt lat="44.03127" lon="6.00897">
        <ele>720</ele>
        <time>2021-12-21T12:02:41.000Z</time>
      </trkpt>
      <trkpt lat="44.03127" lon="6.00897">
        <ele>721</ele>
        <time>2021-12-21T12:02:42.000Z</time>
      </trkpt>
      <trkpt lat="44.03127" lon="6.00897">
        <ele>721</ele>
        <time>2021-12-21T12:02:43.000Z</time>
      </trkpt>
      <trkpt lat="44.03127" lon="6.00897">
        <ele>721</ele>
        <time>2021-12-21T12:02:44.000Z</time>
      </trkpt>
      <trkpt lat="44.03127" lon="6.00897">
        <ele>721</ele>
        <time>2021-12-21T12:02:45.000Z</time>
      </trkpt>
      <trkpt lat="44.03127" lon="6.00897">
        <ele>721</ele>
        <time>2021-12-21T12:02:46.000Z</time>
      </trkpt>
      <trkpt lat="44.03127" lon="6.00897">
        <ele>721</ele>
        <time>2021-12-21T12:02:47.000Z</time>
      </trkpt>
      <trkpt lat="44.03126" lon="6.00897">
        <ele>721</ele>
        <time>2021-12-21T12:02:48.000Z</time>
      </trkpt>
      <trkpt lat="44.03126" lon="6.00897">
        <ele>721</ele>
        <time>2021-12-21T12:02:49.000Z</time>
      </trkpt>
      <trkpt lat="44.03126" lon="6.00897">
        <ele>721</ele>
        <time>2021-12-21T12:02:50.000Z</time>
      </trkpt>
      <trkpt lat="44.03126" lon="6.00897">
        <ele>721</ele>
        <time>2021-12-21T12:02:51.000Z</time>
      </trkpt>
      <trkpt lat="44.03126" lon="6.00898">
        <ele>721</ele>
        <time>2021-12-21T12:02:52.000Z</time>
      </trkpt>
      <trkpt lat="44.03126" lon="6.00899">
        <ele>721</ele>
        <time>2021-12-21T12:02:53.000Z</time>
      </trkpt>
      <trkpt lat="44.03126" lon="6.00899">
        <ele>721</ele>
        <time>2021-12-21T12:02:54.000Z</time>
      </trkpt>
      <trkpt lat="44.03126" lon="6.00899">
        <ele>722</ele>
        <time>2021-12-21T12:02:55.000Z</time>
      </trkpt>
      <trkpt lat="44.03126" lon="6.00899">
        <ele>722</ele>
        <time>2021-12-21T12:02:56.000Z</time>
      </trkpt>
      <trkpt lat="44.03126" lon="6.00899">
        <ele>722</ele>
        <time>2021-12-21T12:02:57.000Z</time>
      </trkpt>
      <trkpt lat="44.03127" lon="6.00899">
        <ele>722</ele>
        <time>2021-12-21T12:02:58.000Z</time>
      </trkpt>
      <trkpt lat="44.03127" lon="6.00899">
        <ele>722</ele>
        <time>2021-12-21T12:02:59.000Z</time>
      </trkpt>
      <trkpt lat="44.03127" lon="6.00899">
        <ele>722</ele>
        <time>2021-12-21T12:03:00.000Z</time>
      </trkpt>
      <trkpt lat="44.03126" lon="6.00899">
        <ele>722</ele>
        <time>2021-12-21T12:03:01.000Z</time>
      </trkpt>
      <trkpt lat="44.03126" lon="6.00899">
        <ele>722</ele>
        <time>2021-12-21T12:03:02.000Z</time>
      </trkpt>
      <trkpt lat="44.03126" lon="6.00899">
        <ele>722</ele>
        <time>2021-12-21T12:03:03.000Z</time>
      </trkpt>
      <trkpt lat="44.03126" lon="6.00899">
        <ele>722</ele>
        <time>2021-12-21T12:03:04.000Z</time>
      </trkpt>
      <trkpt lat="44.03126" lon="6.00899">
        <ele>722</ele>
        <time>2021-12-21T12:03:05.000Z</time>
      </trkpt>
      <trkpt lat="44.03126" lon="6.00899">
        <ele>722</ele>
        <time>2021-12-21T12:03:06.000Z</time>
      </trkpt>
      <trkpt lat="44.03127" lon="6.00899">
        <ele>722</ele>
        <time>2021-12-21T12:03:07.000Z</time>
      </trkpt>
      <trkpt lat="44.03127" lon="6.00899">
        <ele>722</ele>
        <time>2021-12-21T12:03:08.000Z</time>
      </trkpt>
      <trkpt lat="44.03127" lon="6.00899">
        <ele>722</ele>
        <time>2021-12-21T12:03:09.000Z</time>
      </trkpt>
      <trkpt lat="44.03127" lon="6.00899">
        <ele>722</ele>
        <time>2021-12-21T12:03:10.000Z</time>
      </trkpt>
      <trkpt lat="44.03127" lon="6.00899">
        <ele>722</ele>
        <time>2021-12-21T12:03:11.000Z</time>
      </trkpt>
      <trkpt lat="44.03127" lon="6.00899">
        <ele>722</ele>
        <time>2021-12-21T12:03:12.000Z</time>
      </trkpt>
      <trkpt lat="44.03127" lon="6.00899">
        <ele>722</ele>
        <time>2021-12-21T12:03:13.000Z</time>
      </trkpt>
      <trkpt lat="44.03127" lon="6.00899">
        <ele>722</ele>
        <time>2021-12-21T12:03:14.000Z</time>
      </trkpt>
      <trkpt lat="44.03127" lon="6.00899">
        <ele>722</ele>
        <time>2021-12-21T12:03:15.000Z</time>
      </trkpt>
      <trkpt lat="44.03127" lon="6.00899">
        <ele>722</ele>
        <time>2021-12-21T12:03:16.000Z</time>
      </trkpt>
      <trkpt lat="44.03127" lon="6.00899">
        <ele>722</ele>
        <time>2021-12-21T12:03:17.000Z</time>
      </trkpt>
      <trkpt lat="44.03127" lon="6.00899">
        <ele>722</ele>
        <time>2021-12-21T12:03:18.000Z</time>
      </trkpt>
      <trkpt lat="44.03127" lon="6.00899">
        <ele>722</ele>
        <time>2021-12-21T12:03:19.000Z</time>
      </trkpt>
      <trkpt lat="44.03127" lon="6.00899">
        <ele>722</ele>
        <time>2021-12-21T12:03:20.000Z</time>
      </trkpt>
      <trkpt lat="44.03127" lon="6.00899">
        <ele>722</ele>
        <time>2021-12-21T12:03:21.000Z</time>
      </trkpt>
      <trkpt lat="44.03127" lon="6.00898">
        <ele>722</ele>
        <time>2021-12-21T12:03:22.000Z</time>
      </trkpt>
      <trkpt lat="44.03127" lon="6.00898">
        <ele>722</ele>
        <time>2021-12-21T12:03:23.000Z</time>
      </trkpt>
      <trkpt lat="44.03127" lon="6.00898">
        <ele>722</ele>
        <time>2021-12-21T12:03:24.000Z</time>
      </trkpt>
      <trkpt lat="44.03127" lon="6.00898">
        <ele>722</ele>
        <time>2021-12-21T12:03:25.000Z</time>
      </trkpt>
      <trkpt lat="44.03127" lon="6.00898">
        <ele>722</ele>
        <time>2021-12-21T12:03:26.000Z</time>
      </trkpt>
      <trkpt lat="44.03127" lon="6.00898">
        <ele>722</ele>
        <time>2021-12-21T12:03:27.000Z</time>
      </trkpt>
      <trkpt lat="44.03127" lon="6.00898">
        <ele>722</ele>
        <time>2021-12-21T12:03:28.000Z</time>
      </trkpt>
      <trkpt lat="44.03127" lon="6.00898">
        <ele>722</ele>
        <time>2021-12-21T12:03:29.000Z</time>
      </trkpt>
      <trkpt lat="44.03127" lon="6.00898">
        <ele>722</ele>
        <time>2021-12-21T12:03:30.000Z</time>
      </trkpt>
      <trkpt lat="44.03127" lon="6.00898">
        <ele>722</ele>
        <time>2021-12-21T12:03:31.000Z</time>
      </trkpt>
      <trkpt lat="44.03127" lon="6.00898">
        <ele>722</ele>
        <time>2021-12-21T12:03:32.000Z</time>
      </trkpt>
      <trkpt lat="44.03127" lon="6.00898">
        <ele>722</ele>
        <time>2021-12-21T12:03:33.000Z</time>
      </trkpt>
      <trkpt lat="44.03127" lon="6.00898">
        <ele>722</ele>
        <time>2021-12-21T12:03:34.000Z</time>
      </trkpt>
      <trkpt lat="44.03127" lon="6.00898">
        <ele>722</ele>
        <time>2021-12-21T12:03:35.000Z</time>
      </trkpt>
      <trkpt lat="44.03127" lon="6.00898">
        <ele>722</ele>
        <time>2021-12-21T12:03:36.000Z</time>
      </trkpt>
      <trkpt lat="44.03127" lon="6.00898">
        <ele>722</ele>
        <time>2021-12-21T12:03:37.000Z</time>
      </trkpt>
      <trkpt lat="44.03127" lon="6.00898">
        <ele>722</ele>
        <time>2021-12-21T12:03:38.000Z</time>
      </trkpt>
      <trkpt lat="44.03127" lon="6.00898">
        <ele>722</ele>
        <time>2021-12-21T12:03:39.000Z</time>
      </trkpt>
      <trkpt lat="44.03127" lon="6.00898">
        <ele>722</ele>
        <time>2021-12-21T12:03:40.000Z</time>
      </trkpt>
      <trkpt lat="44.03127" lon="6.00898">
        <ele>722</ele>
        <time>2021-12-21T12:03:41.000Z</time>
      </trkpt>
      <trkpt lat="44.03127" lon="6.00898">
        <ele>722</ele>
        <time>2021-12-21T12:03:42.000Z</time>
      </trkpt>
      <trkpt lat="44.03127" lon="6.00898">
        <ele>722</ele>
        <time>2021-12-21T12:03:43.000Z</time>
      </trkpt>
      <trkpt lat="44.03127" lon="6.00898">
        <ele>722</ele>
        <time>2021-12-21T12:03:44.000Z</time>
      </trkpt>
      <trkpt lat="44.03127" lon="6.00897">
        <ele>722</ele>
        <time>2021-12-21T12:03:45.000Z</time>
      </trkpt>
      <trkpt lat="44.03127" lon="6.00897">
        <ele>722</ele>
        <time>2021-12-21T12:03:46.000Z</time>
      </trkpt>
      <trkpt lat="44.03127" lon="6.00897">
        <ele>722</ele>
        <time>2021-12-21T12:03:47.000Z</time>
      </trkpt>
      <trkpt lat="44.03127" lon="6.00897">
        <ele>722</ele>
        <time>2021-12-21T12:03:48.000Z</time>
      </trkpt>
      <trkpt lat="44.03127" lon="6.00897">
        <ele>722</ele>
        <time>2021-12-21T12:03:49.000Z</time>
      </trkpt>
      <trkpt lat="44.03127" lon="6.00897">
        <ele>722</ele>
        <time>2021-12-21T12:03:50.000Z</time>
      </trkpt>
      <trkpt lat="44.03127" lon="6.00897">
        <ele>722</ele>
        <time>2021-12-21T12:03:51.000Z</time>
      </trkpt>
      <trkpt lat="44.03127" lon="6.00897">
        <ele>722</ele>
        <time>2021-12-21T12:03:52.000Z</time>
      </trkpt>
      <trkpt lat="44.03127" lon="6.00897">
        <ele>722</ele>
        <time>2021-12-21T12:03:53.000Z</time>
      </trkpt>
      <trkpt lat="44.03127" lon="6.00897">
        <ele>722</ele>
        <time>2021-12-21T12:03:54.000Z</time>
      </trkpt>
      <trkpt lat="44.03127" lon="6.00897">
        <ele>722</ele>
        <time>2021-12-21T12:03:55.000Z</time>
      </trkpt>
      <trkpt lat="44.03127" lon="6.00897">
        <ele>722</ele>
        <time>2021-12-21T12:03:56.000Z</time>
      </trkpt>
      <trkpt lat="44.03127" lon="6.00897">
        <ele>722</ele>
        <time>2021-12-21T12:03:57.000Z</time>
      </trkpt>
      <trkpt lat="44.03127" lon="6.00897">
        <ele>722</ele>
        <time>2021-12-21T12:03:58.000Z</time>
      </trkpt>
      <trkpt lat="44.03128" lon="6.00897">
        <ele>722</ele>
        <time>2021-12-21T12:03:59.000Z</time>
      </trkpt>
      <trkpt lat="44.03128" lon="6.00897">
        <ele>722</ele>
        <time>2021-12-21T12:04:00.000Z</time>
      </trkpt>
      <trkpt lat="44.03128" lon="6.00897">
        <ele>722</ele>
        <time>2021-12-21T12:04:01.000Z</time>
      </trkpt>
      <trkpt lat="44.03128" lon="6.00897">
        <ele>722</ele>
        <time>2021-12-21T12:04:02.000Z</time>
      </trkpt>
      <trkpt lat="44.03128" lon="6.00897">
        <ele>722</ele>
        <time>2021-12-21T12:04:03.000Z</time>
      </trkpt>
      <trkpt lat="44.03128" lon="6.00897">
        <ele>722</ele>
        <time>2021-12-21T12:04:04.000Z</time>
      </trkpt>
      <trkpt lat="44.03128" lon="6.00897">
        <ele>722</ele>
        <time>2021-12-21T12:04:05.000Z</time>
      </trkpt>
      <trkpt lat="44.03128" lon="6.00897">
        <ele>722</ele>
        <time>2021-12-21T12:04:06.000Z</time>
      </trkpt>
      <trkpt lat="44.03128" lon="6.00897">
        <ele>722</ele>
        <time>2021-12-21T12:04:07.000Z</time>
      </trkpt>
      <trkpt lat="44.03128" lon="6.00897">
        <ele>722</ele>
        <time>2021-12-21T12:04:08.000Z</time>
      </trkpt>
      <trkpt lat="44.03128" lon="6.00897">
        <ele>722</ele>
        <time>2021-12-21T12:04:09.000Z</time>
      </trkpt>
      <trkpt lat="44.03128" lon="6.00897">
        <ele>722</ele>
        <time>2021-12-21T12:04:10.000Z</time>
      </trkpt>
      <trkpt lat="44.03128" lon="6.00897">
        <ele>722</ele>
        <time>2021-12-21T12:04:11.000Z</time>
      </trkpt>
      <trkpt lat="44.03128" lon="6.00897">
        <ele>722</ele>
        <time>2021-12-21T12:04:12.000Z</time>
      </trkpt>
      <trkpt lat="44.03128" lon="6.00897">
        <ele>722</ele>
        <time>2021-12-21T12:04:13.000Z</time>
      </trkpt>
      <trkpt lat="44.03129" lon="6.00897">
        <ele>722</ele>
        <time>2021-12-21T12:04:14.000Z</time>
      </trkpt>
      <trkpt lat="44.03129" lon="6.00897">
        <ele>722</ele>
        <time>2021-12-21T12:04:15.000Z</time>
      </trkpt>
      <trkpt lat="44.03129" lon="6.00897">
        <ele>722</ele>
        <time>2021-12-21T12:04:16.000Z</time>
      </trkpt>
      <trkpt lat="44.03129" lon="6.00897">
        <ele>722</ele>
        <time>2021-12-21T12:04:17.000Z</time>
      </trkpt>
      <trkpt lat="44.03129" lon="6.00897">
        <ele>722</ele>
        <time>2021-12-21T12:04:18.000Z</time>
      </trkpt>
      <trkpt lat="44.03129" lon="6.00897">
        <ele>722</ele>
        <time>2021-12-21T12:04:19.000Z</time>
      </trkpt>
      <trkpt lat="44.03129" lon="6.00897">
        <ele>722</ele>
        <time>2021-12-21T12:04:20.000Z</time>
      </trkpt>
      <trkpt lat="44.03129" lon="6.00897">
        <ele>722</ele>
        <time>2021-12-21T12:04:21.000Z</time>
      </trkpt>
      <trkpt lat="44.03129" lon="6.00897">
        <ele>722</ele>
        <time>2021-12-21T12:04:22.000Z</time>
      </trkpt>
      <trkpt lat="44.03129" lon="6.00897">
        <ele>722</ele>
        <time>2021-12-21T12:04:23.000Z</time>
      </trkpt>
      <trkpt lat="44.03129" lon="6.00897">
        <ele>722</ele>
        <time>2021-12-21T12:04:24.000Z</time>
      </trkpt>
      <trkpt lat="44.03129" lon="6.00897">
        <ele>722</ele>
        <time>2021-12-21T12:04:25.000Z</time>
      </trkpt>
      <trkpt lat="44.03129" lon="6.00897">
        <ele>722</ele>
        <time>2021-12-21T12:04:26.000Z</time>
      </trkpt>
      <trkpt lat="44.03129" lon="6.00897">
        <ele>722</ele>
        <time>2021-12-21T12:04:27.000Z</time>
      </trkpt>
      <trkpt lat="44.03129" lon="6.00897">
        <ele>722</ele>
        <time>2021-12-21T12:04:28.000Z</time>
      </trkpt>
      <trkpt lat="44.03129" lon="6.00897">
        <ele>722</ele>
        <time>2021-12-21T12:04:29.000Z</time>
      </trkpt>
      <trkpt lat="44.03129" lon="6.00897">
        <ele>722</ele>
        <time>2021-12-21T12:04:30.000Z</time>
      </trkpt>
      <trkpt lat="44.03129" lon="6.00897">
        <ele>722</ele>
        <time>2021-12-21T12:04:31.000Z</time>
      </trkpt>
      <trkpt lat="44.03129" lon="6.00897">
        <ele>722</ele>
        <time>2021-12-21T12:04:32.000Z</time>
      </trkpt>
      <trkpt lat="44.03129" lon="6.00897">
        <ele>722</ele>
        <time>2021-12-21T12:04:33.000Z</time>
      </trkpt>
      <trkpt lat="44.03129" lon="6.00897">
        <ele>722</ele>
        <time>2021-12-21T12:04:34.000Z</time>
      </trkpt>
      <trkpt lat="44.03129" lon="6.00897">
        <ele>722</ele>
        <time>2021-12-21T12:04:35.000Z</time>
      </trkpt>
      <trkpt lat="44.03129" lon="6.00897">
        <ele>722</ele>
        <time>2021-12-21T12:04:36.000Z</time>
      </trkpt>
      <trkpt lat="44.03129" lon="6.00897">
        <ele>722</ele>
        <time>2021-12-21T12:04:37.000Z</time>
      </trkpt>
      <trkpt lat="44.03129" lon="6.00897">
        <ele>722</ele>
        <time>2021-12-21T12:04:38.000Z</time>
      </trkpt>
      <trkpt lat="44.03129" lon="6.00897">
        <ele>722</ele>
        <time>2021-12-21T12:04:39.000Z</time>
      </trkpt>
      <trkpt lat="44.03129" lon="6.00897">
        <ele>722</ele>
        <time>2021-12-21T12:04:40.000Z</time>
      </trkpt>
      <trkpt lat="44.03129" lon="6.00897">
        <ele>722</ele>
        <time>2021-12-21T12:04:41.000Z</time>
      </trkpt>
      <trkpt lat="44.03129" lon="6.00897">
        <ele>722</ele>
        <time>2021-12-21T12:04:42.000Z</time>
      </trkpt>
      <trkpt lat="44.03129" lon="6.00897">
        <ele>722</ele>
        <time>2021-12-21T12:04:43.000Z</time>
      </trkpt>
      <trkpt lat="44.03129" lon="6.00897">
        <ele>722</ele>
        <time>2021-12-21T12:04:44.000Z</time>
      </trkpt>
      <trkpt lat="44.03129" lon="6.00897">
        <ele>722</ele>
        <time>2021-12-21T12:04:45.000Z</time>
      </trkpt>
      <trkpt lat="44.03129" lon="6.00897">
        <ele>722</ele>
        <time>2021-12-21T12:04:46.000Z</time>
      </trkpt>
      <trkpt lat="44.03129" lon="6.00897">
        <ele>722</ele>
        <time>2021-12-21T12:04:47.000Z</time>
      </trkpt>
      <trkpt lat="44.03129" lon="6.00897">
        <ele>722</ele>
        <time>2021-12-21T12:04:48.000Z</time>
      </trkpt>
      <trkpt lat="44.03128" lon="6.00897">
        <ele>722</ele>
        <time>2021-12-21T12:04:49.000Z</time>
      </trkpt>
      <trkpt lat="44.03129" lon="6.00897">
        <ele>722</ele>
        <time>2021-12-21T12:04:50.000Z</time>
      </trkpt>
      <trkpt lat="44.03129" lon="6.00896">
        <ele>722</ele>
        <time>2021-12-21T12:04:51.000Z</time>
      </trkpt>
      <trkpt lat="44.03129" lon="6.00896">
        <ele>722</ele>
        <time>2021-12-21T12:04:52.000Z</time>
      </trkpt>
      <trkpt lat="44.03129" lon="6.00896">
        <ele>722</ele>
        <time>2021-12-21T12:04:53.000Z</time>
      </trkpt>
      <trkpt lat="44.03128" lon="6.00896">
        <ele>722</ele>
        <time>2021-12-21T12:04:54.000Z</time>
      </trkpt>
      <trkpt lat="44.03128" lon="6.00896">
        <ele>722</ele>
        <time>2021-12-21T12:04:55.000Z</time>
      </trkpt>
      <trkpt lat="44.03128" lon="6.00896">
        <ele>722</ele>
        <time>2021-12-21T12:04:56.000Z</time>
      </trkpt>
      <trkpt lat="44.03128" lon="6.00896">
        <ele>722</ele>
        <time>2021-12-21T12:04:57.000Z</time>
      </trkpt>
      <trkpt lat="44.03128" lon="6.00896">
        <ele>722</ele>
        <time>2021-12-21T12:04:58.000Z</time>
      </trkpt>
      <trkpt lat="44.03128" lon="6.00896">
        <ele>722</ele>
        <time>2021-12-21T12:04:59.000Z</time>
      </trkpt>
      <trkpt lat="44.03128" lon="6.00896">
        <ele>722</ele>
        <time>2021-12-21T12:05:00.000Z</time>
      </trkpt>
      <trkpt lat="44.03128" lon="6.00896">
        <ele>722</ele>
        <time>2021-12-21T12:05:01.000Z</time>
      </trkpt>
      <trkpt lat="44.03128" lon="6.00896">
        <ele>722</ele>
        <time>2021-12-21T12:05:02.000Z</time>
      </trkpt>
      <trkpt lat="44.03128" lon="6.00896">
        <ele>722</ele>
        <time>2021-12-21T12:05:03.000Z</time>
      </trkpt>
      <trkpt lat="44.03128" lon="6.00896">
        <ele>722</ele>
        <time>2021-12-21T12:05:04.000Z</time>
      </trkpt>
      <trkpt lat="44.03128" lon="6.00896">
        <ele>722</ele>
        <time>2021-12-21T12:05:05.000Z</time>
      </trkpt>
      <trkpt lat="44.03128" lon="6.00896">
        <ele>722</ele>
        <time>2021-12-21T12:05:06.000Z</time>
      </trkpt>
      <trkpt lat="44.03128" lon="6.00896">
        <ele>722</ele>
        <time>2021-12-21T12:05:07.000Z</time>
      </trkpt>
      <trkpt lat="44.03128" lon="6.00896">
        <ele>722</ele>
        <time>2021-12-21T12:05:08.000Z</time>
      </trkpt>
      <trkpt lat="44.03128" lon="6.00896">
        <ele>722</ele>
        <time>2021-12-21T12:05:09.000Z</time>
      </trkpt>
      <trkpt lat="44.03128" lon="6.00895">
        <ele>722</ele>
        <time>2021-12-21T12:05:10.000Z</time>
      </trkpt>
      <trkpt lat="44.03128" lon="6.00895">
        <ele>722</ele>
        <time>2021-12-21T12:05:11.000Z</time>
      </trkpt>
      <trkpt lat="44.03128" lon="6.00895">
        <ele>722</ele>
        <time>2021-12-21T12:05:12.000Z</time>
      </trkpt>
      <trkpt lat="44.03128" lon="6.00895">
        <ele>722</ele>
        <time>2021-12-21T12:05:13.000Z</time>
      </trkpt>
      <trkpt lat="44.03128" lon="6.00895">
        <ele>722</ele>
        <time>2021-12-21T12:05:14.000Z</time>
      </trkpt>
      <trkpt lat="44.03128" lon="6.00894">
        <ele>722</ele>
        <time>2021-12-21T12:05:15.000Z</time>
      </trkpt>
      <trkpt lat="44.03128" lon="6.00894">
        <ele>722</ele>
        <time>2021-12-21T12:05:16.000Z</time>
      </trkpt>
      <trkpt lat="44.03128" lon="6.00894">
        <ele>722</ele>
        <time>2021-12-21T12:05:17.000Z</time>
      </trkpt>
      <trkpt lat="44.03128" lon="6.00894">
        <ele>722</ele>
        <time>2021-12-21T12:05:18.000Z</time>
      </trkpt>
      <trkpt lat="44.03128" lon="6.00894">
        <ele>722</ele>
        <time>2021-12-21T12:05:19.000Z</time>
      </trkpt>
      <trkpt lat="44.03128" lon="6.00894">
        <ele>722</ele>
        <time>2021-12-21T12:05:20.000Z</time>
      </trkpt>
      <trkpt lat="44.03128" lon="6.00894">
        <ele>722</ele>
        <time>2021-12-21T12:05:21.000Z</time>
      </trkpt>
      <trkpt lat="44.03128" lon="6.00893">
        <ele>723</ele>
        <time>2021-12-21T12:05:22.000Z</time>
      </trkpt>
      <trkpt lat="44.03128" lon="6.00893">
        <ele>723</ele>
        <time>2021-12-21T12:05:23.000Z</time>
      </trkpt>
      <trkpt lat="44.03128" lon="6.00893">
        <ele>723</ele>
        <time>2021-12-21T12:05:24.000Z</time>
      </trkpt>
      <trkpt lat="44.03128" lon="6.00893">
        <ele>723</ele>
        <time>2021-12-21T12:05:25.000Z</time>
      </trkpt>
      <trkpt lat="44.03128" lon="6.00893">
        <ele>723</ele>
        <time>2021-12-21T12:05:26.000Z</time>
      </trkpt>
      <trkpt lat="44.03128" lon="6.00893">
        <ele>723</ele>
        <time>2021-12-21T12:05:27.000Z</time>
      </trkpt>
      <trkpt lat="44.03128" lon="6.00893">
        <ele>723</ele>
        <time>2021-12-21T12:05:28.000Z</time>
      </trkpt>
      <trkpt lat="44.03128" lon="6.00894">
        <ele>723</ele>
        <time>2021-12-21T12:05:29.000Z</time>
      </trkpt>
      <trkpt lat="44.03128" lon="6.00894">
        <ele>723</ele>
        <time>2021-12-21T12:05:30.000Z</time>
      </trkpt>
      <trkpt lat="44.03128" lon="6.00893">
        <ele>723</ele>
        <time>2021-12-21T12:05:31.000Z</time>
      </trkpt>
      <trkpt lat="44.03128" lon="6.00893">
        <ele>723</ele>
        <time>2021-12-21T12:05:32.000Z</time>
      </trkpt>
      <trkpt lat="44.03128" lon="6.00893">
        <ele>722</ele>
        <time>2021-12-21T12:05:33.000Z</time>
      </trkpt>
      <trkpt lat="44.03128" lon="6.00893">
        <ele>722</ele>
        <time>2021-12-21T12:05:34.000Z</time>
      </trkpt>
      <trkpt lat="44.03128" lon="6.00893">
        <ele>722</ele>
        <time>2021-12-21T12:05:35.000Z</time>
      </trkpt>
      <trkpt lat="44.03128" lon="6.00893">
        <ele>722</ele>
        <time>2021-12-21T12:05:36.000Z</time>
      </trkpt>
      <trkpt lat="44.03128" lon="6.00893">
        <ele>722</ele>
        <time>2021-12-21T12:05:37.000Z</time>
      </trkpt>
      <trkpt lat="44.03128" lon="6.00894">
        <ele>722</ele>
        <time>2021-12-21T12:05:38.000Z</time>
      </trkpt>
      <trkpt lat="44.03128" lon="6.00894">
        <ele>722</ele>
        <time>2021-12-21T12:05:39.000Z</time>
      </trkpt>
      <trkpt lat="44.03128" lon="6.00894">
        <ele>722</ele>
        <time>2021-12-21T12:05:40.000Z</time>
      </trkpt>
      <trkpt lat="44.03128" lon="6.00894">
        <ele>722</ele>
        <time>2021-12-21T12:05:41.000Z</time>
      </trkpt>
      <trkpt lat="44.03128" lon="6.00894">
        <ele>722</ele>
        <time>2021-12-21T12:05:42.000Z</time>
      </trkpt>
      <trkpt lat="44.03128" lon="6.00894">
        <ele>722</ele>
        <time>2021-12-21T12:05:43.000Z</time>
      </trkpt>
      <trkpt lat="44.03128" lon="6.00894">
        <ele>722</ele>
        <time>2021-12-21T12:05:44.000Z</time>
      </trkpt>
      <trkpt lat="44.03128" lon="6.00894">
        <ele>722</ele>
        <time>2021-12-21T12:05:45.000Z</time>
      </trkpt>
      <trkpt lat="44.03128" lon="6.00894">
        <ele>722</ele>
        <time>2021-12-21T12:05:46.000Z</time>
      </trkpt>
      <trkpt lat="44.03128" lon="6.00894">
        <ele>722</ele>
        <time>2021-12-21T12:05:47.000Z</time>
      </trkpt>
      <trkpt lat="44.03128" lon="6.00894">
        <ele>722</ele>
        <time>2021-12-21T12:05:48.000Z</time>
      </trkpt>
      <trkpt lat="44.03128" lon="6.00894">
        <ele>722</ele>
        <time>2021-12-21T12:05:49.000Z</time>
      </trkpt>
      <trkpt lat="44.03128" lon="6.00894">
        <ele>722</ele>
        <time>2021-12-21T12:05:50.000Z</time>
      </trkpt>
      <trkpt lat="44.03128" lon="6.00894">
        <ele>722</ele>
        <time>2021-12-21T12:05:51.000Z</time>
      </trkpt>
      <trkpt lat="44.03128" lon="6.00894">
        <ele>722</ele>
        <time>2021-12-21T12:05:52.000Z</time>
      </trkpt>
      <trkpt lat="44.03128" lon="6.00894">
        <ele>722</ele>
        <time>2021-12-21T12:05:53.000Z</time>
      </trkpt>
      <trkpt lat="44.03128" lon="6.00894">
        <ele>722</ele>
        <time>2021-12-21T12:05:54.000Z</time>
      </trkpt>
      <trkpt lat="44.03128" lon="6.00894">
        <ele>722</ele>
        <time>2021-12-21T12:05:55.000Z</time>
      </trkpt>
      <trkpt lat="44.03128" lon="6.00892">
        <ele>722</ele>
        <time>2021-12-21T12:05:56.000Z</time>
      </trkpt>
      <trkpt lat="44.03129" lon="6.00891">
        <ele>722</ele>
        <time>2021-12-21T12:05:57.000Z</time>
      </trkpt>
      <trkpt lat="44.03129" lon="6.0089">
        <ele>722</ele>
        <time>2021-12-21T12:05:58.000Z</time>
      </trkpt>
      <trkpt lat="44.03129" lon="6.00889">
        <ele>722</ele>
        <time>2021-12-21T12:05:59.000Z</time>
      </trkpt>
      <trkpt lat="44.03129" lon="6.00887">
        <ele>722</ele>
        <time>2021-12-21T12:06:00.000Z</time>
      </trkpt>
      <trkpt lat="44.03128" lon="6.00886">
        <ele>722</ele>
        <time>2021-12-21T12:06:01.000Z</time>
      </trkpt>
      <trkpt lat="44.03128" lon="6.00885">
        <ele>722</ele>
        <time>2021-12-21T12:06:02.000Z</time>
      </trkpt>
      <trkpt lat="44.03128" lon="6.00885">
        <ele>722</ele>
        <time>2021-12-21T12:06:03.000Z</time>
      </trkpt>
      <trkpt lat="44.03128" lon="6.00883">
        <ele>722</ele>
        <time>2021-12-21T12:06:04.000Z</time>
      </trkpt>
      <trkpt lat="44.03127" lon="6.00882">
        <ele>723</ele>
        <time>2021-12-21T12:06:05.000Z</time>
      </trkpt>
      <trkpt lat="44.03127" lon="6.0088">
        <ele>723</ele>
        <time>2021-12-21T12:06:06.000Z</time>
      </trkpt>
      <trkpt lat="44.03127" lon="6.00879">
        <ele>723</ele>
        <time>2021-12-21T12:06:07.000Z</time>
      </trkpt>
      <trkpt lat="44.03126" lon="6.00877">
        <ele>723</ele>
        <time>2021-12-21T12:06:08.000Z</time>
      </trkpt>
      <trkpt lat="44.03126" lon="6.00876">
        <ele>723</ele>
        <time>2021-12-21T12:06:09.000Z</time>
      </trkpt>
      <trkpt lat="44.03126" lon="6.00874">
        <ele>723</ele>
        <time>2021-12-21T12:06:10.000Z</time>
      </trkpt>
      <trkpt lat="44.03125" lon="6.00873">
        <ele>723</ele>
        <time>2021-12-21T12:06:11.000Z</time>
      </trkpt>
      <trkpt lat="44.03124" lon="6.00872">
        <ele>724</ele>
        <time>2021-12-21T12:06:12.000Z</time>
      </trkpt>
      <trkpt lat="44.03124" lon="6.0087">
        <ele>724</ele>
        <time>2021-12-21T12:06:13.000Z</time>
      </trkpt>
      <trkpt lat="44.03123" lon="6.00869">
        <ele>724</ele>
        <time>2021-12-21T12:06:14.000Z</time>
      </trkpt>
      <trkpt lat="44.03123" lon="6.00867">
        <ele>724</ele>
        <time>2021-12-21T12:06:15.000Z</time>
      </trkpt>
      <trkpt lat="44.03122" lon="6.00866">
        <ele>724</ele>
        <time>2021-12-21T12:06:16.000Z</time>
      </trkpt>
      <trkpt lat="44.03121" lon="6.00864">
        <ele>724</ele>
        <time>2021-12-21T12:06:17.000Z</time>
      </trkpt>
      <trkpt lat="44.03121" lon="6.00863">
        <ele>724</ele>
        <time>2021-12-21T12:06:18.000Z</time>
      </trkpt>
      <trkpt lat="44.0312" lon="6.00862">
        <ele>724</ele>
        <time>2021-12-21T12:06:19.000Z</time>
      </trkpt>
      <trkpt lat="44.03119" lon="6.00861">
        <ele>725</ele>
        <time>2021-12-21T12:06:20.000Z</time>
      </trkpt>
      <trkpt lat="44.03118" lon="6.00859">
        <ele>725</ele>
        <time>2021-12-21T12:06:21.000Z</time>
      </trkpt>
      <trkpt lat="44.03117" lon="6.00858">
        <ele>725</ele>
        <time>2021-12-21T12:06:22.000Z</time>
      </trkpt>
      <trkpt lat="44.03117" lon="6.00857">
        <ele>725</ele>
        <time>2021-12-21T12:06:23.000Z</time>
      </trkpt>
      <trkpt lat="44.03116" lon="6.00856">
        <ele>725</ele>
        <time>2021-12-21T12:06:24.000Z</time>
      </trkpt>
      <trkpt lat="44.03115" lon="6.00855">
        <ele>725</ele>
        <time>2021-12-21T12:06:25.000Z</time>
      </trkpt>
      <trkpt lat="44.03114" lon="6.00853">
        <ele>726</ele>
        <time>2021-12-21T12:06:26.000Z</time>
      </trkpt>
      <trkpt lat="44.03113" lon="6.00852">
        <ele>726</ele>
        <time>2021-12-21T12:06:27.000Z</time>
      </trkpt>
      <trkpt lat="44.03112" lon="6.00851">
        <ele>726</ele>
        <time>2021-12-21T12:06:28.000Z</time>
      </trkpt>
      <trkpt lat="44.03111" lon="6.0085">
        <ele>726</ele>
        <time>2021-12-21T12:06:29.000Z</time>
      </trkpt>
      <trkpt lat="44.0311" lon="6.00848">
        <ele>726</ele>
        <time>2021-12-21T12:06:30.000Z</time>
      </trkpt>
      <trkpt lat="44.0311" lon="6.00847">
        <ele>726</ele>
        <time>2021-12-21T12:06:31.000Z</time>
      </trkpt>
      <trkpt lat="44.03109" lon="6.00845">
        <ele>726</ele>
        <time>2021-12-21T12:06:32.000Z</time>
      </trkpt>
      <trkpt lat="44.03108" lon="6.00844">
        <ele>726</ele>
        <time>2021-12-21T12:06:33.000Z</time>
      </trkpt>
      <trkpt lat="44.03107" lon="6.00842">
        <ele>726</ele>
        <time>2021-12-21T12:06:34.000Z</time>
      </trkpt>
      <trkpt lat="44.03107" lon="6.00841">
        <ele>726</ele>
        <time>2021-12-21T12:06:35.000Z</time>
      </trkpt>
      <trkpt lat="44.03106" lon="6.0084">
        <ele>726</ele>
        <time>2021-12-21T12:06:36.000Z</time>
      </trkpt>
      <trkpt lat="44.03105" lon="6.00838">
        <ele>726</ele>
        <time>2021-12-21T12:06:37.000Z</time>
      </trkpt>
      <trkpt lat="44.03104" lon="6.00837">
        <ele>726</ele>
        <time>2021-12-21T12:06:38.000Z</time>
      </trkpt>
      <trkpt lat="44.03104" lon="6.00835">
        <ele>726</ele>
        <time>2021-12-21T12:06:39.000Z</time>
      </trkpt>
      <trkpt lat="44.03103" lon="6.00834">
        <ele>726</ele>
        <time>2021-12-21T12:06:40.000Z</time>
      </trkpt>
      <trkpt lat="44.03102" lon="6.00833">
        <ele>726</ele>
        <time>2021-12-21T12:06:41.000Z</time>
      </trkpt>
      <trkpt lat="44.03101" lon="6.00831">
        <ele>726</ele>
        <time>2021-12-21T12:06:42.000Z</time>
      </trkpt>
      <trkpt lat="44.03101" lon="6.0083">
        <ele>726</ele>
        <time>2021-12-21T12:06:43.000Z</time>
      </trkpt>
      <trkpt lat="44.031" lon="6.00829">
        <ele>726</ele>
        <time>2021-12-21T12:06:44.000Z</time>
      </trkpt>
      <trkpt lat="44.03099" lon="6.00828">
        <ele>726</ele>
        <time>2021-12-21T12:06:45.000Z</time>
      </trkpt>
      <trkpt lat="44.03098" lon="6.00827">
        <ele>726</ele>
        <time>2021-12-21T12:06:46.000Z</time>
      </trkpt>
      <trkpt lat="44.03097" lon="6.00825">
        <ele>726</ele>
        <time>2021-12-21T12:06:47.000Z</time>
      </trkpt>
      <trkpt lat="44.03097" lon="6.00824">
        <ele>726</ele>
        <time>2021-12-21T12:06:48.000Z</time>
      </trkpt>
      <trkpt lat="44.03096" lon="6.00822">
        <ele>726</ele>
        <time>2021-12-21T12:06:49.000Z</time>
      </trkpt>
      <trkpt lat="44.03096" lon="6.00821">
        <ele>726</ele>
        <time>2021-12-21T12:06:50.000Z</time>
      </trkpt>
      <trkpt lat="44.03095" lon="6.0082">
        <ele>726</ele>
        <time>2021-12-21T12:06:51.000Z</time>
      </trkpt>
      <trkpt lat="44.03095" lon="6.00818">
        <ele>726</ele>
        <time>2021-12-21T12:06:52.000Z</time>
      </trkpt>
      <trkpt lat="44.03095" lon="6.00816">
        <ele>726</ele>
        <time>2021-12-21T12:06:53.000Z</time>
      </trkpt>
      <trkpt lat="44.03095" lon="6.00814">
        <ele>726</ele>
        <time>2021-12-21T12:06:54.000Z</time>
      </trkpt>
      <trkpt lat="44.03095" lon="6.00813">
        <ele>726</ele>
        <time>2021-12-21T12:06:55.000Z</time>
      </trkpt>
      <trkpt lat="44.03095" lon="6.00811">
        <ele>725</ele>
        <time>2021-12-21T12:06:56.000Z</time>
      </trkpt>
      <trkpt lat="44.03095" lon="6.00809">
        <ele>725</ele>
        <time>2021-12-21T12:06:57.000Z</time>
      </trkpt>
      <trkpt lat="44.03095" lon="6.00807">
        <ele>725</ele>
        <time>2021-12-21T12:06:58.000Z</time>
      </trkpt>
      <trkpt lat="44.03095" lon="6.00805">
        <ele>725</ele>
        <time>2021-12-21T12:06:59.000Z</time>
      </trkpt>
      <trkpt lat="44.03096" lon="6.00804">
        <ele>725</ele>
        <time>2021-12-21T12:07:00.000Z</time>
      </trkpt>
      <trkpt lat="44.03096" lon="6.00802">
        <ele>725</ele>
        <time>2021-12-21T12:07:01.000Z</time>
      </trkpt>
      <trkpt lat="44.03097" lon="6.00801">
        <ele>725</ele>
        <time>2021-12-21T12:07:02.000Z</time>
      </trkpt>
      <trkpt lat="44.03097" lon="6.00799">
        <ele>725</ele>
        <time>2021-12-21T12:07:03.000Z</time>
      </trkpt>
      <trkpt lat="44.03098" lon="6.00797">
        <ele>724</ele>
        <time>2021-12-21T12:07:04.000Z</time>
      </trkpt>
      <trkpt lat="44.03099" lon="6.00796">
        <ele>724</ele>
        <time>2021-12-21T12:07:05.000Z</time>
      </trkpt>
      <trkpt lat="44.03099" lon="6.00794">
        <ele>724</ele>
        <time>2021-12-21T12:07:06.000Z</time>
      </trkpt>
      <trkpt lat="44.031" lon="6.00793">
        <ele>724</ele>
        <time>2021-12-21T12:07:07.000Z</time>
      </trkpt>
      <trkpt lat="44.03101" lon="6.00791">
        <ele>724</ele>
        <time>2021-12-21T12:07:08.000Z</time>
      </trkpt>
      <trkpt lat="44.03102" lon="6.0079">
        <ele>724</ele>
        <time>2021-12-21T12:07:09.000Z</time>
      </trkpt>
      <trkpt lat="44.03103" lon="6.00788">
        <ele>723</ele>
        <time>2021-12-21T12:07:10.000Z</time>
      </trkpt>
      <trkpt lat="44.03103" lon="6.00787">
        <ele>723</ele>
        <time>2021-12-21T12:07:11.000Z</time>
      </trkpt>
      <trkpt lat="44.03104" lon="6.00786">
        <ele>723</ele>
        <time>2021-12-21T12:07:12.000Z</time>
      </trkpt>
      <trkpt lat="44.03105" lon="6.00784">
        <ele>723</ele>
        <time>2021-12-21T12:07:13.000Z</time>
      </trkpt>
      <trkpt lat="44.03106" lon="6.00783">
        <ele>723</ele>
        <time>2021-12-21T12:07:14.000Z</time>
      </trkpt>
      <trkpt lat="44.03107" lon="6.00781">
        <ele>722</ele>
        <time>2021-12-21T12:07:15.000Z</time>
      </trkpt>
      <trkpt lat="44.03107" lon="6.0078">
        <ele>722</ele>
        <time>2021-12-21T12:07:16.000Z</time>
      </trkpt>
      <trkpt lat="44.03108" lon="6.00779">
        <ele>722</ele>
        <time>2021-12-21T12:07:17.000Z</time>
      </trkpt>
      <trkpt lat="44.03109" lon="6.00778">
        <ele>722</ele>
        <time>2021-12-21T12:07:18.000Z</time>
      </trkpt>
      <trkpt lat="44.03109" lon="6.00776">
        <ele>722</ele>
        <time>2021-12-21T12:07:19.000Z</time>
      </trkpt>
      <trkpt lat="44.0311" lon="6.00775">
        <ele>722</ele>
        <time>2021-12-21T12:07:20.000Z</time>
      </trkpt>
      <trkpt lat="44.03111" lon="6.00773">
        <ele>722</ele>
        <time>2021-12-21T12:07:21.000Z</time>
      </trkpt>
      <trkpt lat="44.03112" lon="6.00772">
        <ele>722</ele>
        <time>2021-12-21T12:07:22.000Z</time>
      </trkpt>
      <trkpt lat="44.03113" lon="6.00771">
        <ele>722</ele>
        <time>2021-12-21T12:07:23.000Z</time>
      </trkpt>
      <trkpt lat="44.03113" lon="6.0077">
        <ele>721</ele>
        <time>2021-12-21T12:07:24.000Z</time>
      </trkpt>
      <trkpt lat="44.03115" lon="6.00768">
        <ele>721</ele>
        <time>2021-12-21T12:07:25.000Z</time>
      </trkpt>
      <trkpt lat="44.03115" lon="6.00767">
        <ele>721</ele>
        <time>2021-12-21T12:07:26.000Z</time>
      </trkpt>
      <trkpt lat="44.03116" lon="6.00765">
        <ele>721</ele>
        <time>2021-12-21T12:07:27.000Z</time>
      </trkpt>
      <trkpt lat="44.03117" lon="6.00764">
        <ele>721</ele>
        <time>2021-12-21T12:07:28.000Z</time>
      </trkpt>
      <trkpt lat="44.03118" lon="6.00762">
        <ele>721</ele>
        <time>2021-12-21T12:07:29.000Z</time>
      </trkpt>
      <trkpt lat="44.03119" lon="6.00761">
        <ele>721</ele>
        <time>2021-12-21T12:07:30.000Z</time>
      </trkpt>
      <trkpt lat="44.0312" lon="6.0076">
        <ele>721</ele>
        <time>2021-12-21T12:07:31.000Z</time>
      </trkpt>
      <trkpt lat="44.0312" lon="6.00758">
        <ele>721</ele>
        <time>2021-12-21T12:07:32.000Z</time>
      </trkpt>
      <trkpt lat="44.03121" lon="6.00756">
        <ele>721</ele>
        <time>2021-12-21T12:07:33.000Z</time>
      </trkpt>
      <trkpt lat="44.03121" lon="6.00755">
        <ele>721</ele>
        <time>2021-12-21T12:07:34.000Z</time>
      </trkpt>
      <trkpt lat="44.03122" lon="6.00753">
        <ele>721</ele>
        <time>2021-12-21T12:07:35.000Z</time>
      </trkpt>
      <trkpt lat="44.03122" lon="6.00751">
        <ele>721</ele>
        <time>2021-12-21T12:07:36.000Z</time>
      </trkpt>
      <trkpt lat="44.03123" lon="6.00749">
        <ele>721</ele>
        <time>2021-12-21T12:07:37.000Z</time>
      </trkpt>
      <trkpt lat="44.03124" lon="6.00747">
        <ele>721</ele>
        <time>2021-12-21T12:07:38.000Z</time>
      </trkpt>
      <trkpt lat="44.03124" lon="6.00746">
        <ele>721</ele>
        <time>2021-12-21T12:07:39.000Z</time>
      </trkpt>
      <trkpt lat="44.03125" lon="6.00744">
        <ele>721</ele>
        <time>2021-12-21T12:07:40.000Z</time>
      </trkpt>
      <trkpt lat="44.03126" lon="6.00742">
        <ele>721</ele>
        <time>2021-12-21T12:07:41.000Z</time>
      </trkpt>
      <trkpt lat="44.03126" lon="6.0074">
        <ele>721</ele>
        <time>2021-12-21T12:07:42.000Z</time>
      </trkpt>
      <trkpt lat="44.03127" lon="6.00739">
        <ele>721</ele>
        <time>2021-12-21T12:07:43.000Z</time>
      </trkpt>
      <trkpt lat="44.03127" lon="6.00737">
        <ele>721</ele>
        <time>2021-12-21T12:07:44.000Z</time>
      </trkpt>
      <trkpt lat="44.03128" lon="6.00735">
        <ele>721</ele>
        <time>2021-12-21T12:07:45.000Z</time>
      </trkpt>
      <trkpt lat="44.03129" lon="6.00734">
        <ele>721</ele>
        <time>2021-12-21T12:07:46.000Z</time>
      </trkpt>
      <trkpt lat="44.03129" lon="6.00732">
        <ele>721</ele>
        <time>2021-12-21T12:07:47.000Z</time>
      </trkpt>
      <trkpt lat="44.0313" lon="6.0073">
        <ele>721</ele>
        <time>2021-12-21T12:07:48.000Z</time>
      </trkpt>
      <trkpt lat="44.0313" lon="6.00728">
        <ele>721</ele>
        <time>2021-12-21T12:07:49.000Z</time>
      </trkpt>
      <trkpt lat="44.03131" lon="6.00727">
        <ele>721</ele>
        <time>2021-12-21T12:07:50.000Z</time>
      </trkpt>
      <trkpt lat="44.03131" lon="6.00725">
        <ele>721</ele>
        <time>2021-12-21T12:07:51.000Z</time>
      </trkpt>
      <trkpt lat="44.03132" lon="6.00723">
        <ele>721</ele>
        <time>2021-12-21T12:07:52.000Z</time>
      </trkpt>
      <trkpt lat="44.03133" lon="6.00721">
        <ele>721</ele>
        <time>2021-12-21T12:07:53.000Z</time>
      </trkpt>
      <trkpt lat="44.03133" lon="6.0072">
        <ele>721</ele>
        <time>2021-12-21T12:07:54.000Z</time>
      </trkpt>
      <trkpt lat="44.03134" lon="6.00718">
        <ele>721</ele>
        <time>2021-12-21T12:07:55.000Z</time>
      </trkpt>
      <trkpt lat="44.03134" lon="6.00716">
        <ele>721</ele>
        <time>2021-12-21T12:07:56.000Z</time>
      </trkpt>
      <trkpt lat="44.03134" lon="6.00715">
        <ele>721</ele>
        <time>2021-12-21T12:07:57.000Z</time>
      </trkpt>
      <trkpt lat="44.03135" lon="6.00713">
        <ele>721</ele>
        <time>2021-12-21T12:07:58.000Z</time>
      </trkpt>
      <trkpt lat="44.03135" lon="6.00712">
        <ele>721</ele>
        <time>2021-12-21T12:07:59.000Z</time>
      </trkpt>
      <trkpt lat="44.03136" lon="6.0071">
        <ele>721</ele>
        <time>2021-12-21T12:08:00.000Z</time>
      </trkpt>
      <trkpt lat="44.03136" lon="6.00708">
        <ele>721</ele>
        <time>2021-12-21T12:08:01.000Z</time>
      </trkpt>
      <trkpt lat="44.03136" lon="6.00706">
        <ele>721</ele>
        <time>2021-12-21T12:08:02.000Z</time>
      </trkpt>
      <trkpt lat="44.03136" lon="6.00704">
        <ele>721</ele>
        <time>2021-12-21T12:08:03.000Z</time>
      </trkpt>
      <trkpt lat="44.03136" lon="6.00703">
        <ele>721</ele>
        <time>2021-12-21T12:08:04.000Z</time>
      </trkpt>
      <trkpt lat="44.03136" lon="6.00701">
        <ele>721</ele>
        <time>2021-12-21T12:08:05.000Z</time>
      </trkpt>
      <trkpt lat="44.03136" lon="6.00699">
        <ele>721</ele>
        <time>2021-12-21T12:08:06.000Z</time>
      </trkpt>
      <trkpt lat="44.03137" lon="6.00697">
        <ele>721</ele>
        <time>2021-12-21T12:08:07.000Z</time>
      </trkpt>
      <trkpt lat="44.03137" lon="6.00696">
        <ele>721</ele>
        <time>2021-12-21T12:08:08.000Z</time>
      </trkpt>
      <trkpt lat="44.03137" lon="6.00694">
        <ele>721</ele>
        <time>2021-12-21T12:08:09.000Z</time>
      </trkpt>
      <trkpt lat="44.03138" lon="6.00692">
        <ele>721</ele>
        <time>2021-12-21T12:08:10.000Z</time>
      </trkpt>
      <trkpt lat="44.03138" lon="6.0069">
        <ele>721</ele>
        <time>2021-12-21T12:08:11.000Z</time>
      </trkpt>
      <trkpt lat="44.03138" lon="6.00689">
        <ele>720</ele>
        <time>2021-12-21T12:08:12.000Z</time>
      </trkpt>
      <trkpt lat="44.03138" lon="6.00687">
        <ele>720</ele>
        <time>2021-12-21T12:08:13.000Z</time>
      </trkpt>
      <trkpt lat="44.03139" lon="6.00686">
        <ele>720</ele>
        <time>2021-12-21T12:08:14.000Z</time>
      </trkpt>
      <trkpt lat="44.03139" lon="6.00684">
        <ele>720</ele>
        <time>2021-12-21T12:08:15.000Z</time>
      </trkpt>
      <trkpt lat="44.03139" lon="6.00682">
        <ele>720</ele>
        <time>2021-12-21T12:08:16.000Z</time>
      </trkpt>
      <trkpt lat="44.03139" lon="6.00681">
        <ele>720</ele>
        <time>2021-12-21T12:08:17.000Z</time>
      </trkpt>
      <trkpt lat="44.0314" lon="6.00679">
        <ele>720</ele>
        <time>2021-12-21T12:08:18.000Z</time>
      </trkpt>
      <trkpt lat="44.0314" lon="6.00677">
        <ele>720</ele>
        <time>2021-12-21T12:08:19.000Z</time>
      </trkpt>
      <trkpt lat="44.0314" lon="6.00676">
        <ele>720</ele>
        <time>2021-12-21T12:08:20.000Z</time>
      </trkpt>
      <trkpt lat="44.0314" lon="6.00674">
        <ele>720</ele>
        <time>2021-12-21T12:08:21.000Z</time>
      </trkpt>
      <trkpt lat="44.0314" lon="6.00673">
        <ele>720</ele>
        <time>2021-12-21T12:08:22.000Z</time>
      </trkpt>
      <trkpt lat="44.0314" lon="6.00671">
        <ele>720</ele>
        <time>2021-12-21T12:08:23.000Z</time>
      </trkpt>
      <trkpt lat="44.0314" lon="6.00669">
        <ele>720</ele>
        <time>2021-12-21T12:08:24.000Z</time>
      </trkpt>
      <trkpt lat="44.0314" lon="6.00668">
        <ele>720</ele>
        <time>2021-12-21T12:08:25.000Z</time>
      </trkpt>
      <trkpt lat="44.03141" lon="6.00666">
        <ele>720</ele>
        <time>2021-12-21T12:08:26.000Z</time>
      </trkpt>
      <trkpt lat="44.03141" lon="6.00664">
        <ele>720</ele>
        <time>2021-12-21T12:08:27.000Z</time>
      </trkpt>
      <trkpt lat="44.03141" lon="6.00663">
        <ele>720</ele>
        <time>2021-12-21T12:08:28.000Z</time>
      </trkpt>
      <trkpt lat="44.03141" lon="6.00661">
        <ele>720</ele>
        <time>2021-12-21T12:08:29.000Z</time>
      </trkpt>
      <trkpt lat="44.03141" lon="6.00659">
        <ele>720</ele>
        <time>2021-12-21T12:08:30.000Z</time>
      </trkpt>
      <trkpt lat="44.0314" lon="6.00657">
        <ele>720</ele>
        <time>2021-12-21T12:08:31.000Z</time>
      </trkpt>
      <trkpt lat="44.0314" lon="6.00656">
        <ele>720</ele>
        <time>2021-12-21T12:08:32.000Z</time>
      </trkpt>
      <trkpt lat="44.03141" lon="6.00654">
        <ele>720</ele>
        <time>2021-12-21T12:08:33.000Z</time>
      </trkpt>
      <trkpt lat="44.03141" lon="6.00652">
        <ele>720</ele>
        <time>2021-12-21T12:08:34.000Z</time>
      </trkpt>
      <trkpt lat="44.03141" lon="6.0065">
        <ele>720</ele>
        <time>2021-12-21T12:08:35.000Z</time>
      </trkpt>
      <trkpt lat="44.03141" lon="6.00649">
        <ele>720</ele>
        <time>2021-12-21T12:08:36.000Z</time>
      </trkpt>
      <trkpt lat="44.03141" lon="6.00647">
        <ele>721</ele>
        <time>2021-12-21T12:08:37.000Z</time>
      </trkpt>
      <trkpt lat="44.03141" lon="6.00645">
        <ele>721</ele>
        <time>2021-12-21T12:08:38.000Z</time>
      </trkpt>
      <trkpt lat="44.03141" lon="6.00644">
        <ele>721</ele>
        <time>2021-12-21T12:08:39.000Z</time>
      </trkpt>
      <trkpt lat="44.03141" lon="6.00642">
        <ele>721</ele>
        <time>2021-12-21T12:08:40.000Z</time>
      </trkpt>
      <trkpt lat="44.03141" lon="6.0064">
        <ele>721</ele>
        <time>2021-12-21T12:08:41.000Z</time>
      </trkpt>
      <trkpt lat="44.03142" lon="6.00639">
        <ele>721</ele>
        <time>2021-12-21T12:08:42.000Z</time>
      </trkpt>
      <trkpt lat="44.03142" lon="6.00637">
        <ele>721</ele>
        <time>2021-12-21T12:08:43.000Z</time>
      </trkpt>
      <trkpt lat="44.03142" lon="6.00636">
        <ele>721</ele>
        <time>2021-12-21T12:08:44.000Z</time>
      </trkpt>
      <trkpt lat="44.03142" lon="6.00634">
        <ele>721</ele>
        <time>2021-12-21T12:08:45.000Z</time>
      </trkpt>
      <trkpt lat="44.03143" lon="6.00632">
        <ele>721</ele>
        <time>2021-12-21T12:08:46.000Z</time>
      </trkpt>
      <trkpt lat="44.03143" lon="6.00631">
        <ele>721</ele>
        <time>2021-12-21T12:08:47.000Z</time>
      </trkpt>
      <trkpt lat="44.03143" lon="6.00629">
        <ele>721</ele>
        <time>2021-12-21T12:08:48.000Z</time>
      </trkpt>
      <trkpt lat="44.03144" lon="6.00628">
        <ele>721</ele>
        <time>2021-12-21T12:08:49.000Z</time>
      </trkpt>
      <trkpt lat="44.03144" lon="6.00627">
        <ele>721</ele>
        <time>2021-12-21T12:08:50.000Z</time>
      </trkpt>
      <trkpt lat="44.03145" lon="6.00625">
        <ele>721</ele>
        <time>2021-12-21T12:08:51.000Z</time>
      </trkpt>
      <trkpt lat="44.03145" lon="6.00623">
        <ele>721</ele>
        <time>2021-12-21T12:08:52.000Z</time>
      </trkpt>
      <trkpt lat="44.03145" lon="6.00622">
        <ele>721</ele>
        <time>2021-12-21T12:08:53.000Z</time>
      </trkpt>
      <trkpt lat="44.03146" lon="6.00621">
        <ele>721</ele>
        <time>2021-12-21T12:08:54.000Z</time>
      </trkpt>
      <trkpt lat="44.03146" lon="6.00619">
        <ele>722</ele>
        <time>2021-12-21T12:08:55.000Z</time>
      </trkpt>
      <trkpt lat="44.03147" lon="6.00618">
        <ele>722</ele>
        <time>2021-12-21T12:08:56.000Z</time>
      </trkpt>
      <trkpt lat="44.03147" lon="6.00616">
        <ele>722</ele>
        <time>2021-12-21T12:08:57.000Z</time>
      </trkpt>
      <trkpt lat="44.03148" lon="6.00615">
        <ele>722</ele>
        <time>2021-12-21T12:08:58.000Z</time>
      </trkpt>
      <trkpt lat="44.03148" lon="6.00613">
        <ele>722</ele>
        <time>2021-12-21T12:08:59.000Z</time>
      </trkpt>
      <trkpt lat="44.03149" lon="6.00612">
        <ele>722</ele>
        <time>2021-12-21T12:09:00.000Z</time>
      </trkpt>
      <trkpt lat="44.03149" lon="6.0061">
        <ele>722</ele>
        <time>2021-12-21T12:09:01.000Z</time>
      </trkpt>
      <trkpt lat="44.0315" lon="6.00609">
        <ele>722</ele>
        <time>2021-12-21T12:09:02.000Z</time>
      </trkpt>
      <trkpt lat="44.0315" lon="6.00607">
        <ele>722</ele>
        <time>2021-12-21T12:09:03.000Z</time>
      </trkpt>
      <trkpt lat="44.0315" lon="6.00606">
        <ele>722</ele>
        <time>2021-12-21T12:09:04.000Z</time>
      </trkpt>
      <trkpt lat="44.03151" lon="6.00604">
        <ele>722</ele>
        <time>2021-12-21T12:09:05.000Z</time>
      </trkpt>
      <trkpt lat="44.03152" lon="6.00603">
        <ele>722</ele>
        <time>2021-12-21T12:09:06.000Z</time>
      </trkpt>
      <trkpt lat="44.03152" lon="6.00602">
        <ele>722</ele>
        <time>2021-12-21T12:09:07.000Z</time>
      </trkpt>
      <trkpt lat="44.03153" lon="6.006">
        <ele>722</ele>
        <time>2021-12-21T12:09:08.000Z</time>
      </trkpt>
      <trkpt lat="44.03153" lon="6.00599">
        <ele>722</ele>
        <time>2021-12-21T12:09:09.000Z</time>
      </trkpt>
      <trkpt lat="44.03153" lon="6.00598">
        <ele>722</ele>
        <time>2021-12-21T12:09:10.000Z</time>
      </trkpt>
      <trkpt lat="44.03154" lon="6.00596">
        <ele>723</ele>
        <time>2021-12-21T12:09:11.000Z</time>
      </trkpt>
      <trkpt lat="44.03154" lon="6.00594">
        <ele>723</ele>
        <time>2021-12-21T12:09:12.000Z</time>
      </trkpt>
      <trkpt lat="44.03155" lon="6.00593">
        <ele>723</ele>
        <time>2021-12-21T12:09:13.000Z</time>
      </trkpt>
      <trkpt lat="44.03155" lon="6.00591">
        <ele>723</ele>
        <time>2021-12-21T12:09:14.000Z</time>
      </trkpt>
      <trkpt lat="44.03156" lon="6.0059">
        <ele>723</ele>
        <time>2021-12-21T12:09:15.000Z</time>
      </trkpt>
      <trkpt lat="44.03156" lon="6.00588">
        <ele>724</ele>
        <time>2021-12-21T12:09:16.000Z</time>
      </trkpt>
      <trkpt lat="44.03157" lon="6.00587">
        <ele>724</ele>
        <time>2021-12-21T12:09:17.000Z</time>
      </trkpt>
      <trkpt lat="44.03157" lon="6.00585">
        <ele>724</ele>
        <time>2021-12-21T12:09:18.000Z</time>
      </trkpt>
      <trkpt lat="44.03157" lon="6.00584">
        <ele>724</ele>
        <time>2021-12-21T12:09:19.000Z</time>
      </trkpt>
      <trkpt lat="44.03158" lon="6.00582">
        <ele>724</ele>
        <time>2021-12-21T12:09:20.000Z</time>
      </trkpt>
      <trkpt lat="44.03158" lon="6.00581">
        <ele>724</ele>
        <time>2021-12-21T12:09:21.000Z</time>
      </trkpt>
      <trkpt lat="44.03159" lon="6.0058">
        <ele>724</ele>
        <time>2021-12-21T12:09:22.000Z</time>
      </trkpt>
      <trkpt lat="44.0316" lon="6.00578">
        <ele>724</ele>
        <time>2021-12-21T12:09:23.000Z</time>
      </trkpt>
      <trkpt lat="44.0316" lon="6.00577">
        <ele>725</ele>
        <time>2021-12-21T12:09:24.000Z</time>
      </trkpt>
      <trkpt lat="44.03161" lon="6.00575">
        <ele>725</ele>
        <time>2021-12-21T12:09:25.000Z</time>
      </trkpt>
      <trkpt lat="44.03161" lon="6.00574">
        <ele>725</ele>
        <time>2021-12-21T12:09:26.000Z</time>
      </trkpt>
      <trkpt lat="44.03162" lon="6.00572">
        <ele>725</ele>
        <time>2021-12-21T12:09:27.000Z</time>
      </trkpt>
      <trkpt lat="44.03163" lon="6.00571">
        <ele>725</ele>
        <time>2021-12-21T12:09:28.000Z</time>
      </trkpt>
      <trkpt lat="44.03163" lon="6.00569">
        <ele>725</ele>
        <time>2021-12-21T12:09:29.000Z</time>
      </trkpt>
      <trkpt lat="44.03164" lon="6.00568">
        <ele>725</ele>
        <time>2021-12-21T12:09:30.000Z</time>
      </trkpt>
      <trkpt lat="44.03164" lon="6.00566">
        <ele>725</ele>
        <time>2021-12-21T12:09:31.000Z</time>
      </trkpt>
      <trkpt lat="44.03165" lon="6.00565">
        <ele>725</ele>
        <time>2021-12-21T12:09:32.000Z</time>
      </trkpt>
      <trkpt lat="44.03165" lon="6.00563">
        <ele>725</ele>
        <time>2021-12-21T12:09:33.000Z</time>
      </trkpt>
      <trkpt lat="44.03166" lon="6.00562">
        <ele>725</ele>
        <time>2021-12-21T12:09:34.000Z</time>
      </trkpt>
      <trkpt lat="44.03167" lon="6.0056">
        <ele>725</ele>
        <time>2021-12-21T12:09:35.000Z</time>
      </trkpt>
      <trkpt lat="44.03167" lon="6.00559">
        <ele>725</ele>
        <time>2021-12-21T12:09:36.000Z</time>
      </trkpt>
      <trkpt lat="44.03168" lon="6.00558">
        <ele>725</ele>
        <time>2021-12-21T12:09:37.000Z</time>
      </trkpt>
      <trkpt lat="44.03168" lon="6.00556">
        <ele>725</ele>
        <time>2021-12-21T12:09:38.000Z</time>
      </trkpt>
      <trkpt lat="44.03169" lon="6.00555">
        <ele>724</ele>
        <time>2021-12-21T12:09:39.000Z</time>
      </trkpt>
      <trkpt lat="44.03169" lon="6.00553">
        <ele>724</ele>
        <time>2021-12-21T12:09:40.000Z</time>
      </trkpt>
      <trkpt lat="44.03169" lon="6.00552">
        <ele>724</ele>
        <time>2021-12-21T12:09:41.000Z</time>
      </trkpt>
      <trkpt lat="44.03169" lon="6.0055">
        <ele>724</ele>
        <time>2021-12-21T12:09:42.000Z</time>
      </trkpt>
      <trkpt lat="44.03169" lon="6.00549">
        <ele>724</ele>
        <time>2021-12-21T12:09:43.000Z</time>
      </trkpt>
      <trkpt lat="44.0317" lon="6.00547">
        <ele>724</ele>
        <time>2021-12-21T12:09:44.000Z</time>
      </trkpt>
      <trkpt lat="44.0317" lon="6.00546">
        <ele>724</ele>
        <time>2021-12-21T12:09:45.000Z</time>
      </trkpt>
      <trkpt lat="44.0317" lon="6.00544">
        <ele>724</ele>
        <time>2021-12-21T12:09:46.000Z</time>
      </trkpt>
      <trkpt lat="44.0317" lon="6.00543">
        <ele>724</ele>
        <time>2021-12-21T12:09:47.000Z</time>
      </trkpt>
      <trkpt lat="44.0317" lon="6.00541">
        <ele>724</ele>
        <time>2021-12-21T12:09:48.000Z</time>
      </trkpt>
      <trkpt lat="44.03171" lon="6.0054">
        <ele>724</ele>
        <time>2021-12-21T12:09:49.000Z</time>
      </trkpt>
      <trkpt lat="44.03171" lon="6.00538">
        <ele>724</ele>
        <time>2021-12-21T12:09:50.000Z</time>
      </trkpt>
      <trkpt lat="44.03171" lon="6.00536">
        <ele>724</ele>
        <time>2021-12-21T12:09:51.000Z</time>
      </trkpt>
      <trkpt lat="44.03171" lon="6.00535">
        <ele>724</ele>
        <time>2021-12-21T12:09:52.000Z</time>
      </trkpt>
      <trkpt lat="44.03171" lon="6.00534">
        <ele>724</ele>
        <time>2021-12-21T12:09:53.000Z</time>
      </trkpt>
      <trkpt lat="44.03172" lon="6.00532">
        <ele>724</ele>
        <time>2021-12-21T12:09:54.000Z</time>
      </trkpt>
      <trkpt lat="44.03172" lon="6.0053">
        <ele>724</ele>
        <time>2021-12-21T12:09:55.000Z</time>
      </trkpt>
      <trkpt lat="44.03172" lon="6.00529">
        <ele>724</ele>
        <time>2021-12-21T12:09:56.000Z</time>
      </trkpt>
      <trkpt lat="44.03172" lon="6.00528">
        <ele>724</ele>
        <time>2021-12-21T12:09:57.000Z</time>
      </trkpt>
      <trkpt lat="44.03172" lon="6.00526">
        <ele>724</ele>
        <time>2021-12-21T12:09:58.000Z</time>
      </trkpt>
      <trkpt lat="44.03173" lon="6.00524">
        <ele>724</ele>
        <time>2021-12-21T12:09:59.000Z</time>
      </trkpt>
      <trkpt lat="44.03173" lon="6.00523">
        <ele>724</ele>
        <time>2021-12-21T12:10:00.000Z</time>
      </trkpt>
      <trkpt lat="44.03173" lon="6.00521">
        <ele>724</ele>
        <time>2021-12-21T12:10:01.000Z</time>
      </trkpt>
      <trkpt lat="44.03173" lon="6.0052">
        <ele>724</ele>
        <time>2021-12-21T12:10:02.000Z</time>
      </trkpt>
      <trkpt lat="44.03173" lon="6.00518">
        <ele>724</ele>
        <time>2021-12-21T12:10:03.000Z</time>
      </trkpt>
      <trkpt lat="44.03173" lon="6.00516">
        <ele>724</ele>
        <time>2021-12-21T12:10:04.000Z</time>
      </trkpt>
      <trkpt lat="44.03173" lon="6.00515">
        <ele>724</ele>
        <time>2021-12-21T12:10:05.000Z</time>
      </trkpt>
      <trkpt lat="44.03173" lon="6.00513">
        <ele>724</ele>
        <time>2021-12-21T12:10:06.000Z</time>
      </trkpt>
      <trkpt lat="44.03173" lon="6.00511">
        <ele>725</ele>
        <time>2021-12-21T12:10:07.000Z</time>
      </trkpt>
      <trkpt lat="44.03173" lon="6.0051">
        <ele>725</ele>
        <time>2021-12-21T12:10:08.000Z</time>
      </trkpt>
      <trkpt lat="44.03173" lon="6.00508">
        <ele>725</ele>
        <time>2021-12-21T12:10:09.000Z</time>
      </trkpt>
      <trkpt lat="44.03173" lon="6.00507">
        <ele>725</ele>
        <time>2021-12-21T12:10:10.000Z</time>
      </trkpt>
      <trkpt lat="44.03173" lon="6.00505">
        <ele>725</ele>
        <time>2021-12-21T12:10:11.000Z</time>
      </trkpt>
      <trkpt lat="44.03173" lon="6.00504">
        <ele>725</ele>
        <time>2021-12-21T12:10:12.000Z</time>
      </trkpt>
      <trkpt lat="44.03173" lon="6.00502">
        <ele>725</ele>
        <time>2021-12-21T12:10:13.000Z</time>
      </trkpt>
      <trkpt lat="44.03174" lon="6.00501">
        <ele>725</ele>
        <time>2021-12-21T12:10:14.000Z</time>
      </trkpt>
      <trkpt lat="44.03174" lon="6.00499">
        <ele>725</ele>
        <time>2021-12-21T12:10:15.000Z</time>
      </trkpt>
      <trkpt lat="44.03174" lon="6.00498">
        <ele>725</ele>
        <time>2021-12-21T12:10:16.000Z</time>
      </trkpt>
      <trkpt lat="44.03174" lon="6.00496">
        <ele>725</ele>
        <time>2021-12-21T12:10:17.000Z</time>
      </trkpt>
      <trkpt lat="44.03175" lon="6.00495">
        <ele>725</ele>
        <time>2021-12-21T12:10:18.000Z</time>
      </trkpt>
      <trkpt lat="44.03175" lon="6.00493">
        <ele>725</ele>
        <time>2021-12-21T12:10:19.000Z</time>
      </trkpt>
      <trkpt lat="44.03175" lon="6.00491">
        <ele>725</ele>
        <time>2021-12-21T12:10:20.000Z</time>
      </trkpt>
      <trkpt lat="44.03176" lon="6.0049">
        <ele>725</ele>
        <time>2021-12-21T12:10:21.000Z</time>
      </trkpt>
      <trkpt lat="44.03176" lon="6.00488">
        <ele>726</ele>
        <time>2021-12-21T12:10:22.000Z</time>
      </trkpt>
      <trkpt lat="44.03177" lon="6.00487">
        <ele>726</ele>
        <time>2021-12-21T12:10:23.000Z</time>
      </trkpt>
      <trkpt lat="44.03177" lon="6.00485">
        <ele>726</ele>
        <time>2021-12-21T12:10:24.000Z</time>
      </trkpt>
      <trkpt lat="44.03178" lon="6.00483">
        <ele>726</ele>
        <time>2021-12-21T12:10:25.000Z</time>
      </trkpt>
      <trkpt lat="44.03178" lon="6.00482">
        <ele>726</ele>
        <time>2021-12-21T12:10:26.000Z</time>
      </trkpt>
      <trkpt lat="44.03179" lon="6.0048">
        <ele>726</ele>
        <time>2021-12-21T12:10:27.000Z</time>
      </trkpt>
      <trkpt lat="44.03179" lon="6.00479">
        <ele>726</ele>
        <time>2021-12-21T12:10:28.000Z</time>
      </trkpt>
      <trkpt lat="44.0318" lon="6.00477">
        <ele>726</ele>
        <time>2021-12-21T12:10:29.000Z</time>
      </trkpt>
      <trkpt lat="44.0318" lon="6.00476">
        <ele>727</ele>
        <time>2021-12-21T12:10:30.000Z</time>
      </trkpt>
      <trkpt lat="44.03181" lon="6.00474">
        <ele>727</ele>
        <time>2021-12-21T12:10:31.000Z</time>
      </trkpt>
      <trkpt lat="44.03181" lon="6.00473">
        <ele>727</ele>
        <time>2021-12-21T12:10:32.000Z</time>
      </trkpt>
      <trkpt lat="44.03181" lon="6.00471">
        <ele>727</ele>
        <time>2021-12-21T12:10:33.000Z</time>
      </trkpt>
      <trkpt lat="44.03182" lon="6.0047">
        <ele>727</ele>
        <time>2021-12-21T12:10:34.000Z</time>
      </trkpt>
      <trkpt lat="44.03183" lon="6.00468">
        <ele>727</ele>
        <time>2021-12-21T12:10:35.000Z</time>
      </trkpt>
      <trkpt lat="44.03183" lon="6.00466">
        <ele>727</ele>
        <time>2021-12-21T12:10:36.000Z</time>
      </trkpt>
      <trkpt lat="44.03184" lon="6.00465">
        <ele>728</ele>
        <time>2021-12-21T12:10:37.000Z</time>
      </trkpt>
      <trkpt lat="44.03184" lon="6.00463">
        <ele>728</ele>
        <time>2021-12-21T12:10:38.000Z</time>
      </trkpt>
      <trkpt lat="44.03184" lon="6.00462">
        <ele>728</ele>
        <time>2021-12-21T12:10:39.000Z</time>
      </trkpt>
      <trkpt lat="44.03185" lon="6.0046">
        <ele>728</ele>
        <time>2021-12-21T12:10:40.000Z</time>
      </trkpt>
      <trkpt lat="44.03185" lon="6.0046">
        <ele>728</ele>
        <time>2021-12-21T12:10:41.000Z</time>
      </trkpt>
      <trkpt lat="44.03185" lon="6.00459">
        <ele>728</ele>
        <time>2021-12-21T12:10:42.000Z</time>
      </trkpt>
      <trkpt lat="44.03185" lon="6.00459">
        <ele>728</ele>
        <time>2021-12-21T12:10:43.000Z</time>
      </trkpt>
      <trkpt lat="44.03185" lon="6.00459">
        <ele>728</ele>
        <time>2021-12-21T12:10:44.000Z</time>
      </trkpt>
      <trkpt lat="44.03185" lon="6.00459">
        <ele>728</ele>
        <time>2021-12-21T12:10:45.000Z</time>
      </trkpt>
      <trkpt lat="44.03185" lon="6.00459">
        <ele>728</ele>
        <time>2021-12-21T12:10:46.000Z</time>
      </trkpt>
      <trkpt lat="44.03185" lon="6.00459">
        <ele>728</ele>
        <time>2021-12-21T12:10:47.000Z</time>
      </trkpt>
      <trkpt lat="44.03185" lon="6.00459">
        <ele>728</ele>
        <time>2021-12-21T12:10:48.000Z</time>
      </trkpt>
      <trkpt lat="44.03185" lon="6.00459">
        <ele>728</ele>
        <time>2021-12-21T12:10:49.000Z</time>
      </trkpt>
      <trkpt lat="44.03185" lon="6.00459">
        <ele>728</ele>
        <time>2021-12-21T12:10:50.000Z</time>
      </trkpt>
      <trkpt lat="44.03185" lon="6.00459">
        <ele>728</ele>
        <time>2021-12-21T12:10:51.000Z</time>
      </trkpt>
      <trkpt lat="44.03185" lon="6.00459">
        <ele>728</ele>
        <time>2021-12-21T12:10:52.000Z</time>
      </trkpt>
      <trkpt lat="44.03185" lon="6.00459">
        <ele>728</ele>
        <time>2021-12-21T12:10:53.000Z</time>
      </trkpt>
      <trkpt lat="44.03185" lon="6.00458">
        <ele>728</ele>
        <time>2021-12-21T12:10:54.000Z</time>
      </trkpt>
      <trkpt lat="44.03185" lon="6.00458">
        <ele>728</ele>
        <time>2021-12-21T12:10:55.000Z</time>
      </trkpt>
      <trkpt lat="44.03186" lon="6.00458">
        <ele>728</ele>
        <time>2021-12-21T12:10:56.000Z</time>
      </trkpt>
      <trkpt lat="44.03186" lon="6.00458">
        <ele>728</ele>
        <time>2021-12-21T12:10:57.000Z</time>
      </trkpt>
      <trkpt lat="44.03186" lon="6.00458">
        <ele>728</ele>
        <time>2021-12-21T12:10:58.000Z</time>
      </trkpt>
      <trkpt lat="44.03186" lon="6.00458">
        <ele>728</ele>
        <time>2021-12-21T12:10:59.000Z</time>
      </trkpt>
      <trkpt lat="44.03186" lon="6.00458">
        <ele>728</ele>
        <time>2021-12-21T12:11:00.000Z</time>
      </trkpt>
      <trkpt lat="44.03186" lon="6.00458">
        <ele>728</ele>
        <time>2021-12-21T12:11:01.000Z</time>
      </trkpt>
      <trkpt lat="44.03186" lon="6.00457">
        <ele>728</ele>
        <time>2021-12-21T12:11:02.000Z</time>
      </trkpt>
      <trkpt lat="44.03187" lon="6.00456">
        <ele>728</ele>
        <time>2021-12-21T12:11:03.000Z</time>
      </trkpt>
      <trkpt lat="44.03187" lon="6.00454">
        <ele>728</ele>
        <time>2021-12-21T12:11:04.000Z</time>
      </trkpt>
      <trkpt lat="44.03188" lon="6.00453">
        <ele>728</ele>
        <time>2021-12-21T12:11:05.000Z</time>
      </trkpt>
      <trkpt lat="44.03188" lon="6.00451">
        <ele>728</ele>
        <time>2021-12-21T12:11:06.000Z</time>
      </trkpt>
      <trkpt lat="44.03189" lon="6.0045">
        <ele>728</ele>
        <time>2021-12-21T12:11:07.000Z</time>
      </trkpt>
      <trkpt lat="44.0319" lon="6.00448">
        <ele>728</ele>
        <time>2021-12-21T12:11:08.000Z</time>
      </trkpt>
      <trkpt lat="44.0319" lon="6.00447">
        <ele>728</ele>
        <time>2021-12-21T12:11:09.000Z</time>
      </trkpt>
      <trkpt lat="44.03191" lon="6.00445">
        <ele>728</ele>
        <time>2021-12-21T12:11:10.000Z</time>
      </trkpt>
      <trkpt lat="44.03191" lon="6.00444">
        <ele>728</ele>
        <time>2021-12-21T12:11:11.000Z</time>
      </trkpt>
      <trkpt lat="44.03192" lon="6.00442">
        <ele>728</ele>
        <time>2021-12-21T12:11:12.000Z</time>
      </trkpt>
      <trkpt lat="44.03193" lon="6.00441">
        <ele>728</ele>
        <time>2021-12-21T12:11:13.000Z</time>
      </trkpt>
      <trkpt lat="44.03193" lon="6.00439">
        <ele>728</ele>
        <time>2021-12-21T12:11:14.000Z</time>
      </trkpt>
      <trkpt lat="44.03194" lon="6.00438">
        <ele>728</ele>
        <time>2021-12-21T12:11:15.000Z</time>
      </trkpt>
      <trkpt lat="44.03194" lon="6.00436">
        <ele>728</ele>
        <time>2021-12-21T12:11:16.000Z</time>
      </trkpt>
      <trkpt lat="44.03195" lon="6.00435">
        <ele>728</ele>
        <time>2021-12-21T12:11:17.000Z</time>
      </trkpt>
      <trkpt lat="44.03196" lon="6.00434">
        <ele>728</ele>
        <time>2021-12-21T12:11:18.000Z</time>
      </trkpt>
      <trkpt lat="44.03196" lon="6.00432">
        <ele>728</ele>
        <time>2021-12-21T12:11:19.000Z</time>
      </trkpt>
      <trkpt lat="44.03196" lon="6.0043">
        <ele>728</ele>
        <time>2021-12-21T12:11:20.000Z</time>
      </trkpt>
      <trkpt lat="44.03197" lon="6.00429">
        <ele>728</ele>
        <time>2021-12-21T12:11:21.000Z</time>
      </trkpt>
      <trkpt lat="44.03197" lon="6.00427">
        <ele>728</ele>
        <time>2021-12-21T12:11:22.000Z</time>
      </trkpt>
      <trkpt lat="44.03198" lon="6.00426">
        <ele>728</ele>
        <time>2021-12-21T12:11:23.000Z</time>
      </trkpt>
      <trkpt lat="44.03198" lon="6.00424">
        <ele>728</ele>
        <time>2021-12-21T12:11:24.000Z</time>
      </trkpt>
      <trkpt lat="44.03199" lon="6.00422">
        <ele>728</ele>
        <time>2021-12-21T12:11:25.000Z</time>
      </trkpt>
      <trkpt lat="44.03199" lon="6.00421">
        <ele>728</ele>
        <time>2021-12-21T12:11:26.000Z</time>
      </trkpt>
      <trkpt lat="44.032" lon="6.00419">
        <ele>728</ele>
        <time>2021-12-21T12:11:27.000Z</time>
      </trkpt>
      <trkpt lat="44.032" lon="6.00418">
        <ele>728</ele>
        <time>2021-12-21T12:11:28.000Z</time>
      </trkpt>
      <trkpt lat="44.032" lon="6.00416">
        <ele>728</ele>
        <time>2021-12-21T12:11:29.000Z</time>
      </trkpt>
      <trkpt lat="44.032" lon="6.00415">
        <ele>728</ele>
        <time>2021-12-21T12:11:30.000Z</time>
      </trkpt>
      <trkpt lat="44.03201" lon="6.00413">
        <ele>728</ele>
        <time>2021-12-21T12:11:31.000Z</time>
      </trkpt>
      <trkpt lat="44.03201" lon="6.00411">
        <ele>728</ele>
        <time>2021-12-21T12:11:32.000Z</time>
      </trkpt>
      <trkpt lat="44.03201" lon="6.0041">
        <ele>728</ele>
        <time>2021-12-21T12:11:33.000Z</time>
      </trkpt>
      <trkpt lat="44.03201" lon="6.00408">
        <ele>728</ele>
        <time>2021-12-21T12:11:34.000Z</time>
      </trkpt>
      <trkpt lat="44.03201" lon="6.00406">
        <ele>728</ele>
        <time>2021-12-21T12:11:35.000Z</time>
      </trkpt>
      <trkpt lat="44.03202" lon="6.00405">
        <ele>728</ele>
        <time>2021-12-21T12:11:36.000Z</time>
      </trkpt>
      <trkpt lat="44.03202" lon="6.00403">
        <ele>728</ele>
        <time>2021-12-21T12:11:37.000Z</time>
      </trkpt>
      <trkpt lat="44.03202" lon="6.00401">
        <ele>728</ele>
        <time>2021-12-21T12:11:38.000Z</time>
      </trkpt>
      <trkpt lat="44.03202" lon="6.004">
        <ele>728</ele>
        <time>2021-12-21T12:11:39.000Z</time>
      </trkpt>
      <trkpt lat="44.03202" lon="6.00398">
        <ele>728</ele>
        <time>2021-12-21T12:11:40.000Z</time>
      </trkpt>
      <trkpt lat="44.03203" lon="6.00396">
        <ele>728</ele>
        <time>2021-12-21T12:11:41.000Z</time>
      </trkpt>
      <trkpt lat="44.03203" lon="6.00394">
        <ele>728</ele>
        <time>2021-12-21T12:11:42.000Z</time>
      </trkpt>
      <trkpt lat="44.03203" lon="6.00393">
        <ele>728</ele>
        <time>2021-12-21T12:11:43.000Z</time>
      </trkpt>
      <trkpt lat="44.03203" lon="6.00391">
        <ele>728</ele>
        <time>2021-12-21T12:11:44.000Z</time>
      </trkpt>
      <trkpt lat="44.03203" lon="6.0039">
        <ele>728</ele>
        <time>2021-12-21T12:11:45.000Z</time>
      </trkpt>
      <trkpt lat="44.03204" lon="6.00388">
        <ele>728</ele>
        <time>2021-12-21T12:11:46.000Z</time>
      </trkpt>
      <trkpt lat="44.03204" lon="6.00387">
        <ele>727</ele>
        <time>2021-12-21T12:11:47.000Z</time>
      </trkpt>
      <trkpt lat="44.03204" lon="6.00385">
        <ele>728</ele>
        <time>2021-12-21T12:11:48.000Z</time>
      </trkpt>
      <trkpt lat="44.03204" lon="6.00383">
        <ele>727</ele>
        <time>2021-12-21T12:11:49.000Z</time>
      </trkpt>
      <trkpt lat="44.03204" lon="6.00381">
        <ele>727</ele>
        <time>2021-12-21T12:11:50.000Z</time>
      </trkpt>
      <trkpt lat="44.03204" lon="6.00379">
        <ele>727</ele>
        <time>2021-12-21T12:11:51.000Z</time>
      </trkpt>
      <trkpt lat="44.03204" lon="6.00378">
        <ele>727</ele>
        <time>2021-12-21T12:11:52.000Z</time>
      </trkpt>
      <trkpt lat="44.03204" lon="6.00376">
        <ele>727</ele>
        <time>2021-12-21T12:11:53.000Z</time>
      </trkpt>
      <trkpt lat="44.03204" lon="6.00374">
        <ele>727</ele>
        <time>2021-12-21T12:11:54.000Z</time>
      </trkpt>
      <trkpt lat="44.03204" lon="6.00372">
        <ele>727</ele>
        <time>2021-12-21T12:11:55.000Z</time>
      </trkpt>
      <trkpt lat="44.03204" lon="6.00371">
        <ele>727</ele>
        <time>2021-12-21T12:11:56.000Z</time>
      </trkpt>
      <trkpt lat="44.03204" lon="6.00369">
        <ele>727</ele>
        <time>2021-12-21T12:11:57.000Z</time>
      </trkpt>
      <trkpt lat="44.03204" lon="6.00367">
        <ele>727</ele>
        <time>2021-12-21T12:11:58.000Z</time>
      </trkpt>
      <trkpt lat="44.03204" lon="6.00365">
        <ele>727</ele>
        <time>2021-12-21T12:11:59.000Z</time>
      </trkpt>
      <trkpt lat="44.03204" lon="6.00363">
        <ele>727</ele>
        <time>2021-12-21T12:12:00.000Z</time>
      </trkpt>
      <trkpt lat="44.03204" lon="6.00362">
        <ele>727</ele>
        <time>2021-12-21T12:12:01.000Z</time>
      </trkpt>
      <trkpt lat="44.03204" lon="6.0036">
        <ele>727</ele>
        <time>2021-12-21T12:12:02.000Z</time>
      </trkpt>
      <trkpt lat="44.03204" lon="6.00358">
        <ele>727</ele>
        <time>2021-12-21T12:12:03.000Z</time>
      </trkpt>
      <trkpt lat="44.03204" lon="6.00357">
        <ele>727</ele>
        <time>2021-12-21T12:12:04.000Z</time>
      </trkpt>
      <trkpt lat="44.03204" lon="6.00355">
        <ele>727</ele>
        <time>2021-12-21T12:12:05.000Z</time>
      </trkpt>
      <trkpt lat="44.03204" lon="6.00353">
        <ele>727</ele>
        <time>2021-12-21T12:12:06.000Z</time>
      </trkpt>
      <trkpt lat="44.03204" lon="6.00352">
        <ele>727</ele>
        <time>2021-12-21T12:12:07.000Z</time>
      </trkpt>
      <trkpt lat="44.03203" lon="6.0035">
        <ele>727</ele>
        <time>2021-12-21T12:12:08.000Z</time>
      </trkpt>
      <trkpt lat="44.03204" lon="6.00348">
        <ele>726</ele>
        <time>2021-12-21T12:12:09.000Z</time>
      </trkpt>
      <trkpt lat="44.03203" lon="6.00346">
        <ele>726</ele>
        <time>2021-12-21T12:12:10.000Z</time>
      </trkpt>
      <trkpt lat="44.03203" lon="6.00345">
        <ele>726</ele>
        <time>2021-12-21T12:12:11.000Z</time>
      </trkpt>
      <trkpt lat="44.03203" lon="6.00343">
        <ele>726</ele>
        <time>2021-12-21T12:12:12.000Z</time>
      </trkpt>
      <trkpt lat="44.03203" lon="6.00342">
        <ele>726</ele>
        <time>2021-12-21T12:12:13.000Z</time>
      </trkpt>
      <trkpt lat="44.03203" lon="6.0034">
        <ele>726</ele>
        <time>2021-12-21T12:12:14.000Z</time>
      </trkpt>
      <trkpt lat="44.03203" lon="6.00338">
        <ele>726</ele>
        <time>2021-12-21T12:12:15.000Z</time>
      </trkpt>
      <trkpt lat="44.03203" lon="6.00336">
        <ele>726</ele>
        <time>2021-12-21T12:12:16.000Z</time>
      </trkpt>
      <trkpt lat="44.03203" lon="6.00335">
        <ele>725</ele>
        <time>2021-12-21T12:12:17.000Z</time>
      </trkpt>
      <trkpt lat="44.03203" lon="6.00333">
        <ele>725</ele>
        <time>2021-12-21T12:12:18.000Z</time>
      </trkpt>
      <trkpt lat="44.03203" lon="6.00331">
        <ele>725</ele>
        <time>2021-12-21T12:12:19.000Z</time>
      </trkpt>
      <trkpt lat="44.03203" lon="6.0033">
        <ele>725</ele>
        <time>2021-12-21T12:12:20.000Z</time>
      </trkpt>
      <trkpt lat="44.03202" lon="6.00328">
        <ele>725</ele>
        <time>2021-12-21T12:12:21.000Z</time>
      </trkpt>
      <trkpt lat="44.03202" lon="6.00327">
        <ele>725</ele>
        <time>2021-12-21T12:12:22.000Z</time>
      </trkpt>
      <trkpt lat="44.03202" lon="6.00325">
        <ele>725</ele>
        <time>2021-12-21T12:12:23.000Z</time>
      </trkpt>
      <trkpt lat="44.03202" lon="6.00324">
        <ele>724</ele>
        <time>2021-12-21T12:12:24.000Z</time>
      </trkpt>
      <trkpt lat="44.03201" lon="6.00323">
        <ele>724</ele>
        <time>2021-12-21T12:12:25.000Z</time>
      </trkpt>
      <trkpt lat="44.03201" lon="6.00321">
        <ele>724</ele>
        <time>2021-12-21T12:12:26.000Z</time>
      </trkpt>
      <trkpt lat="44.032" lon="6.0032">
        <ele>724</ele>
        <time>2021-12-21T12:12:27.000Z</time>
      </trkpt>
      <trkpt lat="44.032" lon="6.00319">
        <ele>724</ele>
        <time>2021-12-21T12:12:28.000Z</time>
      </trkpt>
      <trkpt lat="44.03199" lon="6.00318">
        <ele>724</ele>
        <time>2021-12-21T12:12:29.000Z</time>
      </trkpt>
      <trkpt lat="44.03198" lon="6.00316">
        <ele>723</ele>
        <time>2021-12-21T12:12:30.000Z</time>
      </trkpt>
      <trkpt lat="44.03198" lon="6.00315">
        <ele>723</ele>
        <time>2021-12-21T12:12:31.000Z</time>
      </trkpt>
      <trkpt lat="44.03197" lon="6.00314">
        <ele>723</ele>
        <time>2021-12-21T12:12:32.000Z</time>
      </trkpt>
      <trkpt lat="44.03196" lon="6.00313">
        <ele>723</ele>
        <time>2021-12-21T12:12:33.000Z</time>
      </trkpt>
      <trkpt lat="44.03195" lon="6.00312">
        <ele>723</ele>
        <time>2021-12-21T12:12:34.000Z</time>
      </trkpt>
      <trkpt lat="44.03194" lon="6.00311">
        <ele>723</ele>
        <time>2021-12-21T12:12:35.000Z</time>
      </trkpt>
      <trkpt lat="44.03194" lon="6.0031">
        <ele>723</ele>
        <time>2021-12-21T12:12:36.000Z</time>
      </trkpt>
      <trkpt lat="44.03193" lon="6.00309">
        <ele>722</ele>
        <time>2021-12-21T12:12:37.000Z</time>
      </trkpt>
      <trkpt lat="44.03192" lon="6.00308">
        <ele>722</ele>
        <time>2021-12-21T12:12:38.000Z</time>
      </trkpt>
      <trkpt lat="44.03191" lon="6.00307">
        <ele>722</ele>
        <time>2021-12-21T12:12:39.000Z</time>
      </trkpt>
      <trkpt lat="44.0319" lon="6.00306">
        <ele>722</ele>
        <time>2021-12-21T12:12:40.000Z</time>
      </trkpt>
      <trkpt lat="44.0319" lon="6.00304">
        <ele>722</ele>
        <time>2021-12-21T12:12:41.000Z</time>
      </trkpt>
      <trkpt lat="44.03189" lon="6.00303">
        <ele>722</ele>
        <time>2021-12-21T12:12:42.000Z</time>
      </trkpt>
      <trkpt lat="44.03188" lon="6.00302">
        <ele>722</ele>
        <time>2021-12-21T12:12:43.000Z</time>
      </trkpt>
      <trkpt lat="44.03188" lon="6.003">
        <ele>722</ele>
        <time>2021-12-21T12:12:44.000Z</time>
      </trkpt>
      <trkpt lat="44.03187" lon="6.00299">
        <ele>722</ele>
        <time>2021-12-21T12:12:45.000Z</time>
      </trkpt>
      <trkpt lat="44.03187" lon="6.00297">
        <ele>721</ele>
        <time>2021-12-21T12:12:46.000Z</time>
      </trkpt>
      <trkpt lat="44.03187" lon="6.00296">
        <ele>721</ele>
        <time>2021-12-21T12:12:47.000Z</time>
      </trkpt>
      <trkpt lat="44.03186" lon="6.00294">
        <ele>721</ele>
        <time>2021-12-21T12:12:48.000Z</time>
      </trkpt>
      <trkpt lat="44.03186" lon="6.00293">
        <ele>721</ele>
        <time>2021-12-21T12:12:49.000Z</time>
      </trkpt>
      <trkpt lat="44.03186" lon="6.00291">
        <ele>721</ele>
        <time>2021-12-21T12:12:50.000Z</time>
      </trkpt>
      <trkpt lat="44.03186" lon="6.0029">
        <ele>721</ele>
        <time>2021-12-21T12:12:51.000Z</time>
      </trkpt>
      <trkpt lat="44.03186" lon="6.00288">
        <ele>721</ele>
        <time>2021-12-21T12:12:52.000Z</time>
      </trkpt>
      <trkpt lat="44.03186" lon="6.00286">
        <ele>720</ele>
        <time>2021-12-21T12:12:53.000Z</time>
      </trkpt>
      <trkpt lat="44.03186" lon="6.00285">
        <ele>720</ele>
        <time>2021-12-21T12:12:54.000Z</time>
      </trkpt>
      <trkpt lat="44.03186" lon="6.00283">
        <ele>720</ele>
        <time>2021-12-21T12:12:55.000Z</time>
      </trkpt>
      <trkpt lat="44.03186" lon="6.00281">
        <ele>720</ele>
        <time>2021-12-21T12:12:56.000Z</time>
      </trkpt>
      <trkpt lat="44.03186" lon="6.00279">
        <ele>719</ele>
        <time>2021-12-21T12:12:57.000Z</time>
      </trkpt>
      <trkpt lat="44.03186" lon="6.00278">
        <ele>719</ele>
        <time>2021-12-21T12:12:58.000Z</time>
      </trkpt>
      <trkpt lat="44.03186" lon="6.00276">
        <ele>719</ele>
        <time>2021-12-21T12:12:59.000Z</time>
      </trkpt>
      <trkpt lat="44.03186" lon="6.00275">
        <ele>719</ele>
        <time>2021-12-21T12:13:00.000Z</time>
      </trkpt>
      <trkpt lat="44.03187" lon="6.00273">
        <ele>719</ele>
        <time>2021-12-21T12:13:01.000Z</time>
      </trkpt>
      <trkpt lat="44.03187" lon="6.00272">
        <ele>718</ele>
        <time>2021-12-21T12:13:02.000Z</time>
      </trkpt>
      <trkpt lat="44.03187" lon="6.0027">
        <ele>718</ele>
        <time>2021-12-21T12:13:03.000Z</time>
      </trkpt>
      <trkpt lat="44.03187" lon="6.00269">
        <ele>718</ele>
        <time>2021-12-21T12:13:04.000Z</time>
      </trkpt>
      <trkpt lat="44.03188" lon="6.00267">
        <ele>718</ele>
        <time>2021-12-21T12:13:05.000Z</time>
      </trkpt>
      <trkpt lat="44.03188" lon="6.00266">
        <ele>718</ele>
        <time>2021-12-21T12:13:06.000Z</time>
      </trkpt>
      <trkpt lat="44.03189" lon="6.00264">
        <ele>718</ele>
        <time>2021-12-21T12:13:07.000Z</time>
      </trkpt>
      <trkpt lat="44.03189" lon="6.00263">
        <ele>718</ele>
        <time>2021-12-21T12:13:08.000Z</time>
      </trkpt>
      <trkpt lat="44.03189" lon="6.00261">
        <ele>718</ele>
        <time>2021-12-21T12:13:09.000Z</time>
      </trkpt>
      <trkpt lat="44.03189" lon="6.00259">
        <ele>717</ele>
        <time>2021-12-21T12:13:10.000Z</time>
      </trkpt>
      <trkpt lat="44.03189" lon="6.00257">
        <ele>717</ele>
        <time>2021-12-21T12:13:11.000Z</time>
      </trkpt>
      <trkpt lat="44.0319" lon="6.00255">
        <ele>717</ele>
        <time>2021-12-21T12:13:12.000Z</time>
      </trkpt>
      <trkpt lat="44.03189" lon="6.00254">
        <ele>717</ele>
        <time>2021-12-21T12:13:13.000Z</time>
      </trkpt>
      <trkpt lat="44.0319" lon="6.00252">
        <ele>717</ele>
        <time>2021-12-21T12:13:14.000Z</time>
      </trkpt>
      <trkpt lat="44.0319" lon="6.0025">
        <ele>716</ele>
        <time>2021-12-21T12:13:15.000Z</time>
      </trkpt>
      <trkpt lat="44.0319" lon="6.00249">
        <ele>716</ele>
        <time>2021-12-21T12:13:16.000Z</time>
      </trkpt>
      <trkpt lat="44.0319" lon="6.00247">
        <ele>716</ele>
        <time>2021-12-21T12:13:17.000Z</time>
      </trkpt>
      <trkpt lat="44.0319" lon="6.00245">
        <ele>716</ele>
        <time>2021-12-21T12:13:18.000Z</time>
      </trkpt>
      <trkpt lat="44.03191" lon="6.00243">
        <ele>715</ele>
        <time>2021-12-21T12:13:19.000Z</time>
      </trkpt>
      <trkpt lat="44.03191" lon="6.00241">
        <ele>715</ele>
        <time>2021-12-21T12:13:20.000Z</time>
      </trkpt>
      <trkpt lat="44.03191" lon="6.0024">
        <ele>715</ele>
        <time>2021-12-21T12:13:21.000Z</time>
      </trkpt>
      <trkpt lat="44.03191" lon="6.00238">
        <ele>715</ele>
        <time>2021-12-21T12:13:22.000Z</time>
      </trkpt>
      <trkpt lat="44.03192" lon="6.00237">
        <ele>715</ele>
        <time>2021-12-21T12:13:23.000Z</time>
      </trkpt>
      <trkpt lat="44.03192" lon="6.00235">
        <ele>715</ele>
        <time>2021-12-21T12:13:24.000Z</time>
      </trkpt>
      <trkpt lat="44.03192" lon="6.00234">
        <ele>715</ele>
        <time>2021-12-21T12:13:25.000Z</time>
      </trkpt>
      <trkpt lat="44.03193" lon="6.00232">
        <ele>715</ele>
        <time>2021-12-21T12:13:26.000Z</time>
      </trkpt>
      <trkpt lat="44.03193" lon="6.0023">
        <ele>715</ele>
        <time>2021-12-21T12:13:27.000Z</time>
      </trkpt>
      <trkpt lat="44.03193" lon="6.00229">
        <ele>714</ele>
        <time>2021-12-21T12:13:28.000Z</time>
      </trkpt>
      <trkpt lat="44.03194" lon="6.00227">
        <ele>714</ele>
        <time>2021-12-21T12:13:29.000Z</time>
      </trkpt>
      <trkpt lat="44.03195" lon="6.00225">
        <ele>714</ele>
        <time>2021-12-21T12:13:30.000Z</time>
      </trkpt>
      <trkpt lat="44.03195" lon="6.00224">
        <ele>714</ele>
        <time>2021-12-21T12:13:31.000Z</time>
      </trkpt>
      <trkpt lat="44.03196" lon="6.00222">
        <ele>714</ele>
        <time>2021-12-21T12:13:32.000Z</time>
      </trkpt>
      <trkpt lat="44.03196" lon="6.0022">
        <ele>714</ele>
        <time>2021-12-21T12:13:33.000Z</time>
      </trkpt>
      <trkpt lat="44.03196" lon="6.00219">
        <ele>714</ele>
        <time>2021-12-21T12:13:34.000Z</time>
      </trkpt>
      <trkpt lat="44.03197" lon="6.00218">
        <ele>714</ele>
        <time>2021-12-21T12:13:35.000Z</time>
      </trkpt>
      <trkpt lat="44.03197" lon="6.00217">
        <ele>714</ele>
        <time>2021-12-21T12:13:36.000Z</time>
      </trkpt>
      <trkpt lat="44.03198" lon="6.00215">
        <ele>714</ele>
        <time>2021-12-21T12:13:37.000Z</time>
      </trkpt>
      <trkpt lat="44.03198" lon="6.00214">
        <ele>714</ele>
        <time>2021-12-21T12:13:38.000Z</time>
      </trkpt>
      <trkpt lat="44.03199" lon="6.00212">
        <ele>714</ele>
        <time>2021-12-21T12:13:39.000Z</time>
      </trkpt>
      <trkpt lat="44.03199" lon="6.00211">
        <ele>714</ele>
        <time>2021-12-21T12:13:40.000Z</time>
      </trkpt>
      <trkpt lat="44.032" lon="6.00209">
        <ele>714</ele>
        <time>2021-12-21T12:13:41.000Z</time>
      </trkpt>
      <trkpt lat="44.032" lon="6.00208">
        <ele>714</ele>
        <time>2021-12-21T12:13:42.000Z</time>
      </trkpt>
      <trkpt lat="44.03201" lon="6.00206">
        <ele>714</ele>
        <time>2021-12-21T12:13:43.000Z</time>
      </trkpt>
      <trkpt lat="44.03201" lon="6.00204">
        <ele>714</ele>
        <time>2021-12-21T12:13:44.000Z</time>
      </trkpt>
      <trkpt lat="44.03202" lon="6.00203">
        <ele>714</ele>
        <time>2021-12-21T12:13:45.000Z</time>
      </trkpt>
      <trkpt lat="44.03203" lon="6.00202">
        <ele>714</ele>
        <time>2021-12-21T12:13:46.000Z</time>
      </trkpt>
      <trkpt lat="44.03203" lon="6.002">
        <ele>714</ele>
        <time>2021-12-21T12:13:47.000Z</time>
      </trkpt>
      <trkpt lat="44.03204" lon="6.00199">
        <ele>714</ele>
        <time>2021-12-21T12:13:48.000Z</time>
      </trkpt>
      <trkpt lat="44.03205" lon="6.00197">
        <ele>714</ele>
        <time>2021-12-21T12:13:49.000Z</time>
      </trkpt>
      <trkpt lat="44.03206" lon="6.00196">
        <ele>714</ele>
        <time>2021-12-21T12:13:50.000Z</time>
      </trkpt>
      <trkpt lat="44.03207" lon="6.00194">
        <ele>714</ele>
        <time>2021-12-21T12:13:51.000Z</time>
      </trkpt>
      <trkpt lat="44.03207" lon="6.00193">
        <ele>714</ele>
        <time>2021-12-21T12:13:52.000Z</time>
      </trkpt>
      <trkpt lat="44.03208" lon="6.00192">
        <ele>714</ele>
        <time>2021-12-21T12:13:53.000Z</time>
      </trkpt>
      <trkpt lat="44.03209" lon="6.0019">
        <ele>714</ele>
        <time>2021-12-21T12:13:54.000Z</time>
      </trkpt>
      <trkpt lat="44.0321" lon="6.00189">
        <ele>714</ele>
        <time>2021-12-21T12:13:55.000Z</time>
      </trkpt>
      <trkpt lat="44.03211" lon="6.00188">
        <ele>714</ele>
        <time>2021-12-21T12:13:56.000Z</time>
      </trkpt>
      <trkpt lat="44.03212" lon="6.00186">
        <ele>713</ele>
        <time>2021-12-21T12:13:57.000Z</time>
      </trkpt>
      <trkpt lat="44.03213" lon="6.00185">
        <ele>713</ele>
        <time>2021-12-21T12:13:58.000Z</time>
      </trkpt>
      <trkpt lat="44.03214" lon="6.00184">
        <ele>713</ele>
        <time>2021-12-21T12:13:59.000Z</time>
      </trkpt>
      <trkpt lat="44.03215" lon="6.00183">
        <ele>713</ele>
        <time>2021-12-21T12:14:00.000Z</time>
      </trkpt>
      <trkpt lat="44.03215" lon="6.00181">
        <ele>713</ele>
        <time>2021-12-21T12:14:01.000Z</time>
      </trkpt>
      <trkpt lat="44.03216" lon="6.0018">
        <ele>713</ele>
        <time>2021-12-21T12:14:02.000Z</time>
      </trkpt>
      <trkpt lat="44.03217" lon="6.00178">
        <ele>713</ele>
        <time>2021-12-21T12:14:03.000Z</time>
      </trkpt>
      <trkpt lat="44.03218" lon="6.00177">
        <ele>713</ele>
        <time>2021-12-21T12:14:04.000Z</time>
      </trkpt>
      <trkpt lat="44.03218" lon="6.00176">
        <ele>712</ele>
        <time>2021-12-21T12:14:05.000Z</time>
      </trkpt>
      <trkpt lat="44.03219" lon="6.00175">
        <ele>712</ele>
        <time>2021-12-21T12:14:06.000Z</time>
      </trkpt>
      <trkpt lat="44.0322" lon="6.00173">
        <ele>712</ele>
        <time>2021-12-21T12:14:07.000Z</time>
      </trkpt>
      <trkpt lat="44.03221" lon="6.00172">
        <ele>712</ele>
        <time>2021-12-21T12:14:08.000Z</time>
      </trkpt>
      <trkpt lat="44.03222" lon="6.0017">
        <ele>712</ele>
        <time>2021-12-21T12:14:09.000Z</time>
      </trkpt>
      <trkpt lat="44.03222" lon="6.00169">
        <ele>712</ele>
        <time>2021-12-21T12:14:10.000Z</time>
      </trkpt>
      <trkpt lat="44.03223" lon="6.00168">
        <ele>712</ele>
        <time>2021-12-21T12:14:11.000Z</time>
      </trkpt>
      <trkpt lat="44.03224" lon="6.00167">
        <ele>712</ele>
        <time>2021-12-21T12:14:12.000Z</time>
      </trkpt>
      <trkpt lat="44.03225" lon="6.00165">
        <ele>712</ele>
        <time>2021-12-21T12:14:13.000Z</time>
      </trkpt>
      <trkpt lat="44.03226" lon="6.00164">
        <ele>712</ele>
        <time>2021-12-21T12:14:14.000Z</time>
      </trkpt>
      <trkpt lat="44.03227" lon="6.00163">
        <ele>712</ele>
        <time>2021-12-21T12:14:15.000Z</time>
      </trkpt>
      <trkpt lat="44.03227" lon="6.00162">
        <ele>712</ele>
        <time>2021-12-21T12:14:16.000Z</time>
      </trkpt>
      <trkpt lat="44.03228" lon="6.00161">
        <ele>712</ele>
        <time>2021-12-21T12:14:17.000Z</time>
      </trkpt>
      <trkpt lat="44.03229" lon="6.0016">
        <ele>712</ele>
        <time>2021-12-21T12:14:18.000Z</time>
      </trkpt>
      <trkpt lat="44.03229" lon="6.0016">
        <ele>712</ele>
        <time>2021-12-21T12:14:19.000Z</time>
      </trkpt>
      <trkpt lat="44.03229" lon="6.00159">
        <ele>712</ele>
        <time>2021-12-21T12:14:20.000Z</time>
      </trkpt>
      <trkpt lat="44.03229" lon="6.00158">
        <ele>712</ele>
        <time>2021-12-21T12:14:21.000Z</time>
      </trkpt>
      <trkpt lat="44.0323" lon="6.00156">
        <ele>713</ele>
        <time>2021-12-21T12:14:22.000Z</time>
      </trkpt>
      <trkpt lat="44.0323" lon="6.00155">
        <ele>713</ele>
        <time>2021-12-21T12:14:23.000Z</time>
      </trkpt>
      <trkpt lat="44.03231" lon="6.00153">
        <ele>713</ele>
        <time>2021-12-21T12:14:24.000Z</time>
      </trkpt>
      <trkpt lat="44.03231" lon="6.00152">
        <ele>713</ele>
        <time>2021-12-21T12:14:25.000Z</time>
      </trkpt>
      <trkpt lat="44.03231" lon="6.0015">
        <ele>713</ele>
        <time>2021-12-21T12:14:26.000Z</time>
      </trkpt>
      <trkpt lat="44.03232" lon="6.00149">
        <ele>713</ele>
        <time>2021-12-21T12:14:27.000Z</time>
      </trkpt>
      <trkpt lat="44.03232" lon="6.00147">
        <ele>713</ele>
        <time>2021-12-21T12:14:28.000Z</time>
      </trkpt>
      <trkpt lat="44.03231" lon="6.00146">
        <ele>714</ele>
        <time>2021-12-21T12:14:29.000Z</time>
      </trkpt>
      <trkpt lat="44.03231" lon="6.00144">
        <ele>714</ele>
        <time>2021-12-21T12:14:30.000Z</time>
      </trkpt>
      <trkpt lat="44.03231" lon="6.00143">
        <ele>714</ele>
        <time>2021-12-21T12:14:31.000Z</time>
      </trkpt>
      <trkpt lat="44.0323" lon="6.00141">
        <ele>714</ele>
        <time>2021-12-21T12:14:32.000Z</time>
      </trkpt>
      <trkpt lat="44.0323" lon="6.0014">
        <ele>714</ele>
        <time>2021-12-21T12:14:33.000Z</time>
      </trkpt>
      <trkpt lat="44.0323" lon="6.00139">
        <ele>714</ele>
        <time>2021-12-21T12:14:34.000Z</time>
      </trkpt>
      <trkpt lat="44.0323" lon="6.00137">
        <ele>713</ele>
        <time>2021-12-21T12:14:35.000Z</time>
      </trkpt>
      <trkpt lat="44.0323" lon="6.00135">
        <ele>713</ele>
        <time>2021-12-21T12:14:36.000Z</time>
      </trkpt>
      <trkpt lat="44.0323" lon="6.00134">
        <ele>713</ele>
        <time>2021-12-21T12:14:37.000Z</time>
      </trkpt>
      <trkpt lat="44.03229" lon="6.00132">
        <ele>713</ele>
        <time>2021-12-21T12:14:38.000Z</time>
      </trkpt>
      <trkpt lat="44.03229" lon="6.00131">
        <ele>713</ele>
        <time>2021-12-21T12:14:39.000Z</time>
      </trkpt>
      <trkpt lat="44.03229" lon="6.00129">
        <ele>713</ele>
        <time>2021-12-21T12:14:40.000Z</time>
      </trkpt>
      <trkpt lat="44.03229" lon="6.00128">
        <ele>713</ele>
        <time>2021-12-21T12:14:41.000Z</time>
      </trkpt>
      <trkpt lat="44.03229" lon="6.00126">
        <ele>713</ele>
        <time>2021-12-21T12:14:42.000Z</time>
      </trkpt>
      <trkpt lat="44.03229" lon="6.00124">
        <ele>713</ele>
        <time>2021-12-21T12:14:43.000Z</time>
      </trkpt>
      <trkpt lat="44.03229" lon="6.00123">
        <ele>713</ele>
        <time>2021-12-21T12:14:44.000Z</time>
      </trkpt>
      <trkpt lat="44.03228" lon="6.00122">
        <ele>713</ele>
        <time>2021-12-21T12:14:45.000Z</time>
      </trkpt>
      <trkpt lat="44.03228" lon="6.0012">
        <ele>713</ele>
        <time>2021-12-21T12:14:46.000Z</time>
      </trkpt>
      <trkpt lat="44.03227" lon="6.00119">
        <ele>713</ele>
        <time>2021-12-21T12:14:47.000Z</time>
      </trkpt>
      <trkpt lat="44.03227" lon="6.00117">
        <ele>713</ele>
        <time>2021-12-21T12:14:48.000Z</time>
      </trkpt>
      <trkpt lat="44.03227" lon="6.00116">
        <ele>713</ele>
        <time>2021-12-21T12:14:49.000Z</time>
      </trkpt>
      <trkpt lat="44.03226" lon="6.00114">
        <ele>713</ele>
        <time>2021-12-21T12:14:50.000Z</time>
      </trkpt>
      <trkpt lat="44.03226" lon="6.00112">
        <ele>713</ele>
        <time>2021-12-21T12:14:51.000Z</time>
      </trkpt>
      <trkpt lat="44.03226" lon="6.00111">
        <ele>713</ele>
        <time>2021-12-21T12:14:52.000Z</time>
      </trkpt>
      <trkpt lat="44.03225" lon="6.00109">
        <ele>713</ele>
        <time>2021-12-21T12:14:53.000Z</time>
      </trkpt>
      <trkpt lat="44.03225" lon="6.00108">
        <ele>713</ele>
        <time>2021-12-21T12:14:54.000Z</time>
      </trkpt>
      <trkpt lat="44.03225" lon="6.00106">
        <ele>713</ele>
        <time>2021-12-21T12:14:55.000Z</time>
      </trkpt>
      <trkpt lat="44.03225" lon="6.00104">
        <ele>713</ele>
        <time>2021-12-21T12:14:56.000Z</time>
      </trkpt>
      <trkpt lat="44.03225" lon="6.00103">
        <ele>713</ele>
        <time>2021-12-21T12:14:57.000Z</time>
      </trkpt>
      <trkpt lat="44.03225" lon="6.00102">
        <ele>712</ele>
        <time>2021-12-21T12:14:58.000Z</time>
      </trkpt>
      <trkpt lat="44.03225" lon="6.001">
        <ele>712</ele>
        <time>2021-12-21T12:14:59.000Z</time>
      </trkpt>
      <trkpt lat="44.03225" lon="6.00099">
        <ele>712</ele>
        <time>2021-12-21T12:15:00.000Z</time>
      </trkpt>
      <trkpt lat="44.03225" lon="6.00097">
        <ele>712</ele>
        <time>2021-12-21T12:15:01.000Z</time>
      </trkpt>
      <trkpt lat="44.03225" lon="6.00096">
        <ele>712</ele>
        <time>2021-12-21T12:15:02.000Z</time>
      </trkpt>
      <trkpt lat="44.03225" lon="6.00094">
        <ele>712</ele>
        <time>2021-12-21T12:15:03.000Z</time>
      </trkpt>
      <trkpt lat="44.03225" lon="6.00093">
        <ele>712</ele>
        <time>2021-12-21T12:15:04.000Z</time>
      </trkpt>
      <trkpt lat="44.03225" lon="6.00091">
        <ele>712</ele>
        <time>2021-12-21T12:15:05.000Z</time>
      </trkpt>
      <trkpt lat="44.03225" lon="6.0009">
        <ele>711</ele>
        <time>2021-12-21T12:15:06.000Z</time>
      </trkpt>
      <trkpt lat="44.03225" lon="6.00088">
        <ele>711</ele>
        <time>2021-12-21T12:15:07.000Z</time>
      </trkpt>
      <trkpt lat="44.03225" lon="6.00086">
        <ele>711</ele>
        <time>2021-12-21T12:15:08.000Z</time>
      </trkpt>
      <trkpt lat="44.03225" lon="6.00085">
        <ele>711</ele>
        <time>2021-12-21T12:15:09.000Z</time>
      </trkpt>
      <trkpt lat="44.03224" lon="6.00084">
        <ele>711</ele>
        <time>2021-12-21T12:15:10.000Z</time>
      </trkpt>
      <trkpt lat="44.03224" lon="6.00083">
        <ele>711</ele>
        <time>2021-12-21T12:15:11.000Z</time>
      </trkpt>
      <trkpt lat="44.03224" lon="6.00081">
        <ele>711</ele>
        <time>2021-12-21T12:15:12.000Z</time>
      </trkpt>
      <trkpt lat="44.03224" lon="6.0008">
        <ele>711</ele>
        <time>2021-12-21T12:15:13.000Z</time>
      </trkpt>
      <trkpt lat="44.03223" lon="6.00078">
        <ele>711</ele>
        <time>2021-12-21T12:15:14.000Z</time>
      </trkpt>
      <trkpt lat="44.03223" lon="6.00077">
        <ele>710</ele>
        <time>2021-12-21T12:15:15.000Z</time>
      </trkpt>
      <trkpt lat="44.03223" lon="6.00076">
        <ele>710</ele>
        <time>2021-12-21T12:15:16.000Z</time>
      </trkpt>
      <trkpt lat="44.03222" lon="6.00074">
        <ele>710</ele>
        <time>2021-12-21T12:15:17.000Z</time>
      </trkpt>
      <trkpt lat="44.03222" lon="6.00073">
        <ele>710</ele>
        <time>2021-12-21T12:15:18.000Z</time>
      </trkpt>
      <trkpt lat="44.03221" lon="6.00071">
        <ele>710</ele>
        <time>2021-12-21T12:15:19.000Z</time>
      </trkpt>
      <trkpt lat="44.03221" lon="6.0007">
        <ele>709</ele>
        <time>2021-12-21T12:15:20.000Z</time>
      </trkpt>
      <trkpt lat="44.03221" lon="6.00068">
        <ele>709</ele>
        <time>2021-12-21T12:15:21.000Z</time>
      </trkpt>
      <trkpt lat="44.0322" lon="6.00067">
        <ele>709</ele>
        <time>2021-12-21T12:15:22.000Z</time>
      </trkpt>
      <trkpt lat="44.0322" lon="6.00065">
        <ele>709</ele>
        <time>2021-12-21T12:15:23.000Z</time>
      </trkpt>
      <trkpt lat="44.03219" lon="6.00064">
        <ele>709</ele>
        <time>2021-12-21T12:15:24.000Z</time>
      </trkpt>
      <trkpt lat="44.03219" lon="6.00062">
        <ele>709</ele>
        <time>2021-12-21T12:15:25.000Z</time>
      </trkpt>
      <trkpt lat="44.03218" lon="6.00061">
        <ele>709</ele>
        <time>2021-12-21T12:15:26.000Z</time>
      </trkpt>
      <trkpt lat="44.03218" lon="6.00059">
        <ele>709</ele>
        <time>2021-12-21T12:15:27.000Z</time>
      </trkpt>
      <trkpt lat="44.03217" lon="6.00058">
        <ele>708</ele>
        <time>2021-12-21T12:15:28.000Z</time>
      </trkpt>
      <trkpt lat="44.03217" lon="6.00056">
        <ele>708</ele>
        <time>2021-12-21T12:15:29.000Z</time>
      </trkpt>
      <trkpt lat="44.03216" lon="6.00055">
        <ele>708</ele>
        <time>2021-12-21T12:15:30.000Z</time>
      </trkpt>
      <trkpt lat="44.03215" lon="6.00054">
        <ele>708</ele>
        <time>2021-12-21T12:15:31.000Z</time>
      </trkpt>
      <trkpt lat="44.03215" lon="6.00052">
        <ele>708</ele>
        <time>2021-12-21T12:15:32.000Z</time>
      </trkpt>
      <trkpt lat="44.03214" lon="6.0005">
        <ele>708</ele>
        <time>2021-12-21T12:15:33.000Z</time>
      </trkpt>
      <trkpt lat="44.03214" lon="6.00048">
        <ele>708</ele>
        <time>2021-12-21T12:15:34.000Z</time>
      </trkpt>
      <trkpt lat="44.03213" lon="6.00047">
        <ele>708</ele>
        <time>2021-12-21T12:15:35.000Z</time>
      </trkpt>
      <trkpt lat="44.03213" lon="6.00046">
        <ele>708</ele>
        <time>2021-12-21T12:15:36.000Z</time>
      </trkpt>
      <trkpt lat="44.03212" lon="6.00044">
        <ele>708</ele>
        <time>2021-12-21T12:15:37.000Z</time>
      </trkpt>
      <trkpt lat="44.03212" lon="6.00043">
        <ele>708</ele>
        <time>2021-12-21T12:15:38.000Z</time>
      </trkpt>
      <trkpt lat="44.03211" lon="6.00041">
        <ele>708</ele>
        <time>2021-12-21T12:15:39.000Z</time>
      </trkpt>
      <trkpt lat="44.03211" lon="6.0004">
        <ele>708</ele>
        <time>2021-12-21T12:15:40.000Z</time>
      </trkpt>
      <trkpt lat="44.03211" lon="6.00038">
        <ele>708</ele>
        <time>2021-12-21T12:15:41.000Z</time>
      </trkpt>
      <trkpt lat="44.0321" lon="6.00036">
        <ele>708</ele>
        <time>2021-12-21T12:15:42.000Z</time>
      </trkpt>
      <trkpt lat="44.0321" lon="6.00035">
        <ele>707</ele>
        <time>2021-12-21T12:15:43.000Z</time>
      </trkpt>
      <trkpt lat="44.0321" lon="6.00033">
        <ele>707</ele>
        <time>2021-12-21T12:15:44.000Z</time>
      </trkpt>
      <trkpt lat="44.0321" lon="6.00032">
        <ele>707</ele>
        <time>2021-12-21T12:15:45.000Z</time>
      </trkpt>
      <trkpt lat="44.03209" lon="6.0003">
        <ele>707</ele>
        <time>2021-12-21T12:15:46.000Z</time>
      </trkpt>
      <trkpt lat="44.03209" lon="6.00029">
        <ele>707</ele>
        <time>2021-12-21T12:15:47.000Z</time>
      </trkpt>
      <trkpt lat="44.03209" lon="6.00028">
        <ele>707</ele>
        <time>2021-12-21T12:15:48.000Z</time>
      </trkpt>
      <trkpt lat="44.03209" lon="6.00026">
        <ele>707</ele>
        <time>2021-12-21T12:15:49.000Z</time>
      </trkpt>
      <trkpt lat="44.03208" lon="6.00024">
        <ele>707</ele>
        <time>2021-12-21T12:15:50.000Z</time>
      </trkpt>
      <trkpt lat="44.03208" lon="6.00023">
        <ele>706</ele>
        <time>2021-12-21T12:15:51.000Z</time>
      </trkpt>
      <trkpt lat="44.03208" lon="6.00022">
        <ele>706</ele>
        <time>2021-12-21T12:15:52.000Z</time>
      </trkpt>
      <trkpt lat="44.03208" lon="6.0002">
        <ele>706</ele>
        <time>2021-12-21T12:15:53.000Z</time>
      </trkpt>
      <trkpt lat="44.03208" lon="6.00018">
        <ele>706</ele>
        <time>2021-12-21T12:15:54.000Z</time>
      </trkpt>
      <trkpt lat="44.03208" lon="6.00017">
        <ele>706</ele>
        <time>2021-12-21T12:15:55.000Z</time>
      </trkpt>
      <trkpt lat="44.03208" lon="6.00016">
        <ele>706</ele>
        <time>2021-12-21T12:15:56.000Z</time>
      </trkpt>
      <trkpt lat="44.03208" lon="6.00014">
        <ele>706</ele>
        <time>2021-12-21T12:15:57.000Z</time>
      </trkpt>
      <trkpt lat="44.03208" lon="6.00013">
        <ele>705</ele>
        <time>2021-12-21T12:15:58.000Z</time>
      </trkpt>
      <trkpt lat="44.03208" lon="6.00011">
        <ele>705</ele>
        <time>2021-12-21T12:15:59.000Z</time>
      </trkpt>
      <trkpt lat="44.03208" lon="6.00009">
        <ele>705</ele>
        <time>2021-12-21T12:16:00.000Z</time>
      </trkpt>
      <trkpt lat="44.03208" lon="6.00008">
        <ele>705</ele>
        <time>2021-12-21T12:16:01.000Z</time>
      </trkpt>
      <trkpt lat="44.03207" lon="6.00006">
        <ele>705</ele>
        <time>2021-12-21T12:16:02.000Z</time>
      </trkpt>
      <trkpt lat="44.03207" lon="6.00005">
        <ele>704</ele>
        <time>2021-12-21T12:16:03.000Z</time>
      </trkpt>
      <trkpt lat="44.03207" lon="6.00004">
        <ele>704</ele>
        <time>2021-12-21T12:16:04.000Z</time>
      </trkpt>
      <trkpt lat="44.03207" lon="6.00002">
        <ele>704</ele>
        <time>2021-12-21T12:16:05.000Z</time>
      </trkpt>
      <trkpt lat="44.03207" lon="6.00001">
        <ele>704</ele>
        <time>2021-12-21T12:16:06.000Z</time>
      </trkpt>
      <trkpt lat="44.03206" lon="5.99999">
        <ele>703</ele>
        <time>2021-12-21T12:16:07.000Z</time>
      </trkpt>
      <trkpt lat="44.03206" lon="5.99998">
        <ele>703</ele>
        <time>2021-12-21T12:16:08.000Z</time>
      </trkpt>
      <trkpt lat="44.03206" lon="5.99996">
        <ele>703</ele>
        <time>2021-12-21T12:16:09.000Z</time>
      </trkpt>
      <trkpt lat="44.03205" lon="5.99995">
        <ele>703</ele>
        <time>2021-12-21T12:16:10.000Z</time>
      </trkpt>
      <trkpt lat="44.03205" lon="5.99993">
        <ele>703</ele>
        <time>2021-12-21T12:16:11.000Z</time>
      </trkpt>
      <trkpt lat="44.03205" lon="5.99992">
        <ele>702</ele>
        <time>2021-12-21T12:16:12.000Z</time>
      </trkpt>
      <trkpt lat="44.03204" lon="5.9999">
        <ele>702</ele>
        <time>2021-12-21T12:16:13.000Z</time>
      </trkpt>
      <trkpt lat="44.03204" lon="5.99989">
        <ele>702</ele>
        <time>2021-12-21T12:16:14.000Z</time>
      </trkpt>
      <trkpt lat="44.03203" lon="5.99988">
        <ele>702</ele>
        <time>2021-12-21T12:16:15.000Z</time>
      </trkpt>
      <trkpt lat="44.03203" lon="5.99986">
        <ele>702</ele>
        <time>2021-12-21T12:16:16.000Z</time>
      </trkpt>
      <trkpt lat="44.03203" lon="5.99985">
        <ele>702</ele>
        <time>2021-12-21T12:16:17.000Z</time>
      </trkpt>
      <trkpt lat="44.03202" lon="5.99984">
        <ele>702</ele>
        <time>2021-12-21T12:16:18.000Z</time>
      </trkpt>
      <trkpt lat="44.03202" lon="5.99982">
        <ele>701</ele>
        <time>2021-12-21T12:16:19.000Z</time>
      </trkpt>
      <trkpt lat="44.03201" lon="5.99981">
        <ele>701</ele>
        <time>2021-12-21T12:16:20.000Z</time>
      </trkpt>
      <trkpt lat="44.03201" lon="5.99979">
        <ele>701</ele>
        <time>2021-12-21T12:16:21.000Z</time>
      </trkpt>
      <trkpt lat="44.03201" lon="5.99978">
        <ele>701</ele>
        <time>2021-12-21T12:16:22.000Z</time>
      </trkpt>
      <trkpt lat="44.032" lon="5.99976">
        <ele>701</ele>
        <time>2021-12-21T12:16:23.000Z</time>
      </trkpt>
      <trkpt lat="44.032" lon="5.99975">
        <ele>701</ele>
        <time>2021-12-21T12:16:24.000Z</time>
      </trkpt>
      <trkpt lat="44.03199" lon="5.99974">
        <ele>701</ele>
        <time>2021-12-21T12:16:25.000Z</time>
      </trkpt>
      <trkpt lat="44.03199" lon="5.99972">
        <ele>701</ele>
        <time>2021-12-21T12:16:26.000Z</time>
      </trkpt>
      <trkpt lat="44.03199" lon="5.99971">
        <ele>700</ele>
        <time>2021-12-21T12:16:27.000Z</time>
      </trkpt>
      <trkpt lat="44.03198" lon="5.99969">
        <ele>700</ele>
        <time>2021-12-21T12:16:28.000Z</time>
      </trkpt>
      <trkpt lat="44.03198" lon="5.99968">
        <ele>700</ele>
        <time>2021-12-21T12:16:29.000Z</time>
      </trkpt>
      <trkpt lat="44.03198" lon="5.99966">
        <ele>700</ele>
        <time>2021-12-21T12:16:30.000Z</time>
      </trkpt>
      <trkpt lat="44.03197" lon="5.99965">
        <ele>700</ele>
        <time>2021-12-21T12:16:31.000Z</time>
      </trkpt>
      <trkpt lat="44.03197" lon="5.99964">
        <ele>700</ele>
        <time>2021-12-21T12:16:32.000Z</time>
      </trkpt>
      <trkpt lat="44.03197" lon="5.99963">
        <ele>700</ele>
        <time>2021-12-21T12:16:33.000Z</time>
      </trkpt>
      <trkpt lat="44.03197" lon="5.99961">
        <ele>700</ele>
        <time>2021-12-21T12:16:34.000Z</time>
      </trkpt>
      <trkpt lat="44.03197" lon="5.9996">
        <ele>699</ele>
        <time>2021-12-21T12:16:35.000Z</time>
      </trkpt>
      <trkpt lat="44.03196" lon="5.99959">
        <ele>699</ele>
        <time>2021-12-21T12:16:36.000Z</time>
      </trkpt>
      <trkpt lat="44.03196" lon="5.99957">
        <ele>699</ele>
        <time>2021-12-21T12:16:37.000Z</time>
      </trkpt>
      <trkpt lat="44.03196" lon="5.99956">
        <ele>699</ele>
        <time>2021-12-21T12:16:38.000Z</time>
      </trkpt>
      <trkpt lat="44.03196" lon="5.99955">
        <ele>699</ele>
        <time>2021-12-21T12:16:39.000Z</time>
      </trkpt>
      <trkpt lat="44.03196" lon="5.99953">
        <ele>698</ele>
        <time>2021-12-21T12:16:40.000Z</time>
      </trkpt>
      <trkpt lat="44.03196" lon="5.99952">
        <ele>698</ele>
        <time>2021-12-21T12:16:41.000Z</time>
      </trkpt>
      <trkpt lat="44.03196" lon="5.9995">
        <ele>698</ele>
        <time>2021-12-21T12:16:42.000Z</time>
      </trkpt>
      <trkpt lat="44.03196" lon="5.99949">
        <ele>697</ele>
        <time>2021-12-21T12:16:43.000Z</time>
      </trkpt>
      <trkpt lat="44.03197" lon="5.99948">
        <ele>697</ele>
        <time>2021-12-21T12:16:44.000Z</time>
      </trkpt>
      <trkpt lat="44.03197" lon="5.99946">
        <ele>697</ele>
        <time>2021-12-21T12:16:45.000Z</time>
      </trkpt>
      <trkpt lat="44.03197" lon="5.99945">
        <ele>696</ele>
        <time>2021-12-21T12:16:46.000Z</time>
      </trkpt>
      <trkpt lat="44.03197" lon="5.99944">
        <ele>696</ele>
        <time>2021-12-21T12:16:47.000Z</time>
      </trkpt>
      <trkpt lat="44.03197" lon="5.99942">
        <ele>696</ele>
        <time>2021-12-21T12:16:48.000Z</time>
      </trkpt>
      <trkpt lat="44.03197" lon="5.99941">
        <ele>696</ele>
        <time>2021-12-21T12:16:49.000Z</time>
      </trkpt>
      <trkpt lat="44.03197" lon="5.99939">
        <ele>696</ele>
        <time>2021-12-21T12:16:50.000Z</time>
      </trkpt>
      <trkpt lat="44.03197" lon="5.99938">
        <ele>695</ele>
        <time>2021-12-21T12:16:51.000Z</time>
      </trkpt>
      <trkpt lat="44.03198" lon="5.99937">
        <ele>695</ele>
        <time>2021-12-21T12:16:52.000Z</time>
      </trkpt>
      <trkpt lat="44.03198" lon="5.99935">
        <ele>695</ele>
        <time>2021-12-21T12:16:53.000Z</time>
      </trkpt>
      <trkpt lat="44.03198" lon="5.99934">
        <ele>695</ele>
        <time>2021-12-21T12:16:54.000Z</time>
      </trkpt>
      <trkpt lat="44.03198" lon="5.99932">
        <ele>695</ele>
        <time>2021-12-21T12:16:55.000Z</time>
      </trkpt>
      <trkpt lat="44.03198" lon="5.99931">
        <ele>694</ele>
        <time>2021-12-21T12:16:56.000Z</time>
      </trkpt>
      <trkpt lat="44.03198" lon="5.9993">
        <ele>694</ele>
        <time>2021-12-21T12:16:57.000Z</time>
      </trkpt>
      <trkpt lat="44.03199" lon="5.99928">
        <ele>694</ele>
        <time>2021-12-21T12:16:58.000Z</time>
      </trkpt>
      <trkpt lat="44.03199" lon="5.99927">
        <ele>694</ele>
        <time>2021-12-21T12:16:59.000Z</time>
      </trkpt>
      <trkpt lat="44.03199" lon="5.99926">
        <ele>693</ele>
        <time>2021-12-21T12:17:00.000Z</time>
      </trkpt>
      <trkpt lat="44.03199" lon="5.99924">
        <ele>693</ele>
        <time>2021-12-21T12:17:01.000Z</time>
      </trkpt>
      <trkpt lat="44.03199" lon="5.99923">
        <ele>693</ele>
        <time>2021-12-21T12:17:02.000Z</time>
      </trkpt>
      <trkpt lat="44.03199" lon="5.99922">
        <ele>693</ele>
        <time>2021-12-21T12:17:03.000Z</time>
      </trkpt>
      <trkpt lat="44.03199" lon="5.9992">
        <ele>692</ele>
        <time>2021-12-21T12:17:04.000Z</time>
      </trkpt>
      <trkpt lat="44.03199" lon="5.99919">
        <ele>692</ele>
        <time>2021-12-21T12:17:05.000Z</time>
      </trkpt>
      <trkpt lat="44.032" lon="5.99918">
        <ele>692</ele>
        <time>2021-12-21T12:17:06.000Z</time>
      </trkpt>
      <trkpt lat="44.032" lon="5.99916">
        <ele>692</ele>
        <time>2021-12-21T12:17:07.000Z</time>
      </trkpt>
      <trkpt lat="44.032" lon="5.99915">
        <ele>692</ele>
        <time>2021-12-21T12:17:08.000Z</time>
      </trkpt>
      <trkpt lat="44.032" lon="5.99914">
        <ele>691</ele>
        <time>2021-12-21T12:17:09.000Z</time>
      </trkpt>
      <trkpt lat="44.032" lon="5.99913">
        <ele>691</ele>
        <time>2021-12-21T12:17:10.000Z</time>
      </trkpt>
      <trkpt lat="44.032" lon="5.99912">
        <ele>691</ele>
        <time>2021-12-21T12:17:11.000Z</time>
      </trkpt>
      <trkpt lat="44.032" lon="5.9991">
        <ele>691</ele>
        <time>2021-12-21T12:17:12.000Z</time>
      </trkpt>
      <trkpt lat="44.03201" lon="5.99909">
        <ele>690</ele>
        <time>2021-12-21T12:17:13.000Z</time>
      </trkpt>
      <trkpt lat="44.03201" lon="5.99908">
        <ele>690</ele>
        <time>2021-12-21T12:17:14.000Z</time>
      </trkpt>
      <trkpt lat="44.03201" lon="5.99907">
        <ele>690</ele>
        <time>2021-12-21T12:17:15.000Z</time>
      </trkpt>
      <trkpt lat="44.03201" lon="5.99906">
        <ele>690</ele>
        <time>2021-12-21T12:17:16.000Z</time>
      </trkpt>
      <trkpt lat="44.03201" lon="5.99904">
        <ele>690</ele>
        <time>2021-12-21T12:17:17.000Z</time>
      </trkpt>
      <trkpt lat="44.03201" lon="5.99903">
        <ele>689</ele>
        <time>2021-12-21T12:17:18.000Z</time>
      </trkpt>
      <trkpt lat="44.03201" lon="5.99901">
        <ele>689</ele>
        <time>2021-12-21T12:17:19.000Z</time>
      </trkpt>
      <trkpt lat="44.03201" lon="5.999">
        <ele>689</ele>
        <time>2021-12-21T12:17:20.000Z</time>
      </trkpt>
      <trkpt lat="44.03201" lon="5.99898">
        <ele>689</ele>
        <time>2021-12-21T12:17:21.000Z</time>
      </trkpt>
      <trkpt lat="44.03201" lon="5.99897">
        <ele>689</ele>
        <time>2021-12-21T12:17:22.000Z</time>
      </trkpt>
      <trkpt lat="44.03201" lon="5.99895">
        <ele>688</ele>
        <time>2021-12-21T12:17:23.000Z</time>
      </trkpt>
      <trkpt lat="44.03201" lon="5.99894">
        <ele>688</ele>
        <time>2021-12-21T12:17:24.000Z</time>
      </trkpt>
      <trkpt lat="44.03201" lon="5.99893">
        <ele>688</ele>
        <time>2021-12-21T12:17:25.000Z</time>
      </trkpt>
      <trkpt lat="44.03201" lon="5.99891">
        <ele>688</ele>
        <time>2021-12-21T12:17:26.000Z</time>
      </trkpt>
      <trkpt lat="44.03201" lon="5.9989">
        <ele>688</ele>
        <time>2021-12-21T12:17:27.000Z</time>
      </trkpt>
      <trkpt lat="44.03201" lon="5.99888">
        <ele>688</ele>
        <time>2021-12-21T12:17:28.000Z</time>
      </trkpt>
      <trkpt lat="44.03201" lon="5.99887">
        <ele>688</ele>
        <time>2021-12-21T12:17:29.000Z</time>
      </trkpt>
      <trkpt lat="44.03201" lon="5.99886">
        <ele>687</ele>
        <time>2021-12-21T12:17:30.000Z</time>
      </trkpt>
      <trkpt lat="44.03201" lon="5.99884">
        <ele>687</ele>
        <time>2021-12-21T12:17:31.000Z</time>
      </trkpt>
      <trkpt lat="44.03201" lon="5.99883">
        <ele>687</ele>
        <time>2021-12-21T12:17:32.000Z</time>
      </trkpt>
      <trkpt lat="44.03201" lon="5.99882">
        <ele>687</ele>
        <time>2021-12-21T12:17:33.000Z</time>
      </trkpt>
      <trkpt lat="44.03201" lon="5.9988">
        <ele>686</ele>
        <time>2021-12-21T12:17:34.000Z</time>
      </trkpt>
      <trkpt lat="44.03201" lon="5.99878">
        <ele>686</ele>
        <time>2021-12-21T12:17:35.000Z</time>
      </trkpt>
      <trkpt lat="44.032" lon="5.99877">
        <ele>686</ele>
        <time>2021-12-21T12:17:36.000Z</time>
      </trkpt>
      <trkpt lat="44.032" lon="5.99875">
        <ele>686</ele>
        <time>2021-12-21T12:17:37.000Z</time>
      </trkpt>
      <trkpt lat="44.032" lon="5.99874">
        <ele>685</ele>
        <time>2021-12-21T12:17:38.000Z</time>
      </trkpt>
      <trkpt lat="44.032" lon="5.99872">
        <ele>685</ele>
        <time>2021-12-21T12:17:39.000Z</time>
      </trkpt>
      <trkpt lat="44.032" lon="5.99871">
        <ele>685</ele>
        <time>2021-12-21T12:17:40.000Z</time>
      </trkpt>
      <trkpt lat="44.032" lon="5.99869">
        <ele>685</ele>
        <time>2021-12-21T12:17:41.000Z</time>
      </trkpt>
      <trkpt lat="44.03199" lon="5.99868">
        <ele>684</ele>
        <time>2021-12-21T12:17:42.000Z</time>
      </trkpt>
      <trkpt lat="44.03199" lon="5.99866">
        <ele>684</ele>
        <time>2021-12-21T12:17:43.000Z</time>
      </trkpt>
      <trkpt lat="44.03199" lon="5.99865">
        <ele>684</ele>
        <time>2021-12-21T12:17:44.000Z</time>
      </trkpt>
      <trkpt lat="44.03198" lon="5.99863">
        <ele>684</ele>
        <time>2021-12-21T12:17:45.000Z</time>
      </trkpt>
      <trkpt lat="44.03198" lon="5.99861">
        <ele>684</ele>
        <time>2021-12-21T12:17:46.000Z</time>
      </trkpt>
      <trkpt lat="44.03198" lon="5.9986">
        <ele>683</ele>
        <time>2021-12-21T12:17:47.000Z</time>
      </trkpt>
      <trkpt lat="44.03198" lon="5.99858">
        <ele>683</ele>
        <time>2021-12-21T12:17:48.000Z</time>
      </trkpt>
      <trkpt lat="44.03197" lon="5.99857">
        <ele>683</ele>
        <time>2021-12-21T12:17:49.000Z</time>
      </trkpt>
      <trkpt lat="44.03197" lon="5.99855">
        <ele>683</ele>
        <time>2021-12-21T12:17:50.000Z</time>
      </trkpt>
      <trkpt lat="44.03196" lon="5.99854">
        <ele>683</ele>
        <time>2021-12-21T12:17:51.000Z</time>
      </trkpt>
      <trkpt lat="44.03196" lon="5.99852">
        <ele>683</ele>
        <time>2021-12-21T12:17:52.000Z</time>
      </trkpt>
      <trkpt lat="44.03195" lon="5.99851">
        <ele>683</ele>
        <time>2021-12-21T12:17:53.000Z</time>
      </trkpt>
      <trkpt lat="44.03195" lon="5.99849">
        <ele>683</ele>
        <time>2021-12-21T12:17:54.000Z</time>
      </trkpt>
      <trkpt lat="44.03194" lon="5.99848">
        <ele>683</ele>
        <time>2021-12-21T12:17:55.000Z</time>
      </trkpt>
      <trkpt lat="44.03194" lon="5.99846">
        <ele>682</ele>
        <time>2021-12-21T12:17:56.000Z</time>
      </trkpt>
      <trkpt lat="44.03194" lon="5.99844">
        <ele>682</ele>
        <time>2021-12-21T12:17:57.000Z</time>
      </trkpt>
      <trkpt lat="44.03193" lon="5.99843">
        <ele>682</ele>
        <time>2021-12-21T12:17:58.000Z</time>
      </trkpt>
      <trkpt lat="44.03193" lon="5.99841">
        <ele>682</ele>
        <time>2021-12-21T12:17:59.000Z</time>
      </trkpt>
      <trkpt lat="44.03192" lon="5.9984">
        <ele>682</ele>
        <time>2021-12-21T12:18:00.000Z</time>
      </trkpt>
      <trkpt lat="44.03191" lon="5.99839">
        <ele>682</ele>
        <time>2021-12-21T12:18:01.000Z</time>
      </trkpt>
      <trkpt lat="44.03191" lon="5.99837">
        <ele>682</ele>
        <time>2021-12-21T12:18:02.000Z</time>
      </trkpt>
      <trkpt lat="44.0319" lon="5.99836">
        <ele>682</ele>
        <time>2021-12-21T12:18:03.000Z</time>
      </trkpt>
      <trkpt lat="44.0319" lon="5.99834">
        <ele>682</ele>
        <time>2021-12-21T12:18:04.000Z</time>
      </trkpt>
      <trkpt lat="44.03189" lon="5.99833">
        <ele>682</ele>
        <time>2021-12-21T12:18:05.000Z</time>
      </trkpt>
      <trkpt lat="44.03189" lon="5.99832">
        <ele>682</ele>
        <time>2021-12-21T12:18:06.000Z</time>
      </trkpt>
      <trkpt lat="44.03188" lon="5.9983">
        <ele>682</ele>
        <time>2021-12-21T12:18:07.000Z</time>
      </trkpt>
      <trkpt lat="44.03187" lon="5.99829">
        <ele>682</ele>
        <time>2021-12-21T12:18:08.000Z</time>
      </trkpt>
      <trkpt lat="44.03187" lon="5.99827">
        <ele>682</ele>
        <time>2021-12-21T12:18:09.000Z</time>
      </trkpt>
      <trkpt lat="44.03186" lon="5.99826">
        <ele>682</ele>
        <time>2021-12-21T12:18:10.000Z</time>
      </trkpt>
      <trkpt lat="44.03186" lon="5.99825">
        <ele>682</ele>
        <time>2021-12-21T12:18:11.000Z</time>
      </trkpt>
      <trkpt lat="44.03185" lon="5.99823">
        <ele>682</ele>
        <time>2021-12-21T12:18:12.000Z</time>
      </trkpt>
      <trkpt lat="44.03185" lon="5.99821">
        <ele>682</ele>
        <time>2021-12-21T12:18:13.000Z</time>
      </trkpt>
      <trkpt lat="44.03184" lon="5.99819">
        <ele>683</ele>
        <time>2021-12-21T12:18:14.000Z</time>
      </trkpt>
      <trkpt lat="44.03184" lon="5.99818">
        <ele>683</ele>
        <time>2021-12-21T12:18:15.000Z</time>
      </trkpt>
      <trkpt lat="44.03183" lon="5.99816">
        <ele>683</ele>
        <time>2021-12-21T12:18:16.000Z</time>
      </trkpt>
      <trkpt lat="44.03183" lon="5.99815">
        <ele>683</ele>
        <time>2021-12-21T12:18:17.000Z</time>
      </trkpt>
      <trkpt lat="44.03182" lon="5.99814">
        <ele>683</ele>
        <time>2021-12-21T12:18:18.000Z</time>
      </trkpt>
      <trkpt lat="44.03182" lon="5.99812">
        <ele>683</ele>
        <time>2021-12-21T12:18:19.000Z</time>
      </trkpt>
      <trkpt lat="44.03181" lon="5.99811">
        <ele>683</ele>
        <time>2021-12-21T12:18:20.000Z</time>
      </trkpt>
      <trkpt lat="44.03181" lon="5.99809">
        <ele>683</ele>
        <time>2021-12-21T12:18:21.000Z</time>
      </trkpt>
      <trkpt lat="44.03181" lon="5.99808">
        <ele>683</ele>
        <time>2021-12-21T12:18:22.000Z</time>
      </trkpt>
      <trkpt lat="44.0318" lon="5.99806">
        <ele>683</ele>
        <time>2021-12-21T12:18:23.000Z</time>
      </trkpt>
      <trkpt lat="44.0318" lon="5.99805">
        <ele>683</ele>
        <time>2021-12-21T12:18:24.000Z</time>
      </trkpt>
      <trkpt lat="44.03179" lon="5.99804">
        <ele>683</ele>
        <time>2021-12-21T12:18:25.000Z</time>
      </trkpt>
      <trkpt lat="44.03179" lon="5.99802">
        <ele>683</ele>
        <time>2021-12-21T12:18:26.000Z</time>
      </trkpt>
      <trkpt lat="44.03178" lon="5.99801">
        <ele>684</ele>
        <time>2021-12-21T12:18:27.000Z</time>
      </trkpt>
      <trkpt lat="44.03178" lon="5.99799">
        <ele>684</ele>
        <time>2021-12-21T12:18:28.000Z</time>
      </trkpt>
      <trkpt lat="44.03177" lon="5.99798">
        <ele>683</ele>
        <time>2021-12-21T12:18:29.000Z</time>
      </trkpt>
      <trkpt lat="44.03177" lon="5.99796">
        <ele>683</ele>
        <time>2021-12-21T12:18:30.000Z</time>
      </trkpt>
      <trkpt lat="44.03177" lon="5.99795">
        <ele>683</ele>
        <time>2021-12-21T12:18:31.000Z</time>
      </trkpt>
      <trkpt lat="44.03176" lon="5.99794">
        <ele>683</ele>
        <time>2021-12-21T12:18:32.000Z</time>
      </trkpt>
      <trkpt lat="44.03176" lon="5.99792">
        <ele>683</ele>
        <time>2021-12-21T12:18:33.000Z</time>
      </trkpt>
      <trkpt lat="44.03176" lon="5.9979">
        <ele>683</ele>
        <time>2021-12-21T12:18:34.000Z</time>
      </trkpt>
      <trkpt lat="44.03176" lon="5.99789">
        <ele>683</ele>
        <time>2021-12-21T12:18:35.000Z</time>
      </trkpt>
      <trkpt lat="44.03176" lon="5.99787">
        <ele>683</ele>
        <time>2021-12-21T12:18:36.000Z</time>
      </trkpt>
      <trkpt lat="44.03175" lon="5.99786">
        <ele>683</ele>
        <time>2021-12-21T12:18:37.000Z</time>
      </trkpt>
      <trkpt lat="44.03175" lon="5.99784">
        <ele>683</ele>
        <time>2021-12-21T12:18:38.000Z</time>
      </trkpt>
      <trkpt lat="44.03175" lon="5.99783">
        <ele>683</ele>
        <time>2021-12-21T12:18:39.000Z</time>
      </trkpt>
      <trkpt lat="44.03175" lon="5.99781">
        <ele>682</ele>
        <time>2021-12-21T12:18:40.000Z</time>
      </trkpt>
      <trkpt lat="44.03174" lon="5.9978">
        <ele>682</ele>
        <time>2021-12-21T12:18:41.000Z</time>
      </trkpt>
      <trkpt lat="44.03174" lon="5.99778">
        <ele>682</ele>
        <time>2021-12-21T12:18:42.000Z</time>
      </trkpt>
      <trkpt lat="44.03174" lon="5.99776">
        <ele>682</ele>
        <time>2021-12-21T12:18:43.000Z</time>
      </trkpt>
      <trkpt lat="44.03173" lon="5.99775">
        <ele>682</ele>
        <time>2021-12-21T12:18:44.000Z</time>
      </trkpt>
      <trkpt lat="44.03172" lon="5.99774">
        <ele>682</ele>
        <time>2021-12-21T12:18:45.000Z</time>
      </trkpt>
      <trkpt lat="44.03172" lon="5.99772">
        <ele>682</ele>
        <time>2021-12-21T12:18:46.000Z</time>
      </trkpt>
      <trkpt lat="44.03172" lon="5.9977">
        <ele>682</ele>
        <time>2021-12-21T12:18:47.000Z</time>
      </trkpt>
      <trkpt lat="44.03172" lon="5.99769">
        <ele>682</ele>
        <time>2021-12-21T12:18:48.000Z</time>
      </trkpt>
      <trkpt lat="44.03171" lon="5.99767">
        <ele>682</ele>
        <time>2021-12-21T12:18:49.000Z</time>
      </trkpt>
      <trkpt lat="44.03171" lon="5.99765">
        <ele>682</ele>
        <time>2021-12-21T12:18:50.000Z</time>
      </trkpt>
      <trkpt lat="44.03171" lon="5.99764">
        <ele>682</ele>
        <time>2021-12-21T12:18:51.000Z</time>
      </trkpt>
      <trkpt lat="44.03171" lon="5.99762">
        <ele>682</ele>
        <time>2021-12-21T12:18:52.000Z</time>
      </trkpt>
      <trkpt lat="44.0317" lon="5.99761">
        <ele>682</ele>
        <time>2021-12-21T12:18:53.000Z</time>
      </trkpt>
      <trkpt lat="44.0317" lon="5.99759">
        <ele>681</ele>
        <time>2021-12-21T12:18:54.000Z</time>
      </trkpt>
      <trkpt lat="44.0317" lon="5.99758">
        <ele>681</ele>
        <time>2021-12-21T12:18:55.000Z</time>
      </trkpt>
      <trkpt lat="44.0317" lon="5.99756">
        <ele>681</ele>
        <time>2021-12-21T12:18:56.000Z</time>
      </trkpt>
      <trkpt lat="44.0317" lon="5.99754">
        <ele>681</ele>
        <time>2021-12-21T12:18:57.000Z</time>
      </trkpt>
      <trkpt lat="44.0317" lon="5.99752">
        <ele>681</ele>
        <time>2021-12-21T12:18:58.000Z</time>
      </trkpt>
      <trkpt lat="44.0317" lon="5.99751">
        <ele>681</ele>
        <time>2021-12-21T12:18:59.000Z</time>
      </trkpt>
      <trkpt lat="44.0317" lon="5.99749">
        <ele>681</ele>
        <time>2021-12-21T12:19:00.000Z</time>
      </trkpt>
      <trkpt lat="44.0317" lon="5.99748">
        <ele>681</ele>
        <time>2021-12-21T12:19:01.000Z</time>
      </trkpt>
      <trkpt lat="44.0317" lon="5.99746">
        <ele>681</ele>
        <time>2021-12-21T12:19:02.000Z</time>
      </trkpt>
      <trkpt lat="44.0317" lon="5.99744">
        <ele>681</ele>
        <time>2021-12-21T12:19:03.000Z</time>
      </trkpt>
      <trkpt lat="44.0317" lon="5.99742">
        <ele>680</ele>
        <time>2021-12-21T12:19:04.000Z</time>
      </trkpt>
      <trkpt lat="44.0317" lon="5.99741">
        <ele>680</ele>
        <time>2021-12-21T12:19:05.000Z</time>
      </trkpt>
      <trkpt lat="44.0317" lon="5.9974">
        <ele>680</ele>
        <time>2021-12-21T12:19:06.000Z</time>
      </trkpt>
      <trkpt lat="44.0317" lon="5.99738">
        <ele>680</ele>
        <time>2021-12-21T12:19:07.000Z</time>
      </trkpt>
      <trkpt lat="44.0317" lon="5.99736">
        <ele>680</ele>
        <time>2021-12-21T12:19:08.000Z</time>
      </trkpt>
      <trkpt lat="44.0317" lon="5.99735">
        <ele>680</ele>
        <time>2021-12-21T12:19:09.000Z</time>
      </trkpt>
      <trkpt lat="44.0317" lon="5.99734">
        <ele>679</ele>
        <time>2021-12-21T12:19:10.000Z</time>
      </trkpt>
      <trkpt lat="44.0317" lon="5.99732">
        <ele>679</ele>
        <time>2021-12-21T12:19:11.000Z</time>
      </trkpt>
      <trkpt lat="44.0317" lon="5.9973">
        <ele>679</ele>
        <time>2021-12-21T12:19:12.000Z</time>
      </trkpt>
      <trkpt lat="44.03169" lon="5.99728">
        <ele>679</ele>
        <time>2021-12-21T12:19:13.000Z</time>
      </trkpt>
      <trkpt lat="44.03169" lon="5.99727">
        <ele>678</ele>
        <time>2021-12-21T12:19:14.000Z</time>
      </trkpt>
      <trkpt lat="44.03169" lon="5.99725">
        <ele>678</ele>
        <time>2021-12-21T12:19:15.000Z</time>
      </trkpt>
      <trkpt lat="44.03169" lon="5.99724">
        <ele>678</ele>
        <time>2021-12-21T12:19:16.000Z</time>
      </trkpt>
      <trkpt lat="44.03169" lon="5.99722">
        <ele>678</ele>
        <time>2021-12-21T12:19:17.000Z</time>
      </trkpt>
      <trkpt lat="44.03169" lon="5.9972">
        <ele>678</ele>
        <time>2021-12-21T12:19:18.000Z</time>
      </trkpt>
      <trkpt lat="44.03169" lon="5.99719">
        <ele>677</ele>
        <time>2021-12-21T12:19:19.000Z</time>
      </trkpt>
      <trkpt lat="44.03168" lon="5.99717">
        <ele>677</ele>
        <time>2021-12-21T12:19:20.000Z</time>
      </trkpt>
      <trkpt lat="44.03168" lon="5.99716">
        <ele>677</ele>
        <time>2021-12-21T12:19:21.000Z</time>
      </trkpt>
      <trkpt lat="44.03168" lon="5.99714">
        <ele>677</ele>
        <time>2021-12-21T12:19:22.000Z</time>
      </trkpt>
      <trkpt lat="44.03169" lon="5.99712">
        <ele>677</ele>
        <time>2021-12-21T12:19:23.000Z</time>
      </trkpt>
      <trkpt lat="44.03169" lon="5.9971">
        <ele>676</ele>
        <time>2021-12-21T12:19:24.000Z</time>
      </trkpt>
      <trkpt lat="44.03169" lon="5.99709">
        <ele>676</ele>
        <time>2021-12-21T12:19:25.000Z</time>
      </trkpt>
      <trkpt lat="44.03169" lon="5.99707">
        <ele>676</ele>
        <time>2021-12-21T12:19:26.000Z</time>
      </trkpt>
      <trkpt lat="44.03169" lon="5.99706">
        <ele>675</ele>
        <time>2021-12-21T12:19:27.000Z</time>
      </trkpt>
      <trkpt lat="44.03169" lon="5.99704">
        <ele>675</ele>
        <time>2021-12-21T12:19:28.000Z</time>
      </trkpt>
      <trkpt lat="44.03169" lon="5.99703">
        <ele>675</ele>
        <time>2021-12-21T12:19:29.000Z</time>
      </trkpt>
      <trkpt lat="44.03169" lon="5.99701">
        <ele>675</ele>
        <time>2021-12-21T12:19:30.000Z</time>
      </trkpt>
      <trkpt lat="44.03169" lon="5.99699">
        <ele>675</ele>
        <time>2021-12-21T12:19:31.000Z</time>
      </trkpt>
      <trkpt lat="44.03169" lon="5.99698">
        <ele>675</ele>
        <time>2021-12-21T12:19:32.000Z</time>
      </trkpt>
      <trkpt lat="44.03169" lon="5.99696">
        <ele>675</ele>
        <time>2021-12-21T12:19:33.000Z</time>
      </trkpt>
      <trkpt lat="44.03169" lon="5.99694">
        <ele>675</ele>
        <time>2021-12-21T12:19:34.000Z</time>
      </trkpt>
      <trkpt lat="44.03169" lon="5.99692">
        <ele>674</ele>
        <time>2021-12-21T12:19:35.000Z</time>
      </trkpt>
      <trkpt lat="44.03168" lon="5.99691">
        <ele>674</ele>
        <time>2021-12-21T12:19:36.000Z</time>
      </trkpt>
      <trkpt lat="44.03168" lon="5.99689">
        <ele>675</ele>
        <time>2021-12-21T12:19:37.000Z</time>
      </trkpt>
      <trkpt lat="44.03168" lon="5.99687">
        <ele>675</ele>
        <time>2021-12-21T12:19:38.000Z</time>
      </trkpt>
      <trkpt lat="44.03167" lon="5.99685">
        <ele>675</ele>
        <time>2021-12-21T12:19:39.000Z</time>
      </trkpt>
      <trkpt lat="44.03167" lon="5.99684">
        <ele>675</ele>
        <time>2021-12-21T12:19:40.000Z</time>
      </trkpt>
      <trkpt lat="44.03166" lon="5.99682">
        <ele>675</ele>
        <time>2021-12-21T12:19:41.000Z</time>
      </trkpt>
      <trkpt lat="44.03166" lon="5.9968">
        <ele>675</ele>
        <time>2021-12-21T12:19:42.000Z</time>
      </trkpt>
      <trkpt lat="44.03166" lon="5.99679">
        <ele>675</ele>
        <time>2021-12-21T12:19:43.000Z</time>
      </trkpt>
      <trkpt lat="44.03165" lon="5.99677">
        <ele>675</ele>
        <time>2021-12-21T12:19:44.000Z</time>
      </trkpt>
      <trkpt lat="44.03165" lon="5.99676">
        <ele>675</ele>
        <time>2021-12-21T12:19:45.000Z</time>
      </trkpt>
      <trkpt lat="44.03165" lon="5.99674">
        <ele>675</ele>
        <time>2021-12-21T12:19:46.000Z</time>
      </trkpt>
      <trkpt lat="44.03165" lon="5.99672">
        <ele>675</ele>
        <time>2021-12-21T12:19:47.000Z</time>
      </trkpt>
      <trkpt lat="44.03165" lon="5.99671">
        <ele>675</ele>
        <time>2021-12-21T12:19:48.000Z</time>
      </trkpt>
      <trkpt lat="44.03164" lon="5.9967">
        <ele>675</ele>
        <time>2021-12-21T12:19:49.000Z</time>
      </trkpt>
      <trkpt lat="44.03164" lon="5.99668">
        <ele>675</ele>
        <time>2021-12-21T12:19:50.000Z</time>
      </trkpt>
      <trkpt lat="44.03163" lon="5.99666">
        <ele>675</ele>
        <time>2021-12-21T12:19:51.000Z</time>
      </trkpt>
      <trkpt lat="44.03163" lon="5.99664">
        <ele>675</ele>
        <time>2021-12-21T12:19:52.000Z</time>
      </trkpt>
      <trkpt lat="44.03162" lon="5.99663">
        <ele>675</ele>
        <time>2021-12-21T12:19:53.000Z</time>
      </trkpt>
      <trkpt lat="44.03162" lon="5.99661">
        <ele>675</ele>
        <time>2021-12-21T12:19:54.000Z</time>
      </trkpt>
      <trkpt lat="44.03162" lon="5.9966">
        <ele>675</ele>
        <time>2021-12-21T12:19:55.000Z</time>
      </trkpt>
      <trkpt lat="44.03161" lon="5.99658">
        <ele>675</ele>
        <time>2021-12-21T12:19:56.000Z</time>
      </trkpt>
      <trkpt lat="44.03161" lon="5.99657">
        <ele>674</ele>
        <time>2021-12-21T12:19:57.000Z</time>
      </trkpt>
      <trkpt lat="44.03161" lon="5.99655">
        <ele>674</ele>
        <time>2021-12-21T12:19:58.000Z</time>
      </trkpt>
      <trkpt lat="44.0316" lon="5.99654">
        <ele>674</ele>
        <time>2021-12-21T12:19:59.000Z</time>
      </trkpt>
      <trkpt lat="44.0316" lon="5.99652">
        <ele>674</ele>
        <time>2021-12-21T12:20:00.000Z</time>
      </trkpt>
      <trkpt lat="44.0316" lon="5.99651">
        <ele>674</ele>
        <time>2021-12-21T12:20:01.000Z</time>
      </trkpt>
      <trkpt lat="44.03159" lon="5.99649">
        <ele>674</ele>
        <time>2021-12-21T12:20:02.000Z</time>
      </trkpt>
      <trkpt lat="44.03159" lon="5.99647">
        <ele>674</ele>
        <time>2021-12-21T12:20:03.000Z</time>
      </trkpt>
      <trkpt lat="44.03159" lon="5.99646">
        <ele>674</ele>
        <time>2021-12-21T12:20:04.000Z</time>
      </trkpt>
      <trkpt lat="44.03159" lon="5.99645">
        <ele>674</ele>
        <time>2021-12-21T12:20:05.000Z</time>
      </trkpt>
      <trkpt lat="44.03159" lon="5.99643">
        <ele>673</ele>
        <time>2021-12-21T12:20:06.000Z</time>
      </trkpt>
      <trkpt lat="44.03158" lon="5.99642">
        <ele>673</ele>
        <time>2021-12-21T12:20:07.000Z</time>
      </trkpt>
      <trkpt lat="44.03158" lon="5.9964">
        <ele>673</ele>
        <time>2021-12-21T12:20:08.000Z</time>
      </trkpt>
      <trkpt lat="44.03158" lon="5.99639">
        <ele>673</ele>
        <time>2021-12-21T12:20:09.000Z</time>
      </trkpt>
      <trkpt lat="44.03157" lon="5.99637">
        <ele>673</ele>
        <time>2021-12-21T12:20:10.000Z</time>
      </trkpt>
      <trkpt lat="44.03157" lon="5.99635">
        <ele>673</ele>
        <time>2021-12-21T12:20:11.000Z</time>
      </trkpt>
      <trkpt lat="44.03157" lon="5.99634">
        <ele>672</ele>
        <time>2021-12-21T12:20:12.000Z</time>
      </trkpt>
      <trkpt lat="44.03157" lon="5.99632">
        <ele>672</ele>
        <time>2021-12-21T12:20:13.000Z</time>
      </trkpt>
      <trkpt lat="44.03157" lon="5.99631">
        <ele>672</ele>
        <time>2021-12-21T12:20:14.000Z</time>
      </trkpt>
      <trkpt lat="44.03157" lon="5.99629">
        <ele>672</ele>
        <time>2021-12-21T12:20:15.000Z</time>
      </trkpt>
      <trkpt lat="44.03156" lon="5.99627">
        <ele>672</ele>
        <time>2021-12-21T12:20:16.000Z</time>
      </trkpt>
      <trkpt lat="44.03156" lon="5.99626">
        <ele>672</ele>
        <time>2021-12-21T12:20:17.000Z</time>
      </trkpt>
      <trkpt lat="44.03156" lon="5.99624">
        <ele>672</ele>
        <time>2021-12-21T12:20:18.000Z</time>
      </trkpt>
      <trkpt lat="44.03156" lon="5.99622">
        <ele>672</ele>
        <time>2021-12-21T12:20:19.000Z</time>
      </trkpt>
      <trkpt lat="44.03156" lon="5.9962">
        <ele>671</ele>
        <time>2021-12-21T12:20:20.000Z</time>
      </trkpt>
      <trkpt lat="44.03155" lon="5.99619">
        <ele>671</ele>
        <time>2021-12-21T12:20:21.000Z</time>
      </trkpt>
      <trkpt lat="44.03155" lon="5.99617">
        <ele>671</ele>
        <time>2021-12-21T12:20:22.000Z</time>
      </trkpt>
      <trkpt lat="44.03155" lon="5.99616">
        <ele>671</ele>
        <time>2021-12-21T12:20:23.000Z</time>
      </trkpt>
      <trkpt lat="44.03155" lon="5.99615">
        <ele>671</ele>
        <time>2021-12-21T12:20:24.000Z</time>
      </trkpt>
      <trkpt lat="44.03155" lon="5.99614">
        <ele>671</ele>
        <time>2021-12-21T12:20:25.000Z</time>
      </trkpt>
      <trkpt lat="44.03155" lon="5.99614">
        <ele>671</ele>
        <time>2021-12-21T12:20:26.000Z</time>
      </trkpt>
      <trkpt lat="44.03155" lon="5.99613">
        <ele>671</ele>
        <time>2021-12-21T12:20:27.000Z</time>
      </trkpt>
      <trkpt lat="44.03155" lon="5.99613">
        <ele>671</ele>
        <time>2021-12-21T12:20:28.000Z</time>
      </trkpt>
      <trkpt lat="44.03155" lon="5.99613">
        <ele>671</ele>
        <time>2021-12-21T12:20:29.000Z</time>
      </trkpt>
      <trkpt lat="44.03155" lon="5.99613">
        <ele>671</ele>
        <time>2021-12-21T12:20:30.000Z</time>
      </trkpt>
      <trkpt lat="44.03155" lon="5.99613">
        <ele>671</ele>
        <time>2021-12-21T12:20:31.000Z</time>
      </trkpt>
      <trkpt lat="44.03155" lon="5.99613">
        <ele>671</ele>
        <time>2021-12-21T12:20:32.000Z</time>
      </trkpt>
      <trkpt lat="44.03155" lon="5.99612">
        <ele>671</ele>
        <time>2021-12-21T12:20:33.000Z</time>
      </trkpt>
      <trkpt lat="44.03155" lon="5.99612">
        <ele>671</ele>
        <time>2021-12-21T12:20:34.000Z</time>
      </trkpt>
      <trkpt lat="44.03154" lon="5.99611">
        <ele>671</ele>
        <time>2021-12-21T12:20:35.000Z</time>
      </trkpt>
      <trkpt lat="44.03154" lon="5.9961">
        <ele>671</ele>
        <time>2021-12-21T12:20:36.000Z</time>
      </trkpt>
      <trkpt lat="44.03154" lon="5.99609">
        <ele>671</ele>
        <time>2021-12-21T12:20:37.000Z</time>
      </trkpt>
      <trkpt lat="44.03154" lon="5.99607">
        <ele>671</ele>
        <time>2021-12-21T12:20:38.000Z</time>
      </trkpt>
      <trkpt lat="44.03153" lon="5.99606">
        <ele>671</ele>
        <time>2021-12-21T12:20:39.000Z</time>
      </trkpt>
      <trkpt lat="44.03153" lon="5.99604">
        <ele>671</ele>
        <time>2021-12-21T12:20:40.000Z</time>
      </trkpt>
      <trkpt lat="44.03153" lon="5.99603">
        <ele>671</ele>
        <time>2021-12-21T12:20:41.000Z</time>
      </trkpt>
      <trkpt lat="44.03152" lon="5.99601">
        <ele>671</ele>
        <time>2021-12-21T12:20:42.000Z</time>
      </trkpt>
      <trkpt lat="44.03152" lon="5.99599">
        <ele>671</ele>
        <time>2021-12-21T12:20:43.000Z</time>
      </trkpt>
      <trkpt lat="44.03152" lon="5.99598">
        <ele>671</ele>
        <time>2021-12-21T12:20:44.000Z</time>
      </trkpt>
      <trkpt lat="44.03152" lon="5.99596">
        <ele>671</ele>
        <time>2021-12-21T12:20:45.000Z</time>
      </trkpt>
      <trkpt lat="44.03152" lon="5.99594">
        <ele>671</ele>
        <time>2021-12-21T12:20:46.000Z</time>
      </trkpt>
      <trkpt lat="44.03152" lon="5.99593">
        <ele>671</ele>
        <time>2021-12-21T12:20:47.000Z</time>
      </trkpt>
      <trkpt lat="44.03152" lon="5.99591">
        <ele>671</ele>
        <time>2021-12-21T12:20:48.000Z</time>
      </trkpt>
      <trkpt lat="44.03151" lon="5.99589">
        <ele>670</ele>
        <time>2021-12-21T12:20:49.000Z</time>
      </trkpt>
      <trkpt lat="44.03152" lon="5.99587">
        <ele>670</ele>
        <time>2021-12-21T12:20:50.000Z</time>
      </trkpt>
      <trkpt lat="44.03152" lon="5.99586">
        <ele>670</ele>
        <time>2021-12-21T12:20:51.000Z</time>
      </trkpt>
      <trkpt lat="44.03152" lon="5.99584">
        <ele>670</ele>
        <time>2021-12-21T12:20:52.000Z</time>
      </trkpt>
      <trkpt lat="44.03152" lon="5.99582">
        <ele>670</ele>
        <time>2021-12-21T12:20:53.000Z</time>
      </trkpt>
      <trkpt lat="44.03152" lon="5.99581">
        <ele>670</ele>
        <time>2021-12-21T12:20:54.000Z</time>
      </trkpt>
      <trkpt lat="44.03152" lon="5.99579">
        <ele>670</ele>
        <time>2021-12-21T12:20:55.000Z</time>
      </trkpt>
      <trkpt lat="44.03152" lon="5.99577">
        <ele>670</ele>
        <time>2021-12-21T12:20:56.000Z</time>
      </trkpt>
      <trkpt lat="44.03152" lon="5.99575">
        <ele>670</ele>
        <time>2021-12-21T12:20:57.000Z</time>
      </trkpt>
      <trkpt lat="44.03152" lon="5.99573">
        <ele>670</ele>
        <time>2021-12-21T12:20:58.000Z</time>
      </trkpt>
      <trkpt lat="44.03152" lon="5.99572">
        <ele>670</ele>
        <time>2021-12-21T12:20:59.000Z</time>
      </trkpt>
      <trkpt lat="44.03152" lon="5.9957">
        <ele>670</ele>
        <time>2021-12-21T12:21:00.000Z</time>
      </trkpt>
      <trkpt lat="44.03152" lon="5.99568">
        <ele>670</ele>
        <time>2021-12-21T12:21:01.000Z</time>
      </trkpt>
      <trkpt lat="44.03152" lon="5.99566">
        <ele>670</ele>
        <time>2021-12-21T12:21:02.000Z</time>
      </trkpt>
      <trkpt lat="44.03152" lon="5.99565">
        <ele>670</ele>
        <time>2021-12-21T12:21:03.000Z</time>
      </trkpt>
      <trkpt lat="44.03152" lon="5.99563">
        <ele>670</ele>
        <time>2021-12-21T12:21:04.000Z</time>
      </trkpt>
      <trkpt lat="44.03152" lon="5.99562">
        <ele>670</ele>
        <time>2021-12-21T12:21:05.000Z</time>
      </trkpt>
      <trkpt lat="44.03152" lon="5.9956">
        <ele>670</ele>
        <time>2021-12-21T12:21:06.000Z</time>
      </trkpt>
      <trkpt lat="44.03152" lon="5.99558">
        <ele>670</ele>
        <time>2021-12-21T12:21:07.000Z</time>
      </trkpt>
      <trkpt lat="44.03152" lon="5.99556">
        <ele>670</ele>
        <time>2021-12-21T12:21:08.000Z</time>
      </trkpt>
      <trkpt lat="44.03152" lon="5.99554">
        <ele>670</ele>
        <time>2021-12-21T12:21:09.000Z</time>
      </trkpt>
      <trkpt lat="44.03152" lon="5.99553">
        <ele>670</ele>
        <time>2021-12-21T12:21:10.000Z</time>
      </trkpt>
      <trkpt lat="44.03153" lon="5.99551">
        <ele>670</ele>
        <time>2021-12-21T12:21:11.000Z</time>
      </trkpt>
      <trkpt lat="44.03153" lon="5.99549">
        <ele>670</ele>
        <time>2021-12-21T12:21:12.000Z</time>
      </trkpt>
      <trkpt lat="44.03152" lon="5.99548">
        <ele>670</ele>
        <time>2021-12-21T12:21:13.000Z</time>
      </trkpt>
      <trkpt lat="44.03152" lon="5.99546">
        <ele>670</ele>
        <time>2021-12-21T12:21:14.000Z</time>
      </trkpt>
      <trkpt lat="44.03152" lon="5.99544">
        <ele>670</ele>
        <time>2021-12-21T12:21:15.000Z</time>
      </trkpt>
      <trkpt lat="44.03152" lon="5.99542">
        <ele>670</ele>
        <time>2021-12-21T12:21:16.000Z</time>
      </trkpt>
      <trkpt lat="44.03152" lon="5.99541">
        <ele>670</ele>
        <time>2021-12-21T12:21:17.000Z</time>
      </trkpt>
      <trkpt lat="44.03152" lon="5.99539">
        <ele>670</ele>
        <time>2021-12-21T12:21:18.000Z</time>
      </trkpt>
      <trkpt lat="44.03152" lon="5.99538">
        <ele>670</ele>
        <time>2021-12-21T12:21:19.000Z</time>
      </trkpt>
      <trkpt lat="44.03152" lon="5.99536">
        <ele>670</ele>
        <time>2021-12-21T12:21:20.000Z</time>
      </trkpt>
      <trkpt lat="44.03152" lon="5.99534">
        <ele>670</ele>
        <time>2021-12-21T12:21:21.000Z</time>
      </trkpt>
      <trkpt lat="44.03152" lon="5.99533">
        <ele>670</ele>
        <time>2021-12-21T12:21:22.000Z</time>
      </trkpt>
      <trkpt lat="44.03152" lon="5.99531">
        <ele>670</ele>
        <time>2021-12-21T12:21:23.000Z</time>
      </trkpt>
      <trkpt lat="44.03151" lon="5.99529">
        <ele>670</ele>
        <time>2021-12-21T12:21:24.000Z</time>
      </trkpt>
      <trkpt lat="44.03151" lon="5.99528">
        <ele>669</ele>
        <time>2021-12-21T12:21:25.000Z</time>
      </trkpt>
      <trkpt lat="44.03151" lon="5.99526">
        <ele>669</ele>
        <time>2021-12-21T12:21:26.000Z</time>
      </trkpt>
      <trkpt lat="44.03151" lon="5.99525">
        <ele>669</ele>
        <time>2021-12-21T12:21:27.000Z</time>
      </trkpt>
      <trkpt lat="44.03151" lon="5.99523">
        <ele>669</ele>
        <time>2021-12-21T12:21:28.000Z</time>
      </trkpt>
      <trkpt lat="44.03151" lon="5.99522">
        <ele>669</ele>
        <time>2021-12-21T12:21:29.000Z</time>
      </trkpt>
      <trkpt lat="44.03151" lon="5.9952">
        <ele>669</ele>
        <time>2021-12-21T12:21:30.000Z</time>
      </trkpt>
      <trkpt lat="44.03151" lon="5.99519">
        <ele>669</ele>
        <time>2021-12-21T12:21:31.000Z</time>
      </trkpt>
      <trkpt lat="44.03151" lon="5.99517">
        <ele>669</ele>
        <time>2021-12-21T12:21:32.000Z</time>
      </trkpt>
      <trkpt lat="44.03151" lon="5.99516">
        <ele>669</ele>
        <time>2021-12-21T12:21:33.000Z</time>
      </trkpt>
      <trkpt lat="44.03151" lon="5.99514">
        <ele>669</ele>
        <time>2021-12-21T12:21:34.000Z</time>
      </trkpt>
      <trkpt lat="44.03151" lon="5.99512">
        <ele>669</ele>
        <time>2021-12-21T12:21:35.000Z</time>
      </trkpt>
      <trkpt lat="44.03151" lon="5.99511">
        <ele>668</ele>
        <time>2021-12-21T12:21:36.000Z</time>
      </trkpt>
      <trkpt lat="44.03151" lon="5.99509">
        <ele>668</ele>
        <time>2021-12-21T12:21:37.000Z</time>
      </trkpt>
      <trkpt lat="44.03151" lon="5.99507">
        <ele>668</ele>
        <time>2021-12-21T12:21:38.000Z</time>
      </trkpt>
      <trkpt lat="44.03151" lon="5.99506">
        <ele>668</ele>
        <time>2021-12-21T12:21:39.000Z</time>
      </trkpt>
      <trkpt lat="44.03151" lon="5.99504">
        <ele>668</ele>
        <time>2021-12-21T12:21:40.000Z</time>
      </trkpt>
      <trkpt lat="44.0315" lon="5.99503">
        <ele>668</ele>
        <time>2021-12-21T12:21:41.000Z</time>
      </trkpt>
      <trkpt lat="44.0315" lon="5.99502">
        <ele>668</ele>
        <time>2021-12-21T12:21:42.000Z</time>
      </trkpt>
      <trkpt lat="44.0315" lon="5.995">
        <ele>668</ele>
        <time>2021-12-21T12:21:43.000Z</time>
      </trkpt>
      <trkpt lat="44.0315" lon="5.99498">
        <ele>668</ele>
        <time>2021-12-21T12:21:44.000Z</time>
      </trkpt>
      <trkpt lat="44.0315" lon="5.99497">
        <ele>668</ele>
        <time>2021-12-21T12:21:45.000Z</time>
      </trkpt>
      <trkpt lat="44.0315" lon="5.99495">
        <ele>668</ele>
        <time>2021-12-21T12:21:46.000Z</time>
      </trkpt>
      <trkpt lat="44.0315" lon="5.99493">
        <ele>668</ele>
        <time>2021-12-21T12:21:47.000Z</time>
      </trkpt>
      <trkpt lat="44.0315" lon="5.99492">
        <ele>668</ele>
        <time>2021-12-21T12:21:48.000Z</time>
      </trkpt>
      <trkpt lat="44.0315" lon="5.9949">
        <ele>667</ele>
        <time>2021-12-21T12:21:49.000Z</time>
      </trkpt>
      <trkpt lat="44.0315" lon="5.99489">
        <ele>667</ele>
        <time>2021-12-21T12:21:50.000Z</time>
      </trkpt>
      <trkpt lat="44.03149" lon="5.99487">
        <ele>667</ele>
        <time>2021-12-21T12:21:51.000Z</time>
      </trkpt>
      <trkpt lat="44.03149" lon="5.99485">
        <ele>667</ele>
        <time>2021-12-21T12:21:52.000Z</time>
      </trkpt>
      <trkpt lat="44.03149" lon="5.99484">
        <ele>667</ele>
        <time>2021-12-21T12:21:53.000Z</time>
      </trkpt>
      <trkpt lat="44.03149" lon="5.99482">
        <ele>667</ele>
        <time>2021-12-21T12:21:54.000Z</time>
      </trkpt>
      <trkpt lat="44.03149" lon="5.9948">
        <ele>667</ele>
        <time>2021-12-21T12:21:55.000Z</time>
      </trkpt>
      <trkpt lat="44.03149" lon="5.99479">
        <ele>667</ele>
        <time>2021-12-21T12:21:56.000Z</time>
      </trkpt>
      <trkpt lat="44.03149" lon="5.99477">
        <ele>666</ele>
        <time>2021-12-21T12:21:57.000Z</time>
      </trkpt>
      <trkpt lat="44.03149" lon="5.99476">
        <ele>666</ele>
        <time>2021-12-21T12:21:58.000Z</time>
      </trkpt>
      <trkpt lat="44.03149" lon="5.99474">
        <ele>666</ele>
        <time>2021-12-21T12:21:59.000Z</time>
      </trkpt>
      <trkpt lat="44.03148" lon="5.99473">
        <ele>666</ele>
        <time>2021-12-21T12:22:00.000Z</time>
      </trkpt>
      <trkpt lat="44.03148" lon="5.99471">
        <ele>666</ele>
        <time>2021-12-21T12:22:01.000Z</time>
      </trkpt>
      <trkpt lat="44.03148" lon="5.9947">
        <ele>666</ele>
        <time>2021-12-21T12:22:02.000Z</time>
      </trkpt>
      <trkpt lat="44.03148" lon="5.99468">
        <ele>666</ele>
        <time>2021-12-21T12:22:03.000Z</time>
      </trkpt>
      <trkpt lat="44.03148" lon="5.99466">
        <ele>666</ele>
        <time>2021-12-21T12:22:04.000Z</time>
      </trkpt>
      <trkpt lat="44.03148" lon="5.99465">
        <ele>665</ele>
        <time>2021-12-21T12:22:05.000Z</time>
      </trkpt>
      <trkpt lat="44.03148" lon="5.99464">
        <ele>665</ele>
        <time>2021-12-21T12:22:06.000Z</time>
      </trkpt>
      <trkpt lat="44.03148" lon="5.99462">
        <ele>665</ele>
        <time>2021-12-21T12:22:07.000Z</time>
      </trkpt>
      <trkpt lat="44.03148" lon="5.9946">
        <ele>665</ele>
        <time>2021-12-21T12:22:08.000Z</time>
      </trkpt>
      <trkpt lat="44.03148" lon="5.99458">
        <ele>665</ele>
        <time>2021-12-21T12:22:09.000Z</time>
      </trkpt>
      <trkpt lat="44.03148" lon="5.99457">
        <ele>665</ele>
        <time>2021-12-21T12:22:10.000Z</time>
      </trkpt>
      <trkpt lat="44.03148" lon="5.99455">
        <ele>665</ele>
        <time>2021-12-21T12:22:11.000Z</time>
      </trkpt>
      <trkpt lat="44.03148" lon="5.99453">
        <ele>664</ele>
        <time>2021-12-21T12:22:12.000Z</time>
      </trkpt>
      <trkpt lat="44.03148" lon="5.99452">
        <ele>664</ele>
        <time>2021-12-21T12:22:13.000Z</time>
      </trkpt>
      <trkpt lat="44.03148" lon="5.9945">
        <ele>664</ele>
        <time>2021-12-21T12:22:14.000Z</time>
      </trkpt>
      <trkpt lat="44.03148" lon="5.99449">
        <ele>664</ele>
        <time>2021-12-21T12:22:15.000Z</time>
      </trkpt>
      <trkpt lat="44.03148" lon="5.99447">
        <ele>664</ele>
        <time>2021-12-21T12:22:16.000Z</time>
      </trkpt>
      <trkpt lat="44.03148" lon="5.99446">
        <ele>664</ele>
        <time>2021-12-21T12:22:17.000Z</time>
      </trkpt>
      <trkpt lat="44.03147" lon="5.99444">
        <ele>663</ele>
        <time>2021-12-21T12:22:18.000Z</time>
      </trkpt>
      <trkpt lat="44.03147" lon="5.99442">
        <ele>663</ele>
        <time>2021-12-21T12:22:19.000Z</time>
      </trkpt>
      <trkpt lat="44.03147" lon="5.99441">
        <ele>663</ele>
        <time>2021-12-21T12:22:20.000Z</time>
      </trkpt>
      <trkpt lat="44.03147" lon="5.99439">
        <ele>663</ele>
        <time>2021-12-21T12:22:21.000Z</time>
      </trkpt>
      <trkpt lat="44.03147" lon="5.99437">
        <ele>663</ele>
        <time>2021-12-21T12:22:22.000Z</time>
      </trkpt>
      <trkpt lat="44.03147" lon="5.99436">
        <ele>663</ele>
        <time>2021-12-21T12:22:23.000Z</time>
      </trkpt>
      <trkpt lat="44.03147" lon="5.99434">
        <ele>663</ele>
        <time>2021-12-21T12:22:24.000Z</time>
      </trkpt>
      <trkpt lat="44.03147" lon="5.99433">
        <ele>662</ele>
        <time>2021-12-21T12:22:25.000Z</time>
      </trkpt>
      <trkpt lat="44.03147" lon="5.99431">
        <ele>662</ele>
        <time>2021-12-21T12:22:26.000Z</time>
      </trkpt>
      <trkpt lat="44.03147" lon="5.99429">
        <ele>662</ele>
        <time>2021-12-21T12:22:27.000Z</time>
      </trkpt>
      <trkpt lat="44.03147" lon="5.99428">
        <ele>662</ele>
        <time>2021-12-21T12:22:28.000Z</time>
      </trkpt>
      <trkpt lat="44.03147" lon="5.99426">
        <ele>662</ele>
        <time>2021-12-21T12:22:29.000Z</time>
      </trkpt>
      <trkpt lat="44.03148" lon="5.99424">
        <ele>662</ele>
        <time>2021-12-21T12:22:30.000Z</time>
      </trkpt>
      <trkpt lat="44.03148" lon="5.99423">
        <ele>662</ele>
        <time>2021-12-21T12:22:31.000Z</time>
      </trkpt>
      <trkpt lat="44.03149" lon="5.99421">
        <ele>662</ele>
        <time>2021-12-21T12:22:32.000Z</time>
      </trkpt>
      <trkpt lat="44.03149" lon="5.9942">
        <ele>662</ele>
        <time>2021-12-21T12:22:33.000Z</time>
      </trkpt>
      <trkpt lat="44.0315" lon="5.99418">
        <ele>662</ele>
        <time>2021-12-21T12:22:34.000Z</time>
      </trkpt>
      <trkpt lat="44.0315" lon="5.99417">
        <ele>662</ele>
        <time>2021-12-21T12:22:35.000Z</time>
      </trkpt>
      <trkpt lat="44.03151" lon="5.99416">
        <ele>661</ele>
        <time>2021-12-21T12:22:36.000Z</time>
      </trkpt>
      <trkpt lat="44.03151" lon="5.99414">
        <ele>661</ele>
        <time>2021-12-21T12:22:37.000Z</time>
      </trkpt>
      <trkpt lat="44.03152" lon="5.99413">
        <ele>661</ele>
        <time>2021-12-21T12:22:38.000Z</time>
      </trkpt>
      <trkpt lat="44.03152" lon="5.99412">
        <ele>661</ele>
        <time>2021-12-21T12:22:39.000Z</time>
      </trkpt>
      <trkpt lat="44.03152" lon="5.9941">
        <ele>661</ele>
        <time>2021-12-21T12:22:40.000Z</time>
      </trkpt>
      <trkpt lat="44.03153" lon="5.99409">
        <ele>661</ele>
        <time>2021-12-21T12:22:41.000Z</time>
      </trkpt>
      <trkpt lat="44.03153" lon="5.99409">
        <ele>661</ele>
        <time>2021-12-21T12:22:42.000Z</time>
      </trkpt>
      <trkpt lat="44.03154" lon="5.99409">
        <ele>661</ele>
        <time>2021-12-21T12:22:43.000Z</time>
      </trkpt>
      <trkpt lat="44.03154" lon="5.99409">
        <ele>661</ele>
        <time>2021-12-21T12:22:44.000Z</time>
      </trkpt>
      <trkpt lat="44.03154" lon="5.99408">
        <ele>661</ele>
        <time>2021-12-21T12:22:45.000Z</time>
      </trkpt>
      <trkpt lat="44.03154" lon="5.99408">
        <ele>661</ele>
        <time>2021-12-21T12:22:46.000Z</time>
      </trkpt>
      <trkpt lat="44.03154" lon="5.99408">
        <ele>661</ele>
        <time>2021-12-21T12:22:47.000Z</time>
      </trkpt>
      <trkpt lat="44.03154" lon="5.99408">
        <ele>660</ele>
        <time>2021-12-21T12:22:48.000Z</time>
      </trkpt>
      <trkpt lat="44.03154" lon="5.99408">
        <ele>660</ele>
        <time>2021-12-21T12:22:49.000Z</time>
      </trkpt>
      <trkpt lat="44.03154" lon="5.99408">
        <ele>660</ele>
        <time>2021-12-21T12:22:50.000Z</time>
      </trkpt>
      <trkpt lat="44.03154" lon="5.99408">
        <ele>661</ele>
        <time>2021-12-21T12:22:51.000Z</time>
      </trkpt>
      <trkpt lat="44.03154" lon="5.99408">
        <ele>660</ele>
        <time>2021-12-21T12:22:52.000Z</time>
      </trkpt>
      <trkpt lat="44.03154" lon="5.99408">
        <ele>660</ele>
        <time>2021-12-21T12:22:53.000Z</time>
      </trkpt>
      <trkpt lat="44.03154" lon="5.99408">
        <ele>660</ele>
        <time>2021-12-21T12:22:54.000Z</time>
      </trkpt>
      <trkpt lat="44.03154" lon="5.99408">
        <ele>660</ele>
        <time>2021-12-21T12:22:55.000Z</time>
      </trkpt>
      <trkpt lat="44.03154" lon="5.99408">
        <ele>660</ele>
        <time>2021-12-21T12:22:56.000Z</time>
      </trkpt>
      <trkpt lat="44.03154" lon="5.99408">
        <ele>660</ele>
        <time>2021-12-21T12:22:57.000Z</time>
      </trkpt>
      <trkpt lat="44.03154" lon="5.99408">
        <ele>660</ele>
        <time>2021-12-21T12:22:58.000Z</time>
      </trkpt>
      <trkpt lat="44.03154" lon="5.99408">
        <ele>660</ele>
        <time>2021-12-21T12:22:59.000Z</time>
      </trkpt>
      <trkpt lat="44.03154" lon="5.99408">
        <ele>660</ele>
        <time>2021-12-21T12:23:00.000Z</time>
      </trkpt>
      <trkpt lat="44.03154" lon="5.99408">
        <ele>660</ele>
        <time>2021-12-21T12:23:01.000Z</time>
      </trkpt>
      <trkpt lat="44.03154" lon="5.99408">
        <ele>660</ele>
        <time>2021-12-21T12:23:02.000Z</time>
      </trkpt>
      <trkpt lat="44.03154" lon="5.99408">
        <ele>660</ele>
        <time>2021-12-21T12:23:03.000Z</time>
      </trkpt>
      <trkpt lat="44.03154" lon="5.99408">
        <ele>660</ele>
        <time>2021-12-21T12:23:04.000Z</time>
      </trkpt>
      <trkpt lat="44.03154" lon="5.99408">
        <ele>660</ele>
        <time>2021-12-21T12:23:05.000Z</time>
      </trkpt>
      <trkpt lat="44.03154" lon="5.99408">
        <ele>660</ele>
        <time>2021-12-21T12:23:06.000Z</time>
      </trkpt>
      <trkpt lat="44.03154" lon="5.99408">
        <ele>660</ele>
        <time>2021-12-21T12:23:07.000Z</time>
      </trkpt>
      <trkpt lat="44.03154" lon="5.99408">
        <ele>660</ele>
        <time>2021-12-21T12:23:08.000Z</time>
      </trkpt>
      <trkpt lat="44.03154" lon="5.99408">
        <ele>660</ele>
        <time>2021-12-21T12:23:09.000Z</time>
      </trkpt>
      <trkpt lat="44.03154" lon="5.99408">
        <ele>660</ele>
        <time>2021-12-21T12:23:10.000Z</time>
      </trkpt>
      <trkpt lat="44.03154" lon="5.99408">
        <ele>660</ele>
        <time>2021-12-21T12:23:11.000Z</time>
      </trkpt>
      <trkpt lat="44.03154" lon="5.99408">
        <ele>660</ele>
        <time>2021-12-21T12:23:12.000Z</time>
      </trkpt>
      <trkpt lat="44.03154" lon="5.99408">
        <ele>660</ele>
        <time>2021-12-21T12:23:13.000Z</time>
      </trkpt>
      <trkpt lat="44.03154" lon="5.99408">
        <ele>660</ele>
        <time>2021-12-21T12:23:14.000Z</time>
      </trkpt>
      <trkpt lat="44.03154" lon="5.99408">
        <ele>660</ele>
        <time>2021-12-21T12:23:15.000Z</time>
      </trkpt>
      <trkpt lat="44.03154" lon="5.99408">
        <ele>660</ele>
        <time>2021-12-21T12:23:16.000Z</time>
      </trkpt>
      <trkpt lat="44.03154" lon="5.99407">
        <ele>660</ele>
        <time>2021-12-21T12:23:17.000Z</time>
      </trkpt>
      <trkpt lat="44.03154" lon="5.99407">
        <ele>660</ele>
        <time>2021-12-21T12:23:18.000Z</time>
      </trkpt>
      <trkpt lat="44.03154" lon="5.99407">
        <ele>660</ele>
        <time>2021-12-21T12:23:19.000Z</time>
      </trkpt>
      <trkpt lat="44.03154" lon="5.99407">
        <ele>660</ele>
        <time>2021-12-21T12:23:20.000Z</time>
      </trkpt>
      <trkpt lat="44.03154" lon="5.99407">
        <ele>660</ele>
        <time>2021-12-21T12:23:21.000Z</time>
      </trkpt>
      <trkpt lat="44.03154" lon="5.99407">
        <ele>660</ele>
        <time>2021-12-21T12:23:22.000Z</time>
      </trkpt>
      <trkpt lat="44.03154" lon="5.99407">
        <ele>660</ele>
        <time>2021-12-21T12:23:23.000Z</time>
      </trkpt>
      <trkpt lat="44.03154" lon="5.99407">
        <ele>660</ele>
        <time>2021-12-21T12:23:24.000Z</time>
      </trkpt>
      <trkpt lat="44.03154" lon="5.99407">
        <ele>660</ele>
        <time>2021-12-21T12:23:25.000Z</time>
      </trkpt>
      <trkpt lat="44.03154" lon="5.99407">
        <ele>660</ele>
        <time>2021-12-21T12:23:26.000Z</time>
      </trkpt>
      <trkpt lat="44.03154" lon="5.99408">
        <ele>660</ele>
        <time>2021-12-21T12:23:27.000Z</time>
      </trkpt>
      <trkpt lat="44.03154" lon="5.99408">
        <ele>660</ele>
        <time>2021-12-21T12:23:28.000Z</time>
      </trkpt>
      <trkpt lat="44.03154" lon="5.99408">
        <ele>660</ele>
        <time>2021-12-21T12:23:29.000Z</time>
      </trkpt>
      <trkpt lat="44.03154" lon="5.99408">
        <ele>660</ele>
        <time>2021-12-21T12:23:30.000Z</time>
      </trkpt>
      <trkpt lat="44.03154" lon="5.99408">
        <ele>660</ele>
        <time>2021-12-21T12:23:31.000Z</time>
      </trkpt>
      <trkpt lat="44.03154" lon="5.99407">
        <ele>660</ele>
        <time>2021-12-21T12:23:32.000Z</time>
      </trkpt>
      <trkpt lat="44.03154" lon="5.99407">
        <ele>660</ele>
        <time>2021-12-21T12:23:33.000Z</time>
      </trkpt>
      <trkpt lat="44.03154" lon="5.99407">
        <ele>660</ele>
        <time>2021-12-21T12:23:34.000Z</time>
      </trkpt>
      <trkpt lat="44.03155" lon="5.99407">
        <ele>660</ele>
        <time>2021-12-21T12:23:35.000Z</time>
      </trkpt>
      <trkpt lat="44.03154" lon="5.99407">
        <ele>660</ele>
        <time>2021-12-21T12:23:36.000Z</time>
      </trkpt>
      <trkpt lat="44.03154" lon="5.99407">
        <ele>660</ele>
        <time>2021-12-21T12:23:37.000Z</time>
      </trkpt>
      <trkpt lat="44.03154" lon="5.99407">
        <ele>660</ele>
        <time>2021-12-21T12:23:38.000Z</time>
      </trkpt>
      <trkpt lat="44.03154" lon="5.99407">
        <ele>660</ele>
        <time>2021-12-21T12:23:39.000Z</time>
      </trkpt>
      <trkpt lat="44.03154" lon="5.99407">
        <ele>660</ele>
        <time>2021-12-21T12:23:40.000Z</time>
      </trkpt>
      <trkpt lat="44.03154" lon="5.99407">
        <ele>660</ele>
        <time>2021-12-21T12:23:41.000Z</time>
      </trkpt>
      <trkpt lat="44.03154" lon="5.99407">
        <ele>660</ele>
        <time>2021-12-21T12:23:42.000Z</time>
      </trkpt>
      <trkpt lat="44.03154" lon="5.99407">
        <ele>660</ele>
        <time>2021-12-21T12:23:43.000Z</time>
      </trkpt>
      <trkpt lat="44.03154" lon="5.99407">
        <ele>660</ele>
        <time>2021-12-21T12:23:44.000Z</time>
      </trkpt>
      <trkpt lat="44.03154" lon="5.99407">
        <ele>660</ele>
        <time>2021-12-21T12:23:45.000Z</time>
      </trkpt>
      <trkpt lat="44.03154" lon="5.99407">
        <ele>660</ele>
        <time>2021-12-21T12:23:46.000Z</time>
      </trkpt>
      <trkpt lat="44.03154" lon="5.99407">
        <ele>660</ele>
        <time>2021-12-21T12:23:47.000Z</time>
      </trkpt>
      <trkpt lat="44.03154" lon="5.99407">
        <ele>660</ele>
        <time>2021-12-21T12:23:48.000Z</time>
      </trkpt>
      <trkpt lat="44.03154" lon="5.99407">
        <ele>660</ele>
        <time>2021-12-21T12:23:49.000Z</time>
      </trkpt>
      <trkpt lat="44.03154" lon="5.99407">
        <ele>660</ele>
        <time>2021-12-21T12:23:50.000Z</time>
      </trkpt>
      <trkpt lat="44.03154" lon="5.99407">
        <ele>660</ele>
        <time>2021-12-21T12:23:51.000Z</time>
      </trkpt>
      <trkpt lat="44.03154" lon="5.99407">
        <ele>660</ele>
        <time>2021-12-21T12:23:52.000Z</time>
      </trkpt>
      <trkpt lat="44.03154" lon="5.99407">
        <ele>660</ele>
        <time>2021-12-21T12:23:53.000Z</time>
      </trkpt>
      <trkpt lat="44.03154" lon="5.99407">
        <ele>660</ele>
        <time>2021-12-21T12:23:54.000Z</time>
      </trkpt>
      <trkpt lat="44.03154" lon="5.99407">
        <ele>660</ele>
        <time>2021-12-21T12:23:55.000Z</time>
      </trkpt>
      <trkpt lat="44.03155" lon="5.99407">
        <ele>660</ele>
        <time>2021-12-21T12:23:56.000Z</time>
      </trkpt>
      <trkpt lat="44.03155" lon="5.99407">
        <ele>660</ele>
        <time>2021-12-21T12:23:57.000Z</time>
      </trkpt>
      <trkpt lat="44.03155" lon="5.99407">
        <ele>660</ele>
        <time>2021-12-21T12:23:58.000Z</time>
      </trkpt>
      <trkpt lat="44.03155" lon="5.99407">
        <ele>660</ele>
        <time>2021-12-21T12:23:59.000Z</time>
      </trkpt>
      <trkpt lat="44.03155" lon="5.99407">
        <ele>660</ele>
        <time>2021-12-21T12:24:00.000Z</time>
      </trkpt>
      <trkpt lat="44.03155" lon="5.99407">
        <ele>660</ele>
        <time>2021-12-21T12:24:01.000Z</time>
      </trkpt>
      <trkpt lat="44.03155" lon="5.99407">
        <ele>660</ele>
        <time>2021-12-21T12:24:02.000Z</time>
      </trkpt>
      <trkpt lat="44.03155" lon="5.99407">
        <ele>660</ele>
        <time>2021-12-21T12:24:03.000Z</time>
      </trkpt>
      <trkpt lat="44.03155" lon="5.99407">
        <ele>660</ele>
        <time>2021-12-21T12:24:04.000Z</time>
      </trkpt>
      <trkpt lat="44.03155" lon="5.99407">
        <ele>660</ele>
        <time>2021-12-21T12:24:05.000Z</time>
      </trkpt>
      <trkpt lat="44.03155" lon="5.99407">
        <ele>660</ele>
        <time>2021-12-21T12:24:06.000Z</time>
      </trkpt>
      <trkpt lat="44.03155" lon="5.99407">
        <ele>660</ele>
        <time>2021-12-21T12:24:07.000Z</time>
      </trkpt>
      <trkpt lat="44.03155" lon="5.99407">
        <ele>660</ele>
        <time>2021-12-21T12:24:08.000Z</time>
      </trkpt>
      <trkpt lat="44.03155" lon="5.99407">
        <ele>660</ele>
        <time>2021-12-21T12:24:09.000Z</time>
      </trkpt>
      <trkpt lat="44.03155" lon="5.99407">
        <ele>660</ele>
        <time>2021-12-21T12:24:10.000Z</time>
      </trkpt>
      <trkpt lat="44.03155" lon="5.99407">
        <ele>660</ele>
        <time>2021-12-21T12:24:11.000Z</time>
      </trkpt>
      <trkpt lat="44.03155" lon="5.99407">
        <ele>660</ele>
        <time>2021-12-21T12:24:12.000Z</time>
      </trkpt>
      <trkpt lat="44.03155" lon="5.99407">
        <ele>660</ele>
        <time>2021-12-21T12:24:13.000Z</time>
      </trkpt>
      <trkpt lat="44.03155" lon="5.99407">
        <ele>660</ele>
        <time>2021-12-21T12:24:14.000Z</time>
      </trkpt>
      <trkpt lat="44.03154" lon="5.99407">
        <ele>660</ele>
        <time>2021-12-21T12:24:15.000Z</time>
      </trkpt>
      <trkpt lat="44.03154" lon="5.99407">
        <ele>660</ele>
        <time>2021-12-21T12:24:16.000Z</time>
      </trkpt>
      <trkpt lat="44.03154" lon="5.99407">
        <ele>659</ele>
        <time>2021-12-21T12:24:17.000Z</time>
      </trkpt>
      <trkpt lat="44.03154" lon="5.99407">
        <ele>659</ele>
        <time>2021-12-21T12:24:18.000Z</time>
      </trkpt>
      <trkpt lat="44.03154" lon="5.99407">
        <ele>659</ele>
        <time>2021-12-21T12:24:19.000Z</time>
      </trkpt>
      <trkpt lat="44.03154" lon="5.99407">
        <ele>659</ele>
        <time>2021-12-21T12:24:20.000Z</time>
      </trkpt>
      <trkpt lat="44.03154" lon="5.99407">
        <ele>660</ele>
        <time>2021-12-21T12:24:21.000Z</time>
      </trkpt>
      <trkpt lat="44.03154" lon="5.99407">
        <ele>660</ele>
        <time>2021-12-21T12:24:22.000Z</time>
      </trkpt>
      <trkpt lat="44.03154" lon="5.99407">
        <ele>659</ele>
        <time>2021-12-21T12:24:23.000Z</time>
      </trkpt>
      <trkpt lat="44.03154" lon="5.99407">
        <ele>659</ele>
        <time>2021-12-21T12:24:24.000Z</time>
      </trkpt>
      <trkpt lat="44.03154" lon="5.99407">
        <ele>659</ele>
        <time>2021-12-21T12:24:25.000Z</time>
      </trkpt>
      <trkpt lat="44.03154" lon="5.99407">
        <ele>659</ele>
        <time>2021-12-21T12:24:26.000Z</time>
      </trkpt>
      <trkpt lat="44.03154" lon="5.99407">
        <ele>660</ele>
        <time>2021-12-21T12:24:27.000Z</time>
      </trkpt>
      <trkpt lat="44.03154" lon="5.99407">
        <ele>660</ele>
        <time>2021-12-21T12:24:28.000Z</time>
      </trkpt>
      <trkpt lat="44.03154" lon="5.99407">
        <ele>660</ele>
        <time>2021-12-21T12:24:29.000Z</time>
      </trkpt>
      <trkpt lat="44.03154" lon="5.99407">
        <ele>660</ele>
        <time>2021-12-21T12:24:30.000Z</time>
      </trkpt>
      <trkpt lat="44.03154" lon="5.99407">
        <ele>659</ele>
        <time>2021-12-21T12:24:31.000Z</time>
      </trkpt>
      <trkpt lat="44.03154" lon="5.99407">
        <ele>659</ele>
        <time>2021-12-21T12:24:32.000Z</time>
      </trkpt>
      <trkpt lat="44.03154" lon="5.99407">
        <ele>659</ele>
        <time>2021-12-21T12:24:33.000Z</time>
      </trkpt>
      <trkpt lat="44.03154" lon="5.99407">
        <ele>659</ele>
        <time>2021-12-21T12:24:34.000Z</time>
      </trkpt>
      <trkpt lat="44.03154" lon="5.99407">
        <ele>659</ele>
        <time>2021-12-21T12:24:35.000Z</time>
      </trkpt>
      <trkpt lat="44.03154" lon="5.99407">
        <ele>659</ele>
        <time>2021-12-21T12:24:36.000Z</time>
      </trkpt>
      <trkpt lat="44.03155" lon="5.99407">
        <ele>659</ele>
        <time>2021-12-21T12:24:37.000Z</time>
      </trkpt>
      <trkpt lat="44.03154" lon="5.99407">
        <ele>659</ele>
        <time>2021-12-21T12:24:38.000Z</time>
      </trkpt>
      <trkpt lat="44.03155" lon="5.99407">
        <ele>659</ele>
        <time>2021-12-21T12:24:39.000Z</time>
      </trkpt>
      <trkpt lat="44.03155" lon="5.99407">
        <ele>659</ele>
        <time>2021-12-21T12:24:40.000Z</time>
      </trkpt>
      <trkpt lat="44.03154" lon="5.99407">
        <ele>659</ele>
        <time>2021-12-21T12:24:41.000Z</time>
      </trkpt>
      <trkpt lat="44.03154" lon="5.99407">
        <ele>660</ele>
        <time>2021-12-21T12:24:42.000Z</time>
      </trkpt>
      <trkpt lat="44.03154" lon="5.99407">
        <ele>660</ele>
        <time>2021-12-21T12:24:43.000Z</time>
      </trkpt>
      <trkpt lat="44.03154" lon="5.99407">
        <ele>660</ele>
        <time>2021-12-21T12:24:44.000Z</time>
      </trkpt>
      <trkpt lat="44.03154" lon="5.99407">
        <ele>660</ele>
        <time>2021-12-21T12:24:45.000Z</time>
      </trkpt>
      <trkpt lat="44.03154" lon="5.99407">
        <ele>660</ele>
        <time>2021-12-21T12:24:46.000Z</time>
      </trkpt>
      <trkpt lat="44.03154" lon="5.99407">
        <ele>660</ele>
        <time>2021-12-21T12:24:47.000Z</time>
      </trkpt>
      <trkpt lat="44.03154" lon="5.99407">
        <ele>660</ele>
        <time>2021-12-21T12:24:48.000Z</time>
      </trkpt>
      <trkpt lat="44.03154" lon="5.99407">
        <ele>660</ele>
        <time>2021-12-21T12:24:49.000Z</time>
      </trkpt>
      <trkpt lat="44.03155" lon="5.99407">
        <ele>660</ele>
        <time>2021-12-21T12:24:50.000Z</time>
      </trkpt>
      <trkpt lat="44.03155" lon="5.99407">
        <ele>660</ele>
        <time>2021-12-21T12:24:51.000Z</time>
      </trkpt>
      <trkpt lat="44.03155" lon="5.99407">
        <ele>660</ele>
        <time>2021-12-21T12:24:52.000Z</time>
      </trkpt>
      <trkpt lat="44.03155" lon="5.99407">
        <ele>660</ele>
        <time>2021-12-21T12:24:53.000Z</time>
      </trkpt>
      <trkpt lat="44.03155" lon="5.99407">
        <ele>660</ele>
        <time>2021-12-21T12:24:54.000Z</time>
      </trkpt>
      <trkpt lat="44.03155" lon="5.99407">
        <ele>660</ele>
        <time>2021-12-21T12:24:55.000Z</time>
      </trkpt>
      <trkpt lat="44.03155" lon="5.99407">
        <ele>660</ele>
        <time>2021-12-21T12:24:56.000Z</time>
      </trkpt>
      <trkpt lat="44.03155" lon="5.99407">
        <ele>660</ele>
        <time>2021-12-21T12:24:57.000Z</time>
      </trkpt>
      <trkpt lat="44.03155" lon="5.99407">
        <ele>660</ele>
        <time>2021-12-21T12:24:58.000Z</time>
      </trkpt>
      <trkpt lat="44.03155" lon="5.99407">
        <ele>660</ele>
        <time>2021-12-21T12:24:59.000Z</time>
      </trkpt>
      <trkpt lat="44.03155" lon="5.99407">
        <ele>660</ele>
        <time>2021-12-21T12:25:00.000Z</time>
      </trkpt>
      <trkpt lat="44.03155" lon="5.99407">
        <ele>660</ele>
        <time>2021-12-21T12:25:01.000Z</time>
      </trkpt>
      <trkpt lat="44.03155" lon="5.99407">
        <ele>660</ele>
        <time>2021-12-21T12:25:02.000Z</time>
      </trkpt>
      <trkpt lat="44.03155" lon="5.99407">
        <ele>660</ele>
        <time>2021-12-21T12:25:03.000Z</time>
      </trkpt>
      <trkpt lat="44.03155" lon="5.99407">
        <ele>660</ele>
        <time>2021-12-21T12:25:04.000Z</time>
      </trkpt>
      <trkpt lat="44.03155" lon="5.99407">
        <ele>660</ele>
        <time>2021-12-21T12:25:05.000Z</time>
      </trkpt>
      <trkpt lat="44.03155" lon="5.99407">
        <ele>660</ele>
        <time>2021-12-21T12:25:06.000Z</time>
      </trkpt>
      <trkpt lat="44.03155" lon="5.99407">
        <ele>660</ele>
        <time>2021-12-21T12:25:07.000Z</time>
      </trkpt>
      <trkpt lat="44.03155" lon="5.99407">
        <ele>660</ele>
        <time>2021-12-21T12:25:08.000Z</time>
      </trkpt>
      <trkpt lat="44.03155" lon="5.99407">
        <ele>660</ele>
        <time>2021-12-21T12:25:09.000Z</time>
      </trkpt>
      <trkpt lat="44.03155" lon="5.99407">
        <ele>660</ele>
        <time>2021-12-21T12:25:10.000Z</time>
      </trkpt>
      <trkpt lat="44.03155" lon="5.99407">
        <ele>660</ele>
        <time>2021-12-21T12:25:11.000Z</time>
      </trkpt>
      <trkpt lat="44.03155" lon="5.99407">
        <ele>660</ele>
        <time>2021-12-21T12:25:12.000Z</time>
      </trkpt>
      <trkpt lat="44.03155" lon="5.99407">
        <ele>660</ele>
        <time>2021-12-21T12:25:13.000Z</time>
      </trkpt>
      <trkpt lat="44.03155" lon="5.99407">
        <ele>660</ele>
        <time>2021-12-21T12:25:14.000Z</time>
      </trkpt>
      <trkpt lat="44.03155" lon="5.99407">
        <ele>660</ele>
        <time>2021-12-21T12:25:15.000Z</time>
      </trkpt>
      <trkpt lat="44.03155" lon="5.99407">
        <ele>660</ele>
        <time>2021-12-21T12:25:16.000Z</time>
      </trkpt>
      <trkpt lat="44.03155" lon="5.99407">
        <ele>660</ele>
        <time>2021-12-21T12:25:17.000Z</time>
      </trkpt>
      <trkpt lat="44.03155" lon="5.99407">
        <ele>660</ele>
        <time>2021-12-21T12:25:18.000Z</time>
      </trkpt>
      <trkpt lat="44.03155" lon="5.99407">
        <ele>660</ele>
        <time>2021-12-21T12:25:19.000Z</time>
      </trkpt>
      <trkpt lat="44.03155" lon="5.99406">
        <ele>660</ele>
        <time>2021-12-21T12:25:20.000Z</time>
      </trkpt>
      <trkpt lat="44.03155" lon="5.99406">
        <ele>660</ele>
        <time>2021-12-21T12:25:21.000Z</time>
      </trkpt>
      <trkpt lat="44.03155" lon="5.99406">
        <ele>660</ele>
        <time>2021-12-21T12:25:22.000Z</time>
      </trkpt>
      <trkpt lat="44.03155" lon="5.99406">
        <ele>660</ele>
        <time>2021-12-21T12:25:23.000Z</time>
      </trkpt>
      <trkpt lat="44.03155" lon="5.99406">
        <ele>660</ele>
        <time>2021-12-21T12:25:24.000Z</time>
      </trkpt>
      <trkpt lat="44.03155" lon="5.99406">
        <ele>660</ele>
        <time>2021-12-21T12:25:25.000Z</time>
      </trkpt>
      <trkpt lat="44.03155" lon="5.99406">
        <ele>660</ele>
        <time>2021-12-21T12:25:26.000Z</time>
      </trkpt>
      <trkpt lat="44.03155" lon="5.99406">
        <ele>660</ele>
        <time>2021-12-21T12:25:27.000Z</time>
      </trkpt>
      <trkpt lat="44.03155" lon="5.99406">
        <ele>660</ele>
        <time>2021-12-21T12:25:28.000Z</time>
      </trkpt>
      <trkpt lat="44.03155" lon="5.99406">
        <ele>660</ele>
        <time>2021-12-21T12:25:29.000Z</time>
      </trkpt>
      <trkpt lat="44.03155" lon="5.99407">
        <ele>660</ele>
        <time>2021-12-21T12:25:30.000Z</time>
      </trkpt>
      <trkpt lat="44.03154" lon="5.99407">
        <ele>660</ele>
        <time>2021-12-21T12:25:31.000Z</time>
      </trkpt>
      <trkpt lat="44.03153" lon="5.99406">
        <ele>660</ele>
        <time>2021-12-21T12:25:32.000Z</time>
      </trkpt>
      <trkpt lat="44.03153" lon="5.99406">
        <ele>660</ele>
        <time>2021-12-21T12:25:33.000Z</time>
      </trkpt>
      <trkpt lat="44.03152" lon="5.99405">
        <ele>660</ele>
        <time>2021-12-21T12:25:34.000Z</time>
      </trkpt>
      <trkpt lat="44.03151" lon="5.99406">
        <ele>660</ele>
        <time>2021-12-21T12:25:35.000Z</time>
      </trkpt>
      <trkpt lat="44.0315" lon="5.99407">
        <ele>660</ele>
        <time>2021-12-21T12:25:36.000Z</time>
      </trkpt>
      <trkpt lat="44.0315" lon="5.99408">
        <ele>660</ele>
        <time>2021-12-21T12:25:37.000Z</time>
      </trkpt>
      <trkpt lat="44.03149" lon="5.99409">
        <ele>660</ele>
        <time>2021-12-21T12:25:38.000Z</time>
      </trkpt>
      <trkpt lat="44.03149" lon="5.9941">
        <ele>660</ele>
        <time>2021-12-21T12:25:39.000Z</time>
      </trkpt>
      <trkpt lat="44.03148" lon="5.9941">
        <ele>660</ele>
        <time>2021-12-21T12:25:40.000Z</time>
      </trkpt>
      <trkpt lat="44.03147" lon="5.9941">
        <ele>660</ele>
        <time>2021-12-21T12:25:41.000Z</time>
      </trkpt>
      <trkpt lat="44.03146" lon="5.99409">
        <ele>660</ele>
        <time>2021-12-21T12:25:42.000Z</time>
      </trkpt>
      <trkpt lat="44.03146" lon="5.99408">
        <ele>660</ele>
        <time>2021-12-21T12:25:43.000Z</time>
      </trkpt>
      <trkpt lat="44.03145" lon="5.99407">
        <ele>660</ele>
        <time>2021-12-21T12:25:44.000Z</time>
      </trkpt>
      <trkpt lat="44.03144" lon="5.99406">
        <ele>660</ele>
        <time>2021-12-21T12:25:45.000Z</time>
      </trkpt>
      <trkpt lat="44.03144" lon="5.99405">
        <ele>659</ele>
        <time>2021-12-21T12:25:46.000Z</time>
      </trkpt>
      <trkpt lat="44.03144" lon="5.99404">
        <ele>659</ele>
        <time>2021-12-21T12:25:47.000Z</time>
      </trkpt>
      <trkpt lat="44.03143" lon="5.99403">
        <ele>659</ele>
        <time>2021-12-21T12:25:48.000Z</time>
      </trkpt>
      <trkpt lat="44.03143" lon="5.99403">
        <ele>659</ele>
        <time>2021-12-21T12:25:49.000Z</time>
      </trkpt>
      <trkpt lat="44.03142" lon="5.99402">
        <ele>659</ele>
        <time>2021-12-21T12:25:50.000Z</time>
      </trkpt>
      <trkpt lat="44.03142" lon="5.99401">
        <ele>659</ele>
        <time>2021-12-21T12:25:51.000Z</time>
      </trkpt>
      <trkpt lat="44.03141" lon="5.994">
        <ele>659</ele>
        <time>2021-12-21T12:25:52.000Z</time>
      </trkpt>
      <trkpt lat="44.03141" lon="5.99399">
        <ele>659</ele>
        <time>2021-12-21T12:25:53.000Z</time>
      </trkpt>
      <trkpt lat="44.0314" lon="5.99398">
        <ele>659</ele>
        <time>2021-12-21T12:25:54.000Z</time>
      </trkpt>
      <trkpt lat="44.0314" lon="5.99397">
        <ele>658</ele>
        <time>2021-12-21T12:25:55.000Z</time>
      </trkpt>
      <trkpt lat="44.03141" lon="5.99395">
        <ele>658</ele>
        <time>2021-12-21T12:25:56.000Z</time>
      </trkpt>
      <trkpt lat="44.0314" lon="5.99395">
        <ele>658</ele>
        <time>2021-12-21T12:25:57.000Z</time>
      </trkpt>
      <trkpt lat="44.0314" lon="5.99394">
        <ele>658</ele>
        <time>2021-12-21T12:25:58.000Z</time>
      </trkpt>
      <trkpt lat="44.0314" lon="5.99393">
        <ele>658</ele>
        <time>2021-12-21T12:25:59.000Z</time>
      </trkpt>
      <trkpt lat="44.03139" lon="5.99392">
        <ele>658</ele>
        <time>2021-12-21T12:26:00.000Z</time>
      </trkpt>
      <trkpt lat="44.03139" lon="5.99392">
        <ele>658</ele>
        <time>2021-12-21T12:26:01.000Z</time>
      </trkpt>
      <trkpt lat="44.03138" lon="5.99392">
        <ele>658</ele>
        <time>2021-12-21T12:26:02.000Z</time>
      </trkpt>
      <trkpt lat="44.03137" lon="5.99392">
        <ele>658</ele>
        <time>2021-12-21T12:26:03.000Z</time>
      </trkpt>
      <trkpt lat="44.03136" lon="5.99391">
        <ele>657</ele>
        <time>2021-12-21T12:26:04.000Z</time>
      </trkpt>
      <trkpt lat="44.03136" lon="5.9939">
        <ele>657</ele>
        <time>2021-12-21T12:26:05.000Z</time>
      </trkpt>
      <trkpt lat="44.03135" lon="5.99389">
        <ele>657</ele>
        <time>2021-12-21T12:26:06.000Z</time>
      </trkpt>
      <trkpt lat="44.03135" lon="5.99388">
        <ele>657</ele>
        <time>2021-12-21T12:26:07.000Z</time>
      </trkpt>
      <trkpt lat="44.03135" lon="5.99387">
        <ele>657</ele>
        <time>2021-12-21T12:26:08.000Z</time>
      </trkpt>
      <trkpt lat="44.03134" lon="5.99386">
        <ele>656</ele>
        <time>2021-12-21T12:26:09.000Z</time>
      </trkpt>
      <trkpt lat="44.03134" lon="5.99385">
        <ele>656</ele>
        <time>2021-12-21T12:26:10.000Z</time>
      </trkpt>
      <trkpt lat="44.03133" lon="5.99384">
        <ele>656</ele>
        <time>2021-12-21T12:26:11.000Z</time>
      </trkpt>
      <trkpt lat="44.03133" lon="5.99383">
        <ele>656</ele>
        <time>2021-12-21T12:26:12.000Z</time>
      </trkpt>
      <trkpt lat="44.03133" lon="5.99383">
        <ele>655</ele>
        <time>2021-12-21T12:26:13.000Z</time>
      </trkpt>
      <trkpt lat="44.03133" lon="5.99382">
        <ele>655</ele>
        <time>2021-12-21T12:26:14.000Z</time>
      </trkpt>
      <trkpt lat="44.03133" lon="5.9938">
        <ele>655</ele>
        <time>2021-12-21T12:26:15.000Z</time>
      </trkpt>
      <trkpt lat="44.03133" lon="5.99379">
        <ele>655</ele>
        <time>2021-12-21T12:26:16.000Z</time>
      </trkpt>
      <trkpt lat="44.03133" lon="5.99378">
        <ele>654</ele>
        <time>2021-12-21T12:26:17.000Z</time>
      </trkpt>
      <trkpt lat="44.03133" lon="5.99377">
        <ele>654</ele>
        <time>2021-12-21T12:26:18.000Z</time>
      </trkpt>
      <trkpt lat="44.03133" lon="5.99376">
        <ele>654</ele>
        <time>2021-12-21T12:26:19.000Z</time>
      </trkpt>
      <trkpt lat="44.03133" lon="5.99375">
        <ele>654</ele>
        <time>2021-12-21T12:26:20.000Z</time>
      </trkpt>
      <trkpt lat="44.03133" lon="5.99375">
        <ele>653</ele>
        <time>2021-12-21T12:26:21.000Z</time>
      </trkpt>
      <trkpt lat="44.03132" lon="5.99374">
        <ele>653</ele>
        <time>2021-12-21T12:26:22.000Z</time>
      </trkpt>
      <trkpt lat="44.03132" lon="5.99373">
        <ele>653</ele>
        <time>2021-12-21T12:26:23.000Z</time>
      </trkpt>
      <trkpt lat="44.03131" lon="5.99373">
        <ele>653</ele>
        <time>2021-12-21T12:26:24.000Z</time>
      </trkpt>
      <trkpt lat="44.03131" lon="5.99372">
        <ele>652</ele>
        <time>2021-12-21T12:26:25.000Z</time>
      </trkpt>
      <trkpt lat="44.0313" lon="5.99371">
        <ele>652</ele>
        <time>2021-12-21T12:26:26.000Z</time>
      </trkpt>
      <trkpt lat="44.0313" lon="5.9937">
        <ele>652</ele>
        <time>2021-12-21T12:26:27.000Z</time>
      </trkpt>
      <trkpt lat="44.0313" lon="5.99369">
        <ele>652</ele>
        <time>2021-12-21T12:26:28.000Z</time>
      </trkpt>
      <trkpt lat="44.0313" lon="5.99368">
        <ele>652</ele>
        <time>2021-12-21T12:26:29.000Z</time>
      </trkpt>
      <trkpt lat="44.03131" lon="5.99367">
        <ele>651</ele>
        <time>2021-12-21T12:26:30.000Z</time>
      </trkpt>
      <trkpt lat="44.03131" lon="5.99366">
        <ele>651</ele>
        <time>2021-12-21T12:26:31.000Z</time>
      </trkpt>
      <trkpt lat="44.03131" lon="5.99365">
        <ele>651</ele>
        <time>2021-12-21T12:26:32.000Z</time>
      </trkpt>
      <trkpt lat="44.03131" lon="5.99364">
        <ele>651</ele>
        <time>2021-12-21T12:26:33.000Z</time>
      </trkpt>
      <trkpt lat="44.0313" lon="5.99363">
        <ele>651</ele>
        <time>2021-12-21T12:26:34.000Z</time>
      </trkpt>
      <trkpt lat="44.0313" lon="5.99362">
        <ele>651</ele>
        <time>2021-12-21T12:26:35.000Z</time>
      </trkpt>
      <trkpt lat="44.03129" lon="5.99361">
        <ele>651</ele>
        <time>2021-12-21T12:26:36.000Z</time>
      </trkpt>
      <trkpt lat="44.03129" lon="5.99359">
        <ele>650</ele>
        <time>2021-12-21T12:26:37.000Z</time>
      </trkpt>
      <trkpt lat="44.03129" lon="5.99358">
        <ele>650</ele>
        <time>2021-12-21T12:26:38.000Z</time>
      </trkpt>
      <trkpt lat="44.03129" lon="5.99357">
        <ele>650</ele>
        <time>2021-12-21T12:26:39.000Z</time>
      </trkpt>
      <trkpt lat="44.03129" lon="5.99356">
        <ele>650</ele>
        <time>2021-12-21T12:26:40.000Z</time>
      </trkpt>
      <trkpt lat="44.03129" lon="5.99355">
        <ele>649</ele>
        <time>2021-12-21T12:26:41.000Z</time>
      </trkpt>
      <trkpt lat="44.03129" lon="5.99354">
        <ele>649</ele>
        <time>2021-12-21T12:26:42.000Z</time>
      </trkpt>
      <trkpt lat="44.03128" lon="5.99353">
        <ele>649</ele>
        <time>2021-12-21T12:26:43.000Z</time>
      </trkpt>
      <trkpt lat="44.03128" lon="5.99352">
        <ele>648</ele>
        <time>2021-12-21T12:26:44.000Z</time>
      </trkpt>
      <trkpt lat="44.03128" lon="5.99351">
        <ele>648</ele>
        <time>2021-12-21T12:26:45.000Z</time>
      </trkpt>
      <trkpt lat="44.03128" lon="5.9935">
        <ele>648</ele>
        <time>2021-12-21T12:26:46.000Z</time>
      </trkpt>
      <trkpt lat="44.03128" lon="5.99349">
        <ele>648</ele>
        <time>2021-12-21T12:26:47.000Z</time>
      </trkpt>
      <trkpt lat="44.03127" lon="5.99348">
        <ele>647</ele>
        <time>2021-12-21T12:26:48.000Z</time>
      </trkpt>
      <trkpt lat="44.03127" lon="5.99347">
        <ele>647</ele>
        <time>2021-12-21T12:26:49.000Z</time>
      </trkpt>
      <trkpt lat="44.03127" lon="5.99346">
        <ele>647</ele>
        <time>2021-12-21T12:26:50.000Z</time>
      </trkpt>
      <trkpt lat="44.03126" lon="5.99345">
        <ele>647</ele>
        <time>2021-12-21T12:26:51.000Z</time>
      </trkpt>
      <trkpt lat="44.03126" lon="5.99345">
        <ele>646</ele>
        <time>2021-12-21T12:26:52.000Z</time>
      </trkpt>
      <trkpt lat="44.03125" lon="5.99344">
        <ele>646</ele>
        <time>2021-12-21T12:26:53.000Z</time>
      </trkpt>
      <trkpt lat="44.03125" lon="5.99343">
        <ele>646</ele>
        <time>2021-12-21T12:26:54.000Z</time>
      </trkpt>
      <trkpt lat="44.03125" lon="5.99343">
        <ele>646</ele>
        <time>2021-12-21T12:26:55.000Z</time>
      </trkpt>
      <trkpt lat="44.03125" lon="5.99342">
        <ele>646</ele>
        <time>2021-12-21T12:26:56.000Z</time>
      </trkpt>
      <trkpt lat="44.03125" lon="5.99342">
        <ele>646</ele>
        <time>2021-12-21T12:26:57.000Z</time>
      </trkpt>
      <trkpt lat="44.03125" lon="5.99342">
        <ele>646</ele>
        <time>2021-12-21T12:26:58.000Z</time>
      </trkpt>
      <trkpt lat="44.03125" lon="5.99342">
        <ele>645</ele>
        <time>2021-12-21T12:26:59.000Z</time>
      </trkpt>
      <trkpt lat="44.03125" lon="5.99342">
        <ele>645</ele>
        <time>2021-12-21T12:27:00.000Z</time>
      </trkpt>
      <trkpt lat="44.03125" lon="5.99342">
        <ele>645</ele>
        <time>2021-12-21T12:27:01.000Z</time>
      </trkpt>
      <trkpt lat="44.03126" lon="5.99342">
        <ele>645</ele>
        <time>2021-12-21T12:27:02.000Z</time>
      </trkpt>
      <trkpt lat="44.03126" lon="5.99342">
        <ele>645</ele>
        <time>2021-12-21T12:27:03.000Z</time>
      </trkpt>
      <trkpt lat="44.03126" lon="5.99342">
        <ele>645</ele>
        <time>2021-12-21T12:27:04.000Z</time>
      </trkpt>
      <trkpt lat="44.03126" lon="5.99342">
        <ele>645</ele>
        <time>2021-12-21T12:27:05.000Z</time>
      </trkpt>
      <trkpt lat="44.03126" lon="5.99342">
        <ele>645</ele>
        <time>2021-12-21T12:27:06.000Z</time>
      </trkpt>
      <trkpt lat="44.03126" lon="5.99342">
        <ele>645</ele>
        <time>2021-12-21T12:27:07.000Z</time>
      </trkpt>
      <trkpt lat="44.03126" lon="5.99342">
        <ele>644</ele>
        <time>2021-12-21T12:27:08.000Z</time>
      </trkpt>
      <trkpt lat="44.03126" lon="5.99342">
        <ele>644</ele>
        <time>2021-12-21T12:27:09.000Z</time>
      </trkpt>
      <trkpt lat="44.03126" lon="5.99342">
        <ele>644</ele>
        <time>2021-12-21T12:27:10.000Z</time>
      </trkpt>
      <trkpt lat="44.03126" lon="5.99342">
        <ele>644</ele>
        <time>2021-12-21T12:27:11.000Z</time>
      </trkpt>
      <trkpt lat="44.03126" lon="5.99342">
        <ele>644</ele>
        <time>2021-12-21T12:27:12.000Z</time>
      </trkpt>
      <trkpt lat="44.03126" lon="5.99341">
        <ele>644</ele>
        <time>2021-12-21T12:27:13.000Z</time>
      </trkpt>
      <trkpt lat="44.03126" lon="5.99341">
        <ele>644</ele>
        <time>2021-12-21T12:27:14.000Z</time>
      </trkpt>
      <trkpt lat="44.03126" lon="5.99341">
        <ele>644</ele>
        <time>2021-12-21T12:27:15.000Z</time>
      </trkpt>
      <trkpt lat="44.03126" lon="5.99341">
        <ele>644</ele>
        <time>2021-12-21T12:27:16.000Z</time>
      </trkpt>
      <trkpt lat="44.03126" lon="5.99341">
        <ele>644</ele>
        <time>2021-12-21T12:27:17.000Z</time>
      </trkpt>
      <trkpt lat="44.03126" lon="5.99341">
        <ele>644</ele>
        <time>2021-12-21T12:27:18.000Z</time>
      </trkpt>
      <trkpt lat="44.03126" lon="5.99341">
        <ele>644</ele>
        <time>2021-12-21T12:27:19.000Z</time>
      </trkpt>
      <trkpt lat="44.03126" lon="5.9934">
        <ele>643</ele>
        <time>2021-12-21T12:27:20.000Z</time>
      </trkpt>
      <trkpt lat="44.03127" lon="5.9934">
        <ele>643</ele>
        <time>2021-12-21T12:27:21.000Z</time>
      </trkpt>
      <trkpt lat="44.03126" lon="5.9934">
        <ele>643</ele>
        <time>2021-12-21T12:27:22.000Z</time>
      </trkpt>
      <trkpt lat="44.03126" lon="5.9934">
        <ele>643</ele>
        <time>2021-12-21T12:27:23.000Z</time>
      </trkpt>
      <trkpt lat="44.03127" lon="5.9934">
        <ele>643</ele>
        <time>2021-12-21T12:27:24.000Z</time>
      </trkpt>
      <trkpt lat="44.03127" lon="5.9934">
        <ele>643</ele>
        <time>2021-12-21T12:27:25.000Z</time>
      </trkpt>
      <trkpt lat="44.03127" lon="5.99339">
        <ele>643</ele>
        <time>2021-12-21T12:27:26.000Z</time>
      </trkpt>
      <trkpt lat="44.03127" lon="5.99339">
        <ele>643</ele>
        <time>2021-12-21T12:27:27.000Z</time>
      </trkpt>
      <trkpt lat="44.03127" lon="5.99339">
        <ele>643</ele>
        <time>2021-12-21T12:27:28.000Z</time>
      </trkpt>
      <trkpt lat="44.03127" lon="5.99339">
        <ele>643</ele>
        <time>2021-12-21T12:27:29.000Z</time>
      </trkpt>
      <trkpt lat="44.03127" lon="5.99339">
        <ele>643</ele>
        <time>2021-12-21T12:27:30.000Z</time>
      </trkpt>
      <trkpt lat="44.03127" lon="5.99339">
        <ele>643</ele>
        <time>2021-12-21T12:27:31.000Z</time>
      </trkpt>
      <trkpt lat="44.03127" lon="5.99339">
        <ele>643</ele>
        <time>2021-12-21T12:27:32.000Z</time>
      </trkpt>
      <trkpt lat="44.03127" lon="5.99339">
        <ele>643</ele>
        <time>2021-12-21T12:27:33.000Z</time>
      </trkpt>
      <trkpt lat="44.03127" lon="5.99339">
        <ele>643</ele>
        <time>2021-12-21T12:27:34.000Z</time>
      </trkpt>
      <trkpt lat="44.03127" lon="5.99339">
        <ele>643</ele>
        <time>2021-12-21T12:27:35.000Z</time>
      </trkpt>
      <trkpt lat="44.03127" lon="5.99339">
        <ele>643</ele>
        <time>2021-12-21T12:27:36.000Z</time>
      </trkpt>
      <trkpt lat="44.03127" lon="5.99339">
        <ele>643</ele>
        <time>2021-12-21T12:27:37.000Z</time>
      </trkpt>
      <trkpt lat="44.03127" lon="5.99339">
        <ele>643</ele>
        <time>2021-12-21T12:27:38.000Z</time>
      </trkpt>
      <trkpt lat="44.03127" lon="5.99339">
        <ele>643</ele>
        <time>2021-12-21T12:27:39.000Z</time>
      </trkpt>
      <trkpt lat="44.03127" lon="5.99339">
        <ele>643</ele>
        <time>2021-12-21T12:27:40.000Z</time>
      </trkpt>
      <trkpt lat="44.03127" lon="5.99339">
        <ele>643</ele>
        <time>2021-12-21T12:27:41.000Z</time>
      </trkpt>
      <trkpt lat="44.03127" lon="5.99339">
        <ele>643</ele>
        <time>2021-12-21T12:27:42.000Z</time>
      </trkpt>
      <trkpt lat="44.03127" lon="5.99339">
        <ele>643</ele>
        <time>2021-12-21T12:27:43.000Z</time>
      </trkpt>
      <trkpt lat="44.03127" lon="5.99339">
        <ele>643</ele>
        <time>2021-12-21T12:27:44.000Z</time>
      </trkpt>
      <trkpt lat="44.03127" lon="5.99339">
        <ele>643</ele>
        <time>2021-12-21T12:27:45.000Z</time>
      </trkpt>
      <trkpt lat="44.03127" lon="5.99339">
        <ele>643</ele>
        <time>2021-12-21T12:27:46.000Z</time>
      </trkpt>
      <trkpt lat="44.03127" lon="5.99339">
        <ele>643</ele>
        <time>2021-12-21T12:27:47.000Z</time>
      </trkpt>
      <trkpt lat="44.03127" lon="5.99339">
        <ele>642</ele>
        <time>2021-12-21T12:27:48.000Z</time>
      </trkpt>
      <trkpt lat="44.03126" lon="5.99339">
        <ele>642</ele>
        <time>2021-12-21T12:27:49.000Z</time>
      </trkpt>
      <trkpt lat="44.03126" lon="5.99339">
        <ele>642</ele>
        <time>2021-12-21T12:27:50.000Z</time>
      </trkpt>
      <trkpt lat="44.03126" lon="5.99338">
        <ele>642</ele>
        <time>2021-12-21T12:27:51.000Z</time>
      </trkpt>
      <trkpt lat="44.03126" lon="5.99338">
        <ele>642</ele>
        <time>2021-12-21T12:27:52.000Z</time>
      </trkpt>
      <trkpt lat="44.03127" lon="5.99337">
        <ele>642</ele>
        <time>2021-12-21T12:27:53.000Z</time>
      </trkpt>
      <trkpt lat="44.03127" lon="5.99336">
        <ele>642</ele>
        <time>2021-12-21T12:27:54.000Z</time>
      </trkpt>
      <trkpt lat="44.03126" lon="5.99335">
        <ele>642</ele>
        <time>2021-12-21T12:27:55.000Z</time>
      </trkpt>
      <trkpt lat="44.03126" lon="5.99334">
        <ele>642</ele>
        <time>2021-12-21T12:27:56.000Z</time>
      </trkpt>
      <trkpt lat="44.03125" lon="5.99334">
        <ele>641</ele>
        <time>2021-12-21T12:27:57.000Z</time>
      </trkpt>
      <trkpt lat="44.03124" lon="5.99333">
        <ele>641</ele>
        <time>2021-12-21T12:27:58.000Z</time>
      </trkpt>
      <trkpt lat="44.03123" lon="5.99332">
        <ele>641</ele>
        <time>2021-12-21T12:27:59.000Z</time>
      </trkpt>
      <trkpt lat="44.03123" lon="5.99331">
        <ele>641</ele>
        <time>2021-12-21T12:28:00.000Z</time>
      </trkpt>
      <trkpt lat="44.03123" lon="5.9933">
        <ele>641</ele>
        <time>2021-12-21T12:28:01.000Z</time>
      </trkpt>
      <trkpt lat="44.03122" lon="5.99329">
        <ele>641</ele>
        <time>2021-12-21T12:28:02.000Z</time>
      </trkpt>
      <trkpt lat="44.03122" lon="5.99328">
        <ele>641</ele>
        <time>2021-12-21T12:28:03.000Z</time>
      </trkpt>
      <trkpt lat="44.03122" lon="5.99327">
        <ele>640</ele>
        <time>2021-12-21T12:28:04.000Z</time>
      </trkpt>
      <trkpt lat="44.03122" lon="5.99326">
        <ele>640</ele>
        <time>2021-12-21T12:28:05.000Z</time>
      </trkpt>
      <trkpt lat="44.03122" lon="5.99325">
        <ele>640</ele>
        <time>2021-12-21T12:28:06.000Z</time>
      </trkpt>
      <trkpt lat="44.03122" lon="5.99324">
        <ele>640</ele>
        <time>2021-12-21T12:28:07.000Z</time>
      </trkpt>
      <trkpt lat="44.03122" lon="5.99323">
        <ele>640</ele>
        <time>2021-12-21T12:28:08.000Z</time>
      </trkpt>
      <trkpt lat="44.03121" lon="5.99322">
        <ele>639</ele>
        <time>2021-12-21T12:28:09.000Z</time>
      </trkpt>
      <trkpt lat="44.03121" lon="5.99322">
        <ele>639</ele>
        <time>2021-12-21T12:28:10.000Z</time>
      </trkpt>
      <trkpt lat="44.0312" lon="5.99321">
        <ele>639</ele>
        <time>2021-12-21T12:28:11.000Z</time>
      </trkpt>
      <trkpt lat="44.0312" lon="5.99321">
        <ele>639</ele>
        <time>2021-12-21T12:28:12.000Z</time>
      </trkpt>
      <trkpt lat="44.03119" lon="5.9932">
        <ele>639</ele>
        <time>2021-12-21T12:28:13.000Z</time>
      </trkpt>
      <trkpt lat="44.03118" lon="5.9932">
        <ele>639</ele>
        <time>2021-12-21T12:28:14.000Z</time>
      </trkpt>
      <trkpt lat="44.03118" lon="5.99319">
        <ele>638</ele>
        <time>2021-12-21T12:28:15.000Z</time>
      </trkpt>
      <trkpt lat="44.03118" lon="5.99318">
        <ele>638</ele>
        <time>2021-12-21T12:28:16.000Z</time>
      </trkpt>
      <trkpt lat="44.03119" lon="5.99317">
        <ele>638</ele>
        <time>2021-12-21T12:28:17.000Z</time>
      </trkpt>
      <trkpt lat="44.0312" lon="5.99316">
        <ele>638</ele>
        <time>2021-12-21T12:28:18.000Z</time>
      </trkpt>
      <trkpt lat="44.0312" lon="5.99315">
        <ele>638</ele>
        <time>2021-12-21T12:28:19.000Z</time>
      </trkpt>
      <trkpt lat="44.03121" lon="5.99315">
        <ele>638</ele>
        <time>2021-12-21T12:28:20.000Z</time>
      </trkpt>
      <trkpt lat="44.03122" lon="5.99314">
        <ele>637</ele>
        <time>2021-12-21T12:28:21.000Z</time>
      </trkpt>
      <trkpt lat="44.03122" lon="5.99314">
        <ele>637</ele>
        <time>2021-12-21T12:28:22.000Z</time>
      </trkpt>
      <trkpt lat="44.03123" lon="5.99314">
        <ele>637</ele>
        <time>2021-12-21T12:28:23.000Z</time>
      </trkpt>
      <trkpt lat="44.03124" lon="5.99313">
        <ele>636</ele>
        <time>2021-12-21T12:28:24.000Z</time>
      </trkpt>
      <trkpt lat="44.03124" lon="5.99313">
        <ele>636</ele>
        <time>2021-12-21T12:28:25.000Z</time>
      </trkpt>
      <trkpt lat="44.03125" lon="5.99312">
        <ele>636</ele>
        <time>2021-12-21T12:28:26.000Z</time>
      </trkpt>
      <trkpt lat="44.03126" lon="5.99312">
        <ele>635</ele>
        <time>2021-12-21T12:28:27.000Z</time>
      </trkpt>
      <trkpt lat="44.03127" lon="5.99311">
        <ele>635</ele>
        <time>2021-12-21T12:28:28.000Z</time>
      </trkpt>
      <trkpt lat="44.03128" lon="5.9931">
        <ele>635</ele>
        <time>2021-12-21T12:28:29.000Z</time>
      </trkpt>
      <trkpt lat="44.03129" lon="5.9931">
        <ele>635</ele>
        <time>2021-12-21T12:28:30.000Z</time>
      </trkpt>
      <trkpt lat="44.0313" lon="5.99309">
        <ele>634</ele>
        <time>2021-12-21T12:28:31.000Z</time>
      </trkpt>
      <trkpt lat="44.03131" lon="5.99309">
        <ele>634</ele>
        <time>2021-12-21T12:28:32.000Z</time>
      </trkpt>
      <trkpt lat="44.03131" lon="5.99309">
        <ele>634</ele>
        <time>2021-12-21T12:28:33.000Z</time>
      </trkpt>
      <trkpt lat="44.03132" lon="5.99308">
        <ele>634</ele>
        <time>2021-12-21T12:28:34.000Z</time>
      </trkpt>
      <trkpt lat="44.03133" lon="5.99308">
        <ele>633</ele>
        <time>2021-12-21T12:28:35.000Z</time>
      </trkpt>
      <trkpt lat="44.03133" lon="5.99307">
        <ele>633</ele>
        <time>2021-12-21T12:28:36.000Z</time>
      </trkpt>
      <trkpt lat="44.03134" lon="5.99307">
        <ele>633</ele>
        <time>2021-12-21T12:28:37.000Z</time>
      </trkpt>
      <trkpt lat="44.03135" lon="5.99306">
        <ele>632</ele>
        <time>2021-12-21T12:28:38.000Z</time>
      </trkpt>
      <trkpt lat="44.03136" lon="5.99306">
        <ele>632</ele>
        <time>2021-12-21T12:28:39.000Z</time>
      </trkpt>
      <trkpt lat="44.03136" lon="5.99306">
        <ele>632</ele>
        <time>2021-12-21T12:28:40.000Z</time>
      </trkpt>
      <trkpt lat="44.03137" lon="5.99305">
        <ele>632</ele>
        <time>2021-12-21T12:28:41.000Z</time>
      </trkpt>
      <trkpt lat="44.03138" lon="5.99305">
        <ele>631</ele>
        <time>2021-12-21T12:28:42.000Z</time>
      </trkpt>
      <trkpt lat="44.03138" lon="5.99305">
        <ele>631</ele>
        <time>2021-12-21T12:28:43.000Z</time>
      </trkpt>
      <trkpt lat="44.03139" lon="5.99306">
        <ele>631</ele>
        <time>2021-12-21T12:28:44.000Z</time>
      </trkpt>
      <trkpt lat="44.0314" lon="5.99306">
        <ele>631</ele>
        <time>2021-12-21T12:28:45.000Z</time>
      </trkpt>
      <trkpt lat="44.03141" lon="5.99305">
        <ele>631</ele>
        <time>2021-12-21T12:28:46.000Z</time>
      </trkpt>
      <trkpt lat="44.03142" lon="5.99305">
        <ele>630</ele>
        <time>2021-12-21T12:28:47.000Z</time>
      </trkpt>
      <trkpt lat="44.03142" lon="5.99305">
        <ele>630</ele>
        <time>2021-12-21T12:28:48.000Z</time>
      </trkpt>
      <trkpt lat="44.03143" lon="5.99305">
        <ele>630</ele>
        <time>2021-12-21T12:28:49.000Z</time>
      </trkpt>
      <trkpt lat="44.03144" lon="5.99304">
        <ele>630</ele>
        <time>2021-12-21T12:28:50.000Z</time>
      </trkpt>
      <trkpt lat="44.03145" lon="5.99304">
        <ele>630</ele>
        <time>2021-12-21T12:28:51.000Z</time>
      </trkpt>
      <trkpt lat="44.03145" lon="5.99304">
        <ele>630</ele>
        <time>2021-12-21T12:28:52.000Z</time>
      </trkpt>
      <trkpt lat="44.03145" lon="5.99303">
        <ele>629</ele>
        <time>2021-12-21T12:28:53.000Z</time>
      </trkpt>
      <trkpt lat="44.03146" lon="5.99303">
        <ele>629</ele>
        <time>2021-12-21T12:28:54.000Z</time>
      </trkpt>
      <trkpt lat="44.03146" lon="5.99302">
        <ele>629</ele>
        <time>2021-12-21T12:28:55.000Z</time>
      </trkpt>
      <trkpt lat="44.03147" lon="5.99301">
        <ele>628</ele>
        <time>2021-12-21T12:28:56.000Z</time>
      </trkpt>
      <trkpt lat="44.03147" lon="5.99301">
        <ele>628</ele>
        <time>2021-12-21T12:28:57.000Z</time>
      </trkpt>
      <trkpt lat="44.03148" lon="5.993">
        <ele>628</ele>
        <time>2021-12-21T12:28:58.000Z</time>
      </trkpt>
      <trkpt lat="44.03148" lon="5.99299">
        <ele>628</ele>
        <time>2021-12-21T12:28:59.000Z</time>
      </trkpt>
      <trkpt lat="44.03149" lon="5.99298">
        <ele>627</ele>
        <time>2021-12-21T12:29:00.000Z</time>
      </trkpt>
      <trkpt lat="44.03149" lon="5.99298">
        <ele>627</ele>
        <time>2021-12-21T12:29:01.000Z</time>
      </trkpt>
      <trkpt lat="44.0315" lon="5.99297">
        <ele>627</ele>
        <time>2021-12-21T12:29:02.000Z</time>
      </trkpt>
      <trkpt lat="44.03151" lon="5.99296">
        <ele>626</ele>
        <time>2021-12-21T12:29:03.000Z</time>
      </trkpt>
      <trkpt lat="44.03151" lon="5.99296">
        <ele>626</ele>
        <time>2021-12-21T12:29:04.000Z</time>
      </trkpt>
      <trkpt lat="44.03151" lon="5.99295">
        <ele>626</ele>
        <time>2021-12-21T12:29:05.000Z</time>
      </trkpt>
      <trkpt lat="44.03152" lon="5.99294">
        <ele>626</ele>
        <time>2021-12-21T12:29:06.000Z</time>
      </trkpt>
      <trkpt lat="44.03152" lon="5.99293">
        <ele>625</ele>
        <time>2021-12-21T12:29:07.000Z</time>
      </trkpt>
      <trkpt lat="44.03152" lon="5.99292">
        <ele>625</ele>
        <time>2021-12-21T12:29:08.000Z</time>
      </trkpt>
      <trkpt lat="44.03153" lon="5.9929">
        <ele>625</ele>
        <time>2021-12-21T12:29:09.000Z</time>
      </trkpt>
      <trkpt lat="44.03153" lon="5.9929">
        <ele>624</ele>
        <time>2021-12-21T12:29:10.000Z</time>
      </trkpt>
      <trkpt lat="44.03154" lon="5.99289">
        <ele>624</ele>
        <time>2021-12-21T12:29:11.000Z</time>
      </trkpt>
      <trkpt lat="44.03154" lon="5.99288">
        <ele>624</ele>
        <time>2021-12-21T12:29:12.000Z</time>
      </trkpt>
      <trkpt lat="44.03155" lon="5.99287">
        <ele>623</ele>
        <time>2021-12-21T12:29:13.000Z</time>
      </trkpt>
      <trkpt lat="44.03155" lon="5.99286">
        <ele>623</ele>
        <time>2021-12-21T12:29:14.000Z</time>
      </trkpt>
      <trkpt lat="44.03155" lon="5.99285">
        <ele>623</ele>
        <time>2021-12-21T12:29:15.000Z</time>
      </trkpt>
      <trkpt lat="44.03156" lon="5.99284">
        <ele>622</ele>
        <time>2021-12-21T12:29:16.000Z</time>
      </trkpt>
      <trkpt lat="44.03156" lon="5.99283">
        <ele>622</ele>
        <time>2021-12-21T12:29:17.000Z</time>
      </trkpt>
      <trkpt lat="44.03156" lon="5.99282">
        <ele>622</ele>
        <time>2021-12-21T12:29:18.000Z</time>
      </trkpt>
      <trkpt lat="44.03157" lon="5.99281">
        <ele>621</ele>
        <time>2021-12-21T12:29:19.000Z</time>
      </trkpt>
      <trkpt lat="44.03157" lon="5.9928">
        <ele>621</ele>
        <time>2021-12-21T12:29:20.000Z</time>
      </trkpt>
      <trkpt lat="44.03157" lon="5.9928">
        <ele>621</ele>
        <time>2021-12-21T12:29:21.000Z</time>
      </trkpt>
      <trkpt lat="44.03157" lon="5.99279">
        <ele>620</ele>
        <time>2021-12-21T12:29:22.000Z</time>
      </trkpt>
      <trkpt lat="44.03157" lon="5.99278">
        <ele>620</ele>
        <time>2021-12-21T12:29:23.000Z</time>
      </trkpt>
      <trkpt lat="44.03156" lon="5.99277">
        <ele>620</ele>
        <time>2021-12-21T12:29:24.000Z</time>
      </trkpt>
      <trkpt lat="44.03156" lon="5.99277">
        <ele>620</ele>
        <time>2021-12-21T12:29:25.000Z</time>
      </trkpt>
      <trkpt lat="44.03155" lon="5.99276">
        <ele>620</ele>
        <time>2021-12-21T12:29:26.000Z</time>
      </trkpt>
      <trkpt lat="44.03156" lon="5.99275">
        <ele>619</ele>
        <time>2021-12-21T12:29:27.000Z</time>
      </trkpt>
      <trkpt lat="44.03155" lon="5.99274">
        <ele>619</ele>
        <time>2021-12-21T12:29:28.000Z</time>
      </trkpt>
      <trkpt lat="44.03155" lon="5.99273">
        <ele>619</ele>
        <time>2021-12-21T12:29:29.000Z</time>
      </trkpt>
      <trkpt lat="44.03155" lon="5.99272">
        <ele>619</ele>
        <time>2021-12-21T12:29:30.000Z</time>
      </trkpt>
      <trkpt lat="44.03156" lon="5.99271">
        <ele>619</ele>
        <time>2021-12-21T12:29:31.000Z</time>
      </trkpt>
      <trkpt lat="44.03156" lon="5.99271">
        <ele>618</ele>
        <time>2021-12-21T12:29:32.000Z</time>
      </trkpt>
      <trkpt lat="44.03157" lon="5.9927">
        <ele>618</ele>
        <time>2021-12-21T12:29:33.000Z</time>
      </trkpt>
      <trkpt lat="44.03157" lon="5.9927">
        <ele>618</ele>
        <time>2021-12-21T12:29:34.000Z</time>
      </trkpt>
      <trkpt lat="44.03157" lon="5.99269">
        <ele>618</ele>
        <time>2021-12-21T12:29:35.000Z</time>
      </trkpt>
      <trkpt lat="44.03158" lon="5.99268">
        <ele>618</ele>
        <time>2021-12-21T12:29:36.000Z</time>
      </trkpt>
      <trkpt lat="44.03158" lon="5.99267">
        <ele>617</ele>
        <time>2021-12-21T12:29:37.000Z</time>
      </trkpt>
      <trkpt lat="44.03158" lon="5.99267">
        <ele>617</ele>
        <time>2021-12-21T12:29:38.000Z</time>
      </trkpt>
      <trkpt lat="44.03158" lon="5.99266">
        <ele>617</ele>
        <time>2021-12-21T12:29:39.000Z</time>
      </trkpt>
      <trkpt lat="44.03158" lon="5.99264">
        <ele>617</ele>
        <time>2021-12-21T12:29:40.000Z</time>
      </trkpt>
      <trkpt lat="44.03158" lon="5.99263">
        <ele>617</ele>
        <time>2021-12-21T12:29:41.000Z</time>
      </trkpt>
      <trkpt lat="44.03158" lon="5.99262">
        <ele>617</ele>
        <time>2021-12-21T12:29:42.000Z</time>
      </trkpt>
      <trkpt lat="44.03158" lon="5.99261">
        <ele>617</ele>
        <time>2021-12-21T12:29:43.000Z</time>
      </trkpt>
      <trkpt lat="44.03158" lon="5.9926">
        <ele>617</ele>
        <time>2021-12-21T12:29:44.000Z</time>
      </trkpt>
      <trkpt lat="44.03158" lon="5.99259">
        <ele>616</ele>
        <time>2021-12-21T12:29:45.000Z</time>
      </trkpt>
      <trkpt lat="44.03158" lon="5.99259">
        <ele>616</ele>
        <time>2021-12-21T12:29:46.000Z</time>
      </trkpt>
      <trkpt lat="44.03158" lon="5.99259">
        <ele>616</ele>
        <time>2021-12-21T12:29:47.000Z</time>
      </trkpt>
      <trkpt lat="44.03158" lon="5.99258">
        <ele>616</ele>
        <time>2021-12-21T12:29:48.000Z</time>
      </trkpt>
      <trkpt lat="44.03159" lon="5.99257">
        <ele>616</ele>
        <time>2021-12-21T12:29:49.000Z</time>
      </trkpt>
      <trkpt lat="44.03159" lon="5.99256">
        <ele>616</ele>
        <time>2021-12-21T12:29:50.000Z</time>
      </trkpt>
      <trkpt lat="44.03159" lon="5.99254">
        <ele>616</ele>
        <time>2021-12-21T12:29:51.000Z</time>
      </trkpt>
      <trkpt lat="44.03159" lon="5.99253">
        <ele>616</ele>
        <time>2021-12-21T12:29:52.000Z</time>
      </trkpt>
      <trkpt lat="44.03159" lon="5.99252">
        <ele>616</ele>
        <time>2021-12-21T12:29:53.000Z</time>
      </trkpt>
      <trkpt lat="44.0316" lon="5.9925">
        <ele>616</ele>
        <time>2021-12-21T12:29:54.000Z</time>
      </trkpt>
      <trkpt lat="44.0316" lon="5.99249">
        <ele>615</ele>
        <time>2021-12-21T12:29:55.000Z</time>
      </trkpt>
      <trkpt lat="44.03161" lon="5.99248">
        <ele>615</ele>
        <time>2021-12-21T12:29:56.000Z</time>
      </trkpt>
      <trkpt lat="44.03161" lon="5.99246">
        <ele>615</ele>
        <time>2021-12-21T12:29:57.000Z</time>
      </trkpt>
      <trkpt lat="44.03162" lon="5.99245">
        <ele>615</ele>
        <time>2021-12-21T12:29:58.000Z</time>
      </trkpt>
      <trkpt lat="44.03162" lon="5.99243">
        <ele>615</ele>
        <time>2021-12-21T12:29:59.000Z</time>
      </trkpt>
      <trkpt lat="44.03162" lon="5.99241">
        <ele>615</ele>
        <time>2021-12-21T12:30:00.000Z</time>
      </trkpt>
      <trkpt lat="44.03162" lon="5.99239">
        <ele>615</ele>
        <time>2021-12-21T12:30:01.000Z</time>
      </trkpt>
      <trkpt lat="44.03162" lon="5.99237">
        <ele>615</ele>
        <time>2021-12-21T12:30:02.000Z</time>
      </trkpt>
      <trkpt lat="44.03162" lon="5.99236">
        <ele>614</ele>
        <time>2021-12-21T12:30:03.000Z</time>
      </trkpt>
      <trkpt lat="44.03162" lon="5.99234">
        <ele>614</ele>
        <time>2021-12-21T12:30:04.000Z</time>
      </trkpt>
      <trkpt lat="44.03162" lon="5.99233">
        <ele>614</ele>
        <time>2021-12-21T12:30:05.000Z</time>
      </trkpt>
      <trkpt lat="44.03162" lon="5.99231">
        <ele>614</ele>
        <time>2021-12-21T12:30:06.000Z</time>
      </trkpt>
      <trkpt lat="44.03162" lon="5.99229">
        <ele>614</ele>
        <time>2021-12-21T12:30:07.000Z</time>
      </trkpt>
      <trkpt lat="44.03162" lon="5.99228">
        <ele>614</ele>
        <time>2021-12-21T12:30:08.000Z</time>
      </trkpt>
      <trkpt lat="44.03162" lon="5.99226">
        <ele>614</ele>
        <time>2021-12-21T12:30:09.000Z</time>
      </trkpt>
      <trkpt lat="44.03162" lon="5.99225">
        <ele>614</ele>
        <time>2021-12-21T12:30:10.000Z</time>
      </trkpt>
      <trkpt lat="44.03163" lon="5.99223">
        <ele>614</ele>
        <time>2021-12-21T12:30:11.000Z</time>
      </trkpt>
      <trkpt lat="44.03163" lon="5.99222">
        <ele>614</ele>
        <time>2021-12-21T12:30:12.000Z</time>
      </trkpt>
      <trkpt lat="44.03163" lon="5.9922">
        <ele>614</ele>
        <time>2021-12-21T12:30:13.000Z</time>
      </trkpt>
      <trkpt lat="44.03164" lon="5.99219">
        <ele>614</ele>
        <time>2021-12-21T12:30:14.000Z</time>
      </trkpt>
      <trkpt lat="44.03164" lon="5.99217">
        <ele>613</ele>
        <time>2021-12-21T12:30:15.000Z</time>
      </trkpt>
      <trkpt lat="44.03164" lon="5.99216">
        <ele>613</ele>
        <time>2021-12-21T12:30:16.000Z</time>
      </trkpt>
      <trkpt lat="44.03165" lon="5.99214">
        <ele>613</ele>
        <time>2021-12-21T12:30:17.000Z</time>
      </trkpt>
      <trkpt lat="44.03165" lon="5.99213">
        <ele>613</ele>
        <time>2021-12-21T12:30:18.000Z</time>
      </trkpt>
      <trkpt lat="44.03165" lon="5.99211">
        <ele>613</ele>
        <time>2021-12-21T12:30:19.000Z</time>
      </trkpt>
      <trkpt lat="44.03165" lon="5.9921">
        <ele>613</ele>
        <time>2021-12-21T12:30:20.000Z</time>
      </trkpt>
      <trkpt lat="44.03165" lon="5.99209">
        <ele>613</ele>
        <time>2021-12-21T12:30:21.000Z</time>
      </trkpt>
      <trkpt lat="44.03165" lon="5.99207">
        <ele>612</ele>
        <time>2021-12-21T12:30:22.000Z</time>
      </trkpt>
      <trkpt lat="44.03165" lon="5.99206">
        <ele>612</ele>
        <time>2021-12-21T12:30:23.000Z</time>
      </trkpt>
      <trkpt lat="44.03164" lon="5.99204">
        <ele>612</ele>
        <time>2021-12-21T12:30:24.000Z</time>
      </trkpt>
      <trkpt lat="44.03164" lon="5.99203">
        <ele>612</ele>
        <time>2021-12-21T12:30:25.000Z</time>
      </trkpt>
      <trkpt lat="44.03164" lon="5.99202">
        <ele>612</ele>
        <time>2021-12-21T12:30:26.000Z</time>
      </trkpt>
      <trkpt lat="44.03164" lon="5.99201">
        <ele>612</ele>
        <time>2021-12-21T12:30:27.000Z</time>
      </trkpt>
      <trkpt lat="44.03163" lon="5.992">
        <ele>611</ele>
        <time>2021-12-21T12:30:28.000Z</time>
      </trkpt>
      <trkpt lat="44.03163" lon="5.99198">
        <ele>611</ele>
        <time>2021-12-21T12:30:29.000Z</time>
      </trkpt>
      <trkpt lat="44.03163" lon="5.99197">
        <ele>611</ele>
        <time>2021-12-21T12:30:30.000Z</time>
      </trkpt>
      <trkpt lat="44.03163" lon="5.99195">
        <ele>611</ele>
        <time>2021-12-21T12:30:31.000Z</time>
      </trkpt>
      <trkpt lat="44.03163" lon="5.99194">
        <ele>610</ele>
        <time>2021-12-21T12:30:32.000Z</time>
      </trkpt>
      <trkpt lat="44.03163" lon="5.99192">
        <ele>610</ele>
        <time>2021-12-21T12:30:33.000Z</time>
      </trkpt>
      <trkpt lat="44.03163" lon="5.9919">
        <ele>610</ele>
        <time>2021-12-21T12:30:34.000Z</time>
      </trkpt>
      <trkpt lat="44.03163" lon="5.99189">
        <ele>609</ele>
        <time>2021-12-21T12:30:35.000Z</time>
      </trkpt>
      <trkpt lat="44.03163" lon="5.99187">
        <ele>609</ele>
        <time>2021-12-21T12:30:36.000Z</time>
      </trkpt>
      <trkpt lat="44.03163" lon="5.99186">
        <ele>609</ele>
        <time>2021-12-21T12:30:37.000Z</time>
      </trkpt>
      <trkpt lat="44.03163" lon="5.99184">
        <ele>609</ele>
        <time>2021-12-21T12:30:38.000Z</time>
      </trkpt>
      <trkpt lat="44.03162" lon="5.99183">
        <ele>609</ele>
        <time>2021-12-21T12:30:39.000Z</time>
      </trkpt>
      <trkpt lat="44.03162" lon="5.99181">
        <ele>609</ele>
        <time>2021-12-21T12:30:40.000Z</time>
      </trkpt>
      <trkpt lat="44.03162" lon="5.99179">
        <ele>608</ele>
        <time>2021-12-21T12:30:41.000Z</time>
      </trkpt>
      <trkpt lat="44.03162" lon="5.99177">
        <ele>608</ele>
        <time>2021-12-21T12:30:42.000Z</time>
      </trkpt>
      <trkpt lat="44.03161" lon="5.99176">
        <ele>608</ele>
        <time>2021-12-21T12:30:43.000Z</time>
      </trkpt>
      <trkpt lat="44.03161" lon="5.99174">
        <ele>608</ele>
        <time>2021-12-21T12:30:44.000Z</time>
      </trkpt>
      <trkpt lat="44.03161" lon="5.99173">
        <ele>608</ele>
        <time>2021-12-21T12:30:45.000Z</time>
      </trkpt>
      <trkpt lat="44.03161" lon="5.99172">
        <ele>607</ele>
        <time>2021-12-21T12:30:46.000Z</time>
      </trkpt>
      <trkpt lat="44.03161" lon="5.9917">
        <ele>607</ele>
        <time>2021-12-21T12:30:47.000Z</time>
      </trkpt>
      <trkpt lat="44.03161" lon="5.99168">
        <ele>607</ele>
        <time>2021-12-21T12:30:48.000Z</time>
      </trkpt>
      <trkpt lat="44.0316" lon="5.99167">
        <ele>607</ele>
        <time>2021-12-21T12:30:49.000Z</time>
      </trkpt>
      <trkpt lat="44.0316" lon="5.99166">
        <ele>607</ele>
        <time>2021-12-21T12:30:50.000Z</time>
      </trkpt>
      <trkpt lat="44.0316" lon="5.99164">
        <ele>606</ele>
        <time>2021-12-21T12:30:51.000Z</time>
      </trkpt>
      <trkpt lat="44.03159" lon="5.99163">
        <ele>606</ele>
        <time>2021-12-21T12:30:52.000Z</time>
      </trkpt>
      <trkpt lat="44.03159" lon="5.99161">
        <ele>606</ele>
        <time>2021-12-21T12:30:53.000Z</time>
      </trkpt>
      <trkpt lat="44.03159" lon="5.9916">
        <ele>606</ele>
        <time>2021-12-21T12:30:54.000Z</time>
      </trkpt>
      <trkpt lat="44.03159" lon="5.99158">
        <ele>606</ele>
        <time>2021-12-21T12:30:55.000Z</time>
      </trkpt>
      <trkpt lat="44.03158" lon="5.99157">
        <ele>606</ele>
        <time>2021-12-21T12:30:56.000Z</time>
      </trkpt>
      <trkpt lat="44.03158" lon="5.99156">
        <ele>606</ele>
        <time>2021-12-21T12:30:57.000Z</time>
      </trkpt>
      <trkpt lat="44.03157" lon="5.99155">
        <ele>605</ele>
        <time>2021-12-21T12:30:58.000Z</time>
      </trkpt>
      <trkpt lat="44.03157" lon="5.99154">
        <ele>605</ele>
        <time>2021-12-21T12:30:59.000Z</time>
      </trkpt>
      <trkpt lat="44.03157" lon="5.99152">
        <ele>605</ele>
        <time>2021-12-21T12:31:00.000Z</time>
      </trkpt>
      <trkpt lat="44.03157" lon="5.9915">
        <ele>605</ele>
        <time>2021-12-21T12:31:01.000Z</time>
      </trkpt>
      <trkpt lat="44.03157" lon="5.99149">
        <ele>605</ele>
        <time>2021-12-21T12:31:02.000Z</time>
      </trkpt>
      <trkpt lat="44.03157" lon="5.99148">
        <ele>604</ele>
        <time>2021-12-21T12:31:03.000Z</time>
      </trkpt>
      <trkpt lat="44.03157" lon="5.99146">
        <ele>604</ele>
        <time>2021-12-21T12:31:04.000Z</time>
      </trkpt>
      <trkpt lat="44.03157" lon="5.99144">
        <ele>604</ele>
        <time>2021-12-21T12:31:05.000Z</time>
      </trkpt>
      <trkpt lat="44.03157" lon="5.99143">
        <ele>604</ele>
        <time>2021-12-21T12:31:06.000Z</time>
      </trkpt>
      <trkpt lat="44.03157" lon="5.99141">
        <ele>604</ele>
        <time>2021-12-21T12:31:07.000Z</time>
      </trkpt>
      <trkpt lat="44.03156" lon="5.9914">
        <ele>604</ele>
        <time>2021-12-21T12:31:08.000Z</time>
      </trkpt>
      <trkpt lat="44.03156" lon="5.99139">
        <ele>604</ele>
        <time>2021-12-21T12:31:09.000Z</time>
      </trkpt>
      <trkpt lat="44.03156" lon="5.99138">
        <ele>604</ele>
        <time>2021-12-21T12:31:10.000Z</time>
      </trkpt>
      <trkpt lat="44.03155" lon="5.99137">
        <ele>604</ele>
        <time>2021-12-21T12:31:11.000Z</time>
      </trkpt>
      <trkpt lat="44.03155" lon="5.99135">
        <ele>603</ele>
        <time>2021-12-21T12:31:12.000Z</time>
      </trkpt>
      <trkpt lat="44.03154" lon="5.99134">
        <ele>603</ele>
        <time>2021-12-21T12:31:13.000Z</time>
      </trkpt>
      <trkpt lat="44.03154" lon="5.99133">
        <ele>603</ele>
        <time>2021-12-21T12:31:14.000Z</time>
      </trkpt>
      <trkpt lat="44.03153" lon="5.99132">
        <ele>603</ele>
        <time>2021-12-21T12:31:15.000Z</time>
      </trkpt>
      <trkpt lat="44.03153" lon="5.9913">
        <ele>603</ele>
        <time>2021-12-21T12:31:16.000Z</time>
      </trkpt>
      <trkpt lat="44.03153" lon="5.99129">
        <ele>603</ele>
        <time>2021-12-21T12:31:17.000Z</time>
      </trkpt>
      <trkpt lat="44.03153" lon="5.99128">
        <ele>603</ele>
        <time>2021-12-21T12:31:18.000Z</time>
      </trkpt>
      <trkpt lat="44.03153" lon="5.99127">
        <ele>603</ele>
        <time>2021-12-21T12:31:19.000Z</time>
      </trkpt>
      <trkpt lat="44.03153" lon="5.99125">
        <ele>603</ele>
        <time>2021-12-21T12:31:20.000Z</time>
      </trkpt>
      <trkpt lat="44.03152" lon="5.99124">
        <ele>603</ele>
        <time>2021-12-21T12:31:21.000Z</time>
      </trkpt>
      <trkpt lat="44.03152" lon="5.99123">
        <ele>603</ele>
        <time>2021-12-21T12:31:22.000Z</time>
      </trkpt>
      <trkpt lat="44.03152" lon="5.99122">
        <ele>603</ele>
        <time>2021-12-21T12:31:23.000Z</time>
      </trkpt>
      <trkpt lat="44.03152" lon="5.99121">
        <ele>603</ele>
        <time>2021-12-21T12:31:24.000Z</time>
      </trkpt>
      <trkpt lat="44.03151" lon="5.9912">
        <ele>602</ele>
        <time>2021-12-21T12:31:25.000Z</time>
      </trkpt>
      <trkpt lat="44.03151" lon="5.99119">
        <ele>602</ele>
        <time>2021-12-21T12:31:26.000Z</time>
      </trkpt>
      <trkpt lat="44.03151" lon="5.99118">
        <ele>602</ele>
        <time>2021-12-21T12:31:27.000Z</time>
      </trkpt>
      <trkpt lat="44.03151" lon="5.99116">
        <ele>602</ele>
        <time>2021-12-21T12:31:28.000Z</time>
      </trkpt>
      <trkpt lat="44.03151" lon="5.99115">
        <ele>602</ele>
        <time>2021-12-21T12:31:29.000Z</time>
      </trkpt>
      <trkpt lat="44.03151" lon="5.99114">
        <ele>602</ele>
        <time>2021-12-21T12:31:30.000Z</time>
      </trkpt>
      <trkpt lat="44.0315" lon="5.99113">
        <ele>601</ele>
        <time>2021-12-21T12:31:31.000Z</time>
      </trkpt>
      <trkpt lat="44.03149" lon="5.99113">
        <ele>601</ele>
        <time>2021-12-21T12:31:32.000Z</time>
      </trkpt>
      <trkpt lat="44.03149" lon="5.99112">
        <ele>601</ele>
        <time>2021-12-21T12:31:33.000Z</time>
      </trkpt>
      <trkpt lat="44.03148" lon="5.99111">
        <ele>601</ele>
        <time>2021-12-21T12:31:34.000Z</time>
      </trkpt>
      <trkpt lat="44.03147" lon="5.9911">
        <ele>601</ele>
        <time>2021-12-21T12:31:35.000Z</time>
      </trkpt>
      <trkpt lat="44.03147" lon="5.99108">
        <ele>600</ele>
        <time>2021-12-21T12:31:36.000Z</time>
      </trkpt>
      <trkpt lat="44.03146" lon="5.99107">
        <ele>600</ele>
        <time>2021-12-21T12:31:37.000Z</time>
      </trkpt>
      <trkpt lat="44.03146" lon="5.99106">
        <ele>600</ele>
        <time>2021-12-21T12:31:38.000Z</time>
      </trkpt>
      <trkpt lat="44.03145" lon="5.99105">
        <ele>600</ele>
        <time>2021-12-21T12:31:39.000Z</time>
      </trkpt>
      <trkpt lat="44.03145" lon="5.99104">
        <ele>600</ele>
        <time>2021-12-21T12:31:40.000Z</time>
      </trkpt>
      <trkpt lat="44.03145" lon="5.99104">
        <ele>600</ele>
        <time>2021-12-21T12:31:41.000Z</time>
      </trkpt>
      <trkpt lat="44.03145" lon="5.99104">
        <ele>599</ele>
        <time>2021-12-21T12:31:42.000Z</time>
      </trkpt>
      <trkpt lat="44.03145" lon="5.99104">
        <ele>599</ele>
        <time>2021-12-21T12:31:43.000Z</time>
      </trkpt>
      <trkpt lat="44.03145" lon="5.99104">
        <ele>599</ele>
        <time>2021-12-21T12:31:44.000Z</time>
      </trkpt>
      <trkpt lat="44.03145" lon="5.99104">
        <ele>599</ele>
        <time>2021-12-21T12:31:45.000Z</time>
      </trkpt>
      <trkpt lat="44.03145" lon="5.99104">
        <ele>599</ele>
        <time>2021-12-21T12:31:46.000Z</time>
      </trkpt>
      <trkpt lat="44.03145" lon="5.99103">
        <ele>599</ele>
        <time>2021-12-21T12:31:47.000Z</time>
      </trkpt>
      <trkpt lat="44.03145" lon="5.99103">
        <ele>598</ele>
        <time>2021-12-21T12:31:48.000Z</time>
      </trkpt>
      <trkpt lat="44.03145" lon="5.99103">
        <ele>598</ele>
        <time>2021-12-21T12:31:49.000Z</time>
      </trkpt>
      <trkpt lat="44.03145" lon="5.99103">
        <ele>598</ele>
        <time>2021-12-21T12:31:50.000Z</time>
      </trkpt>
      <trkpt lat="44.03145" lon="5.99103">
        <ele>598</ele>
        <time>2021-12-21T12:31:51.000Z</time>
      </trkpt>
      <trkpt lat="44.03145" lon="5.99103">
        <ele>598</ele>
        <time>2021-12-21T12:31:52.000Z</time>
      </trkpt>
      <trkpt lat="44.03145" lon="5.99103">
        <ele>598</ele>
        <time>2021-12-21T12:31:53.000Z</time>
      </trkpt>
      <trkpt lat="44.03145" lon="5.99103">
        <ele>598</ele>
        <time>2021-12-21T12:31:54.000Z</time>
      </trkpt>
      <trkpt lat="44.03145" lon="5.99103">
        <ele>598</ele>
        <time>2021-12-21T12:31:55.000Z</time>
      </trkpt>
      <trkpt lat="44.03145" lon="5.99102">
        <ele>598</ele>
        <time>2021-12-21T12:31:56.000Z</time>
      </trkpt>
      <trkpt lat="44.03145" lon="5.99102">
        <ele>597</ele>
        <time>2021-12-21T12:31:57.000Z</time>
      </trkpt>
      <trkpt lat="44.03145" lon="5.99102">
        <ele>597</ele>
        <time>2021-12-21T12:31:58.000Z</time>
      </trkpt>
      <trkpt lat="44.03145" lon="5.99102">
        <ele>597</ele>
        <time>2021-12-21T12:31:59.000Z</time>
      </trkpt>
      <trkpt lat="44.03145" lon="5.99102">
        <ele>597</ele>
        <time>2021-12-21T12:32:00.000Z</time>
      </trkpt>
      <trkpt lat="44.03145" lon="5.99102">
        <ele>597</ele>
        <time>2021-12-21T12:32:01.000Z</time>
      </trkpt>
      <trkpt lat="44.03145" lon="5.99102">
        <ele>597</ele>
        <time>2021-12-21T12:32:02.000Z</time>
      </trkpt>
      <trkpt lat="44.03145" lon="5.99102">
        <ele>597</ele>
        <time>2021-12-21T12:32:03.000Z</time>
      </trkpt>
      <trkpt lat="44.03145" lon="5.99102">
        <ele>597</ele>
        <time>2021-12-21T12:32:04.000Z</time>
      </trkpt>
      <trkpt lat="44.03145" lon="5.99102">
        <ele>597</ele>
        <time>2021-12-21T12:32:05.000Z</time>
      </trkpt>
      <trkpt lat="44.03145" lon="5.99102">
        <ele>597</ele>
        <time>2021-12-21T12:32:06.000Z</time>
      </trkpt>
      <trkpt lat="44.03145" lon="5.99101">
        <ele>596</ele>
        <time>2021-12-21T12:32:07.000Z</time>
      </trkpt>
      <trkpt lat="44.03145" lon="5.99101">
        <ele>596</ele>
        <time>2021-12-21T12:32:08.000Z</time>
      </trkpt>
      <trkpt lat="44.03146" lon="5.99101">
        <ele>596</ele>
        <time>2021-12-21T12:32:09.000Z</time>
      </trkpt>
      <trkpt lat="44.03146" lon="5.99101">
        <ele>596</ele>
        <time>2021-12-21T12:32:10.000Z</time>
      </trkpt>
      <trkpt lat="44.03146" lon="5.99101">
        <ele>596</ele>
        <time>2021-12-21T12:32:11.000Z</time>
      </trkpt>
      <trkpt lat="44.03145" lon="5.991">
        <ele>596</ele>
        <time>2021-12-21T12:32:12.000Z</time>
      </trkpt>
      <trkpt lat="44.03145" lon="5.991">
        <ele>596</ele>
        <time>2021-12-21T12:32:13.000Z</time>
      </trkpt>
      <trkpt lat="44.03145" lon="5.991">
        <ele>596</ele>
        <time>2021-12-21T12:32:14.000Z</time>
      </trkpt>
      <trkpt lat="44.03145" lon="5.991">
        <ele>596</ele>
        <time>2021-12-21T12:32:15.000Z</time>
      </trkpt>
      <trkpt lat="44.03145" lon="5.991">
        <ele>596</ele>
        <time>2021-12-21T12:32:16.000Z</time>
      </trkpt>
      <trkpt lat="44.03145" lon="5.991">
        <ele>595</ele>
        <time>2021-12-21T12:32:17.000Z</time>
      </trkpt>
      <trkpt lat="44.03145" lon="5.991">
        <ele>595</ele>
        <time>2021-12-21T12:32:18.000Z</time>
      </trkpt>
      <trkpt lat="44.03145" lon="5.991">
        <ele>595</ele>
        <time>2021-12-21T12:32:19.000Z</time>
      </trkpt>
      <trkpt lat="44.03145" lon="5.991">
        <ele>595</ele>
        <time>2021-12-21T12:32:20.000Z</time>
      </trkpt>
      <trkpt lat="44.03145" lon="5.991">
        <ele>595</ele>
        <time>2021-12-21T12:32:21.000Z</time>
      </trkpt>
      <trkpt lat="44.03145" lon="5.991">
        <ele>595</ele>
        <time>2021-12-21T12:32:22.000Z</time>
      </trkpt>
      <trkpt lat="44.03145" lon="5.991">
        <ele>595</ele>
        <time>2021-12-21T12:32:23.000Z</time>
      </trkpt>
      <trkpt lat="44.03144" lon="5.991">
        <ele>595</ele>
        <time>2021-12-21T12:32:24.000Z</time>
      </trkpt>
      <trkpt lat="44.03144" lon="5.99099">
        <ele>595</ele>
        <time>2021-12-21T12:32:25.000Z</time>
      </trkpt>
      <trkpt lat="44.03143" lon="5.99099">
        <ele>595</ele>
        <time>2021-12-21T12:32:26.000Z</time>
      </trkpt>
      <trkpt lat="44.03143" lon="5.99098">
        <ele>595</ele>
        <time>2021-12-21T12:32:27.000Z</time>
      </trkpt>
      <trkpt lat="44.03143" lon="5.99098">
        <ele>595</ele>
        <time>2021-12-21T12:32:28.000Z</time>
      </trkpt>
      <trkpt lat="44.03142" lon="5.99098">
        <ele>595</ele>
        <time>2021-12-21T12:32:29.000Z</time>
      </trkpt>
      <trkpt lat="44.03142" lon="5.99098">
        <ele>595</ele>
        <time>2021-12-21T12:32:30.000Z</time>
      </trkpt>
      <trkpt lat="44.03141" lon="5.99099">
        <ele>595</ele>
        <time>2021-12-21T12:32:31.000Z</time>
      </trkpt>
      <trkpt lat="44.03141" lon="5.99099">
        <ele>595</ele>
        <time>2021-12-21T12:32:32.000Z</time>
      </trkpt>
      <trkpt lat="44.03141" lon="5.99099">
        <ele>595</ele>
        <time>2021-12-21T12:32:33.000Z</time>
      </trkpt>
      <trkpt lat="44.03141" lon="5.99099">
        <ele>595</ele>
        <time>2021-12-21T12:32:34.000Z</time>
      </trkpt>
      <trkpt lat="44.03141" lon="5.99099">
        <ele>595</ele>
        <time>2021-12-21T12:32:35.000Z</time>
      </trkpt>
      <trkpt lat="44.03141" lon="5.99099">
        <ele>595</ele>
        <time>2021-12-21T12:32:36.000Z</time>
      </trkpt>
      <trkpt lat="44.03141" lon="5.99099">
        <ele>595</ele>
        <time>2021-12-21T12:32:37.000Z</time>
      </trkpt>
      <trkpt lat="44.03141" lon="5.99099">
        <ele>595</ele>
        <time>2021-12-21T12:32:38.000Z</time>
      </trkpt>
      <trkpt lat="44.03141" lon="5.99099">
        <ele>595</ele>
        <time>2021-12-21T12:32:39.000Z</time>
      </trkpt>
      <trkpt lat="44.03141" lon="5.99099">
        <ele>595</ele>
        <time>2021-12-21T12:32:40.000Z</time>
      </trkpt>
      <trkpt lat="44.03142" lon="5.99099">
        <ele>595</ele>
        <time>2021-12-21T12:32:41.000Z</time>
      </trkpt>
      <trkpt lat="44.03142" lon="5.99099">
        <ele>595</ele>
        <time>2021-12-21T12:32:42.000Z</time>
      </trkpt>
      <trkpt lat="44.03142" lon="5.99098">
        <ele>595</ele>
        <time>2021-12-21T12:32:43.000Z</time>
      </trkpt>
      <trkpt lat="44.03142" lon="5.99098">
        <ele>595</ele>
        <time>2021-12-21T12:32:44.000Z</time>
      </trkpt>
      <trkpt lat="44.03143" lon="5.99098">
        <ele>595</ele>
        <time>2021-12-21T12:32:45.000Z</time>
      </trkpt>
      <trkpt lat="44.03143" lon="5.99098">
        <ele>595</ele>
        <time>2021-12-21T12:32:46.000Z</time>
      </trkpt>
      <trkpt lat="44.03144" lon="5.99098">
        <ele>595</ele>
        <time>2021-12-21T12:32:47.000Z</time>
      </trkpt>
      <trkpt lat="44.03145" lon="5.99099">
        <ele>595</ele>
        <time>2021-12-21T12:32:48.000Z</time>
      </trkpt>
      <trkpt lat="44.03146" lon="5.99099">
        <ele>594</ele>
        <time>2021-12-21T12:32:49.000Z</time>
      </trkpt>
      <trkpt lat="44.03146" lon="5.99099">
        <ele>594</ele>
        <time>2021-12-21T12:32:50.000Z</time>
      </trkpt>
      <trkpt lat="44.03147" lon="5.99099">
        <ele>594</ele>
        <time>2021-12-21T12:32:51.000Z</time>
      </trkpt>
      <trkpt lat="44.03147" lon="5.99099">
        <ele>594</ele>
        <time>2021-12-21T12:32:52.000Z</time>
      </trkpt>
      <trkpt lat="44.03147" lon="5.99099">
        <ele>594</ele>
        <time>2021-12-21T12:32:53.000Z</time>
      </trkpt>
      <trkpt lat="44.03147" lon="5.99099">
        <ele>594</ele>
        <time>2021-12-21T12:32:54.000Z</time>
      </trkpt>
      <trkpt lat="44.03147" lon="5.99099">
        <ele>594</ele>
        <time>2021-12-21T12:32:55.000Z</time>
      </trkpt>
      <trkpt lat="44.03147" lon="5.99099">
        <ele>594</ele>
        <time>2021-12-21T12:32:56.000Z</time>
      </trkpt>
      <trkpt lat="44.03147" lon="5.99099">
        <ele>594</ele>
        <time>2021-12-21T12:32:57.000Z</time>
      </trkpt>
      <trkpt lat="44.03147" lon="5.99098">
        <ele>594</ele>
        <time>2021-12-21T12:32:58.000Z</time>
      </trkpt>
      <trkpt lat="44.03148" lon="5.99098">
        <ele>594</ele>
        <time>2021-12-21T12:32:59.000Z</time>
      </trkpt>
      <trkpt lat="44.03148" lon="5.99097">
        <ele>594</ele>
        <time>2021-12-21T12:33:00.000Z</time>
      </trkpt>
      <trkpt lat="44.03149" lon="5.99097">
        <ele>594</ele>
        <time>2021-12-21T12:33:01.000Z</time>
      </trkpt>
      <trkpt lat="44.03149" lon="5.99098">
        <ele>594</ele>
        <time>2021-12-21T12:33:02.000Z</time>
      </trkpt>
      <trkpt lat="44.03149" lon="5.99098">
        <ele>594</ele>
        <time>2021-12-21T12:33:03.000Z</time>
      </trkpt>
      <trkpt lat="44.03149" lon="5.99097">
        <ele>594</ele>
        <time>2021-12-21T12:33:04.000Z</time>
      </trkpt>
      <trkpt lat="44.03149" lon="5.99097">
        <ele>594</ele>
        <time>2021-12-21T12:33:05.000Z</time>
      </trkpt>
      <trkpt lat="44.03149" lon="5.99097">
        <ele>594</ele>
        <time>2021-12-21T12:33:06.000Z</time>
      </trkpt>
      <trkpt lat="44.03149" lon="5.99097">
        <ele>594</ele>
        <time>2021-12-21T12:33:07.000Z</time>
      </trkpt>
      <trkpt lat="44.03149" lon="5.99097">
        <ele>594</ele>
        <time>2021-12-21T12:33:08.000Z</time>
      </trkpt>
      <trkpt lat="44.03149" lon="5.99097">
        <ele>594</ele>
        <time>2021-12-21T12:33:09.000Z</time>
      </trkpt>
      <trkpt lat="44.03149" lon="5.99097">
        <ele>594</ele>
        <time>2021-12-21T12:33:10.000Z</time>
      </trkpt>
      <trkpt lat="44.03149" lon="5.99097">
        <ele>594</ele>
        <time>2021-12-21T12:33:11.000Z</time>
      </trkpt>
      <trkpt lat="44.03149" lon="5.99097">
        <ele>594</ele>
        <time>2021-12-21T12:33:12.000Z</time>
      </trkpt>
      <trkpt lat="44.03148" lon="5.99097">
        <ele>594</ele>
        <time>2021-12-21T12:33:13.000Z</time>
      </trkpt>
      <trkpt lat="44.03148" lon="5.99097">
        <ele>594</ele>
        <time>2021-12-21T12:33:14.000Z</time>
      </trkpt>
      <trkpt lat="44.03148" lon="5.99097">
        <ele>594</ele>
        <time>2021-12-21T12:33:15.000Z</time>
      </trkpt>
      <trkpt lat="44.03148" lon="5.99097">
        <ele>594</ele>
        <time>2021-12-21T12:33:16.000Z</time>
      </trkpt>
      <trkpt lat="44.03149" lon="5.99097">
        <ele>594</ele>
        <time>2021-12-21T12:33:17.000Z</time>
      </trkpt>
      <trkpt lat="44.03149" lon="5.99097">
        <ele>594</ele>
        <time>2021-12-21T12:33:18.000Z</time>
      </trkpt>
      <trkpt lat="44.03148" lon="5.99097">
        <ele>594</ele>
        <time>2021-12-21T12:33:19.000Z</time>
      </trkpt>
      <trkpt lat="44.03148" lon="5.99097">
        <ele>594</ele>
        <time>2021-12-21T12:33:20.000Z</time>
      </trkpt>
      <trkpt lat="44.03148" lon="5.99097">
        <ele>594</ele>
        <time>2021-12-21T12:33:21.000Z</time>
      </trkpt>
      <trkpt lat="44.03148" lon="5.99097">
        <ele>594</ele>
        <time>2021-12-21T12:33:22.000Z</time>
      </trkpt>
      <trkpt lat="44.03148" lon="5.99097">
        <ele>594</ele>
        <time>2021-12-21T12:33:23.000Z</time>
      </trkpt>
      <trkpt lat="44.03148" lon="5.99097">
        <ele>594</ele>
        <time>2021-12-21T12:33:24.000Z</time>
      </trkpt>
      <trkpt lat="44.03148" lon="5.99097">
        <ele>594</ele>
        <time>2021-12-21T12:33:25.000Z</time>
      </trkpt>
      <trkpt lat="44.03148" lon="5.99097">
        <ele>594</ele>
        <time>2021-12-21T12:33:26.000Z</time>
      </trkpt>
      <trkpt lat="44.03148" lon="5.99097">
        <ele>594</ele>
        <time>2021-12-21T12:33:27.000Z</time>
      </trkpt>
      <trkpt lat="44.03148" lon="5.99097">
        <ele>594</ele>
        <time>2021-12-21T12:33:28.000Z</time>
      </trkpt>
      <trkpt lat="44.03148" lon="5.99097">
        <ele>594</ele>
        <time>2021-12-21T12:33:29.000Z</time>
      </trkpt>
      <trkpt lat="44.03148" lon="5.99097">
        <ele>594</ele>
        <time>2021-12-21T12:33:30.000Z</time>
      </trkpt>
      <trkpt lat="44.03148" lon="5.99097">
        <ele>594</ele>
        <time>2021-12-21T12:33:31.000Z</time>
      </trkpt>
      <trkpt lat="44.03148" lon="5.99097">
        <ele>594</ele>
        <time>2021-12-21T12:33:32.000Z</time>
      </trkpt>
      <trkpt lat="44.03148" lon="5.99097">
        <ele>594</ele>
        <time>2021-12-21T12:33:33.000Z</time>
      </trkpt>
      <trkpt lat="44.03148" lon="5.99097">
        <ele>594</ele>
        <time>2021-12-21T12:33:34.000Z</time>
      </trkpt>
      <trkpt lat="44.03149" lon="5.99096">
        <ele>594</ele>
        <time>2021-12-21T12:33:35.000Z</time>
      </trkpt>
      <trkpt lat="44.03149" lon="5.99096">
        <ele>594</ele>
        <time>2021-12-21T12:33:36.000Z</time>
      </trkpt>
      <trkpt lat="44.03149" lon="5.99096">
        <ele>594</ele>
        <time>2021-12-21T12:33:37.000Z</time>
      </trkpt>
      <trkpt lat="44.03149" lon="5.99096">
        <ele>594</ele>
        <time>2021-12-21T12:33:38.000Z</time>
      </trkpt>
      <trkpt lat="44.03149" lon="5.99096">
        <ele>594</ele>
        <time>2021-12-21T12:33:39.000Z</time>
      </trkpt>
      <trkpt lat="44.03149" lon="5.99096">
        <ele>594</ele>
        <time>2021-12-21T12:33:40.000Z</time>
      </trkpt>
      <trkpt lat="44.03149" lon="5.99096">
        <ele>594</ele>
        <time>2021-12-21T12:33:41.000Z</time>
      </trkpt>
      <trkpt lat="44.03149" lon="5.99096">
        <ele>594</ele>
        <time>2021-12-21T12:33:42.000Z</time>
      </trkpt>
      <trkpt lat="44.03149" lon="5.99096">
        <ele>594</ele>
        <time>2021-12-21T12:33:43.000Z</time>
      </trkpt>
      <trkpt lat="44.03148" lon="5.99096">
        <ele>594</ele>
        <time>2021-12-21T12:33:44.000Z</time>
      </trkpt>
      <trkpt lat="44.03148" lon="5.99096">
        <ele>594</ele>
        <time>2021-12-21T12:33:45.000Z</time>
      </trkpt>
      <trkpt lat="44.03148" lon="5.99096">
        <ele>595</ele>
        <time>2021-12-21T12:33:46.000Z</time>
      </trkpt>
      <trkpt lat="44.03148" lon="5.99096">
        <ele>595</ele>
        <time>2021-12-21T12:33:47.000Z</time>
      </trkpt>
      <trkpt lat="44.03148" lon="5.99097">
        <ele>595</ele>
        <time>2021-12-21T12:33:48.000Z</time>
      </trkpt>
      <trkpt lat="44.03148" lon="5.99097">
        <ele>595</ele>
        <time>2021-12-21T12:33:49.000Z</time>
      </trkpt>
      <trkpt lat="44.03148" lon="5.99097">
        <ele>595</ele>
        <time>2021-12-21T12:33:50.000Z</time>
      </trkpt>
      <trkpt lat="44.03148" lon="5.99096">
        <ele>595</ele>
        <time>2021-12-21T12:33:51.000Z</time>
      </trkpt>
      <trkpt lat="44.03148" lon="5.99096">
        <ele>595</ele>
        <time>2021-12-21T12:33:52.000Z</time>
      </trkpt>
      <trkpt lat="44.03148" lon="5.99096">
        <ele>595</ele>
        <time>2021-12-21T12:33:53.000Z</time>
      </trkpt>
      <trkpt lat="44.03148" lon="5.99096">
        <ele>595</ele>
        <time>2021-12-21T12:33:54.000Z</time>
      </trkpt>
      <trkpt lat="44.03148" lon="5.99096">
        <ele>594</ele>
        <time>2021-12-21T12:33:55.000Z</time>
      </trkpt>
      <trkpt lat="44.03148" lon="5.99096">
        <ele>594</ele>
        <time>2021-12-21T12:33:56.000Z</time>
      </trkpt>
      <trkpt lat="44.03148" lon="5.99096">
        <ele>594</ele>
        <time>2021-12-21T12:33:57.000Z</time>
      </trkpt>
      <trkpt lat="44.03148" lon="5.99096">
        <ele>594</ele>
        <time>2021-12-21T12:33:58.000Z</time>
      </trkpt>
      <trkpt lat="44.03148" lon="5.99096">
        <ele>594</ele>
        <time>2021-12-21T12:33:59.000Z</time>
      </trkpt>
      <trkpt lat="44.03148" lon="5.99096">
        <ele>594</ele>
        <time>2021-12-21T12:34:00.000Z</time>
      </trkpt>
      <trkpt lat="44.03148" lon="5.99096">
        <ele>594</ele>
        <time>2021-12-21T12:34:01.000Z</time>
      </trkpt>
      <trkpt lat="44.03148" lon="5.99096">
        <ele>594</ele>
        <time>2021-12-21T12:34:02.000Z</time>
      </trkpt>
      <trkpt lat="44.03148" lon="5.99096">
        <ele>594</ele>
        <time>2021-12-21T12:34:03.000Z</time>
      </trkpt>
      <trkpt lat="44.03148" lon="5.99096">
        <ele>594</ele>
        <time>2021-12-21T12:34:04.000Z</time>
      </trkpt>
      <trkpt lat="44.03148" lon="5.99096">
        <ele>594</ele>
        <time>2021-12-21T12:34:05.000Z</time>
      </trkpt>
      <trkpt lat="44.03148" lon="5.99096">
        <ele>594</ele>
        <time>2021-12-21T12:34:06.000Z</time>
      </trkpt>
      <trkpt lat="44.03148" lon="5.99096">
        <ele>594</ele>
        <time>2021-12-21T12:34:07.000Z</time>
      </trkpt>
      <trkpt lat="44.03148" lon="5.99096">
        <ele>594</ele>
        <time>2021-12-21T12:34:08.000Z</time>
      </trkpt>
      <trkpt lat="44.03148" lon="5.99096">
        <ele>594</ele>
        <time>2021-12-21T12:34:09.000Z</time>
      </trkpt>
      <trkpt lat="44.03148" lon="5.99096">
        <ele>594</ele>
        <time>2021-12-21T12:34:10.000Z</time>
      </trkpt>
      <trkpt lat="44.03148" lon="5.99096">
        <ele>594</ele>
        <time>2021-12-21T12:34:11.000Z</time>
      </trkpt>
      <trkpt lat="44.03148" lon="5.99096">
        <ele>594</ele>
        <time>2021-12-21T12:34:12.000Z</time>
      </trkpt>
      <trkpt lat="44.03148" lon="5.99096">
        <ele>594</ele>
        <time>2021-12-21T12:34:13.000Z</time>
      </trkpt>
      <trkpt lat="44.03148" lon="5.99096">
        <ele>594</ele>
        <time>2021-12-21T12:34:14.000Z</time>
      </trkpt>
      <trkpt lat="44.03148" lon="5.99096">
        <ele>594</ele>
        <time>2021-12-21T12:34:15.000Z</time>
      </trkpt>
      <trkpt lat="44.03148" lon="5.99096">
        <ele>594</ele>
        <time>2021-12-21T12:34:16.000Z</time>
      </trkpt>
      <trkpt lat="44.03148" lon="5.99096">
        <ele>594</ele>
        <time>2021-12-21T12:34:17.000Z</time>
      </trkpt>
      <trkpt lat="44.03148" lon="5.99096">
        <ele>594</ele>
        <time>2021-12-21T12:34:18.000Z</time>
      </trkpt>
      <trkpt lat="44.03148" lon="5.99096">
        <ele>594</ele>
        <time>2021-12-21T12:34:19.000Z</time>
      </trkpt>
      <trkpt lat="44.03148" lon="5.99096">
        <ele>594</ele>
        <time>2021-12-21T12:34:20.000Z</time>
      </trkpt>
      <trkpt lat="44.03148" lon="5.99096">
        <ele>594</ele>
        <time>2021-12-21T12:34:21.000Z</time>
      </trkpt>
      <trkpt lat="44.03148" lon="5.99096">
        <ele>594</ele>
        <time>2021-12-21T12:34:22.000Z</time>
      </trkpt>
      <trkpt lat="44.03148" lon="5.99096">
        <ele>594</ele>
        <time>2021-12-21T12:34:23.000Z</time>
      </trkpt>
      <trkpt lat="44.03148" lon="5.99096">
        <ele>594</ele>
        <time>2021-12-21T12:34:24.000Z</time>
      </trkpt>
      <trkpt lat="44.03148" lon="5.99097">
        <ele>594</ele>
        <time>2021-12-21T12:34:25.000Z</time>
      </trkpt>
      <trkpt lat="44.03148" lon="5.99097">
        <ele>594</ele>
        <time>2021-12-21T12:34:26.000Z</time>
      </trkpt>
      <trkpt lat="44.03148" lon="5.99097">
        <ele>594</ele>
        <time>2021-12-21T12:34:27.000Z</time>
      </trkpt>
      <trkpt lat="44.03148" lon="5.99097">
        <ele>594</ele>
        <time>2021-12-21T12:34:28.000Z</time>
      </trkpt>
      <trkpt lat="44.03148" lon="5.99097">
        <ele>594</ele>
        <time>2021-12-21T12:34:29.000Z</time>
      </trkpt>
      <trkpt lat="44.03148" lon="5.99097">
        <ele>594</ele>
        <time>2021-12-21T12:34:30.000Z</time>
      </trkpt>
      <trkpt lat="44.03148" lon="5.99097">
        <ele>594</ele>
        <time>2021-12-21T12:34:31.000Z</time>
      </trkpt>
      <trkpt lat="44.03148" lon="5.99097">
        <ele>594</ele>
        <time>2021-12-21T12:34:32.000Z</time>
      </trkpt>
      <trkpt lat="44.03148" lon="5.99097">
        <ele>594</ele>
        <time>2021-12-21T12:34:33.000Z</time>
      </trkpt>
      <trkpt lat="44.03148" lon="5.99097">
        <ele>594</ele>
        <time>2021-12-21T12:34:34.000Z</time>
      </trkpt>
      <trkpt lat="44.03148" lon="5.99097">
        <ele>594</ele>
        <time>2021-12-21T12:34:35.000Z</time>
      </trkpt>
      <trkpt lat="44.03148" lon="5.99097">
        <ele>594</ele>
        <time>2021-12-21T12:34:36.000Z</time>
      </trkpt>
      <trkpt lat="44.03148" lon="5.99097">
        <ele>594</ele>
        <time>2021-12-21T12:34:37.000Z</time>
      </trkpt>
      <trkpt lat="44.03148" lon="5.99097">
        <ele>594</ele>
        <time>2021-12-21T12:34:38.000Z</time>
      </trkpt>
      <trkpt lat="44.03148" lon="5.99097">
        <ele>594</ele>
        <time>2021-12-21T12:34:39.000Z</time>
      </trkpt>
      <trkpt lat="44.03148" lon="5.99097">
        <ele>594</ele>
        <time>2021-12-21T12:34:40.000Z</time>
      </trkpt>
      <trkpt lat="44.03148" lon="5.99097">
        <ele>594</ele>
        <time>2021-12-21T12:34:41.000Z</time>
      </trkpt>
      <trkpt lat="44.03148" lon="5.99097">
        <ele>594</ele>
        <time>2021-12-21T12:34:42.000Z</time>
      </trkpt>
      <trkpt lat="44.03148" lon="5.99097">
        <ele>594</ele>
        <time>2021-12-21T12:34:43.000Z</time>
      </trkpt>
      <trkpt lat="44.03148" lon="5.99097">
        <ele>594</ele>
        <time>2021-12-21T12:34:44.000Z</time>
      </trkpt>
      <trkpt lat="44.03148" lon="5.99097">
        <ele>594</ele>
        <time>2021-12-21T12:34:45.000Z</time>
      </trkpt>
      <trkpt lat="44.03148" lon="5.99097">
        <ele>594</ele>
        <time>2021-12-21T12:34:46.000Z</time>
      </trkpt>
      <trkpt lat="44.03148" lon="5.99097">
        <ele>594</ele>
        <time>2021-12-21T12:34:47.000Z</time>
      </trkpt>
      <trkpt lat="44.03148" lon="5.99097">
        <ele>594</ele>
        <time>2021-12-21T12:34:48.000Z</time>
      </trkpt>
      <trkpt lat="44.03148" lon="5.99097">
        <ele>594</ele>
        <time>2021-12-21T12:34:49.000Z</time>
      </trkpt>
      <trkpt lat="44.03148" lon="5.99097">
        <ele>594</ele>
        <time>2021-12-21T12:34:50.000Z</time>
      </trkpt>
      <trkpt lat="44.03148" lon="5.99097">
        <ele>594</ele>
        <time>2021-12-21T12:34:51.000Z</time>
      </trkpt>
      <trkpt lat="44.03148" lon="5.99097">
        <ele>594</ele>
        <time>2021-12-21T12:34:52.000Z</time>
      </trkpt>
      <trkpt lat="44.03148" lon="5.99097">
        <ele>594</ele>
        <time>2021-12-21T12:34:53.000Z</time>
      </trkpt>
      <trkpt lat="44.03148" lon="5.99097">
        <ele>594</ele>
        <time>2021-12-21T12:34:54.000Z</time>
      </trkpt>
      <trkpt lat="44.03148" lon="5.99097">
        <ele>594</ele>
        <time>2021-12-21T12:34:55.000Z</time>
      </trkpt>
      <trkpt lat="44.03148" lon="5.99097">
        <ele>594</ele>
        <time>2021-12-21T12:34:56.000Z</time>
      </trkpt>
      <trkpt lat="44.03148" lon="5.99097">
        <ele>594</ele>
        <time>2021-12-21T12:34:57.000Z</time>
      </trkpt>
      <trkpt lat="44.03148" lon="5.99097">
        <ele>594</ele>
        <time>2021-12-21T12:34:58.000Z</time>
      </trkpt>
      <trkpt lat="44.03148" lon="5.99097">
        <ele>594</ele>
        <time>2021-12-21T12:34:59.000Z</time>
      </trkpt>
      <trkpt lat="44.03148" lon="5.99097">
        <ele>594</ele>
        <time>2021-12-21T12:35:00.000Z</time>
      </trkpt>
      <trkpt lat="44.03148" lon="5.99097">
        <ele>594</ele>
        <time>2021-12-21T12:35:01.000Z</time>
      </trkpt>
      <trkpt lat="44.03148" lon="5.99097">
        <ele>594</ele>
        <time>2021-12-21T12:35:02.000Z</time>
      </trkpt>
      <trkpt lat="44.03148" lon="5.99097">
        <ele>594</ele>
        <time>2021-12-21T12:35:03.000Z</time>
      </trkpt>
      <trkpt lat="44.03148" lon="5.99097">
        <ele>594</ele>
        <time>2021-12-21T12:35:04.000Z</time>
      </trkpt>
      <trkpt lat="44.03148" lon="5.99097">
        <ele>594</ele>
        <time>2021-12-21T12:35:05.000Z</time>
      </trkpt>
      <trkpt lat="44.03148" lon="5.99097">
        <ele>594</ele>
        <time>2021-12-21T12:35:06.000Z</time>
      </trkpt>
      <trkpt lat="44.03148" lon="5.99097">
        <ele>594</ele>
        <time>2021-12-21T12:35:07.000Z</time>
      </trkpt>
      <trkpt lat="44.03148" lon="5.99097">
        <ele>594</ele>
        <time>2021-12-21T12:35:08.000Z</time>
      </trkpt>
      <trkpt lat="44.03148" lon="5.99097">
        <ele>594</ele>
        <time>2021-12-21T12:35:09.000Z</time>
      </trkpt>
      <trkpt lat="44.03148" lon="5.99097">
        <ele>594</ele>
        <time>2021-12-21T12:35:10.000Z</time>
      </trkpt>
      <trkpt lat="44.03148" lon="5.99097">
        <ele>594</ele>
        <time>2021-12-21T12:35:11.000Z</time>
      </trkpt>
      <trkpt lat="44.03148" lon="5.99097">
        <ele>594</ele>
        <time>2021-12-21T12:35:12.000Z</time>
      </trkpt>
      <trkpt lat="44.03148" lon="5.99097">
        <ele>594</ele>
        <time>2021-12-21T12:35:13.000Z</time>
      </trkpt>
      <trkpt lat="44.03148" lon="5.99097">
        <ele>594</ele>
        <time>2021-12-21T12:35:14.000Z</time>
      </trkpt>
      <trkpt lat="44.03148" lon="5.99097">
        <ele>594</ele>
        <time>2021-12-21T12:35:15.000Z</time>
      </trkpt>
      <trkpt lat="44.03148" lon="5.99097">
        <ele>594</ele>
        <time>2021-12-21T12:35:16.000Z</time>
      </trkpt>
      <trkpt lat="44.03148" lon="5.99097">
        <ele>594</ele>
        <time>2021-12-21T12:35:17.000Z</time>
      </trkpt>
      <trkpt lat="44.03148" lon="5.99097">
        <ele>594</ele>
        <time>2021-12-21T12:35:18.000Z</time>
      </trkpt>
      <trkpt lat="44.03148" lon="5.99097">
        <ele>594</ele>
        <time>2021-12-21T12:35:19.000Z</time>
      </trkpt>
      <trkpt lat="44.03148" lon="5.99097">
        <ele>594</ele>
        <time>2021-12-21T12:35:20.000Z</time>
      </trkpt>
      <trkpt lat="44.03148" lon="5.99097">
        <ele>594</ele>
        <time>2021-12-21T12:35:21.000Z</time>
      </trkpt>
      <trkpt lat="44.03148" lon="5.99097">
        <ele>594</ele>
        <time>2021-12-21T12:35:22.000Z</time>
      </trkpt>
      <trkpt lat="44.03148" lon="5.99097">
        <ele>594</ele>
        <time>2021-12-21T12:35:23.000Z</time>
      </trkpt>
      <trkpt lat="44.03148" lon="5.99097">
        <ele>594</ele>
        <time>2021-12-21T12:35:24.000Z</time>
      </trkpt>
      <trkpt lat="44.03148" lon="5.99097">
        <ele>594</ele>
        <time>2021-12-21T12:35:25.000Z</time>
      </trkpt>
      <trkpt lat="44.03148" lon="5.99097">
        <ele>594</ele>
        <time>2021-12-21T12:35:26.000Z</time>
      </trkpt>
      <trkpt lat="44.03148" lon="5.99097">
        <ele>594</ele>
        <time>2021-12-21T12:35:27.000Z</time>
      </trkpt>
      <trkpt lat="44.03148" lon="5.99097">
        <ele>594</ele>
        <time>2021-12-21T12:35:28.000Z</time>
      </trkpt>
      <trkpt lat="44.03148" lon="5.99097">
        <ele>594</ele>
        <time>2021-12-21T12:35:29.000Z</time>
      </trkpt>
      <trkpt lat="44.03148" lon="5.99097">
        <ele>594</ele>
        <time>2021-12-21T12:35:30.000Z</time>
      </trkpt>
      <trkpt lat="44.03148" lon="5.99097">
        <ele>594</ele>
        <time>2021-12-21T12:35:31.000Z</time>
      </trkpt>
      <trkpt lat="44.03148" lon="5.99097">
        <ele>594</ele>
        <time>2021-12-21T12:35:32.000Z</time>
      </trkpt>
      <trkpt lat="44.03148" lon="5.99097">
        <ele>594</ele>
        <time>2021-12-21T12:35:33.000Z</time>
      </trkpt>
      <trkpt lat="44.03148" lon="5.99097">
        <ele>594</ele>
        <time>2021-12-21T12:35:34.000Z</time>
      </trkpt>
      <trkpt lat="44.03148" lon="5.99097">
        <ele>594</ele>
        <time>2021-12-21T12:35:35.000Z</time>
      </trkpt>
      <trkpt lat="44.03148" lon="5.99097">
        <ele>594</ele>
        <time>2021-12-21T12:35:36.000Z</time>
      </trkpt>
      <trkpt lat="44.03148" lon="5.99097">
        <ele>594</ele>
        <time>2021-12-21T12:35:37.000Z</time>
      </trkpt>
      <trkpt lat="44.03148" lon="5.99097">
        <ele>594</ele>
        <time>2021-12-21T12:35:38.000Z</time>
      </trkpt>
      <trkpt lat="44.03148" lon="5.99097">
        <ele>594</ele>
        <time>2021-12-21T12:35:39.000Z</time>
      </trkpt>
      <trkpt lat="44.03148" lon="5.99097">
        <ele>594</ele>
        <time>2021-12-21T12:35:40.000Z</time>
      </trkpt>
      <trkpt lat="44.03148" lon="5.99097">
        <ele>595</ele>
        <time>2021-12-21T12:35:41.000Z</time>
      </trkpt>
      <trkpt lat="44.03148" lon="5.99098">
        <ele>594</ele>
        <time>2021-12-21T12:35:42.000Z</time>
      </trkpt>
      <trkpt lat="44.03148" lon="5.99097">
        <ele>595</ele>
        <time>2021-12-21T12:35:43.000Z</time>
      </trkpt>
      <trkpt lat="44.03147" lon="5.99098">
        <ele>595</ele>
        <time>2021-12-21T12:35:44.000Z</time>
      </trkpt>
      <trkpt lat="44.03147" lon="5.99098">
        <ele>595</ele>
        <time>2021-12-21T12:35:45.000Z</time>
      </trkpt>
      <trkpt lat="44.03147" lon="5.99098">
        <ele>595</ele>
        <time>2021-12-21T12:35:46.000Z</time>
      </trkpt>
      <trkpt lat="44.03147" lon="5.99098">
        <ele>595</ele>
        <time>2021-12-21T12:35:47.000Z</time>
      </trkpt>
      <trkpt lat="44.03147" lon="5.99098">
        <ele>595</ele>
        <time>2021-12-21T12:35:48.000Z</time>
      </trkpt>
      <trkpt lat="44.03147" lon="5.99098">
        <ele>595</ele>
        <time>2021-12-21T12:35:49.000Z</time>
      </trkpt>
      <trkpt lat="44.03147" lon="5.99098">
        <ele>595</ele>
        <time>2021-12-21T12:35:50.000Z</time>
      </trkpt>
      <trkpt lat="44.03147" lon="5.99097">
        <ele>595</ele>
        <time>2021-12-21T12:35:51.000Z</time>
      </trkpt>
      <trkpt lat="44.03148" lon="5.99098">
        <ele>595</ele>
        <time>2021-12-21T12:35:52.000Z</time>
      </trkpt>
      <trkpt lat="44.03148" lon="5.99098">
        <ele>595</ele>
        <time>2021-12-21T12:35:53.000Z</time>
      </trkpt>
      <trkpt lat="44.03148" lon="5.99097">
        <ele>595</ele>
        <time>2021-12-21T12:35:54.000Z</time>
      </trkpt>
      <trkpt lat="44.03148" lon="5.99097">
        <ele>595</ele>
        <time>2021-12-21T12:35:55.000Z</time>
      </trkpt>
      <trkpt lat="44.03148" lon="5.99097">
        <ele>595</ele>
        <time>2021-12-21T12:35:56.000Z</time>
      </trkpt>
      <trkpt lat="44.03148" lon="5.99097">
        <ele>595</ele>
        <time>2021-12-21T12:35:57.000Z</time>
      </trkpt>
      <trkpt lat="44.03148" lon="5.99097">
        <ele>595</ele>
        <time>2021-12-21T12:35:58.000Z</time>
      </trkpt>
      <trkpt lat="44.03148" lon="5.99097">
        <ele>595</ele>
        <time>2021-12-21T12:35:59.000Z</time>
      </trkpt>
      <trkpt lat="44.03148" lon="5.99097">
        <ele>595</ele>
        <time>2021-12-21T12:36:00.000Z</time>
      </trkpt>
      <trkpt lat="44.03148" lon="5.99097">
        <ele>595</ele>
        <time>2021-12-21T12:36:01.000Z</time>
      </trkpt>
      <trkpt lat="44.03149" lon="5.99097">
        <ele>595</ele>
        <time>2021-12-21T12:36:02.000Z</time>
      </trkpt>
      <trkpt lat="44.03149" lon="5.99097">
        <ele>595</ele>
        <time>2021-12-21T12:36:03.000Z</time>
      </trkpt>
      <trkpt lat="44.03149" lon="5.99097">
        <ele>595</ele>
        <time>2021-12-21T12:36:04.000Z</time>
      </trkpt>
      <trkpt lat="44.03149" lon="5.99097">
        <ele>595</ele>
        <time>2021-12-21T12:36:05.000Z</time>
      </trkpt>
      <trkpt lat="44.03149" lon="5.99097">
        <ele>595</ele>
        <time>2021-12-21T12:36:06.000Z</time>
      </trkpt>
      <trkpt lat="44.03149" lon="5.99097">
        <ele>595</ele>
        <time>2021-12-21T12:36:07.000Z</time>
      </trkpt>
      <trkpt lat="44.03149" lon="5.99097">
        <ele>595</ele>
        <time>2021-12-21T12:36:08.000Z</time>
      </trkpt>
      <trkpt lat="44.03149" lon="5.99097">
        <ele>595</ele>
        <time>2021-12-21T12:36:09.000Z</time>
      </trkpt>
      <trkpt lat="44.03149" lon="5.99097">
        <ele>595</ele>
        <time>2021-12-21T12:36:10.000Z</time>
      </trkpt>
      <trkpt lat="44.03149" lon="5.99097">
        <ele>595</ele>
        <time>2021-12-21T12:36:11.000Z</time>
      </trkpt>
      <trkpt lat="44.03149" lon="5.99097">
        <ele>595</ele>
        <time>2021-12-21T12:36:12.000Z</time>
      </trkpt>
      <trkpt lat="44.03149" lon="5.99097">
        <ele>595</ele>
        <time>2021-12-21T12:36:13.000Z</time>
      </trkpt>
      <trkpt lat="44.03149" lon="5.99097">
        <ele>595</ele>
        <time>2021-12-21T12:36:14.000Z</time>
      </trkpt>
      <trkpt lat="44.03149" lon="5.99097">
        <ele>595</ele>
        <time>2021-12-21T12:36:15.000Z</time>
      </trkpt>
      <trkpt lat="44.03149" lon="5.99097">
        <ele>595</ele>
        <time>2021-12-21T12:36:16.000Z</time>
      </trkpt>
      <trkpt lat="44.03149" lon="5.99097">
        <ele>595</ele>
        <time>2021-12-21T12:36:17.000Z</time>
      </trkpt>
      <trkpt lat="44.03149" lon="5.99097">
        <ele>595</ele>
        <time>2021-12-21T12:36:18.000Z</time>
      </trkpt>
      <trkpt lat="44.03149" lon="5.99097">
        <ele>595</ele>
        <time>2021-12-21T12:36:19.000Z</time>
      </trkpt>
      <trkpt lat="44.03149" lon="5.99097">
        <ele>595</ele>
        <time>2021-12-21T12:36:20.000Z</time>
      </trkpt>
      <trkpt lat="44.03149" lon="5.99097">
        <ele>595</ele>
        <time>2021-12-21T12:36:21.000Z</time>
      </trkpt>
      <trkpt lat="44.03149" lon="5.99097">
        <ele>595</ele>
        <time>2021-12-21T12:36:22.000Z</time>
      </trkpt>
      <trkpt lat="44.03149" lon="5.99097">
        <ele>595</ele>
        <time>2021-12-21T12:36:23.000Z</time>
      </trkpt>
      <trkpt lat="44.03149" lon="5.99096">
        <ele>595</ele>
        <time>2021-12-21T12:36:24.000Z</time>
      </trkpt>
      <trkpt lat="44.03149" lon="5.99096">
        <ele>595</ele>
        <time>2021-12-21T12:36:25.000Z</time>
      </trkpt>
      <trkpt lat="44.03149" lon="5.99096">
        <ele>595</ele>
        <time>2021-12-21T12:36:26.000Z</time>
      </trkpt>
      <trkpt lat="44.0315" lon="5.99096">
        <ele>595</ele>
        <time>2021-12-21T12:36:27.000Z</time>
      </trkpt>
      <trkpt lat="44.0315" lon="5.99096">
        <ele>595</ele>
        <time>2021-12-21T12:36:28.000Z</time>
      </trkpt>
      <trkpt lat="44.0315" lon="5.99096">
        <ele>595</ele>
        <time>2021-12-21T12:36:29.000Z</time>
      </trkpt>
      <trkpt lat="44.0315" lon="5.99096">
        <ele>595</ele>
        <time>2021-12-21T12:36:30.000Z</time>
      </trkpt>
      <trkpt lat="44.0315" lon="5.99096">
        <ele>595</ele>
        <time>2021-12-21T12:36:31.000Z</time>
      </trkpt>
      <trkpt lat="44.0315" lon="5.99096">
        <ele>595</ele>
        <time>2021-12-21T12:36:32.000Z</time>
      </trkpt>
      <trkpt lat="44.0315" lon="5.99097">
        <ele>595</ele>
        <time>2021-12-21T12:36:33.000Z</time>
      </trkpt>
      <trkpt lat="44.0315" lon="5.99097">
        <ele>595</ele>
        <time>2021-12-21T12:36:34.000Z</time>
      </trkpt>
      <trkpt lat="44.0315" lon="5.99096">
        <ele>595</ele>
        <time>2021-12-21T12:36:35.000Z</time>
      </trkpt>
      <trkpt lat="44.0315" lon="5.99096">
        <ele>595</ele>
        <time>2021-12-21T12:36:36.000Z</time>
      </trkpt>
      <trkpt lat="44.0315" lon="5.99097">
        <ele>595</ele>
        <time>2021-12-21T12:36:37.000Z</time>
      </trkpt>
      <trkpt lat="44.0315" lon="5.99097">
        <ele>595</ele>
        <time>2021-12-21T12:36:38.000Z</time>
      </trkpt>
      <trkpt lat="44.0315" lon="5.99097">
        <ele>595</ele>
        <time>2021-12-21T12:36:39.000Z</time>
      </trkpt>
      <trkpt lat="44.0315" lon="5.99097">
        <ele>595</ele>
        <time>2021-12-21T12:36:40.000Z</time>
      </trkpt>
      <trkpt lat="44.0315" lon="5.99097">
        <ele>595</ele>
        <time>2021-12-21T12:36:41.000Z</time>
      </trkpt>
      <trkpt lat="44.0315" lon="5.99097">
        <ele>595</ele>
        <time>2021-12-21T12:36:42.000Z</time>
      </trkpt>
      <trkpt lat="44.0315" lon="5.99097">
        <ele>595</ele>
        <time>2021-12-21T12:36:43.000Z</time>
      </trkpt>
      <trkpt lat="44.0315" lon="5.99097">
        <ele>595</ele>
        <time>2021-12-21T12:36:44.000Z</time>
      </trkpt>
      <trkpt lat="44.0315" lon="5.99097">
        <ele>595</ele>
        <time>2021-12-21T12:36:45.000Z</time>
      </trkpt>
      <trkpt lat="44.0315" lon="5.99097">
        <ele>595</ele>
        <time>2021-12-21T12:36:46.000Z</time>
      </trkpt>
      <trkpt lat="44.03149" lon="5.99097">
        <ele>595</ele>
        <time>2021-12-21T12:36:47.000Z</time>
      </trkpt>
      <trkpt lat="44.03149" lon="5.99097">
        <ele>595</ele>
        <time>2021-12-21T12:36:48.000Z</time>
      </trkpt>
      <trkpt lat="44.03149" lon="5.99097">
        <ele>595</ele>
        <time>2021-12-21T12:36:49.000Z</time>
      </trkpt>
      <trkpt lat="44.03149" lon="5.99097">
        <ele>595</ele>
        <time>2021-12-21T12:36:50.000Z</time>
      </trkpt>
      <trkpt lat="44.03149" lon="5.99097">
        <ele>595</ele>
        <time>2021-12-21T12:36:51.000Z</time>
      </trkpt>
      <trkpt lat="44.03149" lon="5.99097">
        <ele>595</ele>
        <time>2021-12-21T12:36:52.000Z</time>
      </trkpt>
      <trkpt lat="44.03149" lon="5.99097">
        <ele>595</ele>
        <time>2021-12-21T12:36:53.000Z</time>
      </trkpt>
      <trkpt lat="44.03149" lon="5.99097">
        <ele>595</ele>
        <time>2021-12-21T12:36:54.000Z</time>
      </trkpt>
      <trkpt lat="44.03149" lon="5.99097">
        <ele>595</ele>
        <time>2021-12-21T12:36:55.000Z</time>
      </trkpt>
      <trkpt lat="44.03148" lon="5.99097">
        <ele>595</ele>
        <time>2021-12-21T12:36:56.000Z</time>
      </trkpt>
      <trkpt lat="44.03148" lon="5.99097">
        <ele>595</ele>
        <time>2021-12-21T12:36:57.000Z</time>
      </trkpt>
      <trkpt lat="44.03148" lon="5.99097">
        <ele>595</ele>
        <time>2021-12-21T12:36:58.000Z</time>
      </trkpt>
      <trkpt lat="44.03148" lon="5.99097">
        <ele>595</ele>
        <time>2021-12-21T12:36:59.000Z</time>
      </trkpt>
      <trkpt lat="44.03148" lon="5.99096">
        <ele>595</ele>
        <time>2021-12-21T12:37:00.000Z</time>
      </trkpt>
      <trkpt lat="44.03148" lon="5.99096">
        <ele>595</ele>
        <time>2021-12-21T12:37:01.000Z</time>
      </trkpt>
      <trkpt lat="44.03147" lon="5.99096">
        <ele>595</ele>
        <time>2021-12-21T12:37:02.000Z</time>
      </trkpt>
      <trkpt lat="44.03147" lon="5.99096">
        <ele>595</ele>
        <time>2021-12-21T12:37:03.000Z</time>
      </trkpt>
      <trkpt lat="44.03147" lon="5.99096">
        <ele>595</ele>
        <time>2021-12-21T12:37:04.000Z</time>
      </trkpt>
      <trkpt lat="44.03147" lon="5.99096">
        <ele>595</ele>
        <time>2021-12-21T12:37:05.000Z</time>
      </trkpt>
      <trkpt lat="44.03147" lon="5.99096">
        <ele>595</ele>
        <time>2021-12-21T12:37:06.000Z</time>
      </trkpt>
      <trkpt lat="44.03147" lon="5.99096">
        <ele>595</ele>
        <time>2021-12-21T12:37:07.000Z</time>
      </trkpt>
      <trkpt lat="44.03147" lon="5.99096">
        <ele>595</ele>
        <time>2021-12-21T12:37:08.000Z</time>
      </trkpt>
      <trkpt lat="44.03147" lon="5.99096">
        <ele>595</ele>
        <time>2021-12-21T12:37:09.000Z</time>
      </trkpt>
      <trkpt lat="44.03147" lon="5.99096">
        <ele>595</ele>
        <time>2021-12-21T12:37:10.000Z</time>
      </trkpt>
      <trkpt lat="44.03147" lon="5.99096">
        <ele>595</ele>
        <time>2021-12-21T12:37:11.000Z</time>
      </trkpt>
      <trkpt lat="44.03147" lon="5.99096">
        <ele>595</ele>
        <time>2021-12-21T12:37:12.000Z</time>
      </trkpt>
      <trkpt lat="44.03147" lon="5.99095">
        <ele>595</ele>
        <time>2021-12-21T12:37:13.000Z</time>
      </trkpt>
      <trkpt lat="44.03147" lon="5.99096">
        <ele>595</ele>
        <time>2021-12-21T12:37:14.000Z</time>
      </trkpt>
      <trkpt lat="44.03147" lon="5.99095">
        <ele>595</ele>
        <time>2021-12-21T12:37:15.000Z</time>
      </trkpt>
      <trkpt lat="44.03147" lon="5.99095">
        <ele>595</ele>
        <time>2021-12-21T12:37:16.000Z</time>
      </trkpt>
      <trkpt lat="44.03146" lon="5.99095">
        <ele>595</ele>
        <time>2021-12-21T12:37:17.000Z</time>
      </trkpt>
      <trkpt lat="44.03146" lon="5.99095">
        <ele>595</ele>
        <time>2021-12-21T12:37:18.000Z</time>
      </trkpt>
      <trkpt lat="44.03146" lon="5.99096">
        <ele>595</ele>
        <time>2021-12-21T12:37:19.000Z</time>
      </trkpt>
      <trkpt lat="44.03146" lon="5.99096">
        <ele>595</ele>
        <time>2021-12-21T12:37:20.000Z</time>
      </trkpt>
      <trkpt lat="44.03146" lon="5.99096">
        <ele>595</ele>
        <time>2021-12-21T12:37:21.000Z</time>
      </trkpt>
      <trkpt lat="44.03146" lon="5.99096">
        <ele>595</ele>
        <time>2021-12-21T12:37:22.000Z</time>
      </trkpt>
      <trkpt lat="44.03146" lon="5.99096">
        <ele>595</ele>
        <time>2021-12-21T12:37:23.000Z</time>
      </trkpt>
      <trkpt lat="44.03146" lon="5.99095">
        <ele>595</ele>
        <time>2021-12-21T12:37:24.000Z</time>
      </trkpt>
      <trkpt lat="44.03146" lon="5.99095">
        <ele>595</ele>
        <time>2021-12-21T12:37:25.000Z</time>
      </trkpt>
      <trkpt lat="44.03146" lon="5.99095">
        <ele>595</ele>
        <time>2021-12-21T12:37:26.000Z</time>
      </trkpt>
      <trkpt lat="44.03145" lon="5.99095">
        <ele>595</ele>
        <time>2021-12-21T12:37:27.000Z</time>
      </trkpt>
      <trkpt lat="44.03145" lon="5.99095">
        <ele>595</ele>
        <time>2021-12-21T12:37:28.000Z</time>
      </trkpt>
      <trkpt lat="44.03145" lon="5.99095">
        <ele>595</ele>
        <time>2021-12-21T12:37:29.000Z</time>
      </trkpt>
      <trkpt lat="44.03146" lon="5.99095">
        <ele>595</ele>
        <time>2021-12-21T12:37:30.000Z</time>
      </trkpt>
      <trkpt lat="44.03146" lon="5.99094">
        <ele>595</ele>
        <time>2021-12-21T12:37:31.000Z</time>
      </trkpt>
      <trkpt lat="44.03146" lon="5.99094">
        <ele>595</ele>
        <time>2021-12-21T12:37:32.000Z</time>
      </trkpt>
      <trkpt lat="44.03146" lon="5.99094">
        <ele>594</ele>
        <time>2021-12-21T12:37:33.000Z</time>
      </trkpt>
      <trkpt lat="44.03146" lon="5.99094">
        <ele>594</ele>
        <time>2021-12-21T12:37:34.000Z</time>
      </trkpt>
      <trkpt lat="44.03146" lon="5.99094">
        <ele>594</ele>
        <time>2021-12-21T12:37:35.000Z</time>
      </trkpt>
      <trkpt lat="44.03146" lon="5.99094">
        <ele>594</ele>
        <time>2021-12-21T12:37:36.000Z</time>
      </trkpt>
      <trkpt lat="44.03147" lon="5.99094">
        <ele>594</ele>
        <time>2021-12-21T12:37:37.000Z</time>
      </trkpt>
      <trkpt lat="44.03147" lon="5.99094">
        <ele>594</ele>
        <time>2021-12-21T12:37:38.000Z</time>
      </trkpt>
      <trkpt lat="44.03147" lon="5.99094">
        <ele>594</ele>
        <time>2021-12-21T12:37:39.000Z</time>
      </trkpt>
      <trkpt lat="44.03147" lon="5.99095">
        <ele>594</ele>
        <time>2021-12-21T12:37:40.000Z</time>
      </trkpt>
      <trkpt lat="44.03147" lon="5.99095">
        <ele>594</ele>
        <time>2021-12-21T12:37:41.000Z</time>
      </trkpt>
      <trkpt lat="44.03147" lon="5.99095">
        <ele>594</ele>
        <time>2021-12-21T12:37:42.000Z</time>
      </trkpt>
      <trkpt lat="44.03147" lon="5.99095">
        <ele>594</ele>
        <time>2021-12-21T12:37:43.000Z</time>
      </trkpt>
      <trkpt lat="44.03147" lon="5.99095">
        <ele>594</ele>
        <time>2021-12-21T12:37:44.000Z</time>
      </trkpt>
      <trkpt lat="44.03147" lon="5.99095">
        <ele>594</ele>
        <time>2021-12-21T12:37:45.000Z</time>
      </trkpt>
      <trkpt lat="44.03148" lon="5.99095">
        <ele>594</ele>
        <time>2021-12-21T12:37:46.000Z</time>
      </trkpt>
      <trkpt lat="44.03148" lon="5.99095">
        <ele>594</ele>
        <time>2021-12-21T12:37:47.000Z</time>
      </trkpt>
      <trkpt lat="44.03148" lon="5.99095">
        <ele>594</ele>
        <time>2021-12-21T12:37:48.000Z</time>
      </trkpt>
      <trkpt lat="44.03148" lon="5.99095">
        <ele>594</ele>
        <time>2021-12-21T12:37:49.000Z</time>
      </trkpt>
      <trkpt lat="44.03148" lon="5.99095">
        <ele>594</ele>
        <time>2021-12-21T12:37:50.000Z</time>
      </trkpt>
      <trkpt lat="44.03147" lon="5.99095">
        <ele>594</ele>
        <time>2021-12-21T12:37:51.000Z</time>
      </trkpt>
      <trkpt lat="44.03148" lon="5.99095">
        <ele>594</ele>
        <time>2021-12-21T12:37:52.000Z</time>
      </trkpt>
      <trkpt lat="44.03148" lon="5.99095">
        <ele>594</ele>
        <time>2021-12-21T12:37:53.000Z</time>
      </trkpt>
      <trkpt lat="44.03148" lon="5.99095">
        <ele>594</ele>
        <time>2021-12-21T12:37:54.000Z</time>
      </trkpt>
      <trkpt lat="44.03148" lon="5.99095">
        <ele>594</ele>
        <time>2021-12-21T12:37:55.000Z</time>
      </trkpt>
      <trkpt lat="44.03148" lon="5.99095">
        <ele>594</ele>
        <time>2021-12-21T12:37:56.000Z</time>
      </trkpt>
      <trkpt lat="44.03148" lon="5.99095">
        <ele>594</ele>
        <time>2021-12-21T12:37:57.000Z</time>
      </trkpt>
      <trkpt lat="44.03148" lon="5.99095">
        <ele>594</ele>
        <time>2021-12-21T12:37:58.000Z</time>
      </trkpt>
      <trkpt lat="44.03148" lon="5.99095">
        <ele>594</ele>
        <time>2021-12-21T12:37:59.000Z</time>
      </trkpt>
      <trkpt lat="44.03148" lon="5.99095">
        <ele>594</ele>
        <time>2021-12-21T12:38:00.000Z</time>
      </trkpt>
      <trkpt lat="44.03149" lon="5.99095">
        <ele>594</ele>
        <time>2021-12-21T12:38:01.000Z</time>
      </trkpt>
      <trkpt lat="44.03149" lon="5.99095">
        <ele>594</ele>
        <time>2021-12-21T12:38:02.000Z</time>
      </trkpt>
      <trkpt lat="44.03149" lon="5.99095">
        <ele>594</ele>
        <time>2021-12-21T12:38:03.000Z</time>
      </trkpt>
      <trkpt lat="44.03149" lon="5.99095">
        <ele>594</ele>
        <time>2021-12-21T12:38:04.000Z</time>
      </trkpt>
      <trkpt lat="44.03149" lon="5.99095">
        <ele>594</ele>
        <time>2021-12-21T12:38:05.000Z</time>
      </trkpt>
      <trkpt lat="44.03149" lon="5.99095">
        <ele>594</ele>
        <time>2021-12-21T12:38:06.000Z</time>
      </trkpt>
      <trkpt lat="44.03149" lon="5.99095">
        <ele>594</ele>
        <time>2021-12-21T12:38:07.000Z</time>
      </trkpt>
      <trkpt lat="44.03149" lon="5.99095">
        <ele>594</ele>
        <time>2021-12-21T12:38:08.000Z</time>
      </trkpt>
      <trkpt lat="44.03149" lon="5.99095">
        <ele>594</ele>
        <time>2021-12-21T12:38:09.000Z</time>
      </trkpt>
      <trkpt lat="44.03149" lon="5.99095">
        <ele>594</ele>
        <time>2021-12-21T12:38:10.000Z</time>
      </trkpt>
      <trkpt lat="44.03149" lon="5.99095">
        <ele>594</ele>
        <time>2021-12-21T12:38:11.000Z</time>
      </trkpt>
      <trkpt lat="44.03149" lon="5.99095">
        <ele>594</ele>
        <time>2021-12-21T12:38:12.000Z</time>
      </trkpt>
      <trkpt lat="44.03149" lon="5.99095">
        <ele>594</ele>
        <time>2021-12-21T12:38:13.000Z</time>
      </trkpt>
      <trkpt lat="44.03149" lon="5.99095">
        <ele>594</ele>
        <time>2021-12-21T12:38:14.000Z</time>
      </trkpt>
      <trkpt lat="44.03149" lon="5.99095">
        <ele>594</ele>
        <time>2021-12-21T12:38:15.000Z</time>
      </trkpt>
      <trkpt lat="44.03149" lon="5.99095">
        <ele>594</ele>
        <time>2021-12-21T12:38:16.000Z</time>
      </trkpt>
      <trkpt lat="44.03149" lon="5.99095">
        <ele>594</ele>
        <time>2021-12-21T12:38:17.000Z</time>
      </trkpt>
      <trkpt lat="44.03149" lon="5.99095">
        <ele>594</ele>
        <time>2021-12-21T12:38:18.000Z</time>
      </trkpt>
      <trkpt lat="44.03149" lon="5.99095">
        <ele>594</ele>
        <time>2021-12-21T12:38:19.000Z</time>
      </trkpt>
      <trkpt lat="44.03149" lon="5.99095">
        <ele>594</ele>
        <time>2021-12-21T12:38:20.000Z</time>
      </trkpt>
      <trkpt lat="44.03149" lon="5.99095">
        <ele>594</ele>
        <time>2021-12-21T12:38:21.000Z</time>
      </trkpt>
      <trkpt lat="44.03149" lon="5.99095">
        <ele>594</ele>
        <time>2021-12-21T12:38:22.000Z</time>
      </trkpt>
      <trkpt lat="44.03149" lon="5.99095">
        <ele>594</ele>
        <time>2021-12-21T12:38:23.000Z</time>
      </trkpt>
      <trkpt lat="44.0315" lon="5.99095">
        <ele>594</ele>
        <time>2021-12-21T12:38:24.000Z</time>
      </trkpt>
      <trkpt lat="44.0315" lon="5.99095">
        <ele>594</ele>
        <time>2021-12-21T12:38:25.000Z</time>
      </trkpt>
      <trkpt lat="44.0315" lon="5.99095">
        <ele>594</ele>
        <time>2021-12-21T12:38:26.000Z</time>
      </trkpt>
      <trkpt lat="44.0315" lon="5.99095">
        <ele>594</ele>
        <time>2021-12-21T12:38:27.000Z</time>
      </trkpt>
      <trkpt lat="44.03151" lon="5.99095">
        <ele>594</ele>
        <time>2021-12-21T12:38:28.000Z</time>
      </trkpt>
      <trkpt lat="44.03151" lon="5.99095">
        <ele>594</ele>
        <time>2021-12-21T12:38:29.000Z</time>
      </trkpt>
      <trkpt lat="44.03151" lon="5.99095">
        <ele>594</ele>
        <time>2021-12-21T12:38:30.000Z</time>
      </trkpt>
      <trkpt lat="44.03151" lon="5.99095">
        <ele>594</ele>
        <time>2021-12-21T12:38:31.000Z</time>
      </trkpt>
      <trkpt lat="44.03151" lon="5.99095">
        <ele>594</ele>
        <time>2021-12-21T12:38:32.000Z</time>
      </trkpt>
      <trkpt lat="44.03151" lon="5.99095">
        <ele>594</ele>
        <time>2021-12-21T12:38:33.000Z</time>
      </trkpt>
      <trkpt lat="44.03151" lon="5.99095">
        <ele>594</ele>
        <time>2021-12-21T12:38:34.000Z</time>
      </trkpt>
      <trkpt lat="44.03151" lon="5.99095">
        <ele>594</ele>
        <time>2021-12-21T12:38:35.000Z</time>
      </trkpt>
      <trkpt lat="44.03151" lon="5.99095">
        <ele>594</ele>
        <time>2021-12-21T12:38:36.000Z</time>
      </trkpt>
      <trkpt lat="44.03151" lon="5.99094">
        <ele>594</ele>
        <time>2021-12-21T12:38:37.000Z</time>
      </trkpt>
      <trkpt lat="44.03151" lon="5.99094">
        <ele>594</ele>
        <time>2021-12-21T12:38:38.000Z</time>
      </trkpt>
      <trkpt lat="44.03151" lon="5.99094">
        <ele>594</ele>
        <time>2021-12-21T12:38:39.000Z</time>
      </trkpt>
      <trkpt lat="44.03151" lon="5.99094">
        <ele>594</ele>
        <time>2021-12-21T12:38:40.000Z</time>
      </trkpt>
      <trkpt lat="44.03151" lon="5.99094">
        <ele>594</ele>
        <time>2021-12-21T12:38:41.000Z</time>
      </trkpt>
      <trkpt lat="44.03151" lon="5.99094">
        <ele>594</ele>
        <time>2021-12-21T12:38:42.000Z</time>
      </trkpt>
      <trkpt lat="44.03151" lon="5.99094">
        <ele>594</ele>
        <time>2021-12-21T12:38:43.000Z</time>
      </trkpt>
      <trkpt lat="44.03151" lon="5.99094">
        <ele>594</ele>
        <time>2021-12-21T12:38:44.000Z</time>
      </trkpt>
      <trkpt lat="44.03151" lon="5.99093">
        <ele>594</ele>
        <time>2021-12-21T12:38:45.000Z</time>
      </trkpt>
      <trkpt lat="44.03151" lon="5.99094">
        <ele>594</ele>
        <time>2021-12-21T12:38:46.000Z</time>
      </trkpt>
      <trkpt lat="44.03151" lon="5.99093">
        <ele>594</ele>
        <time>2021-12-21T12:38:47.000Z</time>
      </trkpt>
      <trkpt lat="44.03151" lon="5.99093">
        <ele>594</ele>
        <time>2021-12-21T12:38:48.000Z</time>
      </trkpt>
      <trkpt lat="44.03151" lon="5.99093">
        <ele>594</ele>
        <time>2021-12-21T12:38:49.000Z</time>
      </trkpt>
      <trkpt lat="44.03151" lon="5.99093">
        <ele>594</ele>
        <time>2021-12-21T12:38:50.000Z</time>
      </trkpt>
      <trkpt lat="44.03151" lon="5.99093">
        <ele>594</ele>
        <time>2021-12-21T12:38:51.000Z</time>
      </trkpt>
      <trkpt lat="44.03151" lon="5.99093">
        <ele>595</ele>
        <time>2021-12-21T12:38:52.000Z</time>
      </trkpt>
      <trkpt lat="44.03151" lon="5.99094">
        <ele>595</ele>
        <time>2021-12-21T12:38:53.000Z</time>
      </trkpt>
      <trkpt lat="44.03151" lon="5.99093">
        <ele>595</ele>
        <time>2021-12-21T12:38:54.000Z</time>
      </trkpt>
      <trkpt lat="44.03151" lon="5.99093">
        <ele>595</ele>
        <time>2021-12-21T12:38:55.000Z</time>
      </trkpt>
      <trkpt lat="44.03151" lon="5.99093">
        <ele>595</ele>
        <time>2021-12-21T12:38:56.000Z</time>
      </trkpt>
      <trkpt lat="44.03151" lon="5.99093">
        <ele>595</ele>
        <time>2021-12-21T12:38:57.000Z</time>
      </trkpt>
      <trkpt lat="44.03151" lon="5.99093">
        <ele>595</ele>
        <time>2021-12-21T12:38:58.000Z</time>
      </trkpt>
      <trkpt lat="44.03151" lon="5.99093">
        <ele>595</ele>
        <time>2021-12-21T12:38:59.000Z</time>
      </trkpt>
      <trkpt lat="44.03151" lon="5.99093">
        <ele>595</ele>
        <time>2021-12-21T12:39:00.000Z</time>
      </trkpt>
      <trkpt lat="44.03151" lon="5.99093">
        <ele>595</ele>
        <time>2021-12-21T12:39:01.000Z</time>
      </trkpt>
      <trkpt lat="44.03151" lon="5.99093">
        <ele>595</ele>
        <time>2021-12-21T12:39:02.000Z</time>
      </trkpt>
      <trkpt lat="44.03151" lon="5.99093">
        <ele>595</ele>
        <time>2021-12-21T12:39:03.000Z</time>
      </trkpt>
      <trkpt lat="44.03151" lon="5.99093">
        <ele>595</ele>
        <time>2021-12-21T12:39:04.000Z</time>
      </trkpt>
      <trkpt lat="44.03151" lon="5.99093">
        <ele>595</ele>
        <time>2021-12-21T12:39:05.000Z</time>
      </trkpt>
      <trkpt lat="44.03151" lon="5.99093">
        <ele>595</ele>
        <time>2021-12-21T12:39:06.000Z</time>
      </trkpt>
      <trkpt lat="44.03151" lon="5.99093">
        <ele>595</ele>
        <time>2021-12-21T12:39:07.000Z</time>
      </trkpt>
      <trkpt lat="44.03151" lon="5.99093">
        <ele>595</ele>
        <time>2021-12-21T12:39:08.000Z</time>
      </trkpt>
      <trkpt lat="44.03151" lon="5.99093">
        <ele>595</ele>
        <time>2021-12-21T12:39:09.000Z</time>
      </trkpt>
      <trkpt lat="44.03152" lon="5.99093">
        <ele>595</ele>
        <time>2021-12-21T12:39:10.000Z</time>
      </trkpt>
      <trkpt lat="44.03152" lon="5.99093">
        <ele>595</ele>
        <time>2021-12-21T12:39:11.000Z</time>
      </trkpt>
      <trkpt lat="44.03152" lon="5.99093">
        <ele>595</ele>
        <time>2021-12-21T12:39:12.000Z</time>
      </trkpt>
      <trkpt lat="44.03152" lon="5.99093">
        <ele>595</ele>
        <time>2021-12-21T12:39:13.000Z</time>
      </trkpt>
      <trkpt lat="44.03152" lon="5.99093">
        <ele>595</ele>
        <time>2021-12-21T12:39:14.000Z</time>
      </trkpt>
      <trkpt lat="44.03152" lon="5.99093">
        <ele>595</ele>
        <time>2021-12-21T12:39:15.000Z</time>
      </trkpt>
      <trkpt lat="44.03152" lon="5.99093">
        <ele>595</ele>
        <time>2021-12-21T12:39:16.000Z</time>
      </trkpt>
      <trkpt lat="44.03152" lon="5.99093">
        <ele>595</ele>
        <time>2021-12-21T12:39:17.000Z</time>
      </trkpt>
      <trkpt lat="44.03152" lon="5.99093">
        <ele>595</ele>
        <time>2021-12-21T12:39:18.000Z</time>
      </trkpt>
      <trkpt lat="44.03152" lon="5.99093">
        <ele>595</ele>
        <time>2021-12-21T12:39:19.000Z</time>
      </trkpt>
      <trkpt lat="44.03152" lon="5.99093">
        <ele>595</ele>
        <time>2021-12-21T12:39:20.000Z</time>
      </trkpt>
      <trkpt lat="44.03152" lon="5.99093">
        <ele>595</ele>
        <time>2021-12-21T12:39:21.000Z</time>
      </trkpt>
      <trkpt lat="44.03151" lon="5.99093">
        <ele>595</ele>
        <time>2021-12-21T12:39:22.000Z</time>
      </trkpt>
      <trkpt lat="44.03151" lon="5.99093">
        <ele>595</ele>
        <time>2021-12-21T12:39:23.000Z</time>
      </trkpt>
      <trkpt lat="44.03151" lon="5.99094">
        <ele>595</ele>
        <time>2021-12-21T12:39:24.000Z</time>
      </trkpt>
      <trkpt lat="44.03151" lon="5.99093">
        <ele>595</ele>
        <time>2021-12-21T12:39:25.000Z</time>
      </trkpt>
      <trkpt lat="44.03151" lon="5.99093">
        <ele>595</ele>
        <time>2021-12-21T12:39:26.000Z</time>
      </trkpt>
      <trkpt lat="44.03151" lon="5.99093">
        <ele>595</ele>
        <time>2021-12-21T12:39:27.000Z</time>
      </trkpt>
      <trkpt lat="44.03151" lon="5.99094">
        <ele>595</ele>
        <time>2021-12-21T12:39:28.000Z</time>
      </trkpt>
      <trkpt lat="44.03151" lon="5.99094">
        <ele>595</ele>
        <time>2021-12-21T12:39:29.000Z</time>
      </trkpt>
      <trkpt lat="44.03151" lon="5.99094">
        <ele>595</ele>
        <time>2021-12-21T12:39:30.000Z</time>
      </trkpt>
      <trkpt lat="44.03151" lon="5.99094">
        <ele>595</ele>
        <time>2021-12-21T12:39:31.000Z</time>
      </trkpt>
      <trkpt lat="44.03151" lon="5.99094">
        <ele>595</ele>
        <time>2021-12-21T12:39:32.000Z</time>
      </trkpt>
      <trkpt lat="44.03151" lon="5.99094">
        <ele>595</ele>
        <time>2021-12-21T12:39:33.000Z</time>
      </trkpt>
      <trkpt lat="44.03151" lon="5.99094">
        <ele>595</ele>
        <time>2021-12-21T12:39:34.000Z</time>
      </trkpt>
      <trkpt lat="44.03151" lon="5.99093">
        <ele>595</ele>
        <time>2021-12-21T12:39:35.000Z</time>
      </trkpt>
      <trkpt lat="44.03151" lon="5.99094">
        <ele>595</ele>
        <time>2021-12-21T12:39:36.000Z</time>
      </trkpt>
      <trkpt lat="44.03151" lon="5.99093">
        <ele>595</ele>
        <time>2021-12-21T12:39:37.000Z</time>
      </trkpt>
      <trkpt lat="44.03151" lon="5.99093">
        <ele>595</ele>
        <time>2021-12-21T12:39:38.000Z</time>
      </trkpt>
      <trkpt lat="44.03151" lon="5.99093">
        <ele>595</ele>
        <time>2021-12-21T12:39:39.000Z</time>
      </trkpt>
      <trkpt lat="44.03151" lon="5.99093">
        <ele>595</ele>
        <time>2021-12-21T12:39:40.000Z</time>
      </trkpt>
      <trkpt lat="44.03151" lon="5.99093">
        <ele>595</ele>
        <time>2021-12-21T12:39:41.000Z</time>
      </trkpt>
      <trkpt lat="44.03151" lon="5.99093">
        <ele>595</ele>
        <time>2021-12-21T12:39:42.000Z</time>
      </trkpt>
      <trkpt lat="44.03151" lon="5.99093">
        <ele>595</ele>
        <time>2021-12-21T12:39:43.000Z</time>
      </trkpt>
      <trkpt lat="44.03151" lon="5.99093">
        <ele>595</ele>
        <time>2021-12-21T12:39:44.000Z</time>
      </trkpt>
      <trkpt lat="44.03151" lon="5.99093">
        <ele>595</ele>
        <time>2021-12-21T12:39:45.000Z</time>
      </trkpt>
      <trkpt lat="44.03151" lon="5.99093">
        <ele>595</ele>
        <time>2021-12-21T12:39:46.000Z</time>
      </trkpt>
      <trkpt lat="44.03151" lon="5.99093">
        <ele>595</ele>
        <time>2021-12-21T12:39:47.000Z</time>
      </trkpt>
      <trkpt lat="44.03151" lon="5.99093">
        <ele>595</ele>
        <time>2021-12-21T12:39:48.000Z</time>
      </trkpt>
      <trkpt lat="44.03151" lon="5.99093">
        <ele>595</ele>
        <time>2021-12-21T12:39:49.000Z</time>
      </trkpt>
      <trkpt lat="44.0315" lon="5.99094">
        <ele>595</ele>
        <time>2021-12-21T12:39:50.000Z</time>
      </trkpt>
      <trkpt lat="44.0315" lon="5.99094">
        <ele>595</ele>
        <time>2021-12-21T12:39:51.000Z</time>
      </trkpt>
      <trkpt lat="44.0315" lon="5.99093">
        <ele>595</ele>
        <time>2021-12-21T12:39:52.000Z</time>
      </trkpt>
      <trkpt lat="44.0315" lon="5.99093">
        <ele>595</ele>
        <time>2021-12-21T12:39:53.000Z</time>
      </trkpt>
      <trkpt lat="44.0315" lon="5.99093">
        <ele>595</ele>
        <time>2021-12-21T12:39:54.000Z</time>
      </trkpt>
      <trkpt lat="44.0315" lon="5.99093">
        <ele>595</ele>
        <time>2021-12-21T12:39:55.000Z</time>
      </trkpt>
      <trkpt lat="44.0315" lon="5.99093">
        <ele>595</ele>
        <time>2021-12-21T12:39:56.000Z</time>
      </trkpt>
      <trkpt lat="44.0315" lon="5.99093">
        <ele>595</ele>
        <time>2021-12-21T12:39:57.000Z</time>
      </trkpt>
      <trkpt lat="44.0315" lon="5.99093">
        <ele>596</ele>
        <time>2021-12-21T12:39:58.000Z</time>
      </trkpt>
      <trkpt lat="44.0315" lon="5.99093">
        <ele>596</ele>
        <time>2021-12-21T12:39:59.000Z</time>
      </trkpt>
      <trkpt lat="44.0315" lon="5.99093">
        <ele>596</ele>
        <time>2021-12-21T12:40:00.000Z</time>
      </trkpt>
      <trkpt lat="44.0315" lon="5.99093">
        <ele>596</ele>
        <time>2021-12-21T12:40:01.000Z</time>
      </trkpt>
      <trkpt lat="44.0315" lon="5.99093">
        <ele>596</ele>
        <time>2021-12-21T12:40:02.000Z</time>
      </trkpt>
      <trkpt lat="44.0315" lon="5.99093">
        <ele>596</ele>
        <time>2021-12-21T12:40:03.000Z</time>
      </trkpt>
      <trkpt lat="44.0315" lon="5.99092">
        <ele>596</ele>
        <time>2021-12-21T12:40:04.000Z</time>
      </trkpt>
      <trkpt lat="44.0315" lon="5.99092">
        <ele>596</ele>
        <time>2021-12-21T12:40:05.000Z</time>
      </trkpt>
      <trkpt lat="44.0315" lon="5.99092">
        <ele>596</ele>
        <time>2021-12-21T12:40:06.000Z</time>
      </trkpt>
      <trkpt lat="44.0315" lon="5.99092">
        <ele>596</ele>
        <time>2021-12-21T12:40:07.000Z</time>
      </trkpt>
      <trkpt lat="44.0315" lon="5.99093">
        <ele>596</ele>
        <time>2021-12-21T12:40:08.000Z</time>
      </trkpt>
      <trkpt lat="44.0315" lon="5.99093">
        <ele>596</ele>
        <time>2021-12-21T12:40:09.000Z</time>
      </trkpt>
      <trkpt lat="44.0315" lon="5.99093">
        <ele>596</ele>
        <time>2021-12-21T12:40:10.000Z</time>
      </trkpt>
      <trkpt lat="44.0315" lon="5.99093">
        <ele>596</ele>
        <time>2021-12-21T12:40:11.000Z</time>
      </trkpt>
      <trkpt lat="44.0315" lon="5.99093">
        <ele>596</ele>
        <time>2021-12-21T12:40:12.000Z</time>
      </trkpt>
      <trkpt lat="44.0315" lon="5.99093">
        <ele>596</ele>
        <time>2021-12-21T12:40:13.000Z</time>
      </trkpt>
      <trkpt lat="44.0315" lon="5.99093">
        <ele>596</ele>
        <time>2021-12-21T12:40:14.000Z</time>
      </trkpt>
      <trkpt lat="44.0315" lon="5.99093">
        <ele>596</ele>
        <time>2021-12-21T12:40:15.000Z</time>
      </trkpt>
      <trkpt lat="44.03151" lon="5.99094">
        <ele>596</ele>
        <time>2021-12-21T12:40:16.000Z</time>
      </trkpt>
      <trkpt lat="44.03151" lon="5.99094">
        <ele>596</ele>
        <time>2021-12-21T12:40:17.000Z</time>
      </trkpt>
      <trkpt lat="44.03151" lon="5.99094">
        <ele>596</ele>
        <time>2021-12-21T12:40:18.000Z</time>
      </trkpt>
      <trkpt lat="44.0315" lon="5.99093">
        <ele>596</ele>
        <time>2021-12-21T12:40:19.000Z</time>
      </trkpt>
      <trkpt lat="44.0315" lon="5.99092">
        <ele>596</ele>
        <time>2021-12-21T12:40:20.000Z</time>
      </trkpt>
      <trkpt lat="44.0315" lon="5.99091">
        <ele>597</ele>
        <time>2021-12-21T12:40:21.000Z</time>
      </trkpt>
      <trkpt lat="44.03149" lon="5.9909">
        <ele>597</ele>
        <time>2021-12-21T12:40:22.000Z</time>
      </trkpt>
      <trkpt lat="44.03149" lon="5.99089">
        <ele>597</ele>
        <time>2021-12-21T12:40:23.000Z</time>
      </trkpt>
      <trkpt lat="44.03148" lon="5.99088">
        <ele>597</ele>
        <time>2021-12-21T12:40:24.000Z</time>
      </trkpt>
      <trkpt lat="44.03148" lon="5.99087">
        <ele>597</ele>
        <time>2021-12-21T12:40:25.000Z</time>
      </trkpt>
      <trkpt lat="44.03147" lon="5.99085">
        <ele>597</ele>
        <time>2021-12-21T12:40:26.000Z</time>
      </trkpt>
      <trkpt lat="44.03147" lon="5.99084">
        <ele>597</ele>
        <time>2021-12-21T12:40:27.000Z</time>
      </trkpt>
      <trkpt lat="44.03146" lon="5.99083">
        <ele>597</ele>
        <time>2021-12-21T12:40:28.000Z</time>
      </trkpt>
      <trkpt lat="44.03146" lon="5.99081">
        <ele>597</ele>
        <time>2021-12-21T12:40:29.000Z</time>
      </trkpt>
      <trkpt lat="44.03145" lon="5.9908">
        <ele>597</ele>
        <time>2021-12-21T12:40:30.000Z</time>
      </trkpt>
      <trkpt lat="44.03145" lon="5.99079">
        <ele>597</ele>
        <time>2021-12-21T12:40:31.000Z</time>
      </trkpt>
      <trkpt lat="44.03144" lon="5.99078">
        <ele>597</ele>
        <time>2021-12-21T12:40:32.000Z</time>
      </trkpt>
      <trkpt lat="44.03144" lon="5.99077">
        <ele>597</ele>
        <time>2021-12-21T12:40:33.000Z</time>
      </trkpt>
      <trkpt lat="44.03143" lon="5.99076">
        <ele>597</ele>
        <time>2021-12-21T12:40:34.000Z</time>
      </trkpt>
      <trkpt lat="44.03142" lon="5.99075">
        <ele>597</ele>
        <time>2021-12-21T12:40:35.000Z</time>
      </trkpt>
      <trkpt lat="44.03142" lon="5.99074">
        <ele>597</ele>
        <time>2021-12-21T12:40:36.000Z</time>
      </trkpt>
      <trkpt lat="44.03141" lon="5.99073">
        <ele>597</ele>
        <time>2021-12-21T12:40:37.000Z</time>
      </trkpt>
      <trkpt lat="44.0314" lon="5.99072">
        <ele>596</ele>
        <time>2021-12-21T12:40:38.000Z</time>
      </trkpt>
      <trkpt lat="44.0314" lon="5.99071">
        <ele>596</ele>
        <time>2021-12-21T12:40:39.000Z</time>
      </trkpt>
      <trkpt lat="44.0314" lon="5.9907">
        <ele>596</ele>
        <time>2021-12-21T12:40:40.000Z</time>
      </trkpt>
      <trkpt lat="44.0314" lon="5.99069">
        <ele>596</ele>
        <time>2021-12-21T12:40:41.000Z</time>
      </trkpt>
      <trkpt lat="44.03139" lon="5.99068">
        <ele>595</ele>
        <time>2021-12-21T12:40:42.000Z</time>
      </trkpt>
      <trkpt lat="44.03139" lon="5.99066">
        <ele>595</ele>
        <time>2021-12-21T12:40:43.000Z</time>
      </trkpt>
      <trkpt lat="44.03138" lon="5.99065">
        <ele>595</ele>
        <time>2021-12-21T12:40:44.000Z</time>
      </trkpt>
      <trkpt lat="44.03137" lon="5.99064">
        <ele>595</ele>
        <time>2021-12-21T12:40:45.000Z</time>
      </trkpt>
      <trkpt lat="44.03137" lon="5.99062">
        <ele>595</ele>
        <time>2021-12-21T12:40:46.000Z</time>
      </trkpt>
      <trkpt lat="44.03136" lon="5.99061">
        <ele>595</ele>
        <time>2021-12-21T12:40:47.000Z</time>
      </trkpt>
      <trkpt lat="44.03136" lon="5.99059">
        <ele>595</ele>
        <time>2021-12-21T12:40:48.000Z</time>
      </trkpt>
      <trkpt lat="44.03135" lon="5.99058">
        <ele>594</ele>
        <time>2021-12-21T12:40:49.000Z</time>
      </trkpt>
      <trkpt lat="44.03134" lon="5.99056">
        <ele>594</ele>
        <time>2021-12-21T12:40:50.000Z</time>
      </trkpt>
      <trkpt lat="44.03134" lon="5.99055">
        <ele>594</ele>
        <time>2021-12-21T12:40:51.000Z</time>
      </trkpt>
      <trkpt lat="44.03133" lon="5.99053">
        <ele>594</ele>
        <time>2021-12-21T12:40:52.000Z</time>
      </trkpt>
      <trkpt lat="44.03132" lon="5.99052">
        <ele>594</ele>
        <time>2021-12-21T12:40:53.000Z</time>
      </trkpt>
      <trkpt lat="44.03132" lon="5.9905">
        <ele>594</ele>
        <time>2021-12-21T12:40:54.000Z</time>
      </trkpt>
      <trkpt lat="44.03131" lon="5.99048">
        <ele>593</ele>
        <time>2021-12-21T12:40:55.000Z</time>
      </trkpt>
      <trkpt lat="44.0313" lon="5.99047">
        <ele>593</ele>
        <time>2021-12-21T12:40:56.000Z</time>
      </trkpt>
      <trkpt lat="44.0313" lon="5.99045">
        <ele>593</ele>
        <time>2021-12-21T12:40:57.000Z</time>
      </trkpt>
      <trkpt lat="44.03129" lon="5.99044">
        <ele>593</ele>
        <time>2021-12-21T12:40:58.000Z</time>
      </trkpt>
      <trkpt lat="44.03129" lon="5.99042">
        <ele>593</ele>
        <time>2021-12-21T12:40:59.000Z</time>
      </trkpt>
      <trkpt lat="44.03128" lon="5.99041">
        <ele>593</ele>
        <time>2021-12-21T12:41:00.000Z</time>
      </trkpt>
      <trkpt lat="44.03128" lon="5.9904">
        <ele>593</ele>
        <time>2021-12-21T12:41:01.000Z</time>
      </trkpt>
      <trkpt lat="44.03127" lon="5.99039">
        <ele>593</ele>
        <time>2021-12-21T12:41:02.000Z</time>
      </trkpt>
      <trkpt lat="44.03126" lon="5.99037">
        <ele>593</ele>
        <time>2021-12-21T12:41:03.000Z</time>
      </trkpt>
      <trkpt lat="44.03126" lon="5.99036">
        <ele>593</ele>
        <time>2021-12-21T12:41:04.000Z</time>
      </trkpt>
      <trkpt lat="44.03125" lon="5.99034">
        <ele>593</ele>
        <time>2021-12-21T12:41:05.000Z</time>
      </trkpt>
      <trkpt lat="44.03124" lon="5.99033">
        <ele>592</ele>
        <time>2021-12-21T12:41:06.000Z</time>
      </trkpt>
      <trkpt lat="44.03124" lon="5.99032">
        <ele>592</ele>
        <time>2021-12-21T12:41:07.000Z</time>
      </trkpt>
      <trkpt lat="44.03123" lon="5.9903">
        <ele>592</ele>
        <time>2021-12-21T12:41:08.000Z</time>
      </trkpt>
      <trkpt lat="44.03123" lon="5.99029">
        <ele>592</ele>
        <time>2021-12-21T12:41:09.000Z</time>
      </trkpt>
      <trkpt lat="44.03123" lon="5.99027">
        <ele>592</ele>
        <time>2021-12-21T12:41:10.000Z</time>
      </trkpt>
      <trkpt lat="44.03123" lon="5.99025">
        <ele>592</ele>
        <time>2021-12-21T12:41:11.000Z</time>
      </trkpt>
      <trkpt lat="44.03123" lon="5.99024">
        <ele>592</ele>
        <time>2021-12-21T12:41:12.000Z</time>
      </trkpt>
      <trkpt lat="44.03122" lon="5.99023">
        <ele>592</ele>
        <time>2021-12-21T12:41:13.000Z</time>
      </trkpt>
      <trkpt lat="44.03122" lon="5.99021">
        <ele>591</ele>
        <time>2021-12-21T12:41:14.000Z</time>
      </trkpt>
      <trkpt lat="44.03122" lon="5.99019">
        <ele>591</ele>
        <time>2021-12-21T12:41:15.000Z</time>
      </trkpt>
      <trkpt lat="44.03122" lon="5.99018">
        <ele>591</ele>
        <time>2021-12-21T12:41:16.000Z</time>
      </trkpt>
      <trkpt lat="44.03122" lon="5.99016">
        <ele>591</ele>
        <time>2021-12-21T12:41:17.000Z</time>
      </trkpt>
      <trkpt lat="44.03122" lon="5.99014">
        <ele>591</ele>
        <time>2021-12-21T12:41:18.000Z</time>
      </trkpt>
      <trkpt lat="44.03121" lon="5.99013">
        <ele>591</ele>
        <time>2021-12-21T12:41:19.000Z</time>
      </trkpt>
      <trkpt lat="44.03121" lon="5.99011">
        <ele>591</ele>
        <time>2021-12-21T12:41:20.000Z</time>
      </trkpt>
      <trkpt lat="44.03121" lon="5.9901">
        <ele>591</ele>
        <time>2021-12-21T12:41:21.000Z</time>
      </trkpt>
      <trkpt lat="44.03121" lon="5.99008">
        <ele>591</ele>
        <time>2021-12-21T12:41:22.000Z</time>
      </trkpt>
      <trkpt lat="44.0312" lon="5.99006">
        <ele>591</ele>
        <time>2021-12-21T12:41:23.000Z</time>
      </trkpt>
      <trkpt lat="44.0312" lon="5.99005">
        <ele>591</ele>
        <time>2021-12-21T12:41:24.000Z</time>
      </trkpt>
      <trkpt lat="44.0312" lon="5.99004">
        <ele>590</ele>
        <time>2021-12-21T12:41:25.000Z</time>
      </trkpt>
      <trkpt lat="44.03119" lon="5.99002">
        <ele>590</ele>
        <time>2021-12-21T12:41:26.000Z</time>
      </trkpt>
      <trkpt lat="44.03119" lon="5.99">
        <ele>590</ele>
        <time>2021-12-21T12:41:27.000Z</time>
      </trkpt>
      <trkpt lat="44.03118" lon="5.98999">
        <ele>590</ele>
        <time>2021-12-21T12:41:28.000Z</time>
      </trkpt>
      <trkpt lat="44.03118" lon="5.98997">
        <ele>590</ele>
        <time>2021-12-21T12:41:29.000Z</time>
      </trkpt>
      <trkpt lat="44.03117" lon="5.98996">
        <ele>590</ele>
        <time>2021-12-21T12:41:30.000Z</time>
      </trkpt>
      <trkpt lat="44.03117" lon="5.98994">
        <ele>590</ele>
        <time>2021-12-21T12:41:31.000Z</time>
      </trkpt>
      <trkpt lat="44.03117" lon="5.98992">
        <ele>590</ele>
        <time>2021-12-21T12:41:32.000Z</time>
      </trkpt>
      <trkpt lat="44.03116" lon="5.98991">
        <ele>590</ele>
        <time>2021-12-21T12:41:33.000Z</time>
      </trkpt>
      <trkpt lat="44.03116" lon="5.98989">
        <ele>589</ele>
        <time>2021-12-21T12:41:34.000Z</time>
      </trkpt>
      <trkpt lat="44.03116" lon="5.98988">
        <ele>589</ele>
        <time>2021-12-21T12:41:35.000Z</time>
      </trkpt>
      <trkpt lat="44.03115" lon="5.98986">
        <ele>589</ele>
        <time>2021-12-21T12:41:36.000Z</time>
      </trkpt>
      <trkpt lat="44.03115" lon="5.98985">
        <ele>589</ele>
        <time>2021-12-21T12:41:37.000Z</time>
      </trkpt>
      <trkpt lat="44.03114" lon="5.98983">
        <ele>589</ele>
        <time>2021-12-21T12:41:38.000Z</time>
      </trkpt>
      <trkpt lat="44.03114" lon="5.98982">
        <ele>589</ele>
        <time>2021-12-21T12:41:39.000Z</time>
      </trkpt>
      <trkpt lat="44.03114" lon="5.9898">
        <ele>589</ele>
        <time>2021-12-21T12:41:40.000Z</time>
      </trkpt>
      <trkpt lat="44.03113" lon="5.98979">
        <ele>589</ele>
        <time>2021-12-21T12:41:41.000Z</time>
      </trkpt>
      <trkpt lat="44.03113" lon="5.98977">
        <ele>589</ele>
        <time>2021-12-21T12:41:42.000Z</time>
      </trkpt>
      <trkpt lat="44.03113" lon="5.98976">
        <ele>589</ele>
        <time>2021-12-21T12:41:43.000Z</time>
      </trkpt>
      <trkpt lat="44.03112" lon="5.98974">
        <ele>588</ele>
        <time>2021-12-21T12:41:44.000Z</time>
      </trkpt>
      <trkpt lat="44.03112" lon="5.98972">
        <ele>588</ele>
        <time>2021-12-21T12:41:45.000Z</time>
      </trkpt>
      <trkpt lat="44.03112" lon="5.9897">
        <ele>588</ele>
        <time>2021-12-21T12:41:46.000Z</time>
      </trkpt>
      <trkpt lat="44.03111" lon="5.98969">
        <ele>588</ele>
        <time>2021-12-21T12:41:47.000Z</time>
      </trkpt>
      <trkpt lat="44.03111" lon="5.98967">
        <ele>588</ele>
        <time>2021-12-21T12:41:48.000Z</time>
      </trkpt>
      <trkpt lat="44.03111" lon="5.98965">
        <ele>588</ele>
        <time>2021-12-21T12:41:49.000Z</time>
      </trkpt>
      <trkpt lat="44.03112" lon="5.98963">
        <ele>588</ele>
        <time>2021-12-21T12:41:50.000Z</time>
      </trkpt>
      <trkpt lat="44.03112" lon="5.98962">
        <ele>588</ele>
        <time>2021-12-21T12:41:51.000Z</time>
      </trkpt>
      <trkpt lat="44.03112" lon="5.9896">
        <ele>588</ele>
        <time>2021-12-21T12:41:52.000Z</time>
      </trkpt>
      <trkpt lat="44.03112" lon="5.98959">
        <ele>587</ele>
        <time>2021-12-21T12:41:53.000Z</time>
      </trkpt>
      <trkpt lat="44.03112" lon="5.98957">
        <ele>587</ele>
        <time>2021-12-21T12:41:54.000Z</time>
      </trkpt>
      <trkpt lat="44.03112" lon="5.98956">
        <ele>587</ele>
        <time>2021-12-21T12:41:55.000Z</time>
      </trkpt>
      <trkpt lat="44.03111" lon="5.98954">
        <ele>587</ele>
        <time>2021-12-21T12:41:56.000Z</time>
      </trkpt>
      <trkpt lat="44.03111" lon="5.98952">
        <ele>587</ele>
        <time>2021-12-21T12:41:57.000Z</time>
      </trkpt>
      <trkpt lat="44.03111" lon="5.98951">
        <ele>587</ele>
        <time>2021-12-21T12:41:58.000Z</time>
      </trkpt>
      <trkpt lat="44.03111" lon="5.98949">
        <ele>587</ele>
        <time>2021-12-21T12:41:59.000Z</time>
      </trkpt>
      <trkpt lat="44.03111" lon="5.98948">
        <ele>586</ele>
        <time>2021-12-21T12:42:00.000Z</time>
      </trkpt>
      <trkpt lat="44.03111" lon="5.98946">
        <ele>586</ele>
        <time>2021-12-21T12:42:01.000Z</time>
      </trkpt>
      <trkpt lat="44.03111" lon="5.98944">
        <ele>586</ele>
        <time>2021-12-21T12:42:02.000Z</time>
      </trkpt>
      <trkpt lat="44.03111" lon="5.98943">
        <ele>586</ele>
        <time>2021-12-21T12:42:03.000Z</time>
      </trkpt>
      <trkpt lat="44.03112" lon="5.98941">
        <ele>586</ele>
        <time>2021-12-21T12:42:04.000Z</time>
      </trkpt>
      <trkpt lat="44.03112" lon="5.9894">
        <ele>586</ele>
        <time>2021-12-21T12:42:05.000Z</time>
      </trkpt>
      <trkpt lat="44.03112" lon="5.98938">
        <ele>586</ele>
        <time>2021-12-21T12:42:06.000Z</time>
      </trkpt>
      <trkpt lat="44.03112" lon="5.98936">
        <ele>586</ele>
        <time>2021-12-21T12:42:07.000Z</time>
      </trkpt>
      <trkpt lat="44.03113" lon="5.98935">
        <ele>585</ele>
        <time>2021-12-21T12:42:08.000Z</time>
      </trkpt>
      <trkpt lat="44.03113" lon="5.98933">
        <ele>585</ele>
        <time>2021-12-21T12:42:09.000Z</time>
      </trkpt>
      <trkpt lat="44.03114" lon="5.98932">
        <ele>585</ele>
        <time>2021-12-21T12:42:10.000Z</time>
      </trkpt>
      <trkpt lat="44.03114" lon="5.9893">
        <ele>585</ele>
        <time>2021-12-21T12:42:11.000Z</time>
      </trkpt>
      <trkpt lat="44.03115" lon="5.98929">
        <ele>585</ele>
        <time>2021-12-21T12:42:12.000Z</time>
      </trkpt>
      <trkpt lat="44.03115" lon="5.98928">
        <ele>585</ele>
        <time>2021-12-21T12:42:13.000Z</time>
      </trkpt>
      <trkpt lat="44.03115" lon="5.98927">
        <ele>585</ele>
        <time>2021-12-21T12:42:14.000Z</time>
      </trkpt>
      <trkpt lat="44.03114" lon="5.98926">
        <ele>584</ele>
        <time>2021-12-21T12:42:15.000Z</time>
      </trkpt>
      <trkpt lat="44.03114" lon="5.98925">
        <ele>584</ele>
        <time>2021-12-21T12:42:16.000Z</time>
      </trkpt>
      <trkpt lat="44.03114" lon="5.98923">
        <ele>584</ele>
        <time>2021-12-21T12:42:17.000Z</time>
      </trkpt>
      <trkpt lat="44.03114" lon="5.98922">
        <ele>584</ele>
        <time>2021-12-21T12:42:18.000Z</time>
      </trkpt>
      <trkpt lat="44.03113" lon="5.98921">
        <ele>584</ele>
        <time>2021-12-21T12:42:19.000Z</time>
      </trkpt>
      <trkpt lat="44.03112" lon="5.98919">
        <ele>584</ele>
        <time>2021-12-21T12:42:20.000Z</time>
      </trkpt>
      <trkpt lat="44.03111" lon="5.98918">
        <ele>584</ele>
        <time>2021-12-21T12:42:21.000Z</time>
      </trkpt>
      <trkpt lat="44.0311" lon="5.98917">
        <ele>584</ele>
        <time>2021-12-21T12:42:22.000Z</time>
      </trkpt>
      <trkpt lat="44.03109" lon="5.98916">
        <ele>583</ele>
        <time>2021-12-21T12:42:23.000Z</time>
      </trkpt>
      <trkpt lat="44.03108" lon="5.98915">
        <ele>583</ele>
        <time>2021-12-21T12:42:24.000Z</time>
      </trkpt>
      <trkpt lat="44.03108" lon="5.98914">
        <ele>583</ele>
        <time>2021-12-21T12:42:25.000Z</time>
      </trkpt>
      <trkpt lat="44.03107" lon="5.98912">
        <ele>583</ele>
        <time>2021-12-21T12:42:26.000Z</time>
      </trkpt>
      <trkpt lat="44.03106" lon="5.98911">
        <ele>583</ele>
        <time>2021-12-21T12:42:27.000Z</time>
      </trkpt>
      <trkpt lat="44.03105" lon="5.98909">
        <ele>583</ele>
        <time>2021-12-21T12:42:28.000Z</time>
      </trkpt>
      <trkpt lat="44.03104" lon="5.98907">
        <ele>583</ele>
        <time>2021-12-21T12:42:29.000Z</time>
      </trkpt>
      <trkpt lat="44.03103" lon="5.98906">
        <ele>583</ele>
        <time>2021-12-21T12:42:30.000Z</time>
      </trkpt>
      <trkpt lat="44.03103" lon="5.98904">
        <ele>583</ele>
        <time>2021-12-21T12:42:31.000Z</time>
      </trkpt>
      <trkpt lat="44.03103" lon="5.98903">
        <ele>583</ele>
        <time>2021-12-21T12:42:32.000Z</time>
      </trkpt>
      <trkpt lat="44.03103" lon="5.98901">
        <ele>582</ele>
        <time>2021-12-21T12:42:33.000Z</time>
      </trkpt>
      <trkpt lat="44.03103" lon="5.989">
        <ele>582</ele>
        <time>2021-12-21T12:42:34.000Z</time>
      </trkpt>
      <trkpt lat="44.03103" lon="5.98898">
        <ele>582</ele>
        <time>2021-12-21T12:42:35.000Z</time>
      </trkpt>
      <trkpt lat="44.03103" lon="5.98896">
        <ele>582</ele>
        <time>2021-12-21T12:42:36.000Z</time>
      </trkpt>
      <trkpt lat="44.03102" lon="5.98895">
        <ele>581</ele>
        <time>2021-12-21T12:42:37.000Z</time>
      </trkpt>
      <trkpt lat="44.03102" lon="5.98893">
        <ele>581</ele>
        <time>2021-12-21T12:42:38.000Z</time>
      </trkpt>
      <trkpt lat="44.03102" lon="5.98891">
        <ele>581</ele>
        <time>2021-12-21T12:42:39.000Z</time>
      </trkpt>
      <trkpt lat="44.03102" lon="5.9889">
        <ele>581</ele>
        <time>2021-12-21T12:42:40.000Z</time>
      </trkpt>
      <trkpt lat="44.03101" lon="5.98888">
        <ele>580</ele>
        <time>2021-12-21T12:42:41.000Z</time>
      </trkpt>
      <trkpt lat="44.03101" lon="5.98886">
        <ele>580</ele>
        <time>2021-12-21T12:42:42.000Z</time>
      </trkpt>
      <trkpt lat="44.031" lon="5.98884">
        <ele>580</ele>
        <time>2021-12-21T12:42:43.000Z</time>
      </trkpt>
      <trkpt lat="44.031" lon="5.98882">
        <ele>580</ele>
        <time>2021-12-21T12:42:44.000Z</time>
      </trkpt>
      <trkpt lat="44.031" lon="5.9888">
        <ele>579</ele>
        <time>2021-12-21T12:42:45.000Z</time>
      </trkpt>
      <trkpt lat="44.03099" lon="5.98879">
        <ele>579</ele>
        <time>2021-12-21T12:42:46.000Z</time>
      </trkpt>
      <trkpt lat="44.03099" lon="5.98877">
        <ele>579</ele>
        <time>2021-12-21T12:42:47.000Z</time>
      </trkpt>
      <trkpt lat="44.03098" lon="5.98875">
        <ele>579</ele>
        <time>2021-12-21T12:42:48.000Z</time>
      </trkpt>
      <trkpt lat="44.03098" lon="5.98873">
        <ele>579</ele>
        <time>2021-12-21T12:42:49.000Z</time>
      </trkpt>
      <trkpt lat="44.03098" lon="5.98872">
        <ele>579</ele>
        <time>2021-12-21T12:42:50.000Z</time>
      </trkpt>
      <trkpt lat="44.03097" lon="5.9887">
        <ele>578</ele>
        <time>2021-12-21T12:42:51.000Z</time>
      </trkpt>
      <trkpt lat="44.03097" lon="5.98868">
        <ele>578</ele>
        <time>2021-12-21T12:42:52.000Z</time>
      </trkpt>
      <trkpt lat="44.03097" lon="5.98867">
        <ele>578</ele>
        <time>2021-12-21T12:42:53.000Z</time>
      </trkpt>
      <trkpt lat="44.03097" lon="5.98865">
        <ele>578</ele>
        <time>2021-12-21T12:42:54.000Z</time>
      </trkpt>
      <trkpt lat="44.03097" lon="5.98864">
        <ele>578</ele>
        <time>2021-12-21T12:42:55.000Z</time>
      </trkpt>
      <trkpt lat="44.03096" lon="5.98863">
        <ele>578</ele>
        <time>2021-12-21T12:42:56.000Z</time>
      </trkpt>
      <trkpt lat="44.03096" lon="5.98861">
        <ele>578</ele>
        <time>2021-12-21T12:42:57.000Z</time>
      </trkpt>
      <trkpt lat="44.03097" lon="5.9886">
        <ele>577</ele>
        <time>2021-12-21T12:42:58.000Z</time>
      </trkpt>
      <trkpt lat="44.03098" lon="5.9886">
        <ele>577</ele>
        <time>2021-12-21T12:42:59.000Z</time>
      </trkpt>
      <trkpt lat="44.03098" lon="5.98861">
        <ele>577</ele>
        <time>2021-12-21T12:43:00.000Z</time>
      </trkpt>
      <trkpt lat="44.03099" lon="5.98862">
        <ele>577</ele>
        <time>2021-12-21T12:43:01.000Z</time>
      </trkpt>
      <trkpt lat="44.03099" lon="5.98863">
        <ele>577</ele>
        <time>2021-12-21T12:43:02.000Z</time>
      </trkpt>
      <trkpt lat="44.031" lon="5.98864">
        <ele>577</ele>
        <time>2021-12-21T12:43:03.000Z</time>
      </trkpt>
      <trkpt lat="44.03101" lon="5.98865">
        <ele>577</ele>
        <time>2021-12-21T12:43:04.000Z</time>
      </trkpt>
      <trkpt lat="44.03102" lon="5.98866">
        <ele>576</ele>
        <time>2021-12-21T12:43:05.000Z</time>
      </trkpt>
      <trkpt lat="44.03102" lon="5.98867">
        <ele>576</ele>
        <time>2021-12-21T12:43:06.000Z</time>
      </trkpt>
      <trkpt lat="44.03103" lon="5.98868">
        <ele>576</ele>
        <time>2021-12-21T12:43:07.000Z</time>
      </trkpt>
      <trkpt lat="44.03103" lon="5.9887">
        <ele>576</ele>
        <time>2021-12-21T12:43:08.000Z</time>
      </trkpt>
      <trkpt lat="44.03104" lon="5.98871">
        <ele>576</ele>
        <time>2021-12-21T12:43:09.000Z</time>
      </trkpt>
      <trkpt lat="44.03105" lon="5.98872">
        <ele>576</ele>
        <time>2021-12-21T12:43:10.000Z</time>
      </trkpt>
      <trkpt lat="44.03106" lon="5.98873">
        <ele>576</ele>
        <time>2021-12-21T12:43:11.000Z</time>
      </trkpt>
      <trkpt lat="44.03106" lon="5.98875">
        <ele>576</ele>
        <time>2021-12-21T12:43:12.000Z</time>
      </trkpt>
      <trkpt lat="44.03107" lon="5.98876">
        <ele>576</ele>
        <time>2021-12-21T12:43:13.000Z</time>
      </trkpt>
      <trkpt lat="44.03108" lon="5.98877">
        <ele>576</ele>
        <time>2021-12-21T12:43:14.000Z</time>
      </trkpt>
      <trkpt lat="44.03109" lon="5.98878">
        <ele>576</ele>
        <time>2021-12-21T12:43:15.000Z</time>
      </trkpt>
      <trkpt lat="44.03109" lon="5.9888">
        <ele>576</ele>
        <time>2021-12-21T12:43:16.000Z</time>
      </trkpt>
      <trkpt lat="44.0311" lon="5.9888">
        <ele>575</ele>
        <time>2021-12-21T12:43:17.000Z</time>
      </trkpt>
      <trkpt lat="44.03111" lon="5.98881">
        <ele>575</ele>
        <time>2021-12-21T12:43:18.000Z</time>
      </trkpt>
      <trkpt lat="44.03111" lon="5.98882">
        <ele>575</ele>
        <time>2021-12-21T12:43:19.000Z</time>
      </trkpt>
      <trkpt lat="44.03112" lon="5.98884">
        <ele>575</ele>
        <time>2021-12-21T12:43:20.000Z</time>
      </trkpt>
      <trkpt lat="44.03112" lon="5.98885">
        <ele>575</ele>
        <time>2021-12-21T12:43:21.000Z</time>
      </trkpt>
      <trkpt lat="44.03113" lon="5.98886">
        <ele>575</ele>
        <time>2021-12-21T12:43:22.000Z</time>
      </trkpt>
      <trkpt lat="44.03113" lon="5.98887">
        <ele>575</ele>
        <time>2021-12-21T12:43:23.000Z</time>
      </trkpt>
      <trkpt lat="44.03114" lon="5.98889">
        <ele>575</ele>
        <time>2021-12-21T12:43:24.000Z</time>
      </trkpt>
      <trkpt lat="44.03115" lon="5.9889">
        <ele>575</ele>
        <time>2021-12-21T12:43:25.000Z</time>
      </trkpt>
      <trkpt lat="44.03115" lon="5.98891">
        <ele>575</ele>
        <time>2021-12-21T12:43:26.000Z</time>
      </trkpt>
      <trkpt lat="44.03116" lon="5.98892">
        <ele>575</ele>
        <time>2021-12-21T12:43:27.000Z</time>
      </trkpt>
      <trkpt lat="44.03116" lon="5.98892">
        <ele>574</ele>
        <time>2021-12-21T12:43:28.000Z</time>
      </trkpt>
      <trkpt lat="44.03117" lon="5.98893">
        <ele>574</ele>
        <time>2021-12-21T12:43:29.000Z</time>
      </trkpt>
      <trkpt lat="44.03118" lon="5.98894">
        <ele>574</ele>
        <time>2021-12-21T12:43:30.000Z</time>
      </trkpt>
      <trkpt lat="44.03119" lon="5.98894">
        <ele>574</ele>
        <time>2021-12-21T12:43:31.000Z</time>
      </trkpt>
      <trkpt lat="44.03119" lon="5.98895">
        <ele>574</ele>
        <time>2021-12-21T12:43:32.000Z</time>
      </trkpt>
      <trkpt lat="44.0312" lon="5.98895">
        <ele>574</ele>
        <time>2021-12-21T12:43:33.000Z</time>
      </trkpt>
      <trkpt lat="44.0312" lon="5.98896">
        <ele>574</ele>
        <time>2021-12-21T12:43:34.000Z</time>
      </trkpt>
      <trkpt lat="44.03121" lon="5.98896">
        <ele>574</ele>
        <time>2021-12-21T12:43:35.000Z</time>
      </trkpt>
      <trkpt lat="44.03121" lon="5.98896">
        <ele>573</ele>
        <time>2021-12-21T12:43:36.000Z</time>
      </trkpt>
      <trkpt lat="44.03121" lon="5.98896">
        <ele>573</ele>
        <time>2021-12-21T12:43:37.000Z</time>
      </trkpt>
      <trkpt lat="44.03121" lon="5.98896">
        <ele>573</ele>
        <time>2021-12-21T12:43:38.000Z</time>
      </trkpt>
      <trkpt lat="44.03121" lon="5.98896">
        <ele>573</ele>
        <time>2021-12-21T12:43:39.000Z</time>
      </trkpt>
      <trkpt lat="44.03121" lon="5.98896">
        <ele>573</ele>
        <time>2021-12-21T12:43:40.000Z</time>
      </trkpt>
      <trkpt lat="44.03121" lon="5.98896">
        <ele>573</ele>
        <time>2021-12-21T12:43:41.000Z</time>
      </trkpt>
      <trkpt lat="44.03121" lon="5.98896">
        <ele>573</ele>
        <time>2021-12-21T12:43:42.000Z</time>
      </trkpt>
      <trkpt lat="44.03121" lon="5.98896">
        <ele>573</ele>
        <time>2021-12-21T12:43:43.000Z</time>
      </trkpt>
      <trkpt lat="44.03121" lon="5.98896">
        <ele>573</ele>
        <time>2021-12-21T12:43:44.000Z</time>
      </trkpt>
      <trkpt lat="44.03121" lon="5.98896">
        <ele>573</ele>
        <time>2021-12-21T12:43:45.000Z</time>
      </trkpt>
      <trkpt lat="44.03121" lon="5.98896">
        <ele>573</ele>
        <time>2021-12-21T12:43:46.000Z</time>
      </trkpt>
      <trkpt lat="44.03121" lon="5.98896">
        <ele>573</ele>
        <time>2021-12-21T12:43:47.000Z</time>
      </trkpt>
      <trkpt lat="44.03122" lon="5.98896">
        <ele>573</ele>
        <time>2021-12-21T12:43:48.000Z</time>
      </trkpt>
      <trkpt lat="44.03122" lon="5.98896">
        <ele>573</ele>
        <time>2021-12-21T12:43:49.000Z</time>
      </trkpt>
      <trkpt lat="44.03122" lon="5.98896">
        <ele>573</ele>
        <time>2021-12-21T12:43:50.000Z</time>
      </trkpt>
      <trkpt lat="44.03122" lon="5.98896">
        <ele>572</ele>
        <time>2021-12-21T12:43:51.000Z</time>
      </trkpt>
      <trkpt lat="44.03122" lon="5.98896">
        <ele>572</ele>
        <time>2021-12-21T12:43:52.000Z</time>
      </trkpt>
      <trkpt lat="44.03122" lon="5.98896">
        <ele>572</ele>
        <time>2021-12-21T12:43:53.000Z</time>
      </trkpt>
      <trkpt lat="44.03122" lon="5.98896">
        <ele>572</ele>
        <time>2021-12-21T12:43:54.000Z</time>
      </trkpt>
      <trkpt lat="44.03122" lon="5.98896">
        <ele>572</ele>
        <time>2021-12-21T12:43:55.000Z</time>
      </trkpt>
      <trkpt lat="44.03122" lon="5.98896">
        <ele>572</ele>
        <time>2021-12-21T12:43:56.000Z</time>
      </trkpt>
      <trkpt lat="44.03122" lon="5.98896">
        <ele>572</ele>
        <time>2021-12-21T12:43:57.000Z</time>
      </trkpt>
      <trkpt lat="44.03122" lon="5.98896">
        <ele>572</ele>
        <time>2021-12-21T12:43:58.000Z</time>
      </trkpt>
      <trkpt lat="44.03122" lon="5.98896">
        <ele>572</ele>
        <time>2021-12-21T12:43:59.000Z</time>
      </trkpt>
      <trkpt lat="44.03122" lon="5.98896">
        <ele>572</ele>
        <time>2021-12-21T12:44:00.000Z</time>
      </trkpt>
      <trkpt lat="44.03122" lon="5.98896">
        <ele>572</ele>
        <time>2021-12-21T12:44:01.000Z</time>
      </trkpt>
      <trkpt lat="44.03122" lon="5.98896">
        <ele>572</ele>
        <time>2021-12-21T12:44:02.000Z</time>
      </trkpt>
      <trkpt lat="44.03122" lon="5.98896">
        <ele>572</ele>
        <time>2021-12-21T12:44:03.000Z</time>
      </trkpt>
      <trkpt lat="44.03122" lon="5.98896">
        <ele>572</ele>
        <time>2021-12-21T12:44:04.000Z</time>
      </trkpt>
      <trkpt lat="44.03122" lon="5.98896">
        <ele>572</ele>
        <time>2021-12-21T12:44:05.000Z</time>
      </trkpt>
      <trkpt lat="44.03122" lon="5.98896">
        <ele>572</ele>
        <time>2021-12-21T12:44:06.000Z</time>
      </trkpt>
      <trkpt lat="44.03122" lon="5.98896">
        <ele>572</ele>
        <time>2021-12-21T12:44:07.000Z</time>
      </trkpt>
      <trkpt lat="44.03122" lon="5.98896">
        <ele>572</ele>
        <time>2021-12-21T12:44:08.000Z</time>
      </trkpt>
      <trkpt lat="44.03122" lon="5.98896">
        <ele>572</ele>
        <time>2021-12-21T12:44:09.000Z</time>
      </trkpt>
      <trkpt lat="44.03122" lon="5.98896">
        <ele>572</ele>
        <time>2021-12-21T12:44:10.000Z</time>
      </trkpt>
      <trkpt lat="44.03122" lon="5.98896">
        <ele>572</ele>
        <time>2021-12-21T12:44:11.000Z</time>
      </trkpt>
      <trkpt lat="44.03122" lon="5.98896">
        <ele>572</ele>
        <time>2021-12-21T12:44:12.000Z</time>
      </trkpt>
      <trkpt lat="44.03122" lon="5.98896">
        <ele>572</ele>
        <time>2021-12-21T12:44:13.000Z</time>
      </trkpt>
      <trkpt lat="44.03122" lon="5.98896">
        <ele>572</ele>
        <time>2021-12-21T12:44:14.000Z</time>
      </trkpt>
      <trkpt lat="44.03122" lon="5.98896">
        <ele>572</ele>
        <time>2021-12-21T12:44:15.000Z</time>
      </trkpt>
      <trkpt lat="44.03122" lon="5.98896">
        <ele>572</ele>
        <time>2021-12-21T12:44:16.000Z</time>
      </trkpt>
      <trkpt lat="44.03122" lon="5.98896">
        <ele>572</ele>
        <time>2021-12-21T12:44:17.000Z</time>
      </trkpt>
      <trkpt lat="44.03122" lon="5.98896">
        <ele>572</ele>
        <time>2021-12-21T12:44:18.000Z</time>
      </trkpt>
      <trkpt lat="44.03122" lon="5.98896">
        <ele>572</ele>
        <time>2021-12-21T12:44:19.000Z</time>
      </trkpt>
      <trkpt lat="44.03122" lon="5.98896">
        <ele>572</ele>
        <time>2021-12-21T12:44:20.000Z</time>
      </trkpt>
      <trkpt lat="44.03122" lon="5.98896">
        <ele>572</ele>
        <time>2021-12-21T12:44:21.000Z</time>
      </trkpt>
      <trkpt lat="44.03122" lon="5.98896">
        <ele>572</ele>
        <time>2021-12-21T12:44:22.000Z</time>
      </trkpt>
      <trkpt lat="44.03122" lon="5.98896">
        <ele>572</ele>
        <time>2021-12-21T12:44:23.000Z</time>
      </trkpt>
      <trkpt lat="44.03122" lon="5.98896">
        <ele>572</ele>
        <time>2021-12-21T12:44:24.000Z</time>
      </trkpt>
      <trkpt lat="44.03122" lon="5.98896">
        <ele>572</ele>
        <time>2021-12-21T12:44:25.000Z</time>
      </trkpt>
      <trkpt lat="44.03122" lon="5.98896">
        <ele>572</ele>
        <time>2021-12-21T12:44:26.000Z</time>
      </trkpt>
      <trkpt lat="44.03122" lon="5.98896">
        <ele>572</ele>
        <time>2021-12-21T12:44:27.000Z</time>
      </trkpt>
      <trkpt lat="44.03122" lon="5.98896">
        <ele>572</ele>
        <time>2021-12-21T12:44:28.000Z</time>
      </trkpt>
      <trkpt lat="44.03122" lon="5.98896">
        <ele>572</ele>
        <time>2021-12-21T12:44:29.000Z</time>
      </trkpt>
      <trkpt lat="44.03122" lon="5.98896">
        <ele>572</ele>
        <time>2021-12-21T12:44:30.000Z</time>
      </trkpt>
      <trkpt lat="44.03122" lon="5.98896">
        <ele>572</ele>
        <time>2021-12-21T12:44:31.000Z</time>
      </trkpt>
      <trkpt lat="44.03122" lon="5.98896">
        <ele>572</ele>
        <time>2021-12-21T12:44:32.000Z</time>
      </trkpt>
      <trkpt lat="44.03122" lon="5.98896">
        <ele>572</ele>
        <time>2021-12-21T12:44:33.000Z</time>
      </trkpt>
      <trkpt lat="44.03122" lon="5.98896">
        <ele>572</ele>
        <time>2021-12-21T12:44:34.000Z</time>
      </trkpt>
      <trkpt lat="44.03122" lon="5.98896">
        <ele>572</ele>
        <time>2021-12-21T12:44:35.000Z</time>
      </trkpt>
      <trkpt lat="44.03122" lon="5.98897">
        <ele>572</ele>
        <time>2021-12-21T12:44:36.000Z</time>
      </trkpt>
      <trkpt lat="44.03123" lon="5.98897">
        <ele>572</ele>
        <time>2021-12-21T12:44:37.000Z</time>
      </trkpt>
      <trkpt lat="44.03123" lon="5.98898">
        <ele>572</ele>
        <time>2021-12-21T12:44:38.000Z</time>
      </trkpt>
      <trkpt lat="44.03123" lon="5.98899">
        <ele>572</ele>
        <time>2021-12-21T12:44:39.000Z</time>
      </trkpt>
      <trkpt lat="44.03123" lon="5.989">
        <ele>572</ele>
        <time>2021-12-21T12:44:40.000Z</time>
      </trkpt>
      <trkpt lat="44.03123" lon="5.98901">
        <ele>572</ele>
        <time>2021-12-21T12:44:41.000Z</time>
      </trkpt>
      <trkpt lat="44.03124" lon="5.98901">
        <ele>572</ele>
        <time>2021-12-21T12:44:42.000Z</time>
      </trkpt>
      <trkpt lat="44.03124" lon="5.98902">
        <ele>572</ele>
        <time>2021-12-21T12:44:43.000Z</time>
      </trkpt>
      <trkpt lat="44.03125" lon="5.98902">
        <ele>572</ele>
        <time>2021-12-21T12:44:44.000Z</time>
      </trkpt>
      <trkpt lat="44.03125" lon="5.98903">
        <ele>572</ele>
        <time>2021-12-21T12:44:45.000Z</time>
      </trkpt>
      <trkpt lat="44.03126" lon="5.98903">
        <ele>572</ele>
        <time>2021-12-21T12:44:46.000Z</time>
      </trkpt>
      <trkpt lat="44.03126" lon="5.98904">
        <ele>572</ele>
        <time>2021-12-21T12:44:47.000Z</time>
      </trkpt>
      <trkpt lat="44.03127" lon="5.98905">
        <ele>572</ele>
        <time>2021-12-21T12:44:48.000Z</time>
      </trkpt>
      <trkpt lat="44.03128" lon="5.98905">
        <ele>572</ele>
        <time>2021-12-21T12:44:49.000Z</time>
      </trkpt>
      <trkpt lat="44.03128" lon="5.98905">
        <ele>572</ele>
        <time>2021-12-21T12:44:50.000Z</time>
      </trkpt>
      <trkpt lat="44.03129" lon="5.98904">
        <ele>572</ele>
        <time>2021-12-21T12:44:51.000Z</time>
      </trkpt>
      <trkpt lat="44.0313" lon="5.98903">
        <ele>572</ele>
        <time>2021-12-21T12:44:52.000Z</time>
      </trkpt>
      <trkpt lat="44.03131" lon="5.98903">
        <ele>571</ele>
        <time>2021-12-21T12:44:53.000Z</time>
      </trkpt>
      <trkpt lat="44.03131" lon="5.98902">
        <ele>571</ele>
        <time>2021-12-21T12:44:54.000Z</time>
      </trkpt>
      <trkpt lat="44.03132" lon="5.98901">
        <ele>571</ele>
        <time>2021-12-21T12:44:55.000Z</time>
      </trkpt>
      <trkpt lat="44.03132" lon="5.989">
        <ele>571</ele>
        <time>2021-12-21T12:44:56.000Z</time>
      </trkpt>
      <trkpt lat="44.03132" lon="5.989">
        <ele>571</ele>
        <time>2021-12-21T12:44:57.000Z</time>
      </trkpt>
      <trkpt lat="44.03132" lon="5.989">
        <ele>570</ele>
        <time>2021-12-21T12:44:58.000Z</time>
      </trkpt>
      <trkpt lat="44.03132" lon="5.989">
        <ele>570</ele>
        <time>2021-12-21T12:44:59.000Z</time>
      </trkpt>
      <trkpt lat="44.03133" lon="5.989">
        <ele>570</ele>
        <time>2021-12-21T12:45:00.000Z</time>
      </trkpt>
      <trkpt lat="44.03132" lon="5.989">
        <ele>570</ele>
        <time>2021-12-21T12:45:01.000Z</time>
      </trkpt>
      <trkpt lat="44.03132" lon="5.989">
        <ele>570</ele>
        <time>2021-12-21T12:45:02.000Z</time>
      </trkpt>
      <trkpt lat="44.03132" lon="5.98899">
        <ele>570</ele>
        <time>2021-12-21T12:45:03.000Z</time>
      </trkpt>
      <trkpt lat="44.03132" lon="5.98899">
        <ele>570</ele>
        <time>2021-12-21T12:45:04.000Z</time>
      </trkpt>
      <trkpt lat="44.03132" lon="5.98899">
        <ele>570</ele>
        <time>2021-12-21T12:45:05.000Z</time>
      </trkpt>
      <trkpt lat="44.03132" lon="5.98899">
        <ele>569</ele>
        <time>2021-12-21T12:45:06.000Z</time>
      </trkpt>
      <trkpt lat="44.03132" lon="5.98899">
        <ele>569</ele>
        <time>2021-12-21T12:45:07.000Z</time>
      </trkpt>
      <trkpt lat="44.03132" lon="5.98899">
        <ele>569</ele>
        <time>2021-12-21T12:45:08.000Z</time>
      </trkpt>
      <trkpt lat="44.03132" lon="5.98899">
        <ele>569</ele>
        <time>2021-12-21T12:45:09.000Z</time>
      </trkpt>
      <trkpt lat="44.03132" lon="5.98899">
        <ele>569</ele>
        <time>2021-12-21T12:45:10.000Z</time>
      </trkpt>
      <trkpt lat="44.03132" lon="5.98899">
        <ele>569</ele>
        <time>2021-12-21T12:45:11.000Z</time>
      </trkpt>
      <trkpt lat="44.03132" lon="5.98899">
        <ele>569</ele>
        <time>2021-12-21T12:45:12.000Z</time>
      </trkpt>
      <trkpt lat="44.03132" lon="5.989">
        <ele>569</ele>
        <time>2021-12-21T12:45:13.000Z</time>
      </trkpt>
      <trkpt lat="44.03132" lon="5.989">
        <ele>568</ele>
        <time>2021-12-21T12:45:14.000Z</time>
      </trkpt>
      <trkpt lat="44.03132" lon="5.989">
        <ele>568</ele>
        <time>2021-12-21T12:45:15.000Z</time>
      </trkpt>
      <trkpt lat="44.03132" lon="5.989">
        <ele>568</ele>
        <time>2021-12-21T12:45:16.000Z</time>
      </trkpt>
      <trkpt lat="44.03132" lon="5.989">
        <ele>568</ele>
        <time>2021-12-21T12:45:17.000Z</time>
      </trkpt>
      <trkpt lat="44.03132" lon="5.989">
        <ele>568</ele>
        <time>2021-12-21T12:45:18.000Z</time>
      </trkpt>
      <trkpt lat="44.03132" lon="5.989">
        <ele>568</ele>
        <time>2021-12-21T12:45:19.000Z</time>
      </trkpt>
      <trkpt lat="44.03132" lon="5.989">
        <ele>568</ele>
        <time>2021-12-21T12:45:20.000Z</time>
      </trkpt>
      <trkpt lat="44.03131" lon="5.989">
        <ele>568</ele>
        <time>2021-12-21T12:45:21.000Z</time>
      </trkpt>
      <trkpt lat="44.03131" lon="5.989">
        <ele>568</ele>
        <time>2021-12-21T12:45:22.000Z</time>
      </trkpt>
      <trkpt lat="44.03132" lon="5.989">
        <ele>568</ele>
        <time>2021-12-21T12:45:23.000Z</time>
      </trkpt>
      <trkpt lat="44.03132" lon="5.989">
        <ele>568</ele>
        <time>2021-12-21T12:45:24.000Z</time>
      </trkpt>
      <trkpt lat="44.03132" lon="5.989">
        <ele>568</ele>
        <time>2021-12-21T12:45:25.000Z</time>
      </trkpt>
      <trkpt lat="44.03132" lon="5.989">
        <ele>568</ele>
        <time>2021-12-21T12:45:26.000Z</time>
      </trkpt>
      <trkpt lat="44.03131" lon="5.989">
        <ele>568</ele>
        <time>2021-12-21T12:45:27.000Z</time>
      </trkpt>
      <trkpt lat="44.03131" lon="5.989">
        <ele>568</ele>
        <time>2021-12-21T12:45:28.000Z</time>
      </trkpt>
      <trkpt lat="44.03131" lon="5.989">
        <ele>568</ele>
        <time>2021-12-21T12:45:29.000Z</time>
      </trkpt>
      <trkpt lat="44.03131" lon="5.989">
        <ele>568</ele>
        <time>2021-12-21T12:45:30.000Z</time>
      </trkpt>
      <trkpt lat="44.03131" lon="5.989">
        <ele>567</ele>
        <time>2021-12-21T12:45:31.000Z</time>
      </trkpt>
      <trkpt lat="44.03131" lon="5.989">
        <ele>567</ele>
        <time>2021-12-21T12:45:32.000Z</time>
      </trkpt>
      <trkpt lat="44.03131" lon="5.989">
        <ele>567</ele>
        <time>2021-12-21T12:45:33.000Z</time>
      </trkpt>
      <trkpt lat="44.03131" lon="5.989">
        <ele>567</ele>
        <time>2021-12-21T12:45:34.000Z</time>
      </trkpt>
      <trkpt lat="44.03131" lon="5.989">
        <ele>567</ele>
        <time>2021-12-21T12:45:35.000Z</time>
      </trkpt>
      <trkpt lat="44.03131" lon="5.989">
        <ele>567</ele>
        <time>2021-12-21T12:45:36.000Z</time>
      </trkpt>
      <trkpt lat="44.03131" lon="5.989">
        <ele>567</ele>
        <time>2021-12-21T12:45:37.000Z</time>
      </trkpt>
      <trkpt lat="44.03131" lon="5.989">
        <ele>567</ele>
        <time>2021-12-21T12:45:38.000Z</time>
      </trkpt>
      <trkpt lat="44.03131" lon="5.989">
        <ele>567</ele>
        <time>2021-12-21T12:45:39.000Z</time>
      </trkpt>
      <trkpt lat="44.03131" lon="5.989">
        <ele>567</ele>
        <time>2021-12-21T12:45:40.000Z</time>
      </trkpt>
      <trkpt lat="44.03131" lon="5.989">
        <ele>567</ele>
        <time>2021-12-21T12:45:41.000Z</time>
      </trkpt>
      <trkpt lat="44.03131" lon="5.98901">
        <ele>567</ele>
        <time>2021-12-21T12:45:42.000Z</time>
      </trkpt>
      <trkpt lat="44.03131" lon="5.98901">
        <ele>567</ele>
        <time>2021-12-21T12:45:43.000Z</time>
      </trkpt>
      <trkpt lat="44.03131" lon="5.98901">
        <ele>567</ele>
        <time>2021-12-21T12:45:44.000Z</time>
      </trkpt>
      <trkpt lat="44.03131" lon="5.98901">
        <ele>567</ele>
        <time>2021-12-21T12:45:45.000Z</time>
      </trkpt>
      <trkpt lat="44.03131" lon="5.98901">
        <ele>567</ele>
        <time>2021-12-21T12:45:46.000Z</time>
      </trkpt>
      <trkpt lat="44.03131" lon="5.98901">
        <ele>567</ele>
        <time>2021-12-21T12:45:47.000Z</time>
      </trkpt>
      <trkpt lat="44.03131" lon="5.98901">
        <ele>567</ele>
        <time>2021-12-21T12:45:48.000Z</time>
      </trkpt>
      <trkpt lat="44.03131" lon="5.98901">
        <ele>567</ele>
        <time>2021-12-21T12:45:49.000Z</time>
      </trkpt>
      <trkpt lat="44.03131" lon="5.98901">
        <ele>567</ele>
        <time>2021-12-21T12:45:50.000Z</time>
      </trkpt>
      <trkpt lat="44.03131" lon="5.98901">
        <ele>567</ele>
        <time>2021-12-21T12:45:51.000Z</time>
      </trkpt>
      <trkpt lat="44.03131" lon="5.98901">
        <ele>567</ele>
        <time>2021-12-21T12:45:52.000Z</time>
      </trkpt>
      <trkpt lat="44.03131" lon="5.98902">
        <ele>566</ele>
        <time>2021-12-21T12:45:53.000Z</time>
      </trkpt>
      <trkpt lat="44.03131" lon="5.98902">
        <ele>566</ele>
        <time>2021-12-21T12:45:54.000Z</time>
      </trkpt>
      <trkpt lat="44.03131" lon="5.98902">
        <ele>566</ele>
        <time>2021-12-21T12:45:55.000Z</time>
      </trkpt>
      <trkpt lat="44.03131" lon="5.98902">
        <ele>566</ele>
        <time>2021-12-21T12:45:56.000Z</time>
      </trkpt>
      <trkpt lat="44.03131" lon="5.98902">
        <ele>566</ele>
        <time>2021-12-21T12:45:57.000Z</time>
      </trkpt>
      <trkpt lat="44.03132" lon="5.98902">
        <ele>566</ele>
        <time>2021-12-21T12:45:58.000Z</time>
      </trkpt>
      <trkpt lat="44.03132" lon="5.98902">
        <ele>566</ele>
        <time>2021-12-21T12:45:59.000Z</time>
      </trkpt>
      <trkpt lat="44.03132" lon="5.98903">
        <ele>566</ele>
        <time>2021-12-21T12:46:00.000Z</time>
      </trkpt>
      <trkpt lat="44.03131" lon="5.98904">
        <ele>566</ele>
        <time>2021-12-21T12:46:01.000Z</time>
      </trkpt>
      <trkpt lat="44.03131" lon="5.98904">
        <ele>566</ele>
        <time>2021-12-21T12:46:02.000Z</time>
      </trkpt>
      <trkpt lat="44.0313" lon="5.98906">
        <ele>566</ele>
        <time>2021-12-21T12:46:03.000Z</time>
      </trkpt>
      <trkpt lat="44.0313" lon="5.98907">
        <ele>566</ele>
        <time>2021-12-21T12:46:04.000Z</time>
      </trkpt>
      <trkpt lat="44.0313" lon="5.98909">
        <ele>565</ele>
        <time>2021-12-21T12:46:05.000Z</time>
      </trkpt>
      <trkpt lat="44.0313" lon="5.98911">
        <ele>565</ele>
        <time>2021-12-21T12:46:06.000Z</time>
      </trkpt>
      <trkpt lat="44.0313" lon="5.98912">
        <ele>565</ele>
        <time>2021-12-21T12:46:07.000Z</time>
      </trkpt>
      <trkpt lat="44.0313" lon="5.98914">
        <ele>565</ele>
        <time>2021-12-21T12:46:08.000Z</time>
      </trkpt>
      <trkpt lat="44.03129" lon="5.98916">
        <ele>565</ele>
        <time>2021-12-21T12:46:09.000Z</time>
      </trkpt>
      <trkpt lat="44.03129" lon="5.98917">
        <ele>565</ele>
        <time>2021-12-21T12:46:10.000Z</time>
      </trkpt>
      <trkpt lat="44.03129" lon="5.98918">
        <ele>565</ele>
        <time>2021-12-21T12:46:11.000Z</time>
      </trkpt>
      <trkpt lat="44.03129" lon="5.98919">
        <ele>565</ele>
        <time>2021-12-21T12:46:12.000Z</time>
      </trkpt>
      <trkpt lat="44.0313" lon="5.9892">
        <ele>564</ele>
        <time>2021-12-21T12:46:13.000Z</time>
      </trkpt>
      <trkpt lat="44.0313" lon="5.98922">
        <ele>564</ele>
        <time>2021-12-21T12:46:14.000Z</time>
      </trkpt>
      <trkpt lat="44.0313" lon="5.98923">
        <ele>564</ele>
        <time>2021-12-21T12:46:15.000Z</time>
      </trkpt>
      <trkpt lat="44.0313" lon="5.98925">
        <ele>564</ele>
        <time>2021-12-21T12:46:16.000Z</time>
      </trkpt>
      <trkpt lat="44.0313" lon="5.98926">
        <ele>564</ele>
        <time>2021-12-21T12:46:17.000Z</time>
      </trkpt>
      <trkpt lat="44.0313" lon="5.98928">
        <ele>564</ele>
        <time>2021-12-21T12:46:18.000Z</time>
      </trkpt>
      <trkpt lat="44.0313" lon="5.9893">
        <ele>564</ele>
        <time>2021-12-21T12:46:19.000Z</time>
      </trkpt>
      <trkpt lat="44.0313" lon="5.98931">
        <ele>564</ele>
        <time>2021-12-21T12:46:20.000Z</time>
      </trkpt>
      <trkpt lat="44.0313" lon="5.98933">
        <ele>564</ele>
        <time>2021-12-21T12:46:21.000Z</time>
      </trkpt>
      <trkpt lat="44.0313" lon="5.98935">
        <ele>564</ele>
        <time>2021-12-21T12:46:22.000Z</time>
      </trkpt>
      <trkpt lat="44.03131" lon="5.98936">
        <ele>564</ele>
        <time>2021-12-21T12:46:23.000Z</time>
      </trkpt>
      <trkpt lat="44.03131" lon="5.98938">
        <ele>564</ele>
        <time>2021-12-21T12:46:24.000Z</time>
      </trkpt>
      <trkpt lat="44.03132" lon="5.9894">
        <ele>564</ele>
        <time>2021-12-21T12:46:25.000Z</time>
      </trkpt>
      <trkpt lat="44.03133" lon="5.98941">
        <ele>564</ele>
        <time>2021-12-21T12:46:26.000Z</time>
      </trkpt>
      <trkpt lat="44.03134" lon="5.98942">
        <ele>564</ele>
        <time>2021-12-21T12:46:27.000Z</time>
      </trkpt>
      <trkpt lat="44.03135" lon="5.98944">
        <ele>564</ele>
        <time>2021-12-21T12:46:28.000Z</time>
      </trkpt>
      <trkpt lat="44.03136" lon="5.98945">
        <ele>565</ele>
        <time>2021-12-21T12:46:29.000Z</time>
      </trkpt>
      <trkpt lat="44.03137" lon="5.98947">
        <ele>565</ele>
        <time>2021-12-21T12:46:30.000Z</time>
      </trkpt>
      <trkpt lat="44.03137" lon="5.98948">
        <ele>565</ele>
        <time>2021-12-21T12:46:31.000Z</time>
      </trkpt>
      <trkpt lat="44.03138" lon="5.98949">
        <ele>565</ele>
        <time>2021-12-21T12:46:32.000Z</time>
      </trkpt>
      <trkpt lat="44.03139" lon="5.9895">
        <ele>565</ele>
        <time>2021-12-21T12:46:33.000Z</time>
      </trkpt>
      <trkpt lat="44.0314" lon="5.98951">
        <ele>565</ele>
        <time>2021-12-21T12:46:34.000Z</time>
      </trkpt>
      <trkpt lat="44.0314" lon="5.98952">
        <ele>565</ele>
        <time>2021-12-21T12:46:35.000Z</time>
      </trkpt>
      <trkpt lat="44.0314" lon="5.98953">
        <ele>565</ele>
        <time>2021-12-21T12:46:36.000Z</time>
      </trkpt>
      <trkpt lat="44.03141" lon="5.98954">
        <ele>565</ele>
        <time>2021-12-21T12:46:37.000Z</time>
      </trkpt>
      <trkpt lat="44.03141" lon="5.98954">
        <ele>565</ele>
        <time>2021-12-21T12:46:38.000Z</time>
      </trkpt>
      <trkpt lat="44.03141" lon="5.98954">
        <ele>565</ele>
        <time>2021-12-21T12:46:39.000Z</time>
      </trkpt>
      <trkpt lat="44.03142" lon="5.98954">
        <ele>565</ele>
        <time>2021-12-21T12:46:40.000Z</time>
      </trkpt>
      <trkpt lat="44.03142" lon="5.98954">
        <ele>565</ele>
        <time>2021-12-21T12:46:41.000Z</time>
      </trkpt>
      <trkpt lat="44.03143" lon="5.98955">
        <ele>565</ele>
        <time>2021-12-21T12:46:42.000Z</time>
      </trkpt>
      <trkpt lat="44.03143" lon="5.98955">
        <ele>565</ele>
        <time>2021-12-21T12:46:43.000Z</time>
      </trkpt>
      <trkpt lat="44.03144" lon="5.98955">
        <ele>565</ele>
        <time>2021-12-21T12:46:44.000Z</time>
      </trkpt>
      <trkpt lat="44.03145" lon="5.98955">
        <ele>565</ele>
        <time>2021-12-21T12:46:45.000Z</time>
      </trkpt>
      <trkpt lat="44.03145" lon="5.98956">
        <ele>565</ele>
        <time>2021-12-21T12:46:46.000Z</time>
      </trkpt>
      <trkpt lat="44.03146" lon="5.98956">
        <ele>565</ele>
        <time>2021-12-21T12:46:47.000Z</time>
      </trkpt>
      <trkpt lat="44.03147" lon="5.98957">
        <ele>565</ele>
        <time>2021-12-21T12:46:48.000Z</time>
      </trkpt>
      <trkpt lat="44.03148" lon="5.98957">
        <ele>565</ele>
        <time>2021-12-21T12:46:49.000Z</time>
      </trkpt>
      <trkpt lat="44.03148" lon="5.98957">
        <ele>565</ele>
        <time>2021-12-21T12:46:50.000Z</time>
      </trkpt>
      <trkpt lat="44.03149" lon="5.98957">
        <ele>565</ele>
        <time>2021-12-21T12:46:51.000Z</time>
      </trkpt>
      <trkpt lat="44.0315" lon="5.98956">
        <ele>565</ele>
        <time>2021-12-21T12:46:52.000Z</time>
      </trkpt>
      <trkpt lat="44.03151" lon="5.98955">
        <ele>565</ele>
        <time>2021-12-21T12:46:53.000Z</time>
      </trkpt>
      <trkpt lat="44.03152" lon="5.98955">
        <ele>565</ele>
        <time>2021-12-21T12:46:54.000Z</time>
      </trkpt>
      <trkpt lat="44.03153" lon="5.98954">
        <ele>565</ele>
        <time>2021-12-21T12:46:55.000Z</time>
      </trkpt>
      <trkpt lat="44.03154" lon="5.98954">
        <ele>565</ele>
        <time>2021-12-21T12:46:56.000Z</time>
      </trkpt>
      <trkpt lat="44.03155" lon="5.98953">
        <ele>565</ele>
        <time>2021-12-21T12:46:57.000Z</time>
      </trkpt>
      <trkpt lat="44.03156" lon="5.98953">
        <ele>565</ele>
        <time>2021-12-21T12:46:58.000Z</time>
      </trkpt>
      <trkpt lat="44.03158" lon="5.98954">
        <ele>565</ele>
        <time>2021-12-21T12:46:59.000Z</time>
      </trkpt>
      <trkpt lat="44.03159" lon="5.98955">
        <ele>565</ele>
        <time>2021-12-21T12:47:00.000Z</time>
      </trkpt>
      <trkpt lat="44.0316" lon="5.98956">
        <ele>565</ele>
        <time>2021-12-21T12:47:01.000Z</time>
      </trkpt>
      <trkpt lat="44.03162" lon="5.98956">
        <ele>565</ele>
        <time>2021-12-21T12:47:02.000Z</time>
      </trkpt>
      <trkpt lat="44.03163" lon="5.98957">
        <ele>565</ele>
        <time>2021-12-21T12:47:03.000Z</time>
      </trkpt>
      <trkpt lat="44.03164" lon="5.98958">
        <ele>564</ele>
        <time>2021-12-21T12:47:04.000Z</time>
      </trkpt>
      <trkpt lat="44.03164" lon="5.98958">
        <ele>564</ele>
        <time>2021-12-21T12:47:05.000Z</time>
      </trkpt>
      <trkpt lat="44.03165" lon="5.98958">
        <ele>564</ele>
        <time>2021-12-21T12:47:06.000Z</time>
      </trkpt>
      <trkpt lat="44.03165" lon="5.98958">
        <ele>564</ele>
        <time>2021-12-21T12:47:07.000Z</time>
      </trkpt>
      <trkpt lat="44.03165" lon="5.98959">
        <ele>564</ele>
        <time>2021-12-21T12:47:08.000Z</time>
      </trkpt>
      <trkpt lat="44.03165" lon="5.98958">
        <ele>564</ele>
        <time>2021-12-21T12:47:09.000Z</time>
      </trkpt>
      <trkpt lat="44.03164" lon="5.98958">
        <ele>564</ele>
        <time>2021-12-21T12:47:10.000Z</time>
      </trkpt>
      <trkpt lat="44.03163" lon="5.98957">
        <ele>564</ele>
        <time>2021-12-21T12:47:11.000Z</time>
      </trkpt>
      <trkpt lat="44.03162" lon="5.98957">
        <ele>564</ele>
        <time>2021-12-21T12:47:12.000Z</time>
      </trkpt>
      <trkpt lat="44.03162" lon="5.98956">
        <ele>564</ele>
        <time>2021-12-21T12:47:13.000Z</time>
      </trkpt>
      <trkpt lat="44.03161" lon="5.98955">
        <ele>564</ele>
        <time>2021-12-21T12:47:14.000Z</time>
      </trkpt>
      <trkpt lat="44.0316" lon="5.98955">
        <ele>563</ele>
        <time>2021-12-21T12:47:15.000Z</time>
      </trkpt>
      <trkpt lat="44.03159" lon="5.98954">
        <ele>563</ele>
        <time>2021-12-21T12:47:16.000Z</time>
      </trkpt>
      <trkpt lat="44.03159" lon="5.98954">
        <ele>563</ele>
        <time>2021-12-21T12:47:17.000Z</time>
      </trkpt>
      <trkpt lat="44.03159" lon="5.98954">
        <ele>563</ele>
        <time>2021-12-21T12:47:18.000Z</time>
      </trkpt>
      <trkpt lat="44.03159" lon="5.98953">
        <ele>563</ele>
        <time>2021-12-21T12:47:19.000Z</time>
      </trkpt>
      <trkpt lat="44.03159" lon="5.98953">
        <ele>563</ele>
        <time>2021-12-21T12:47:20.000Z</time>
      </trkpt>
      <trkpt lat="44.0316" lon="5.98952">
        <ele>563</ele>
        <time>2021-12-21T12:47:21.000Z</time>
      </trkpt>
      <trkpt lat="44.0316" lon="5.98952">
        <ele>563</ele>
        <time>2021-12-21T12:47:22.000Z</time>
      </trkpt>
      <trkpt lat="44.03161" lon="5.98951">
        <ele>563</ele>
        <time>2021-12-21T12:47:23.000Z</time>
      </trkpt>
      <trkpt lat="44.03161" lon="5.98951">
        <ele>563</ele>
        <time>2021-12-21T12:47:24.000Z</time>
      </trkpt>
      <trkpt lat="44.03162" lon="5.98951">
        <ele>563</ele>
        <time>2021-12-21T12:47:25.000Z</time>
      </trkpt>
      <trkpt lat="44.03162" lon="5.98951">
        <ele>562</ele>
        <time>2021-12-21T12:47:26.000Z</time>
      </trkpt>
      <trkpt lat="44.03162" lon="5.98951">
        <ele>562</ele>
        <time>2021-12-21T12:47:27.000Z</time>
      </trkpt>
      <trkpt lat="44.03162" lon="5.98951">
        <ele>562</ele>
        <time>2021-12-21T12:47:28.000Z</time>
      </trkpt>
      <trkpt lat="44.03162" lon="5.98951">
        <ele>562</ele>
        <time>2021-12-21T12:47:29.000Z</time>
      </trkpt>
      <trkpt lat="44.03162" lon="5.98951">
        <ele>562</ele>
        <time>2021-12-21T12:47:30.000Z</time>
      </trkpt>
      <trkpt lat="44.03162" lon="5.9895">
        <ele>562</ele>
        <time>2021-12-21T12:47:31.000Z</time>
      </trkpt>
      <trkpt lat="44.03162" lon="5.98951">
        <ele>562</ele>
        <time>2021-12-21T12:47:32.000Z</time>
      </trkpt>
      <trkpt lat="44.03162" lon="5.98951">
        <ele>562</ele>
        <time>2021-12-21T12:47:33.000Z</time>
      </trkpt>
      <trkpt lat="44.03162" lon="5.9895">
        <ele>562</ele>
        <time>2021-12-21T12:47:34.000Z</time>
      </trkpt>
      <trkpt lat="44.03162" lon="5.9895">
        <ele>562</ele>
        <time>2021-12-21T12:47:35.000Z</time>
      </trkpt>
      <trkpt lat="44.03162" lon="5.9895">
        <ele>562</ele>
        <time>2021-12-21T12:47:36.000Z</time>
      </trkpt>
      <trkpt lat="44.03162" lon="5.9895">
        <ele>562</ele>
        <time>2021-12-21T12:47:37.000Z</time>
      </trkpt>
      <trkpt lat="44.03162" lon="5.9895">
        <ele>562</ele>
        <time>2021-12-21T12:47:38.000Z</time>
      </trkpt>
      <trkpt lat="44.03162" lon="5.9895">
        <ele>562</ele>
        <time>2021-12-21T12:47:39.000Z</time>
      </trkpt>
      <trkpt lat="44.03162" lon="5.9895">
        <ele>562</ele>
        <time>2021-12-21T12:47:40.000Z</time>
      </trkpt>
      <trkpt lat="44.03162" lon="5.9895">
        <ele>562</ele>
        <time>2021-12-21T12:47:41.000Z</time>
      </trkpt>
      <trkpt lat="44.03162" lon="5.9895">
        <ele>562</ele>
        <time>2021-12-21T12:47:42.000Z</time>
      </trkpt>
      <trkpt lat="44.03162" lon="5.9895">
        <ele>561</ele>
        <time>2021-12-21T12:47:43.000Z</time>
      </trkpt>
      <trkpt lat="44.03162" lon="5.9895">
        <ele>561</ele>
        <time>2021-12-21T12:47:44.000Z</time>
      </trkpt>
      <trkpt lat="44.03162" lon="5.9895">
        <ele>561</ele>
        <time>2021-12-21T12:47:45.000Z</time>
      </trkpt>
      <trkpt lat="44.03162" lon="5.9895">
        <ele>561</ele>
        <time>2021-12-21T12:47:46.000Z</time>
      </trkpt>
      <trkpt lat="44.03162" lon="5.9895">
        <ele>561</ele>
        <time>2021-12-21T12:47:47.000Z</time>
      </trkpt>
      <trkpt lat="44.03162" lon="5.9895">
        <ele>561</ele>
        <time>2021-12-21T12:47:48.000Z</time>
      </trkpt>
      <trkpt lat="44.03162" lon="5.9895">
        <ele>561</ele>
        <time>2021-12-21T12:47:49.000Z</time>
      </trkpt>
      <trkpt lat="44.03162" lon="5.98951">
        <ele>561</ele>
        <time>2021-12-21T12:47:50.000Z</time>
      </trkpt>
      <trkpt lat="44.03161" lon="5.98951">
        <ele>561</ele>
        <time>2021-12-21T12:47:51.000Z</time>
      </trkpt>
      <trkpt lat="44.0316" lon="5.98951">
        <ele>561</ele>
        <time>2021-12-21T12:47:52.000Z</time>
      </trkpt>
      <trkpt lat="44.03159" lon="5.98952">
        <ele>561</ele>
        <time>2021-12-21T12:47:53.000Z</time>
      </trkpt>
      <trkpt lat="44.03159" lon="5.98952">
        <ele>561</ele>
        <time>2021-12-21T12:47:54.000Z</time>
      </trkpt>
      <trkpt lat="44.03159" lon="5.98953">
        <ele>561</ele>
        <time>2021-12-21T12:47:55.000Z</time>
      </trkpt>
      <trkpt lat="44.0316" lon="5.98954">
        <ele>561</ele>
        <time>2021-12-21T12:47:56.000Z</time>
      </trkpt>
      <trkpt lat="44.0316" lon="5.98955">
        <ele>561</ele>
        <time>2021-12-21T12:47:57.000Z</time>
      </trkpt>
      <trkpt lat="44.03161" lon="5.98955">
        <ele>561</ele>
        <time>2021-12-21T12:47:58.000Z</time>
      </trkpt>
      <trkpt lat="44.03161" lon="5.98956">
        <ele>561</ele>
        <time>2021-12-21T12:47:59.000Z</time>
      </trkpt>
      <trkpt lat="44.03162" lon="5.98957">
        <ele>561</ele>
        <time>2021-12-21T12:48:00.000Z</time>
      </trkpt>
      <trkpt lat="44.03163" lon="5.98959">
        <ele>561</ele>
        <time>2021-12-21T12:48:01.000Z</time>
      </trkpt>
      <trkpt lat="44.03164" lon="5.9896">
        <ele>561</ele>
        <time>2021-12-21T12:48:02.000Z</time>
      </trkpt>
      <trkpt lat="44.03165" lon="5.98961">
        <ele>561</ele>
        <time>2021-12-21T12:48:03.000Z</time>
      </trkpt>
      <trkpt lat="44.03165" lon="5.98962">
        <ele>561</ele>
        <time>2021-12-21T12:48:04.000Z</time>
      </trkpt>
      <trkpt lat="44.03164" lon="5.98964">
        <ele>561</ele>
        <time>2021-12-21T12:48:05.000Z</time>
      </trkpt>
      <trkpt lat="44.03164" lon="5.98964">
        <ele>562</ele>
        <time>2021-12-21T12:48:06.000Z</time>
      </trkpt>
      <trkpt lat="44.03164" lon="5.98965">
        <ele>562</ele>
        <time>2021-12-21T12:48:07.000Z</time>
      </trkpt>
      <trkpt lat="44.03165" lon="5.98966">
        <ele>562</ele>
        <time>2021-12-21T12:48:08.000Z</time>
      </trkpt>
      <trkpt lat="44.03165" lon="5.98968">
        <ele>562</ele>
        <time>2021-12-21T12:48:09.000Z</time>
      </trkpt>
      <trkpt lat="44.03165" lon="5.98969">
        <ele>562</ele>
        <time>2021-12-21T12:48:10.000Z</time>
      </trkpt>
      <trkpt lat="44.03165" lon="5.98971">
        <ele>562</ele>
        <time>2021-12-21T12:48:11.000Z</time>
      </trkpt>
      <trkpt lat="44.03165" lon="5.98972">
        <ele>562</ele>
        <time>2021-12-21T12:48:12.000Z</time>
      </trkpt>
      <trkpt lat="44.03165" lon="5.98973">
        <ele>562</ele>
        <time>2021-12-21T12:48:13.000Z</time>
      </trkpt>
      <trkpt lat="44.03165" lon="5.98974">
        <ele>562</ele>
        <time>2021-12-21T12:48:14.000Z</time>
      </trkpt>
      <trkpt lat="44.03165" lon="5.98975">
        <ele>562</ele>
        <time>2021-12-21T12:48:15.000Z</time>
      </trkpt>
      <trkpt lat="44.03165" lon="5.98976">
        <ele>562</ele>
        <time>2021-12-21T12:48:16.000Z</time>
      </trkpt>
      <trkpt lat="44.03165" lon="5.98978">
        <ele>562</ele>
        <time>2021-12-21T12:48:17.000Z</time>
      </trkpt>
      <trkpt lat="44.03166" lon="5.98978">
        <ele>562</ele>
        <time>2021-12-21T12:48:18.000Z</time>
      </trkpt>
      <trkpt lat="44.03166" lon="5.98979">
        <ele>562</ele>
        <time>2021-12-21T12:48:19.000Z</time>
      </trkpt>
      <trkpt lat="44.03167" lon="5.9898">
        <ele>562</ele>
        <time>2021-12-21T12:48:20.000Z</time>
      </trkpt>
      <trkpt lat="44.03167" lon="5.98981">
        <ele>562</ele>
        <time>2021-12-21T12:48:21.000Z</time>
      </trkpt>
      <trkpt lat="44.03168" lon="5.98982">
        <ele>562</ele>
        <time>2021-12-21T12:48:22.000Z</time>
      </trkpt>
      <trkpt lat="44.03168" lon="5.98983">
        <ele>562</ele>
        <time>2021-12-21T12:48:23.000Z</time>
      </trkpt>
      <trkpt lat="44.03168" lon="5.98983">
        <ele>562</ele>
        <time>2021-12-21T12:48:24.000Z</time>
      </trkpt>
      <trkpt lat="44.03169" lon="5.98984">
        <ele>562</ele>
        <time>2021-12-21T12:48:25.000Z</time>
      </trkpt>
      <trkpt lat="44.0317" lon="5.98986">
        <ele>562</ele>
        <time>2021-12-21T12:48:26.000Z</time>
      </trkpt>
      <trkpt lat="44.0317" lon="5.98987">
        <ele>562</ele>
        <time>2021-12-21T12:48:27.000Z</time>
      </trkpt>
      <trkpt lat="44.0317" lon="5.98988">
        <ele>562</ele>
        <time>2021-12-21T12:48:28.000Z</time>
      </trkpt>
      <trkpt lat="44.0317" lon="5.9899">
        <ele>562</ele>
        <time>2021-12-21T12:48:29.000Z</time>
      </trkpt>
      <trkpt lat="44.03171" lon="5.98991">
        <ele>561</ele>
        <time>2021-12-21T12:48:30.000Z</time>
      </trkpt>
      <trkpt lat="44.03171" lon="5.98993">
        <ele>561</ele>
        <time>2021-12-21T12:48:31.000Z</time>
      </trkpt>
      <trkpt lat="44.03171" lon="5.98994">
        <ele>561</ele>
        <time>2021-12-21T12:48:32.000Z</time>
      </trkpt>
      <trkpt lat="44.03172" lon="5.98995">
        <ele>561</ele>
        <time>2021-12-21T12:48:33.000Z</time>
      </trkpt>
      <trkpt lat="44.03172" lon="5.98997">
        <ele>561</ele>
        <time>2021-12-21T12:48:34.000Z</time>
      </trkpt>
      <trkpt lat="44.03173" lon="5.98998">
        <ele>561</ele>
        <time>2021-12-21T12:48:35.000Z</time>
      </trkpt>
      <trkpt lat="44.03174" lon="5.98998">
        <ele>562</ele>
        <time>2021-12-21T12:48:36.000Z</time>
      </trkpt>
      <trkpt lat="44.03174" lon="5.98999">
        <ele>562</ele>
        <time>2021-12-21T12:48:37.000Z</time>
      </trkpt>
      <trkpt lat="44.03174" lon="5.99001">
        <ele>562</ele>
        <time>2021-12-21T12:48:38.000Z</time>
      </trkpt>
      <trkpt lat="44.03174" lon="5.99002">
        <ele>562</ele>
        <time>2021-12-21T12:48:39.000Z</time>
      </trkpt>
      <trkpt lat="44.03173" lon="5.99002">
        <ele>562</ele>
        <time>2021-12-21T12:48:40.000Z</time>
      </trkpt>
      <trkpt lat="44.03173" lon="5.99003">
        <ele>562</ele>
        <time>2021-12-21T12:48:41.000Z</time>
      </trkpt>
      <trkpt lat="44.03172" lon="5.99004">
        <ele>562</ele>
        <time>2021-12-21T12:48:42.000Z</time>
      </trkpt>
      <trkpt lat="44.03172" lon="5.99004">
        <ele>562</ele>
        <time>2021-12-21T12:48:43.000Z</time>
      </trkpt>
      <trkpt lat="44.03171" lon="5.99005">
        <ele>562</ele>
        <time>2021-12-21T12:48:44.000Z</time>
      </trkpt>
      <trkpt lat="44.03171" lon="5.99006">
        <ele>562</ele>
        <time>2021-12-21T12:48:45.000Z</time>
      </trkpt>
      <trkpt lat="44.03171" lon="5.99007">
        <ele>562</ele>
        <time>2021-12-21T12:48:46.000Z</time>
      </trkpt>
      <trkpt lat="44.03171" lon="5.99007">
        <ele>563</ele>
        <time>2021-12-21T12:48:47.000Z</time>
      </trkpt>
      <trkpt lat="44.03171" lon="5.99008">
        <ele>563</ele>
        <time>2021-12-21T12:48:48.000Z</time>
      </trkpt>
      <trkpt lat="44.03171" lon="5.99009">
        <ele>563</ele>
        <time>2021-12-21T12:48:49.000Z</time>
      </trkpt>
      <trkpt lat="44.03171" lon="5.99011">
        <ele>563</ele>
        <time>2021-12-21T12:48:50.000Z</time>
      </trkpt>
      <trkpt lat="44.03172" lon="5.99012">
        <ele>563</ele>
        <time>2021-12-21T12:48:51.000Z</time>
      </trkpt>
      <trkpt lat="44.03172" lon="5.99013">
        <ele>563</ele>
        <time>2021-12-21T12:48:52.000Z</time>
      </trkpt>
      <trkpt lat="44.03172" lon="5.99014">
        <ele>563</ele>
        <time>2021-12-21T12:48:53.000Z</time>
      </trkpt>
      <trkpt lat="44.03172" lon="5.99015">
        <ele>563</ele>
        <time>2021-12-21T12:48:54.000Z</time>
      </trkpt>
      <trkpt lat="44.03172" lon="5.99016">
        <ele>563</ele>
        <time>2021-12-21T12:48:55.000Z</time>
      </trkpt>
      <trkpt lat="44.03172" lon="5.99017">
        <ele>563</ele>
        <time>2021-12-21T12:48:56.000Z</time>
      </trkpt>
      <trkpt lat="44.03173" lon="5.99018">
        <ele>563</ele>
        <time>2021-12-21T12:48:57.000Z</time>
      </trkpt>
      <trkpt lat="44.03173" lon="5.99019">
        <ele>563</ele>
        <time>2021-12-21T12:48:58.000Z</time>
      </trkpt>
      <trkpt lat="44.03174" lon="5.99021">
        <ele>563</ele>
        <time>2021-12-21T12:48:59.000Z</time>
      </trkpt>
      <trkpt lat="44.03175" lon="5.99022">
        <ele>563</ele>
        <time>2021-12-21T12:49:00.000Z</time>
      </trkpt>
      <trkpt lat="44.03176" lon="5.99024">
        <ele>563</ele>
        <time>2021-12-21T12:49:01.000Z</time>
      </trkpt>
      <trkpt lat="44.03176" lon="5.99025">
        <ele>563</ele>
        <time>2021-12-21T12:49:02.000Z</time>
      </trkpt>
      <trkpt lat="44.03177" lon="5.99026">
        <ele>563</ele>
        <time>2021-12-21T12:49:03.000Z</time>
      </trkpt>
      <trkpt lat="44.03177" lon="5.99027">
        <ele>563</ele>
        <time>2021-12-21T12:49:04.000Z</time>
      </trkpt>
      <trkpt lat="44.03178" lon="5.99028">
        <ele>563</ele>
        <time>2021-12-21T12:49:05.000Z</time>
      </trkpt>
      <trkpt lat="44.03179" lon="5.99029">
        <ele>563</ele>
        <time>2021-12-21T12:49:06.000Z</time>
      </trkpt>
      <trkpt lat="44.03179" lon="5.99029">
        <ele>563</ele>
        <time>2021-12-21T12:49:07.000Z</time>
      </trkpt>
      <trkpt lat="44.0318" lon="5.9903">
        <ele>563</ele>
        <time>2021-12-21T12:49:08.000Z</time>
      </trkpt>
      <trkpt lat="44.03181" lon="5.99031">
        <ele>563</ele>
        <time>2021-12-21T12:49:09.000Z</time>
      </trkpt>
      <trkpt lat="44.03182" lon="5.99031">
        <ele>564</ele>
        <time>2021-12-21T12:49:10.000Z</time>
      </trkpt>
      <trkpt lat="44.03183" lon="5.99031">
        <ele>564</ele>
        <time>2021-12-21T12:49:11.000Z</time>
      </trkpt>
      <trkpt lat="44.03184" lon="5.99031">
        <ele>564</ele>
        <time>2021-12-21T12:49:12.000Z</time>
      </trkpt>
      <trkpt lat="44.03184" lon="5.99031">
        <ele>564</ele>
        <time>2021-12-21T12:49:13.000Z</time>
      </trkpt>
      <trkpt lat="44.03184" lon="5.99032">
        <ele>564</ele>
        <time>2021-12-21T12:49:14.000Z</time>
      </trkpt>
      <trkpt lat="44.03185" lon="5.99032">
        <ele>564</ele>
        <time>2021-12-21T12:49:15.000Z</time>
      </trkpt>
      <trkpt lat="44.03185" lon="5.99032">
        <ele>564</ele>
        <time>2021-12-21T12:49:16.000Z</time>
      </trkpt>
      <trkpt lat="44.03185" lon="5.99032">
        <ele>564</ele>
        <time>2021-12-21T12:49:17.000Z</time>
      </trkpt>
      <trkpt lat="44.03185" lon="5.99033">
        <ele>564</ele>
        <time>2021-12-21T12:49:18.000Z</time>
      </trkpt>
      <trkpt lat="44.03186" lon="5.99033">
        <ele>564</ele>
        <time>2021-12-21T12:49:19.000Z</time>
      </trkpt>
      <trkpt lat="44.03186" lon="5.99034">
        <ele>564</ele>
        <time>2021-12-21T12:49:20.000Z</time>
      </trkpt>
      <trkpt lat="44.03186" lon="5.99034">
        <ele>564</ele>
        <time>2021-12-21T12:49:21.000Z</time>
      </trkpt>
      <trkpt lat="44.03187" lon="5.99035">
        <ele>564</ele>
        <time>2021-12-21T12:49:22.000Z</time>
      </trkpt>
      <trkpt lat="44.03187" lon="5.99035">
        <ele>564</ele>
        <time>2021-12-21T12:49:23.000Z</time>
      </trkpt>
      <trkpt lat="44.03188" lon="5.99035">
        <ele>564</ele>
        <time>2021-12-21T12:49:24.000Z</time>
      </trkpt>
      <trkpt lat="44.03188" lon="5.99036">
        <ele>564</ele>
        <time>2021-12-21T12:49:25.000Z</time>
      </trkpt>
      <trkpt lat="44.03189" lon="5.99036">
        <ele>564</ele>
        <time>2021-12-21T12:49:26.000Z</time>
      </trkpt>
      <trkpt lat="44.0319" lon="5.99037">
        <ele>564</ele>
        <time>2021-12-21T12:49:27.000Z</time>
      </trkpt>
      <trkpt lat="44.03191" lon="5.99038">
        <ele>564</ele>
        <time>2021-12-21T12:49:28.000Z</time>
      </trkpt>
      <trkpt lat="44.03191" lon="5.99038">
        <ele>564</ele>
        <time>2021-12-21T12:49:29.000Z</time>
      </trkpt>
      <trkpt lat="44.03192" lon="5.99039">
        <ele>564</ele>
        <time>2021-12-21T12:49:30.000Z</time>
      </trkpt>
      <trkpt lat="44.03192" lon="5.9904">
        <ele>564</ele>
        <time>2021-12-21T12:49:31.000Z</time>
      </trkpt>
      <trkpt lat="44.03193" lon="5.99041">
        <ele>564</ele>
        <time>2021-12-21T12:49:32.000Z</time>
      </trkpt>
      <trkpt lat="44.03194" lon="5.99042">
        <ele>564</ele>
        <time>2021-12-21T12:49:33.000Z</time>
      </trkpt>
      <trkpt lat="44.03195" lon="5.99043">
        <ele>564</ele>
        <time>2021-12-21T12:49:34.000Z</time>
      </trkpt>
      <trkpt lat="44.03195" lon="5.99045">
        <ele>564</ele>
        <time>2021-12-21T12:49:35.000Z</time>
      </trkpt>
      <trkpt lat="44.03196" lon="5.99046">
        <ele>564</ele>
        <time>2021-12-21T12:49:36.000Z</time>
      </trkpt>
      <trkpt lat="44.03196" lon="5.99048">
        <ele>564</ele>
        <time>2021-12-21T12:49:37.000Z</time>
      </trkpt>
      <trkpt lat="44.03197" lon="5.99049">
        <ele>563</ele>
        <time>2021-12-21T12:49:38.000Z</time>
      </trkpt>
      <trkpt lat="44.03197" lon="5.9905">
        <ele>563</ele>
        <time>2021-12-21T12:49:39.000Z</time>
      </trkpt>
      <trkpt lat="44.03197" lon="5.99052">
        <ele>563</ele>
        <time>2021-12-21T12:49:40.000Z</time>
      </trkpt>
      <trkpt lat="44.03197" lon="5.99053">
        <ele>563</ele>
        <time>2021-12-21T12:49:41.000Z</time>
      </trkpt>
      <trkpt lat="44.03197" lon="5.99055">
        <ele>563</ele>
        <time>2021-12-21T12:49:42.000Z</time>
      </trkpt>
      <trkpt lat="44.03197" lon="5.99056">
        <ele>563</ele>
        <time>2021-12-21T12:49:43.000Z</time>
      </trkpt>
      <trkpt lat="44.03197" lon="5.99057">
        <ele>563</ele>
        <time>2021-12-21T12:49:44.000Z</time>
      </trkpt>
      <trkpt lat="44.03197" lon="5.99058">
        <ele>563</ele>
        <time>2021-12-21T12:49:45.000Z</time>
      </trkpt>
      <trkpt lat="44.03197" lon="5.99059">
        <ele>563</ele>
        <time>2021-12-21T12:49:46.000Z</time>
      </trkpt>
      <trkpt lat="44.03197" lon="5.99061">
        <ele>563</ele>
        <time>2021-12-21T12:49:47.000Z</time>
      </trkpt>
      <trkpt lat="44.03198" lon="5.99062">
        <ele>563</ele>
        <time>2021-12-21T12:49:48.000Z</time>
      </trkpt>
      <trkpt lat="44.03198" lon="5.99063">
        <ele>563</ele>
        <time>2021-12-21T12:49:49.000Z</time>
      </trkpt>
      <trkpt lat="44.03198" lon="5.99064">
        <ele>563</ele>
        <time>2021-12-21T12:49:50.000Z</time>
      </trkpt>
      <trkpt lat="44.03198" lon="5.99065">
        <ele>563</ele>
        <time>2021-12-21T12:49:51.000Z</time>
      </trkpt>
      <trkpt lat="44.03198" lon="5.99065">
        <ele>563</ele>
        <time>2021-12-21T12:49:52.000Z</time>
      </trkpt>
      <trkpt lat="44.03198" lon="5.99065">
        <ele>563</ele>
        <time>2021-12-21T12:49:53.000Z</time>
      </trkpt>
      <trkpt lat="44.03199" lon="5.99066">
        <ele>563</ele>
        <time>2021-12-21T12:49:54.000Z</time>
      </trkpt>
      <trkpt lat="44.03199" lon="5.99067">
        <ele>563</ele>
        <time>2021-12-21T12:49:55.000Z</time>
      </trkpt>
      <trkpt lat="44.032" lon="5.99067">
        <ele>563</ele>
        <time>2021-12-21T12:49:56.000Z</time>
      </trkpt>
      <trkpt lat="44.032" lon="5.99068">
        <ele>563</ele>
        <time>2021-12-21T12:49:57.000Z</time>
      </trkpt>
      <trkpt lat="44.03201" lon="5.99069">
        <ele>563</ele>
        <time>2021-12-21T12:49:58.000Z</time>
      </trkpt>
      <trkpt lat="44.03202" lon="5.99069">
        <ele>563</ele>
        <time>2021-12-21T12:49:59.000Z</time>
      </trkpt>
      <trkpt lat="44.03202" lon="5.9907">
        <ele>563</ele>
        <time>2021-12-21T12:50:00.000Z</time>
      </trkpt>
      <trkpt lat="44.03204" lon="5.99071">
        <ele>563</ele>
        <time>2021-12-21T12:50:01.000Z</time>
      </trkpt>
      <trkpt lat="44.03205" lon="5.99072">
        <ele>563</ele>
        <time>2021-12-21T12:50:02.000Z</time>
      </trkpt>
      <trkpt lat="44.03205" lon="5.99073">
        <ele>563</ele>
        <time>2021-12-21T12:50:03.000Z</time>
      </trkpt>
      <trkpt lat="44.03206" lon="5.99074">
        <ele>562</ele>
        <time>2021-12-21T12:50:04.000Z</time>
      </trkpt>
      <trkpt lat="44.03207" lon="5.99075">
        <ele>563</ele>
        <time>2021-12-21T12:50:05.000Z</time>
      </trkpt>
      <trkpt lat="44.03208" lon="5.99076">
        <ele>563</ele>
        <time>2021-12-21T12:50:06.000Z</time>
      </trkpt>
      <trkpt lat="44.03208" lon="5.99077">
        <ele>563</ele>
        <time>2021-12-21T12:50:07.000Z</time>
      </trkpt>
      <trkpt lat="44.03209" lon="5.99078">
        <ele>563</ele>
        <time>2021-12-21T12:50:08.000Z</time>
      </trkpt>
      <trkpt lat="44.03209" lon="5.99079">
        <ele>563</ele>
        <time>2021-12-21T12:50:09.000Z</time>
      </trkpt>
      <trkpt lat="44.03209" lon="5.9908">
        <ele>563</ele>
        <time>2021-12-21T12:50:10.000Z</time>
      </trkpt>
      <trkpt lat="44.03209" lon="5.99081">
        <ele>563</ele>
        <time>2021-12-21T12:50:11.000Z</time>
      </trkpt>
      <trkpt lat="44.03209" lon="5.99082">
        <ele>563</ele>
        <time>2021-12-21T12:50:12.000Z</time>
      </trkpt>
      <trkpt lat="44.03209" lon="5.99083">
        <ele>563</ele>
        <time>2021-12-21T12:50:13.000Z</time>
      </trkpt>
      <trkpt lat="44.03209" lon="5.99084">
        <ele>563</ele>
        <time>2021-12-21T12:50:14.000Z</time>
      </trkpt>
      <trkpt lat="44.03209" lon="5.99085">
        <ele>563</ele>
        <time>2021-12-21T12:50:15.000Z</time>
      </trkpt>
      <trkpt lat="44.0321" lon="5.99086">
        <ele>563</ele>
        <time>2021-12-21T12:50:16.000Z</time>
      </trkpt>
      <trkpt lat="44.0321" lon="5.99087">
        <ele>563</ele>
        <time>2021-12-21T12:50:17.000Z</time>
      </trkpt>
      <trkpt lat="44.0321" lon="5.99088">
        <ele>563</ele>
        <time>2021-12-21T12:50:18.000Z</time>
      </trkpt>
      <trkpt lat="44.0321" lon="5.99089">
        <ele>563</ele>
        <time>2021-12-21T12:50:19.000Z</time>
      </trkpt>
      <trkpt lat="44.03211" lon="5.9909">
        <ele>563</ele>
        <time>2021-12-21T12:50:20.000Z</time>
      </trkpt>
      <trkpt lat="44.03211" lon="5.99091">
        <ele>563</ele>
        <time>2021-12-21T12:50:21.000Z</time>
      </trkpt>
      <trkpt lat="44.03211" lon="5.99092">
        <ele>563</ele>
        <time>2021-12-21T12:50:22.000Z</time>
      </trkpt>
      <trkpt lat="44.03211" lon="5.99093">
        <ele>563</ele>
        <time>2021-12-21T12:50:23.000Z</time>
      </trkpt>
      <trkpt lat="44.03211" lon="5.99093">
        <ele>563</ele>
        <time>2021-12-21T12:50:24.000Z</time>
      </trkpt>
      <trkpt lat="44.03212" lon="5.99095">
        <ele>563</ele>
        <time>2021-12-21T12:50:25.000Z</time>
      </trkpt>
      <trkpt lat="44.03212" lon="5.99095">
        <ele>563</ele>
        <time>2021-12-21T12:50:26.000Z</time>
      </trkpt>
      <trkpt lat="44.03212" lon="5.99095">
        <ele>563</ele>
        <time>2021-12-21T12:50:27.000Z</time>
      </trkpt>
      <trkpt lat="44.03212" lon="5.99095">
        <ele>563</ele>
        <time>2021-12-21T12:50:28.000Z</time>
      </trkpt>
      <trkpt lat="44.03212" lon="5.99095">
        <ele>563</ele>
        <time>2021-12-21T12:50:29.000Z</time>
      </trkpt>
      <trkpt lat="44.03212" lon="5.99095">
        <ele>563</ele>
        <time>2021-12-21T12:50:30.000Z</time>
      </trkpt>
      <trkpt lat="44.03212" lon="5.99095">
        <ele>563</ele>
        <time>2021-12-21T12:50:31.000Z</time>
      </trkpt>
      <trkpt lat="44.03212" lon="5.99095">
        <ele>563</ele>
        <time>2021-12-21T12:50:32.000Z</time>
      </trkpt>
      <trkpt lat="44.03212" lon="5.99095">
        <ele>563</ele>
        <time>2021-12-21T12:50:33.000Z</time>
      </trkpt>
      <trkpt lat="44.03212" lon="5.99095">
        <ele>563</ele>
        <time>2021-12-21T12:50:34.000Z</time>
      </trkpt>
      <trkpt lat="44.03212" lon="5.99095">
        <ele>563</ele>
        <time>2021-12-21T12:50:35.000Z</time>
      </trkpt>
      <trkpt lat="44.03211" lon="5.99095">
        <ele>563</ele>
        <time>2021-12-21T12:50:36.000Z</time>
      </trkpt>
      <trkpt lat="44.03211" lon="5.99095">
        <ele>563</ele>
        <time>2021-12-21T12:50:37.000Z</time>
      </trkpt>
      <trkpt lat="44.03211" lon="5.99095">
        <ele>563</ele>
        <time>2021-12-21T12:50:38.000Z</time>
      </trkpt>
      <trkpt lat="44.03211" lon="5.99095">
        <ele>563</ele>
        <time>2021-12-21T12:50:39.000Z</time>
      </trkpt>
      <trkpt lat="44.03211" lon="5.99096">
        <ele>563</ele>
        <time>2021-12-21T12:50:40.000Z</time>
      </trkpt>
      <trkpt lat="44.03211" lon="5.99096">
        <ele>563</ele>
        <time>2021-12-21T12:50:41.000Z</time>
      </trkpt>
      <trkpt lat="44.03211" lon="5.99096">
        <ele>563</ele>
        <time>2021-12-21T12:50:42.000Z</time>
      </trkpt>
      <trkpt lat="44.03211" lon="5.99096">
        <ele>563</ele>
        <time>2021-12-21T12:50:43.000Z</time>
      </trkpt>
      <trkpt lat="44.03211" lon="5.99096">
        <ele>563</ele>
        <time>2021-12-21T12:50:44.000Z</time>
      </trkpt>
      <trkpt lat="44.03211" lon="5.99096">
        <ele>563</ele>
        <time>2021-12-21T12:50:45.000Z</time>
      </trkpt>
      <trkpt lat="44.03211" lon="5.99096">
        <ele>563</ele>
        <time>2021-12-21T12:50:46.000Z</time>
      </trkpt>
      <trkpt lat="44.03211" lon="5.99096">
        <ele>562</ele>
        <time>2021-12-21T12:50:47.000Z</time>
      </trkpt>
      <trkpt lat="44.03211" lon="5.99096">
        <ele>562</ele>
        <time>2021-12-21T12:50:48.000Z</time>
      </trkpt>
      <trkpt lat="44.03211" lon="5.99096">
        <ele>562</ele>
        <time>2021-12-21T12:50:49.000Z</time>
      </trkpt>
      <trkpt lat="44.03211" lon="5.99096">
        <ele>562</ele>
        <time>2021-12-21T12:50:50.000Z</time>
      </trkpt>
      <trkpt lat="44.03211" lon="5.99096">
        <ele>562</ele>
        <time>2021-12-21T12:50:51.000Z</time>
      </trkpt>
      <trkpt lat="44.03211" lon="5.99096">
        <ele>562</ele>
        <time>2021-12-21T12:50:52.000Z</time>
      </trkpt>
      <trkpt lat="44.03211" lon="5.99096">
        <ele>562</ele>
        <time>2021-12-21T12:50:53.000Z</time>
      </trkpt>
      <trkpt lat="44.03211" lon="5.99096">
        <ele>562</ele>
        <time>2021-12-21T12:50:54.000Z</time>
      </trkpt>
      <trkpt lat="44.03211" lon="5.99096">
        <ele>562</ele>
        <time>2021-12-21T12:50:55.000Z</time>
      </trkpt>
      <trkpt lat="44.03211" lon="5.99096">
        <ele>562</ele>
        <time>2021-12-21T12:50:56.000Z</time>
      </trkpt>
      <trkpt lat="44.03211" lon="5.99096">
        <ele>562</ele>
        <time>2021-12-21T12:50:57.000Z</time>
      </trkpt>
      <trkpt lat="44.03211" lon="5.99096">
        <ele>562</ele>
        <time>2021-12-21T12:50:58.000Z</time>
      </trkpt>
      <trkpt lat="44.03211" lon="5.99096">
        <ele>562</ele>
        <time>2021-12-21T12:50:59.000Z</time>
      </trkpt>
      <trkpt lat="44.03211" lon="5.99097">
        <ele>562</ele>
        <time>2021-12-21T12:51:00.000Z</time>
      </trkpt>
      <trkpt lat="44.03212" lon="5.99098">
        <ele>562</ele>
        <time>2021-12-21T12:51:01.000Z</time>
      </trkpt>
      <trkpt lat="44.03212" lon="5.99099">
        <ele>562</ele>
        <time>2021-12-21T12:51:02.000Z</time>
      </trkpt>
      <trkpt lat="44.03213" lon="5.991">
        <ele>562</ele>
        <time>2021-12-21T12:51:03.000Z</time>
      </trkpt>
      <trkpt lat="44.03213" lon="5.99101">
        <ele>562</ele>
        <time>2021-12-21T12:51:04.000Z</time>
      </trkpt>
      <trkpt lat="44.03214" lon="5.99102">
        <ele>562</ele>
        <time>2021-12-21T12:51:05.000Z</time>
      </trkpt>
      <trkpt lat="44.03214" lon="5.99103">
        <ele>562</ele>
        <time>2021-12-21T12:51:06.000Z</time>
      </trkpt>
      <trkpt lat="44.03215" lon="5.99104">
        <ele>562</ele>
        <time>2021-12-21T12:51:07.000Z</time>
      </trkpt>
      <trkpt lat="44.03215" lon="5.99104">
        <ele>562</ele>
        <time>2021-12-21T12:51:08.000Z</time>
      </trkpt>
      <trkpt lat="44.03215" lon="5.99105">
        <ele>562</ele>
        <time>2021-12-21T12:51:09.000Z</time>
      </trkpt>
      <trkpt lat="44.03215" lon="5.99107">
        <ele>563</ele>
        <time>2021-12-21T12:51:10.000Z</time>
      </trkpt>
      <trkpt lat="44.03216" lon="5.99108">
        <ele>563</ele>
        <time>2021-12-21T12:51:11.000Z</time>
      </trkpt>
      <trkpt lat="44.03216" lon="5.99108">
        <ele>563</ele>
        <time>2021-12-21T12:51:12.000Z</time>
      </trkpt>
      <trkpt lat="44.03217" lon="5.99109">
        <ele>563</ele>
        <time>2021-12-21T12:51:13.000Z</time>
      </trkpt>
      <trkpt lat="44.03217" lon="5.9911">
        <ele>563</ele>
        <time>2021-12-21T12:51:14.000Z</time>
      </trkpt>
      <trkpt lat="44.03218" lon="5.99112">
        <ele>563</ele>
        <time>2021-12-21T12:51:15.000Z</time>
      </trkpt>
      <trkpt lat="44.03218" lon="5.99113">
        <ele>563</ele>
        <time>2021-12-21T12:51:16.000Z</time>
      </trkpt>
      <trkpt lat="44.03219" lon="5.99115">
        <ele>563</ele>
        <time>2021-12-21T12:51:17.000Z</time>
      </trkpt>
      <trkpt lat="44.0322" lon="5.99116">
        <ele>563</ele>
        <time>2021-12-21T12:51:18.000Z</time>
      </trkpt>
      <trkpt lat="44.03221" lon="5.99117">
        <ele>563</ele>
        <time>2021-12-21T12:51:19.000Z</time>
      </trkpt>
      <trkpt lat="44.03221" lon="5.99118">
        <ele>563</ele>
        <time>2021-12-21T12:51:20.000Z</time>
      </trkpt>
      <trkpt lat="44.03221" lon="5.99119">
        <ele>563</ele>
        <time>2021-12-21T12:51:21.000Z</time>
      </trkpt>
      <trkpt lat="44.03221" lon="5.9912">
        <ele>563</ele>
        <time>2021-12-21T12:51:22.000Z</time>
      </trkpt>
      <trkpt lat="44.03222" lon="5.99121">
        <ele>563</ele>
        <time>2021-12-21T12:51:23.000Z</time>
      </trkpt>
      <trkpt lat="44.03222" lon="5.99122">
        <ele>563</ele>
        <time>2021-12-21T12:51:24.000Z</time>
      </trkpt>
      <trkpt lat="44.03223" lon="5.99123">
        <ele>563</ele>
        <time>2021-12-21T12:51:25.000Z</time>
      </trkpt>
      <trkpt lat="44.03223" lon="5.99125">
        <ele>563</ele>
        <time>2021-12-21T12:51:26.000Z</time>
      </trkpt>
      <trkpt lat="44.03223" lon="5.99126">
        <ele>563</ele>
        <time>2021-12-21T12:51:27.000Z</time>
      </trkpt>
      <trkpt lat="44.03223" lon="5.99128">
        <ele>563</ele>
        <time>2021-12-21T12:51:28.000Z</time>
      </trkpt>
      <trkpt lat="44.03224" lon="5.99129">
        <ele>563</ele>
        <time>2021-12-21T12:51:29.000Z</time>
      </trkpt>
      <trkpt lat="44.03224" lon="5.9913">
        <ele>563</ele>
        <time>2021-12-21T12:51:30.000Z</time>
      </trkpt>
      <trkpt lat="44.03225" lon="5.99131">
        <ele>563</ele>
        <time>2021-12-21T12:51:31.000Z</time>
      </trkpt>
      <trkpt lat="44.03226" lon="5.99133">
        <ele>563</ele>
        <time>2021-12-21T12:51:32.000Z</time>
      </trkpt>
      <trkpt lat="44.03227" lon="5.99134">
        <ele>563</ele>
        <time>2021-12-21T12:51:33.000Z</time>
      </trkpt>
      <trkpt lat="44.03228" lon="5.99135">
        <ele>564</ele>
        <time>2021-12-21T12:51:34.000Z</time>
      </trkpt>
      <trkpt lat="44.0323" lon="5.99135">
        <ele>564</ele>
        <time>2021-12-21T12:51:35.000Z</time>
      </trkpt>
      <trkpt lat="44.03231" lon="5.99136">
        <ele>564</ele>
        <time>2021-12-21T12:51:36.000Z</time>
      </trkpt>
      <trkpt lat="44.03231" lon="5.99137">
        <ele>564</ele>
        <time>2021-12-21T12:51:37.000Z</time>
      </trkpt>
      <trkpt lat="44.03232" lon="5.99139">
        <ele>564</ele>
        <time>2021-12-21T12:51:38.000Z</time>
      </trkpt>
      <trkpt lat="44.03233" lon="5.9914">
        <ele>564</ele>
        <time>2021-12-21T12:51:39.000Z</time>
      </trkpt>
      <trkpt lat="44.03233" lon="5.9914">
        <ele>564</ele>
        <time>2021-12-21T12:51:40.000Z</time>
      </trkpt>
      <trkpt lat="44.03234" lon="5.99141">
        <ele>564</ele>
        <time>2021-12-21T12:51:41.000Z</time>
      </trkpt>
      <trkpt lat="44.03234" lon="5.99142">
        <ele>564</ele>
        <time>2021-12-21T12:51:42.000Z</time>
      </trkpt>
      <trkpt lat="44.03235" lon="5.99143">
        <ele>564</ele>
        <time>2021-12-21T12:51:43.000Z</time>
      </trkpt>
      <trkpt lat="44.03236" lon="5.99144">
        <ele>564</ele>
        <time>2021-12-21T12:51:44.000Z</time>
      </trkpt>
      <trkpt lat="44.03236" lon="5.99146">
        <ele>564</ele>
        <time>2021-12-21T12:51:45.000Z</time>
      </trkpt>
      <trkpt lat="44.03237" lon="5.99147">
        <ele>564</ele>
        <time>2021-12-21T12:51:46.000Z</time>
      </trkpt>
      <trkpt lat="44.03237" lon="5.99149">
        <ele>564</ele>
        <time>2021-12-21T12:51:47.000Z</time>
      </trkpt>
      <trkpt lat="44.03238" lon="5.9915">
        <ele>564</ele>
        <time>2021-12-21T12:51:48.000Z</time>
      </trkpt>
      <trkpt lat="44.03239" lon="5.99151">
        <ele>564</ele>
        <time>2021-12-21T12:51:49.000Z</time>
      </trkpt>
      <trkpt lat="44.0324" lon="5.99153">
        <ele>564</ele>
        <time>2021-12-21T12:51:50.000Z</time>
      </trkpt>
      <trkpt lat="44.0324" lon="5.99154">
        <ele>564</ele>
        <time>2021-12-21T12:51:51.000Z</time>
      </trkpt>
      <trkpt lat="44.03241" lon="5.99156">
        <ele>564</ele>
        <time>2021-12-21T12:51:52.000Z</time>
      </trkpt>
      <trkpt lat="44.03241" lon="5.99157">
        <ele>564</ele>
        <time>2021-12-21T12:51:53.000Z</time>
      </trkpt>
      <trkpt lat="44.03241" lon="5.99158">
        <ele>564</ele>
        <time>2021-12-21T12:51:54.000Z</time>
      </trkpt>
      <trkpt lat="44.03241" lon="5.99159">
        <ele>564</ele>
        <time>2021-12-21T12:51:55.000Z</time>
      </trkpt>
      <trkpt lat="44.03241" lon="5.9916">
        <ele>564</ele>
        <time>2021-12-21T12:51:56.000Z</time>
      </trkpt>
      <trkpt lat="44.03241" lon="5.99161">
        <ele>564</ele>
        <time>2021-12-21T12:51:57.000Z</time>
      </trkpt>
      <trkpt lat="44.03241" lon="5.99162">
        <ele>564</ele>
        <time>2021-12-21T12:51:58.000Z</time>
      </trkpt>
      <trkpt lat="44.03241" lon="5.99162">
        <ele>564</ele>
        <time>2021-12-21T12:51:59.000Z</time>
      </trkpt>
      <trkpt lat="44.03241" lon="5.99163">
        <ele>564</ele>
        <time>2021-12-21T12:52:00.000Z</time>
      </trkpt>
      <trkpt lat="44.03242" lon="5.99164">
        <ele>564</ele>
        <time>2021-12-21T12:52:01.000Z</time>
      </trkpt>
      <trkpt lat="44.03242" lon="5.99164">
        <ele>564</ele>
        <time>2021-12-21T12:52:02.000Z</time>
      </trkpt>
      <trkpt lat="44.03243" lon="5.99165">
        <ele>564</ele>
        <time>2021-12-21T12:52:03.000Z</time>
      </trkpt>
      <trkpt lat="44.03243" lon="5.99165">
        <ele>564</ele>
        <time>2021-12-21T12:52:04.000Z</time>
      </trkpt>
      <trkpt lat="44.03243" lon="5.99166">
        <ele>563</ele>
        <time>2021-12-21T12:52:05.000Z</time>
      </trkpt>
      <trkpt lat="44.03243" lon="5.99166">
        <ele>563</ele>
        <time>2021-12-21T12:52:06.000Z</time>
      </trkpt>
      <trkpt lat="44.03243" lon="5.99166">
        <ele>563</ele>
        <time>2021-12-21T12:52:07.000Z</time>
      </trkpt>
      <trkpt lat="44.03243" lon="5.99166">
        <ele>563</ele>
        <time>2021-12-21T12:52:08.000Z</time>
      </trkpt>
      <trkpt lat="44.03244" lon="5.99166">
        <ele>563</ele>
        <time>2021-12-21T12:52:09.000Z</time>
      </trkpt>
      <trkpt lat="44.03244" lon="5.99166">
        <ele>563</ele>
        <time>2021-12-21T12:52:10.000Z</time>
      </trkpt>
      <trkpt lat="44.03245" lon="5.99166">
        <ele>563</ele>
        <time>2021-12-21T12:52:11.000Z</time>
      </trkpt>
      <trkpt lat="44.03245" lon="5.99167">
        <ele>563</ele>
        <time>2021-12-21T12:52:12.000Z</time>
      </trkpt>
      <trkpt lat="44.03246" lon="5.99168">
        <ele>562</ele>
        <time>2021-12-21T12:52:13.000Z</time>
      </trkpt>
      <trkpt lat="44.03246" lon="5.99168">
        <ele>562</ele>
        <time>2021-12-21T12:52:14.000Z</time>
      </trkpt>
      <trkpt lat="44.03247" lon="5.99168">
        <ele>562</ele>
        <time>2021-12-21T12:52:15.000Z</time>
      </trkpt>
      <trkpt lat="44.03247" lon="5.99168">
        <ele>562</ele>
        <time>2021-12-21T12:52:16.000Z</time>
      </trkpt>
      <trkpt lat="44.03248" lon="5.99168">
        <ele>562</ele>
        <time>2021-12-21T12:52:17.000Z</time>
      </trkpt>
      <trkpt lat="44.03248" lon="5.99167">
        <ele>562</ele>
        <time>2021-12-21T12:52:18.000Z</time>
      </trkpt>
      <trkpt lat="44.03249" lon="5.99167">
        <ele>561</ele>
        <time>2021-12-21T12:52:19.000Z</time>
      </trkpt>
      <trkpt lat="44.0325" lon="5.99167">
        <ele>561</ele>
        <time>2021-12-21T12:52:20.000Z</time>
      </trkpt>
      <trkpt lat="44.03251" lon="5.99166">
        <ele>561</ele>
        <time>2021-12-21T12:52:21.000Z</time>
      </trkpt>
      <trkpt lat="44.03251" lon="5.99166">
        <ele>561</ele>
        <time>2021-12-21T12:52:22.000Z</time>
      </trkpt>
      <trkpt lat="44.03252" lon="5.99166">
        <ele>561</ele>
        <time>2021-12-21T12:52:23.000Z</time>
      </trkpt>
      <trkpt lat="44.03252" lon="5.99167">
        <ele>561</ele>
        <time>2021-12-21T12:52:24.000Z</time>
      </trkpt>
      <trkpt lat="44.03253" lon="5.99167">
        <ele>561</ele>
        <time>2021-12-21T12:52:25.000Z</time>
      </trkpt>
      <trkpt lat="44.03253" lon="5.99167">
        <ele>561</ele>
        <time>2021-12-21T12:52:26.000Z</time>
      </trkpt>
      <trkpt lat="44.03254" lon="5.99167">
        <ele>561</ele>
        <time>2021-12-21T12:52:27.000Z</time>
      </trkpt>
      <trkpt lat="44.03254" lon="5.99166">
        <ele>561</ele>
        <time>2021-12-21T12:52:28.000Z</time>
      </trkpt>
      <trkpt lat="44.03255" lon="5.99166">
        <ele>560</ele>
        <time>2021-12-21T12:52:29.000Z</time>
      </trkpt>
      <trkpt lat="44.03255" lon="5.99165">
        <ele>560</ele>
        <time>2021-12-21T12:52:30.000Z</time>
      </trkpt>
      <trkpt lat="44.03256" lon="5.99165">
        <ele>560</ele>
        <time>2021-12-21T12:52:31.000Z</time>
      </trkpt>
      <trkpt lat="44.03256" lon="5.99164">
        <ele>560</ele>
        <time>2021-12-21T12:52:32.000Z</time>
      </trkpt>
      <trkpt lat="44.03256" lon="5.99163">
        <ele>560</ele>
        <time>2021-12-21T12:52:33.000Z</time>
      </trkpt>
      <trkpt lat="44.03256" lon="5.99163">
        <ele>560</ele>
        <time>2021-12-21T12:52:34.000Z</time>
      </trkpt>
      <trkpt lat="44.03256" lon="5.99163">
        <ele>560</ele>
        <time>2021-12-21T12:52:35.000Z</time>
      </trkpt>
      <trkpt lat="44.03255" lon="5.99163">
        <ele>560</ele>
        <time>2021-12-21T12:52:36.000Z</time>
      </trkpt>
      <trkpt lat="44.03255" lon="5.99163">
        <ele>559</ele>
        <time>2021-12-21T12:52:37.000Z</time>
      </trkpt>
      <trkpt lat="44.03255" lon="5.99163">
        <ele>559</ele>
        <time>2021-12-21T12:52:38.000Z</time>
      </trkpt>
      <trkpt lat="44.03255" lon="5.99162">
        <ele>559</ele>
        <time>2021-12-21T12:52:39.000Z</time>
      </trkpt>
      <trkpt lat="44.03255" lon="5.99162">
        <ele>559</ele>
        <time>2021-12-21T12:52:40.000Z</time>
      </trkpt>
      <trkpt lat="44.03255" lon="5.99162">
        <ele>559</ele>
        <time>2021-12-21T12:52:41.000Z</time>
      </trkpt>
      <trkpt lat="44.03255" lon="5.99162">
        <ele>558</ele>
        <time>2021-12-21T12:52:42.000Z</time>
      </trkpt>
      <trkpt lat="44.03254" lon="5.99162">
        <ele>558</ele>
        <time>2021-12-21T12:52:43.000Z</time>
      </trkpt>
      <trkpt lat="44.03254" lon="5.99162">
        <ele>558</ele>
        <time>2021-12-21T12:52:44.000Z</time>
      </trkpt>
      <trkpt lat="44.03254" lon="5.99162">
        <ele>558</ele>
        <time>2021-12-21T12:52:45.000Z</time>
      </trkpt>
      <trkpt lat="44.03254" lon="5.99162">
        <ele>558</ele>
        <time>2021-12-21T12:52:46.000Z</time>
      </trkpt>
      <trkpt lat="44.03254" lon="5.99162">
        <ele>558</ele>
        <time>2021-12-21T12:52:47.000Z</time>
      </trkpt>
      <trkpt lat="44.03254" lon="5.99162">
        <ele>558</ele>
        <time>2021-12-21T12:52:48.000Z</time>
      </trkpt>
      <trkpt lat="44.03253" lon="5.99162">
        <ele>558</ele>
        <time>2021-12-21T12:52:49.000Z</time>
      </trkpt>
      <trkpt lat="44.03253" lon="5.99162">
        <ele>557</ele>
        <time>2021-12-21T12:52:50.000Z</time>
      </trkpt>
      <trkpt lat="44.03253" lon="5.99162">
        <ele>557</ele>
        <time>2021-12-21T12:52:51.000Z</time>
      </trkpt>
      <trkpt lat="44.03253" lon="5.99161">
        <ele>557</ele>
        <time>2021-12-21T12:52:52.000Z</time>
      </trkpt>
      <trkpt lat="44.03253" lon="5.99161">
        <ele>557</ele>
        <time>2021-12-21T12:52:53.000Z</time>
      </trkpt>
      <trkpt lat="44.03253" lon="5.99161">
        <ele>557</ele>
        <time>2021-12-21T12:52:54.000Z</time>
      </trkpt>
      <trkpt lat="44.03253" lon="5.99161">
        <ele>557</ele>
        <time>2021-12-21T12:52:55.000Z</time>
      </trkpt>
      <trkpt lat="44.03253" lon="5.99162">
        <ele>557</ele>
        <time>2021-12-21T12:52:56.000Z</time>
      </trkpt>
      <trkpt lat="44.03253" lon="5.99162">
        <ele>557</ele>
        <time>2021-12-21T12:52:57.000Z</time>
      </trkpt>
      <trkpt lat="44.03253" lon="5.99162">
        <ele>557</ele>
        <time>2021-12-21T12:52:58.000Z</time>
      </trkpt>
      <trkpt lat="44.03253" lon="5.99163">
        <ele>557</ele>
        <time>2021-12-21T12:52:59.000Z</time>
      </trkpt>
      <trkpt lat="44.03252" lon="5.99163">
        <ele>557</ele>
        <time>2021-12-21T12:53:00.000Z</time>
      </trkpt>
      <trkpt lat="44.03252" lon="5.99164">
        <ele>557</ele>
        <time>2021-12-21T12:53:01.000Z</time>
      </trkpt>
      <trkpt lat="44.03252" lon="5.99165">
        <ele>557</ele>
        <time>2021-12-21T12:53:02.000Z</time>
      </trkpt>
      <trkpt lat="44.03252" lon="5.99166">
        <ele>557</ele>
        <time>2021-12-21T12:53:03.000Z</time>
      </trkpt>
      <trkpt lat="44.03251" lon="5.99167">
        <ele>557</ele>
        <time>2021-12-21T12:53:04.000Z</time>
      </trkpt>
      <trkpt lat="44.03251" lon="5.99168">
        <ele>557</ele>
        <time>2021-12-21T12:53:05.000Z</time>
      </trkpt>
      <trkpt lat="44.0325" lon="5.9917">
        <ele>557</ele>
        <time>2021-12-21T12:53:06.000Z</time>
      </trkpt>
      <trkpt lat="44.0325" lon="5.99171">
        <ele>557</ele>
        <time>2021-12-21T12:53:07.000Z</time>
      </trkpt>
      <trkpt lat="44.03249" lon="5.99171">
        <ele>557</ele>
        <time>2021-12-21T12:53:08.000Z</time>
      </trkpt>
      <trkpt lat="44.03249" lon="5.99173">
        <ele>556</ele>
        <time>2021-12-21T12:53:09.000Z</time>
      </trkpt>
      <trkpt lat="44.03249" lon="5.99174">
        <ele>556</ele>
        <time>2021-12-21T12:53:10.000Z</time>
      </trkpt>
      <trkpt lat="44.03249" lon="5.99175">
        <ele>556</ele>
        <time>2021-12-21T12:53:11.000Z</time>
      </trkpt>
      <trkpt lat="44.03249" lon="5.99177">
        <ele>556</ele>
        <time>2021-12-21T12:53:12.000Z</time>
      </trkpt>
      <trkpt lat="44.03249" lon="5.99178">
        <ele>556</ele>
        <time>2021-12-21T12:53:13.000Z</time>
      </trkpt>
      <trkpt lat="44.03249" lon="5.99179">
        <ele>556</ele>
        <time>2021-12-21T12:53:14.000Z</time>
      </trkpt>
      <trkpt lat="44.0325" lon="5.9918">
        <ele>556</ele>
        <time>2021-12-21T12:53:15.000Z</time>
      </trkpt>
      <trkpt lat="44.03251" lon="5.99182">
        <ele>555</ele>
        <time>2021-12-21T12:53:16.000Z</time>
      </trkpt>
      <trkpt lat="44.03252" lon="5.99183">
        <ele>555</ele>
        <time>2021-12-21T12:53:17.000Z</time>
      </trkpt>
      <trkpt lat="44.03253" lon="5.99185">
        <ele>555</ele>
        <time>2021-12-21T12:53:18.000Z</time>
      </trkpt>
      <trkpt lat="44.03254" lon="5.99186">
        <ele>555</ele>
        <time>2021-12-21T12:53:19.000Z</time>
      </trkpt>
      <trkpt lat="44.03255" lon="5.99188">
        <ele>555</ele>
        <time>2021-12-21T12:53:20.000Z</time>
      </trkpt>
      <trkpt lat="44.03255" lon="5.99189">
        <ele>555</ele>
        <time>2021-12-21T12:53:21.000Z</time>
      </trkpt>
      <trkpt lat="44.03256" lon="5.9919">
        <ele>555</ele>
        <time>2021-12-21T12:53:22.000Z</time>
      </trkpt>
      <trkpt lat="44.03256" lon="5.99191">
        <ele>555</ele>
        <time>2021-12-21T12:53:23.000Z</time>
      </trkpt>
      <trkpt lat="44.03257" lon="5.99191">
        <ele>555</ele>
        <time>2021-12-21T12:53:24.000Z</time>
      </trkpt>
      <trkpt lat="44.03258" lon="5.99191">
        <ele>555</ele>
        <time>2021-12-21T12:53:25.000Z</time>
      </trkpt>
      <trkpt lat="44.03258" lon="5.99192">
        <ele>555</ele>
        <time>2021-12-21T12:53:26.000Z</time>
      </trkpt>
      <trkpt lat="44.03259" lon="5.99193">
        <ele>555</ele>
        <time>2021-12-21T12:53:27.000Z</time>
      </trkpt>
      <trkpt lat="44.03259" lon="5.99194">
        <ele>555</ele>
        <time>2021-12-21T12:53:28.000Z</time>
      </trkpt>
      <trkpt lat="44.0326" lon="5.99196">
        <ele>555</ele>
        <time>2021-12-21T12:53:29.000Z</time>
      </trkpt>
      <trkpt lat="44.0326" lon="5.99197">
        <ele>555</ele>
        <time>2021-12-21T12:53:30.000Z</time>
      </trkpt>
      <trkpt lat="44.03261" lon="5.99198">
        <ele>555</ele>
        <time>2021-12-21T12:53:31.000Z</time>
      </trkpt>
      <trkpt lat="44.03261" lon="5.99199">
        <ele>555</ele>
        <time>2021-12-21T12:53:32.000Z</time>
      </trkpt>
      <trkpt lat="44.03261" lon="5.99201">
        <ele>555</ele>
        <time>2021-12-21T12:53:33.000Z</time>
      </trkpt>
      <trkpt lat="44.03261" lon="5.99202">
        <ele>555</ele>
        <time>2021-12-21T12:53:34.000Z</time>
      </trkpt>
      <trkpt lat="44.03261" lon="5.99204">
        <ele>555</ele>
        <time>2021-12-21T12:53:35.000Z</time>
      </trkpt>
      <trkpt lat="44.03261" lon="5.99206">
        <ele>555</ele>
        <time>2021-12-21T12:53:36.000Z</time>
      </trkpt>
      <trkpt lat="44.03261" lon="5.99207">
        <ele>555</ele>
        <time>2021-12-21T12:53:37.000Z</time>
      </trkpt>
      <trkpt lat="44.03262" lon="5.99209">
        <ele>555</ele>
        <time>2021-12-21T12:53:38.000Z</time>
      </trkpt>
      <trkpt lat="44.03262" lon="5.9921">
        <ele>555</ele>
        <time>2021-12-21T12:53:39.000Z</time>
      </trkpt>
      <trkpt lat="44.03263" lon="5.99211">
        <ele>555</ele>
        <time>2021-12-21T12:53:40.000Z</time>
      </trkpt>
      <trkpt lat="44.03263" lon="5.99212">
        <ele>555</ele>
        <time>2021-12-21T12:53:41.000Z</time>
      </trkpt>
      <trkpt lat="44.03264" lon="5.99213">
        <ele>555</ele>
        <time>2021-12-21T12:53:42.000Z</time>
      </trkpt>
      <trkpt lat="44.03265" lon="5.99214">
        <ele>555</ele>
        <time>2021-12-21T12:53:43.000Z</time>
      </trkpt>
      <trkpt lat="44.03266" lon="5.99215">
        <ele>555</ele>
        <time>2021-12-21T12:53:44.000Z</time>
      </trkpt>
      <trkpt lat="44.03267" lon="5.99216">
        <ele>555</ele>
        <time>2021-12-21T12:53:45.000Z</time>
      </trkpt>
      <trkpt lat="44.03268" lon="5.99217">
        <ele>555</ele>
        <time>2021-12-21T12:53:46.000Z</time>
      </trkpt>
      <trkpt lat="44.03269" lon="5.99218">
        <ele>555</ele>
        <time>2021-12-21T12:53:47.000Z</time>
      </trkpt>
      <trkpt lat="44.03269" lon="5.99219">
        <ele>555</ele>
        <time>2021-12-21T12:53:48.000Z</time>
      </trkpt>
      <trkpt lat="44.0327" lon="5.9922">
        <ele>555</ele>
        <time>2021-12-21T12:53:49.000Z</time>
      </trkpt>
      <trkpt lat="44.0327" lon="5.99221">
        <ele>555</ele>
        <time>2021-12-21T12:53:50.000Z</time>
      </trkpt>
      <trkpt lat="44.03271" lon="5.99222">
        <ele>555</ele>
        <time>2021-12-21T12:53:51.000Z</time>
      </trkpt>
      <trkpt lat="44.03271" lon="5.99223">
        <ele>555</ele>
        <time>2021-12-21T12:53:52.000Z</time>
      </trkpt>
      <trkpt lat="44.03271" lon="5.99223">
        <ele>555</ele>
        <time>2021-12-21T12:53:53.000Z</time>
      </trkpt>
      <trkpt lat="44.03272" lon="5.99225">
        <ele>555</ele>
        <time>2021-12-21T12:53:54.000Z</time>
      </trkpt>
      <trkpt lat="44.03272" lon="5.99226">
        <ele>555</ele>
        <time>2021-12-21T12:53:55.000Z</time>
      </trkpt>
      <trkpt lat="44.03272" lon="5.99227">
        <ele>555</ele>
        <time>2021-12-21T12:53:56.000Z</time>
      </trkpt>
      <trkpt lat="44.03272" lon="5.99228">
        <ele>555</ele>
        <time>2021-12-21T12:53:57.000Z</time>
      </trkpt>
      <trkpt lat="44.03272" lon="5.99229">
        <ele>555</ele>
        <time>2021-12-21T12:53:58.000Z</time>
      </trkpt>
      <trkpt lat="44.03272" lon="5.9923">
        <ele>555</ele>
        <time>2021-12-21T12:53:59.000Z</time>
      </trkpt>
      <trkpt lat="44.03273" lon="5.99231">
        <ele>555</ele>
        <time>2021-12-21T12:54:00.000Z</time>
      </trkpt>
      <trkpt lat="44.03273" lon="5.99232">
        <ele>555</ele>
        <time>2021-12-21T12:54:01.000Z</time>
      </trkpt>
      <trkpt lat="44.03273" lon="5.99234">
        <ele>555</ele>
        <time>2021-12-21T12:54:02.000Z</time>
      </trkpt>
      <trkpt lat="44.03274" lon="5.99235">
        <ele>555</ele>
        <time>2021-12-21T12:54:03.000Z</time>
      </trkpt>
      <trkpt lat="44.03274" lon="5.99237">
        <ele>554</ele>
        <time>2021-12-21T12:54:04.000Z</time>
      </trkpt>
      <trkpt lat="44.03275" lon="5.99238">
        <ele>554</ele>
        <time>2021-12-21T12:54:05.000Z</time>
      </trkpt>
      <trkpt lat="44.03275" lon="5.99239">
        <ele>554</ele>
        <time>2021-12-21T12:54:06.000Z</time>
      </trkpt>
      <trkpt lat="44.03276" lon="5.9924">
        <ele>554</ele>
        <time>2021-12-21T12:54:07.000Z</time>
      </trkpt>
      <trkpt lat="44.03277" lon="5.99241">
        <ele>554</ele>
        <time>2021-12-21T12:54:08.000Z</time>
      </trkpt>
      <trkpt lat="44.03277" lon="5.99242">
        <ele>554</ele>
        <time>2021-12-21T12:54:09.000Z</time>
      </trkpt>
      <trkpt lat="44.03278" lon="5.99243">
        <ele>554</ele>
        <time>2021-12-21T12:54:10.000Z</time>
      </trkpt>
      <trkpt lat="44.03278" lon="5.99243">
        <ele>554</ele>
        <time>2021-12-21T12:54:11.000Z</time>
      </trkpt>
      <trkpt lat="44.03279" lon="5.99244">
        <ele>554</ele>
        <time>2021-12-21T12:54:12.000Z</time>
      </trkpt>
      <trkpt lat="44.0328" lon="5.99244">
        <ele>554</ele>
        <time>2021-12-21T12:54:13.000Z</time>
      </trkpt>
      <trkpt lat="44.03281" lon="5.99245">
        <ele>554</ele>
        <time>2021-12-21T12:54:14.000Z</time>
      </trkpt>
      <trkpt lat="44.03282" lon="5.99245">
        <ele>554</ele>
        <time>2021-12-21T12:54:15.000Z</time>
      </trkpt>
      <trkpt lat="44.03282" lon="5.99246">
        <ele>554</ele>
        <time>2021-12-21T12:54:16.000Z</time>
      </trkpt>
      <trkpt lat="44.03283" lon="5.99247">
        <ele>554</ele>
        <time>2021-12-21T12:54:17.000Z</time>
      </trkpt>
      <trkpt lat="44.03283" lon="5.99247">
        <ele>554</ele>
        <time>2021-12-21T12:54:18.000Z</time>
      </trkpt>
      <trkpt lat="44.03283" lon="5.99248">
        <ele>554</ele>
        <time>2021-12-21T12:54:19.000Z</time>
      </trkpt>
      <trkpt lat="44.03284" lon="5.99249">
        <ele>554</ele>
        <time>2021-12-21T12:54:20.000Z</time>
      </trkpt>
      <trkpt lat="44.03284" lon="5.9925">
        <ele>554</ele>
        <time>2021-12-21T12:54:21.000Z</time>
      </trkpt>
      <trkpt lat="44.03284" lon="5.99251">
        <ele>555</ele>
        <time>2021-12-21T12:54:22.000Z</time>
      </trkpt>
      <trkpt lat="44.03285" lon="5.99252">
        <ele>555</ele>
        <time>2021-12-21T12:54:23.000Z</time>
      </trkpt>
      <trkpt lat="44.03285" lon="5.99253">
        <ele>555</ele>
        <time>2021-12-21T12:54:24.000Z</time>
      </trkpt>
      <trkpt lat="44.03286" lon="5.99254">
        <ele>555</ele>
        <time>2021-12-21T12:54:25.000Z</time>
      </trkpt>
      <trkpt lat="44.03286" lon="5.99255">
        <ele>555</ele>
        <time>2021-12-21T12:54:26.000Z</time>
      </trkpt>
      <trkpt lat="44.03287" lon="5.99256">
        <ele>555</ele>
        <time>2021-12-21T12:54:27.000Z</time>
      </trkpt>
      <trkpt lat="44.03287" lon="5.99257">
        <ele>555</ele>
        <time>2021-12-21T12:54:28.000Z</time>
      </trkpt>
      <trkpt lat="44.03287" lon="5.99259">
        <ele>555</ele>
        <time>2021-12-21T12:54:29.000Z</time>
      </trkpt>
      <trkpt lat="44.03288" lon="5.99259">
        <ele>556</ele>
        <time>2021-12-21T12:54:30.000Z</time>
      </trkpt>
      <trkpt lat="44.03288" lon="5.9926">
        <ele>556</ele>
        <time>2021-12-21T12:54:31.000Z</time>
      </trkpt>
      <trkpt lat="44.03289" lon="5.99261">
        <ele>556</ele>
        <time>2021-12-21T12:54:32.000Z</time>
      </trkpt>
      <trkpt lat="44.03289" lon="5.99262">
        <ele>556</ele>
        <time>2021-12-21T12:54:33.000Z</time>
      </trkpt>
      <trkpt lat="44.03289" lon="5.99262">
        <ele>556</ele>
        <time>2021-12-21T12:54:34.000Z</time>
      </trkpt>
      <trkpt lat="44.03289" lon="5.99263">
        <ele>556</ele>
        <time>2021-12-21T12:54:35.000Z</time>
      </trkpt>
      <trkpt lat="44.0329" lon="5.99263">
        <ele>557</ele>
        <time>2021-12-21T12:54:36.000Z</time>
      </trkpt>
      <trkpt lat="44.0329" lon="5.99264">
        <ele>557</ele>
        <time>2021-12-21T12:54:37.000Z</time>
      </trkpt>
      <trkpt lat="44.0329" lon="5.99265">
        <ele>557</ele>
        <time>2021-12-21T12:54:38.000Z</time>
      </trkpt>
      <trkpt lat="44.0329" lon="5.99265">
        <ele>557</ele>
        <time>2021-12-21T12:54:39.000Z</time>
      </trkpt>
      <trkpt lat="44.0329" lon="5.99266">
        <ele>557</ele>
        <time>2021-12-21T12:54:40.000Z</time>
      </trkpt>
      <trkpt lat="44.03291" lon="5.99266">
        <ele>557</ele>
        <time>2021-12-21T12:54:41.000Z</time>
      </trkpt>
      <trkpt lat="44.03291" lon="5.99267">
        <ele>558</ele>
        <time>2021-12-21T12:54:42.000Z</time>
      </trkpt>
      <trkpt lat="44.03291" lon="5.99267">
        <ele>558</ele>
        <time>2021-12-21T12:54:43.000Z</time>
      </trkpt>
      <trkpt lat="44.03291" lon="5.99268">
        <ele>558</ele>
        <time>2021-12-21T12:54:44.000Z</time>
      </trkpt>
      <trkpt lat="44.03292" lon="5.99269">
        <ele>558</ele>
        <time>2021-12-21T12:54:45.000Z</time>
      </trkpt>
      <trkpt lat="44.03292" lon="5.99269">
        <ele>558</ele>
        <time>2021-12-21T12:54:46.000Z</time>
      </trkpt>
      <trkpt lat="44.03292" lon="5.9927">
        <ele>558</ele>
        <time>2021-12-21T12:54:47.000Z</time>
      </trkpt>
      <trkpt lat="44.03292" lon="5.99271">
        <ele>558</ele>
        <time>2021-12-21T12:54:48.000Z</time>
      </trkpt>
      <trkpt lat="44.03292" lon="5.99272">
        <ele>558</ele>
        <time>2021-12-21T12:54:49.000Z</time>
      </trkpt>
      <trkpt lat="44.03292" lon="5.99272">
        <ele>557</ele>
        <time>2021-12-21T12:54:50.000Z</time>
      </trkpt>
      <trkpt lat="44.03292" lon="5.99272">
        <ele>557</ele>
        <time>2021-12-21T12:54:51.000Z</time>
      </trkpt>
      <trkpt lat="44.03292" lon="5.99272">
        <ele>557</ele>
        <time>2021-12-21T12:54:52.000Z</time>
      </trkpt>
      <trkpt lat="44.03292" lon="5.99272">
        <ele>557</ele>
        <time>2021-12-21T12:54:53.000Z</time>
      </trkpt>
      <trkpt lat="44.03292" lon="5.99272">
        <ele>557</ele>
        <time>2021-12-21T12:54:54.000Z</time>
      </trkpt>
      <trkpt lat="44.03292" lon="5.99272">
        <ele>557</ele>
        <time>2021-12-21T12:54:55.000Z</time>
      </trkpt>
      <trkpt lat="44.03292" lon="5.99272">
        <ele>557</ele>
        <time>2021-12-21T12:54:56.000Z</time>
      </trkpt>
      <trkpt lat="44.03292" lon="5.99272">
        <ele>557</ele>
        <time>2021-12-21T12:54:57.000Z</time>
      </trkpt>
      <trkpt lat="44.03292" lon="5.99272">
        <ele>557</ele>
        <time>2021-12-21T12:54:58.000Z</time>
      </trkpt>
      <trkpt lat="44.03292" lon="5.99272">
        <ele>557</ele>
        <time>2021-12-21T12:54:59.000Z</time>
      </trkpt>
      <trkpt lat="44.03292" lon="5.99272">
        <ele>557</ele>
        <time>2021-12-21T12:55:00.000Z</time>
      </trkpt>
      <trkpt lat="44.03292" lon="5.99272">
        <ele>557</ele>
        <time>2021-12-21T12:55:01.000Z</time>
      </trkpt>
      <trkpt lat="44.03292" lon="5.99273">
        <ele>557</ele>
        <time>2021-12-21T12:55:02.000Z</time>
      </trkpt>
      <trkpt lat="44.03292" lon="5.99273">
        <ele>557</ele>
        <time>2021-12-21T12:55:03.000Z</time>
      </trkpt>
      <trkpt lat="44.03292" lon="5.99273">
        <ele>557</ele>
        <time>2021-12-21T12:55:04.000Z</time>
      </trkpt>
      <trkpt lat="44.03292" lon="5.99273">
        <ele>557</ele>
        <time>2021-12-21T12:55:05.000Z</time>
      </trkpt>
      <trkpt lat="44.03292" lon="5.99273">
        <ele>557</ele>
        <time>2021-12-21T12:55:06.000Z</time>
      </trkpt>
      <trkpt lat="44.03292" lon="5.99273">
        <ele>557</ele>
        <time>2021-12-21T12:55:07.000Z</time>
      </trkpt>
      <trkpt lat="44.03292" lon="5.99273">
        <ele>557</ele>
        <time>2021-12-21T12:55:08.000Z</time>
      </trkpt>
      <trkpt lat="44.03292" lon="5.99273">
        <ele>557</ele>
        <time>2021-12-21T12:55:09.000Z</time>
      </trkpt>
      <trkpt lat="44.03292" lon="5.99273">
        <ele>557</ele>
        <time>2021-12-21T12:55:10.000Z</time>
      </trkpt>
      <trkpt lat="44.03292" lon="5.99273">
        <ele>557</ele>
        <time>2021-12-21T12:55:11.000Z</time>
      </trkpt>
      <trkpt lat="44.03292" lon="5.99273">
        <ele>557</ele>
        <time>2021-12-21T12:55:12.000Z</time>
      </trkpt>
      <trkpt lat="44.03292" lon="5.99273">
        <ele>557</ele>
        <time>2021-12-21T12:55:13.000Z</time>
      </trkpt>
      <trkpt lat="44.03292" lon="5.99273">
        <ele>557</ele>
        <time>2021-12-21T12:55:14.000Z</time>
      </trkpt>
      <trkpt lat="44.03292" lon="5.99273">
        <ele>557</ele>
        <time>2021-12-21T12:55:15.000Z</time>
      </trkpt>
      <trkpt lat="44.03292" lon="5.99273">
        <ele>557</ele>
        <time>2021-12-21T12:55:16.000Z</time>
      </trkpt>
      <trkpt lat="44.03292" lon="5.99273">
        <ele>557</ele>
        <time>2021-12-21T12:55:17.000Z</time>
      </trkpt>
      <trkpt lat="44.03292" lon="5.99273">
        <ele>557</ele>
        <time>2021-12-21T12:55:18.000Z</time>
      </trkpt>
      <trkpt lat="44.03292" lon="5.99273">
        <ele>557</ele>
        <time>2021-12-21T12:55:19.000Z</time>
      </trkpt>
      <trkpt lat="44.03292" lon="5.99273">
        <ele>557</ele>
        <time>2021-12-21T12:55:20.000Z</time>
      </trkpt>
      <trkpt lat="44.03292" lon="5.99273">
        <ele>557</ele>
        <time>2021-12-21T12:55:21.000Z</time>
      </trkpt>
      <trkpt lat="44.03292" lon="5.99273">
        <ele>557</ele>
        <time>2021-12-21T12:55:22.000Z</time>
      </trkpt>
      <trkpt lat="44.03292" lon="5.99273">
        <ele>558</ele>
        <time>2021-12-21T12:55:23.000Z</time>
      </trkpt>
      <trkpt lat="44.03292" lon="5.99273">
        <ele>558</ele>
        <time>2021-12-21T12:55:24.000Z</time>
      </trkpt>
      <trkpt lat="44.03292" lon="5.99273">
        <ele>558</ele>
        <time>2021-12-21T12:55:25.000Z</time>
      </trkpt>
      <trkpt lat="44.03292" lon="5.99273">
        <ele>558</ele>
        <time>2021-12-21T12:55:26.000Z</time>
      </trkpt>
      <trkpt lat="44.03292" lon="5.99273">
        <ele>558</ele>
        <time>2021-12-21T12:55:27.000Z</time>
      </trkpt>
      <trkpt lat="44.03292" lon="5.99273">
        <ele>558</ele>
        <time>2021-12-21T12:55:28.000Z</time>
      </trkpt>
      <trkpt lat="44.03293" lon="5.99273">
        <ele>558</ele>
        <time>2021-12-21T12:55:29.000Z</time>
      </trkpt>
      <trkpt lat="44.03293" lon="5.99273">
        <ele>558</ele>
        <time>2021-12-21T12:55:30.000Z</time>
      </trkpt>
      <trkpt lat="44.03293" lon="5.99273">
        <ele>558</ele>
        <time>2021-12-21T12:55:31.000Z</time>
      </trkpt>
      <trkpt lat="44.03293" lon="5.99273">
        <ele>559</ele>
        <time>2021-12-21T12:55:32.000Z</time>
      </trkpt>
      <trkpt lat="44.03293" lon="5.99273">
        <ele>559</ele>
        <time>2021-12-21T12:55:33.000Z</time>
      </trkpt>
      <trkpt lat="44.03293" lon="5.99273">
        <ele>559</ele>
        <time>2021-12-21T12:55:34.000Z</time>
      </trkpt>
      <trkpt lat="44.03294" lon="5.99273">
        <ele>559</ele>
        <time>2021-12-21T12:55:35.000Z</time>
      </trkpt>
      <trkpt lat="44.03294" lon="5.99273">
        <ele>560</ele>
        <time>2021-12-21T12:55:36.000Z</time>
      </trkpt>
      <trkpt lat="44.03294" lon="5.99273">
        <ele>560</ele>
        <time>2021-12-21T12:55:37.000Z</time>
      </trkpt>
      <trkpt lat="44.03294" lon="5.99273">
        <ele>560</ele>
        <time>2021-12-21T12:55:38.000Z</time>
      </trkpt>
      <trkpt lat="44.03294" lon="5.99273">
        <ele>560</ele>
        <time>2021-12-21T12:55:39.000Z</time>
      </trkpt>
      <trkpt lat="44.03295" lon="5.99273">
        <ele>561</ele>
        <time>2021-12-21T12:55:40.000Z</time>
      </trkpt>
      <trkpt lat="44.03295" lon="5.99273">
        <ele>561</ele>
        <time>2021-12-21T12:55:41.000Z</time>
      </trkpt>
      <trkpt lat="44.03295" lon="5.99273">
        <ele>561</ele>
        <time>2021-12-21T12:55:42.000Z</time>
      </trkpt>
      <trkpt lat="44.03295" lon="5.99273">
        <ele>561</ele>
        <time>2021-12-21T12:55:43.000Z</time>
      </trkpt>
      <trkpt lat="44.03295" lon="5.99272">
        <ele>561</ele>
        <time>2021-12-21T12:55:44.000Z</time>
      </trkpt>
      <trkpt lat="44.03295" lon="5.99272">
        <ele>561</ele>
        <time>2021-12-21T12:55:45.000Z</time>
      </trkpt>
      <trkpt lat="44.03295" lon="5.99272">
        <ele>561</ele>
        <time>2021-12-21T12:55:46.000Z</time>
      </trkpt>
      <trkpt lat="44.03295" lon="5.99273">
        <ele>561</ele>
        <time>2021-12-21T12:55:47.000Z</time>
      </trkpt>
      <trkpt lat="44.03295" lon="5.99272">
        <ele>561</ele>
        <time>2021-12-21T12:55:48.000Z</time>
      </trkpt>
      <trkpt lat="44.03295" lon="5.99272">
        <ele>561</ele>
        <time>2021-12-21T12:55:49.000Z</time>
      </trkpt>
      <trkpt lat="44.03295" lon="5.99272">
        <ele>562</ele>
        <time>2021-12-21T12:55:50.000Z</time>
      </trkpt>
      <trkpt lat="44.03295" lon="5.99272">
        <ele>562</ele>
        <time>2021-12-21T12:55:51.000Z</time>
      </trkpt>
      <trkpt lat="44.03296" lon="5.99272">
        <ele>562</ele>
        <time>2021-12-21T12:55:52.000Z</time>
      </trkpt>
      <trkpt lat="44.03296" lon="5.99272">
        <ele>562</ele>
        <time>2021-12-21T12:55:53.000Z</time>
      </trkpt>
      <trkpt lat="44.03296" lon="5.99272">
        <ele>562</ele>
        <time>2021-12-21T12:55:54.000Z</time>
      </trkpt>
      <trkpt lat="44.03296" lon="5.99272">
        <ele>562</ele>
        <time>2021-12-21T12:55:55.000Z</time>
      </trkpt>
      <trkpt lat="44.03296" lon="5.99272">
        <ele>562</ele>
        <time>2021-12-21T12:55:56.000Z</time>
      </trkpt>
      <trkpt lat="44.03296" lon="5.99272">
        <ele>562</ele>
        <time>2021-12-21T12:55:57.000Z</time>
      </trkpt>
      <trkpt lat="44.03296" lon="5.99272">
        <ele>562</ele>
        <time>2021-12-21T12:55:58.000Z</time>
      </trkpt>
      <trkpt lat="44.03296" lon="5.99272">
        <ele>562</ele>
        <time>2021-12-21T12:55:59.000Z</time>
      </trkpt>
      <trkpt lat="44.03296" lon="5.99272">
        <ele>563</ele>
        <time>2021-12-21T12:56:00.000Z</time>
      </trkpt>
      <trkpt lat="44.03296" lon="5.99272">
        <ele>563</ele>
        <time>2021-12-21T12:56:01.000Z</time>
      </trkpt>
      <trkpt lat="44.03296" lon="5.99272">
        <ele>563</ele>
        <time>2021-12-21T12:56:02.000Z</time>
      </trkpt>
      <trkpt lat="44.03296" lon="5.99272">
        <ele>563</ele>
        <time>2021-12-21T12:56:03.000Z</time>
      </trkpt>
      <trkpt lat="44.03296" lon="5.99272">
        <ele>563</ele>
        <time>2021-12-21T12:56:04.000Z</time>
      </trkpt>
      <trkpt lat="44.03296" lon="5.99272">
        <ele>563</ele>
        <time>2021-12-21T12:56:05.000Z</time>
      </trkpt>
      <trkpt lat="44.03296" lon="5.99272">
        <ele>563</ele>
        <time>2021-12-21T12:56:06.000Z</time>
      </trkpt>
      <trkpt lat="44.03296" lon="5.99272">
        <ele>563</ele>
        <time>2021-12-21T12:56:07.000Z</time>
      </trkpt>
      <trkpt lat="44.03296" lon="5.99273">
        <ele>563</ele>
        <time>2021-12-21T12:56:08.000Z</time>
      </trkpt>
      <trkpt lat="44.03296" lon="5.99273">
        <ele>563</ele>
        <time>2021-12-21T12:56:09.000Z</time>
      </trkpt>
      <trkpt lat="44.03296" lon="5.99273">
        <ele>563</ele>
        <time>2021-12-21T12:56:10.000Z</time>
      </trkpt>
      <trkpt lat="44.03296" lon="5.99273">
        <ele>563</ele>
        <time>2021-12-21T12:56:11.000Z</time>
      </trkpt>
      <trkpt lat="44.03296" lon="5.99273">
        <ele>563</ele>
        <time>2021-12-21T12:56:12.000Z</time>
      </trkpt>
      <trkpt lat="44.03296" lon="5.99273">
        <ele>563</ele>
        <time>2021-12-21T12:56:13.000Z</time>
      </trkpt>
      <trkpt lat="44.03296" lon="5.99273">
        <ele>563</ele>
        <time>2021-12-21T12:56:14.000Z</time>
      </trkpt>
      <trkpt lat="44.03296" lon="5.99273">
        <ele>563</ele>
        <time>2021-12-21T12:56:15.000Z</time>
      </trkpt>
      <trkpt lat="44.03296" lon="5.99273">
        <ele>563</ele>
        <time>2021-12-21T12:56:16.000Z</time>
      </trkpt>
      <trkpt lat="44.03296" lon="5.99273">
        <ele>563</ele>
        <time>2021-12-21T12:56:17.000Z</time>
      </trkpt>
      <trkpt lat="44.03296" lon="5.99273">
        <ele>563</ele>
        <time>2021-12-21T12:56:18.000Z</time>
      </trkpt>
      <trkpt lat="44.03296" lon="5.99273">
        <ele>563</ele>
        <time>2021-12-21T12:56:19.000Z</time>
      </trkpt>
      <trkpt lat="44.03296" lon="5.99273">
        <ele>563</ele>
        <time>2021-12-21T12:56:20.000Z</time>
      </trkpt>
      <trkpt lat="44.03296" lon="5.99273">
        <ele>563</ele>
        <time>2021-12-21T12:56:21.000Z</time>
      </trkpt>
      <trkpt lat="44.03296" lon="5.99273">
        <ele>563</ele>
        <time>2021-12-21T12:56:22.000Z</time>
      </trkpt>
      <trkpt lat="44.03296" lon="5.99273">
        <ele>563</ele>
        <time>2021-12-21T12:56:23.000Z</time>
      </trkpt>
      <trkpt lat="44.03296" lon="5.99273">
        <ele>563</ele>
        <time>2021-12-21T12:56:24.000Z</time>
      </trkpt>
      <trkpt lat="44.03296" lon="5.99273">
        <ele>563</ele>
        <time>2021-12-21T12:56:25.000Z</time>
      </trkpt>
      <trkpt lat="44.03296" lon="5.99273">
        <ele>563</ele>
        <time>2021-12-21T12:56:26.000Z</time>
      </trkpt>
      <trkpt lat="44.03296" lon="5.99273">
        <ele>563</ele>
        <time>2021-12-21T12:56:27.000Z</time>
      </trkpt>
      <trkpt lat="44.03296" lon="5.99273">
        <ele>563</ele>
        <time>2021-12-21T12:56:28.000Z</time>
      </trkpt>
      <trkpt lat="44.03296" lon="5.99273">
        <ele>563</ele>
        <time>2021-12-21T12:56:29.000Z</time>
      </trkpt>
      <trkpt lat="44.03296" lon="5.99273">
        <ele>563</ele>
        <time>2021-12-21T12:56:30.000Z</time>
      </trkpt>
      <trkpt lat="44.03295" lon="5.99273">
        <ele>563</ele>
        <time>2021-12-21T12:56:31.000Z</time>
      </trkpt>
      <trkpt lat="44.03295" lon="5.99273">
        <ele>563</ele>
        <time>2021-12-21T12:56:32.000Z</time>
      </trkpt>
      <trkpt lat="44.03295" lon="5.99273">
        <ele>563</ele>
        <time>2021-12-21T12:56:33.000Z</time>
      </trkpt>
      <trkpt lat="44.03295" lon="5.99273">
        <ele>563</ele>
        <time>2021-12-21T12:56:34.000Z</time>
      </trkpt>
      <trkpt lat="44.03295" lon="5.99274">
        <ele>563</ele>
        <time>2021-12-21T12:56:35.000Z</time>
      </trkpt>
      <trkpt lat="44.03296" lon="5.99275">
        <ele>562</ele>
        <time>2021-12-21T12:56:36.000Z</time>
      </trkpt>
      <trkpt lat="44.03296" lon="5.99276">
        <ele>562</ele>
        <time>2021-12-21T12:56:37.000Z</time>
      </trkpt>
      <trkpt lat="44.03295" lon="5.99278">
        <ele>562</ele>
        <time>2021-12-21T12:56:38.000Z</time>
      </trkpt>
      <trkpt lat="44.03295" lon="5.9928">
        <ele>562</ele>
        <time>2021-12-21T12:56:39.000Z</time>
      </trkpt>
      <trkpt lat="44.03294" lon="5.99281">
        <ele>562</ele>
        <time>2021-12-21T12:56:40.000Z</time>
      </trkpt>
      <trkpt lat="44.03294" lon="5.99282">
        <ele>562</ele>
        <time>2021-12-21T12:56:41.000Z</time>
      </trkpt>
      <trkpt lat="44.03294" lon="5.99283">
        <ele>562</ele>
        <time>2021-12-21T12:56:42.000Z</time>
      </trkpt>
      <trkpt lat="44.03293" lon="5.99284">
        <ele>562</ele>
        <time>2021-12-21T12:56:43.000Z</time>
      </trkpt>
      <trkpt lat="44.03293" lon="5.99285">
        <ele>562</ele>
        <time>2021-12-21T12:56:44.000Z</time>
      </trkpt>
      <trkpt lat="44.03293" lon="5.99287">
        <ele>562</ele>
        <time>2021-12-21T12:56:45.000Z</time>
      </trkpt>
      <trkpt lat="44.03293" lon="5.99288">
        <ele>561</ele>
        <time>2021-12-21T12:56:46.000Z</time>
      </trkpt>
      <trkpt lat="44.03293" lon="5.9929">
        <ele>561</ele>
        <time>2021-12-21T12:56:47.000Z</time>
      </trkpt>
      <trkpt lat="44.03293" lon="5.99291">
        <ele>561</ele>
        <time>2021-12-21T12:56:48.000Z</time>
      </trkpt>
      <trkpt lat="44.03293" lon="5.99292">
        <ele>561</ele>
        <time>2021-12-21T12:56:49.000Z</time>
      </trkpt>
      <trkpt lat="44.03293" lon="5.99293">
        <ele>561</ele>
        <time>2021-12-21T12:56:50.000Z</time>
      </trkpt>
      <trkpt lat="44.03293" lon="5.99294">
        <ele>561</ele>
        <time>2021-12-21T12:56:51.000Z</time>
      </trkpt>
      <trkpt lat="44.03293" lon="5.99295">
        <ele>561</ele>
        <time>2021-12-21T12:56:52.000Z</time>
      </trkpt>
      <trkpt lat="44.03293" lon="5.99296">
        <ele>561</ele>
        <time>2021-12-21T12:56:53.000Z</time>
      </trkpt>
      <trkpt lat="44.03294" lon="5.99296">
        <ele>561</ele>
        <time>2021-12-21T12:56:54.000Z</time>
      </trkpt>
      <trkpt lat="44.03294" lon="5.99297">
        <ele>561</ele>
        <time>2021-12-21T12:56:55.000Z</time>
      </trkpt>
      <trkpt lat="44.03295" lon="5.99297">
        <ele>561</ele>
        <time>2021-12-21T12:56:56.000Z</time>
      </trkpt>
      <trkpt lat="44.03296" lon="5.99298">
        <ele>560</ele>
        <time>2021-12-21T12:56:57.000Z</time>
      </trkpt>
      <trkpt lat="44.03297" lon="5.99299">
        <ele>560</ele>
        <time>2021-12-21T12:56:58.000Z</time>
      </trkpt>
      <trkpt lat="44.03297" lon="5.993">
        <ele>560</ele>
        <time>2021-12-21T12:56:59.000Z</time>
      </trkpt>
      <trkpt lat="44.03298" lon="5.99301">
        <ele>560</ele>
        <time>2021-12-21T12:57:00.000Z</time>
      </trkpt>
      <trkpt lat="44.03299" lon="5.99302">
        <ele>560</ele>
        <time>2021-12-21T12:57:01.000Z</time>
      </trkpt>
      <trkpt lat="44.03299" lon="5.99303">
        <ele>559</ele>
        <time>2021-12-21T12:57:02.000Z</time>
      </trkpt>
      <trkpt lat="44.033" lon="5.99304">
        <ele>559</ele>
        <time>2021-12-21T12:57:03.000Z</time>
      </trkpt>
      <trkpt lat="44.03301" lon="5.99305">
        <ele>559</ele>
        <time>2021-12-21T12:57:04.000Z</time>
      </trkpt>
      <trkpt lat="44.03302" lon="5.99306">
        <ele>559</ele>
        <time>2021-12-21T12:57:05.000Z</time>
      </trkpt>
      <trkpt lat="44.03303" lon="5.99306">
        <ele>559</ele>
        <time>2021-12-21T12:57:06.000Z</time>
      </trkpt>
      <trkpt lat="44.03304" lon="5.99307">
        <ele>559</ele>
        <time>2021-12-21T12:57:07.000Z</time>
      </trkpt>
      <trkpt lat="44.03305" lon="5.99308">
        <ele>559</ele>
        <time>2021-12-21T12:57:08.000Z</time>
      </trkpt>
      <trkpt lat="44.03306" lon="5.99309">
        <ele>559</ele>
        <time>2021-12-21T12:57:09.000Z</time>
      </trkpt>
      <trkpt lat="44.03307" lon="5.9931">
        <ele>559</ele>
        <time>2021-12-21T12:57:10.000Z</time>
      </trkpt>
      <trkpt lat="44.03308" lon="5.99312">
        <ele>559</ele>
        <time>2021-12-21T12:57:11.000Z</time>
      </trkpt>
      <trkpt lat="44.03308" lon="5.99313">
        <ele>559</ele>
        <time>2021-12-21T12:57:12.000Z</time>
      </trkpt>
      <trkpt lat="44.03308" lon="5.99314">
        <ele>559</ele>
        <time>2021-12-21T12:57:13.000Z</time>
      </trkpt>
      <trkpt lat="44.03309" lon="5.99315">
        <ele>559</ele>
        <time>2021-12-21T12:57:14.000Z</time>
      </trkpt>
      <trkpt lat="44.03309" lon="5.99315">
        <ele>559</ele>
        <time>2021-12-21T12:57:15.000Z</time>
      </trkpt>
      <trkpt lat="44.03309" lon="5.99315">
        <ele>558</ele>
        <time>2021-12-21T12:57:16.000Z</time>
      </trkpt>
      <trkpt lat="44.03309" lon="5.99315">
        <ele>558</ele>
        <time>2021-12-21T12:57:17.000Z</time>
      </trkpt>
      <trkpt lat="44.03309" lon="5.99315">
        <ele>558</ele>
        <time>2021-12-21T12:57:18.000Z</time>
      </trkpt>
      <trkpt lat="44.03309" lon="5.99315">
        <ele>558</ele>
        <time>2021-12-21T12:57:19.000Z</time>
      </trkpt>
      <trkpt lat="44.03309" lon="5.99315">
        <ele>558</ele>
        <time>2021-12-21T12:57:20.000Z</time>
      </trkpt>
      <trkpt lat="44.03309" lon="5.99315">
        <ele>558</ele>
        <time>2021-12-21T12:57:21.000Z</time>
      </trkpt>
      <trkpt lat="44.03309" lon="5.99315">
        <ele>558</ele>
        <time>2021-12-21T12:57:22.000Z</time>
      </trkpt>
      <trkpt lat="44.0331" lon="5.99315">
        <ele>557</ele>
        <time>2021-12-21T12:57:23.000Z</time>
      </trkpt>
      <trkpt lat="44.0331" lon="5.99316">
        <ele>557</ele>
        <time>2021-12-21T12:57:24.000Z</time>
      </trkpt>
      <trkpt lat="44.03311" lon="5.99316">
        <ele>557</ele>
        <time>2021-12-21T12:57:25.000Z</time>
      </trkpt>
      <trkpt lat="44.03312" lon="5.99317">
        <ele>557</ele>
        <time>2021-12-21T12:57:26.000Z</time>
      </trkpt>
      <trkpt lat="44.03312" lon="5.99317">
        <ele>557</ele>
        <time>2021-12-21T12:57:27.000Z</time>
      </trkpt>
      <trkpt lat="44.03313" lon="5.99317">
        <ele>556</ele>
        <time>2021-12-21T12:57:28.000Z</time>
      </trkpt>
      <trkpt lat="44.03314" lon="5.99316">
        <ele>556</ele>
        <time>2021-12-21T12:57:29.000Z</time>
      </trkpt>
      <trkpt lat="44.03314" lon="5.99316">
        <ele>556</ele>
        <time>2021-12-21T12:57:30.000Z</time>
      </trkpt>
      <trkpt lat="44.03315" lon="5.99316">
        <ele>556</ele>
        <time>2021-12-21T12:57:31.000Z</time>
      </trkpt>
      <trkpt lat="44.03315" lon="5.99317">
        <ele>555</ele>
        <time>2021-12-21T12:57:32.000Z</time>
      </trkpt>
      <trkpt lat="44.03316" lon="5.99317">
        <ele>555</ele>
        <time>2021-12-21T12:57:33.000Z</time>
      </trkpt>
      <trkpt lat="44.03316" lon="5.99317">
        <ele>555</ele>
        <time>2021-12-21T12:57:34.000Z</time>
      </trkpt>
      <trkpt lat="44.03317" lon="5.99316">
        <ele>554</ele>
        <time>2021-12-21T12:57:35.000Z</time>
      </trkpt>
      <trkpt lat="44.03318" lon="5.99316">
        <ele>554</ele>
        <time>2021-12-21T12:57:36.000Z</time>
      </trkpt>
      <trkpt lat="44.03319" lon="5.99315">
        <ele>554</ele>
        <time>2021-12-21T12:57:37.000Z</time>
      </trkpt>
      <trkpt lat="44.03319" lon="5.99314">
        <ele>554</ele>
        <time>2021-12-21T12:57:38.000Z</time>
      </trkpt>
      <trkpt lat="44.03319" lon="5.99314">
        <ele>553</ele>
        <time>2021-12-21T12:57:39.000Z</time>
      </trkpt>
      <trkpt lat="44.03319" lon="5.99313">
        <ele>553</ele>
        <time>2021-12-21T12:57:40.000Z</time>
      </trkpt>
      <trkpt lat="44.03319" lon="5.99314">
        <ele>553</ele>
        <time>2021-12-21T12:57:41.000Z</time>
      </trkpt>
      <trkpt lat="44.03319" lon="5.99315">
        <ele>553</ele>
        <time>2021-12-21T12:57:42.000Z</time>
      </trkpt>
      <trkpt lat="44.03318" lon="5.99316">
        <ele>553</ele>
        <time>2021-12-21T12:57:43.000Z</time>
      </trkpt>
      <trkpt lat="44.03317" lon="5.99317">
        <ele>552</ele>
        <time>2021-12-21T12:57:44.000Z</time>
      </trkpt>
      <trkpt lat="44.03316" lon="5.99317">
        <ele>552</ele>
        <time>2021-12-21T12:57:45.000Z</time>
      </trkpt>
      <trkpt lat="44.03315" lon="5.99318">
        <ele>552</ele>
        <time>2021-12-21T12:57:46.000Z</time>
      </trkpt>
      <trkpt lat="44.03315" lon="5.9932">
        <ele>552</ele>
        <time>2021-12-21T12:57:47.000Z</time>
      </trkpt>
      <trkpt lat="44.03314" lon="5.99321">
        <ele>552</ele>
        <time>2021-12-21T12:57:48.000Z</time>
      </trkpt>
      <trkpt lat="44.03313" lon="5.99322">
        <ele>551</ele>
        <time>2021-12-21T12:57:49.000Z</time>
      </trkpt>
      <trkpt lat="44.03313" lon="5.99323">
        <ele>551</ele>
        <time>2021-12-21T12:57:50.000Z</time>
      </trkpt>
      <trkpt lat="44.03312" lon="5.99325">
        <ele>551</ele>
        <time>2021-12-21T12:57:51.000Z</time>
      </trkpt>
      <trkpt lat="44.03312" lon="5.99326">
        <ele>550</ele>
        <time>2021-12-21T12:57:52.000Z</time>
      </trkpt>
      <trkpt lat="44.03312" lon="5.99328">
        <ele>550</ele>
        <time>2021-12-21T12:57:53.000Z</time>
      </trkpt>
      <trkpt lat="44.03312" lon="5.9933">
        <ele>550</ele>
        <time>2021-12-21T12:57:54.000Z</time>
      </trkpt>
      <trkpt lat="44.03312" lon="5.99331">
        <ele>549</ele>
        <time>2021-12-21T12:57:55.000Z</time>
      </trkpt>
      <trkpt lat="44.03312" lon="5.99333">
        <ele>549</ele>
        <time>2021-12-21T12:57:56.000Z</time>
      </trkpt>
      <trkpt lat="44.03313" lon="5.99335">
        <ele>549</ele>
        <time>2021-12-21T12:57:57.000Z</time>
      </trkpt>
      <trkpt lat="44.03313" lon="5.99336">
        <ele>548</ele>
        <time>2021-12-21T12:57:58.000Z</time>
      </trkpt>
      <trkpt lat="44.03313" lon="5.99338">
        <ele>548</ele>
        <time>2021-12-21T12:57:59.000Z</time>
      </trkpt>
      <trkpt lat="44.03312" lon="5.9934">
        <ele>548</ele>
        <time>2021-12-21T12:58:00.000Z</time>
      </trkpt>
      <trkpt lat="44.03311" lon="5.99341">
        <ele>547</ele>
        <time>2021-12-21T12:58:01.000Z</time>
      </trkpt>
      <trkpt lat="44.03311" lon="5.99342">
        <ele>547</ele>
        <time>2021-12-21T12:58:02.000Z</time>
      </trkpt>
      <trkpt lat="44.0331" lon="5.99343">
        <ele>547</ele>
        <time>2021-12-21T12:58:03.000Z</time>
      </trkpt>
      <trkpt lat="44.0331" lon="5.99344">
        <ele>547</ele>
        <time>2021-12-21T12:58:04.000Z</time>
      </trkpt>
      <trkpt lat="44.03309" lon="5.99346">
        <ele>546</ele>
        <time>2021-12-21T12:58:05.000Z</time>
      </trkpt>
      <trkpt lat="44.03309" lon="5.99347">
        <ele>546</ele>
        <time>2021-12-21T12:58:06.000Z</time>
      </trkpt>
      <trkpt lat="44.03309" lon="5.99349">
        <ele>546</ele>
        <time>2021-12-21T12:58:07.000Z</time>
      </trkpt>
      <trkpt lat="44.03309" lon="5.9935">
        <ele>546</ele>
        <time>2021-12-21T12:58:08.000Z</time>
      </trkpt>
      <trkpt lat="44.03308" lon="5.9935">
        <ele>546</ele>
        <time>2021-12-21T12:58:09.000Z</time>
      </trkpt>
      <trkpt lat="44.03308" lon="5.99351">
        <ele>546</ele>
        <time>2021-12-21T12:58:10.000Z</time>
      </trkpt>
      <trkpt lat="44.03308" lon="5.99351">
        <ele>546</ele>
        <time>2021-12-21T12:58:11.000Z</time>
      </trkpt>
      <trkpt lat="44.03307" lon="5.99352">
        <ele>546</ele>
        <time>2021-12-21T12:58:12.000Z</time>
      </trkpt>
      <trkpt lat="44.03307" lon="5.99353">
        <ele>546</ele>
        <time>2021-12-21T12:58:13.000Z</time>
      </trkpt>
      <trkpt lat="44.03307" lon="5.99353">
        <ele>546</ele>
        <time>2021-12-21T12:58:14.000Z</time>
      </trkpt>
      <trkpt lat="44.03307" lon="5.99354">
        <ele>546</ele>
        <time>2021-12-21T12:58:15.000Z</time>
      </trkpt>
      <trkpt lat="44.03307" lon="5.99355">
        <ele>546</ele>
        <time>2021-12-21T12:58:16.000Z</time>
      </trkpt>
      <trkpt lat="44.03306" lon="5.99356">
        <ele>546</ele>
        <time>2021-12-21T12:58:17.000Z</time>
      </trkpt>
      <trkpt lat="44.03306" lon="5.99357">
        <ele>546</ele>
        <time>2021-12-21T12:58:18.000Z</time>
      </trkpt>
      <trkpt lat="44.03306" lon="5.99358">
        <ele>546</ele>
        <time>2021-12-21T12:58:19.000Z</time>
      </trkpt>
      <trkpt lat="44.03306" lon="5.99359">
        <ele>546</ele>
        <time>2021-12-21T12:58:20.000Z</time>
      </trkpt>
      <trkpt lat="44.03307" lon="5.99361">
        <ele>546</ele>
        <time>2021-12-21T12:58:21.000Z</time>
      </trkpt>
      <trkpt lat="44.03306" lon="5.99363">
        <ele>546</ele>
        <time>2021-12-21T12:58:22.000Z</time>
      </trkpt>
      <trkpt lat="44.03306" lon="5.99364">
        <ele>546</ele>
        <time>2021-12-21T12:58:23.000Z</time>
      </trkpt>
      <trkpt lat="44.03306" lon="5.99365">
        <ele>546</ele>
        <time>2021-12-21T12:58:24.000Z</time>
      </trkpt>
      <trkpt lat="44.03305" lon="5.99367">
        <ele>546</ele>
        <time>2021-12-21T12:58:25.000Z</time>
      </trkpt>
      <trkpt lat="44.03305" lon="5.99368">
        <ele>546</ele>
        <time>2021-12-21T12:58:26.000Z</time>
      </trkpt>
      <trkpt lat="44.03305" lon="5.99369">
        <ele>546</ele>
        <time>2021-12-21T12:58:27.000Z</time>
      </trkpt>
      <trkpt lat="44.03304" lon="5.9937">
        <ele>546</ele>
        <time>2021-12-21T12:58:28.000Z</time>
      </trkpt>
      <trkpt lat="44.03304" lon="5.99371">
        <ele>546</ele>
        <time>2021-12-21T12:58:29.000Z</time>
      </trkpt>
      <trkpt lat="44.03303" lon="5.99371">
        <ele>546</ele>
        <time>2021-12-21T12:58:30.000Z</time>
      </trkpt>
      <trkpt lat="44.03303" lon="5.99372">
        <ele>546</ele>
        <time>2021-12-21T12:58:31.000Z</time>
      </trkpt>
      <trkpt lat="44.03303" lon="5.99374">
        <ele>546</ele>
        <time>2021-12-21T12:58:32.000Z</time>
      </trkpt>
      <trkpt lat="44.03303" lon="5.99375">
        <ele>546</ele>
        <time>2021-12-21T12:58:33.000Z</time>
      </trkpt>
      <trkpt lat="44.03303" lon="5.99376">
        <ele>547</ele>
        <time>2021-12-21T12:58:34.000Z</time>
      </trkpt>
      <trkpt lat="44.03302" lon="5.99378">
        <ele>547</ele>
        <time>2021-12-21T12:58:35.000Z</time>
      </trkpt>
      <trkpt lat="44.03302" lon="5.99379">
        <ele>547</ele>
        <time>2021-12-21T12:58:36.000Z</time>
      </trkpt>
      <trkpt lat="44.03302" lon="5.99381">
        <ele>547</ele>
        <time>2021-12-21T12:58:37.000Z</time>
      </trkpt>
      <trkpt lat="44.03303" lon="5.99382">
        <ele>547</ele>
        <time>2021-12-21T12:58:38.000Z</time>
      </trkpt>
      <trkpt lat="44.03303" lon="5.99383">
        <ele>547</ele>
        <time>2021-12-21T12:58:39.000Z</time>
      </trkpt>
      <trkpt lat="44.03303" lon="5.99384">
        <ele>547</ele>
        <time>2021-12-21T12:58:40.000Z</time>
      </trkpt>
      <trkpt lat="44.03304" lon="5.99384">
        <ele>547</ele>
        <time>2021-12-21T12:58:41.000Z</time>
      </trkpt>
      <trkpt lat="44.03304" lon="5.99384">
        <ele>547</ele>
        <time>2021-12-21T12:58:42.000Z</time>
      </trkpt>
      <trkpt lat="44.03304" lon="5.99384">
        <ele>547</ele>
        <time>2021-12-21T12:58:43.000Z</time>
      </trkpt>
      <trkpt lat="44.03304" lon="5.99384">
        <ele>548</ele>
        <time>2021-12-21T12:58:44.000Z</time>
      </trkpt>
      <trkpt lat="44.03303" lon="5.99384">
        <ele>548</ele>
        <time>2021-12-21T12:58:45.000Z</time>
      </trkpt>
      <trkpt lat="44.03304" lon="5.99384">
        <ele>548</ele>
        <time>2021-12-21T12:58:46.000Z</time>
      </trkpt>
      <trkpt lat="44.03304" lon="5.99385">
        <ele>548</ele>
        <time>2021-12-21T12:58:47.000Z</time>
      </trkpt>
      <trkpt lat="44.03304" lon="5.99385">
        <ele>548</ele>
        <time>2021-12-21T12:58:48.000Z</time>
      </trkpt>
      <trkpt lat="44.03304" lon="5.99385">
        <ele>548</ele>
        <time>2021-12-21T12:58:49.000Z</time>
      </trkpt>
      <trkpt lat="44.03304" lon="5.99385">
        <ele>548</ele>
        <time>2021-12-21T12:58:50.000Z</time>
      </trkpt>
      <trkpt lat="44.03304" lon="5.99385">
        <ele>548</ele>
        <time>2021-12-21T12:58:51.000Z</time>
      </trkpt>
      <trkpt lat="44.03304" lon="5.99385">
        <ele>548</ele>
        <time>2021-12-21T12:58:52.000Z</time>
      </trkpt>
      <trkpt lat="44.03303" lon="5.99385">
        <ele>548</ele>
        <time>2021-12-21T12:58:53.000Z</time>
      </trkpt>
      <trkpt lat="44.03303" lon="5.99385">
        <ele>548</ele>
        <time>2021-12-21T12:58:54.000Z</time>
      </trkpt>
      <trkpt lat="44.03303" lon="5.99384">
        <ele>548</ele>
        <time>2021-12-21T12:58:55.000Z</time>
      </trkpt>
      <trkpt lat="44.03303" lon="5.99384">
        <ele>548</ele>
        <time>2021-12-21T12:58:56.000Z</time>
      </trkpt>
      <trkpt lat="44.03303" lon="5.99384">
        <ele>548</ele>
        <time>2021-12-21T12:58:57.000Z</time>
      </trkpt>
      <trkpt lat="44.03303" lon="5.99384">
        <ele>548</ele>
        <time>2021-12-21T12:58:58.000Z</time>
      </trkpt>
      <trkpt lat="44.03303" lon="5.99384">
        <ele>548</ele>
        <time>2021-12-21T12:58:59.000Z</time>
      </trkpt>
      <trkpt lat="44.03303" lon="5.99384">
        <ele>548</ele>
        <time>2021-12-21T12:59:00.000Z</time>
      </trkpt>
      <trkpt lat="44.03303" lon="5.99384">
        <ele>548</ele>
        <time>2021-12-21T12:59:01.000Z</time>
      </trkpt>
      <trkpt lat="44.03303" lon="5.99384">
        <ele>548</ele>
        <time>2021-12-21T12:59:02.000Z</time>
      </trkpt>
      <trkpt lat="44.03303" lon="5.99384">
        <ele>548</ele>
        <time>2021-12-21T12:59:03.000Z</time>
      </trkpt>
      <trkpt lat="44.03303" lon="5.99384">
        <ele>548</ele>
        <time>2021-12-21T12:59:04.000Z</time>
      </trkpt>
      <trkpt lat="44.03303" lon="5.99384">
        <ele>548</ele>
        <time>2021-12-21T12:59:05.000Z</time>
      </trkpt>
      <trkpt lat="44.03303" lon="5.99384">
        <ele>548</ele>
        <time>2021-12-21T12:59:06.000Z</time>
      </trkpt>
      <trkpt lat="44.03303" lon="5.99384">
        <ele>548</ele>
        <time>2021-12-21T12:59:07.000Z</time>
      </trkpt>
      <trkpt lat="44.03303" lon="5.99384">
        <ele>548</ele>
        <time>2021-12-21T12:59:08.000Z</time>
      </trkpt>
      <trkpt lat="44.03303" lon="5.99385">
        <ele>548</ele>
        <time>2021-12-21T12:59:09.000Z</time>
      </trkpt>
      <trkpt lat="44.03304" lon="5.99384">
        <ele>548</ele>
        <time>2021-12-21T12:59:10.000Z</time>
      </trkpt>
      <trkpt lat="44.03304" lon="5.99385">
        <ele>548</ele>
        <time>2021-12-21T12:59:11.000Z</time>
      </trkpt>
      <trkpt lat="44.03304" lon="5.99386">
        <ele>548</ele>
        <time>2021-12-21T12:59:12.000Z</time>
      </trkpt>
      <trkpt lat="44.03304" lon="5.99387">
        <ele>548</ele>
        <time>2021-12-21T12:59:13.000Z</time>
      </trkpt>
      <trkpt lat="44.03305" lon="5.99387">
        <ele>548</ele>
        <time>2021-12-21T12:59:14.000Z</time>
      </trkpt>
      <trkpt lat="44.03306" lon="5.99388">
        <ele>548</ele>
        <time>2021-12-21T12:59:15.000Z</time>
      </trkpt>
      <trkpt lat="44.03306" lon="5.99389">
        <ele>548</ele>
        <time>2021-12-21T12:59:16.000Z</time>
      </trkpt>
      <trkpt lat="44.03307" lon="5.9939">
        <ele>548</ele>
        <time>2021-12-21T12:59:17.000Z</time>
      </trkpt>
      <trkpt lat="44.03308" lon="5.99391">
        <ele>548</ele>
        <time>2021-12-21T12:59:18.000Z</time>
      </trkpt>
      <trkpt lat="44.03309" lon="5.99393">
        <ele>548</ele>
        <time>2021-12-21T12:59:19.000Z</time>
      </trkpt>
      <trkpt lat="44.03309" lon="5.99394">
        <ele>548</ele>
        <time>2021-12-21T12:59:20.000Z</time>
      </trkpt>
      <trkpt lat="44.0331" lon="5.99396">
        <ele>549</ele>
        <time>2021-12-21T12:59:21.000Z</time>
      </trkpt>
      <trkpt lat="44.0331" lon="5.99397">
        <ele>549</ele>
        <time>2021-12-21T12:59:22.000Z</time>
      </trkpt>
      <trkpt lat="44.0331" lon="5.99398">
        <ele>549</ele>
        <time>2021-12-21T12:59:23.000Z</time>
      </trkpt>
      <trkpt lat="44.0331" lon="5.99399">
        <ele>549</ele>
        <time>2021-12-21T12:59:24.000Z</time>
      </trkpt>
      <trkpt lat="44.03311" lon="5.994">
        <ele>549</ele>
        <time>2021-12-21T12:59:25.000Z</time>
      </trkpt>
      <trkpt lat="44.03311" lon="5.99402">
        <ele>548</ele>
        <time>2021-12-21T12:59:26.000Z</time>
      </trkpt>
      <trkpt lat="44.0331" lon="5.99403">
        <ele>548</ele>
        <time>2021-12-21T12:59:27.000Z</time>
      </trkpt>
      <trkpt lat="44.0331" lon="5.99405">
        <ele>548</ele>
        <time>2021-12-21T12:59:28.000Z</time>
      </trkpt>
      <trkpt lat="44.03309" lon="5.99405">
        <ele>548</ele>
        <time>2021-12-21T12:59:29.000Z</time>
      </trkpt>
      <trkpt lat="44.03309" lon="5.99406">
        <ele>548</ele>
        <time>2021-12-21T12:59:30.000Z</time>
      </trkpt>
      <trkpt lat="44.03308" lon="5.99406">
        <ele>548</ele>
        <time>2021-12-21T12:59:31.000Z</time>
      </trkpt>
      <trkpt lat="44.03308" lon="5.99407">
        <ele>548</ele>
        <time>2021-12-21T12:59:32.000Z</time>
      </trkpt>
      <trkpt lat="44.03307" lon="5.99408">
        <ele>548</ele>
        <time>2021-12-21T12:59:33.000Z</time>
      </trkpt>
      <trkpt lat="44.03307" lon="5.99408">
        <ele>548</ele>
        <time>2021-12-21T12:59:34.000Z</time>
      </trkpt>
      <trkpt lat="44.03306" lon="5.99409">
        <ele>548</ele>
        <time>2021-12-21T12:59:35.000Z</time>
      </trkpt>
      <trkpt lat="44.03305" lon="5.9941">
        <ele>548</ele>
        <time>2021-12-21T12:59:36.000Z</time>
      </trkpt>
      <trkpt lat="44.03305" lon="5.9941">
        <ele>548</ele>
        <time>2021-12-21T12:59:37.000Z</time>
      </trkpt>
      <trkpt lat="44.03305" lon="5.99411">
        <ele>548</ele>
        <time>2021-12-21T12:59:38.000Z</time>
      </trkpt>
      <trkpt lat="44.03304" lon="5.99412">
        <ele>548</ele>
        <time>2021-12-21T12:59:39.000Z</time>
      </trkpt>
      <trkpt lat="44.03304" lon="5.99413">
        <ele>548</ele>
        <time>2021-12-21T12:59:40.000Z</time>
      </trkpt>
      <trkpt lat="44.03304" lon="5.99414">
        <ele>548</ele>
        <time>2021-12-21T12:59:41.000Z</time>
      </trkpt>
      <trkpt lat="44.03303" lon="5.99415">
        <ele>548</ele>
        <time>2021-12-21T12:59:42.000Z</time>
      </trkpt>
      <trkpt lat="44.03303" lon="5.99416">
        <ele>548</ele>
        <time>2021-12-21T12:59:43.000Z</time>
      </trkpt>
      <trkpt lat="44.03303" lon="5.99417">
        <ele>548</ele>
        <time>2021-12-21T12:59:44.000Z</time>
      </trkpt>
      <trkpt lat="44.03303" lon="5.99418">
        <ele>548</ele>
        <time>2021-12-21T12:59:45.000Z</time>
      </trkpt>
      <trkpt lat="44.03303" lon="5.99419">
        <ele>548</ele>
        <time>2021-12-21T12:59:46.000Z</time>
      </trkpt>
      <trkpt lat="44.03303" lon="5.9942">
        <ele>548</ele>
        <time>2021-12-21T12:59:47.000Z</time>
      </trkpt>
      <trkpt lat="44.03303" lon="5.99421">
        <ele>548</ele>
        <time>2021-12-21T12:59:48.000Z</time>
      </trkpt>
      <trkpt lat="44.03303" lon="5.99421">
        <ele>548</ele>
        <time>2021-12-21T12:59:49.000Z</time>
      </trkpt>
      <trkpt lat="44.03304" lon="5.99422">
        <ele>548</ele>
        <time>2021-12-21T12:59:50.000Z</time>
      </trkpt>
      <trkpt lat="44.03304" lon="5.99424">
        <ele>549</ele>
        <time>2021-12-21T12:59:51.000Z</time>
      </trkpt>
      <trkpt lat="44.03305" lon="5.99425">
        <ele>549</ele>
        <time>2021-12-21T12:59:52.000Z</time>
      </trkpt>
      <trkpt lat="44.03305" lon="5.99426">
        <ele>549</ele>
        <time>2021-12-21T12:59:53.000Z</time>
      </trkpt>
      <trkpt lat="44.03305" lon="5.99427">
        <ele>549</ele>
        <time>2021-12-21T12:59:54.000Z</time>
      </trkpt>
      <trkpt lat="44.03305" lon="5.99428">
        <ele>549</ele>
        <time>2021-12-21T12:59:55.000Z</time>
      </trkpt>
      <trkpt lat="44.03305" lon="5.9943">
        <ele>549</ele>
        <time>2021-12-21T12:59:56.000Z</time>
      </trkpt>
      <trkpt lat="44.03305" lon="5.99431">
        <ele>549</ele>
        <time>2021-12-21T12:59:57.000Z</time>
      </trkpt>
      <trkpt lat="44.03306" lon="5.99432">
        <ele>549</ele>
        <time>2021-12-21T12:59:58.000Z</time>
      </trkpt>
      <trkpt lat="44.03305" lon="5.99433">
        <ele>549</ele>
        <time>2021-12-21T12:59:59.000Z</time>
      </trkpt>
      <trkpt lat="44.03306" lon="5.99433">
        <ele>549</ele>
        <time>2021-12-21T13:00:00.000Z</time>
      </trkpt>
      <trkpt lat="44.03306" lon="5.99433">
        <ele>549</ele>
        <time>2021-12-21T13:00:01.000Z</time>
      </trkpt>
      <trkpt lat="44.03307" lon="5.99434">
        <ele>550</ele>
        <time>2021-12-21T13:00:02.000Z</time>
      </trkpt>
      <trkpt lat="44.03308" lon="5.99435">
        <ele>550</ele>
        <time>2021-12-21T13:00:03.000Z</time>
      </trkpt>
      <trkpt lat="44.03309" lon="5.99436">
        <ele>550</ele>
        <time>2021-12-21T13:00:04.000Z</time>
      </trkpt>
      <trkpt lat="44.0331" lon="5.99437">
        <ele>550</ele>
        <time>2021-12-21T13:00:05.000Z</time>
      </trkpt>
      <trkpt lat="44.0331" lon="5.99438">
        <ele>550</ele>
        <time>2021-12-21T13:00:06.000Z</time>
      </trkpt>
      <trkpt lat="44.03311" lon="5.99439">
        <ele>550</ele>
        <time>2021-12-21T13:00:07.000Z</time>
      </trkpt>
      <trkpt lat="44.03311" lon="5.9944">
        <ele>550</ele>
        <time>2021-12-21T13:00:08.000Z</time>
      </trkpt>
      <trkpt lat="44.03312" lon="5.99441">
        <ele>550</ele>
        <time>2021-12-21T13:00:09.000Z</time>
      </trkpt>
      <trkpt lat="44.03313" lon="5.99442">
        <ele>550</ele>
        <time>2021-12-21T13:00:10.000Z</time>
      </trkpt>
      <trkpt lat="44.03314" lon="5.99444">
        <ele>551</ele>
        <time>2021-12-21T13:00:11.000Z</time>
      </trkpt>
      <trkpt lat="44.03315" lon="5.99445">
        <ele>551</ele>
        <time>2021-12-21T13:00:12.000Z</time>
      </trkpt>
      <trkpt lat="44.03316" lon="5.99446">
        <ele>551</ele>
        <time>2021-12-21T13:00:13.000Z</time>
      </trkpt>
      <trkpt lat="44.03317" lon="5.99447">
        <ele>551</ele>
        <time>2021-12-21T13:00:14.000Z</time>
      </trkpt>
      <trkpt lat="44.03318" lon="5.99448">
        <ele>551</ele>
        <time>2021-12-21T13:00:15.000Z</time>
      </trkpt>
      <trkpt lat="44.03319" lon="5.99449">
        <ele>551</ele>
        <time>2021-12-21T13:00:16.000Z</time>
      </trkpt>
      <trkpt lat="44.0332" lon="5.99451">
        <ele>551</ele>
        <time>2021-12-21T13:00:17.000Z</time>
      </trkpt>
      <trkpt lat="44.03321" lon="5.99452">
        <ele>551</ele>
        <time>2021-12-21T13:00:18.000Z</time>
      </trkpt>
      <trkpt lat="44.03322" lon="5.99453">
        <ele>551</ele>
        <time>2021-12-21T13:00:19.000Z</time>
      </trkpt>
      <trkpt lat="44.03322" lon="5.99453">
        <ele>551</ele>
        <time>2021-12-21T13:00:20.000Z</time>
      </trkpt>
      <trkpt lat="44.03323" lon="5.99454">
        <ele>551</ele>
        <time>2021-12-21T13:00:21.000Z</time>
      </trkpt>
      <trkpt lat="44.03324" lon="5.99455">
        <ele>551</ele>
        <time>2021-12-21T13:00:22.000Z</time>
      </trkpt>
      <trkpt lat="44.03325" lon="5.99456">
        <ele>552</ele>
        <time>2021-12-21T13:00:23.000Z</time>
      </trkpt>
      <trkpt lat="44.03326" lon="5.99457">
        <ele>552</ele>
        <time>2021-12-21T13:00:24.000Z</time>
      </trkpt>
      <trkpt lat="44.03327" lon="5.99459">
        <ele>552</ele>
        <time>2021-12-21T13:00:25.000Z</time>
      </trkpt>
      <trkpt lat="44.03327" lon="5.99459">
        <ele>552</ele>
        <time>2021-12-21T13:00:26.000Z</time>
      </trkpt>
      <trkpt lat="44.03328" lon="5.9946">
        <ele>552</ele>
        <time>2021-12-21T13:00:27.000Z</time>
      </trkpt>
      <trkpt lat="44.03329" lon="5.99461">
        <ele>552</ele>
        <time>2021-12-21T13:00:28.000Z</time>
      </trkpt>
      <trkpt lat="44.0333" lon="5.99462">
        <ele>552</ele>
        <time>2021-12-21T13:00:29.000Z</time>
      </trkpt>
      <trkpt lat="44.03331" lon="5.99463">
        <ele>552</ele>
        <time>2021-12-21T13:00:30.000Z</time>
      </trkpt>
      <trkpt lat="44.03332" lon="5.99463">
        <ele>552</ele>
        <time>2021-12-21T13:00:31.000Z</time>
      </trkpt>
      <trkpt lat="44.03332" lon="5.99464">
        <ele>552</ele>
        <time>2021-12-21T13:00:32.000Z</time>
      </trkpt>
      <trkpt lat="44.03333" lon="5.99465">
        <ele>552</ele>
        <time>2021-12-21T13:00:33.000Z</time>
      </trkpt>
      <trkpt lat="44.03334" lon="5.99465">
        <ele>552</ele>
        <time>2021-12-21T13:00:34.000Z</time>
      </trkpt>
      <trkpt lat="44.03335" lon="5.99466">
        <ele>552</ele>
        <time>2021-12-21T13:00:35.000Z</time>
      </trkpt>
      <trkpt lat="44.03335" lon="5.99466">
        <ele>552</ele>
        <time>2021-12-21T13:00:36.000Z</time>
      </trkpt>
      <trkpt lat="44.03336" lon="5.99467">
        <ele>552</ele>
        <time>2021-12-21T13:00:37.000Z</time>
      </trkpt>
      <trkpt lat="44.03337" lon="5.99467">
        <ele>551</ele>
        <time>2021-12-21T13:00:38.000Z</time>
      </trkpt>
      <trkpt lat="44.03338" lon="5.99467">
        <ele>551</ele>
        <time>2021-12-21T13:00:39.000Z</time>
      </trkpt>
      <trkpt lat="44.03339" lon="5.99468">
        <ele>551</ele>
        <time>2021-12-21T13:00:40.000Z</time>
      </trkpt>
      <trkpt lat="44.0334" lon="5.99468">
        <ele>551</ele>
        <time>2021-12-21T13:00:41.000Z</time>
      </trkpt>
      <trkpt lat="44.0334" lon="5.99468">
        <ele>551</ele>
        <time>2021-12-21T13:00:42.000Z</time>
      </trkpt>
      <trkpt lat="44.03341" lon="5.99469">
        <ele>551</ele>
        <time>2021-12-21T13:00:43.000Z</time>
      </trkpt>
      <trkpt lat="44.03342" lon="5.99469">
        <ele>551</ele>
        <time>2021-12-21T13:00:44.000Z</time>
      </trkpt>
      <trkpt lat="44.03343" lon="5.9947">
        <ele>551</ele>
        <time>2021-12-21T13:00:45.000Z</time>
      </trkpt>
      <trkpt lat="44.03343" lon="5.9947">
        <ele>551</ele>
        <time>2021-12-21T13:00:46.000Z</time>
      </trkpt>
      <trkpt lat="44.03344" lon="5.9947">
        <ele>550</ele>
        <time>2021-12-21T13:00:47.000Z</time>
      </trkpt>
      <trkpt lat="44.03345" lon="5.99471">
        <ele>550</ele>
        <time>2021-12-21T13:00:48.000Z</time>
      </trkpt>
      <trkpt lat="44.03345" lon="5.99471">
        <ele>550</ele>
        <time>2021-12-21T13:00:49.000Z</time>
      </trkpt>
      <trkpt lat="44.03346" lon="5.99472">
        <ele>550</ele>
        <time>2021-12-21T13:00:50.000Z</time>
      </trkpt>
      <trkpt lat="44.03346" lon="5.99472">
        <ele>550</ele>
        <time>2021-12-21T13:00:51.000Z</time>
      </trkpt>
      <trkpt lat="44.03346" lon="5.99472">
        <ele>550</ele>
        <time>2021-12-21T13:00:52.000Z</time>
      </trkpt>
      <trkpt lat="44.03347" lon="5.99471">
        <ele>550</ele>
        <time>2021-12-21T13:00:53.000Z</time>
      </trkpt>
      <trkpt lat="44.03347" lon="5.99471">
        <ele>549</ele>
        <time>2021-12-21T13:00:54.000Z</time>
      </trkpt>
      <trkpt lat="44.03348" lon="5.99471">
        <ele>549</ele>
        <time>2021-12-21T13:00:55.000Z</time>
      </trkpt>
      <trkpt lat="44.03349" lon="5.99471">
        <ele>549</ele>
        <time>2021-12-21T13:00:56.000Z</time>
      </trkpt>
      <trkpt lat="44.03349" lon="5.9947">
        <ele>549</ele>
        <time>2021-12-21T13:00:57.000Z</time>
      </trkpt>
      <trkpt lat="44.03351" lon="5.9947">
        <ele>548</ele>
        <time>2021-12-21T13:00:58.000Z</time>
      </trkpt>
      <trkpt lat="44.03352" lon="5.9947">
        <ele>548</ele>
        <time>2021-12-21T13:00:59.000Z</time>
      </trkpt>
      <trkpt lat="44.03353" lon="5.99469">
        <ele>548</ele>
        <time>2021-12-21T13:01:00.000Z</time>
      </trkpt>
      <trkpt lat="44.03353" lon="5.99469">
        <ele>547</ele>
        <time>2021-12-21T13:01:01.000Z</time>
      </trkpt>
      <trkpt lat="44.03355" lon="5.99468">
        <ele>547</ele>
        <time>2021-12-21T13:01:02.000Z</time>
      </trkpt>
      <trkpt lat="44.03356" lon="5.99467">
        <ele>547</ele>
        <time>2021-12-21T13:01:03.000Z</time>
      </trkpt>
      <trkpt lat="44.03357" lon="5.99466">
        <ele>546</ele>
        <time>2021-12-21T13:01:04.000Z</time>
      </trkpt>
      <trkpt lat="44.03358" lon="5.99466">
        <ele>546</ele>
        <time>2021-12-21T13:01:05.000Z</time>
      </trkpt>
      <trkpt lat="44.03358" lon="5.99465">
        <ele>546</ele>
        <time>2021-12-21T13:01:06.000Z</time>
      </trkpt>
      <trkpt lat="44.03357" lon="5.99465">
        <ele>546</ele>
        <time>2021-12-21T13:01:07.000Z</time>
      </trkpt>
      <trkpt lat="44.03357" lon="5.99465">
        <ele>545</ele>
        <time>2021-12-21T13:01:08.000Z</time>
      </trkpt>
      <trkpt lat="44.03357" lon="5.99466">
        <ele>545</ele>
        <time>2021-12-21T13:01:09.000Z</time>
      </trkpt>
      <trkpt lat="44.03357" lon="5.99466">
        <ele>545</ele>
        <time>2021-12-21T13:01:10.000Z</time>
      </trkpt>
      <trkpt lat="44.03357" lon="5.99466">
        <ele>545</ele>
        <time>2021-12-21T13:01:11.000Z</time>
      </trkpt>
      <trkpt lat="44.03357" lon="5.99466">
        <ele>544</ele>
        <time>2021-12-21T13:01:12.000Z</time>
      </trkpt>
      <trkpt lat="44.03357" lon="5.99466">
        <ele>544</ele>
        <time>2021-12-21T13:01:13.000Z</time>
      </trkpt>
      <trkpt lat="44.03356" lon="5.99466">
        <ele>544</ele>
        <time>2021-12-21T13:01:14.000Z</time>
      </trkpt>
      <trkpt lat="44.03356" lon="5.99466">
        <ele>544</ele>
        <time>2021-12-21T13:01:15.000Z</time>
      </trkpt>
      <trkpt lat="44.03356" lon="5.99466">
        <ele>543</ele>
        <time>2021-12-21T13:32:36.785Z</time>
      </trkpt>
      <trkpt lat="44.03356" lon="5.99466">
        <ele>543</ele>
        <time>2021-12-21T13:32:37.785Z</time>
      </trkpt>
      <trkpt lat="44.03356" lon="5.99466">
        <ele>543</ele>
        <time>2021-12-21T13:32:38.785Z</time>
      </trkpt>
      <trkpt lat="44.03356" lon="5.99466">
        <ele>542</ele>
        <time>2021-12-21T13:32:39.785Z</time>
      </trkpt>
      <trkpt lat="44.03356" lon="5.99466">
        <ele>542</ele>
        <time>2021-12-21T13:32:40.785Z</time>
      </trkpt>
      <trkpt lat="44.03356" lon="5.99466">
        <ele>542</ele>
        <time>2021-12-21T13:32:41.785Z</time>
      </trkpt>
      <trkpt lat="44.03355" lon="5.99466">
        <ele>542</ele>
        <time>2021-12-21T13:32:42.785Z</time>
      </trkpt>
      <trkpt lat="44.03355" lon="5.99466">
        <ele>542</ele>
        <time>2021-12-21T13:32:43.785Z</time>
      </trkpt>
      <trkpt lat="44.03355" lon="5.99466">
        <ele>541</ele>
        <time>2021-12-21T13:32:44.785Z</time>
      </trkpt>
      <trkpt lat="44.03355" lon="5.99466">
        <ele>541</ele>
        <time>2021-12-21T13:32:45.785Z</time>
      </trkpt>
      <trkpt lat="44.03355" lon="5.99466">
        <ele>541</ele>
        <time>2021-12-21T13:32:46.785Z</time>
      </trkpt>
      <trkpt lat="44.03355" lon="5.99466">
        <ele>541</ele>
        <time>2021-12-21T13:32:47.785Z</time>
      </trkpt>
      <trkpt lat="44.03355" lon="5.99466">
        <ele>541</ele>
        <time>2021-12-21T13:32:48.785Z</time>
      </trkpt>
      <trkpt lat="44.03355" lon="5.99466">
        <ele>540</ele>
        <time>2021-12-21T13:32:49.785Z</time>
      </trkpt>
      <trkpt lat="44.03355" lon="5.99466">
        <ele>540</ele>
        <time>2021-12-21T13:32:50.785Z</time>
      </trkpt>
      <trkpt lat="44.03354" lon="5.99466">
        <ele>540</ele>
        <time>2021-12-21T13:32:51.785Z</time>
      </trkpt>
      <trkpt lat="44.03354" lon="5.99466">
        <ele>540</ele>
        <time>2021-12-21T13:32:52.785Z</time>
      </trkpt>
      <trkpt lat="44.03354" lon="5.99466">
        <ele>539</ele>
        <time>2021-12-21T13:32:53.785Z</time>
      </trkpt>
      <trkpt lat="44.03354" lon="5.99465">
        <ele>539</ele>
        <time>2021-12-21T13:32:54.785Z</time>
      </trkpt>
      <trkpt lat="44.03354" lon="5.99465">
        <ele>539</ele>
        <time>2021-12-21T13:32:55.785Z</time>
      </trkpt>
      <trkpt lat="44.03353" lon="5.99465">
        <ele>539</ele>
        <time>2021-12-21T13:32:56.785Z</time>
      </trkpt>
      <trkpt lat="44.03353" lon="5.99465">
        <ele>539</ele>
        <time>2021-12-21T13:32:57.785Z</time>
      </trkpt>
      <trkpt lat="44.03353" lon="5.99465">
        <ele>539</ele>
        <time>2021-12-21T13:32:58.785Z</time>
      </trkpt>
      <trkpt lat="44.03353" lon="5.99465">
        <ele>538</ele>
        <time>2021-12-21T13:32:59.785Z</time>
      </trkpt>
      <trkpt lat="44.03353" lon="5.99465">
        <ele>538</ele>
        <time>2021-12-21T13:33:00.785Z</time>
      </trkpt>
      <trkpt lat="44.03353" lon="5.99465">
        <ele>538</ele>
        <time>2021-12-21T13:33:01.785Z</time>
      </trkpt>
      <trkpt lat="44.03352" lon="5.99465">
        <ele>538</ele>
        <time>2021-12-21T13:33:02.785Z</time>
      </trkpt>
      <trkpt lat="44.03352" lon="5.99465">
        <ele>538</ele>
        <time>2021-12-21T13:33:03.785Z</time>
      </trkpt>
      <trkpt lat="44.03352" lon="5.99465">
        <ele>537</ele>
        <time>2021-12-21T13:33:04.785Z</time>
      </trkpt>
      <trkpt lat="44.03352" lon="5.99465">
        <ele>537</ele>
        <time>2021-12-21T13:33:05.785Z</time>
      </trkpt>
      <trkpt lat="44.03352" lon="5.99465">
        <ele>537</ele>
        <time>2021-12-21T13:33:06.785Z</time>
      </trkpt>
      <trkpt lat="44.03352" lon="5.99465">
        <ele>537</ele>
        <time>2021-12-21T13:33:07.785Z</time>
      </trkpt>
      <trkpt lat="44.03352" lon="5.99465">
        <ele>537</ele>
        <time>2021-12-21T13:33:08.785Z</time>
      </trkpt>
      <trkpt lat="44.03352" lon="5.99465">
        <ele>536</ele>
        <time>2021-12-21T13:33:09.785Z</time>
      </trkpt>
      <trkpt lat="44.03352" lon="5.99465">
        <ele>536</ele>
        <time>2021-12-21T13:33:10.785Z</time>
      </trkpt>
      <trkpt lat="44.03352" lon="5.99466">
        <ele>536</ele>
        <time>2021-12-21T13:33:11.785Z</time>
      </trkpt>
      <trkpt lat="44.03352" lon="5.99467">
        <ele>536</ele>
        <time>2021-12-21T13:33:12.785Z</time>
      </trkpt>
      <trkpt lat="44.03351" lon="5.99467">
        <ele>536</ele>
        <time>2021-12-21T13:33:13.785Z</time>
      </trkpt>
      <trkpt lat="44.03351" lon="5.99468">
        <ele>536</ele>
        <time>2021-12-21T13:33:14.785Z</time>
      </trkpt>
      <trkpt lat="44.03351" lon="5.99468">
        <ele>535</ele>
        <time>2021-12-21T13:33:15.785Z</time>
      </trkpt>
      <trkpt lat="44.03351" lon="5.99468">
        <ele>535</ele>
        <time>2021-12-21T13:33:16.785Z</time>
      </trkpt>
      <trkpt lat="44.03351" lon="5.99468">
        <ele>535</ele>
        <time>2021-12-21T13:33:17.785Z</time>
      </trkpt>
      <trkpt lat="44.03351" lon="5.99468">
        <ele>535</ele>
        <time>2021-12-21T13:33:18.785Z</time>
      </trkpt>
      <trkpt lat="44.03351" lon="5.99469">
        <ele>535</ele>
        <time>2021-12-21T13:33:19.785Z</time>
      </trkpt>
      <trkpt lat="44.03351" lon="5.9947">
        <ele>535</ele>
        <time>2021-12-21T13:33:20.785Z</time>
      </trkpt>
      <trkpt lat="44.03351" lon="5.99471">
        <ele>535</ele>
        <time>2021-12-21T13:33:21.785Z</time>
      </trkpt>
      <trkpt lat="44.03351" lon="5.99472">
        <ele>535</ele>
        <time>2021-12-21T13:33:22.785Z</time>
      </trkpt>
      <trkpt lat="44.03351" lon="5.99474">
        <ele>535</ele>
        <time>2021-12-21T13:33:23.785Z</time>
      </trkpt>
      <trkpt lat="44.03351" lon="5.99475">
        <ele>534</ele>
        <time>2021-12-21T13:33:24.785Z</time>
      </trkpt>
      <trkpt lat="44.03352" lon="5.99475">
        <ele>534</ele>
        <time>2021-12-21T13:33:25.785Z</time>
      </trkpt>
      <trkpt lat="44.03352" lon="5.99476">
        <ele>534</ele>
        <time>2021-12-21T13:33:26.785Z</time>
      </trkpt>
      <trkpt lat="44.03353" lon="5.99476">
        <ele>534</ele>
        <time>2021-12-21T13:33:27.785Z</time>
      </trkpt>
      <trkpt lat="44.03354" lon="5.99477">
        <ele>534</ele>
        <time>2021-12-21T13:33:28.785Z</time>
      </trkpt>
      <trkpt lat="44.03354" lon="5.99477">
        <ele>534</ele>
        <time>2021-12-21T13:33:29.785Z</time>
      </trkpt>
      <trkpt lat="44.03355" lon="5.99478">
        <ele>534</ele>
        <time>2021-12-21T13:33:30.785Z</time>
      </trkpt>
      <trkpt lat="44.03355" lon="5.99479">
        <ele>534</ele>
        <time>2021-12-21T13:33:31.785Z</time>
      </trkpt>
      <trkpt lat="44.03355" lon="5.9948">
        <ele>533</ele>
        <time>2021-12-21T13:33:32.785Z</time>
      </trkpt>
      <trkpt lat="44.03355" lon="5.99482">
        <ele>533</ele>
        <time>2021-12-21T13:33:33.785Z</time>
      </trkpt>
      <trkpt lat="44.03355" lon="5.99483">
        <ele>533</ele>
        <time>2021-12-21T13:33:34.785Z</time>
      </trkpt>
      <trkpt lat="44.03354" lon="5.99484">
        <ele>533</ele>
        <time>2021-12-21T13:33:35.785Z</time>
      </trkpt>
      <trkpt lat="44.03354" lon="5.99485">
        <ele>532</ele>
        <time>2021-12-21T13:33:36.785Z</time>
      </trkpt>
      <trkpt lat="44.03354" lon="5.99486">
        <ele>532</ele>
        <time>2021-12-21T13:33:37.785Z</time>
      </trkpt>
      <trkpt lat="44.03354" lon="5.99486">
        <ele>532</ele>
        <time>2021-12-21T13:33:38.785Z</time>
      </trkpt>
      <trkpt lat="44.03355" lon="5.99485">
        <ele>531</ele>
        <time>2021-12-21T13:33:39.785Z</time>
      </trkpt>
      <trkpt lat="44.03356" lon="5.99485">
        <ele>531</ele>
        <time>2021-12-21T13:33:40.785Z</time>
      </trkpt>
      <trkpt lat="44.03356" lon="5.99484">
        <ele>531</ele>
        <time>2021-12-21T13:33:41.785Z</time>
      </trkpt>
      <trkpt lat="44.03357" lon="5.99484">
        <ele>531</ele>
        <time>2021-12-21T13:33:42.785Z</time>
      </trkpt>
      <trkpt lat="44.03358" lon="5.99483">
        <ele>531</ele>
        <time>2021-12-21T13:33:43.785Z</time>
      </trkpt>
      <trkpt lat="44.03358" lon="5.99483">
        <ele>531</ele>
        <time>2021-12-21T13:33:44.785Z</time>
      </trkpt>
      <trkpt lat="44.03359" lon="5.99482">
        <ele>530</ele>
        <time>2021-12-21T13:33:45.785Z</time>
      </trkpt>
      <trkpt lat="44.03359" lon="5.99482">
        <ele>530</ele>
        <time>2021-12-21T13:33:46.785Z</time>
      </trkpt>
      <trkpt lat="44.03359" lon="5.99482">
        <ele>530</ele>
        <time>2021-12-21T13:33:47.785Z</time>
      </trkpt>
      <trkpt lat="44.0336" lon="5.99481">
        <ele>530</ele>
        <time>2021-12-21T13:33:48.785Z</time>
      </trkpt>
      <trkpt lat="44.03361" lon="5.99481">
        <ele>530</ele>
        <time>2021-12-21T13:33:49.785Z</time>
      </trkpt>
      <trkpt lat="44.03361" lon="5.9948">
        <ele>530</ele>
        <time>2021-12-21T13:33:50.785Z</time>
      </trkpt>
      <trkpt lat="44.03362" lon="5.99481">
        <ele>530</ele>
        <time>2021-12-21T13:33:51.785Z</time>
      </trkpt>
      <trkpt lat="44.03363" lon="5.99481">
        <ele>530</ele>
        <time>2021-12-21T13:33:52.785Z</time>
      </trkpt>
      <trkpt lat="44.03364" lon="5.99481">
        <ele>530</ele>
        <time>2021-12-21T13:33:53.785Z</time>
      </trkpt>
      <trkpt lat="44.03364" lon="5.99481">
        <ele>530</ele>
        <time>2021-12-21T13:33:54.785Z</time>
      </trkpt>
      <trkpt lat="44.03365" lon="5.99482">
        <ele>530</ele>
        <time>2021-12-21T13:33:55.785Z</time>
      </trkpt>
      <trkpt lat="44.03365" lon="5.99483">
        <ele>530</ele>
        <time>2021-12-21T13:33:56.785Z</time>
      </trkpt>
      <trkpt lat="44.03364" lon="5.99484">
        <ele>530</ele>
        <time>2021-12-21T13:33:57.785Z</time>
      </trkpt>
      <trkpt lat="44.03364" lon="5.99485">
        <ele>529</ele>
        <time>2021-12-21T13:33:58.785Z</time>
      </trkpt>
      <trkpt lat="44.03363" lon="5.99486">
        <ele>529</ele>
        <time>2021-12-21T13:33:59.785Z</time>
      </trkpt>
      <trkpt lat="44.03363" lon="5.99487">
        <ele>529</ele>
        <time>2021-12-21T13:34:00.785Z</time>
      </trkpt>
      <trkpt lat="44.03363" lon="5.99488">
        <ele>529</ele>
        <time>2021-12-21T13:34:01.785Z</time>
      </trkpt>
      <trkpt lat="44.03363" lon="5.99489">
        <ele>528</ele>
        <time>2021-12-21T13:34:02.785Z</time>
      </trkpt>
      <trkpt lat="44.03363" lon="5.9949">
        <ele>528</ele>
        <time>2021-12-21T13:34:03.785Z</time>
      </trkpt>
      <trkpt lat="44.03363" lon="5.9949">
        <ele>528</ele>
        <time>2021-12-21T13:34:04.785Z</time>
      </trkpt>
      <trkpt lat="44.03363" lon="5.9949">
        <ele>528</ele>
        <time>2021-12-21T13:34:05.785Z</time>
      </trkpt>
      <trkpt lat="44.03364" lon="5.9949">
        <ele>527</ele>
        <time>2021-12-21T13:34:06.785Z</time>
      </trkpt>
      <trkpt lat="44.03364" lon="5.99489">
        <ele>527</ele>
        <time>2021-12-21T13:34:07.785Z</time>
      </trkpt>
      <trkpt lat="44.03365" lon="5.99489">
        <ele>527</ele>
        <time>2021-12-21T13:34:08.785Z</time>
      </trkpt>
      <trkpt lat="44.03366" lon="5.99488">
        <ele>527</ele>
        <time>2021-12-21T13:34:09.785Z</time>
      </trkpt>
      <trkpt lat="44.03367" lon="5.99488">
        <ele>527</ele>
        <time>2021-12-21T13:34:10.785Z</time>
      </trkpt>
      <trkpt lat="44.03367" lon="5.99487">
        <ele>526</ele>
        <time>2021-12-21T13:34:11.785Z</time>
      </trkpt>
      <trkpt lat="44.03368" lon="5.99487">
        <ele>526</ele>
        <time>2021-12-21T13:34:12.785Z</time>
      </trkpt>
      <trkpt lat="44.03369" lon="5.99486">
        <ele>526</ele>
        <time>2021-12-21T13:34:13.785Z</time>
      </trkpt>
      <trkpt lat="44.03369" lon="5.99486">
        <ele>526</ele>
        <time>2021-12-21T13:34:14.785Z</time>
      </trkpt>
      <trkpt lat="44.0337" lon="5.99486">
        <ele>525</ele>
        <time>2021-12-21T13:34:15.785Z</time>
      </trkpt>
      <trkpt lat="44.03372" lon="5.99485">
        <ele>525</ele>
        <time>2021-12-21T13:34:16.785Z</time>
      </trkpt>
      <trkpt lat="44.03372" lon="5.99485">
        <ele>525</ele>
        <time>2021-12-21T13:34:17.785Z</time>
      </trkpt>
      <trkpt lat="44.03373" lon="5.99484">
        <ele>525</ele>
        <time>2021-12-21T13:34:18.785Z</time>
      </trkpt>
      <trkpt lat="44.03374" lon="5.99483">
        <ele>524</ele>
        <time>2021-12-21T13:34:19.785Z</time>
      </trkpt>
      <trkpt lat="44.03375" lon="5.99483">
        <ele>524</ele>
        <time>2021-12-21T13:34:20.785Z</time>
      </trkpt>
      <trkpt lat="44.03375" lon="5.99482">
        <ele>524</ele>
        <time>2021-12-21T13:34:21.785Z</time>
      </trkpt>
      <trkpt lat="44.03375" lon="5.99481">
        <ele>524</ele>
        <time>2021-12-21T13:34:22.785Z</time>
      </trkpt>
      <trkpt lat="44.03375" lon="5.99481">
        <ele>523</ele>
        <time>2021-12-21T13:34:23.785Z</time>
      </trkpt>
      <trkpt lat="44.03375" lon="5.99481">
        <ele>523</ele>
        <time>2021-12-21T13:34:24.785Z</time>
      </trkpt>
      <trkpt lat="44.03375" lon="5.99481">
        <ele>523</ele>
        <time>2021-12-21T13:34:25.785Z</time>
      </trkpt>
      <trkpt lat="44.03374" lon="5.99481">
        <ele>522</ele>
        <time>2021-12-21T13:34:26.785Z</time>
      </trkpt>
      <trkpt lat="44.03374" lon="5.9948">
        <ele>522</ele>
        <time>2021-12-21T13:34:27.785Z</time>
      </trkpt>
      <trkpt lat="44.03374" lon="5.99479">
        <ele>522</ele>
        <time>2021-12-21T13:34:28.785Z</time>
      </trkpt>
      <trkpt lat="44.03375" lon="5.99479">
        <ele>522</ele>
        <time>2021-12-21T13:34:29.785Z</time>
      </trkpt>
      <trkpt lat="44.03375" lon="5.99479">
        <ele>521</ele>
        <time>2021-12-21T13:34:30.785Z</time>
      </trkpt>
      <trkpt lat="44.03375" lon="5.99479">
        <ele>521</ele>
        <time>2021-12-21T13:34:31.785Z</time>
      </trkpt>
      <trkpt lat="44.03376" lon="5.99479">
        <ele>521</ele>
        <time>2021-12-21T13:34:32.785Z</time>
      </trkpt>
      <trkpt lat="44.03377" lon="5.9948">
        <ele>520</ele>
        <time>2021-12-21T13:34:33.785Z</time>
      </trkpt>
      <trkpt lat="44.03377" lon="5.99481">
        <ele>520</ele>
        <time>2021-12-21T13:34:34.785Z</time>
      </trkpt>
      <trkpt lat="44.03378" lon="5.99481">
        <ele>520</ele>
        <time>2021-12-21T13:34:35.785Z</time>
      </trkpt>
      <trkpt lat="44.03378" lon="5.99482">
        <ele>520</ele>
        <time>2021-12-21T13:34:36.785Z</time>
      </trkpt>
      <trkpt lat="44.03379" lon="5.99482">
        <ele>520</ele>
        <time>2021-12-21T13:34:37.785Z</time>
      </trkpt>
      <trkpt lat="44.03379" lon="5.99482">
        <ele>520</ele>
        <time>2021-12-21T13:34:38.785Z</time>
      </trkpt>
      <trkpt lat="44.0338" lon="5.99482">
        <ele>520</ele>
        <time>2021-12-21T13:34:39.785Z</time>
      </trkpt>
      <trkpt lat="44.0338" lon="5.99481">
        <ele>520</ele>
        <time>2021-12-21T13:34:40.785Z</time>
      </trkpt>
      <trkpt lat="44.0338" lon="5.99481">
        <ele>519</ele>
        <time>2021-12-21T13:34:41.785Z</time>
      </trkpt>
      <trkpt lat="44.0338" lon="5.99481">
        <ele>519</ele>
        <time>2021-12-21T13:34:42.785Z</time>
      </trkpt>
      <trkpt lat="44.0338" lon="5.99481">
        <ele>519</ele>
        <time>2021-12-21T13:34:43.785Z</time>
      </trkpt>
      <trkpt lat="44.0338" lon="5.99481">
        <ele>519</ele>
        <time>2021-12-21T13:34:44.785Z</time>
      </trkpt>
      <trkpt lat="44.0338" lon="5.99481">
        <ele>519</ele>
        <time>2021-12-21T13:34:45.785Z</time>
      </trkpt>
      <trkpt lat="44.0338" lon="5.99481">
        <ele>519</ele>
        <time>2021-12-21T13:34:46.785Z</time>
      </trkpt>
      <trkpt lat="44.0338" lon="5.9948">
        <ele>519</ele>
        <time>2021-12-21T13:34:47.785Z</time>
      </trkpt>
      <trkpt lat="44.0338" lon="5.9948">
        <ele>519</ele>
        <time>2021-12-21T13:34:48.785Z</time>
      </trkpt>
      <trkpt lat="44.0338" lon="5.9948">
        <ele>519</ele>
        <time>2021-12-21T13:34:49.785Z</time>
      </trkpt>
      <trkpt lat="44.03379" lon="5.9948">
        <ele>519</ele>
        <time>2021-12-21T13:34:50.785Z</time>
      </trkpt>
      <trkpt lat="44.03379" lon="5.9948">
        <ele>519</ele>
        <time>2021-12-21T13:34:51.785Z</time>
      </trkpt>
      <trkpt lat="44.03379" lon="5.9948">
        <ele>519</ele>
        <time>2021-12-21T13:34:52.785Z</time>
      </trkpt>
      <trkpt lat="44.03379" lon="5.99479">
        <ele>519</ele>
        <time>2021-12-21T13:34:53.785Z</time>
      </trkpt>
      <trkpt lat="44.03379" lon="5.99479">
        <ele>519</ele>
        <time>2021-12-21T13:34:54.785Z</time>
      </trkpt>
      <trkpt lat="44.03379" lon="5.99479">
        <ele>519</ele>
        <time>2021-12-21T13:34:55.785Z</time>
      </trkpt>
      <trkpt lat="44.03379" lon="5.99479">
        <ele>519</ele>
        <time>2021-12-21T13:34:56.785Z</time>
      </trkpt>
      <trkpt lat="44.03379" lon="5.99479">
        <ele>519</ele>
        <time>2021-12-21T13:34:57.785Z</time>
      </trkpt>
      <trkpt lat="44.03379" lon="5.99479">
        <ele>519</ele>
        <time>2021-12-21T13:34:58.785Z</time>
      </trkpt>
      <trkpt lat="44.03379" lon="5.99479">
        <ele>519</ele>
        <time>2021-12-21T13:34:59.785Z</time>
      </trkpt>
      <trkpt lat="44.03379" lon="5.99479">
        <ele>519</ele>
        <time>2021-12-21T13:35:00.785Z</time>
      </trkpt>
      <trkpt lat="44.03379" lon="5.99479">
        <ele>518</ele>
        <time>2021-12-21T13:35:01.785Z</time>
      </trkpt>
      <trkpt lat="44.03379" lon="5.99479">
        <ele>518</ele>
        <time>2021-12-21T13:35:02.785Z</time>
      </trkpt>
      <trkpt lat="44.03379" lon="5.99479">
        <ele>518</ele>
        <time>2021-12-21T13:35:03.785Z</time>
      </trkpt>
      <trkpt lat="44.03379" lon="5.99479">
        <ele>518</ele>
        <time>2021-12-21T13:35:04.785Z</time>
      </trkpt>
      <trkpt lat="44.03379" lon="5.99479">
        <ele>518</ele>
        <time>2021-12-21T13:35:05.785Z</time>
      </trkpt>
      <trkpt lat="44.03379" lon="5.99479">
        <ele>518</ele>
        <time>2021-12-21T13:35:06.785Z</time>
      </trkpt>
      <trkpt lat="44.03379" lon="5.99479">
        <ele>518</ele>
        <time>2021-12-21T13:35:07.785Z</time>
      </trkpt>
      <trkpt lat="44.03379" lon="5.99479">
        <ele>518</ele>
        <time>2021-12-21T13:35:08.785Z</time>
      </trkpt>
      <trkpt lat="44.03379" lon="5.99479">
        <ele>518</ele>
        <time>2021-12-21T13:35:09.785Z</time>
      </trkpt>
      <trkpt lat="44.03379" lon="5.99479">
        <ele>518</ele>
        <time>2021-12-21T13:35:10.785Z</time>
      </trkpt>
      <trkpt lat="44.03379" lon="5.99479">
        <ele>518</ele>
        <time>2021-12-21T13:35:11.785Z</time>
      </trkpt>
      <trkpt lat="44.03379" lon="5.99479">
        <ele>518</ele>
        <time>2021-12-21T13:35:12.785Z</time>
      </trkpt>
      <trkpt lat="44.03379" lon="5.99479">
        <ele>518</ele>
        <time>2021-12-21T13:35:13.785Z</time>
      </trkpt>
      <trkpt lat="44.03379" lon="5.99478">
        <ele>518</ele>
        <time>2021-12-21T13:35:14.785Z</time>
      </trkpt>
      <trkpt lat="44.03379" lon="5.99478">
        <ele>518</ele>
        <time>2021-12-21T13:35:15.785Z</time>
      </trkpt>
      <trkpt lat="44.03379" lon="5.99478">
        <ele>518</ele>
        <time>2021-12-21T13:35:16.785Z</time>
      </trkpt>
      <trkpt lat="44.03379" lon="5.99478">
        <ele>518</ele>
        <time>2021-12-21T13:35:17.785Z</time>
      </trkpt>
      <trkpt lat="44.03379" lon="5.99478">
        <ele>518</ele>
        <time>2021-12-21T13:35:18.785Z</time>
      </trkpt>
      <trkpt lat="44.03379" lon="5.99478">
        <ele>518</ele>
        <time>2021-12-21T13:35:19.785Z</time>
      </trkpt>
      <trkpt lat="44.03379" lon="5.99478">
        <ele>518</ele>
        <time>2021-12-21T13:35:20.785Z</time>
      </trkpt>
      <trkpt lat="44.0338" lon="5.99478">
        <ele>518</ele>
        <time>2021-12-21T13:35:21.785Z</time>
      </trkpt>
      <trkpt lat="44.0338" lon="5.99478">
        <ele>518</ele>
        <time>2021-12-21T13:35:22.785Z</time>
      </trkpt>
      <trkpt lat="44.03381" lon="5.99478">
        <ele>518</ele>
        <time>2021-12-21T13:35:23.785Z</time>
      </trkpt>
      <trkpt lat="44.03382" lon="5.99479">
        <ele>517</ele>
        <time>2021-12-21T13:35:24.785Z</time>
      </trkpt>
      <trkpt lat="44.03382" lon="5.9948">
        <ele>517</ele>
        <time>2021-12-21T13:35:25.785Z</time>
      </trkpt>
      <trkpt lat="44.03383" lon="5.99481">
        <ele>517</ele>
        <time>2021-12-21T13:35:26.785Z</time>
      </trkpt>
      <trkpt lat="44.03384" lon="5.99482">
        <ele>517</ele>
        <time>2021-12-21T13:35:27.785Z</time>
      </trkpt>
      <trkpt lat="44.03384" lon="5.99482">
        <ele>517</ele>
        <time>2021-12-21T13:35:28.785Z</time>
      </trkpt>
      <trkpt lat="44.03384" lon="5.99482">
        <ele>517</ele>
        <time>2021-12-21T13:35:29.785Z</time>
      </trkpt>
      <trkpt lat="44.03384" lon="5.99481">
        <ele>517</ele>
        <time>2021-12-21T13:35:30.785Z</time>
      </trkpt>
      <trkpt lat="44.03385" lon="5.99481">
        <ele>517</ele>
        <time>2021-12-21T13:35:31.785Z</time>
      </trkpt>
      <trkpt lat="44.03385" lon="5.99481">
        <ele>517</ele>
        <time>2021-12-21T13:35:32.785Z</time>
      </trkpt>
      <trkpt lat="44.03386" lon="5.99481">
        <ele>517</ele>
        <time>2021-12-21T13:35:33.785Z</time>
      </trkpt>
      <trkpt lat="44.03387" lon="5.99482">
        <ele>517</ele>
        <time>2021-12-21T13:35:34.785Z</time>
      </trkpt>
      <trkpt lat="44.03387" lon="5.99482">
        <ele>518</ele>
        <time>2021-12-21T13:35:35.785Z</time>
      </trkpt>
      <trkpt lat="44.03388" lon="5.99483">
        <ele>518</ele>
        <time>2021-12-21T13:35:36.785Z</time>
      </trkpt>
      <trkpt lat="44.03388" lon="5.99484">
        <ele>518</ele>
        <time>2021-12-21T13:35:37.785Z</time>
      </trkpt>
      <trkpt lat="44.03389" lon="5.99484">
        <ele>518</ele>
        <time>2021-12-21T13:35:38.785Z</time>
      </trkpt>
      <trkpt lat="44.03389" lon="5.99485">
        <ele>518</ele>
        <time>2021-12-21T13:35:39.785Z</time>
      </trkpt>
      <trkpt lat="44.0339" lon="5.99485">
        <ele>518</ele>
        <time>2021-12-21T13:35:40.785Z</time>
      </trkpt>
      <trkpt lat="44.0339" lon="5.99485">
        <ele>518</ele>
        <time>2021-12-21T13:35:41.785Z</time>
      </trkpt>
      <trkpt lat="44.03391" lon="5.99485">
        <ele>518</ele>
        <time>2021-12-21T13:35:42.785Z</time>
      </trkpt>
      <trkpt lat="44.03391" lon="5.99485">
        <ele>518</ele>
        <time>2021-12-21T13:35:43.785Z</time>
      </trkpt>
      <trkpt lat="44.03391" lon="5.99486">
        <ele>518</ele>
        <time>2021-12-21T13:35:44.785Z</time>
      </trkpt>
      <trkpt lat="44.03392" lon="5.99487">
        <ele>518</ele>
        <time>2021-12-21T13:35:45.785Z</time>
      </trkpt>
      <trkpt lat="44.03392" lon="5.99489">
        <ele>518</ele>
        <time>2021-12-21T13:35:46.785Z</time>
      </trkpt>
      <trkpt lat="44.03392" lon="5.9949">
        <ele>518</ele>
        <time>2021-12-21T13:35:47.785Z</time>
      </trkpt>
      <trkpt lat="44.03392" lon="5.99491">
        <ele>518</ele>
        <time>2021-12-21T13:35:48.785Z</time>
      </trkpt>
      <trkpt lat="44.03392" lon="5.99491">
        <ele>517</ele>
        <time>2021-12-21T13:35:49.785Z</time>
      </trkpt>
      <trkpt lat="44.03393" lon="5.99492">
        <ele>517</ele>
        <time>2021-12-21T13:35:50.785Z</time>
      </trkpt>
      <trkpt lat="44.03393" lon="5.99494">
        <ele>517</ele>
        <time>2021-12-21T13:35:51.785Z</time>
      </trkpt>
      <trkpt lat="44.03392" lon="5.99495">
        <ele>516</ele>
        <time>2021-12-21T13:35:52.785Z</time>
      </trkpt>
      <trkpt lat="44.03392" lon="5.99496">
        <ele>516</ele>
        <time>2021-12-21T13:35:53.785Z</time>
      </trkpt>
      <trkpt lat="44.03391" lon="5.99497">
        <ele>516</ele>
        <time>2021-12-21T13:35:54.785Z</time>
      </trkpt>
      <trkpt lat="44.0339" lon="5.99498">
        <ele>516</ele>
        <time>2021-12-21T13:35:55.785Z</time>
      </trkpt>
      <trkpt lat="44.0339" lon="5.99499">
        <ele>515</ele>
        <time>2021-12-21T13:35:56.785Z</time>
      </trkpt>
      <trkpt lat="44.0339" lon="5.99499">
        <ele>515</ele>
        <time>2021-12-21T13:35:57.785Z</time>
      </trkpt>
      <trkpt lat="44.0339" lon="5.99499">
        <ele>515</ele>
        <time>2021-12-21T13:35:58.785Z</time>
      </trkpt>
      <trkpt lat="44.03391" lon="5.99499">
        <ele>514</ele>
        <time>2021-12-21T13:35:59.785Z</time>
      </trkpt>
      <trkpt lat="44.03391" lon="5.99499">
        <ele>514</ele>
        <time>2021-12-21T13:36:00.785Z</time>
      </trkpt>
      <trkpt lat="44.03392" lon="5.99499">
        <ele>513</ele>
        <time>2021-12-21T13:36:01.785Z</time>
      </trkpt>
      <trkpt lat="44.03393" lon="5.99498">
        <ele>513</ele>
        <time>2021-12-21T13:36:02.785Z</time>
      </trkpt>
      <trkpt lat="44.03393" lon="5.99498">
        <ele>513</ele>
        <time>2021-12-21T13:36:03.785Z</time>
      </trkpt>
      <trkpt lat="44.03394" lon="5.99498">
        <ele>513</ele>
        <time>2021-12-21T13:36:04.785Z</time>
      </trkpt>
      <trkpt lat="44.03395" lon="5.99498">
        <ele>512</ele>
        <time>2021-12-21T13:36:05.785Z</time>
      </trkpt>
      <trkpt lat="44.03396" lon="5.99498">
        <ele>512</ele>
        <time>2021-12-21T13:36:06.785Z</time>
      </trkpt>
      <trkpt lat="44.03397" lon="5.99498">
        <ele>512</ele>
        <time>2021-12-21T13:36:07.785Z</time>
      </trkpt>
      <trkpt lat="44.03398" lon="5.99498">
        <ele>512</ele>
        <time>2021-12-21T13:36:08.785Z</time>
      </trkpt>
      <trkpt lat="44.03398" lon="5.99497">
        <ele>512</ele>
        <time>2021-12-21T13:36:09.785Z</time>
      </trkpt>
      <trkpt lat="44.03398" lon="5.99497">
        <ele>511</ele>
        <time>2021-12-21T13:36:10.785Z</time>
      </trkpt>
      <trkpt lat="44.03399" lon="5.99496">
        <ele>511</ele>
        <time>2021-12-21T13:36:11.785Z</time>
      </trkpt>
      <trkpt lat="44.03399" lon="5.99496">
        <ele>511</ele>
        <time>2021-12-21T13:36:12.785Z</time>
      </trkpt>
      <trkpt lat="44.034" lon="5.99494">
        <ele>511</ele>
        <time>2021-12-21T13:36:13.785Z</time>
      </trkpt>
      <trkpt lat="44.03401" lon="5.99493">
        <ele>511</ele>
        <time>2021-12-21T13:36:14.785Z</time>
      </trkpt>
      <trkpt lat="44.03401" lon="5.99493">
        <ele>511</ele>
        <time>2021-12-21T13:36:15.785Z</time>
      </trkpt>
      <trkpt lat="44.03401" lon="5.99491">
        <ele>510</ele>
        <time>2021-12-21T13:36:16.785Z</time>
      </trkpt>
      <trkpt lat="44.03402" lon="5.99491">
        <ele>510</ele>
        <time>2021-12-21T13:36:17.785Z</time>
      </trkpt>
      <trkpt lat="44.03402" lon="5.99491">
        <ele>510</ele>
        <time>2021-12-21T13:36:18.785Z</time>
      </trkpt>
      <trkpt lat="44.03403" lon="5.99491">
        <ele>510</ele>
        <time>2021-12-21T13:36:19.785Z</time>
      </trkpt>
      <trkpt lat="44.03403" lon="5.99491">
        <ele>510</ele>
        <time>2021-12-21T13:36:20.785Z</time>
      </trkpt>
      <trkpt lat="44.03403" lon="5.9949">
        <ele>510</ele>
        <time>2021-12-21T13:36:21.785Z</time>
      </trkpt>
      <trkpt lat="44.03404" lon="5.9949">
        <ele>509</ele>
        <time>2021-12-21T13:36:22.785Z</time>
      </trkpt>
      <trkpt lat="44.03404" lon="5.99491">
        <ele>509</ele>
        <time>2021-12-21T13:36:23.785Z</time>
      </trkpt>
      <trkpt lat="44.03404" lon="5.99492">
        <ele>509</ele>
        <time>2021-12-21T13:36:24.785Z</time>
      </trkpt>
      <trkpt lat="44.03404" lon="5.99492">
        <ele>508</ele>
        <time>2021-12-21T13:36:25.785Z</time>
      </trkpt>
      <trkpt lat="44.03404" lon="5.99493">
        <ele>508</ele>
        <time>2021-12-21T13:36:26.785Z</time>
      </trkpt>
      <trkpt lat="44.03403" lon="5.99493">
        <ele>508</ele>
        <time>2021-12-21T13:36:27.785Z</time>
      </trkpt>
      <trkpt lat="44.03403" lon="5.99494">
        <ele>508</ele>
        <time>2021-12-21T13:36:28.785Z</time>
      </trkpt>
      <trkpt lat="44.03403" lon="5.99494">
        <ele>507</ele>
        <time>2021-12-21T13:36:29.785Z</time>
      </trkpt>
      <trkpt lat="44.03404" lon="5.99494">
        <ele>507</ele>
        <time>2021-12-21T13:36:34.551Z</time>
      </trkpt>
      <trkpt lat="44.03404" lon="5.99494">
        <ele>507</ele>
        <time>2021-12-21T13:36:35.551Z</time>
      </trkpt>
      <trkpt lat="44.03404" lon="5.99493">
        <ele>507</ele>
        <time>2021-12-21T13:36:36.551Z</time>
      </trkpt>
      <trkpt lat="44.03405" lon="5.99493">
        <ele>507</ele>
        <time>2021-12-21T13:36:37.551Z</time>
      </trkpt>
      <trkpt lat="44.03406" lon="5.99494">
        <ele>506</ele>
        <time>2021-12-21T13:36:38.551Z</time>
      </trkpt>
      <trkpt lat="44.03406" lon="5.99494">
        <ele>506</ele>
        <time>2021-12-21T13:36:39.551Z</time>
      </trkpt>
      <trkpt lat="44.03406" lon="5.99494">
        <ele>506</ele>
        <time>2021-12-21T13:36:40.551Z</time>
      </trkpt>
      <trkpt lat="44.03407" lon="5.99493">
        <ele>506</ele>
        <time>2021-12-21T13:36:41.551Z</time>
      </trkpt>
      <trkpt lat="44.03407" lon="5.99493">
        <ele>506</ele>
        <time>2021-12-21T13:36:42.551Z</time>
      </trkpt>
      <trkpt lat="44.03407" lon="5.99492">
        <ele>506</ele>
        <time>2021-12-21T13:36:43.551Z</time>
      </trkpt>
      <trkpt lat="44.03407" lon="5.99492">
        <ele>506</ele>
        <time>2021-12-21T13:36:44.551Z</time>
      </trkpt>
      <trkpt lat="44.03408" lon="5.99492">
        <ele>506</ele>
        <time>2021-12-21T13:36:45.551Z</time>
      </trkpt>
      <trkpt lat="44.03408" lon="5.99492">
        <ele>506</ele>
        <time>2021-12-21T13:36:46.551Z</time>
      </trkpt>
      <trkpt lat="44.03409" lon="5.99492">
        <ele>505</ele>
        <time>2021-12-21T13:36:47.551Z</time>
      </trkpt>
      <trkpt lat="44.03409" lon="5.99493">
        <ele>505</ele>
        <time>2021-12-21T13:36:48.551Z</time>
      </trkpt>
      <trkpt lat="44.03409" lon="5.99494">
        <ele>505</ele>
        <time>2021-12-21T13:36:49.551Z</time>
      </trkpt>
      <trkpt lat="44.0341" lon="5.99495">
        <ele>505</ele>
        <time>2021-12-21T13:36:50.551Z</time>
      </trkpt>
      <trkpt lat="44.0341" lon="5.99496">
        <ele>505</ele>
        <time>2021-12-21T13:36:51.551Z</time>
      </trkpt>
      <trkpt lat="44.0341" lon="5.99498">
        <ele>505</ele>
        <time>2021-12-21T13:36:52.551Z</time>
      </trkpt>
      <trkpt lat="44.0341" lon="5.99499">
        <ele>505</ele>
        <time>2021-12-21T13:36:53.551Z</time>
      </trkpt>
      <trkpt lat="44.0341" lon="5.99501">
        <ele>504</ele>
        <time>2021-12-21T13:36:54.551Z</time>
      </trkpt>
      <trkpt lat="44.0341" lon="5.99502">
        <ele>504</ele>
        <time>2021-12-21T13:36:55.551Z</time>
      </trkpt>
      <trkpt lat="44.0341" lon="5.99503">
        <ele>503</ele>
        <time>2021-12-21T13:36:56.551Z</time>
      </trkpt>
      <trkpt lat="44.0341" lon="5.99505">
        <ele>503</ele>
        <time>2021-12-21T13:36:57.551Z</time>
      </trkpt>
      <trkpt lat="44.0341" lon="5.99506">
        <ele>502</ele>
        <time>2021-12-21T13:36:58.551Z</time>
      </trkpt>
      <trkpt lat="44.0341" lon="5.99507">
        <ele>502</ele>
        <time>2021-12-21T13:36:59.551Z</time>
      </trkpt>
      <trkpt lat="44.0341" lon="5.99507">
        <ele>502</ele>
        <time>2021-12-21T13:37:00.551Z</time>
      </trkpt>
      <trkpt lat="44.03411" lon="5.99507">
        <ele>501</ele>
        <time>2021-12-21T13:37:01.551Z</time>
      </trkpt>
      <trkpt lat="44.03411" lon="5.99506">
        <ele>501</ele>
        <time>2021-12-21T13:37:02.551Z</time>
      </trkpt>
      <trkpt lat="44.03412" lon="5.99506">
        <ele>501</ele>
        <time>2021-12-21T13:37:03.551Z</time>
      </trkpt>
      <trkpt lat="44.03413" lon="5.99506">
        <ele>500</ele>
        <time>2021-12-21T13:37:04.551Z</time>
      </trkpt>
      <trkpt lat="44.03414" lon="5.99506">
        <ele>500</ele>
        <time>2021-12-21T13:37:05.551Z</time>
      </trkpt>
      <trkpt lat="44.03415" lon="5.99506">
        <ele>500</ele>
        <time>2021-12-21T13:37:06.551Z</time>
      </trkpt>
      <trkpt lat="44.03416" lon="5.99505">
        <ele>499</ele>
        <time>2021-12-21T13:37:07.551Z</time>
      </trkpt>
      <trkpt lat="44.03417" lon="5.99504">
        <ele>499</ele>
        <time>2021-12-21T13:37:08.551Z</time>
      </trkpt>
      <trkpt lat="44.03418" lon="5.99503">
        <ele>499</ele>
        <time>2021-12-21T13:37:09.551Z</time>
      </trkpt>
      <trkpt lat="44.03418" lon="5.99503">
        <ele>498</ele>
        <time>2021-12-21T13:37:10.551Z</time>
      </trkpt>
      <trkpt lat="44.03418" lon="5.99502">
        <ele>498</ele>
        <time>2021-12-21T13:37:11.551Z</time>
      </trkpt>
      <trkpt lat="44.03419" lon="5.99501">
        <ele>498</ele>
        <time>2021-12-21T13:37:12.551Z</time>
      </trkpt>
      <trkpt lat="44.0342" lon="5.99501">
        <ele>498</ele>
        <time>2021-12-21T13:37:13.551Z</time>
      </trkpt>
      <trkpt lat="44.03421" lon="5.995">
        <ele>497</ele>
        <time>2021-12-21T13:37:14.551Z</time>
      </trkpt>
      <trkpt lat="44.03421" lon="5.995">
        <ele>497</ele>
        <time>2021-12-21T13:37:15.551Z</time>
      </trkpt>
      <trkpt lat="44.03422" lon="5.995">
        <ele>497</ele>
        <time>2021-12-21T13:37:16.551Z</time>
      </trkpt>
      <trkpt lat="44.03423" lon="5.995">
        <ele>496</ele>
        <time>2021-12-21T13:37:17.551Z</time>
      </trkpt>
      <trkpt lat="44.03423" lon="5.995">
        <ele>496</ele>
        <time>2021-12-21T13:37:18.551Z</time>
      </trkpt>
      <trkpt lat="44.03423" lon="5.99499">
        <ele>496</ele>
        <time>2021-12-21T13:37:19.551Z</time>
      </trkpt>
      <trkpt lat="44.03423" lon="5.99499">
        <ele>495</ele>
        <time>2021-12-21T13:37:20.551Z</time>
      </trkpt>
      <trkpt lat="44.03423" lon="5.99498">
        <ele>495</ele>
        <time>2021-12-21T13:37:21.551Z</time>
      </trkpt>
      <trkpt lat="44.03423" lon="5.99497">
        <ele>495</ele>
        <time>2021-12-21T13:37:22.551Z</time>
      </trkpt>
      <trkpt lat="44.03423" lon="5.99496">
        <ele>495</ele>
        <time>2021-12-21T13:37:23.551Z</time>
      </trkpt>
      <trkpt lat="44.03423" lon="5.99495">
        <ele>494</ele>
        <time>2021-12-21T13:37:24.551Z</time>
      </trkpt>
      <trkpt lat="44.03423" lon="5.99495">
        <ele>494</ele>
        <time>2021-12-21T13:37:25.551Z</time>
      </trkpt>
      <trkpt lat="44.03423" lon="5.99494">
        <ele>494</ele>
        <time>2021-12-21T13:37:26.551Z</time>
      </trkpt>
      <trkpt lat="44.03423" lon="5.99494">
        <ele>494</ele>
        <time>2021-12-21T13:37:27.551Z</time>
      </trkpt>
      <trkpt lat="44.03423" lon="5.99494">
        <ele>493</ele>
        <time>2021-12-21T13:37:28.551Z</time>
      </trkpt>
      <trkpt lat="44.03423" lon="5.99494">
        <ele>493</ele>
        <time>2021-12-21T13:37:29.551Z</time>
      </trkpt>
      <trkpt lat="44.03423" lon="5.99494">
        <ele>493</ele>
        <time>2021-12-21T13:37:30.551Z</time>
      </trkpt>
      <trkpt lat="44.03423" lon="5.99494">
        <ele>493</ele>
        <time>2021-12-21T13:37:31.551Z</time>
      </trkpt>
      <trkpt lat="44.03423" lon="5.99494">
        <ele>493</ele>
        <time>2021-12-21T13:37:32.551Z</time>
      </trkpt>
      <trkpt lat="44.03423" lon="5.99493">
        <ele>493</ele>
        <time>2021-12-21T13:37:33.551Z</time>
      </trkpt>
      <trkpt lat="44.03422" lon="5.99493">
        <ele>492</ele>
        <time>2021-12-21T13:37:34.551Z</time>
      </trkpt>
      <trkpt lat="44.03422" lon="5.99493">
        <ele>492</ele>
        <time>2021-12-21T13:37:35.551Z</time>
      </trkpt>
      <trkpt lat="44.03422" lon="5.99493">
        <ele>492</ele>
        <time>2021-12-21T13:37:36.551Z</time>
      </trkpt>
      <trkpt lat="44.03422" lon="5.99492">
        <ele>492</ele>
        <time>2021-12-21T13:37:37.551Z</time>
      </trkpt>
      <trkpt lat="44.03423" lon="5.99492">
        <ele>492</ele>
        <time>2021-12-21T13:37:38.551Z</time>
      </trkpt>
      <trkpt lat="44.03424" lon="5.99492">
        <ele>491</ele>
        <time>2021-12-21T13:37:39.551Z</time>
      </trkpt>
      <trkpt lat="44.03425" lon="5.99492">
        <ele>491</ele>
        <time>2021-12-21T13:37:40.551Z</time>
      </trkpt>
      <trkpt lat="44.03426" lon="5.99491">
        <ele>491</ele>
        <time>2021-12-21T13:37:41.551Z</time>
      </trkpt>
      <trkpt lat="44.03426" lon="5.99491">
        <ele>491</ele>
        <time>2021-12-21T13:37:42.551Z</time>
      </trkpt>
      <trkpt lat="44.03427" lon="5.9949">
        <ele>490</ele>
        <time>2021-12-21T13:37:43.551Z</time>
      </trkpt>
      <trkpt lat="44.03427" lon="5.9949">
        <ele>490</ele>
        <time>2021-12-21T13:37:44.551Z</time>
      </trkpt>
      <trkpt lat="44.03427" lon="5.9949">
        <ele>490</ele>
        <time>2021-12-21T13:37:45.551Z</time>
      </trkpt>
      <trkpt lat="44.03428" lon="5.9949">
        <ele>490</ele>
        <time>2021-12-21T13:37:46.551Z</time>
      </trkpt>
      <trkpt lat="44.03428" lon="5.9949">
        <ele>489</ele>
        <time>2021-12-21T13:37:47.551Z</time>
      </trkpt>
      <trkpt lat="44.03429" lon="5.9949">
        <ele>489</ele>
        <time>2021-12-21T13:37:48.551Z</time>
      </trkpt>
      <trkpt lat="44.0343" lon="5.9949">
        <ele>489</ele>
        <time>2021-12-21T13:37:49.551Z</time>
      </trkpt>
      <trkpt lat="44.03431" lon="5.99491">
        <ele>489</ele>
        <time>2021-12-21T13:37:50.551Z</time>
      </trkpt>
      <trkpt lat="44.03431" lon="5.99491">
        <ele>489</ele>
        <time>2021-12-21T13:37:51.551Z</time>
      </trkpt>
      <trkpt lat="44.03432" lon="5.99491">
        <ele>489</ele>
        <time>2021-12-21T13:37:52.551Z</time>
      </trkpt>
      <trkpt lat="44.03433" lon="5.99492">
        <ele>489</ele>
        <time>2021-12-21T13:37:53.551Z</time>
      </trkpt>
      <trkpt lat="44.03433" lon="5.99492">
        <ele>488</ele>
        <time>2021-12-21T13:37:54.551Z</time>
      </trkpt>
      <trkpt lat="44.03434" lon="5.99493">
        <ele>488</ele>
        <time>2021-12-21T13:37:55.551Z</time>
      </trkpt>
      <trkpt lat="44.03435" lon="5.99493">
        <ele>488</ele>
        <time>2021-12-21T13:37:56.551Z</time>
      </trkpt>
      <trkpt lat="44.03436" lon="5.99494">
        <ele>488</ele>
        <time>2021-12-21T13:37:57.551Z</time>
      </trkpt>
      <trkpt lat="44.03437" lon="5.99495">
        <ele>488</ele>
        <time>2021-12-21T13:37:58.551Z</time>
      </trkpt>
      <trkpt lat="44.03437" lon="5.99496">
        <ele>488</ele>
        <time>2021-12-21T13:37:59.551Z</time>
      </trkpt>
      <trkpt lat="44.03438" lon="5.99497">
        <ele>488</ele>
        <time>2021-12-21T13:38:00.551Z</time>
      </trkpt>
      <trkpt lat="44.03438" lon="5.99498">
        <ele>488</ele>
        <time>2021-12-21T13:38:01.551Z</time>
      </trkpt>
      <trkpt lat="44.03438" lon="5.99499">
        <ele>488</ele>
        <time>2021-12-21T13:38:02.551Z</time>
      </trkpt>
      <trkpt lat="44.03439" lon="5.995">
        <ele>488</ele>
        <time>2021-12-21T13:38:03.551Z</time>
      </trkpt>
      <trkpt lat="44.03439" lon="5.99501">
        <ele>488</ele>
        <time>2021-12-21T13:38:04.551Z</time>
      </trkpt>
      <trkpt lat="44.0344" lon="5.99502">
        <ele>488</ele>
        <time>2021-12-21T13:38:05.551Z</time>
      </trkpt>
      <trkpt lat="44.03441" lon="5.99503">
        <ele>488</ele>
        <time>2021-12-21T13:38:06.551Z</time>
      </trkpt>
      <trkpt lat="44.03441" lon="5.99504">
        <ele>488</ele>
        <time>2021-12-21T13:38:07.551Z</time>
      </trkpt>
      <trkpt lat="44.03442" lon="5.99505">
        <ele>488</ele>
        <time>2021-12-21T13:38:08.551Z</time>
      </trkpt>
      <trkpt lat="44.03442" lon="5.99505">
        <ele>489</ele>
        <time>2021-12-21T13:38:09.551Z</time>
      </trkpt>
      <trkpt lat="44.03443" lon="5.99505">
        <ele>488</ele>
        <time>2021-12-21T13:38:10.551Z</time>
      </trkpt>
      <trkpt lat="44.03443" lon="5.99505">
        <ele>488</ele>
        <time>2021-12-21T13:38:11.551Z</time>
      </trkpt>
      <trkpt lat="44.03443" lon="5.99504">
        <ele>488</ele>
        <time>2021-12-21T13:38:12.551Z</time>
      </trkpt>
      <trkpt lat="44.03443" lon="5.99504">
        <ele>488</ele>
        <time>2021-12-21T13:38:13.551Z</time>
      </trkpt>
      <trkpt lat="44.03444" lon="5.99503">
        <ele>488</ele>
        <time>2021-12-21T13:38:14.551Z</time>
      </trkpt>
      <trkpt lat="44.03444" lon="5.99503">
        <ele>488</ele>
        <time>2021-12-21T13:38:15.551Z</time>
      </trkpt>
      <trkpt lat="44.03445" lon="5.99503">
        <ele>488</ele>
        <time>2021-12-21T13:38:16.551Z</time>
      </trkpt>
      <trkpt lat="44.03446" lon="5.99503">
        <ele>488</ele>
        <time>2021-12-21T13:38:17.551Z</time>
      </trkpt>
      <trkpt lat="44.03446" lon="5.99503">
        <ele>488</ele>
        <time>2021-12-21T13:38:18.551Z</time>
      </trkpt>
      <trkpt lat="44.03446" lon="5.99504">
        <ele>487</ele>
        <time>2021-12-21T13:38:19.551Z</time>
      </trkpt>
      <trkpt lat="44.03447" lon="5.99505">
        <ele>487</ele>
        <time>2021-12-21T13:38:20.551Z</time>
      </trkpt>
      <trkpt lat="44.03448" lon="5.99505">
        <ele>487</ele>
        <time>2021-12-21T13:38:21.551Z</time>
      </trkpt>
      <trkpt lat="44.03448" lon="5.99506">
        <ele>487</ele>
        <time>2021-12-21T13:38:22.551Z</time>
      </trkpt>
      <trkpt lat="44.03449" lon="5.99506">
        <ele>487</ele>
        <time>2021-12-21T13:38:23.551Z</time>
      </trkpt>
      <trkpt lat="44.0345" lon="5.99507">
        <ele>487</ele>
        <time>2021-12-21T13:38:24.551Z</time>
      </trkpt>
      <trkpt lat="44.03451" lon="5.99508">
        <ele>486</ele>
        <time>2021-12-21T13:38:25.551Z</time>
      </trkpt>
      <trkpt lat="44.03451" lon="5.99508">
        <ele>486</ele>
        <time>2021-12-21T13:38:26.551Z</time>
      </trkpt>
      <trkpt lat="44.03452" lon="5.99509">
        <ele>486</ele>
        <time>2021-12-21T13:38:27.551Z</time>
      </trkpt>
      <trkpt lat="44.03453" lon="5.9951">
        <ele>486</ele>
        <time>2021-12-21T13:38:28.551Z</time>
      </trkpt>
      <trkpt lat="44.03454" lon="5.99511">
        <ele>485</ele>
        <time>2021-12-21T13:38:29.551Z</time>
      </trkpt>
      <trkpt lat="44.03454" lon="5.99512">
        <ele>485</ele>
        <time>2021-12-21T13:38:30.551Z</time>
      </trkpt>
      <trkpt lat="44.03455" lon="5.99512">
        <ele>485</ele>
        <time>2021-12-21T13:38:31.551Z</time>
      </trkpt>
      <trkpt lat="44.03455" lon="5.99513">
        <ele>485</ele>
        <time>2021-12-21T13:38:32.551Z</time>
      </trkpt>
      <trkpt lat="44.03456" lon="5.99512">
        <ele>484</ele>
        <time>2021-12-21T13:38:33.551Z</time>
      </trkpt>
      <trkpt lat="44.03456" lon="5.99512">
        <ele>484</ele>
        <time>2021-12-21T13:38:34.551Z</time>
      </trkpt>
      <trkpt lat="44.03457" lon="5.99512">
        <ele>484</ele>
        <time>2021-12-21T13:38:35.551Z</time>
      </trkpt>
      <trkpt lat="44.03458" lon="5.99512">
        <ele>483</ele>
        <time>2021-12-21T13:38:36.551Z</time>
      </trkpt>
      <trkpt lat="44.03458" lon="5.99512">
        <ele>483</ele>
        <time>2021-12-21T13:38:37.551Z</time>
      </trkpt>
      <trkpt lat="44.03459" lon="5.99512">
        <ele>483</ele>
        <time>2021-12-21T13:38:38.551Z</time>
      </trkpt>
      <trkpt lat="44.03459" lon="5.99512">
        <ele>483</ele>
        <time>2021-12-21T13:38:39.551Z</time>
      </trkpt>
      <trkpt lat="44.03459" lon="5.99512">
        <ele>482</ele>
        <time>2021-12-21T13:38:40.551Z</time>
      </trkpt>
      <trkpt lat="44.0346" lon="5.99511">
        <ele>482</ele>
        <time>2021-12-21T13:38:41.551Z</time>
      </trkpt>
      <trkpt lat="44.0346" lon="5.9951">
        <ele>482</ele>
        <time>2021-12-21T13:38:42.551Z</time>
      </trkpt>
      <trkpt lat="44.03461" lon="5.9951">
        <ele>481</ele>
        <time>2021-12-21T13:38:43.551Z</time>
      </trkpt>
      <trkpt lat="44.03461" lon="5.99509">
        <ele>481</ele>
        <time>2021-12-21T13:38:44.551Z</time>
      </trkpt>
      <trkpt lat="44.03462" lon="5.99509">
        <ele>480</ele>
        <time>2021-12-21T13:38:45.551Z</time>
      </trkpt>
      <trkpt lat="44.03462" lon="5.99508">
        <ele>480</ele>
        <time>2021-12-21T13:38:46.551Z</time>
      </trkpt>
      <trkpt lat="44.03463" lon="5.99507">
        <ele>480</ele>
        <time>2021-12-21T13:38:47.551Z</time>
      </trkpt>
      <trkpt lat="44.03463" lon="5.99507">
        <ele>479</ele>
        <time>2021-12-21T13:38:48.551Z</time>
      </trkpt>
      <trkpt lat="44.03463" lon="5.99507">
        <ele>479</ele>
        <time>2021-12-21T13:38:49.551Z</time>
      </trkpt>
      <trkpt lat="44.03463" lon="5.99507">
        <ele>479</ele>
        <time>2021-12-21T13:38:50.551Z</time>
      </trkpt>
      <trkpt lat="44.03463" lon="5.99507">
        <ele>479</ele>
        <time>2021-12-21T13:38:51.551Z</time>
      </trkpt>
      <trkpt lat="44.03462" lon="5.99507">
        <ele>479</ele>
        <time>2021-12-21T13:38:52.551Z</time>
      </trkpt>
      <trkpt lat="44.03462" lon="5.99507">
        <ele>478</ele>
        <time>2021-12-21T13:38:53.551Z</time>
      </trkpt>
      <trkpt lat="44.03462" lon="5.99507">
        <ele>478</ele>
        <time>2021-12-21T13:38:54.551Z</time>
      </trkpt>
      <trkpt lat="44.03462" lon="5.99507">
        <ele>478</ele>
        <time>2021-12-21T13:38:55.551Z</time>
      </trkpt>
      <trkpt lat="44.03461" lon="5.99507">
        <ele>478</ele>
        <time>2021-12-21T13:38:56.551Z</time>
      </trkpt>
      <trkpt lat="44.03461" lon="5.99507">
        <ele>477</ele>
        <time>2021-12-21T13:38:57.551Z</time>
      </trkpt>
      <trkpt lat="44.03461" lon="5.99507">
        <ele>477</ele>
        <time>2021-12-21T13:38:58.551Z</time>
      </trkpt>
      <trkpt lat="44.0346" lon="5.99507">
        <ele>477</ele>
        <time>2021-12-21T13:38:59.551Z</time>
      </trkpt>
      <trkpt lat="44.0346" lon="5.99506">
        <ele>476</ele>
        <time>2021-12-21T13:39:00.551Z</time>
      </trkpt>
      <trkpt lat="44.0346" lon="5.99506">
        <ele>476</ele>
        <time>2021-12-21T13:39:01.551Z</time>
      </trkpt>
      <trkpt lat="44.0346" lon="5.99506">
        <ele>476</ele>
        <time>2021-12-21T13:39:02.551Z</time>
      </trkpt>
      <trkpt lat="44.03459" lon="5.99506">
        <ele>476</ele>
        <time>2021-12-21T13:39:03.551Z</time>
      </trkpt>
      <trkpt lat="44.03459" lon="5.99506">
        <ele>475</ele>
        <time>2021-12-21T13:39:04.551Z</time>
      </trkpt>
      <trkpt lat="44.03459" lon="5.99506">
        <ele>475</ele>
        <time>2021-12-21T13:39:05.551Z</time>
      </trkpt>
      <trkpt lat="44.03459" lon="5.99506">
        <ele>475</ele>
        <time>2021-12-21T13:39:06.551Z</time>
      </trkpt>
      <trkpt lat="44.03459" lon="5.99506">
        <ele>475</ele>
        <time>2021-12-21T13:39:07.551Z</time>
      </trkpt>
      <trkpt lat="44.03458" lon="5.99506">
        <ele>474</ele>
        <time>2021-12-21T13:39:08.551Z</time>
      </trkpt>
      <trkpt lat="44.03458" lon="5.99506">
        <ele>474</ele>
        <time>2021-12-21T13:39:09.551Z</time>
      </trkpt>
      <trkpt lat="44.03458" lon="5.99506">
        <ele>474</ele>
        <time>2021-12-21T13:39:10.551Z</time>
      </trkpt>
      <trkpt lat="44.03458" lon="5.99506">
        <ele>474</ele>
        <time>2021-12-21T13:39:11.551Z</time>
      </trkpt>
      <trkpt lat="44.03458" lon="5.99506">
        <ele>473</ele>
        <time>2021-12-21T13:39:12.551Z</time>
      </trkpt>
      <trkpt lat="44.03457" lon="5.99506">
        <ele>473</ele>
        <time>2021-12-21T13:39:13.551Z</time>
      </trkpt>
      <trkpt lat="44.03457" lon="5.99506">
        <ele>473</ele>
        <time>2021-12-21T13:39:14.551Z</time>
      </trkpt>
      <trkpt lat="44.03457" lon="5.99506">
        <ele>473</ele>
        <time>2021-12-21T13:39:15.551Z</time>
      </trkpt>
      <trkpt lat="44.03457" lon="5.99506">
        <ele>473</ele>
        <time>2021-12-21T13:39:16.551Z</time>
      </trkpt>
      <trkpt lat="44.03457" lon="5.99506">
        <ele>473</ele>
        <time>2021-12-21T13:39:17.551Z</time>
      </trkpt>
      <trkpt lat="44.03456" lon="5.99506">
        <ele>472</ele>
        <time>2021-12-21T13:39:18.551Z</time>
      </trkpt>
      <trkpt lat="44.03456" lon="5.99506">
        <ele>472</ele>
        <time>2021-12-21T13:39:19.551Z</time>
      </trkpt>
      <trkpt lat="44.03456" lon="5.99506">
        <ele>472</ele>
        <time>2021-12-21T13:39:20.551Z</time>
      </trkpt>
      <trkpt lat="44.03456" lon="5.99506">
        <ele>472</ele>
        <time>2021-12-21T13:39:21.551Z</time>
      </trkpt>
      <trkpt lat="44.03456" lon="5.99506">
        <ele>472</ele>
        <time>2021-12-21T13:39:22.551Z</time>
      </trkpt>
      <trkpt lat="44.03456" lon="5.99507">
        <ele>472</ele>
        <time>2021-12-21T13:39:23.551Z</time>
      </trkpt>
      <trkpt lat="44.03456" lon="5.99507">
        <ele>471</ele>
        <time>2021-12-21T13:39:24.551Z</time>
      </trkpt>
      <trkpt lat="44.03455" lon="5.99507">
        <ele>471</ele>
        <time>2021-12-21T13:39:25.551Z</time>
      </trkpt>
      <trkpt lat="44.03455" lon="5.99507">
        <ele>471</ele>
        <time>2021-12-21T13:39:26.551Z</time>
      </trkpt>
      <trkpt lat="44.03455" lon="5.99507">
        <ele>471</ele>
        <time>2021-12-21T13:39:27.551Z</time>
      </trkpt>
      <trkpt lat="44.03455" lon="5.99507">
        <ele>471</ele>
        <time>2021-12-21T13:39:28.551Z</time>
      </trkpt>
      <trkpt lat="44.03455" lon="5.99507">
        <ele>471</ele>
        <time>2021-12-21T13:39:29.551Z</time>
      </trkpt>
      <trkpt lat="44.03455" lon="5.99507">
        <ele>471</ele>
        <time>2021-12-21T13:39:30.551Z</time>
      </trkpt>
      <trkpt lat="44.03455" lon="5.99507">
        <ele>471</ele>
        <time>2021-12-21T13:39:31.551Z</time>
      </trkpt>
      <trkpt lat="44.03455" lon="5.99507">
        <ele>470</ele>
        <time>2021-12-21T13:39:32.551Z</time>
      </trkpt>
      <trkpt lat="44.03455" lon="5.99507">
        <ele>470</ele>
        <time>2021-12-21T13:39:33.551Z</time>
      </trkpt>
      <trkpt lat="44.03455" lon="5.99507">
        <ele>470</ele>
        <time>2021-12-21T13:39:34.551Z</time>
      </trkpt>
      <trkpt lat="44.03454" lon="5.99507">
        <ele>470</ele>
        <time>2021-12-21T13:39:35.551Z</time>
      </trkpt>
      <trkpt lat="44.03454" lon="5.99507">
        <ele>470</ele>
        <time>2021-12-21T13:39:36.551Z</time>
      </trkpt>
      <trkpt lat="44.03454" lon="5.99507">
        <ele>470</ele>
        <time>2021-12-21T13:39:37.551Z</time>
      </trkpt>
      <trkpt lat="44.03454" lon="5.99508">
        <ele>470</ele>
        <time>2021-12-21T13:39:38.551Z</time>
      </trkpt>
      <trkpt lat="44.03454" lon="5.99508">
        <ele>470</ele>
        <time>2021-12-21T13:39:39.551Z</time>
      </trkpt>
      <trkpt lat="44.03454" lon="5.99508">
        <ele>470</ele>
        <time>2021-12-21T13:39:40.551Z</time>
      </trkpt>
      <trkpt lat="44.03454" lon="5.99508">
        <ele>470</ele>
        <time>2021-12-21T13:39:41.551Z</time>
      </trkpt>
      <trkpt lat="44.03454" lon="5.99508">
        <ele>470</ele>
        <time>2021-12-21T13:39:42.551Z</time>
      </trkpt>
      <trkpt lat="44.03454" lon="5.99508">
        <ele>470</ele>
        <time>2021-12-21T13:39:43.551Z</time>
      </trkpt>
      <trkpt lat="44.03454" lon="5.99508">
        <ele>470</ele>
        <time>2021-12-21T13:39:44.551Z</time>
      </trkpt>
      <trkpt lat="44.03454" lon="5.99508">
        <ele>470</ele>
        <time>2021-12-21T13:39:45.551Z</time>
      </trkpt>
      <trkpt lat="44.03454" lon="5.99508">
        <ele>469</ele>
        <time>2021-12-21T13:39:46.551Z</time>
      </trkpt>
      <trkpt lat="44.03454" lon="5.99507">
        <ele>469</ele>
        <time>2021-12-21T13:39:47.551Z</time>
      </trkpt>
      <trkpt lat="44.03455" lon="5.99506">
        <ele>469</ele>
        <time>2021-12-21T13:39:48.551Z</time>
      </trkpt>
      <trkpt lat="44.03455" lon="5.99505">
        <ele>469</ele>
        <time>2021-12-21T13:39:49.551Z</time>
      </trkpt>
      <trkpt lat="44.03455" lon="5.99504">
        <ele>469</ele>
        <time>2021-12-21T13:39:50.551Z</time>
      </trkpt>
      <trkpt lat="44.03455" lon="5.99503">
        <ele>469</ele>
        <time>2021-12-21T13:39:51.551Z</time>
      </trkpt>
      <trkpt lat="44.03455" lon="5.99503">
        <ele>469</ele>
        <time>2021-12-21T13:39:52.551Z</time>
      </trkpt>
      <trkpt lat="44.03455" lon="5.99502">
        <ele>469</ele>
        <time>2021-12-21T13:39:53.551Z</time>
      </trkpt>
      <trkpt lat="44.03455" lon="5.99502">
        <ele>469</ele>
        <time>2021-12-21T13:39:54.551Z</time>
      </trkpt>
      <trkpt lat="44.03455" lon="5.99502">
        <ele>468</ele>
        <time>2021-12-21T13:39:55.551Z</time>
      </trkpt>
      <trkpt lat="44.03455" lon="5.99502">
        <ele>468</ele>
        <time>2021-12-21T13:39:56.551Z</time>
      </trkpt>
      <trkpt lat="44.03454" lon="5.99501">
        <ele>468</ele>
        <time>2021-12-21T13:39:57.551Z</time>
      </trkpt>
      <trkpt lat="44.03455" lon="5.99501">
        <ele>469</ele>
        <time>2021-12-21T13:39:58.551Z</time>
      </trkpt>
      <trkpt lat="44.03454" lon="5.99501">
        <ele>469</ele>
        <time>2021-12-21T13:39:59.551Z</time>
      </trkpt>
      <trkpt lat="44.03455" lon="5.99501">
        <ele>469</ele>
        <time>2021-12-21T13:40:00.551Z</time>
      </trkpt>
      <trkpt lat="44.03455" lon="5.99501">
        <ele>469</ele>
        <time>2021-12-21T13:40:01.551Z</time>
      </trkpt>
      <trkpt lat="44.03455" lon="5.99501">
        <ele>469</ele>
        <time>2021-12-21T13:40:02.551Z</time>
      </trkpt>
      <trkpt lat="44.03455" lon="5.99501">
        <ele>469</ele>
        <time>2021-12-21T13:40:03.551Z</time>
      </trkpt>
      <trkpt lat="44.03455" lon="5.99501">
        <ele>469</ele>
        <time>2021-12-21T13:40:04.551Z</time>
      </trkpt>
      <trkpt lat="44.03455" lon="5.995">
        <ele>470</ele>
        <time>2021-12-21T13:40:05.551Z</time>
      </trkpt>
      <trkpt lat="44.03455" lon="5.995">
        <ele>470</ele>
        <time>2021-12-21T13:40:06.551Z</time>
      </trkpt>
      <trkpt lat="44.03455" lon="5.99499">
        <ele>470</ele>
        <time>2021-12-21T13:40:07.551Z</time>
      </trkpt>
      <trkpt lat="44.03455" lon="5.99499">
        <ele>470</ele>
        <time>2021-12-21T13:40:08.551Z</time>
      </trkpt>
      <trkpt lat="44.03455" lon="5.99499">
        <ele>470</ele>
        <time>2021-12-21T13:40:09.551Z</time>
      </trkpt>
      <trkpt lat="44.03455" lon="5.99499">
        <ele>470</ele>
        <time>2021-12-21T13:40:10.551Z</time>
      </trkpt>
      <trkpt lat="44.03455" lon="5.99499">
        <ele>470</ele>
        <time>2021-12-21T13:40:11.551Z</time>
      </trkpt>
      <trkpt lat="44.03455" lon="5.99499">
        <ele>470</ele>
        <time>2021-12-21T13:40:12.551Z</time>
      </trkpt>
      <trkpt lat="44.03455" lon="5.99498">
        <ele>470</ele>
        <time>2021-12-21T13:40:13.551Z</time>
      </trkpt>
      <trkpt lat="44.03455" lon="5.99497">
        <ele>470</ele>
        <time>2021-12-21T13:40:14.551Z</time>
      </trkpt>
      <trkpt lat="44.03455" lon="5.99496">
        <ele>470</ele>
        <time>2021-12-21T13:40:15.551Z</time>
      </trkpt>
      <trkpt lat="44.03455" lon="5.99495">
        <ele>470</ele>
        <time>2021-12-21T13:40:16.551Z</time>
      </trkpt>
      <trkpt lat="44.03455" lon="5.99494">
        <ele>470</ele>
        <time>2021-12-21T13:40:17.551Z</time>
      </trkpt>
      <trkpt lat="44.03454" lon="5.99493">
        <ele>470</ele>
        <time>2021-12-21T13:40:18.551Z</time>
      </trkpt>
      <trkpt lat="44.03454" lon="5.99491">
        <ele>470</ele>
        <time>2021-12-21T13:40:19.551Z</time>
      </trkpt>
      <trkpt lat="44.03455" lon="5.9949">
        <ele>469</ele>
        <time>2021-12-21T13:40:20.551Z</time>
      </trkpt>
      <trkpt lat="44.03455" lon="5.99489">
        <ele>469</ele>
        <time>2021-12-21T13:40:21.551Z</time>
      </trkpt>
      <trkpt lat="44.03455" lon="5.99488">
        <ele>469</ele>
        <time>2021-12-21T13:40:22.551Z</time>
      </trkpt>
      <trkpt lat="44.03456" lon="5.99486">
        <ele>469</ele>
        <time>2021-12-21T13:40:23.551Z</time>
      </trkpt>
      <trkpt lat="44.03456" lon="5.99485">
        <ele>469</ele>
        <time>2021-12-21T13:40:24.551Z</time>
      </trkpt>
      <trkpt lat="44.03457" lon="5.99484">
        <ele>468</ele>
        <time>2021-12-21T13:40:25.551Z</time>
      </trkpt>
      <trkpt lat="44.03457" lon="5.99483">
        <ele>468</ele>
        <time>2021-12-21T13:40:26.551Z</time>
      </trkpt>
      <trkpt lat="44.03457" lon="5.99482">
        <ele>468</ele>
        <time>2021-12-21T13:40:27.551Z</time>
      </trkpt>
      <trkpt lat="44.03458" lon="5.99481">
        <ele>468</ele>
        <time>2021-12-21T13:40:28.551Z</time>
      </trkpt>
      <trkpt lat="44.03458" lon="5.99481">
        <ele>467</ele>
        <time>2021-12-21T13:40:29.551Z</time>
      </trkpt>
      <trkpt lat="44.03458" lon="5.99481">
        <ele>467</ele>
        <time>2021-12-21T13:40:30.551Z</time>
      </trkpt>
      <trkpt lat="44.03457" lon="5.9948">
        <ele>467</ele>
        <time>2021-12-21T13:40:31.551Z</time>
      </trkpt>
      <trkpt lat="44.03457" lon="5.99479">
        <ele>467</ele>
        <time>2021-12-21T13:40:32.551Z</time>
      </trkpt>
      <trkpt lat="44.03457" lon="5.99479">
        <ele>467</ele>
        <time>2021-12-21T13:40:33.551Z</time>
      </trkpt>
      <trkpt lat="44.03457" lon="5.99478">
        <ele>466</ele>
        <time>2021-12-21T13:40:34.551Z</time>
      </trkpt>
      <trkpt lat="44.03457" lon="5.99478">
        <ele>466</ele>
        <time>2021-12-21T13:40:35.551Z</time>
      </trkpt>
      <trkpt lat="44.03457" lon="5.99477">
        <ele>466</ele>
        <time>2021-12-21T13:40:36.551Z</time>
      </trkpt>
      <trkpt lat="44.03457" lon="5.99477">
        <ele>466</ele>
        <time>2021-12-21T13:40:37.551Z</time>
      </trkpt>
      <trkpt lat="44.03457" lon="5.99477">
        <ele>466</ele>
        <time>2021-12-21T13:40:38.551Z</time>
      </trkpt>
      <trkpt lat="44.03456" lon="5.99477">
        <ele>466</ele>
        <time>2021-12-21T13:40:39.551Z</time>
      </trkpt>
      <trkpt lat="44.03456" lon="5.99477">
        <ele>465</ele>
        <time>2021-12-21T13:40:40.551Z</time>
      </trkpt>
      <trkpt lat="44.03456" lon="5.99477">
        <ele>465</ele>
        <time>2021-12-21T13:40:41.551Z</time>
      </trkpt>
      <trkpt lat="44.03456" lon="5.99476">
        <ele>465</ele>
        <time>2021-12-21T13:40:42.551Z</time>
      </trkpt>
      <trkpt lat="44.03455" lon="5.99476">
        <ele>465</ele>
        <time>2021-12-21T13:40:43.551Z</time>
      </trkpt>
      <trkpt lat="44.03455" lon="5.99476">
        <ele>465</ele>
        <time>2021-12-21T13:40:44.551Z</time>
      </trkpt>
      <trkpt lat="44.03455" lon="5.99476">
        <ele>465</ele>
        <time>2021-12-21T13:40:45.551Z</time>
      </trkpt>
      <trkpt lat="44.03455" lon="5.99476">
        <ele>465</ele>
        <time>2021-12-21T13:40:46.551Z</time>
      </trkpt>
      <trkpt lat="44.03455" lon="5.99476">
        <ele>464</ele>
        <time>2021-12-21T13:40:47.551Z</time>
      </trkpt>
      <trkpt lat="44.03454" lon="5.99475">
        <ele>464</ele>
        <time>2021-12-21T13:40:48.551Z</time>
      </trkpt>
      <trkpt lat="44.03454" lon="5.99475">
        <ele>464</ele>
        <time>2021-12-21T13:40:49.551Z</time>
      </trkpt>
      <trkpt lat="44.03454" lon="5.99475">
        <ele>464</ele>
        <time>2021-12-21T13:40:50.551Z</time>
      </trkpt>
      <trkpt lat="44.03454" lon="5.99474">
        <ele>464</ele>
        <time>2021-12-21T13:40:51.551Z</time>
      </trkpt>
      <trkpt lat="44.03454" lon="5.99473">
        <ele>464</ele>
        <time>2021-12-21T13:40:52.551Z</time>
      </trkpt>
      <trkpt lat="44.03455" lon="5.99473">
        <ele>463</ele>
        <time>2021-12-21T13:40:53.551Z</time>
      </trkpt>
      <trkpt lat="44.03455" lon="5.99472">
        <ele>463</ele>
        <time>2021-12-21T13:40:54.551Z</time>
      </trkpt>
      <trkpt lat="44.03455" lon="5.99471">
        <ele>463</ele>
        <time>2021-12-21T13:40:55.551Z</time>
      </trkpt>
      <trkpt lat="44.03455" lon="5.99471">
        <ele>463</ele>
        <time>2021-12-21T13:40:56.551Z</time>
      </trkpt>
      <trkpt lat="44.03455" lon="5.9947">
        <ele>463</ele>
        <time>2021-12-21T13:40:57.551Z</time>
      </trkpt>
      <trkpt lat="44.03455" lon="5.99469">
        <ele>462</ele>
        <time>2021-12-21T13:40:58.551Z</time>
      </trkpt>
      <trkpt lat="44.03456" lon="5.99468">
        <ele>462</ele>
        <time>2021-12-21T13:40:59.551Z</time>
      </trkpt>
      <trkpt lat="44.03456" lon="5.99467">
        <ele>462</ele>
        <time>2021-12-21T13:41:00.551Z</time>
      </trkpt>
      <trkpt lat="44.03457" lon="5.99466">
        <ele>462</ele>
        <time>2021-12-21T13:41:01.551Z</time>
      </trkpt>
      <trkpt lat="44.03457" lon="5.99465">
        <ele>462</ele>
        <time>2021-12-21T13:41:02.551Z</time>
      </trkpt>
      <trkpt lat="44.03457" lon="5.99464">
        <ele>462</ele>
        <time>2021-12-21T13:41:03.551Z</time>
      </trkpt>
      <trkpt lat="44.03457" lon="5.99464">
        <ele>461</ele>
        <time>2021-12-21T13:41:04.551Z</time>
      </trkpt>
      <trkpt lat="44.03457" lon="5.99464">
        <ele>461</ele>
        <time>2021-12-21T13:41:05.551Z</time>
      </trkpt>
      <trkpt lat="44.03457" lon="5.99463">
        <ele>461</ele>
        <time>2021-12-21T13:41:06.551Z</time>
      </trkpt>
      <trkpt lat="44.03457" lon="5.99463">
        <ele>461</ele>
        <time>2021-12-21T13:41:07.551Z</time>
      </trkpt>
      <trkpt lat="44.03457" lon="5.99463">
        <ele>461</ele>
        <time>2021-12-21T13:41:08.551Z</time>
      </trkpt>
      <trkpt lat="44.03457" lon="5.99462">
        <ele>460</ele>
        <time>2021-12-21T13:41:09.551Z</time>
      </trkpt>
      <trkpt lat="44.03458" lon="5.99461">
        <ele>460</ele>
        <time>2021-12-21T13:41:10.551Z</time>
      </trkpt>
      <trkpt lat="44.03458" lon="5.99461">
        <ele>460</ele>
        <time>2021-12-21T13:41:11.551Z</time>
      </trkpt>
      <trkpt lat="44.03458" lon="5.99461">
        <ele>460</ele>
        <time>2021-12-21T13:41:12.551Z</time>
      </trkpt>
      <trkpt lat="44.03458" lon="5.9946">
        <ele>459</ele>
        <time>2021-12-21T13:41:13.551Z</time>
      </trkpt>
      <trkpt lat="44.03457" lon="5.9946">
        <ele>459</ele>
        <time>2021-12-21T13:41:14.551Z</time>
      </trkpt>
      <trkpt lat="44.03457" lon="5.9946">
        <ele>459</ele>
        <time>2021-12-21T13:41:15.551Z</time>
      </trkpt>
      <trkpt lat="44.03457" lon="5.9946">
        <ele>459</ele>
        <time>2021-12-21T13:41:16.551Z</time>
      </trkpt>
      <trkpt lat="44.03457" lon="5.9946">
        <ele>458</ele>
        <time>2021-12-21T13:41:17.551Z</time>
      </trkpt>
      <trkpt lat="44.03457" lon="5.99459">
        <ele>458</ele>
        <time>2021-12-21T13:41:18.551Z</time>
      </trkpt>
      <trkpt lat="44.03457" lon="5.99459">
        <ele>458</ele>
        <time>2021-12-21T13:41:19.551Z</time>
      </trkpt>
      <trkpt lat="44.03457" lon="5.99459">
        <ele>458</ele>
        <time>2021-12-21T13:41:20.551Z</time>
      </trkpt>
      <trkpt lat="44.03457" lon="5.99459">
        <ele>458</ele>
        <time>2021-12-21T13:41:21.551Z</time>
      </trkpt>
      <trkpt lat="44.03457" lon="5.99459">
        <ele>458</ele>
        <time>2021-12-21T13:41:22.551Z</time>
      </trkpt>
      <trkpt lat="44.03456" lon="5.99459">
        <ele>457</ele>
        <time>2021-12-21T13:41:23.551Z</time>
      </trkpt>
      <trkpt lat="44.03456" lon="5.99459">
        <ele>457</ele>
        <time>2021-12-21T13:41:24.551Z</time>
      </trkpt>
      <trkpt lat="44.03456" lon="5.99459">
        <ele>457</ele>
        <time>2021-12-21T13:41:25.551Z</time>
      </trkpt>
      <trkpt lat="44.03456" lon="5.99459">
        <ele>457</ele>
        <time>2021-12-21T13:41:26.551Z</time>
      </trkpt>
      <trkpt lat="44.03456" lon="5.99458">
        <ele>457</ele>
        <time>2021-12-21T13:41:27.551Z</time>
      </trkpt>
      <trkpt lat="44.03456" lon="5.99458">
        <ele>457</ele>
        <time>2021-12-21T13:41:28.551Z</time>
      </trkpt>
      <trkpt lat="44.03456" lon="5.99458">
        <ele>457</ele>
        <time>2021-12-21T13:41:29.551Z</time>
      </trkpt>
      <trkpt lat="44.03456" lon="5.99458">
        <ele>456</ele>
        <time>2021-12-21T13:41:30.551Z</time>
      </trkpt>
      <trkpt lat="44.03455" lon="5.99458">
        <ele>456</ele>
        <time>2021-12-21T13:41:31.551Z</time>
      </trkpt>
      <trkpt lat="44.03455" lon="5.99458">
        <ele>456</ele>
        <time>2021-12-21T13:41:32.551Z</time>
      </trkpt>
      <trkpt lat="44.03455" lon="5.99458">
        <ele>456</ele>
        <time>2021-12-21T13:41:33.551Z</time>
      </trkpt>
      <trkpt lat="44.03455" lon="5.99458">
        <ele>456</ele>
        <time>2021-12-21T13:41:34.551Z</time>
      </trkpt>
      <trkpt lat="44.03455" lon="5.99458">
        <ele>456</ele>
        <time>2021-12-21T13:41:35.551Z</time>
      </trkpt>
      <trkpt lat="44.03455" lon="5.99458">
        <ele>456</ele>
        <time>2021-12-21T13:41:36.551Z</time>
      </trkpt>
      <trkpt lat="44.03455" lon="5.99457">
        <ele>456</ele>
        <time>2021-12-21T13:41:37.551Z</time>
      </trkpt>
      <trkpt lat="44.03455" lon="5.99457">
        <ele>456</ele>
        <time>2021-12-21T13:41:38.551Z</time>
      </trkpt>
      <trkpt lat="44.03455" lon="5.99457">
        <ele>456</ele>
        <time>2021-12-21T13:41:39.551Z</time>
      </trkpt>
      <trkpt lat="44.03455" lon="5.99457">
        <ele>456</ele>
        <time>2021-12-21T13:41:40.551Z</time>
      </trkpt>
      <trkpt lat="44.03455" lon="5.99457">
        <ele>455</ele>
        <time>2021-12-21T13:41:41.551Z</time>
      </trkpt>
      <trkpt lat="44.03455" lon="5.99456">
        <ele>455</ele>
        <time>2021-12-21T13:41:42.551Z</time>
      </trkpt>
      <trkpt lat="44.03455" lon="5.99456">
        <ele>455</ele>
        <time>2021-12-21T13:41:43.551Z</time>
      </trkpt>
      <trkpt lat="44.03455" lon="5.99456">
        <ele>455</ele>
        <time>2021-12-21T13:41:44.551Z</time>
      </trkpt>
      <trkpt lat="44.03454" lon="5.99456">
        <ele>455</ele>
        <time>2021-12-21T13:41:45.551Z</time>
      </trkpt>
      <trkpt lat="44.03454" lon="5.99456">
        <ele>455</ele>
        <time>2021-12-21T13:41:46.551Z</time>
      </trkpt>
      <trkpt lat="44.03454" lon="5.99455">
        <ele>454</ele>
        <time>2021-12-21T13:41:47.551Z</time>
      </trkpt>
      <trkpt lat="44.03454" lon="5.99454">
        <ele>454</ele>
        <time>2021-12-21T13:41:48.551Z</time>
      </trkpt>
      <trkpt lat="44.03454" lon="5.99452">
        <ele>454</ele>
        <time>2021-12-21T13:41:49.551Z</time>
      </trkpt>
      <trkpt lat="44.03455" lon="5.99451">
        <ele>454</ele>
        <time>2021-12-21T13:41:50.551Z</time>
      </trkpt>
      <trkpt lat="44.03455" lon="5.99449">
        <ele>454</ele>
        <time>2021-12-21T13:41:51.551Z</time>
      </trkpt>
      <trkpt lat="44.03456" lon="5.99448">
        <ele>454</ele>
        <time>2021-12-21T13:41:52.551Z</time>
      </trkpt>
      <trkpt lat="44.03456" lon="5.99446">
        <ele>453</ele>
        <time>2021-12-21T13:41:53.551Z</time>
      </trkpt>
      <trkpt lat="44.03457" lon="5.99445">
        <ele>453</ele>
        <time>2021-12-21T13:41:54.551Z</time>
      </trkpt>
      <trkpt lat="44.03457" lon="5.99444">
        <ele>453</ele>
        <time>2021-12-21T13:41:55.551Z</time>
      </trkpt>
      <trkpt lat="44.03458" lon="5.99443">
        <ele>453</ele>
        <time>2021-12-21T13:41:56.551Z</time>
      </trkpt>
      <trkpt lat="44.03458" lon="5.99441">
        <ele>453</ele>
        <time>2021-12-21T13:41:57.551Z</time>
      </trkpt>
      <trkpt lat="44.03459" lon="5.9944">
        <ele>453</ele>
        <time>2021-12-21T13:41:58.551Z</time>
      </trkpt>
      <trkpt lat="44.03459" lon="5.99438">
        <ele>453</ele>
        <time>2021-12-21T13:41:59.551Z</time>
      </trkpt>
      <trkpt lat="44.03459" lon="5.99437">
        <ele>453</ele>
        <time>2021-12-21T13:42:00.551Z</time>
      </trkpt>
      <trkpt lat="44.0346" lon="5.99435">
        <ele>452</ele>
        <time>2021-12-21T13:42:01.551Z</time>
      </trkpt>
      <trkpt lat="44.0346" lon="5.99434">
        <ele>452</ele>
        <time>2021-12-21T13:42:02.551Z</time>
      </trkpt>
      <trkpt lat="44.0346" lon="5.99433">
        <ele>452</ele>
        <time>2021-12-21T13:42:03.551Z</time>
      </trkpt>
      <trkpt lat="44.0346" lon="5.99431">
        <ele>452</ele>
        <time>2021-12-21T13:42:04.551Z</time>
      </trkpt>
      <trkpt lat="44.0346" lon="5.9943">
        <ele>452</ele>
        <time>2021-12-21T13:42:05.551Z</time>
      </trkpt>
      <trkpt lat="44.0346" lon="5.99428">
        <ele>452</ele>
        <time>2021-12-21T13:42:06.551Z</time>
      </trkpt>
      <trkpt lat="44.03461" lon="5.99427">
        <ele>452</ele>
        <time>2021-12-21T13:42:07.551Z</time>
      </trkpt>
      <trkpt lat="44.03461" lon="5.99425">
        <ele>451</ele>
        <time>2021-12-21T13:42:08.551Z</time>
      </trkpt>
      <trkpt lat="44.03461" lon="5.99424">
        <ele>451</ele>
        <time>2021-12-21T13:42:09.551Z</time>
      </trkpt>
      <trkpt lat="44.03461" lon="5.99422">
        <ele>451</ele>
        <time>2021-12-21T13:42:10.551Z</time>
      </trkpt>
      <trkpt lat="44.03461" lon="5.9942">
        <ele>451</ele>
        <time>2021-12-21T13:42:11.551Z</time>
      </trkpt>
      <trkpt lat="44.03461" lon="5.99419">
        <ele>451</ele>
        <time>2021-12-21T13:42:12.551Z</time>
      </trkpt>
      <trkpt lat="44.03461" lon="5.99418">
        <ele>450</ele>
        <time>2021-12-21T13:42:13.551Z</time>
      </trkpt>
      <trkpt lat="44.03462" lon="5.99416">
        <ele>450</ele>
        <time>2021-12-21T13:42:14.551Z</time>
      </trkpt>
      <trkpt lat="44.03462" lon="5.99415">
        <ele>450</ele>
        <time>2021-12-21T13:42:15.551Z</time>
      </trkpt>
      <trkpt lat="44.03462" lon="5.99413">
        <ele>450</ele>
        <time>2021-12-21T13:42:16.551Z</time>
      </trkpt>
      <trkpt lat="44.03463" lon="5.99412">
        <ele>449</ele>
        <time>2021-12-21T13:42:17.551Z</time>
      </trkpt>
      <trkpt lat="44.03463" lon="5.99411">
        <ele>449</ele>
        <time>2021-12-21T13:42:18.551Z</time>
      </trkpt>
      <trkpt lat="44.03463" lon="5.99409">
        <ele>449</ele>
        <time>2021-12-21T13:42:19.551Z</time>
      </trkpt>
      <trkpt lat="44.03464" lon="5.99408">
        <ele>449</ele>
        <time>2021-12-21T13:42:20.551Z</time>
      </trkpt>
      <trkpt lat="44.03464" lon="5.99407">
        <ele>449</ele>
        <time>2021-12-21T13:42:21.551Z</time>
      </trkpt>
      <trkpt lat="44.03464" lon="5.99405">
        <ele>449</ele>
        <time>2021-12-21T13:42:22.551Z</time>
      </trkpt>
      <trkpt lat="44.03465" lon="5.99403">
        <ele>448</ele>
        <time>2021-12-21T13:42:23.551Z</time>
      </trkpt>
      <trkpt lat="44.03465" lon="5.99402">
        <ele>448</ele>
        <time>2021-12-21T13:42:24.551Z</time>
      </trkpt>
      <trkpt lat="44.03465" lon="5.994">
        <ele>448</ele>
        <time>2021-12-21T13:42:25.551Z</time>
      </trkpt>
      <trkpt lat="44.03465" lon="5.99399">
        <ele>448</ele>
        <time>2021-12-21T13:42:26.551Z</time>
      </trkpt>
      <trkpt lat="44.03465" lon="5.99397">
        <ele>448</ele>
        <time>2021-12-21T13:42:27.551Z</time>
      </trkpt>
      <trkpt lat="44.03465" lon="5.99396">
        <ele>448</ele>
        <time>2021-12-21T13:42:28.551Z</time>
      </trkpt>
      <trkpt lat="44.03465" lon="5.99394">
        <ele>448</ele>
        <time>2021-12-21T13:42:29.551Z</time>
      </trkpt>
      <trkpt lat="44.03464" lon="5.99392">
        <ele>448</ele>
        <time>2021-12-21T13:42:30.551Z</time>
      </trkpt>
      <trkpt lat="44.03464" lon="5.99391">
        <ele>448</ele>
        <time>2021-12-21T13:42:31.551Z</time>
      </trkpt>
      <trkpt lat="44.03463" lon="5.99389">
        <ele>448</ele>
        <time>2021-12-21T13:42:32.551Z</time>
      </trkpt>
      <trkpt lat="44.03462" lon="5.99388">
        <ele>448</ele>
        <time>2021-12-21T13:42:33.551Z</time>
      </trkpt>
      <trkpt lat="44.03462" lon="5.99386">
        <ele>447</ele>
        <time>2021-12-21T13:42:34.551Z</time>
      </trkpt>
      <trkpt lat="44.03461" lon="5.99385">
        <ele>447</ele>
        <time>2021-12-21T13:42:35.551Z</time>
      </trkpt>
      <trkpt lat="44.0346" lon="5.99383">
        <ele>447</ele>
        <time>2021-12-21T13:42:36.551Z</time>
      </trkpt>
      <trkpt lat="44.03459" lon="5.99382">
        <ele>447</ele>
        <time>2021-12-21T13:42:37.551Z</time>
      </trkpt>
      <trkpt lat="44.03458" lon="5.9938">
        <ele>447</ele>
        <time>2021-12-21T13:42:38.551Z</time>
      </trkpt>
      <trkpt lat="44.03457" lon="5.99379">
        <ele>447</ele>
        <time>2021-12-21T13:42:39.551Z</time>
      </trkpt>
      <trkpt lat="44.03456" lon="5.99378">
        <ele>447</ele>
        <time>2021-12-21T13:42:40.551Z</time>
      </trkpt>
      <trkpt lat="44.03455" lon="5.99377">
        <ele>447</ele>
        <time>2021-12-21T13:42:41.551Z</time>
      </trkpt>
      <trkpt lat="44.03454" lon="5.99376">
        <ele>447</ele>
        <time>2021-12-21T13:42:42.551Z</time>
      </trkpt>
      <trkpt lat="44.03453" lon="5.99374">
        <ele>447</ele>
        <time>2021-12-21T13:42:43.551Z</time>
      </trkpt>
      <trkpt lat="44.03452" lon="5.99373">
        <ele>447</ele>
        <time>2021-12-21T13:42:44.551Z</time>
      </trkpt>
      <trkpt lat="44.03452" lon="5.99373">
        <ele>447</ele>
        <time>2021-12-21T13:42:45.551Z</time>
      </trkpt>
      <trkpt lat="44.03451" lon="5.99372">
        <ele>447</ele>
        <time>2021-12-21T13:42:46.551Z</time>
      </trkpt>
      <trkpt lat="44.0345" lon="5.9937">
        <ele>447</ele>
        <time>2021-12-21T13:42:47.551Z</time>
      </trkpt>
      <trkpt lat="44.0345" lon="5.99369">
        <ele>447</ele>
        <time>2021-12-21T13:42:48.551Z</time>
      </trkpt>
      <trkpt lat="44.03449" lon="5.99368">
        <ele>447</ele>
        <time>2021-12-21T13:42:49.551Z</time>
      </trkpt>
      <trkpt lat="44.03448" lon="5.99367">
        <ele>447</ele>
        <time>2021-12-21T13:42:50.551Z</time>
      </trkpt>
      <trkpt lat="44.03448" lon="5.99365">
        <ele>447</ele>
        <time>2021-12-21T13:42:51.551Z</time>
      </trkpt>
      <trkpt lat="44.03447" lon="5.99364">
        <ele>447</ele>
        <time>2021-12-21T13:42:52.551Z</time>
      </trkpt>
      <trkpt lat="44.03447" lon="5.99362">
        <ele>447</ele>
        <time>2021-12-21T13:42:53.551Z</time>
      </trkpt>
      <trkpt lat="44.03447" lon="5.9936">
        <ele>447</ele>
        <time>2021-12-21T13:42:54.551Z</time>
      </trkpt>
      <trkpt lat="44.03446" lon="5.99359">
        <ele>447</ele>
        <time>2021-12-21T13:42:55.551Z</time>
      </trkpt>
      <trkpt lat="44.03446" lon="5.99357">
        <ele>447</ele>
        <time>2021-12-21T13:42:56.551Z</time>
      </trkpt>
      <trkpt lat="44.03446" lon="5.99356">
        <ele>447</ele>
        <time>2021-12-21T13:42:57.551Z</time>
      </trkpt>
      <trkpt lat="44.03445" lon="5.99355">
        <ele>447</ele>
        <time>2021-12-21T13:42:58.551Z</time>
      </trkpt>
      <trkpt lat="44.03445" lon="5.99353">
        <ele>447</ele>
        <time>2021-12-21T13:42:59.551Z</time>
      </trkpt>
      <trkpt lat="44.03444" lon="5.99352">
        <ele>447</ele>
        <time>2021-12-21T13:43:00.551Z</time>
      </trkpt>
      <trkpt lat="44.03444" lon="5.99351">
        <ele>447</ele>
        <time>2021-12-21T13:43:01.551Z</time>
      </trkpt>
      <trkpt lat="44.03444" lon="5.9935">
        <ele>447</ele>
        <time>2021-12-21T13:43:02.551Z</time>
      </trkpt>
      <trkpt lat="44.03443" lon="5.99349">
        <ele>448</ele>
        <time>2021-12-21T13:43:03.551Z</time>
      </trkpt>
      <trkpt lat="44.03442" lon="5.99347">
        <ele>448</ele>
        <time>2021-12-21T13:43:04.551Z</time>
      </trkpt>
      <trkpt lat="44.03442" lon="5.99346">
        <ele>448</ele>
        <time>2021-12-21T13:43:05.551Z</time>
      </trkpt>
      <trkpt lat="44.03441" lon="5.99345">
        <ele>448</ele>
        <time>2021-12-21T13:43:06.551Z</time>
      </trkpt>
      <trkpt lat="44.0344" lon="5.99343">
        <ele>448</ele>
        <time>2021-12-21T13:43:07.551Z</time>
      </trkpt>
      <trkpt lat="44.0344" lon="5.99342">
        <ele>448</ele>
        <time>2021-12-21T13:43:08.551Z</time>
      </trkpt>
      <trkpt lat="44.03439" lon="5.9934">
        <ele>448</ele>
        <time>2021-12-21T13:43:09.551Z</time>
      </trkpt>
      <trkpt lat="44.03439" lon="5.99339">
        <ele>448</ele>
        <time>2021-12-21T13:43:10.551Z</time>
      </trkpt>
      <trkpt lat="44.03438" lon="5.99338">
        <ele>449</ele>
        <time>2021-12-21T13:43:11.551Z</time>
      </trkpt>
      <trkpt lat="44.03437" lon="5.99336">
        <ele>449</ele>
        <time>2021-12-21T13:43:12.551Z</time>
      </trkpt>
      <trkpt lat="44.03436" lon="5.99335">
        <ele>449</ele>
        <time>2021-12-21T13:43:13.551Z</time>
      </trkpt>
      <trkpt lat="44.03435" lon="5.99335">
        <ele>449</ele>
        <time>2021-12-21T13:43:14.551Z</time>
      </trkpt>
      <trkpt lat="44.03435" lon="5.99334">
        <ele>449</ele>
        <time>2021-12-21T13:43:15.551Z</time>
      </trkpt>
      <trkpt lat="44.03434" lon="5.99332">
        <ele>449</ele>
        <time>2021-12-21T13:43:16.551Z</time>
      </trkpt>
      <trkpt lat="44.03433" lon="5.99331">
        <ele>449</ele>
        <time>2021-12-21T13:43:17.551Z</time>
      </trkpt>
      <trkpt lat="44.03432" lon="5.9933">
        <ele>449</ele>
        <time>2021-12-21T13:43:18.551Z</time>
      </trkpt>
      <trkpt lat="44.03432" lon="5.99328">
        <ele>450</ele>
        <time>2021-12-21T13:43:19.551Z</time>
      </trkpt>
      <trkpt lat="44.03431" lon="5.99327">
        <ele>450</ele>
        <time>2021-12-21T13:43:20.551Z</time>
      </trkpt>
      <trkpt lat="44.03431" lon="5.99325">
        <ele>450</ele>
        <time>2021-12-21T13:43:21.551Z</time>
      </trkpt>
      <trkpt lat="44.0343" lon="5.99324">
        <ele>450</ele>
        <time>2021-12-21T13:43:22.551Z</time>
      </trkpt>
      <trkpt lat="44.0343" lon="5.99322">
        <ele>451</ele>
        <time>2021-12-21T13:43:23.551Z</time>
      </trkpt>
      <trkpt lat="44.03429" lon="5.99321">
        <ele>451</ele>
        <time>2021-12-21T13:43:24.551Z</time>
      </trkpt>
      <trkpt lat="44.03429" lon="5.9932">
        <ele>451</ele>
        <time>2021-12-21T13:43:25.551Z</time>
      </trkpt>
      <trkpt lat="44.03428" lon="5.99318">
        <ele>451</ele>
        <time>2021-12-21T13:43:26.551Z</time>
      </trkpt>
      <trkpt lat="44.03428" lon="5.99317">
        <ele>451</ele>
        <time>2021-12-21T13:43:27.551Z</time>
      </trkpt>
      <trkpt lat="44.03427" lon="5.99315">
        <ele>452</ele>
        <time>2021-12-21T13:43:28.551Z</time>
      </trkpt>
      <trkpt lat="44.03426" lon="5.99314">
        <ele>452</ele>
        <time>2021-12-21T13:43:29.551Z</time>
      </trkpt>
      <trkpt lat="44.03426" lon="5.99313">
        <ele>452</ele>
        <time>2021-12-21T13:43:30.551Z</time>
      </trkpt>
      <trkpt lat="44.03425" lon="5.99311">
        <ele>452</ele>
        <time>2021-12-21T13:43:31.551Z</time>
      </trkpt>
      <trkpt lat="44.03425" lon="5.9931">
        <ele>453</ele>
        <time>2021-12-21T13:43:32.551Z</time>
      </trkpt>
      <trkpt lat="44.03424" lon="5.99308">
        <ele>453</ele>
        <time>2021-12-21T13:43:33.551Z</time>
      </trkpt>
      <trkpt lat="44.03423" lon="5.99307">
        <ele>453</ele>
        <time>2021-12-21T13:43:34.551Z</time>
      </trkpt>
      <trkpt lat="44.03423" lon="5.99306">
        <ele>453</ele>
        <time>2021-12-21T13:43:35.551Z</time>
      </trkpt>
      <trkpt lat="44.03422" lon="5.99304">
        <ele>454</ele>
        <time>2021-12-21T13:43:36.551Z</time>
      </trkpt>
      <trkpt lat="44.03422" lon="5.99303">
        <ele>454</ele>
        <time>2021-12-21T13:43:37.551Z</time>
      </trkpt>
      <trkpt lat="44.03422" lon="5.99301">
        <ele>454</ele>
        <time>2021-12-21T13:43:38.551Z</time>
      </trkpt>
      <trkpt lat="44.03421" lon="5.993">
        <ele>454</ele>
        <time>2021-12-21T13:43:39.551Z</time>
      </trkpt>
      <trkpt lat="44.03421" lon="5.99298">
        <ele>454</ele>
        <time>2021-12-21T13:43:40.551Z</time>
      </trkpt>
      <trkpt lat="44.03421" lon="5.99297">
        <ele>454</ele>
        <time>2021-12-21T13:43:41.551Z</time>
      </trkpt>
      <trkpt lat="44.03421" lon="5.99295">
        <ele>455</ele>
        <time>2021-12-21T13:43:42.551Z</time>
      </trkpt>
      <trkpt lat="44.03421" lon="5.99293">
        <ele>455</ele>
        <time>2021-12-21T13:43:43.551Z</time>
      </trkpt>
      <trkpt lat="44.03421" lon="5.99292">
        <ele>455</ele>
        <time>2021-12-21T13:43:44.551Z</time>
      </trkpt>
      <trkpt lat="44.03421" lon="5.9929">
        <ele>455</ele>
        <time>2021-12-21T13:43:45.551Z</time>
      </trkpt>
      <trkpt lat="44.03422" lon="5.99289">
        <ele>455</ele>
        <time>2021-12-21T13:43:46.551Z</time>
      </trkpt>
      <trkpt lat="44.03421" lon="5.99287">
        <ele>455</ele>
        <time>2021-12-21T13:43:47.551Z</time>
      </trkpt>
      <trkpt lat="44.03421" lon="5.99285">
        <ele>455</ele>
        <time>2021-12-21T13:43:48.551Z</time>
      </trkpt>
      <trkpt lat="44.03421" lon="5.99284">
        <ele>455</ele>
        <time>2021-12-21T13:43:49.551Z</time>
      </trkpt>
      <trkpt lat="44.03421" lon="5.99282">
        <ele>455</ele>
        <time>2021-12-21T13:43:50.551Z</time>
      </trkpt>
      <trkpt lat="44.03421" lon="5.9928">
        <ele>456</ele>
        <time>2021-12-21T13:43:51.551Z</time>
      </trkpt>
      <trkpt lat="44.03421" lon="5.99279">
        <ele>456</ele>
        <time>2021-12-21T13:43:52.551Z</time>
      </trkpt>
      <trkpt lat="44.03421" lon="5.99277">
        <ele>456</ele>
        <time>2021-12-21T13:43:53.551Z</time>
      </trkpt>
      <trkpt lat="44.0342" lon="5.99276">
        <ele>456</ele>
        <time>2021-12-21T13:43:54.551Z</time>
      </trkpt>
      <trkpt lat="44.0342" lon="5.99274">
        <ele>456</ele>
        <time>2021-12-21T13:43:55.551Z</time>
      </trkpt>
      <trkpt lat="44.0342" lon="5.99273">
        <ele>456</ele>
        <time>2021-12-21T13:43:56.551Z</time>
      </trkpt>
      <trkpt lat="44.0342" lon="5.99271">
        <ele>456</ele>
        <time>2021-12-21T13:43:57.551Z</time>
      </trkpt>
      <trkpt lat="44.0342" lon="5.9927">
        <ele>456</ele>
        <time>2021-12-21T13:43:58.551Z</time>
      </trkpt>
      <trkpt lat="44.0342" lon="5.99268">
        <ele>456</ele>
        <time>2021-12-21T13:43:59.551Z</time>
      </trkpt>
      <trkpt lat="44.0342" lon="5.99267">
        <ele>456</ele>
        <time>2021-12-21T13:44:00.551Z</time>
      </trkpt>
      <trkpt lat="44.0342" lon="5.99266">
        <ele>456</ele>
        <time>2021-12-21T13:44:01.551Z</time>
      </trkpt>
      <trkpt lat="44.0342" lon="5.99264">
        <ele>455</ele>
        <time>2021-12-21T13:44:02.551Z</time>
      </trkpt>
      <trkpt lat="44.0342" lon="5.99262">
        <ele>455</ele>
        <time>2021-12-21T13:44:03.551Z</time>
      </trkpt>
      <trkpt lat="44.03419" lon="5.99261">
        <ele>455</ele>
        <time>2021-12-21T13:44:04.551Z</time>
      </trkpt>
      <trkpt lat="44.03419" lon="5.99259">
        <ele>455</ele>
        <time>2021-12-21T13:44:05.551Z</time>
      </trkpt>
      <trkpt lat="44.03419" lon="5.99258">
        <ele>454</ele>
        <time>2021-12-21T13:44:06.551Z</time>
      </trkpt>
      <trkpt lat="44.03418" lon="5.99256">
        <ele>454</ele>
        <time>2021-12-21T13:44:07.551Z</time>
      </trkpt>
      <trkpt lat="44.03418" lon="5.99255">
        <ele>454</ele>
        <time>2021-12-21T13:44:08.551Z</time>
      </trkpt>
      <trkpt lat="44.03417" lon="5.99254">
        <ele>454</ele>
        <time>2021-12-21T13:44:09.551Z</time>
      </trkpt>
      <trkpt lat="44.03417" lon="5.99253">
        <ele>454</ele>
        <time>2021-12-21T13:44:10.551Z</time>
      </trkpt>
      <trkpt lat="44.03417" lon="5.99252">
        <ele>454</ele>
        <time>2021-12-21T13:44:11.551Z</time>
      </trkpt>
      <trkpt lat="44.03417" lon="5.99252">
        <ele>453</ele>
        <time>2021-12-21T13:44:12.551Z</time>
      </trkpt>
      <trkpt lat="44.03416" lon="5.99251">
        <ele>453</ele>
        <time>2021-12-21T13:44:13.551Z</time>
      </trkpt>
      <trkpt lat="44.03416" lon="5.9925">
        <ele>453</ele>
        <time>2021-12-21T13:44:14.551Z</time>
      </trkpt>
      <trkpt lat="44.03416" lon="5.99249">
        <ele>453</ele>
        <time>2021-12-21T13:44:15.551Z</time>
      </trkpt>
      <trkpt lat="44.03415" lon="5.99248">
        <ele>453</ele>
        <time>2021-12-21T13:44:16.551Z</time>
      </trkpt>
      <trkpt lat="44.03415" lon="5.99246">
        <ele>452</ele>
        <time>2021-12-21T13:44:17.551Z</time>
      </trkpt>
      <trkpt lat="44.03414" lon="5.99244">
        <ele>452</ele>
        <time>2021-12-21T13:44:18.551Z</time>
      </trkpt>
      <trkpt lat="44.03414" lon="5.99242">
        <ele>452</ele>
        <time>2021-12-21T13:44:19.551Z</time>
      </trkpt>
      <trkpt lat="44.03414" lon="5.99241">
        <ele>452</ele>
        <time>2021-12-21T13:44:20.551Z</time>
      </trkpt>
      <trkpt lat="44.03414" lon="5.99239">
        <ele>452</ele>
        <time>2021-12-21T13:44:21.551Z</time>
      </trkpt>
      <trkpt lat="44.03413" lon="5.99237">
        <ele>451</ele>
        <time>2021-12-21T13:44:22.551Z</time>
      </trkpt>
      <trkpt lat="44.03413" lon="5.99236">
        <ele>451</ele>
        <time>2021-12-21T13:44:23.551Z</time>
      </trkpt>
      <trkpt lat="44.03413" lon="5.99234">
        <ele>451</ele>
        <time>2021-12-21T13:44:24.551Z</time>
      </trkpt>
      <trkpt lat="44.03412" lon="5.99233">
        <ele>451</ele>
        <time>2021-12-21T13:44:25.551Z</time>
      </trkpt>
      <trkpt lat="44.03412" lon="5.99231">
        <ele>451</ele>
        <time>2021-12-21T13:44:26.551Z</time>
      </trkpt>
      <trkpt lat="44.03411" lon="5.9923">
        <ele>451</ele>
        <time>2021-12-21T13:44:27.551Z</time>
      </trkpt>
      <trkpt lat="44.03411" lon="5.99228">
        <ele>450</ele>
        <time>2021-12-21T13:44:28.551Z</time>
      </trkpt>
      <trkpt lat="44.03411" lon="5.99226">
        <ele>450</ele>
        <time>2021-12-21T13:44:29.551Z</time>
      </trkpt>
      <trkpt lat="44.0341" lon="5.99224">
        <ele>450</ele>
        <time>2021-12-21T13:44:30.551Z</time>
      </trkpt>
      <trkpt lat="44.0341" lon="5.99222">
        <ele>450</ele>
        <time>2021-12-21T13:44:31.551Z</time>
      </trkpt>
      <trkpt lat="44.03409" lon="5.99221">
        <ele>450</ele>
        <time>2021-12-21T13:44:32.551Z</time>
      </trkpt>
      <trkpt lat="44.03409" lon="5.99219">
        <ele>450</ele>
        <time>2021-12-21T13:44:33.551Z</time>
      </trkpt>
      <trkpt lat="44.03409" lon="5.99217">
        <ele>450</ele>
        <time>2021-12-21T13:44:34.551Z</time>
      </trkpt>
      <trkpt lat="44.03409" lon="5.99215">
        <ele>450</ele>
        <time>2021-12-21T13:44:35.551Z</time>
      </trkpt>
      <trkpt lat="44.03409" lon="5.99214">
        <ele>450</ele>
        <time>2021-12-21T13:44:36.551Z</time>
      </trkpt>
      <trkpt lat="44.03409" lon="5.99212">
        <ele>450</ele>
        <time>2021-12-21T13:44:37.551Z</time>
      </trkpt>
      <trkpt lat="44.03409" lon="5.9921">
        <ele>449</ele>
        <time>2021-12-21T13:44:38.551Z</time>
      </trkpt>
      <trkpt lat="44.03408" lon="5.99208">
        <ele>449</ele>
        <time>2021-12-21T13:44:39.551Z</time>
      </trkpt>
      <trkpt lat="44.03408" lon="5.99206">
        <ele>449</ele>
        <time>2021-12-21T13:44:40.551Z</time>
      </trkpt>
      <trkpt lat="44.03408" lon="5.99204">
        <ele>449</ele>
        <time>2021-12-21T13:44:41.551Z</time>
      </trkpt>
      <trkpt lat="44.03409" lon="5.99203">
        <ele>449</ele>
        <time>2021-12-21T13:44:42.551Z</time>
      </trkpt>
      <trkpt lat="44.03409" lon="5.99201">
        <ele>449</ele>
        <time>2021-12-21T13:44:43.551Z</time>
      </trkpt>
      <trkpt lat="44.03409" lon="5.99199">
        <ele>449</ele>
        <time>2021-12-21T13:44:44.551Z</time>
      </trkpt>
      <trkpt lat="44.03409" lon="5.99198">
        <ele>449</ele>
        <time>2021-12-21T13:44:45.551Z</time>
      </trkpt>
      <trkpt lat="44.03409" lon="5.99196">
        <ele>448</ele>
        <time>2021-12-21T13:44:46.551Z</time>
      </trkpt>
      <trkpt lat="44.03409" lon="5.99194">
        <ele>448</ele>
        <time>2021-12-21T13:44:47.551Z</time>
      </trkpt>
      <trkpt lat="44.03409" lon="5.99193">
        <ele>448</ele>
        <time>2021-12-21T13:44:48.551Z</time>
      </trkpt>
      <trkpt lat="44.0341" lon="5.99191">
        <ele>448</ele>
        <time>2021-12-21T13:44:49.551Z</time>
      </trkpt>
      <trkpt lat="44.03409" lon="5.99189">
        <ele>448</ele>
        <time>2021-12-21T13:44:50.551Z</time>
      </trkpt>
      <trkpt lat="44.03409" lon="5.99187">
        <ele>448</ele>
        <time>2021-12-21T13:44:51.551Z</time>
      </trkpt>
      <trkpt lat="44.0341" lon="5.99185">
        <ele>447</ele>
        <time>2021-12-21T13:44:52.551Z</time>
      </trkpt>
      <trkpt lat="44.0341" lon="5.99184">
        <ele>447</ele>
        <time>2021-12-21T13:44:53.551Z</time>
      </trkpt>
      <trkpt lat="44.0341" lon="5.99182">
        <ele>447</ele>
        <time>2021-12-21T13:44:54.551Z</time>
      </trkpt>
      <trkpt lat="44.0341" lon="5.9918">
        <ele>447</ele>
        <time>2021-12-21T13:44:55.551Z</time>
      </trkpt>
      <trkpt lat="44.0341" lon="5.99178">
        <ele>447</ele>
        <time>2021-12-21T13:44:56.551Z</time>
      </trkpt>
      <trkpt lat="44.0341" lon="5.99176">
        <ele>447</ele>
        <time>2021-12-21T13:44:57.551Z</time>
      </trkpt>
      <trkpt lat="44.0341" lon="5.99174">
        <ele>446</ele>
        <time>2021-12-21T13:44:58.551Z</time>
      </trkpt>
      <trkpt lat="44.03409" lon="5.99172">
        <ele>446</ele>
        <time>2021-12-21T13:44:59.551Z</time>
      </trkpt>
      <trkpt lat="44.03409" lon="5.99171">
        <ele>446</ele>
        <time>2021-12-21T13:45:00.551Z</time>
      </trkpt>
      <trkpt lat="44.03408" lon="5.99169">
        <ele>446</ele>
        <time>2021-12-21T13:45:01.551Z</time>
      </trkpt>
      <trkpt lat="44.03408" lon="5.99167">
        <ele>446</ele>
        <time>2021-12-21T13:45:02.551Z</time>
      </trkpt>
      <trkpt lat="44.03407" lon="5.99165">
        <ele>446</ele>
        <time>2021-12-21T13:45:03.551Z</time>
      </trkpt>
      <trkpt lat="44.03407" lon="5.99164">
        <ele>446</ele>
        <time>2021-12-21T13:45:04.551Z</time>
      </trkpt>
      <trkpt lat="44.03407" lon="5.99162">
        <ele>446</ele>
        <time>2021-12-21T13:45:05.551Z</time>
      </trkpt>
      <trkpt lat="44.03406" lon="5.9916">
        <ele>445</ele>
        <time>2021-12-21T13:45:06.551Z</time>
      </trkpt>
      <trkpt lat="44.03406" lon="5.99159">
        <ele>445</ele>
        <time>2021-12-21T13:45:07.551Z</time>
      </trkpt>
      <trkpt lat="44.03406" lon="5.99157">
        <ele>445</ele>
        <time>2021-12-21T13:45:08.551Z</time>
      </trkpt>
      <trkpt lat="44.03405" lon="5.99156">
        <ele>445</ele>
        <time>2021-12-21T13:45:09.551Z</time>
      </trkpt>
      <trkpt lat="44.03405" lon="5.99154">
        <ele>445</ele>
        <time>2021-12-21T13:45:10.551Z</time>
      </trkpt>
      <trkpt lat="44.03404" lon="5.99153">
        <ele>445</ele>
        <time>2021-12-21T13:45:11.551Z</time>
      </trkpt>
      <trkpt lat="44.03404" lon="5.99151">
        <ele>445</ele>
        <time>2021-12-21T13:45:12.551Z</time>
      </trkpt>
      <trkpt lat="44.03404" lon="5.9915">
        <ele>446</ele>
        <time>2021-12-21T13:45:13.551Z</time>
      </trkpt>
      <trkpt lat="44.03403" lon="5.99148">
        <ele>446</ele>
        <time>2021-12-21T13:45:14.551Z</time>
      </trkpt>
      <trkpt lat="44.03402" lon="5.99147">
        <ele>446</ele>
        <time>2021-12-21T13:45:15.551Z</time>
      </trkpt>
      <trkpt lat="44.03402" lon="5.99145">
        <ele>446</ele>
        <time>2021-12-21T13:45:16.551Z</time>
      </trkpt>
      <trkpt lat="44.03402" lon="5.99144">
        <ele>446</ele>
        <time>2021-12-21T13:45:17.551Z</time>
      </trkpt>
      <trkpt lat="44.03401" lon="5.99143">
        <ele>446</ele>
        <time>2021-12-21T13:45:18.551Z</time>
      </trkpt>
      <trkpt lat="44.03401" lon="5.99142">
        <ele>446</ele>
        <time>2021-12-21T13:45:19.551Z</time>
      </trkpt>
      <trkpt lat="44.034" lon="5.9914">
        <ele>446</ele>
        <time>2021-12-21T13:45:20.551Z</time>
      </trkpt>
      <trkpt lat="44.034" lon="5.99139">
        <ele>446</ele>
        <time>2021-12-21T13:45:21.551Z</time>
      </trkpt>
      <trkpt lat="44.03399" lon="5.99137">
        <ele>446</ele>
        <time>2021-12-21T13:45:22.551Z</time>
      </trkpt>
      <trkpt lat="44.03399" lon="5.99136">
        <ele>446</ele>
        <time>2021-12-21T13:45:23.551Z</time>
      </trkpt>
      <trkpt lat="44.03398" lon="5.99135">
        <ele>446</ele>
        <time>2021-12-21T13:45:24.551Z</time>
      </trkpt>
      <trkpt lat="44.03397" lon="5.99133">
        <ele>447</ele>
        <time>2021-12-21T13:45:25.551Z</time>
      </trkpt>
      <trkpt lat="44.03397" lon="5.99132">
        <ele>447</ele>
        <time>2021-12-21T13:45:26.551Z</time>
      </trkpt>
      <trkpt lat="44.03396" lon="5.99131">
        <ele>447</ele>
        <time>2021-12-21T13:45:27.551Z</time>
      </trkpt>
      <trkpt lat="44.03395" lon="5.9913">
        <ele>447</ele>
        <time>2021-12-21T13:45:28.551Z</time>
      </trkpt>
      <trkpt lat="44.03395" lon="5.99129">
        <ele>447</ele>
        <time>2021-12-21T13:45:29.551Z</time>
      </trkpt>
      <trkpt lat="44.03394" lon="5.99129">
        <ele>447</ele>
        <time>2021-12-21T13:45:30.551Z</time>
      </trkpt>
      <trkpt lat="44.03393" lon="5.99128">
        <ele>447</ele>
        <time>2021-12-21T13:45:31.551Z</time>
      </trkpt>
      <trkpt lat="44.03392" lon="5.99127">
        <ele>447</ele>
        <time>2021-12-21T13:45:32.551Z</time>
      </trkpt>
      <trkpt lat="44.03391" lon="5.99127">
        <ele>447</ele>
        <time>2021-12-21T13:45:33.551Z</time>
      </trkpt>
      <trkpt lat="44.03391" lon="5.99127">
        <ele>447</ele>
        <time>2021-12-21T13:45:34.551Z</time>
      </trkpt>
      <trkpt lat="44.0339" lon="5.99127">
        <ele>447</ele>
        <time>2021-12-21T13:45:35.551Z</time>
      </trkpt>
      <trkpt lat="44.03389" lon="5.99127">
        <ele>447</ele>
        <time>2021-12-21T13:45:36.551Z</time>
      </trkpt>
      <trkpt lat="44.03388" lon="5.99127">
        <ele>447</ele>
        <time>2021-12-21T13:45:37.551Z</time>
      </trkpt>
      <trkpt lat="44.03388" lon="5.99127">
        <ele>447</ele>
        <time>2021-12-21T13:45:38.551Z</time>
      </trkpt>
      <trkpt lat="44.03387" lon="5.99128">
        <ele>448</ele>
        <time>2021-12-21T13:45:39.551Z</time>
      </trkpt>
      <trkpt lat="44.03387" lon="5.99128">
        <ele>447</ele>
        <time>2021-12-21T13:45:40.551Z</time>
      </trkpt>
      <trkpt lat="44.03386" lon="5.99128">
        <ele>447</ele>
        <time>2021-12-21T13:45:41.551Z</time>
      </trkpt>
      <trkpt lat="44.03385" lon="5.99128">
        <ele>447</ele>
        <time>2021-12-21T13:45:42.551Z</time>
      </trkpt>
      <trkpt lat="44.03385" lon="5.99129">
        <ele>447</ele>
        <time>2021-12-21T13:45:43.551Z</time>
      </trkpt>
      <trkpt lat="44.03385" lon="5.9913">
        <ele>447</ele>
        <time>2021-12-21T13:45:44.551Z</time>
      </trkpt>
      <trkpt lat="44.03385" lon="5.99131">
        <ele>447</ele>
        <time>2021-12-21T13:45:45.551Z</time>
      </trkpt>
      <trkpt lat="44.03384" lon="5.99131">
        <ele>447</ele>
        <time>2021-12-21T13:45:46.551Z</time>
      </trkpt>
      <trkpt lat="44.03384" lon="5.99132">
        <ele>447</ele>
        <time>2021-12-21T13:45:47.551Z</time>
      </trkpt>
      <trkpt lat="44.03383" lon="5.99132">
        <ele>447</ele>
        <time>2021-12-21T13:45:48.551Z</time>
      </trkpt>
      <trkpt lat="44.03383" lon="5.99133">
        <ele>447</ele>
        <time>2021-12-21T13:45:49.551Z</time>
      </trkpt>
      <trkpt lat="44.03383" lon="5.99133">
        <ele>447</ele>
        <time>2021-12-21T13:45:50.551Z</time>
      </trkpt>
      <trkpt lat="44.03382" lon="5.99134">
        <ele>447</ele>
        <time>2021-12-21T13:45:51.551Z</time>
      </trkpt>
      <trkpt lat="44.03382" lon="5.99134">
        <ele>447</ele>
        <time>2021-12-21T13:45:52.551Z</time>
      </trkpt>
      <trkpt lat="44.03381" lon="5.99134">
        <ele>447</ele>
        <time>2021-12-21T13:45:53.551Z</time>
      </trkpt>
      <trkpt lat="44.03381" lon="5.99134">
        <ele>447</ele>
        <time>2021-12-21T13:45:54.551Z</time>
      </trkpt>
      <trkpt lat="44.0338" lon="5.99134">
        <ele>447</ele>
        <time>2021-12-21T13:45:55.551Z</time>
      </trkpt>
      <trkpt lat="44.0338" lon="5.99134">
        <ele>447</ele>
        <time>2021-12-21T13:45:56.551Z</time>
      </trkpt>
      <trkpt lat="44.03379" lon="5.99134">
        <ele>447</ele>
        <time>2021-12-21T13:45:57.551Z</time>
      </trkpt>
      <trkpt lat="44.03379" lon="5.99134">
        <ele>447</ele>
        <time>2021-12-21T13:45:58.551Z</time>
      </trkpt>
      <trkpt lat="44.03379" lon="5.99134">
        <ele>447</ele>
        <time>2021-12-21T13:45:59.551Z</time>
      </trkpt>
      <trkpt lat="44.03379" lon="5.99135">
        <ele>447</ele>
        <time>2021-12-21T13:46:00.551Z</time>
      </trkpt>
      <trkpt lat="44.03379" lon="5.99135">
        <ele>447</ele>
        <time>2021-12-21T13:46:01.551Z</time>
      </trkpt>
      <trkpt lat="44.03378" lon="5.99135">
        <ele>447</ele>
        <time>2021-12-21T13:46:02.551Z</time>
      </trkpt>
      <trkpt lat="44.03378" lon="5.99135">
        <ele>447</ele>
        <time>2021-12-21T13:46:03.551Z</time>
      </trkpt>
      <trkpt lat="44.03378" lon="5.99135">
        <ele>447</ele>
        <time>2021-12-21T13:46:04.551Z</time>
      </trkpt>
      <trkpt lat="44.03378" lon="5.99135">
        <ele>447</ele>
        <time>2021-12-21T13:46:05.551Z</time>
      </trkpt>
      <trkpt lat="44.03378" lon="5.99135">
        <ele>447</ele>
        <time>2021-12-21T13:46:06.551Z</time>
      </trkpt>
      <trkpt lat="44.03378" lon="5.99135">
        <ele>447</ele>
        <time>2021-12-21T13:46:07.551Z</time>
      </trkpt>
      <trkpt lat="44.03377" lon="5.99135">
        <ele>447</ele>
        <time>2021-12-21T13:46:08.551Z</time>
      </trkpt>
      <trkpt lat="44.03377" lon="5.99135">
        <ele>447</ele>
        <time>2021-12-21T13:46:09.551Z</time>
      </trkpt>
      <trkpt lat="44.03377" lon="5.99135">
        <ele>447</ele>
        <time>2021-12-21T13:46:10.551Z</time>
      </trkpt>
      <trkpt lat="44.03377" lon="5.99135">
        <ele>447</ele>
        <time>2021-12-21T13:46:11.551Z</time>
      </trkpt>
      <trkpt lat="44.03376" lon="5.99135">
        <ele>447</ele>
        <time>2021-12-21T13:46:12.551Z</time>
      </trkpt>
      <trkpt lat="44.03376" lon="5.99135">
        <ele>447</ele>
        <time>2021-12-21T13:46:13.551Z</time>
      </trkpt>
      <trkpt lat="44.03376" lon="5.99135">
        <ele>447</ele>
        <time>2021-12-21T13:46:14.551Z</time>
      </trkpt>
      <trkpt lat="44.03376" lon="5.99135">
        <ele>447</ele>
        <time>2021-12-21T13:46:15.551Z</time>
      </trkpt>
      <trkpt lat="44.03376" lon="5.99135">
        <ele>447</ele>
        <time>2021-12-21T13:46:16.551Z</time>
      </trkpt>
      <trkpt lat="44.03375" lon="5.99135">
        <ele>447</ele>
        <time>2021-12-21T13:46:17.551Z</time>
      </trkpt>
      <trkpt lat="44.03375" lon="5.99135">
        <ele>447</ele>
        <time>2021-12-21T13:46:18.551Z</time>
      </trkpt>
      <trkpt lat="44.03375" lon="5.99136">
        <ele>447</ele>
        <time>2021-12-21T13:46:19.551Z</time>
      </trkpt>
      <trkpt lat="44.03375" lon="5.99136">
        <ele>447</ele>
        <time>2021-12-21T13:46:20.551Z</time>
      </trkpt>
      <trkpt lat="44.03375" lon="5.99136">
        <ele>447</ele>
        <time>2021-12-21T13:46:21.551Z</time>
      </trkpt>
      <trkpt lat="44.03375" lon="5.99136">
        <ele>447</ele>
        <time>2021-12-21T13:46:22.551Z</time>
      </trkpt>
      <trkpt lat="44.03375" lon="5.99136">
        <ele>447</ele>
        <time>2021-12-21T13:46:23.551Z</time>
      </trkpt>
      <trkpt lat="44.03374" lon="5.99136">
        <ele>447</ele>
        <time>2021-12-21T13:46:24.551Z</time>
      </trkpt>
      <trkpt lat="44.03375" lon="5.99136">
        <ele>447</ele>
        <time>2021-12-21T13:46:25.551Z</time>
      </trkpt>
      <trkpt lat="44.03375" lon="5.99135">
        <ele>447</ele>
        <time>2021-12-21T13:46:26.551Z</time>
      </trkpt>
      <trkpt lat="44.03375" lon="5.99135">
        <ele>447</ele>
        <time>2021-12-21T13:46:27.551Z</time>
      </trkpt>
      <trkpt lat="44.03375" lon="5.99135">
        <ele>447</ele>
        <time>2021-12-21T13:46:28.551Z</time>
      </trkpt>
      <trkpt lat="44.03375" lon="5.99135">
        <ele>447</ele>
        <time>2021-12-21T13:46:29.551Z</time>
      </trkpt>
      <trkpt lat="44.03375" lon="5.99135">
        <ele>447</ele>
        <time>2021-12-21T13:46:30.551Z</time>
      </trkpt>
      <trkpt lat="44.03375" lon="5.99136">
        <ele>447</ele>
        <time>2021-12-21T13:46:31.551Z</time>
      </trkpt>
      <trkpt lat="44.03376" lon="5.99136">
        <ele>446</ele>
        <time>2021-12-21T13:46:32.551Z</time>
      </trkpt>
      <trkpt lat="44.03376" lon="5.99136">
        <ele>446</ele>
        <time>2021-12-21T13:46:33.551Z</time>
      </trkpt>
      <trkpt lat="44.03377" lon="5.99137">
        <ele>446</ele>
        <time>2021-12-21T13:46:34.551Z</time>
      </trkpt>
      <trkpt lat="44.03378" lon="5.99136">
        <ele>446</ele>
        <time>2021-12-21T13:46:35.551Z</time>
      </trkpt>
      <trkpt lat="44.03379" lon="5.99136">
        <ele>446</ele>
        <time>2021-12-21T13:46:36.551Z</time>
      </trkpt>
      <trkpt lat="44.03379" lon="5.99136">
        <ele>446</ele>
        <time>2021-12-21T13:46:37.551Z</time>
      </trkpt>
      <trkpt lat="44.0338" lon="5.99135">
        <ele>446</ele>
        <time>2021-12-21T13:46:38.551Z</time>
      </trkpt>
      <trkpt lat="44.03381" lon="5.99135">
        <ele>446</ele>
        <time>2021-12-21T13:46:39.551Z</time>
      </trkpt>
      <trkpt lat="44.03382" lon="5.99134">
        <ele>446</ele>
        <time>2021-12-21T13:46:40.551Z</time>
      </trkpt>
      <trkpt lat="44.03382" lon="5.99134">
        <ele>446</ele>
        <time>2021-12-21T13:46:41.551Z</time>
      </trkpt>
      <trkpt lat="44.03383" lon="5.99133">
        <ele>446</ele>
        <time>2021-12-21T13:46:42.551Z</time>
      </trkpt>
      <trkpt lat="44.03384" lon="5.99132">
        <ele>446</ele>
        <time>2021-12-21T13:46:43.551Z</time>
      </trkpt>
      <trkpt lat="44.03384" lon="5.99131">
        <ele>446</ele>
        <time>2021-12-21T13:46:44.551Z</time>
      </trkpt>
      <trkpt lat="44.03385" lon="5.9913">
        <ele>446</ele>
        <time>2021-12-21T13:46:45.551Z</time>
      </trkpt>
      <trkpt lat="44.03385" lon="5.99129">
        <ele>446</ele>
        <time>2021-12-21T13:46:46.551Z</time>
      </trkpt>
      <trkpt lat="44.03385" lon="5.99129">
        <ele>446</ele>
        <time>2021-12-21T13:46:47.551Z</time>
      </trkpt>
      <trkpt lat="44.03385" lon="5.99128">
        <ele>446</ele>
        <time>2021-12-21T13:46:48.551Z</time>
      </trkpt>
      <trkpt lat="44.03386" lon="5.99127">
        <ele>446</ele>
        <time>2021-12-21T13:46:49.551Z</time>
      </trkpt>
      <trkpt lat="44.03386" lon="5.99127">
        <ele>446</ele>
        <time>2021-12-21T13:46:50.551Z</time>
      </trkpt>
      <trkpt lat="44.03386" lon="5.99126">
        <ele>446</ele>
        <time>2021-12-21T13:46:51.551Z</time>
      </trkpt>
      <trkpt lat="44.03387" lon="5.99126">
        <ele>446</ele>
        <time>2021-12-21T13:46:52.551Z</time>
      </trkpt>
      <trkpt lat="44.03387" lon="5.99125">
        <ele>446</ele>
        <time>2021-12-21T13:46:53.551Z</time>
      </trkpt>
      <trkpt lat="44.03388" lon="5.99124">
        <ele>446</ele>
        <time>2021-12-21T13:46:54.551Z</time>
      </trkpt>
      <trkpt lat="44.03388" lon="5.99124">
        <ele>446</ele>
        <time>2021-12-21T13:46:55.551Z</time>
      </trkpt>
      <trkpt lat="44.03389" lon="5.99122">
        <ele>445</ele>
        <time>2021-12-21T13:46:56.551Z</time>
      </trkpt>
      <trkpt lat="44.03389" lon="5.99122">
        <ele>445</ele>
        <time>2021-12-21T13:46:57.551Z</time>
      </trkpt>
      <trkpt lat="44.03389" lon="5.9912">
        <ele>445</ele>
        <time>2021-12-21T13:46:58.551Z</time>
      </trkpt>
      <trkpt lat="44.03389" lon="5.99119">
        <ele>445</ele>
        <time>2021-12-21T13:46:59.551Z</time>
      </trkpt>
      <trkpt lat="44.03388" lon="5.99117">
        <ele>445</ele>
        <time>2021-12-21T13:47:00.551Z</time>
      </trkpt>
      <trkpt lat="44.03388" lon="5.99116">
        <ele>445</ele>
        <time>2021-12-21T13:47:01.551Z</time>
      </trkpt>
      <trkpt lat="44.03387" lon="5.99115">
        <ele>445</ele>
        <time>2021-12-21T13:47:02.551Z</time>
      </trkpt>
      <trkpt lat="44.03386" lon="5.99114">
        <ele>445</ele>
        <time>2021-12-21T13:47:03.551Z</time>
      </trkpt>
      <trkpt lat="44.03385" lon="5.99113">
        <ele>445</ele>
        <time>2021-12-21T13:47:04.551Z</time>
      </trkpt>
      <trkpt lat="44.03384" lon="5.99112">
        <ele>445</ele>
        <time>2021-12-21T13:47:05.551Z</time>
      </trkpt>
      <trkpt lat="44.03383" lon="5.99111">
        <ele>445</ele>
        <time>2021-12-21T13:47:06.551Z</time>
      </trkpt>
      <trkpt lat="44.03382" lon="5.9911">
        <ele>445</ele>
        <time>2021-12-21T13:47:07.551Z</time>
      </trkpt>
      <trkpt lat="44.03381" lon="5.99109">
        <ele>445</ele>
        <time>2021-12-21T13:47:08.551Z</time>
      </trkpt>
      <trkpt lat="44.0338" lon="5.99107">
        <ele>445</ele>
        <time>2021-12-21T13:47:09.551Z</time>
      </trkpt>
      <trkpt lat="44.0338" lon="5.99106">
        <ele>445</ele>
        <time>2021-12-21T13:47:10.551Z</time>
      </trkpt>
      <trkpt lat="44.03379" lon="5.99104">
        <ele>445</ele>
        <time>2021-12-21T13:47:11.551Z</time>
      </trkpt>
      <trkpt lat="44.03378" lon="5.99103">
        <ele>445</ele>
        <time>2021-12-21T13:47:12.551Z</time>
      </trkpt>
      <trkpt lat="44.03378" lon="5.99102">
        <ele>445</ele>
        <time>2021-12-21T13:47:13.551Z</time>
      </trkpt>
      <trkpt lat="44.03377" lon="5.991">
        <ele>445</ele>
        <time>2021-12-21T13:47:14.551Z</time>
      </trkpt>
      <trkpt lat="44.03377" lon="5.99099">
        <ele>445</ele>
        <time>2021-12-21T13:47:15.551Z</time>
      </trkpt>
      <trkpt lat="44.03376" lon="5.99098">
        <ele>445</ele>
        <time>2021-12-21T13:47:16.551Z</time>
      </trkpt>
      <trkpt lat="44.03376" lon="5.99097">
        <ele>445</ele>
        <time>2021-12-21T13:47:17.551Z</time>
      </trkpt>
      <trkpt lat="44.03376" lon="5.99096">
        <ele>446</ele>
        <time>2021-12-21T13:47:18.551Z</time>
      </trkpt>
      <trkpt lat="44.03375" lon="5.99094">
        <ele>446</ele>
        <time>2021-12-21T13:47:19.551Z</time>
      </trkpt>
      <trkpt lat="44.03375" lon="5.99093">
        <ele>446</ele>
        <time>2021-12-21T13:47:20.551Z</time>
      </trkpt>
      <trkpt lat="44.03375" lon="5.99092">
        <ele>446</ele>
        <time>2021-12-21T13:47:21.551Z</time>
      </trkpt>
      <trkpt lat="44.03375" lon="5.9909">
        <ele>446</ele>
        <time>2021-12-21T13:47:22.551Z</time>
      </trkpt>
      <trkpt lat="44.03374" lon="5.99089">
        <ele>446</ele>
        <time>2021-12-21T13:47:23.551Z</time>
      </trkpt>
      <trkpt lat="44.03374" lon="5.99088">
        <ele>446</ele>
        <time>2021-12-21T13:47:24.551Z</time>
      </trkpt>
      <trkpt lat="44.03373" lon="5.99087">
        <ele>446</ele>
        <time>2021-12-21T13:47:25.551Z</time>
      </trkpt>
      <trkpt lat="44.03373" lon="5.99085">
        <ele>446</ele>
        <time>2021-12-21T13:47:26.551Z</time>
      </trkpt>
      <trkpt lat="44.03373" lon="5.99084">
        <ele>446</ele>
        <time>2021-12-21T13:47:27.551Z</time>
      </trkpt>
      <trkpt lat="44.03372" lon="5.99083">
        <ele>446</ele>
        <time>2021-12-21T13:47:28.551Z</time>
      </trkpt>
      <trkpt lat="44.03372" lon="5.99082">
        <ele>446</ele>
        <time>2021-12-21T13:47:29.551Z</time>
      </trkpt>
      <trkpt lat="44.03371" lon="5.99082">
        <ele>446</ele>
        <time>2021-12-21T13:47:30.551Z</time>
      </trkpt>
      <trkpt lat="44.0337" lon="5.9908">
        <ele>446</ele>
        <time>2021-12-21T13:47:31.551Z</time>
      </trkpt>
      <trkpt lat="44.0337" lon="5.99079">
        <ele>446</ele>
        <time>2021-12-21T13:47:32.551Z</time>
      </trkpt>
      <trkpt lat="44.03369" lon="5.99078">
        <ele>446</ele>
        <time>2021-12-21T13:47:33.551Z</time>
      </trkpt>
      <trkpt lat="44.03369" lon="5.99077">
        <ele>446</ele>
        <time>2021-12-21T13:47:34.551Z</time>
      </trkpt>
      <trkpt lat="44.03368" lon="5.99075">
        <ele>446</ele>
        <time>2021-12-21T13:47:35.551Z</time>
      </trkpt>
      <trkpt lat="44.03368" lon="5.99074">
        <ele>446</ele>
        <time>2021-12-21T13:47:36.551Z</time>
      </trkpt>
      <trkpt lat="44.03367" lon="5.99073">
        <ele>446</ele>
        <time>2021-12-21T13:47:37.551Z</time>
      </trkpt>
      <trkpt lat="44.03366" lon="5.99072">
        <ele>446</ele>
        <time>2021-12-21T13:47:38.551Z</time>
      </trkpt>
      <trkpt lat="44.03365" lon="5.99071">
        <ele>446</ele>
        <time>2021-12-21T13:47:39.551Z</time>
      </trkpt>
      <trkpt lat="44.03364" lon="5.9907">
        <ele>446</ele>
        <time>2021-12-21T13:47:40.551Z</time>
      </trkpt>
      <trkpt lat="44.03363" lon="5.99069">
        <ele>446</ele>
        <time>2021-12-21T13:47:41.551Z</time>
      </trkpt>
      <trkpt lat="44.03362" lon="5.99068">
        <ele>446</ele>
        <time>2021-12-21T13:47:42.551Z</time>
      </trkpt>
      <trkpt lat="44.03361" lon="5.99067">
        <ele>446</ele>
        <time>2021-12-21T13:47:43.551Z</time>
      </trkpt>
      <trkpt lat="44.03361" lon="5.99065">
        <ele>446</ele>
        <time>2021-12-21T13:47:44.551Z</time>
      </trkpt>
      <trkpt lat="44.0336" lon="5.99064">
        <ele>446</ele>
        <time>2021-12-21T13:47:45.551Z</time>
      </trkpt>
      <trkpt lat="44.03359" lon="5.99063">
        <ele>446</ele>
        <time>2021-12-21T13:47:46.551Z</time>
      </trkpt>
      <trkpt lat="44.03359" lon="5.99062">
        <ele>446</ele>
        <time>2021-12-21T13:47:47.551Z</time>
      </trkpt>
      <trkpt lat="44.03358" lon="5.9906">
        <ele>446</ele>
        <time>2021-12-21T13:47:48.551Z</time>
      </trkpt>
      <trkpt lat="44.03357" lon="5.99059">
        <ele>446</ele>
        <time>2021-12-21T13:47:49.551Z</time>
      </trkpt>
      <trkpt lat="44.03357" lon="5.99058">
        <ele>446</ele>
        <time>2021-12-21T13:47:50.551Z</time>
      </trkpt>
      <trkpt lat="44.03356" lon="5.99057">
        <ele>446</ele>
        <time>2021-12-21T13:47:51.551Z</time>
      </trkpt>
      <trkpt lat="44.03355" lon="5.99056">
        <ele>446</ele>
        <time>2021-12-21T13:47:52.551Z</time>
      </trkpt>
      <trkpt lat="44.03354" lon="5.99055">
        <ele>446</ele>
        <time>2021-12-21T13:47:53.551Z</time>
      </trkpt>
      <trkpt lat="44.03354" lon="5.99054">
        <ele>446</ele>
        <time>2021-12-21T13:47:54.551Z</time>
      </trkpt>
      <trkpt lat="44.03353" lon="5.99053">
        <ele>446</ele>
        <time>2021-12-21T13:47:55.551Z</time>
      </trkpt>
      <trkpt lat="44.03352" lon="5.99051">
        <ele>446</ele>
        <time>2021-12-21T13:47:56.551Z</time>
      </trkpt>
      <trkpt lat="44.03351" lon="5.9905">
        <ele>446</ele>
        <time>2021-12-21T13:47:57.551Z</time>
      </trkpt>
      <trkpt lat="44.03351" lon="5.99049">
        <ele>446</ele>
        <time>2021-12-21T13:47:58.551Z</time>
      </trkpt>
      <trkpt lat="44.0335" lon="5.99047">
        <ele>446</ele>
        <time>2021-12-21T13:47:59.551Z</time>
      </trkpt>
      <trkpt lat="44.0335" lon="5.99046">
        <ele>446</ele>
        <time>2021-12-21T13:48:00.551Z</time>
      </trkpt>
      <trkpt lat="44.03349" lon="5.99045">
        <ele>446</ele>
        <time>2021-12-21T13:48:01.551Z</time>
      </trkpt>
      <trkpt lat="44.03348" lon="5.99044">
        <ele>446</ele>
        <time>2021-12-21T13:48:02.551Z</time>
      </trkpt>
      <trkpt lat="44.03348" lon="5.99043">
        <ele>446</ele>
        <time>2021-12-21T13:48:03.551Z</time>
      </trkpt>
      <trkpt lat="44.03347" lon="5.99042">
        <ele>446</ele>
        <time>2021-12-21T13:48:04.551Z</time>
      </trkpt>
      <trkpt lat="44.03346" lon="5.99041">
        <ele>446</ele>
        <time>2021-12-21T13:48:05.551Z</time>
      </trkpt>
      <trkpt lat="44.03345" lon="5.9904">
        <ele>446</ele>
        <time>2021-12-21T13:48:06.551Z</time>
      </trkpt>
      <trkpt lat="44.03344" lon="5.99039">
        <ele>446</ele>
        <time>2021-12-21T13:48:07.551Z</time>
      </trkpt>
      <trkpt lat="44.03343" lon="5.99038">
        <ele>446</ele>
        <time>2021-12-21T13:48:08.551Z</time>
      </trkpt>
      <trkpt lat="44.03342" lon="5.99037">
        <ele>446</ele>
        <time>2021-12-21T13:48:09.551Z</time>
      </trkpt>
      <trkpt lat="44.03342" lon="5.99036">
        <ele>446</ele>
        <time>2021-12-21T13:48:10.551Z</time>
      </trkpt>
      <trkpt lat="44.03341" lon="5.99035">
        <ele>446</ele>
        <time>2021-12-21T13:48:11.551Z</time>
      </trkpt>
      <trkpt lat="44.0334" lon="5.99034">
        <ele>446</ele>
        <time>2021-12-21T13:48:12.551Z</time>
      </trkpt>
      <trkpt lat="44.0334" lon="5.99033">
        <ele>446</ele>
        <time>2021-12-21T13:48:13.551Z</time>
      </trkpt>
      <trkpt lat="44.03339" lon="5.99031">
        <ele>446</ele>
        <time>2021-12-21T13:48:14.551Z</time>
      </trkpt>
      <trkpt lat="44.03338" lon="5.9903">
        <ele>446</ele>
        <time>2021-12-21T13:48:15.551Z</time>
      </trkpt>
      <trkpt lat="44.03337" lon="5.9903">
        <ele>446</ele>
        <time>2021-12-21T13:48:16.551Z</time>
      </trkpt>
      <trkpt lat="44.03336" lon="5.99028">
        <ele>446</ele>
        <time>2021-12-21T13:48:17.551Z</time>
      </trkpt>
      <trkpt lat="44.03336" lon="5.99027">
        <ele>446</ele>
        <time>2021-12-21T13:48:18.551Z</time>
      </trkpt>
      <trkpt lat="44.03335" lon="5.99026">
        <ele>446</ele>
        <time>2021-12-21T13:48:19.551Z</time>
      </trkpt>
      <trkpt lat="44.03335" lon="5.99025">
        <ele>446</ele>
        <time>2021-12-21T13:48:20.551Z</time>
      </trkpt>
      <trkpt lat="44.03334" lon="5.99024">
        <ele>446</ele>
        <time>2021-12-21T13:48:21.551Z</time>
      </trkpt>
      <trkpt lat="44.03334" lon="5.99023">
        <ele>446</ele>
        <time>2021-12-21T13:48:22.551Z</time>
      </trkpt>
      <trkpt lat="44.03334" lon="5.99021">
        <ele>447</ele>
        <time>2021-12-21T13:48:23.551Z</time>
      </trkpt>
      <trkpt lat="44.03334" lon="5.9902">
        <ele>447</ele>
        <time>2021-12-21T13:48:24.551Z</time>
      </trkpt>
      <trkpt lat="44.03333" lon="5.99019">
        <ele>447</ele>
        <time>2021-12-21T13:48:25.551Z</time>
      </trkpt>
      <trkpt lat="44.03333" lon="5.99017">
        <ele>447</ele>
        <time>2021-12-21T13:48:26.551Z</time>
      </trkpt>
      <trkpt lat="44.03332" lon="5.99016">
        <ele>447</ele>
        <time>2021-12-21T13:48:27.551Z</time>
      </trkpt>
      <trkpt lat="44.03332" lon="5.99015">
        <ele>447</ele>
        <time>2021-12-21T13:48:28.551Z</time>
      </trkpt>
      <trkpt lat="44.03332" lon="5.99014">
        <ele>448</ele>
        <time>2021-12-21T13:48:29.551Z</time>
      </trkpt>
      <trkpt lat="44.03332" lon="5.99013">
        <ele>448</ele>
        <time>2021-12-21T13:48:30.551Z</time>
      </trkpt>
      <trkpt lat="44.03332" lon="5.99012">
        <ele>448</ele>
        <time>2021-12-21T13:48:31.551Z</time>
      </trkpt>
      <trkpt lat="44.03332" lon="5.9901">
        <ele>448</ele>
        <time>2021-12-21T13:48:32.551Z</time>
      </trkpt>
      <trkpt lat="44.03332" lon="5.99009">
        <ele>448</ele>
        <time>2021-12-21T13:48:33.551Z</time>
      </trkpt>
      <trkpt lat="44.03331" lon="5.99007">
        <ele>449</ele>
        <time>2021-12-21T13:48:34.551Z</time>
      </trkpt>
      <trkpt lat="44.03331" lon="5.99006">
        <ele>449</ele>
        <time>2021-12-21T13:48:35.551Z</time>
      </trkpt>
      <trkpt lat="44.03331" lon="5.99004">
        <ele>449</ele>
        <time>2021-12-21T13:48:36.551Z</time>
      </trkpt>
      <trkpt lat="44.0333" lon="5.99002">
        <ele>449</ele>
        <time>2021-12-21T13:48:37.551Z</time>
      </trkpt>
      <trkpt lat="44.0333" lon="5.99001">
        <ele>449</ele>
        <time>2021-12-21T13:48:38.551Z</time>
      </trkpt>
      <trkpt lat="44.0333" lon="5.98999">
        <ele>450</ele>
        <time>2021-12-21T13:48:39.551Z</time>
      </trkpt>
      <trkpt lat="44.03329" lon="5.98998">
        <ele>450</ele>
        <time>2021-12-21T13:48:40.551Z</time>
      </trkpt>
      <trkpt lat="44.03329" lon="5.98996">
        <ele>450</ele>
        <time>2021-12-21T13:48:41.551Z</time>
      </trkpt>
      <trkpt lat="44.03328" lon="5.98994">
        <ele>450</ele>
        <time>2021-12-21T13:48:42.551Z</time>
      </trkpt>
      <trkpt lat="44.03328" lon="5.98993">
        <ele>451</ele>
        <time>2021-12-21T13:48:43.551Z</time>
      </trkpt>
      <trkpt lat="44.03327" lon="5.98992">
        <ele>451</ele>
        <time>2021-12-21T13:48:44.551Z</time>
      </trkpt>
      <trkpt lat="44.03326" lon="5.98991">
        <ele>451</ele>
        <time>2021-12-21T13:48:45.551Z</time>
      </trkpt>
      <trkpt lat="44.03326" lon="5.98989">
        <ele>451</ele>
        <time>2021-12-21T13:48:46.551Z</time>
      </trkpt>
      <trkpt lat="44.03325" lon="5.98988">
        <ele>451</ele>
        <time>2021-12-21T13:48:47.551Z</time>
      </trkpt>
      <trkpt lat="44.03325" lon="5.98987">
        <ele>451</ele>
        <time>2021-12-21T13:48:48.551Z</time>
      </trkpt>
      <trkpt lat="44.03325" lon="5.98985">
        <ele>452</ele>
        <time>2021-12-21T13:48:49.551Z</time>
      </trkpt>
      <trkpt lat="44.03324" lon="5.98984">
        <ele>452</ele>
        <time>2021-12-21T13:48:50.551Z</time>
      </trkpt>
      <trkpt lat="44.03324" lon="5.98983">
        <ele>452</ele>
        <time>2021-12-21T13:48:51.551Z</time>
      </trkpt>
      <trkpt lat="44.03324" lon="5.98982">
        <ele>452</ele>
        <time>2021-12-21T13:48:52.551Z</time>
      </trkpt>
      <trkpt lat="44.03323" lon="5.9898">
        <ele>452</ele>
        <time>2021-12-21T13:48:53.551Z</time>
      </trkpt>
      <trkpt lat="44.03323" lon="5.98979">
        <ele>452</ele>
        <time>2021-12-21T13:48:54.551Z</time>
      </trkpt>
      <trkpt lat="44.03322" lon="5.98977">
        <ele>452</ele>
        <time>2021-12-21T13:48:55.551Z</time>
      </trkpt>
      <trkpt lat="44.03321" lon="5.98976">
        <ele>453</ele>
        <time>2021-12-21T13:48:56.551Z</time>
      </trkpt>
      <trkpt lat="44.03321" lon="5.98975">
        <ele>453</ele>
        <time>2021-12-21T13:48:57.551Z</time>
      </trkpt>
      <trkpt lat="44.0332" lon="5.98973">
        <ele>453</ele>
        <time>2021-12-21T13:48:58.551Z</time>
      </trkpt>
      <trkpt lat="44.0332" lon="5.98972">
        <ele>453</ele>
        <time>2021-12-21T13:48:59.551Z</time>
      </trkpt>
      <trkpt lat="44.03319" lon="5.9897">
        <ele>453</ele>
        <time>2021-12-21T13:49:00.551Z</time>
      </trkpt>
      <trkpt lat="44.03318" lon="5.98969">
        <ele>453</ele>
        <time>2021-12-21T13:49:01.551Z</time>
      </trkpt>
      <trkpt lat="44.03318" lon="5.98967">
        <ele>454</ele>
        <time>2021-12-21T13:49:02.551Z</time>
      </trkpt>
      <trkpt lat="44.03317" lon="5.98966">
        <ele>454</ele>
        <time>2021-12-21T13:49:03.551Z</time>
      </trkpt>
      <trkpt lat="44.03317" lon="5.98964">
        <ele>454</ele>
        <time>2021-12-21T13:49:04.551Z</time>
      </trkpt>
      <trkpt lat="44.03316" lon="5.98963">
        <ele>454</ele>
        <time>2021-12-21T13:49:05.551Z</time>
      </trkpt>
      <trkpt lat="44.03316" lon="5.98962">
        <ele>454</ele>
        <time>2021-12-21T13:49:06.551Z</time>
      </trkpt>
      <trkpt lat="44.03315" lon="5.98961">
        <ele>454</ele>
        <time>2021-12-21T13:49:07.551Z</time>
      </trkpt>
      <trkpt lat="44.03315" lon="5.98961">
        <ele>454</ele>
        <time>2021-12-21T13:49:08.551Z</time>
      </trkpt>
      <trkpt lat="44.03315" lon="5.9896">
        <ele>454</ele>
        <time>2021-12-21T13:49:09.551Z</time>
      </trkpt>
      <trkpt lat="44.03315" lon="5.9896">
        <ele>455</ele>
        <time>2021-12-21T13:49:10.551Z</time>
      </trkpt>
      <trkpt lat="44.03315" lon="5.98959">
        <ele>455</ele>
        <time>2021-12-21T13:49:11.551Z</time>
      </trkpt>
      <trkpt lat="44.03315" lon="5.98959">
        <ele>455</ele>
        <time>2021-12-21T13:49:12.551Z</time>
      </trkpt>
      <trkpt lat="44.03315" lon="5.98959">
        <ele>455</ele>
        <time>2021-12-21T13:49:13.551Z</time>
      </trkpt>
      <trkpt lat="44.03316" lon="5.98959">
        <ele>455</ele>
        <time>2021-12-21T13:49:14.551Z</time>
      </trkpt>
      <trkpt lat="44.03316" lon="5.98958">
        <ele>455</ele>
        <time>2021-12-21T13:49:15.551Z</time>
      </trkpt>
      <trkpt lat="44.03316" lon="5.98958">
        <ele>455</ele>
        <time>2021-12-21T13:49:16.551Z</time>
      </trkpt>
      <trkpt lat="44.03316" lon="5.98958">
        <ele>455</ele>
        <time>2021-12-21T13:49:17.551Z</time>
      </trkpt>
      <trkpt lat="44.03316" lon="5.98958">
        <ele>455</ele>
        <time>2021-12-21T13:49:18.551Z</time>
      </trkpt>
      <trkpt lat="44.03316" lon="5.98958">
        <ele>455</ele>
        <time>2021-12-21T13:49:19.551Z</time>
      </trkpt>
      <trkpt lat="44.03316" lon="5.98958">
        <ele>455</ele>
        <time>2021-12-21T13:49:20.551Z</time>
      </trkpt>
      <trkpt lat="44.03316" lon="5.98958">
        <ele>455</ele>
        <time>2021-12-21T13:49:21.551Z</time>
      </trkpt>
      <trkpt lat="44.03316" lon="5.98958">
        <ele>455</ele>
        <time>2021-12-21T13:49:22.551Z</time>
      </trkpt>
      <trkpt lat="44.03316" lon="5.98958">
        <ele>456</ele>
        <time>2021-12-21T13:49:23.551Z</time>
      </trkpt>
      <trkpt lat="44.03316" lon="5.98957">
        <ele>456</ele>
        <time>2021-12-21T13:49:24.551Z</time>
      </trkpt>
      <trkpt lat="44.03316" lon="5.98957">
        <ele>456</ele>
        <time>2021-12-21T13:49:25.551Z</time>
      </trkpt>
      <trkpt lat="44.03316" lon="5.98957">
        <ele>456</ele>
        <time>2021-12-21T13:49:26.551Z</time>
      </trkpt>
      <trkpt lat="44.03316" lon="5.98957">
        <ele>456</ele>
        <time>2021-12-21T13:49:27.551Z</time>
      </trkpt>
      <trkpt lat="44.03315" lon="5.98956">
        <ele>456</ele>
        <time>2021-12-21T13:49:28.551Z</time>
      </trkpt>
      <trkpt lat="44.03315" lon="5.98955">
        <ele>456</ele>
        <time>2021-12-21T13:49:29.551Z</time>
      </trkpt>
      <trkpt lat="44.03315" lon="5.98955">
        <ele>456</ele>
        <time>2021-12-21T13:49:30.551Z</time>
      </trkpt>
      <trkpt lat="44.03315" lon="5.98955">
        <ele>456</ele>
        <time>2021-12-21T13:49:31.551Z</time>
      </trkpt>
      <trkpt lat="44.03315" lon="5.98955">
        <ele>456</ele>
        <time>2021-12-21T13:49:32.551Z</time>
      </trkpt>
      <trkpt lat="44.03315" lon="5.98955">
        <ele>456</ele>
        <time>2021-12-21T13:49:33.551Z</time>
      </trkpt>
      <trkpt lat="44.03315" lon="5.98955">
        <ele>456</ele>
        <time>2021-12-21T13:49:34.551Z</time>
      </trkpt>
      <trkpt lat="44.03315" lon="5.98954">
        <ele>456</ele>
        <time>2021-12-21T13:49:35.551Z</time>
      </trkpt>
      <trkpt lat="44.03315" lon="5.98954">
        <ele>456</ele>
        <time>2021-12-21T13:49:36.551Z</time>
      </trkpt>
      <trkpt lat="44.03315" lon="5.98954">
        <ele>456</ele>
        <time>2021-12-21T13:49:37.551Z</time>
      </trkpt>
      <trkpt lat="44.03315" lon="5.98954">
        <ele>456</ele>
        <time>2021-12-21T13:49:38.551Z</time>
      </trkpt>
      <trkpt lat="44.03314" lon="5.98953">
        <ele>456</ele>
        <time>2021-12-21T13:49:39.551Z</time>
      </trkpt>
      <trkpt lat="44.03314" lon="5.98952">
        <ele>456</ele>
        <time>2021-12-21T13:49:40.551Z</time>
      </trkpt>
      <trkpt lat="44.03314" lon="5.98951">
        <ele>456</ele>
        <time>2021-12-21T13:49:41.551Z</time>
      </trkpt>
      <trkpt lat="44.03313" lon="5.9895">
        <ele>456</ele>
        <time>2021-12-21T13:49:42.551Z</time>
      </trkpt>
      <trkpt lat="44.03313" lon="5.98948">
        <ele>456</ele>
        <time>2021-12-21T13:49:43.551Z</time>
      </trkpt>
      <trkpt lat="44.03312" lon="5.98946">
        <ele>456</ele>
        <time>2021-12-21T13:49:44.551Z</time>
      </trkpt>
      <trkpt lat="44.03311" lon="5.98944">
        <ele>456</ele>
        <time>2021-12-21T13:49:45.551Z</time>
      </trkpt>
      <trkpt lat="44.03311" lon="5.98943">
        <ele>456</ele>
        <time>2021-12-21T13:49:46.551Z</time>
      </trkpt>
      <trkpt lat="44.0331" lon="5.98941">
        <ele>456</ele>
        <time>2021-12-21T13:49:47.551Z</time>
      </trkpt>
      <trkpt lat="44.0331" lon="5.9894">
        <ele>456</ele>
        <time>2021-12-21T13:49:48.551Z</time>
      </trkpt>
      <trkpt lat="44.03309" lon="5.98938">
        <ele>456</ele>
        <time>2021-12-21T13:49:49.551Z</time>
      </trkpt>
      <trkpt lat="44.03309" lon="5.98937">
        <ele>456</ele>
        <time>2021-12-21T13:49:50.551Z</time>
      </trkpt>
      <trkpt lat="44.03309" lon="5.98935">
        <ele>456</ele>
        <time>2021-12-21T13:49:51.551Z</time>
      </trkpt>
      <trkpt lat="44.03309" lon="5.98934">
        <ele>456</ele>
        <time>2021-12-21T13:49:52.551Z</time>
      </trkpt>
      <trkpt lat="44.03308" lon="5.98933">
        <ele>456</ele>
        <time>2021-12-21T13:49:53.551Z</time>
      </trkpt>
      <trkpt lat="44.03308" lon="5.98931">
        <ele>456</ele>
        <time>2021-12-21T13:49:54.551Z</time>
      </trkpt>
      <trkpt lat="44.03308" lon="5.98929">
        <ele>456</ele>
        <time>2021-12-21T13:49:55.551Z</time>
      </trkpt>
      <trkpt lat="44.03308" lon="5.98928">
        <ele>456</ele>
        <time>2021-12-21T13:49:56.551Z</time>
      </trkpt>
      <trkpt lat="44.03307" lon="5.98926">
        <ele>456</ele>
        <time>2021-12-21T13:49:57.551Z</time>
      </trkpt>
      <trkpt lat="44.03307" lon="5.98925">
        <ele>456</ele>
        <time>2021-12-21T13:49:58.551Z</time>
      </trkpt>
      <trkpt lat="44.03306" lon="5.98923">
        <ele>456</ele>
        <time>2021-12-21T13:49:59.551Z</time>
      </trkpt>
      <trkpt lat="44.03306" lon="5.98922">
        <ele>456</ele>
        <time>2021-12-21T13:50:00.551Z</time>
      </trkpt>
      <trkpt lat="44.03305" lon="5.98921">
        <ele>456</ele>
        <time>2021-12-21T13:50:01.551Z</time>
      </trkpt>
      <trkpt lat="44.03305" lon="5.98919">
        <ele>456</ele>
        <time>2021-12-21T13:50:02.551Z</time>
      </trkpt>
      <trkpt lat="44.03305" lon="5.98917">
        <ele>456</ele>
        <time>2021-12-21T13:50:03.551Z</time>
      </trkpt>
      <trkpt lat="44.03305" lon="5.98915">
        <ele>456</ele>
        <time>2021-12-21T13:50:04.551Z</time>
      </trkpt>
      <trkpt lat="44.03305" lon="5.98913">
        <ele>456</ele>
        <time>2021-12-21T13:50:05.551Z</time>
      </trkpt>
      <trkpt lat="44.03304" lon="5.98911">
        <ele>456</ele>
        <time>2021-12-21T13:50:06.551Z</time>
      </trkpt>
      <trkpt lat="44.03304" lon="5.98909">
        <ele>456</ele>
        <time>2021-12-21T13:50:07.551Z</time>
      </trkpt>
      <trkpt lat="44.03304" lon="5.98907">
        <ele>456</ele>
        <time>2021-12-21T13:50:08.551Z</time>
      </trkpt>
      <trkpt lat="44.03303" lon="5.98905">
        <ele>456</ele>
        <time>2021-12-21T13:50:09.551Z</time>
      </trkpt>
      <trkpt lat="44.03303" lon="5.98903">
        <ele>456</ele>
        <time>2021-12-21T13:50:10.551Z</time>
      </trkpt>
      <trkpt lat="44.03302" lon="5.98901">
        <ele>456</ele>
        <time>2021-12-21T13:50:11.551Z</time>
      </trkpt>
      <trkpt lat="44.03302" lon="5.989">
        <ele>456</ele>
        <time>2021-12-21T13:50:12.551Z</time>
      </trkpt>
      <trkpt lat="44.03301" lon="5.98898">
        <ele>456</ele>
        <time>2021-12-21T13:50:13.551Z</time>
      </trkpt>
      <trkpt lat="44.03301" lon="5.98896">
        <ele>456</ele>
        <time>2021-12-21T13:50:14.551Z</time>
      </trkpt>
      <trkpt lat="44.033" lon="5.98894">
        <ele>456</ele>
        <time>2021-12-21T13:50:15.551Z</time>
      </trkpt>
      <trkpt lat="44.033" lon="5.98892">
        <ele>456</ele>
        <time>2021-12-21T13:50:16.551Z</time>
      </trkpt>
      <trkpt lat="44.033" lon="5.9889">
        <ele>456</ele>
        <time>2021-12-21T13:50:17.551Z</time>
      </trkpt>
      <trkpt lat="44.03299" lon="5.98888">
        <ele>456</ele>
        <time>2021-12-21T13:50:18.551Z</time>
      </trkpt>
      <trkpt lat="44.03299" lon="5.98887">
        <ele>456</ele>
        <time>2021-12-21T13:50:19.551Z</time>
      </trkpt>
      <trkpt lat="44.03299" lon="5.98885">
        <ele>456</ele>
        <time>2021-12-21T13:50:20.551Z</time>
      </trkpt>
      <trkpt lat="44.03298" lon="5.98883">
        <ele>456</ele>
        <time>2021-12-21T13:50:21.551Z</time>
      </trkpt>
      <trkpt lat="44.03298" lon="5.98882">
        <ele>455</ele>
        <time>2021-12-21T13:50:22.551Z</time>
      </trkpt>
      <trkpt lat="44.03297" lon="5.98881">
        <ele>455</ele>
        <time>2021-12-21T13:50:23.551Z</time>
      </trkpt>
      <trkpt lat="44.03297" lon="5.98879">
        <ele>455</ele>
        <time>2021-12-21T13:50:24.551Z</time>
      </trkpt>
      <trkpt lat="44.03296" lon="5.98877">
        <ele>455</ele>
        <time>2021-12-21T13:50:25.551Z</time>
      </trkpt>
      <trkpt lat="44.03296" lon="5.98876">
        <ele>455</ele>
        <time>2021-12-21T13:50:26.551Z</time>
      </trkpt>
      <trkpt lat="44.03295" lon="5.98874">
        <ele>455</ele>
        <time>2021-12-21T13:50:27.551Z</time>
      </trkpt>
      <trkpt lat="44.03295" lon="5.98873">
        <ele>455</ele>
        <time>2021-12-21T13:50:28.551Z</time>
      </trkpt>
      <trkpt lat="44.03294" lon="5.98871">
        <ele>455</ele>
        <time>2021-12-21T13:50:29.551Z</time>
      </trkpt>
      <trkpt lat="44.03294" lon="5.9887">
        <ele>455</ele>
        <time>2021-12-21T13:50:30.551Z</time>
      </trkpt>
      <trkpt lat="44.03294" lon="5.9887">
        <ele>455</ele>
        <time>2021-12-21T13:50:31.551Z</time>
      </trkpt>
      <trkpt lat="44.03294" lon="5.9887">
        <ele>455</ele>
        <time>2021-12-21T13:50:32.551Z</time>
      </trkpt>
      <trkpt lat="44.03294" lon="5.9887">
        <ele>455</ele>
        <time>2021-12-21T13:50:33.551Z</time>
      </trkpt>
      <trkpt lat="44.03294" lon="5.9887">
        <ele>455</ele>
        <time>2021-12-21T13:50:34.551Z</time>
      </trkpt>
      <trkpt lat="44.03294" lon="5.98871">
        <ele>455</ele>
        <time>2021-12-21T13:50:35.551Z</time>
      </trkpt>
      <trkpt lat="44.03294" lon="5.9887">
        <ele>455</ele>
        <time>2021-12-21T13:50:36.551Z</time>
      </trkpt>
      <trkpt lat="44.03294" lon="5.9887">
        <ele>455</ele>
        <time>2021-12-21T13:50:37.551Z</time>
      </trkpt>
      <trkpt lat="44.03293" lon="5.98869">
        <ele>455</ele>
        <time>2021-12-21T13:50:38.551Z</time>
      </trkpt>
      <trkpt lat="44.03293" lon="5.98868">
        <ele>455</ele>
        <time>2021-12-21T13:50:39.551Z</time>
      </trkpt>
      <trkpt lat="44.03292" lon="5.98867">
        <ele>456</ele>
        <time>2021-12-21T13:50:40.551Z</time>
      </trkpt>
      <trkpt lat="44.03292" lon="5.98866">
        <ele>456</ele>
        <time>2021-12-21T13:50:41.551Z</time>
      </trkpt>
      <trkpt lat="44.03292" lon="5.98864">
        <ele>456</ele>
        <time>2021-12-21T13:50:42.551Z</time>
      </trkpt>
      <trkpt lat="44.03291" lon="5.98863">
        <ele>456</ele>
        <time>2021-12-21T13:50:43.551Z</time>
      </trkpt>
      <trkpt lat="44.0329" lon="5.98862">
        <ele>456</ele>
        <time>2021-12-21T13:50:44.551Z</time>
      </trkpt>
      <trkpt lat="44.0329" lon="5.98861">
        <ele>456</ele>
        <time>2021-12-21T13:50:45.551Z</time>
      </trkpt>
      <trkpt lat="44.03289" lon="5.9886">
        <ele>456</ele>
        <time>2021-12-21T13:50:46.551Z</time>
      </trkpt>
      <trkpt lat="44.03289" lon="5.98858">
        <ele>456</ele>
        <time>2021-12-21T13:50:47.551Z</time>
      </trkpt>
      <trkpt lat="44.03288" lon="5.98857">
        <ele>456</ele>
        <time>2021-12-21T13:50:48.551Z</time>
      </trkpt>
      <trkpt lat="44.03288" lon="5.98856">
        <ele>456</ele>
        <time>2021-12-21T13:50:49.551Z</time>
      </trkpt>
      <trkpt lat="44.03288" lon="5.98854">
        <ele>456</ele>
        <time>2021-12-21T13:50:50.551Z</time>
      </trkpt>
      <trkpt lat="44.03287" lon="5.98853">
        <ele>456</ele>
        <time>2021-12-21T13:50:51.551Z</time>
      </trkpt>
      <trkpt lat="44.03287" lon="5.98852">
        <ele>456</ele>
        <time>2021-12-21T13:50:52.551Z</time>
      </trkpt>
      <trkpt lat="44.03286" lon="5.98851">
        <ele>456</ele>
        <time>2021-12-21T13:50:53.551Z</time>
      </trkpt>
      <trkpt lat="44.03286" lon="5.98849">
        <ele>456</ele>
        <time>2021-12-21T13:50:54.551Z</time>
      </trkpt>
      <trkpt lat="44.03285" lon="5.98848">
        <ele>456</ele>
        <time>2021-12-21T13:50:55.551Z</time>
      </trkpt>
      <trkpt lat="44.03285" lon="5.98846">
        <ele>456</ele>
        <time>2021-12-21T13:50:56.551Z</time>
      </trkpt>
      <trkpt lat="44.03284" lon="5.98845">
        <ele>456</ele>
        <time>2021-12-21T13:50:57.551Z</time>
      </trkpt>
      <trkpt lat="44.03284" lon="5.98843">
        <ele>456</ele>
        <time>2021-12-21T13:50:58.551Z</time>
      </trkpt>
      <trkpt lat="44.03284" lon="5.98842">
        <ele>456</ele>
        <time>2021-12-21T13:50:59.551Z</time>
      </trkpt>
      <trkpt lat="44.03283" lon="5.9884">
        <ele>456</ele>
        <time>2021-12-21T13:51:00.551Z</time>
      </trkpt>
      <trkpt lat="44.03283" lon="5.98839">
        <ele>456</ele>
        <time>2021-12-21T13:51:01.551Z</time>
      </trkpt>
      <trkpt lat="44.03282" lon="5.98838">
        <ele>456</ele>
        <time>2021-12-21T13:51:02.551Z</time>
      </trkpt>
      <trkpt lat="44.03282" lon="5.98837">
        <ele>456</ele>
        <time>2021-12-21T13:51:03.551Z</time>
      </trkpt>
      <trkpt lat="44.03281" lon="5.98835">
        <ele>456</ele>
        <time>2021-12-21T13:51:04.551Z</time>
      </trkpt>
      <trkpt lat="44.0328" lon="5.98834">
        <ele>457</ele>
        <time>2021-12-21T13:51:05.551Z</time>
      </trkpt>
      <trkpt lat="44.03279" lon="5.98833">
        <ele>457</ele>
        <time>2021-12-21T13:51:06.551Z</time>
      </trkpt>
      <trkpt lat="44.03278" lon="5.98832">
        <ele>457</ele>
        <time>2021-12-21T13:51:07.551Z</time>
      </trkpt>
      <trkpt lat="44.03278" lon="5.98831">
        <ele>457</ele>
        <time>2021-12-21T13:51:08.551Z</time>
      </trkpt>
      <trkpt lat="44.03277" lon="5.9883">
        <ele>457</ele>
        <time>2021-12-21T13:51:09.551Z</time>
      </trkpt>
      <trkpt lat="44.03276" lon="5.98829">
        <ele>457</ele>
        <time>2021-12-21T13:51:10.551Z</time>
      </trkpt>
      <trkpt lat="44.03275" lon="5.98828">
        <ele>457</ele>
        <time>2021-12-21T13:51:11.551Z</time>
      </trkpt>
      <trkpt lat="44.03274" lon="5.98827">
        <ele>457</ele>
        <time>2021-12-21T13:51:12.551Z</time>
      </trkpt>
      <trkpt lat="44.03273" lon="5.98826">
        <ele>457</ele>
        <time>2021-12-21T13:51:13.551Z</time>
      </trkpt>
      <trkpt lat="44.03272" lon="5.98825">
        <ele>457</ele>
        <time>2021-12-21T13:51:14.551Z</time>
      </trkpt>
      <trkpt lat="44.03271" lon="5.98824">
        <ele>457</ele>
        <time>2021-12-21T13:51:15.551Z</time>
      </trkpt>
      <trkpt lat="44.03271" lon="5.98822">
        <ele>457</ele>
        <time>2021-12-21T13:51:16.551Z</time>
      </trkpt>
      <trkpt lat="44.0327" lon="5.98821">
        <ele>457</ele>
        <time>2021-12-21T13:51:17.551Z</time>
      </trkpt>
      <trkpt lat="44.0327" lon="5.9882">
        <ele>457</ele>
        <time>2021-12-21T13:51:18.551Z</time>
      </trkpt>
      <trkpt lat="44.03269" lon="5.98818">
        <ele>457</ele>
        <time>2021-12-21T13:51:19.551Z</time>
      </trkpt>
      <trkpt lat="44.03269" lon="5.98817">
        <ele>457</ele>
        <time>2021-12-21T13:51:20.551Z</time>
      </trkpt>
      <trkpt lat="44.03268" lon="5.98816">
        <ele>458</ele>
        <time>2021-12-21T13:51:21.551Z</time>
      </trkpt>
      <trkpt lat="44.03267" lon="5.98815">
        <ele>458</ele>
        <time>2021-12-21T13:51:22.551Z</time>
      </trkpt>
      <trkpt lat="44.03267" lon="5.98813">
        <ele>458</ele>
        <time>2021-12-21T13:51:23.551Z</time>
      </trkpt>
      <trkpt lat="44.03267" lon="5.98812">
        <ele>458</ele>
        <time>2021-12-21T13:51:24.551Z</time>
      </trkpt>
      <trkpt lat="44.03266" lon="5.98811">
        <ele>458</ele>
        <time>2021-12-21T13:51:25.551Z</time>
      </trkpt>
      <trkpt lat="44.03266" lon="5.98809">
        <ele>458</ele>
        <time>2021-12-21T13:51:26.551Z</time>
      </trkpt>
      <trkpt lat="44.03265" lon="5.98808">
        <ele>458</ele>
        <time>2021-12-21T13:51:27.551Z</time>
      </trkpt>
      <trkpt lat="44.03265" lon="5.98806">
        <ele>458</ele>
        <time>2021-12-21T13:51:28.551Z</time>
      </trkpt>
      <trkpt lat="44.03265" lon="5.98804">
        <ele>458</ele>
        <time>2021-12-21T13:51:29.551Z</time>
      </trkpt>
      <trkpt lat="44.03265" lon="5.98803">
        <ele>458</ele>
        <time>2021-12-21T13:51:30.551Z</time>
      </trkpt>
      <trkpt lat="44.03265" lon="5.98801">
        <ele>458</ele>
        <time>2021-12-21T13:51:31.551Z</time>
      </trkpt>
      <trkpt lat="44.03265" lon="5.988">
        <ele>458</ele>
        <time>2021-12-21T13:51:32.551Z</time>
      </trkpt>
      <trkpt lat="44.03265" lon="5.98799">
        <ele>458</ele>
        <time>2021-12-21T13:51:33.551Z</time>
      </trkpt>
      <trkpt lat="44.03265" lon="5.98797">
        <ele>458</ele>
        <time>2021-12-21T13:51:34.551Z</time>
      </trkpt>
      <trkpt lat="44.03265" lon="5.98796">
        <ele>458</ele>
        <time>2021-12-21T13:51:35.551Z</time>
      </trkpt>
      <trkpt lat="44.03264" lon="5.98795">
        <ele>458</ele>
        <time>2021-12-21T13:51:36.551Z</time>
      </trkpt>
      <trkpt lat="44.03264" lon="5.98793">
        <ele>458</ele>
        <time>2021-12-21T13:51:37.551Z</time>
      </trkpt>
      <trkpt lat="44.03264" lon="5.98791">
        <ele>458</ele>
        <time>2021-12-21T13:51:38.551Z</time>
      </trkpt>
      <trkpt lat="44.03264" lon="5.98789">
        <ele>458</ele>
        <time>2021-12-21T13:51:39.551Z</time>
      </trkpt>
      <trkpt lat="44.03263" lon="5.98787">
        <ele>458</ele>
        <time>2021-12-21T13:51:40.551Z</time>
      </trkpt>
      <trkpt lat="44.03262" lon="5.98785">
        <ele>458</ele>
        <time>2021-12-21T13:51:41.551Z</time>
      </trkpt>
      <trkpt lat="44.03262" lon="5.98783">
        <ele>458</ele>
        <time>2021-12-21T13:51:42.551Z</time>
      </trkpt>
      <trkpt lat="44.03261" lon="5.98781">
        <ele>458</ele>
        <time>2021-12-21T13:51:43.551Z</time>
      </trkpt>
      <trkpt lat="44.0326" lon="5.9878">
        <ele>458</ele>
        <time>2021-12-21T13:51:44.551Z</time>
      </trkpt>
      <trkpt lat="44.03259" lon="5.98778">
        <ele>458</ele>
        <time>2021-12-21T13:51:45.551Z</time>
      </trkpt>
      <trkpt lat="44.03258" lon="5.98776">
        <ele>458</ele>
        <time>2021-12-21T13:51:46.551Z</time>
      </trkpt>
      <trkpt lat="44.03257" lon="5.98775">
        <ele>458</ele>
        <time>2021-12-21T13:51:47.551Z</time>
      </trkpt>
      <trkpt lat="44.03257" lon="5.98774">
        <ele>458</ele>
        <time>2021-12-21T13:51:48.551Z</time>
      </trkpt>
      <trkpt lat="44.03256" lon="5.98773">
        <ele>458</ele>
        <time>2021-12-21T13:51:49.551Z</time>
      </trkpt>
      <trkpt lat="44.03255" lon="5.98772">
        <ele>458</ele>
        <time>2021-12-21T13:51:50.551Z</time>
      </trkpt>
      <trkpt lat="44.03255" lon="5.98771">
        <ele>458</ele>
        <time>2021-12-21T13:51:51.551Z</time>
      </trkpt>
      <trkpt lat="44.03254" lon="5.9877">
        <ele>458</ele>
        <time>2021-12-21T13:51:52.551Z</time>
      </trkpt>
      <trkpt lat="44.03253" lon="5.98769">
        <ele>458</ele>
        <time>2021-12-21T13:51:53.551Z</time>
      </trkpt>
      <trkpt lat="44.03252" lon="5.98768">
        <ele>458</ele>
        <time>2021-12-21T13:51:54.551Z</time>
      </trkpt>
      <trkpt lat="44.03251" lon="5.98768">
        <ele>458</ele>
        <time>2021-12-21T13:51:55.551Z</time>
      </trkpt>
      <trkpt lat="44.03251" lon="5.98768">
        <ele>458</ele>
        <time>2021-12-21T13:51:56.551Z</time>
      </trkpt>
      <trkpt lat="44.03251" lon="5.98768">
        <ele>458</ele>
        <time>2021-12-21T13:51:57.551Z</time>
      </trkpt>
      <trkpt lat="44.03251" lon="5.98767">
        <ele>458</ele>
        <time>2021-12-21T13:51:58.551Z</time>
      </trkpt>
      <trkpt lat="44.03251" lon="5.98767">
        <ele>458</ele>
        <time>2021-12-21T13:51:59.551Z</time>
      </trkpt>
      <trkpt lat="44.0325" lon="5.98766">
        <ele>458</ele>
        <time>2021-12-21T13:52:00.551Z</time>
      </trkpt>
      <trkpt lat="44.03249" lon="5.98766">
        <ele>458</ele>
        <time>2021-12-21T13:52:01.551Z</time>
      </trkpt>
      <trkpt lat="44.03249" lon="5.98765">
        <ele>458</ele>
        <time>2021-12-21T13:52:02.551Z</time>
      </trkpt>
      <trkpt lat="44.03248" lon="5.98764">
        <ele>458</ele>
        <time>2021-12-21T13:52:03.551Z</time>
      </trkpt>
      <trkpt lat="44.03248" lon="5.98763">
        <ele>458</ele>
        <time>2021-12-21T13:52:04.551Z</time>
      </trkpt>
      <trkpt lat="44.03247" lon="5.98763">
        <ele>458</ele>
        <time>2021-12-21T13:52:05.551Z</time>
      </trkpt>
      <trkpt lat="44.03246" lon="5.98762">
        <ele>458</ele>
        <time>2021-12-21T13:52:06.551Z</time>
      </trkpt>
      <trkpt lat="44.03246" lon="5.9876">
        <ele>458</ele>
        <time>2021-12-21T13:52:07.551Z</time>
      </trkpt>
      <trkpt lat="44.03245" lon="5.9876">
        <ele>458</ele>
        <time>2021-12-21T13:52:08.551Z</time>
      </trkpt>
      <trkpt lat="44.03244" lon="5.98758">
        <ele>458</ele>
        <time>2021-12-21T13:52:09.551Z</time>
      </trkpt>
      <trkpt lat="44.03243" lon="5.98757">
        <ele>458</ele>
        <time>2021-12-21T13:52:10.551Z</time>
      </trkpt>
      <trkpt lat="44.03242" lon="5.98756">
        <ele>458</ele>
        <time>2021-12-21T13:52:11.551Z</time>
      </trkpt>
      <trkpt lat="44.03242" lon="5.98755">
        <ele>458</ele>
        <time>2021-12-21T13:52:12.551Z</time>
      </trkpt>
      <trkpt lat="44.03241" lon="5.98753">
        <ele>458</ele>
        <time>2021-12-21T13:52:13.551Z</time>
      </trkpt>
      <trkpt lat="44.0324" lon="5.98752">
        <ele>458</ele>
        <time>2021-12-21T13:52:14.551Z</time>
      </trkpt>
      <trkpt lat="44.03239" lon="5.98751">
        <ele>458</ele>
        <time>2021-12-21T13:52:15.551Z</time>
      </trkpt>
      <trkpt lat="44.03239" lon="5.9875">
        <ele>458</ele>
        <time>2021-12-21T13:52:16.551Z</time>
      </trkpt>
      <trkpt lat="44.03238" lon="5.98748">
        <ele>458</ele>
        <time>2021-12-21T13:52:17.551Z</time>
      </trkpt>
      <trkpt lat="44.03238" lon="5.98747">
        <ele>458</ele>
        <time>2021-12-21T13:52:18.551Z</time>
      </trkpt>
      <trkpt lat="44.03237" lon="5.98746">
        <ele>458</ele>
        <time>2021-12-21T13:52:19.551Z</time>
      </trkpt>
      <trkpt lat="44.03236" lon="5.98745">
        <ele>458</ele>
        <time>2021-12-21T13:52:20.551Z</time>
      </trkpt>
      <trkpt lat="44.03236" lon="5.98743">
        <ele>458</ele>
        <time>2021-12-21T13:52:21.551Z</time>
      </trkpt>
      <trkpt lat="44.03235" lon="5.98742">
        <ele>458</ele>
        <time>2021-12-21T13:52:22.551Z</time>
      </trkpt>
      <trkpt lat="44.03235" lon="5.98741">
        <ele>458</ele>
        <time>2021-12-21T13:52:23.551Z</time>
      </trkpt>
      <trkpt lat="44.03234" lon="5.9874">
        <ele>458</ele>
        <time>2021-12-21T13:52:24.551Z</time>
      </trkpt>
      <trkpt lat="44.03233" lon="5.98739">
        <ele>458</ele>
        <time>2021-12-21T13:52:25.551Z</time>
      </trkpt>
      <trkpt lat="44.03233" lon="5.98738">
        <ele>458</ele>
        <time>2021-12-21T13:52:26.551Z</time>
      </trkpt>
      <trkpt lat="44.03232" lon="5.98736">
        <ele>457</ele>
        <time>2021-12-21T13:52:27.551Z</time>
      </trkpt>
      <trkpt lat="44.03231" lon="5.98735">
        <ele>457</ele>
        <time>2021-12-21T13:52:28.551Z</time>
      </trkpt>
      <trkpt lat="44.03231" lon="5.98734">
        <ele>457</ele>
        <time>2021-12-21T13:52:29.551Z</time>
      </trkpt>
      <trkpt lat="44.0323" lon="5.98733">
        <ele>457</ele>
        <time>2021-12-21T13:52:30.551Z</time>
      </trkpt>
      <trkpt lat="44.0323" lon="5.98731">
        <ele>457</ele>
        <time>2021-12-21T13:52:31.551Z</time>
      </trkpt>
      <trkpt lat="44.03229" lon="5.9873">
        <ele>457</ele>
        <time>2021-12-21T13:52:32.551Z</time>
      </trkpt>
      <trkpt lat="44.03229" lon="5.98729">
        <ele>457</ele>
        <time>2021-12-21T13:52:33.551Z</time>
      </trkpt>
      <trkpt lat="44.03228" lon="5.98728">
        <ele>457</ele>
        <time>2021-12-21T13:52:34.551Z</time>
      </trkpt>
      <trkpt lat="44.03227" lon="5.98727">
        <ele>457</ele>
        <time>2021-12-21T13:52:35.551Z</time>
      </trkpt>
      <trkpt lat="44.03226" lon="5.98726">
        <ele>458</ele>
        <time>2021-12-21T13:52:36.551Z</time>
      </trkpt>
      <trkpt lat="44.03226" lon="5.98725">
        <ele>458</ele>
        <time>2021-12-21T13:52:37.551Z</time>
      </trkpt>
      <trkpt lat="44.03225" lon="5.98724">
        <ele>458</ele>
        <time>2021-12-21T13:52:38.551Z</time>
      </trkpt>
      <trkpt lat="44.03225" lon="5.98723">
        <ele>457</ele>
        <time>2021-12-21T13:52:39.551Z</time>
      </trkpt>
      <trkpt lat="44.03224" lon="5.98722">
        <ele>458</ele>
        <time>2021-12-21T13:52:40.551Z</time>
      </trkpt>
      <trkpt lat="44.03223" lon="5.98721">
        <ele>458</ele>
        <time>2021-12-21T13:52:41.551Z</time>
      </trkpt>
      <trkpt lat="44.03223" lon="5.9872">
        <ele>458</ele>
        <time>2021-12-21T13:52:42.551Z</time>
      </trkpt>
      <trkpt lat="44.03222" lon="5.98719">
        <ele>458</ele>
        <time>2021-12-21T13:52:43.551Z</time>
      </trkpt>
      <trkpt lat="44.03222" lon="5.98718">
        <ele>458</ele>
        <time>2021-12-21T13:52:44.551Z</time>
      </trkpt>
      <trkpt lat="44.03222" lon="5.98718">
        <ele>458</ele>
        <time>2021-12-21T13:52:45.551Z</time>
      </trkpt>
      <trkpt lat="44.03221" lon="5.98718">
        <ele>458</ele>
        <time>2021-12-21T13:52:46.551Z</time>
      </trkpt>
      <trkpt lat="44.03221" lon="5.98718">
        <ele>458</ele>
        <time>2021-12-21T13:52:47.551Z</time>
      </trkpt>
      <trkpt lat="44.03221" lon="5.98718">
        <ele>458</ele>
        <time>2021-12-21T13:52:48.551Z</time>
      </trkpt>
      <trkpt lat="44.03221" lon="5.98717">
        <ele>458</ele>
        <time>2021-12-21T13:52:49.551Z</time>
      </trkpt>
      <trkpt lat="44.03221" lon="5.98717">
        <ele>458</ele>
        <time>2021-12-21T13:52:50.551Z</time>
      </trkpt>
      <trkpt lat="44.03222" lon="5.98717">
        <ele>458</ele>
        <time>2021-12-21T13:52:51.551Z</time>
      </trkpt>
      <trkpt lat="44.03222" lon="5.98717">
        <ele>458</ele>
        <time>2021-12-21T13:52:52.551Z</time>
      </trkpt>
      <trkpt lat="44.03222" lon="5.98717">
        <ele>458</ele>
        <time>2021-12-21T13:52:53.551Z</time>
      </trkpt>
      <trkpt lat="44.03222" lon="5.98717">
        <ele>458</ele>
        <time>2021-12-21T13:52:54.551Z</time>
      </trkpt>
      <trkpt lat="44.03222" lon="5.98717">
        <ele>458</ele>
        <time>2021-12-21T13:52:55.551Z</time>
      </trkpt>
      <trkpt lat="44.03221" lon="5.98717">
        <ele>458</ele>
        <time>2021-12-21T13:52:56.551Z</time>
      </trkpt>
      <trkpt lat="44.03222" lon="5.98716">
        <ele>458</ele>
        <time>2021-12-21T13:52:57.551Z</time>
      </trkpt>
      <trkpt lat="44.03222" lon="5.98716">
        <ele>458</ele>
        <time>2021-12-21T13:52:58.551Z</time>
      </trkpt>
      <trkpt lat="44.03222" lon="5.98716">
        <ele>458</ele>
        <time>2021-12-21T13:52:59.551Z</time>
      </trkpt>
      <trkpt lat="44.03222" lon="5.98716">
        <ele>458</ele>
        <time>2021-12-21T13:53:00.551Z</time>
      </trkpt>
      <trkpt lat="44.03222" lon="5.98716">
        <ele>458</ele>
        <time>2021-12-21T13:53:01.551Z</time>
      </trkpt>
      <trkpt lat="44.03222" lon="5.98716">
        <ele>458</ele>
        <time>2021-12-21T13:53:02.551Z</time>
      </trkpt>
      <trkpt lat="44.03221" lon="5.98716">
        <ele>458</ele>
        <time>2021-12-21T13:53:03.551Z</time>
      </trkpt>
      <trkpt lat="44.03221" lon="5.98715">
        <ele>458</ele>
        <time>2021-12-21T13:53:04.551Z</time>
      </trkpt>
      <trkpt lat="44.03221" lon="5.98715">
        <ele>458</ele>
        <time>2021-12-21T13:53:05.551Z</time>
      </trkpt>
      <trkpt lat="44.03221" lon="5.98715">
        <ele>458</ele>
        <time>2021-12-21T13:53:06.551Z</time>
      </trkpt>
      <trkpt lat="44.03221" lon="5.98714">
        <ele>458</ele>
        <time>2021-12-21T13:53:07.551Z</time>
      </trkpt>
      <trkpt lat="44.03221" lon="5.98714">
        <ele>458</ele>
        <time>2021-12-21T13:53:08.551Z</time>
      </trkpt>
      <trkpt lat="44.03221" lon="5.98714">
        <ele>458</ele>
        <time>2021-12-21T13:53:09.551Z</time>
      </trkpt>
      <trkpt lat="44.03221" lon="5.98713">
        <ele>458</ele>
        <time>2021-12-21T13:53:10.551Z</time>
      </trkpt>
      <trkpt lat="44.0322" lon="5.98712">
        <ele>458</ele>
        <time>2021-12-21T13:53:11.551Z</time>
      </trkpt>
      <trkpt lat="44.03219" lon="5.98711">
        <ele>458</ele>
        <time>2021-12-21T13:53:12.551Z</time>
      </trkpt>
      <trkpt lat="44.03219" lon="5.9871">
        <ele>458</ele>
        <time>2021-12-21T13:53:13.551Z</time>
      </trkpt>
      <trkpt lat="44.03218" lon="5.9871">
        <ele>459</ele>
        <time>2021-12-21T13:53:14.551Z</time>
      </trkpt>
      <trkpt lat="44.03218" lon="5.98709">
        <ele>459</ele>
        <time>2021-12-21T13:53:15.551Z</time>
      </trkpt>
      <trkpt lat="44.03217" lon="5.98708">
        <ele>459</ele>
        <time>2021-12-21T13:53:16.551Z</time>
      </trkpt>
      <trkpt lat="44.03217" lon="5.98706">
        <ele>459</ele>
        <time>2021-12-21T13:53:17.551Z</time>
      </trkpt>
      <trkpt lat="44.03216" lon="5.98706">
        <ele>459</ele>
        <time>2021-12-21T13:53:18.551Z</time>
      </trkpt>
      <trkpt lat="44.03216" lon="5.98704">
        <ele>459</ele>
        <time>2021-12-21T13:53:19.551Z</time>
      </trkpt>
      <trkpt lat="44.03215" lon="5.98703">
        <ele>459</ele>
        <time>2021-12-21T13:53:20.551Z</time>
      </trkpt>
      <trkpt lat="44.03214" lon="5.98702">
        <ele>459</ele>
        <time>2021-12-21T13:53:21.551Z</time>
      </trkpt>
      <trkpt lat="44.03214" lon="5.98701">
        <ele>459</ele>
        <time>2021-12-21T13:53:22.551Z</time>
      </trkpt>
      <trkpt lat="44.03214" lon="5.987">
        <ele>459</ele>
        <time>2021-12-21T13:53:23.551Z</time>
      </trkpt>
      <trkpt lat="44.03213" lon="5.98698">
        <ele>459</ele>
        <time>2021-12-21T13:53:24.551Z</time>
      </trkpt>
      <trkpt lat="44.03213" lon="5.98697">
        <ele>459</ele>
        <time>2021-12-21T13:53:25.551Z</time>
      </trkpt>
      <trkpt lat="44.03213" lon="5.98695">
        <ele>459</ele>
        <time>2021-12-21T13:53:26.551Z</time>
      </trkpt>
      <trkpt lat="44.03212" lon="5.98694">
        <ele>459</ele>
        <time>2021-12-21T13:53:27.551Z</time>
      </trkpt>
      <trkpt lat="44.03212" lon="5.98693">
        <ele>459</ele>
        <time>2021-12-21T13:53:28.551Z</time>
      </trkpt>
      <trkpt lat="44.03212" lon="5.98691">
        <ele>459</ele>
        <time>2021-12-21T13:53:29.551Z</time>
      </trkpt>
      <trkpt lat="44.03212" lon="5.9869">
        <ele>459</ele>
        <time>2021-12-21T13:53:30.551Z</time>
      </trkpt>
      <trkpt lat="44.03212" lon="5.9869">
        <ele>459</ele>
        <time>2021-12-21T13:53:31.551Z</time>
      </trkpt>
      <trkpt lat="44.03212" lon="5.98688">
        <ele>459</ele>
        <time>2021-12-21T13:53:32.551Z</time>
      </trkpt>
      <trkpt lat="44.03212" lon="5.98687">
        <ele>459</ele>
        <time>2021-12-21T13:53:33.551Z</time>
      </trkpt>
      <trkpt lat="44.03212" lon="5.98686">
        <ele>459</ele>
        <time>2021-12-21T13:53:34.551Z</time>
      </trkpt>
      <trkpt lat="44.03211" lon="5.98684">
        <ele>459</ele>
        <time>2021-12-21T13:53:35.551Z</time>
      </trkpt>
      <trkpt lat="44.03211" lon="5.98683">
        <ele>459</ele>
        <time>2021-12-21T13:53:36.551Z</time>
      </trkpt>
      <trkpt lat="44.03211" lon="5.98682">
        <ele>459</ele>
        <time>2021-12-21T13:53:37.551Z</time>
      </trkpt>
      <trkpt lat="44.0321" lon="5.9868">
        <ele>459</ele>
        <time>2021-12-21T13:53:38.551Z</time>
      </trkpt>
      <trkpt lat="44.0321" lon="5.98679">
        <ele>459</ele>
        <time>2021-12-21T13:53:39.551Z</time>
      </trkpt>
      <trkpt lat="44.03209" lon="5.98678">
        <ele>459</ele>
        <time>2021-12-21T13:53:40.551Z</time>
      </trkpt>
      <trkpt lat="44.03209" lon="5.98676">
        <ele>459</ele>
        <time>2021-12-21T13:53:41.551Z</time>
      </trkpt>
      <trkpt lat="44.03208" lon="5.98675">
        <ele>459</ele>
        <time>2021-12-21T13:53:42.551Z</time>
      </trkpt>
      <trkpt lat="44.03208" lon="5.98674">
        <ele>459</ele>
        <time>2021-12-21T13:53:43.551Z</time>
      </trkpt>
      <trkpt lat="44.03208" lon="5.98673">
        <ele>459</ele>
        <time>2021-12-21T13:53:44.551Z</time>
      </trkpt>
      <trkpt lat="44.03208" lon="5.98673">
        <ele>459</ele>
        <time>2021-12-21T13:53:45.551Z</time>
      </trkpt>
      <trkpt lat="44.03209" lon="5.98674">
        <ele>459</ele>
        <time>2021-12-21T13:53:46.551Z</time>
      </trkpt>
      <trkpt lat="44.03209" lon="5.98674">
        <ele>459</ele>
        <time>2021-12-21T13:53:47.551Z</time>
      </trkpt>
      <trkpt lat="44.03209" lon="5.98674">
        <ele>458</ele>
        <time>2021-12-21T13:53:48.551Z</time>
      </trkpt>
      <trkpt lat="44.03209" lon="5.98674">
        <ele>458</ele>
        <time>2021-12-21T13:53:49.551Z</time>
      </trkpt>
      <trkpt lat="44.03209" lon="5.98673">
        <ele>458</ele>
        <time>2021-12-21T13:53:50.551Z</time>
      </trkpt>
      <trkpt lat="44.03209" lon="5.98673">
        <ele>458</ele>
        <time>2021-12-21T13:53:51.551Z</time>
      </trkpt>
      <trkpt lat="44.03209" lon="5.98673">
        <ele>458</ele>
        <time>2021-12-21T13:53:52.551Z</time>
      </trkpt>
      <trkpt lat="44.03209" lon="5.98673">
        <ele>457</ele>
        <time>2021-12-21T13:53:53.551Z</time>
      </trkpt>
      <trkpt lat="44.03209" lon="5.98673">
        <ele>457</ele>
        <time>2021-12-21T13:53:54.551Z</time>
      </trkpt>
      <trkpt lat="44.03209" lon="5.98673">
        <ele>457</ele>
        <time>2021-12-21T13:53:55.551Z</time>
      </trkpt>
      <trkpt lat="44.03209" lon="5.98672">
        <ele>456</ele>
        <time>2021-12-21T13:53:56.551Z</time>
      </trkpt>
      <trkpt lat="44.03209" lon="5.98672">
        <ele>456</ele>
        <time>2021-12-21T13:53:57.551Z</time>
      </trkpt>
      <trkpt lat="44.03209" lon="5.98672">
        <ele>456</ele>
        <time>2021-12-21T13:53:58.551Z</time>
      </trkpt>
      <trkpt lat="44.03209" lon="5.98672">
        <ele>455</ele>
        <time>2021-12-21T13:53:59.551Z</time>
      </trkpt>
      <trkpt lat="44.03209" lon="5.98672">
        <ele>455</ele>
        <time>2021-12-21T13:54:00.551Z</time>
      </trkpt>
      <trkpt lat="44.03209" lon="5.98672">
        <ele>455</ele>
        <time>2021-12-21T13:54:01.551Z</time>
      </trkpt>
      <trkpt lat="44.03209" lon="5.98672">
        <ele>454</ele>
        <time>2021-12-21T13:54:02.551Z</time>
      </trkpt>
      <trkpt lat="44.03209" lon="5.98672">
        <ele>454</ele>
        <time>2021-12-21T13:54:03.551Z</time>
      </trkpt>
      <trkpt lat="44.03208" lon="5.98672">
        <ele>453</ele>
        <time>2021-12-21T13:54:04.551Z</time>
      </trkpt>
      <trkpt lat="44.03208" lon="5.98672">
        <ele>453</ele>
        <time>2021-12-21T13:54:05.551Z</time>
      </trkpt>
      <trkpt lat="44.03208" lon="5.98672">
        <ele>453</ele>
        <time>2021-12-21T13:54:06.551Z</time>
      </trkpt>
      <trkpt lat="44.03207" lon="5.98672">
        <ele>453</ele>
        <time>2021-12-21T13:54:07.551Z</time>
      </trkpt>
      <trkpt lat="44.03207" lon="5.98672">
        <ele>452</ele>
        <time>2021-12-21T13:54:08.551Z</time>
      </trkpt>
      <trkpt lat="44.03207" lon="5.98672">
        <ele>452</ele>
        <time>2021-12-21T13:54:09.551Z</time>
      </trkpt>
      <trkpt lat="44.03207" lon="5.98672">
        <ele>452</ele>
        <time>2021-12-21T13:54:10.551Z</time>
      </trkpt>
      <trkpt lat="44.03207" lon="5.98672">
        <ele>452</ele>
        <time>2021-12-21T13:54:11.551Z</time>
      </trkpt>
      <trkpt lat="44.03207" lon="5.98671">
        <ele>452</ele>
        <time>2021-12-21T13:54:12.551Z</time>
      </trkpt>
      <trkpt lat="44.03207" lon="5.98671">
        <ele>451</ele>
        <time>2021-12-21T13:54:13.551Z</time>
      </trkpt>
      <trkpt lat="44.03207" lon="5.98671">
        <ele>451</ele>
        <time>2021-12-21T13:54:14.551Z</time>
      </trkpt>
      <trkpt lat="44.03207" lon="5.98671">
        <ele>451</ele>
        <time>2021-12-21T13:54:15.551Z</time>
      </trkpt>
      <trkpt lat="44.03207" lon="5.9867">
        <ele>451</ele>
        <time>2021-12-21T13:54:16.551Z</time>
      </trkpt>
      <trkpt lat="44.03207" lon="5.98669">
        <ele>451</ele>
        <time>2021-12-21T13:54:17.551Z</time>
      </trkpt>
      <trkpt lat="44.03207" lon="5.98668">
        <ele>450</ele>
        <time>2021-12-21T13:54:18.551Z</time>
      </trkpt>
      <trkpt lat="44.03207" lon="5.98667">
        <ele>450</ele>
        <time>2021-12-21T13:54:19.551Z</time>
      </trkpt>
      <trkpt lat="44.03207" lon="5.98665">
        <ele>450</ele>
        <time>2021-12-21T13:54:20.551Z</time>
      </trkpt>
      <trkpt lat="44.03206" lon="5.98664">
        <ele>450</ele>
        <time>2021-12-21T13:54:21.551Z</time>
      </trkpt>
      <trkpt lat="44.03206" lon="5.98663">
        <ele>450</ele>
        <time>2021-12-21T13:54:22.551Z</time>
      </trkpt>
      <trkpt lat="44.03205" lon="5.98661">
        <ele>450</ele>
        <time>2021-12-21T13:54:23.551Z</time>
      </trkpt>
      <trkpt lat="44.03205" lon="5.98659">
        <ele>450</ele>
        <time>2021-12-21T13:54:24.551Z</time>
      </trkpt>
      <trkpt lat="44.03205" lon="5.98658">
        <ele>450</ele>
        <time>2021-12-21T13:54:25.551Z</time>
      </trkpt>
      <trkpt lat="44.03204" lon="5.98656">
        <ele>450</ele>
        <time>2021-12-21T13:54:26.551Z</time>
      </trkpt>
      <trkpt lat="44.03204" lon="5.98654">
        <ele>450</ele>
        <time>2021-12-21T13:54:27.551Z</time>
      </trkpt>
      <trkpt lat="44.03204" lon="5.98653">
        <ele>450</ele>
        <time>2021-12-21T13:54:28.551Z</time>
      </trkpt>
      <trkpt lat="44.03203" lon="5.98651">
        <ele>450</ele>
        <time>2021-12-21T13:54:29.551Z</time>
      </trkpt>
      <trkpt lat="44.03203" lon="5.98649">
        <ele>450</ele>
        <time>2021-12-21T13:54:30.551Z</time>
      </trkpt>
      <trkpt lat="44.03203" lon="5.98648">
        <ele>450</ele>
        <time>2021-12-21T13:54:31.551Z</time>
      </trkpt>
      <trkpt lat="44.03202" lon="5.98646">
        <ele>450</ele>
        <time>2021-12-21T13:54:32.551Z</time>
      </trkpt>
      <trkpt lat="44.03202" lon="5.98644">
        <ele>450</ele>
        <time>2021-12-21T13:54:33.551Z</time>
      </trkpt>
      <trkpt lat="44.03202" lon="5.98642">
        <ele>450</ele>
        <time>2021-12-21T13:54:34.551Z</time>
      </trkpt>
      <trkpt lat="44.03202" lon="5.98641">
        <ele>450</ele>
        <time>2021-12-21T13:54:35.551Z</time>
      </trkpt>
      <trkpt lat="44.03201" lon="5.9864">
        <ele>450</ele>
        <time>2021-12-21T13:54:36.551Z</time>
      </trkpt>
      <trkpt lat="44.03201" lon="5.98638">
        <ele>450</ele>
        <time>2021-12-21T13:54:37.551Z</time>
      </trkpt>
      <trkpt lat="44.03201" lon="5.98637">
        <ele>450</ele>
        <time>2021-12-21T13:54:38.551Z</time>
      </trkpt>
      <trkpt lat="44.03201" lon="5.98635">
        <ele>450</ele>
        <time>2021-12-21T13:54:39.551Z</time>
      </trkpt>
      <trkpt lat="44.03201" lon="5.98634">
        <ele>450</ele>
        <time>2021-12-21T13:54:40.551Z</time>
      </trkpt>
      <trkpt lat="44.03201" lon="5.98633">
        <ele>451</ele>
        <time>2021-12-21T13:54:41.551Z</time>
      </trkpt>
      <trkpt lat="44.032" lon="5.98631">
        <ele>451</ele>
        <time>2021-12-21T13:54:42.551Z</time>
      </trkpt>
      <trkpt lat="44.032" lon="5.9863">
        <ele>451</ele>
        <time>2021-12-21T13:54:43.551Z</time>
      </trkpt>
      <trkpt lat="44.03199" lon="5.98629">
        <ele>451</ele>
        <time>2021-12-21T13:54:44.551Z</time>
      </trkpt>
      <trkpt lat="44.03199" lon="5.98627">
        <ele>451</ele>
        <time>2021-12-21T13:54:45.551Z</time>
      </trkpt>
      <trkpt lat="44.03199" lon="5.98626">
        <ele>451</ele>
        <time>2021-12-21T13:54:46.551Z</time>
      </trkpt>
      <trkpt lat="44.03199" lon="5.98624">
        <ele>451</ele>
        <time>2021-12-21T13:54:47.551Z</time>
      </trkpt>
      <trkpt lat="44.03199" lon="5.98623">
        <ele>451</ele>
        <time>2021-12-21T13:54:48.551Z</time>
      </trkpt>
      <trkpt lat="44.03199" lon="5.98621">
        <ele>451</ele>
        <time>2021-12-21T13:54:49.551Z</time>
      </trkpt>
      <trkpt lat="44.03199" lon="5.9862">
        <ele>451</ele>
        <time>2021-12-21T13:54:50.551Z</time>
      </trkpt>
      <trkpt lat="44.03198" lon="5.98619">
        <ele>451</ele>
        <time>2021-12-21T13:54:51.551Z</time>
      </trkpt>
      <trkpt lat="44.03198" lon="5.98618">
        <ele>451</ele>
        <time>2021-12-21T13:54:52.551Z</time>
      </trkpt>
      <trkpt lat="44.03198" lon="5.98616">
        <ele>451</ele>
        <time>2021-12-21T13:54:53.551Z</time>
      </trkpt>
      <trkpt lat="44.03197" lon="5.98614">
        <ele>451</ele>
        <time>2021-12-21T13:54:54.551Z</time>
      </trkpt>
      <trkpt lat="44.03197" lon="5.98612">
        <ele>451</ele>
        <time>2021-12-21T13:54:55.551Z</time>
      </trkpt>
      <trkpt lat="44.03196" lon="5.98611">
        <ele>451</ele>
        <time>2021-12-21T13:54:56.551Z</time>
      </trkpt>
      <trkpt lat="44.03196" lon="5.98609">
        <ele>451</ele>
        <time>2021-12-21T13:54:57.551Z</time>
      </trkpt>
      <trkpt lat="44.03196" lon="5.98607">
        <ele>451</ele>
        <time>2021-12-21T13:54:58.551Z</time>
      </trkpt>
      <trkpt lat="44.03195" lon="5.98605">
        <ele>451</ele>
        <time>2021-12-21T13:54:59.551Z</time>
      </trkpt>
      <trkpt lat="44.03195" lon="5.98604">
        <ele>451</ele>
        <time>2021-12-21T13:55:00.551Z</time>
      </trkpt>
      <trkpt lat="44.03195" lon="5.98602">
        <ele>451</ele>
        <time>2021-12-21T13:55:01.551Z</time>
      </trkpt>
      <trkpt lat="44.03195" lon="5.986">
        <ele>450</ele>
        <time>2021-12-21T13:55:02.551Z</time>
      </trkpt>
      <trkpt lat="44.03194" lon="5.98599">
        <ele>450</ele>
        <time>2021-12-21T13:55:03.551Z</time>
      </trkpt>
      <trkpt lat="44.03194" lon="5.98597">
        <ele>450</ele>
        <time>2021-12-21T13:55:04.551Z</time>
      </trkpt>
      <trkpt lat="44.03193" lon="5.98595">
        <ele>450</ele>
        <time>2021-12-21T13:55:05.551Z</time>
      </trkpt>
      <trkpt lat="44.03193" lon="5.98593">
        <ele>450</ele>
        <time>2021-12-21T13:55:06.551Z</time>
      </trkpt>
      <trkpt lat="44.03193" lon="5.98592">
        <ele>450</ele>
        <time>2021-12-21T13:55:07.551Z</time>
      </trkpt>
      <trkpt lat="44.03192" lon="5.9859">
        <ele>450</ele>
        <time>2021-12-21T13:55:08.551Z</time>
      </trkpt>
      <trkpt lat="44.03191" lon="5.98589">
        <ele>450</ele>
        <time>2021-12-21T13:55:09.551Z</time>
      </trkpt>
      <trkpt lat="44.03191" lon="5.98587">
        <ele>450</ele>
        <time>2021-12-21T13:55:10.551Z</time>
      </trkpt>
      <trkpt lat="44.0319" lon="5.98586">
        <ele>450</ele>
        <time>2021-12-21T13:55:11.551Z</time>
      </trkpt>
      <trkpt lat="44.0319" lon="5.98584">
        <ele>450</ele>
        <time>2021-12-21T13:55:12.551Z</time>
      </trkpt>
      <trkpt lat="44.03189" lon="5.98583">
        <ele>450</ele>
        <time>2021-12-21T13:55:13.551Z</time>
      </trkpt>
      <trkpt lat="44.03189" lon="5.98583">
        <ele>450</ele>
        <time>2021-12-21T13:55:14.551Z</time>
      </trkpt>
      <trkpt lat="44.03189" lon="5.98582">
        <ele>450</ele>
        <time>2021-12-21T13:55:15.551Z</time>
      </trkpt>
      <trkpt lat="44.03189" lon="5.98582">
        <ele>450</ele>
        <time>2021-12-21T13:55:16.551Z</time>
      </trkpt>
      <trkpt lat="44.03189" lon="5.98582">
        <ele>450</ele>
        <time>2021-12-21T13:55:17.551Z</time>
      </trkpt>
      <trkpt lat="44.03188" lon="5.98581">
        <ele>450</ele>
        <time>2021-12-21T13:55:18.551Z</time>
      </trkpt>
      <trkpt lat="44.03188" lon="5.9858">
        <ele>450</ele>
        <time>2021-12-21T13:55:19.551Z</time>
      </trkpt>
      <trkpt lat="44.03187" lon="5.98579">
        <ele>450</ele>
        <time>2021-12-21T13:55:20.551Z</time>
      </trkpt>
      <trkpt lat="44.03186" lon="5.98578">
        <ele>450</ele>
        <time>2021-12-21T13:55:21.551Z</time>
      </trkpt>
      <trkpt lat="44.03186" lon="5.98577">
        <ele>450</ele>
        <time>2021-12-21T13:55:22.551Z</time>
      </trkpt>
      <trkpt lat="44.03185" lon="5.98575">
        <ele>450</ele>
        <time>2021-12-21T13:55:23.551Z</time>
      </trkpt>
      <trkpt lat="44.03184" lon="5.98574">
        <ele>451</ele>
        <time>2021-12-21T13:55:24.551Z</time>
      </trkpt>
      <trkpt lat="44.03184" lon="5.98573">
        <ele>451</ele>
        <time>2021-12-21T13:55:25.551Z</time>
      </trkpt>
      <trkpt lat="44.03183" lon="5.98572">
        <ele>451</ele>
        <time>2021-12-21T13:55:26.551Z</time>
      </trkpt>
      <trkpt lat="44.03183" lon="5.98571">
        <ele>451</ele>
        <time>2021-12-21T13:55:27.551Z</time>
      </trkpt>
      <trkpt lat="44.03183" lon="5.9857">
        <ele>451</ele>
        <time>2021-12-21T13:55:28.551Z</time>
      </trkpt>
      <trkpt lat="44.03182" lon="5.98568">
        <ele>451</ele>
        <time>2021-12-21T13:55:29.551Z</time>
      </trkpt>
      <trkpt lat="44.03182" lon="5.98567">
        <ele>451</ele>
        <time>2021-12-21T13:55:30.551Z</time>
      </trkpt>
      <trkpt lat="44.03181" lon="5.98566">
        <ele>451</ele>
        <time>2021-12-21T13:55:31.551Z</time>
      </trkpt>
      <trkpt lat="44.03181" lon="5.98565">
        <ele>450</ele>
        <time>2021-12-21T13:55:32.551Z</time>
      </trkpt>
      <trkpt lat="44.0318" lon="5.98563">
        <ele>450</ele>
        <time>2021-12-21T13:55:33.551Z</time>
      </trkpt>
      <trkpt lat="44.0318" lon="5.98562">
        <ele>450</ele>
        <time>2021-12-21T13:55:34.551Z</time>
      </trkpt>
      <trkpt lat="44.03179" lon="5.98561">
        <ele>450</ele>
        <time>2021-12-21T13:55:35.551Z</time>
      </trkpt>
      <trkpt lat="44.03178" lon="5.98559">
        <ele>450</ele>
        <time>2021-12-21T13:55:36.551Z</time>
      </trkpt>
      <trkpt lat="44.03178" lon="5.98558">
        <ele>450</ele>
        <time>2021-12-21T13:55:37.551Z</time>
      </trkpt>
      <trkpt lat="44.03177" lon="5.98557">
        <ele>450</ele>
        <time>2021-12-21T13:55:38.551Z</time>
      </trkpt>
      <trkpt lat="44.03177" lon="5.98556">
        <ele>450</ele>
        <time>2021-12-21T13:55:39.551Z</time>
      </trkpt>
      <trkpt lat="44.03176" lon="5.98554">
        <ele>450</ele>
        <time>2021-12-21T13:55:40.551Z</time>
      </trkpt>
      <trkpt lat="44.03176" lon="5.98552">
        <ele>450</ele>
        <time>2021-12-21T13:55:41.551Z</time>
      </trkpt>
      <trkpt lat="44.03175" lon="5.98551">
        <ele>450</ele>
        <time>2021-12-21T13:55:42.551Z</time>
      </trkpt>
      <trkpt lat="44.03175" lon="5.98549">
        <ele>450</ele>
        <time>2021-12-21T13:55:43.551Z</time>
      </trkpt>
      <trkpt lat="44.03174" lon="5.98548">
        <ele>450</ele>
        <time>2021-12-21T13:55:44.551Z</time>
      </trkpt>
      <trkpt lat="44.03174" lon="5.98546">
        <ele>450</ele>
        <time>2021-12-21T13:55:45.551Z</time>
      </trkpt>
      <trkpt lat="44.03173" lon="5.98545">
        <ele>450</ele>
        <time>2021-12-21T13:55:46.551Z</time>
      </trkpt>
      <trkpt lat="44.03173" lon="5.98544">
        <ele>450</ele>
        <time>2021-12-21T13:55:47.551Z</time>
      </trkpt>
      <trkpt lat="44.03172" lon="5.98542">
        <ele>450</ele>
        <time>2021-12-21T13:55:48.551Z</time>
      </trkpt>
      <trkpt lat="44.03171" lon="5.98541">
        <ele>450</ele>
        <time>2021-12-21T13:55:49.551Z</time>
      </trkpt>
      <trkpt lat="44.03171" lon="5.9854">
        <ele>450</ele>
        <time>2021-12-21T13:55:50.551Z</time>
      </trkpt>
      <trkpt lat="44.0317" lon="5.98539">
        <ele>450</ele>
        <time>2021-12-21T13:55:51.551Z</time>
      </trkpt>
      <trkpt lat="44.0317" lon="5.98537">
        <ele>450</ele>
        <time>2021-12-21T13:55:52.551Z</time>
      </trkpt>
      <trkpt lat="44.03169" lon="5.98536">
        <ele>450</ele>
        <time>2021-12-21T13:55:53.551Z</time>
      </trkpt>
      <trkpt lat="44.03169" lon="5.98534">
        <ele>450</ele>
        <time>2021-12-21T13:55:54.551Z</time>
      </trkpt>
      <trkpt lat="44.03168" lon="5.98533">
        <ele>450</ele>
        <time>2021-12-21T13:55:55.551Z</time>
      </trkpt>
      <trkpt lat="44.03168" lon="5.98531">
        <ele>450</ele>
        <time>2021-12-21T13:55:56.551Z</time>
      </trkpt>
      <trkpt lat="44.03167" lon="5.98529">
        <ele>450</ele>
        <time>2021-12-21T13:55:57.551Z</time>
      </trkpt>
      <trkpt lat="44.03167" lon="5.98528">
        <ele>450</ele>
        <time>2021-12-21T13:55:58.551Z</time>
      </trkpt>
      <trkpt lat="44.03167" lon="5.98526">
        <ele>450</ele>
        <time>2021-12-21T13:55:59.551Z</time>
      </trkpt>
      <trkpt lat="44.03166" lon="5.98525">
        <ele>450</ele>
        <time>2021-12-21T13:56:00.551Z</time>
      </trkpt>
      <trkpt lat="44.03166" lon="5.98524">
        <ele>450</ele>
        <time>2021-12-21T13:56:01.551Z</time>
      </trkpt>
      <trkpt lat="44.03166" lon="5.98524">
        <ele>450</ele>
        <time>2021-12-21T13:56:02.551Z</time>
      </trkpt>
      <trkpt lat="44.03166" lon="5.98524">
        <ele>450</ele>
        <time>2021-12-21T13:56:03.551Z</time>
      </trkpt>
      <trkpt lat="44.03166" lon="5.98524">
        <ele>450</ele>
        <time>2021-12-21T13:56:04.551Z</time>
      </trkpt>
      <trkpt lat="44.03166" lon="5.98523">
        <ele>450</ele>
        <time>2021-12-21T13:56:05.551Z</time>
      </trkpt>
      <trkpt lat="44.03166" lon="5.98523">
        <ele>450</ele>
        <time>2021-12-21T13:56:06.551Z</time>
      </trkpt>
      <trkpt lat="44.03165" lon="5.98523">
        <ele>450</ele>
        <time>2021-12-21T13:56:07.551Z</time>
      </trkpt>
      <trkpt lat="44.03165" lon="5.98523">
        <ele>450</ele>
        <time>2021-12-21T13:56:08.551Z</time>
      </trkpt>
      <trkpt lat="44.03165" lon="5.98523">
        <ele>450</ele>
        <time>2021-12-21T13:56:09.551Z</time>
      </trkpt>
      <trkpt lat="44.03165" lon="5.98523">
        <ele>450</ele>
        <time>2021-12-21T13:56:10.551Z</time>
      </trkpt>
      <trkpt lat="44.03165" lon="5.98522">
        <ele>450</ele>
        <time>2021-12-21T13:56:11.551Z</time>
      </trkpt>
      <trkpt lat="44.03165" lon="5.98522">
        <ele>450</ele>
        <time>2021-12-21T13:56:12.551Z</time>
      </trkpt>
      <trkpt lat="44.03165" lon="5.98522">
        <ele>450</ele>
        <time>2021-12-21T13:56:13.551Z</time>
      </trkpt>
      <trkpt lat="44.03165" lon="5.98522">
        <ele>450</ele>
        <time>2021-12-21T13:56:14.551Z</time>
      </trkpt>
      <trkpt lat="44.03165" lon="5.98522">
        <ele>450</ele>
        <time>2021-12-21T13:56:15.551Z</time>
      </trkpt>
      <trkpt lat="44.03165" lon="5.98522">
        <ele>450</ele>
        <time>2021-12-21T13:56:16.551Z</time>
      </trkpt>
      <trkpt lat="44.03165" lon="5.98522">
        <ele>450</ele>
        <time>2021-12-21T13:56:17.551Z</time>
      </trkpt>
      <trkpt lat="44.03165" lon="5.98522">
        <ele>450</ele>
        <time>2021-12-21T13:56:18.551Z</time>
      </trkpt>
      <trkpt lat="44.03165" lon="5.98522">
        <ele>450</ele>
        <time>2021-12-21T13:56:19.551Z</time>
      </trkpt>
      <trkpt lat="44.03165" lon="5.98522">
        <ele>450</ele>
        <time>2021-12-21T13:56:20.551Z</time>
      </trkpt>
      <trkpt lat="44.03165" lon="5.98522">
        <ele>450</ele>
        <time>2021-12-21T13:56:21.551Z</time>
      </trkpt>
      <trkpt lat="44.03165" lon="5.98522">
        <ele>450</ele>
        <time>2021-12-21T13:56:22.551Z</time>
      </trkpt>
      <trkpt lat="44.03165" lon="5.98522">
        <ele>450</ele>
        <time>2021-12-21T13:56:23.551Z</time>
      </trkpt>
      <trkpt lat="44.03165" lon="5.98522">
        <ele>450</ele>
        <time>2021-12-21T13:56:24.551Z</time>
      </trkpt>
      <trkpt lat="44.03165" lon="5.98521">
        <ele>450</ele>
        <time>2021-12-21T13:56:25.551Z</time>
      </trkpt>
      <trkpt lat="44.03165" lon="5.98521">
        <ele>450</ele>
        <time>2021-12-21T13:56:26.551Z</time>
      </trkpt>
      <trkpt lat="44.03165" lon="5.98521">
        <ele>450</ele>
        <time>2021-12-21T13:56:27.551Z</time>
      </trkpt>
      <trkpt lat="44.03165" lon="5.98521">
        <ele>450</ele>
        <time>2021-12-21T13:56:28.551Z</time>
      </trkpt>
      <trkpt lat="44.03165" lon="5.98521">
        <ele>450</ele>
        <time>2021-12-21T13:56:29.551Z</time>
      </trkpt>
      <trkpt lat="44.03165" lon="5.98521">
        <ele>450</ele>
        <time>2021-12-21T13:56:30.551Z</time>
      </trkpt>
      <trkpt lat="44.03165" lon="5.98521">
        <ele>450</ele>
        <time>2021-12-21T13:56:31.551Z</time>
      </trkpt>
      <trkpt lat="44.03165" lon="5.98521">
        <ele>450</ele>
        <time>2021-12-21T13:56:32.551Z</time>
      </trkpt>
      <trkpt lat="44.03165" lon="5.98521">
        <ele>450</ele>
        <time>2021-12-21T13:56:33.551Z</time>
      </trkpt>
      <trkpt lat="44.03165" lon="5.9852">
        <ele>450</ele>
        <time>2021-12-21T13:56:34.551Z</time>
      </trkpt>
      <trkpt lat="44.03164" lon="5.98519">
        <ele>450</ele>
        <time>2021-12-21T13:56:35.551Z</time>
      </trkpt>
      <trkpt lat="44.03164" lon="5.98517">
        <ele>450</ele>
        <time>2021-12-21T13:56:36.551Z</time>
      </trkpt>
      <trkpt lat="44.03163" lon="5.98516">
        <ele>450</ele>
        <time>2021-12-21T13:56:37.551Z</time>
      </trkpt>
      <trkpt lat="44.03163" lon="5.98515">
        <ele>450</ele>
        <time>2021-12-21T13:56:38.551Z</time>
      </trkpt>
      <trkpt lat="44.03163" lon="5.98514">
        <ele>450</ele>
        <time>2021-12-21T13:56:39.551Z</time>
      </trkpt>
      <trkpt lat="44.03162" lon="5.98512">
        <ele>450</ele>
        <time>2021-12-21T13:56:40.551Z</time>
      </trkpt>
      <trkpt lat="44.03162" lon="5.98511">
        <ele>449</ele>
        <time>2021-12-21T13:56:41.551Z</time>
      </trkpt>
      <trkpt lat="44.03162" lon="5.98509">
        <ele>449</ele>
        <time>2021-12-21T13:56:42.551Z</time>
      </trkpt>
      <trkpt lat="44.03162" lon="5.98508">
        <ele>449</ele>
        <time>2021-12-21T13:56:43.551Z</time>
      </trkpt>
      <trkpt lat="44.03161" lon="5.98506">
        <ele>449</ele>
        <time>2021-12-21T13:56:44.551Z</time>
      </trkpt>
      <trkpt lat="44.03161" lon="5.98504">
        <ele>448</ele>
        <time>2021-12-21T13:56:45.551Z</time>
      </trkpt>
      <trkpt lat="44.0316" lon="5.98503">
        <ele>448</ele>
        <time>2021-12-21T13:56:46.551Z</time>
      </trkpt>
      <trkpt lat="44.0316" lon="5.98501">
        <ele>448</ele>
        <time>2021-12-21T13:56:47.551Z</time>
      </trkpt>
      <trkpt lat="44.0316" lon="5.98499">
        <ele>447</ele>
        <time>2021-12-21T13:56:48.551Z</time>
      </trkpt>
      <trkpt lat="44.0316" lon="5.98498">
        <ele>447</ele>
        <time>2021-12-21T13:56:49.551Z</time>
      </trkpt>
      <trkpt lat="44.03159" lon="5.98496">
        <ele>447</ele>
        <time>2021-12-21T13:56:50.551Z</time>
      </trkpt>
      <trkpt lat="44.03159" lon="5.98495">
        <ele>447</ele>
        <time>2021-12-21T13:56:51.551Z</time>
      </trkpt>
      <trkpt lat="44.03158" lon="5.98493">
        <ele>447</ele>
        <time>2021-12-21T13:56:52.551Z</time>
      </trkpt>
      <trkpt lat="44.03158" lon="5.98491">
        <ele>447</ele>
        <time>2021-12-21T13:56:53.551Z</time>
      </trkpt>
      <trkpt lat="44.03158" lon="5.9849">
        <ele>447</ele>
        <time>2021-12-21T13:56:54.551Z</time>
      </trkpt>
      <trkpt lat="44.03157" lon="5.98488">
        <ele>447</ele>
        <time>2021-12-21T13:56:55.551Z</time>
      </trkpt>
      <trkpt lat="44.03157" lon="5.98487">
        <ele>447</ele>
        <time>2021-12-21T13:56:56.551Z</time>
      </trkpt>
      <trkpt lat="44.03157" lon="5.98485">
        <ele>447</ele>
        <time>2021-12-21T13:56:57.551Z</time>
      </trkpt>
      <trkpt lat="44.03157" lon="5.98484">
        <ele>447</ele>
        <time>2021-12-21T13:56:58.551Z</time>
      </trkpt>
      <trkpt lat="44.03157" lon="5.98482">
        <ele>447</ele>
        <time>2021-12-21T13:56:59.551Z</time>
      </trkpt>
      <trkpt lat="44.03157" lon="5.9848">
        <ele>447</ele>
        <time>2021-12-21T13:57:00.551Z</time>
      </trkpt>
      <trkpt lat="44.03156" lon="5.98479">
        <ele>447</ele>
        <time>2021-12-21T13:57:01.551Z</time>
      </trkpt>
      <trkpt lat="44.03156" lon="5.98477">
        <ele>447</ele>
        <time>2021-12-21T13:57:02.551Z</time>
      </trkpt>
      <trkpt lat="44.03155" lon="5.98475">
        <ele>447</ele>
        <time>2021-12-21T13:57:03.551Z</time>
      </trkpt>
      <trkpt lat="44.03155" lon="5.98473">
        <ele>446</ele>
        <time>2021-12-21T13:57:04.551Z</time>
      </trkpt>
      <trkpt lat="44.03155" lon="5.98471">
        <ele>446</ele>
        <time>2021-12-21T13:57:05.551Z</time>
      </trkpt>
      <trkpt lat="44.03154" lon="5.9847">
        <ele>446</ele>
        <time>2021-12-21T13:57:06.551Z</time>
      </trkpt>
      <trkpt lat="44.03154" lon="5.98468">
        <ele>446</ele>
        <time>2021-12-21T13:57:07.551Z</time>
      </trkpt>
      <trkpt lat="44.03154" lon="5.98466">
        <ele>445</ele>
        <time>2021-12-21T13:57:08.551Z</time>
      </trkpt>
      <trkpt lat="44.03154" lon="5.98464">
        <ele>445</ele>
        <time>2021-12-21T13:57:09.551Z</time>
      </trkpt>
      <trkpt lat="44.03153" lon="5.98463">
        <ele>445</ele>
        <time>2021-12-21T13:57:10.551Z</time>
      </trkpt>
      <trkpt lat="44.03153" lon="5.98461">
        <ele>445</ele>
        <time>2021-12-21T13:57:11.551Z</time>
      </trkpt>
      <trkpt lat="44.03153" lon="5.9846">
        <ele>445</ele>
        <time>2021-12-21T13:57:12.551Z</time>
      </trkpt>
      <trkpt lat="44.03153" lon="5.98458">
        <ele>444</ele>
        <time>2021-12-21T13:57:13.551Z</time>
      </trkpt>
      <trkpt lat="44.03153" lon="5.98456">
        <ele>444</ele>
        <time>2021-12-21T13:57:14.551Z</time>
      </trkpt>
      <trkpt lat="44.03153" lon="5.98455">
        <ele>444</ele>
        <time>2021-12-21T13:57:15.551Z</time>
      </trkpt>
      <trkpt lat="44.03153" lon="5.98453">
        <ele>444</ele>
        <time>2021-12-21T13:57:16.551Z</time>
      </trkpt>
      <trkpt lat="44.03153" lon="5.98451">
        <ele>444</ele>
        <time>2021-12-21T13:57:17.551Z</time>
      </trkpt>
      <trkpt lat="44.03152" lon="5.98449">
        <ele>444</ele>
        <time>2021-12-21T13:57:18.551Z</time>
      </trkpt>
      <trkpt lat="44.03152" lon="5.98448">
        <ele>444</ele>
        <time>2021-12-21T13:57:19.551Z</time>
      </trkpt>
      <trkpt lat="44.03152" lon="5.98446">
        <ele>444</ele>
        <time>2021-12-21T13:57:20.551Z</time>
      </trkpt>
      <trkpt lat="44.03152" lon="5.98444">
        <ele>443</ele>
        <time>2021-12-21T13:57:21.551Z</time>
      </trkpt>
      <trkpt lat="44.03152" lon="5.98443">
        <ele>443</ele>
        <time>2021-12-21T13:57:22.551Z</time>
      </trkpt>
      <trkpt lat="44.03152" lon="5.98441">
        <ele>443</ele>
        <time>2021-12-21T13:57:23.551Z</time>
      </trkpt>
      <trkpt lat="44.03152" lon="5.98439">
        <ele>443</ele>
        <time>2021-12-21T13:57:24.551Z</time>
      </trkpt>
      <trkpt lat="44.03152" lon="5.98438">
        <ele>443</ele>
        <time>2021-12-21T13:57:25.551Z</time>
      </trkpt>
      <trkpt lat="44.03152" lon="5.98436">
        <ele>443</ele>
        <time>2021-12-21T13:57:26.551Z</time>
      </trkpt>
      <trkpt lat="44.03152" lon="5.98435">
        <ele>443</ele>
        <time>2021-12-21T13:57:27.551Z</time>
      </trkpt>
      <trkpt lat="44.03152" lon="5.98433">
        <ele>443</ele>
        <time>2021-12-21T13:57:28.551Z</time>
      </trkpt>
      <trkpt lat="44.03152" lon="5.98431">
        <ele>443</ele>
        <time>2021-12-21T13:57:29.551Z</time>
      </trkpt>
      <trkpt lat="44.03151" lon="5.9843">
        <ele>443</ele>
        <time>2021-12-21T13:57:30.551Z</time>
      </trkpt>
      <trkpt lat="44.03151" lon="5.98428">
        <ele>443</ele>
        <time>2021-12-21T13:57:31.551Z</time>
      </trkpt>
      <trkpt lat="44.03151" lon="5.98427">
        <ele>443</ele>
        <time>2021-12-21T13:57:32.551Z</time>
      </trkpt>
      <trkpt lat="44.0315" lon="5.98425">
        <ele>443</ele>
        <time>2021-12-21T13:57:33.551Z</time>
      </trkpt>
      <trkpt lat="44.0315" lon="5.98424">
        <ele>442</ele>
        <time>2021-12-21T13:57:34.551Z</time>
      </trkpt>
      <trkpt lat="44.03149" lon="5.98423">
        <ele>443</ele>
        <time>2021-12-21T13:57:35.551Z</time>
      </trkpt>
      <trkpt lat="44.03148" lon="5.98422">
        <ele>443</ele>
        <time>2021-12-21T13:57:36.551Z</time>
      </trkpt>
      <trkpt lat="44.03147" lon="5.9842">
        <ele>443</ele>
        <time>2021-12-21T13:57:37.551Z</time>
      </trkpt>
      <trkpt lat="44.03147" lon="5.98419">
        <ele>443</ele>
        <time>2021-12-21T13:57:38.551Z</time>
      </trkpt>
      <trkpt lat="44.03146" lon="5.98417">
        <ele>443</ele>
        <time>2021-12-21T13:57:39.551Z</time>
      </trkpt>
      <trkpt lat="44.03145" lon="5.98416">
        <ele>443</ele>
        <time>2021-12-21T13:57:40.551Z</time>
      </trkpt>
      <trkpt lat="44.03144" lon="5.98414">
        <ele>443</ele>
        <time>2021-12-21T13:57:41.551Z</time>
      </trkpt>
      <trkpt lat="44.03144" lon="5.98413">
        <ele>443</ele>
        <time>2021-12-21T13:57:42.551Z</time>
      </trkpt>
      <trkpt lat="44.03143" lon="5.98412">
        <ele>443</ele>
        <time>2021-12-21T13:57:43.551Z</time>
      </trkpt>
      <trkpt lat="44.03143" lon="5.9841">
        <ele>443</ele>
        <time>2021-12-21T13:57:44.551Z</time>
      </trkpt>
      <trkpt lat="44.03142" lon="5.98409">
        <ele>443</ele>
        <time>2021-12-21T13:57:45.551Z</time>
      </trkpt>
      <trkpt lat="44.03142" lon="5.98408">
        <ele>443</ele>
        <time>2021-12-21T13:57:46.551Z</time>
      </trkpt>
      <trkpt lat="44.03141" lon="5.98406">
        <ele>443</ele>
        <time>2021-12-21T13:57:47.551Z</time>
      </trkpt>
      <trkpt lat="44.03141" lon="5.98405">
        <ele>443</ele>
        <time>2021-12-21T13:57:48.551Z</time>
      </trkpt>
      <trkpt lat="44.03141" lon="5.98404">
        <ele>443</ele>
        <time>2021-12-21T13:57:49.551Z</time>
      </trkpt>
      <trkpt lat="44.03141" lon="5.98402">
        <ele>443</ele>
        <time>2021-12-21T13:57:50.551Z</time>
      </trkpt>
      <trkpt lat="44.0314" lon="5.98401">
        <ele>444</ele>
        <time>2021-12-21T13:57:51.551Z</time>
      </trkpt>
      <trkpt lat="44.0314" lon="5.984">
        <ele>444</ele>
        <time>2021-12-21T13:57:52.551Z</time>
      </trkpt>
      <trkpt lat="44.0314" lon="5.98398">
        <ele>444</ele>
        <time>2021-12-21T13:57:53.551Z</time>
      </trkpt>
      <trkpt lat="44.03139" lon="5.98397">
        <ele>444</ele>
        <time>2021-12-21T13:57:54.551Z</time>
      </trkpt>
      <trkpt lat="44.03139" lon="5.98396">
        <ele>444</ele>
        <time>2021-12-21T13:57:55.551Z</time>
      </trkpt>
      <trkpt lat="44.03139" lon="5.98394">
        <ele>444</ele>
        <time>2021-12-21T13:57:56.551Z</time>
      </trkpt>
      <trkpt lat="44.03138" lon="5.98393">
        <ele>444</ele>
        <time>2021-12-21T13:57:57.551Z</time>
      </trkpt>
      <trkpt lat="44.03138" lon="5.98391">
        <ele>444</ele>
        <time>2021-12-21T13:57:58.551Z</time>
      </trkpt>
      <trkpt lat="44.03138" lon="5.9839">
        <ele>444</ele>
        <time>2021-12-21T13:57:59.551Z</time>
      </trkpt>
      <trkpt lat="44.03137" lon="5.98389">
        <ele>444</ele>
        <time>2021-12-21T13:58:00.551Z</time>
      </trkpt>
      <trkpt lat="44.03136" lon="5.98387">
        <ele>444</ele>
        <time>2021-12-21T13:58:01.551Z</time>
      </trkpt>
      <trkpt lat="44.03136" lon="5.98386">
        <ele>444</ele>
        <time>2021-12-21T13:58:02.551Z</time>
      </trkpt>
      <trkpt lat="44.03136" lon="5.98385">
        <ele>445</ele>
        <time>2021-12-21T13:58:03.551Z</time>
      </trkpt>
      <trkpt lat="44.03136" lon="5.98384">
        <ele>445</ele>
        <time>2021-12-21T13:58:04.551Z</time>
      </trkpt>
      <trkpt lat="44.03136" lon="5.98383">
        <ele>445</ele>
        <time>2021-12-21T13:58:05.551Z</time>
      </trkpt>
      <trkpt lat="44.03135" lon="5.98382">
        <ele>445</ele>
        <time>2021-12-21T13:58:06.551Z</time>
      </trkpt>
      <trkpt lat="44.03135" lon="5.9838">
        <ele>445</ele>
        <time>2021-12-21T13:58:07.551Z</time>
      </trkpt>
      <trkpt lat="44.03135" lon="5.98379">
        <ele>445</ele>
        <time>2021-12-21T13:58:08.551Z</time>
      </trkpt>
      <trkpt lat="44.03134" lon="5.98378">
        <ele>445</ele>
        <time>2021-12-21T13:58:09.551Z</time>
      </trkpt>
      <trkpt lat="44.03134" lon="5.98376">
        <ele>445</ele>
        <time>2021-12-21T13:58:10.551Z</time>
      </trkpt>
      <trkpt lat="44.03134" lon="5.98375">
        <ele>445</ele>
        <time>2021-12-21T13:58:11.551Z</time>
      </trkpt>
      <trkpt lat="44.03133" lon="5.98374">
        <ele>445</ele>
        <time>2021-12-21T13:58:12.551Z</time>
      </trkpt>
      <trkpt lat="44.03133" lon="5.98372">
        <ele>446</ele>
        <time>2021-12-21T13:58:13.551Z</time>
      </trkpt>
      <trkpt lat="44.03133" lon="5.9837">
        <ele>445</ele>
        <time>2021-12-21T13:58:14.551Z</time>
      </trkpt>
      <trkpt lat="44.03133" lon="5.98369">
        <ele>445</ele>
        <time>2021-12-21T13:58:15.551Z</time>
      </trkpt>
      <trkpt lat="44.03133" lon="5.98367">
        <ele>445</ele>
        <time>2021-12-21T13:58:16.551Z</time>
      </trkpt>
      <trkpt lat="44.03132" lon="5.98366">
        <ele>445</ele>
        <time>2021-12-21T13:58:17.551Z</time>
      </trkpt>
      <trkpt lat="44.03132" lon="5.98366">
        <ele>445</ele>
        <time>2021-12-21T13:58:18.551Z</time>
      </trkpt>
      <trkpt lat="44.03132" lon="5.98365">
        <ele>445</ele>
        <time>2021-12-21T13:58:19.551Z</time>
      </trkpt>
      <trkpt lat="44.03133" lon="5.98366">
        <ele>445</ele>
        <time>2021-12-21T13:58:20.551Z</time>
      </trkpt>
      <trkpt lat="44.03133" lon="5.98366">
        <ele>445</ele>
        <time>2021-12-21T13:58:21.551Z</time>
      </trkpt>
      <trkpt lat="44.03133" lon="5.98367">
        <ele>445</ele>
        <time>2021-12-21T13:58:22.551Z</time>
      </trkpt>
      <trkpt lat="44.03134" lon="5.98367">
        <ele>445</ele>
        <time>2021-12-21T13:58:23.551Z</time>
      </trkpt>
      <trkpt lat="44.03134" lon="5.98367">
        <ele>444</ele>
        <time>2021-12-21T13:58:24.551Z</time>
      </trkpt>
      <trkpt lat="44.03134" lon="5.98368">
        <ele>444</ele>
        <time>2021-12-21T13:58:25.551Z</time>
      </trkpt>
      <trkpt lat="44.03135" lon="5.98369">
        <ele>444</ele>
        <time>2021-12-21T13:58:26.551Z</time>
      </trkpt>
      <trkpt lat="44.03135" lon="5.98371">
        <ele>444</ele>
        <time>2021-12-21T13:58:27.551Z</time>
      </trkpt>
      <trkpt lat="44.03135" lon="5.98371">
        <ele>444</ele>
        <time>2021-12-21T13:58:28.551Z</time>
      </trkpt>
      <trkpt lat="44.03136" lon="5.98373">
        <ele>444</ele>
        <time>2021-12-21T13:58:29.551Z</time>
      </trkpt>
      <trkpt lat="44.03137" lon="5.98373">
        <ele>444</ele>
        <time>2021-12-21T13:58:30.551Z</time>
      </trkpt>
      <trkpt lat="44.03137" lon="5.98374">
        <ele>443</ele>
        <time>2021-12-21T13:58:31.551Z</time>
      </trkpt>
      <trkpt lat="44.03137" lon="5.98374">
        <ele>443</ele>
        <time>2021-12-21T13:58:32.551Z</time>
      </trkpt>
      <trkpt lat="44.03138" lon="5.98375">
        <ele>443</ele>
        <time>2021-12-21T13:58:33.551Z</time>
      </trkpt>
      <trkpt lat="44.03138" lon="5.98375">
        <ele>443</ele>
        <time>2021-12-21T13:58:34.551Z</time>
      </trkpt>
      <trkpt lat="44.03138" lon="5.98375">
        <ele>443</ele>
        <time>2021-12-21T13:58:35.551Z</time>
      </trkpt>
      <trkpt lat="44.03138" lon="5.98375">
        <ele>443</ele>
        <time>2021-12-21T13:58:36.551Z</time>
      </trkpt>
      <trkpt lat="44.03138" lon="5.98375">
        <ele>442</ele>
        <time>2021-12-21T13:58:37.551Z</time>
      </trkpt>
      <trkpt lat="44.03138" lon="5.98375">
        <ele>442</ele>
        <time>2021-12-21T13:58:38.551Z</time>
      </trkpt>
      <trkpt lat="44.03138" lon="5.98374">
        <ele>442</ele>
        <time>2021-12-21T13:58:39.551Z</time>
      </trkpt>
      <trkpt lat="44.03138" lon="5.98374">
        <ele>442</ele>
        <time>2021-12-21T13:58:40.551Z</time>
      </trkpt>
      <trkpt lat="44.03138" lon="5.98374">
        <ele>442</ele>
        <time>2021-12-21T13:58:41.551Z</time>
      </trkpt>
      <trkpt lat="44.03138" lon="5.98374">
        <ele>442</ele>
        <time>2021-12-21T13:58:42.551Z</time>
      </trkpt>
      <trkpt lat="44.03138" lon="5.98374">
        <ele>442</ele>
        <time>2021-12-21T13:58:43.551Z</time>
      </trkpt>
      <trkpt lat="44.03138" lon="5.98374">
        <ele>442</ele>
        <time>2021-12-21T13:58:44.551Z</time>
      </trkpt>
      <trkpt lat="44.03138" lon="5.98374">
        <ele>442</ele>
        <time>2021-12-21T13:58:45.551Z</time>
      </trkpt>
      <trkpt lat="44.03138" lon="5.98374">
        <ele>441</ele>
        <time>2021-12-21T13:58:46.551Z</time>
      </trkpt>
      <trkpt lat="44.03138" lon="5.98374">
        <ele>441</ele>
        <time>2021-12-21T13:58:47.551Z</time>
      </trkpt>
      <trkpt lat="44.03138" lon="5.98373">
        <ele>441</ele>
        <time>2021-12-21T13:58:48.551Z</time>
      </trkpt>
      <trkpt lat="44.03138" lon="5.98373">
        <ele>441</ele>
        <time>2021-12-21T13:58:49.551Z</time>
      </trkpt>
      <trkpt lat="44.03138" lon="5.98373">
        <ele>441</ele>
        <time>2021-12-21T13:58:50.551Z</time>
      </trkpt>
      <trkpt lat="44.03138" lon="5.98373">
        <ele>441</ele>
        <time>2021-12-21T13:58:51.551Z</time>
      </trkpt>
      <trkpt lat="44.03138" lon="5.98373">
        <ele>440</ele>
        <time>2021-12-21T13:58:52.551Z</time>
      </trkpt>
      <trkpt lat="44.03138" lon="5.98373">
        <ele>440</ele>
        <time>2021-12-21T13:58:53.551Z</time>
      </trkpt>
      <trkpt lat="44.03138" lon="5.98373">
        <ele>440</ele>
        <time>2021-12-21T13:58:54.551Z</time>
      </trkpt>
      <trkpt lat="44.03138" lon="5.98373">
        <ele>440</ele>
        <time>2021-12-21T13:58:55.551Z</time>
      </trkpt>
      <trkpt lat="44.03138" lon="5.98373">
        <ele>440</ele>
        <time>2021-12-21T13:58:56.551Z</time>
      </trkpt>
      <trkpt lat="44.03138" lon="5.98373">
        <ele>440</ele>
        <time>2021-12-21T13:58:57.551Z</time>
      </trkpt>
      <trkpt lat="44.03138" lon="5.98373">
        <ele>440</ele>
        <time>2021-12-21T13:58:58.551Z</time>
      </trkpt>
      <trkpt lat="44.03138" lon="5.98373">
        <ele>440</ele>
        <time>2021-12-21T13:58:59.551Z</time>
      </trkpt>
      <trkpt lat="44.03138" lon="5.98373">
        <ele>440</ele>
        <time>2021-12-21T13:59:00.551Z</time>
      </trkpt>
      <trkpt lat="44.03138" lon="5.98373">
        <ele>439</ele>
        <time>2021-12-21T13:59:01.551Z</time>
      </trkpt>
      <trkpt lat="44.03138" lon="5.98373">
        <ele>439</ele>
        <time>2021-12-21T13:59:02.551Z</time>
      </trkpt>
      <trkpt lat="44.03137" lon="5.98373">
        <ele>439</ele>
        <time>2021-12-21T13:59:03.551Z</time>
      </trkpt>
      <trkpt lat="44.03138" lon="5.98373">
        <ele>439</ele>
        <time>2021-12-21T13:59:04.551Z</time>
      </trkpt>
      <trkpt lat="44.03138" lon="5.98373">
        <ele>439</ele>
        <time>2021-12-21T13:59:05.551Z</time>
      </trkpt>
      <trkpt lat="44.03138" lon="5.98373">
        <ele>439</ele>
        <time>2021-12-21T13:59:06.551Z</time>
      </trkpt>
      <trkpt lat="44.03137" lon="5.98373">
        <ele>439</ele>
        <time>2021-12-21T13:59:07.551Z</time>
      </trkpt>
      <trkpt lat="44.03137" lon="5.98373">
        <ele>439</ele>
        <time>2021-12-21T13:59:08.551Z</time>
      </trkpt>
      <trkpt lat="44.03137" lon="5.98373">
        <ele>438</ele>
        <time>2021-12-21T13:59:09.551Z</time>
      </trkpt>
      <trkpt lat="44.03137" lon="5.98373">
        <ele>438</ele>
        <time>2021-12-21T13:59:10.551Z</time>
      </trkpt>
      <trkpt lat="44.03137" lon="5.98373">
        <ele>438</ele>
        <time>2021-12-21T13:59:11.551Z</time>
      </trkpt>
      <trkpt lat="44.03137" lon="5.98373">
        <ele>438</ele>
        <time>2021-12-21T13:59:12.551Z</time>
      </trkpt>
      <trkpt lat="44.03137" lon="5.98373">
        <ele>438</ele>
        <time>2021-12-21T13:59:13.551Z</time>
      </trkpt>
      <trkpt lat="44.03137" lon="5.98374">
        <ele>438</ele>
        <time>2021-12-21T13:59:14.551Z</time>
      </trkpt>
      <trkpt lat="44.03137" lon="5.98374">
        <ele>438</ele>
        <time>2021-12-21T13:59:15.551Z</time>
      </trkpt>
      <trkpt lat="44.03137" lon="5.98374">
        <ele>438</ele>
        <time>2021-12-21T13:59:16.551Z</time>
      </trkpt>
      <trkpt lat="44.03137" lon="5.98374">
        <ele>437</ele>
        <time>2021-12-21T13:59:17.551Z</time>
      </trkpt>
      <trkpt lat="44.03137" lon="5.98374">
        <ele>437</ele>
        <time>2021-12-21T13:59:18.551Z</time>
      </trkpt>
      <trkpt lat="44.03137" lon="5.98374">
        <ele>437</ele>
        <time>2021-12-21T13:59:19.551Z</time>
      </trkpt>
      <trkpt lat="44.03137" lon="5.98374">
        <ele>437</ele>
        <time>2021-12-21T13:59:20.551Z</time>
      </trkpt>
      <trkpt lat="44.03137" lon="5.98374">
        <ele>437</ele>
        <time>2021-12-21T13:59:21.551Z</time>
      </trkpt>
      <trkpt lat="44.03137" lon="5.98374">
        <ele>437</ele>
        <time>2021-12-21T13:59:22.551Z</time>
      </trkpt>
      <trkpt lat="44.03137" lon="5.98374">
        <ele>437</ele>
        <time>2021-12-21T13:59:23.551Z</time>
      </trkpt>
      <trkpt lat="44.03137" lon="5.98374">
        <ele>437</ele>
        <time>2021-12-21T13:59:24.551Z</time>
      </trkpt>
      <trkpt lat="44.03137" lon="5.98374">
        <ele>437</ele>
        <time>2021-12-21T13:59:25.551Z</time>
      </trkpt>
      <trkpt lat="44.03137" lon="5.98374">
        <ele>436</ele>
        <time>2021-12-21T13:59:26.551Z</time>
      </trkpt>
      <trkpt lat="44.03137" lon="5.98374">
        <ele>436</ele>
        <time>2021-12-21T13:59:27.551Z</time>
      </trkpt>
      <trkpt lat="44.03137" lon="5.98374">
        <ele>436</ele>
        <time>2021-12-21T13:59:28.551Z</time>
      </trkpt>
      <trkpt lat="44.03137" lon="5.98374">
        <ele>435</ele>
        <time>2021-12-21T13:59:29.551Z</time>
      </trkpt>
      <trkpt lat="44.03137" lon="5.98374">
        <ele>435</ele>
        <time>2021-12-21T13:59:30.551Z</time>
      </trkpt>
      <trkpt lat="44.03136" lon="5.98374">
        <ele>435</ele>
        <time>2021-12-21T13:59:31.551Z</time>
      </trkpt>
      <trkpt lat="44.03136" lon="5.98374">
        <ele>434</ele>
        <time>2021-12-21T13:59:32.551Z</time>
      </trkpt>
      <trkpt lat="44.03136" lon="5.98374">
        <ele>434</ele>
        <time>2021-12-21T13:59:33.551Z</time>
      </trkpt>
      <trkpt lat="44.03136" lon="5.98374">
        <ele>433</ele>
        <time>2021-12-21T13:59:34.551Z</time>
      </trkpt>
      <trkpt lat="44.03136" lon="5.98374">
        <ele>433</ele>
        <time>2021-12-21T13:59:35.551Z</time>
      </trkpt>
      <trkpt lat="44.03136" lon="5.98374">
        <ele>433</ele>
        <time>2021-12-21T13:59:36.551Z</time>
      </trkpt>
      <trkpt lat="44.03136" lon="5.98374">
        <ele>432</ele>
        <time>2021-12-21T13:59:37.551Z</time>
      </trkpt>
      <trkpt lat="44.03136" lon="5.98374">
        <ele>432</ele>
        <time>2021-12-21T13:59:38.551Z</time>
      </trkpt>
      <trkpt lat="44.03136" lon="5.98373">
        <ele>431</ele>
        <time>2021-12-21T13:59:39.551Z</time>
      </trkpt>
      <trkpt lat="44.03136" lon="5.98373">
        <ele>431</ele>
        <time>2021-12-21T13:59:40.551Z</time>
      </trkpt>
      <trkpt lat="44.03135" lon="5.98373">
        <ele>431</ele>
        <time>2021-12-21T13:59:41.551Z</time>
      </trkpt>
      <trkpt lat="44.03135" lon="5.98373">
        <ele>431</ele>
        <time>2021-12-21T13:59:42.551Z</time>
      </trkpt>
      <trkpt lat="44.03135" lon="5.98373">
        <ele>430</ele>
        <time>2021-12-21T13:59:43.551Z</time>
      </trkpt>
      <trkpt lat="44.03135" lon="5.98373">
        <ele>430</ele>
        <time>2021-12-21T13:59:44.551Z</time>
      </trkpt>
      <trkpt lat="44.03135" lon="5.98373">
        <ele>430</ele>
        <time>2021-12-21T13:59:45.551Z</time>
      </trkpt>
      <trkpt lat="44.03135" lon="5.98373">
        <ele>430</ele>
        <time>2021-12-21T13:59:46.551Z</time>
      </trkpt>
      <trkpt lat="44.03135" lon="5.98373">
        <ele>430</ele>
        <time>2021-12-21T13:59:47.551Z</time>
      </trkpt>
      <trkpt lat="44.03135" lon="5.98373">
        <ele>430</ele>
        <time>2021-12-21T13:59:48.551Z</time>
      </trkpt>
      <trkpt lat="44.03135" lon="5.98373">
        <ele>429</ele>
        <time>2021-12-21T13:59:49.551Z</time>
      </trkpt>
      <trkpt lat="44.03135" lon="5.98373">
        <ele>429</ele>
        <time>2021-12-21T13:59:50.551Z</time>
      </trkpt>
      <trkpt lat="44.03135" lon="5.98373">
        <ele>429</ele>
        <time>2021-12-21T13:59:51.551Z</time>
      </trkpt>
      <trkpt lat="44.03135" lon="5.98373">
        <ele>429</ele>
        <time>2021-12-21T13:59:52.551Z</time>
      </trkpt>
      <trkpt lat="44.03135" lon="5.98373">
        <ele>429</ele>
        <time>2021-12-21T13:59:53.551Z</time>
      </trkpt>
      <trkpt lat="44.03135" lon="5.98373">
        <ele>429</ele>
        <time>2021-12-21T13:59:54.551Z</time>
      </trkpt>
      <trkpt lat="44.03135" lon="5.98373">
        <ele>428</ele>
        <time>2021-12-21T13:59:55.551Z</time>
      </trkpt>
      <trkpt lat="44.03135" lon="5.98373">
        <ele>428</ele>
        <time>2021-12-21T13:59:56.551Z</time>
      </trkpt>
      <trkpt lat="44.03135" lon="5.98373">
        <ele>428</ele>
        <time>2021-12-21T13:59:57.551Z</time>
      </trkpt>
      <trkpt lat="44.03135" lon="5.98373">
        <ele>428</ele>
        <time>2021-12-21T13:59:58.551Z</time>
      </trkpt>
      <trkpt lat="44.03135" lon="5.98373">
        <ele>428</ele>
        <time>2021-12-21T13:59:59.551Z</time>
      </trkpt>
      <trkpt lat="44.03135" lon="5.98373">
        <ele>428</ele>
        <time>2021-12-21T14:00:00.551Z</time>
      </trkpt>
      <trkpt lat="44.03134" lon="5.98373">
        <ele>428</ele>
        <time>2021-12-21T14:00:01.551Z</time>
      </trkpt>
      <trkpt lat="44.03134" lon="5.98373">
        <ele>427</ele>
        <time>2021-12-21T14:00:02.551Z</time>
      </trkpt>
      <trkpt lat="44.03134" lon="5.98373">
        <ele>427</ele>
        <time>2021-12-21T14:00:03.551Z</time>
      </trkpt>
      <trkpt lat="44.03134" lon="5.98373">
        <ele>427</ele>
        <time>2021-12-21T14:00:04.551Z</time>
      </trkpt>
      <trkpt lat="44.03134" lon="5.98373">
        <ele>427</ele>
        <time>2021-12-21T14:00:05.551Z</time>
      </trkpt>
      <trkpt lat="44.03134" lon="5.98373">
        <ele>426</ele>
        <time>2021-12-21T14:00:06.551Z</time>
      </trkpt>
      <trkpt lat="44.03134" lon="5.98373">
        <ele>426</ele>
        <time>2021-12-21T14:00:07.551Z</time>
      </trkpt>
      <trkpt lat="44.03134" lon="5.98373">
        <ele>426</ele>
        <time>2021-12-21T14:00:08.551Z</time>
      </trkpt>
      <trkpt lat="44.03134" lon="5.98373">
        <ele>426</ele>
        <time>2021-12-21T14:00:09.551Z</time>
      </trkpt>
      <trkpt lat="44.03134" lon="5.98373">
        <ele>426</ele>
        <time>2021-12-21T14:00:10.551Z</time>
      </trkpt>
      <trkpt lat="44.03134" lon="5.98373">
        <ele>425</ele>
        <time>2021-12-21T14:00:11.551Z</time>
      </trkpt>
      <trkpt lat="44.03134" lon="5.98373">
        <ele>425</ele>
        <time>2021-12-21T14:00:12.551Z</time>
      </trkpt>
      <trkpt lat="44.03134" lon="5.98373">
        <ele>425</ele>
        <time>2021-12-21T14:00:13.551Z</time>
      </trkpt>
      <trkpt lat="44.03133" lon="5.98373">
        <ele>425</ele>
        <time>2021-12-21T14:00:14.551Z</time>
      </trkpt>
      <trkpt lat="44.03133" lon="5.98373">
        <ele>424</ele>
        <time>2021-12-21T14:00:15.551Z</time>
      </trkpt>
      <trkpt lat="44.03133" lon="5.98373">
        <ele>424</ele>
        <time>2021-12-21T14:00:16.551Z</time>
      </trkpt>
      <trkpt lat="44.03133" lon="5.98373">
        <ele>424</ele>
        <time>2021-12-21T14:00:17.551Z</time>
      </trkpt>
      <trkpt lat="44.03133" lon="5.98373">
        <ele>424</ele>
        <time>2021-12-21T14:00:18.551Z</time>
      </trkpt>
      <trkpt lat="44.03133" lon="5.98373">
        <ele>424</ele>
        <time>2021-12-21T14:00:19.551Z</time>
      </trkpt>
      <trkpt lat="44.03133" lon="5.98373">
        <ele>423</ele>
        <time>2021-12-21T14:00:20.551Z</time>
      </trkpt>
      <trkpt lat="44.03133" lon="5.98373">
        <ele>423</ele>
        <time>2021-12-21T14:00:21.551Z</time>
      </trkpt>
      <trkpt lat="44.03133" lon="5.98373">
        <ele>423</ele>
        <time>2021-12-21T14:00:22.551Z</time>
      </trkpt>
      <trkpt lat="44.03133" lon="5.98373">
        <ele>423</ele>
        <time>2021-12-21T14:00:23.551Z</time>
      </trkpt>
      <trkpt lat="44.03133" lon="5.98373">
        <ele>423</ele>
        <time>2021-12-21T14:00:24.551Z</time>
      </trkpt>
      <trkpt lat="44.03132" lon="5.98373">
        <ele>423</ele>
        <time>2021-12-21T14:00:25.551Z</time>
      </trkpt>
      <trkpt lat="44.03132" lon="5.98373">
        <ele>422</ele>
        <time>2021-12-21T14:00:26.551Z</time>
      </trkpt>
      <trkpt lat="44.03132" lon="5.98373">
        <ele>422</ele>
        <time>2021-12-21T14:00:27.551Z</time>
      </trkpt>
      <trkpt lat="44.03132" lon="5.98373">
        <ele>422</ele>
        <time>2021-12-21T14:00:28.551Z</time>
      </trkpt>
      <trkpt lat="44.03132" lon="5.98373">
        <ele>422</ele>
        <time>2021-12-21T14:00:29.551Z</time>
      </trkpt>
      <trkpt lat="44.03132" lon="5.98373">
        <ele>422</ele>
        <time>2021-12-21T14:00:30.551Z</time>
      </trkpt>
      <trkpt lat="44.03132" lon="5.98373">
        <ele>422</ele>
        <time>2021-12-21T14:00:31.551Z</time>
      </trkpt>
      <trkpt lat="44.03132" lon="5.98373">
        <ele>422</ele>
        <time>2021-12-21T14:00:32.551Z</time>
      </trkpt>
      <trkpt lat="44.03132" lon="5.98373">
        <ele>422</ele>
        <time>2021-12-21T14:00:33.551Z</time>
      </trkpt>
      <trkpt lat="44.03132" lon="5.98373">
        <ele>421</ele>
        <time>2021-12-21T14:00:34.551Z</time>
      </trkpt>
      <trkpt lat="44.03131" lon="5.98373">
        <ele>421</ele>
        <time>2021-12-21T14:00:35.551Z</time>
      </trkpt>
      <trkpt lat="44.03131" lon="5.98373">
        <ele>421</ele>
        <time>2021-12-21T14:00:36.551Z</time>
      </trkpt>
      <trkpt lat="44.03131" lon="5.98373">
        <ele>421</ele>
        <time>2021-12-21T14:00:37.551Z</time>
      </trkpt>
      <trkpt lat="44.03131" lon="5.98373">
        <ele>421</ele>
        <time>2021-12-21T14:00:38.551Z</time>
      </trkpt>
      <trkpt lat="44.03131" lon="5.98373">
        <ele>421</ele>
        <time>2021-12-21T14:00:39.551Z</time>
      </trkpt>
      <trkpt lat="44.03131" lon="5.98373">
        <ele>421</ele>
        <time>2021-12-21T14:00:40.551Z</time>
      </trkpt>
      <trkpt lat="44.03131" lon="5.98373">
        <ele>421</ele>
        <time>2021-12-21T14:00:41.551Z</time>
      </trkpt>
      <trkpt lat="44.03131" lon="5.98373">
        <ele>421</ele>
        <time>2021-12-21T14:00:42.551Z</time>
      </trkpt>
      <trkpt lat="44.03131" lon="5.98373">
        <ele>421</ele>
        <time>2021-12-21T14:00:43.551Z</time>
      </trkpt>
      <trkpt lat="44.03131" lon="5.98373">
        <ele>421</ele>
        <time>2021-12-21T14:00:44.551Z</time>
      </trkpt>
      <trkpt lat="44.03131" lon="5.98373">
        <ele>421</ele>
        <time>2021-12-21T14:00:45.551Z</time>
      </trkpt>
      <trkpt lat="44.03131" lon="5.98373">
        <ele>421</ele>
        <time>2021-12-21T14:00:46.551Z</time>
      </trkpt>
      <trkpt lat="44.03131" lon="5.98373">
        <ele>422</ele>
        <time>2021-12-21T14:00:47.551Z</time>
      </trkpt>
      <trkpt lat="44.03131" lon="5.98373">
        <ele>422</ele>
        <time>2021-12-21T14:00:48.551Z</time>
      </trkpt>
      <trkpt lat="44.03131" lon="5.98372">
        <ele>422</ele>
        <time>2021-12-21T14:00:49.551Z</time>
      </trkpt>
      <trkpt lat="44.03131" lon="5.98372">
        <ele>422</ele>
        <time>2021-12-21T14:00:50.551Z</time>
      </trkpt>
      <trkpt lat="44.03131" lon="5.98372">
        <ele>422</ele>
        <time>2021-12-21T14:00:51.551Z</time>
      </trkpt>
      <trkpt lat="44.03131" lon="5.98372">
        <ele>422</ele>
        <time>2021-12-21T14:00:52.551Z</time>
      </trkpt>
      <trkpt lat="44.03131" lon="5.98372">
        <ele>423</ele>
        <time>2021-12-21T14:00:53.551Z</time>
      </trkpt>
      <trkpt lat="44.03131" lon="5.98372">
        <ele>423</ele>
        <time>2021-12-21T14:00:54.551Z</time>
      </trkpt>
      <trkpt lat="44.03131" lon="5.98372">
        <ele>423</ele>
        <time>2021-12-21T14:00:55.551Z</time>
      </trkpt>
      <trkpt lat="44.03131" lon="5.98372">
        <ele>423</ele>
        <time>2021-12-21T14:00:56.551Z</time>
      </trkpt>
      <trkpt lat="44.03131" lon="5.98372">
        <ele>424</ele>
        <time>2021-12-21T14:00:57.551Z</time>
      </trkpt>
      <trkpt lat="44.03131" lon="5.98372">
        <ele>424</ele>
        <time>2021-12-21T14:00:58.551Z</time>
      </trkpt>
      <trkpt lat="44.03131" lon="5.98372">
        <ele>424</ele>
        <time>2021-12-21T14:00:59.551Z</time>
      </trkpt>
      <trkpt lat="44.03131" lon="5.98372">
        <ele>424</ele>
        <time>2021-12-21T14:01:00.551Z</time>
      </trkpt>
      <trkpt lat="44.03131" lon="5.98372">
        <ele>425</ele>
        <time>2021-12-21T14:01:01.551Z</time>
      </trkpt>
      <trkpt lat="44.03131" lon="5.98372">
        <ele>425</ele>
        <time>2021-12-21T14:01:02.551Z</time>
      </trkpt>
      <trkpt lat="44.03131" lon="5.98372">
        <ele>425</ele>
        <time>2021-12-21T14:01:03.551Z</time>
      </trkpt>
      <trkpt lat="44.03131" lon="5.98372">
        <ele>425</ele>
        <time>2021-12-21T14:01:04.551Z</time>
      </trkpt>
      <trkpt lat="44.03131" lon="5.98372">
        <ele>425</ele>
        <time>2021-12-21T14:01:05.551Z</time>
      </trkpt>
      <trkpt lat="44.03131" lon="5.98372">
        <ele>426</ele>
        <time>2021-12-21T14:01:06.551Z</time>
      </trkpt>
      <trkpt lat="44.03131" lon="5.98372">
        <ele>426</ele>
        <time>2021-12-21T14:01:07.551Z</time>
      </trkpt>
      <trkpt lat="44.0313" lon="5.98372">
        <ele>426</ele>
        <time>2021-12-21T14:01:08.551Z</time>
      </trkpt>
      <trkpt lat="44.0313" lon="5.98371">
        <ele>427</ele>
        <time>2021-12-21T14:01:09.551Z</time>
      </trkpt>
      <trkpt lat="44.0313" lon="5.98371">
        <ele>427</ele>
        <time>2021-12-21T14:01:10.551Z</time>
      </trkpt>
      <trkpt lat="44.0313" lon="5.9837">
        <ele>427</ele>
        <time>2021-12-21T14:01:11.551Z</time>
      </trkpt>
      <trkpt lat="44.0313" lon="5.9837">
        <ele>427</ele>
        <time>2021-12-21T14:01:12.551Z</time>
      </trkpt>
      <trkpt lat="44.0313" lon="5.9837">
        <ele>428</ele>
        <time>2021-12-21T14:01:13.551Z</time>
      </trkpt>
      <trkpt lat="44.0313" lon="5.9837">
        <ele>428</ele>
        <time>2021-12-21T14:01:14.551Z</time>
      </trkpt>
      <trkpt lat="44.0313" lon="5.9837">
        <ele>428</ele>
        <time>2021-12-21T14:01:15.551Z</time>
      </trkpt>
      <trkpt lat="44.0313" lon="5.9837">
        <ele>429</ele>
        <time>2021-12-21T14:01:16.551Z</time>
      </trkpt>
      <trkpt lat="44.0313" lon="5.9837">
        <ele>429</ele>
        <time>2021-12-21T14:01:17.551Z</time>
      </trkpt>
      <trkpt lat="44.0313" lon="5.9837">
        <ele>429</ele>
        <time>2021-12-21T14:01:18.551Z</time>
      </trkpt>
      <trkpt lat="44.0313" lon="5.9837">
        <ele>429</ele>
        <time>2021-12-21T14:01:19.551Z</time>
      </trkpt>
      <trkpt lat="44.0313" lon="5.9837">
        <ele>430</ele>
        <time>2021-12-21T14:01:20.551Z</time>
      </trkpt>
      <trkpt lat="44.0313" lon="5.9837">
        <ele>430</ele>
        <time>2021-12-21T14:01:21.551Z</time>
      </trkpt>
      <trkpt lat="44.0313" lon="5.9837">
        <ele>430</ele>
        <time>2021-12-21T14:01:22.551Z</time>
      </trkpt>
      <trkpt lat="44.0313" lon="5.9837">
        <ele>430</ele>
        <time>2021-12-21T14:01:23.551Z</time>
      </trkpt>
      <trkpt lat="44.0313" lon="5.9837">
        <ele>430</ele>
        <time>2021-12-21T14:01:24.551Z</time>
      </trkpt>
      <trkpt lat="44.0313" lon="5.9837">
        <ele>431</ele>
        <time>2021-12-21T14:01:25.551Z</time>
      </trkpt>
      <trkpt lat="44.0313" lon="5.9837">
        <ele>431</ele>
        <time>2021-12-21T14:01:26.551Z</time>
      </trkpt>
      <trkpt lat="44.03131" lon="5.9837">
        <ele>431</ele>
        <time>2021-12-21T14:01:27.551Z</time>
      </trkpt>
      <trkpt lat="44.03131" lon="5.9837">
        <ele>431</ele>
        <time>2021-12-21T14:01:28.551Z</time>
      </trkpt>
      <trkpt lat="44.03131" lon="5.9837">
        <ele>431</ele>
        <time>2021-12-21T14:01:29.551Z</time>
      </trkpt>
      <trkpt lat="44.03131" lon="5.98369">
        <ele>432</ele>
        <time>2021-12-21T14:01:30.551Z</time>
      </trkpt>
      <trkpt lat="44.0313" lon="5.98369">
        <ele>432</ele>
        <time>2021-12-21T14:01:31.551Z</time>
      </trkpt>
      <trkpt lat="44.0313" lon="5.98369">
        <ele>432</ele>
        <time>2021-12-21T14:01:32.551Z</time>
      </trkpt>
      <trkpt lat="44.0313" lon="5.98369">
        <ele>432</ele>
        <time>2021-12-21T14:01:33.551Z</time>
      </trkpt>
      <trkpt lat="44.0313" lon="5.98369">
        <ele>432</ele>
        <time>2021-12-21T14:01:34.551Z</time>
      </trkpt>
      <trkpt lat="44.0313" lon="5.98367">
        <ele>432</ele>
        <time>2021-12-21T14:01:35.551Z</time>
      </trkpt>
      <trkpt lat="44.0313" lon="5.98367">
        <ele>432</ele>
        <time>2021-12-21T14:01:36.551Z</time>
      </trkpt>
      <trkpt lat="44.0313" lon="5.98366">
        <ele>432</ele>
        <time>2021-12-21T14:01:37.551Z</time>
      </trkpt>
      <trkpt lat="44.03129" lon="5.98365">
        <ele>432</ele>
        <time>2021-12-21T14:01:38.551Z</time>
      </trkpt>
      <trkpt lat="44.03129" lon="5.98363">
        <ele>432</ele>
        <time>2021-12-21T14:01:39.551Z</time>
      </trkpt>
      <trkpt lat="44.03129" lon="5.98362">
        <ele>433</ele>
        <time>2021-12-21T14:01:40.551Z</time>
      </trkpt>
      <trkpt lat="44.03128" lon="5.98361">
        <ele>433</ele>
        <time>2021-12-21T14:01:41.551Z</time>
      </trkpt>
      <trkpt lat="44.03128" lon="5.98359">
        <ele>433</ele>
        <time>2021-12-21T14:01:42.551Z</time>
      </trkpt>
      <trkpt lat="44.03128" lon="5.98358">
        <ele>433</ele>
        <time>2021-12-21T14:01:43.551Z</time>
      </trkpt>
      <trkpt lat="44.03127" lon="5.98357">
        <ele>433</ele>
        <time>2021-12-21T14:01:44.551Z</time>
      </trkpt>
      <trkpt lat="44.03127" lon="5.98355">
        <ele>434</ele>
        <time>2021-12-21T14:01:45.551Z</time>
      </trkpt>
      <trkpt lat="44.03126" lon="5.98353">
        <ele>434</ele>
        <time>2021-12-21T14:01:46.551Z</time>
      </trkpt>
      <trkpt lat="44.03126" lon="5.98352">
        <ele>434</ele>
        <time>2021-12-21T14:01:47.551Z</time>
      </trkpt>
      <trkpt lat="44.03125" lon="5.9835">
        <ele>434</ele>
        <time>2021-12-21T14:01:48.551Z</time>
      </trkpt>
      <trkpt lat="44.03125" lon="5.98349">
        <ele>434</ele>
        <time>2021-12-21T14:01:49.551Z</time>
      </trkpt>
      <trkpt lat="44.03124" lon="5.98347">
        <ele>434</ele>
        <time>2021-12-21T14:01:50.551Z</time>
      </trkpt>
      <trkpt lat="44.03124" lon="5.98346">
        <ele>434</ele>
        <time>2021-12-21T14:01:51.551Z</time>
      </trkpt>
      <trkpt lat="44.03124" lon="5.98344">
        <ele>434</ele>
        <time>2021-12-21T14:01:52.551Z</time>
      </trkpt>
      <trkpt lat="44.03123" lon="5.98343">
        <ele>434</ele>
        <time>2021-12-21T14:01:53.551Z</time>
      </trkpt>
      <trkpt lat="44.03123" lon="5.98342">
        <ele>434</ele>
        <time>2021-12-21T14:01:54.551Z</time>
      </trkpt>
      <trkpt lat="44.03122" lon="5.98341">
        <ele>434</ele>
        <time>2021-12-21T14:01:55.551Z</time>
      </trkpt>
      <trkpt lat="44.03122" lon="5.98339">
        <ele>434</ele>
        <time>2021-12-21T14:01:56.551Z</time>
      </trkpt>
      <trkpt lat="44.03122" lon="5.98338">
        <ele>434</ele>
        <time>2021-12-21T14:01:57.551Z</time>
      </trkpt>
      <trkpt lat="44.03121" lon="5.98337">
        <ele>435</ele>
        <time>2021-12-21T14:01:58.551Z</time>
      </trkpt>
      <trkpt lat="44.03121" lon="5.98336">
        <ele>435</ele>
        <time>2021-12-21T14:01:59.551Z</time>
      </trkpt>
      <trkpt lat="44.0312" lon="5.98335">
        <ele>435</ele>
        <time>2021-12-21T14:02:00.551Z</time>
      </trkpt>
      <trkpt lat="44.0312" lon="5.98333">
        <ele>435</ele>
        <time>2021-12-21T14:02:01.551Z</time>
      </trkpt>
      <trkpt lat="44.03119" lon="5.98332">
        <ele>435</ele>
        <time>2021-12-21T14:02:02.551Z</time>
      </trkpt>
      <trkpt lat="44.03119" lon="5.98331">
        <ele>435</ele>
        <time>2021-12-21T14:02:03.551Z</time>
      </trkpt>
      <trkpt lat="44.03118" lon="5.9833">
        <ele>435</ele>
        <time>2021-12-21T14:02:04.551Z</time>
      </trkpt>
      <trkpt lat="44.03117" lon="5.9833">
        <ele>435</ele>
        <time>2021-12-21T14:02:05.551Z</time>
      </trkpt>
      <trkpt lat="44.03117" lon="5.98329">
        <ele>436</ele>
        <time>2021-12-21T14:02:06.551Z</time>
      </trkpt>
      <trkpt lat="44.03116" lon="5.98328">
        <ele>436</ele>
        <time>2021-12-21T14:02:07.551Z</time>
      </trkpt>
      <trkpt lat="44.03116" lon="5.98327">
        <ele>436</ele>
        <time>2021-12-21T14:02:08.551Z</time>
      </trkpt>
      <trkpt lat="44.03116" lon="5.98326">
        <ele>436</ele>
        <time>2021-12-21T14:02:09.551Z</time>
      </trkpt>
      <trkpt lat="44.03115" lon="5.98325">
        <ele>436</ele>
        <time>2021-12-21T14:02:10.551Z</time>
      </trkpt>
      <trkpt lat="44.03115" lon="5.98324">
        <ele>436</ele>
        <time>2021-12-21T14:02:11.551Z</time>
      </trkpt>
      <trkpt lat="44.03114" lon="5.98323">
        <ele>437</ele>
        <time>2021-12-21T14:02:12.551Z</time>
      </trkpt>
      <trkpt lat="44.03114" lon="5.98322">
        <ele>437</ele>
        <time>2021-12-21T14:02:13.551Z</time>
      </trkpt>
      <trkpt lat="44.03114" lon="5.98321">
        <ele>437</ele>
        <time>2021-12-21T14:02:14.551Z</time>
      </trkpt>
      <trkpt lat="44.03113" lon="5.9832">
        <ele>437</ele>
        <time>2021-12-21T14:02:15.551Z</time>
      </trkpt>
      <trkpt lat="44.03113" lon="5.98319">
        <ele>437</ele>
        <time>2021-12-21T14:02:16.551Z</time>
      </trkpt>
      <trkpt lat="44.03113" lon="5.98318">
        <ele>437</ele>
        <time>2021-12-21T14:02:17.551Z</time>
      </trkpt>
      <trkpt lat="44.03113" lon="5.98317">
        <ele>437</ele>
        <time>2021-12-21T14:02:18.551Z</time>
      </trkpt>
      <trkpt lat="44.03112" lon="5.98316">
        <ele>437</ele>
        <time>2021-12-21T14:02:19.551Z</time>
      </trkpt>
      <trkpt lat="44.03111" lon="5.98315">
        <ele>437</ele>
        <time>2021-12-21T14:02:20.551Z</time>
      </trkpt>
      <trkpt lat="44.03111" lon="5.98314">
        <ele>437</ele>
        <time>2021-12-21T14:02:21.551Z</time>
      </trkpt>
      <trkpt lat="44.03111" lon="5.98313">
        <ele>438</ele>
        <time>2021-12-21T14:02:22.551Z</time>
      </trkpt>
      <trkpt lat="44.0311" lon="5.98312">
        <ele>438</ele>
        <time>2021-12-21T14:02:23.551Z</time>
      </trkpt>
      <trkpt lat="44.0311" lon="5.98311">
        <ele>438</ele>
        <time>2021-12-21T14:02:24.551Z</time>
      </trkpt>
      <trkpt lat="44.0311" lon="5.9831">
        <ele>437</ele>
        <time>2021-12-21T14:02:25.551Z</time>
      </trkpt>
      <trkpt lat="44.0311" lon="5.98309">
        <ele>437</ele>
        <time>2021-12-21T14:02:26.551Z</time>
      </trkpt>
      <trkpt lat="44.0311" lon="5.98308">
        <ele>437</ele>
        <time>2021-12-21T14:02:27.551Z</time>
      </trkpt>
      <trkpt lat="44.0311" lon="5.98306">
        <ele>437</ele>
        <time>2021-12-21T14:02:28.551Z</time>
      </trkpt>
      <trkpt lat="44.0311" lon="5.98305">
        <ele>437</ele>
        <time>2021-12-21T14:02:29.551Z</time>
      </trkpt>
      <trkpt lat="44.0311" lon="5.98303">
        <ele>436</ele>
        <time>2021-12-21T14:02:30.551Z</time>
      </trkpt>
      <trkpt lat="44.0311" lon="5.98302">
        <ele>436</ele>
        <time>2021-12-21T14:02:31.551Z</time>
      </trkpt>
      <trkpt lat="44.0311" lon="5.98301">
        <ele>436</ele>
        <time>2021-12-21T14:02:32.551Z</time>
      </trkpt>
      <trkpt lat="44.03111" lon="5.983">
        <ele>436</ele>
        <time>2021-12-21T14:02:33.551Z</time>
      </trkpt>
      <trkpt lat="44.03111" lon="5.98299">
        <ele>436</ele>
        <time>2021-12-21T14:02:34.551Z</time>
      </trkpt>
      <trkpt lat="44.0311" lon="5.98298">
        <ele>436</ele>
        <time>2021-12-21T14:02:35.551Z</time>
      </trkpt>
      <trkpt lat="44.03111" lon="5.98296">
        <ele>436</ele>
        <time>2021-12-21T14:02:36.551Z</time>
      </trkpt>
      <trkpt lat="44.03111" lon="5.98295">
        <ele>436</ele>
        <time>2021-12-21T14:02:37.551Z</time>
      </trkpt>
      <trkpt lat="44.03111" lon="5.98294">
        <ele>436</ele>
        <time>2021-12-21T14:02:38.551Z</time>
      </trkpt>
      <trkpt lat="44.03111" lon="5.98293">
        <ele>436</ele>
        <time>2021-12-21T14:02:39.551Z</time>
      </trkpt>
      <trkpt lat="44.03111" lon="5.98292">
        <ele>436</ele>
        <time>2021-12-21T14:02:40.551Z</time>
      </trkpt>
      <trkpt lat="44.0311" lon="5.98291">
        <ele>436</ele>
        <time>2021-12-21T14:02:41.551Z</time>
      </trkpt>
      <trkpt lat="44.0311" lon="5.9829">
        <ele>436</ele>
        <time>2021-12-21T14:02:42.551Z</time>
      </trkpt>
      <trkpt lat="44.0311" lon="5.98289">
        <ele>436</ele>
        <time>2021-12-21T14:02:43.551Z</time>
      </trkpt>
      <trkpt lat="44.0311" lon="5.98287">
        <ele>436</ele>
        <time>2021-12-21T14:02:44.551Z</time>
      </trkpt>
      <trkpt lat="44.03109" lon="5.98286">
        <ele>436</ele>
        <time>2021-12-21T14:02:45.551Z</time>
      </trkpt>
      <trkpt lat="44.03109" lon="5.98285">
        <ele>436</ele>
        <time>2021-12-21T14:02:46.551Z</time>
      </trkpt>
      <trkpt lat="44.03109" lon="5.98284">
        <ele>436</ele>
        <time>2021-12-21T14:02:47.551Z</time>
      </trkpt>
      <trkpt lat="44.03109" lon="5.98282">
        <ele>435</ele>
        <time>2021-12-21T14:02:48.551Z</time>
      </trkpt>
      <trkpt lat="44.03108" lon="5.98281">
        <ele>435</ele>
        <time>2021-12-21T14:02:49.551Z</time>
      </trkpt>
      <trkpt lat="44.03108" lon="5.98279">
        <ele>435</ele>
        <time>2021-12-21T14:02:50.551Z</time>
      </trkpt>
      <trkpt lat="44.03108" lon="5.98277">
        <ele>435</ele>
        <time>2021-12-21T14:02:51.551Z</time>
      </trkpt>
      <trkpt lat="44.03107" lon="5.98276">
        <ele>434</ele>
        <time>2021-12-21T14:02:52.551Z</time>
      </trkpt>
      <trkpt lat="44.03107" lon="5.98275">
        <ele>434</ele>
        <time>2021-12-21T14:02:53.551Z</time>
      </trkpt>
      <trkpt lat="44.03107" lon="5.98273">
        <ele>434</ele>
        <time>2021-12-21T14:02:54.551Z</time>
      </trkpt>
      <trkpt lat="44.03106" lon="5.98271">
        <ele>434</ele>
        <time>2021-12-21T14:02:55.551Z</time>
      </trkpt>
      <trkpt lat="44.03105" lon="5.9827">
        <ele>434</ele>
        <time>2021-12-21T14:02:56.551Z</time>
      </trkpt>
      <trkpt lat="44.03104" lon="5.98268">
        <ele>434</ele>
        <time>2021-12-21T14:02:57.551Z</time>
      </trkpt>
      <trkpt lat="44.03104" lon="5.98267">
        <ele>434</ele>
        <time>2021-12-21T14:02:58.551Z</time>
      </trkpt>
      <trkpt lat="44.03103" lon="5.98265">
        <ele>434</ele>
        <time>2021-12-21T14:02:59.551Z</time>
      </trkpt>
      <trkpt lat="44.03103" lon="5.98263">
        <ele>434</ele>
        <time>2021-12-21T14:03:00.551Z</time>
      </trkpt>
      <trkpt lat="44.03103" lon="5.98261">
        <ele>434</ele>
        <time>2021-12-21T14:03:01.551Z</time>
      </trkpt>
      <trkpt lat="44.03103" lon="5.9826">
        <ele>434</ele>
        <time>2021-12-21T14:03:02.551Z</time>
      </trkpt>
      <trkpt lat="44.03103" lon="5.98258">
        <ele>434</ele>
        <time>2021-12-21T14:03:03.551Z</time>
      </trkpt>
      <trkpt lat="44.03103" lon="5.98257">
        <ele>433</ele>
        <time>2021-12-21T14:03:04.551Z</time>
      </trkpt>
      <trkpt lat="44.03103" lon="5.98255">
        <ele>433</ele>
        <time>2021-12-21T14:03:05.551Z</time>
      </trkpt>
      <trkpt lat="44.03102" lon="5.98254">
        <ele>434</ele>
        <time>2021-12-21T14:03:06.551Z</time>
      </trkpt>
      <trkpt lat="44.03102" lon="5.98252">
        <ele>434</ele>
        <time>2021-12-21T14:03:07.551Z</time>
      </trkpt>
      <trkpt lat="44.03102" lon="5.98251">
        <ele>434</ele>
        <time>2021-12-21T14:03:08.551Z</time>
      </trkpt>
      <trkpt lat="44.03101" lon="5.9825">
        <ele>434</ele>
        <time>2021-12-21T14:03:09.551Z</time>
      </trkpt>
      <trkpt lat="44.03101" lon="5.98249">
        <ele>433</ele>
        <time>2021-12-21T14:03:10.551Z</time>
      </trkpt>
      <trkpt lat="44.03101" lon="5.98248">
        <ele>433</ele>
        <time>2021-12-21T14:03:11.551Z</time>
      </trkpt>
      <trkpt lat="44.031" lon="5.98247">
        <ele>433</ele>
        <time>2021-12-21T14:03:12.551Z</time>
      </trkpt>
      <trkpt lat="44.031" lon="5.98246">
        <ele>433</ele>
        <time>2021-12-21T14:03:13.551Z</time>
      </trkpt>
      <trkpt lat="44.03099" lon="5.98244">
        <ele>433</ele>
        <time>2021-12-21T14:03:14.551Z</time>
      </trkpt>
      <trkpt lat="44.03099" lon="5.98243">
        <ele>433</ele>
        <time>2021-12-21T14:03:15.551Z</time>
      </trkpt>
      <trkpt lat="44.03098" lon="5.98242">
        <ele>433</ele>
        <time>2021-12-21T14:03:16.551Z</time>
      </trkpt>
      <trkpt lat="44.03097" lon="5.9824">
        <ele>433</ele>
        <time>2021-12-21T14:03:17.551Z</time>
      </trkpt>
      <trkpt lat="44.03097" lon="5.98239">
        <ele>433</ele>
        <time>2021-12-21T14:03:18.551Z</time>
      </trkpt>
      <trkpt lat="44.03097" lon="5.98237">
        <ele>433</ele>
        <time>2021-12-21T14:03:19.551Z</time>
      </trkpt>
      <trkpt lat="44.03096" lon="5.98236">
        <ele>433</ele>
        <time>2021-12-21T14:03:20.551Z</time>
      </trkpt>
      <trkpt lat="44.03095" lon="5.98234">
        <ele>433</ele>
        <time>2021-12-21T14:03:21.551Z</time>
      </trkpt>
      <trkpt lat="44.03095" lon="5.98233">
        <ele>433</ele>
        <time>2021-12-21T14:03:22.551Z</time>
      </trkpt>
      <trkpt lat="44.03094" lon="5.98232">
        <ele>433</ele>
        <time>2021-12-21T14:03:23.551Z</time>
      </trkpt>
      <trkpt lat="44.03094" lon="5.98231">
        <ele>433</ele>
        <time>2021-12-21T14:03:24.551Z</time>
      </trkpt>
      <trkpt lat="44.03093" lon="5.9823">
        <ele>433</ele>
        <time>2021-12-21T14:03:25.551Z</time>
      </trkpt>
      <trkpt lat="44.03092" lon="5.98228">
        <ele>433</ele>
        <time>2021-12-21T14:03:26.551Z</time>
      </trkpt>
      <trkpt lat="44.03092" lon="5.98227">
        <ele>433</ele>
        <time>2021-12-21T14:03:27.551Z</time>
      </trkpt>
      <trkpt lat="44.03091" lon="5.98226">
        <ele>432</ele>
        <time>2021-12-21T14:03:28.551Z</time>
      </trkpt>
      <trkpt lat="44.03091" lon="5.98225">
        <ele>432</ele>
        <time>2021-12-21T14:03:29.551Z</time>
      </trkpt>
      <trkpt lat="44.0309" lon="5.98223">
        <ele>432</ele>
        <time>2021-12-21T14:03:30.551Z</time>
      </trkpt>
      <trkpt lat="44.0309" lon="5.98222">
        <ele>432</ele>
        <time>2021-12-21T14:03:31.551Z</time>
      </trkpt>
      <trkpt lat="44.03089" lon="5.98221">
        <ele>432</ele>
        <time>2021-12-21T14:03:32.551Z</time>
      </trkpt>
      <trkpt lat="44.03088" lon="5.98219">
        <ele>432</ele>
        <time>2021-12-21T14:03:33.551Z</time>
      </trkpt>
      <trkpt lat="44.03088" lon="5.98218">
        <ele>432</ele>
        <time>2021-12-21T14:03:34.551Z</time>
      </trkpt>
      <trkpt lat="44.03087" lon="5.98216">
        <ele>432</ele>
        <time>2021-12-21T14:03:35.551Z</time>
      </trkpt>
      <trkpt lat="44.03086" lon="5.98215">
        <ele>432</ele>
        <time>2021-12-21T14:03:36.551Z</time>
      </trkpt>
      <trkpt lat="44.03086" lon="5.98214">
        <ele>432</ele>
        <time>2021-12-21T14:03:37.551Z</time>
      </trkpt>
      <trkpt lat="44.03085" lon="5.98212">
        <ele>432</ele>
        <time>2021-12-21T14:03:38.551Z</time>
      </trkpt>
      <trkpt lat="44.03085" lon="5.98211">
        <ele>432</ele>
        <time>2021-12-21T14:03:39.551Z</time>
      </trkpt>
      <trkpt lat="44.03085" lon="5.9821">
        <ele>432</ele>
        <time>2021-12-21T14:03:40.551Z</time>
      </trkpt>
      <trkpt lat="44.03084" lon="5.98208">
        <ele>432</ele>
        <time>2021-12-21T14:03:41.551Z</time>
      </trkpt>
      <trkpt lat="44.03084" lon="5.98207">
        <ele>432</ele>
        <time>2021-12-21T14:03:42.551Z</time>
      </trkpt>
      <trkpt lat="44.03083" lon="5.98206">
        <ele>432</ele>
        <time>2021-12-21T14:03:43.551Z</time>
      </trkpt>
      <trkpt lat="44.03083" lon="5.98204">
        <ele>431</ele>
        <time>2021-12-21T14:03:44.551Z</time>
      </trkpt>
      <trkpt lat="44.03082" lon="5.98203">
        <ele>431</ele>
        <time>2021-12-21T14:03:45.551Z</time>
      </trkpt>
      <trkpt lat="44.03082" lon="5.98202">
        <ele>431</ele>
        <time>2021-12-21T14:03:46.551Z</time>
      </trkpt>
      <trkpt lat="44.03082" lon="5.98201">
        <ele>431</ele>
        <time>2021-12-21T14:03:47.551Z</time>
      </trkpt>
      <trkpt lat="44.03082" lon="5.98199">
        <ele>431</ele>
        <time>2021-12-21T14:03:48.551Z</time>
      </trkpt>
      <trkpt lat="44.03081" lon="5.98198">
        <ele>431</ele>
        <time>2021-12-21T14:03:49.551Z</time>
      </trkpt>
      <trkpt lat="44.03081" lon="5.98197">
        <ele>431</ele>
        <time>2021-12-21T14:03:50.551Z</time>
      </trkpt>
      <trkpt lat="44.0308" lon="5.98196">
        <ele>431</ele>
        <time>2021-12-21T14:03:51.551Z</time>
      </trkpt>
      <trkpt lat="44.0308" lon="5.98195">
        <ele>431</ele>
        <time>2021-12-21T14:03:52.551Z</time>
      </trkpt>
      <trkpt lat="44.0308" lon="5.98194">
        <ele>431</ele>
        <time>2021-12-21T14:03:53.551Z</time>
      </trkpt>
      <trkpt lat="44.03079" lon="5.98192">
        <ele>430</ele>
        <time>2021-12-21T14:03:54.551Z</time>
      </trkpt>
      <trkpt lat="44.03079" lon="5.98191">
        <ele>430</ele>
        <time>2021-12-21T14:03:55.551Z</time>
      </trkpt>
      <trkpt lat="44.03079" lon="5.98189">
        <ele>430</ele>
        <time>2021-12-21T14:03:56.551Z</time>
      </trkpt>
      <trkpt lat="44.03079" lon="5.98188">
        <ele>429</ele>
        <time>2021-12-21T14:03:57.551Z</time>
      </trkpt>
      <trkpt lat="44.03078" lon="5.98187">
        <ele>429</ele>
        <time>2021-12-21T14:03:58.551Z</time>
      </trkpt>
      <trkpt lat="44.03078" lon="5.98186">
        <ele>429</ele>
        <time>2021-12-21T14:03:59.551Z</time>
      </trkpt>
      <trkpt lat="44.03078" lon="5.98185">
        <ele>428</ele>
        <time>2021-12-21T14:04:00.551Z</time>
      </trkpt>
      <trkpt lat="44.03077" lon="5.98183">
        <ele>428</ele>
        <time>2021-12-21T14:04:01.551Z</time>
      </trkpt>
      <trkpt lat="44.03077" lon="5.98181">
        <ele>428</ele>
        <time>2021-12-21T14:04:02.551Z</time>
      </trkpt>
      <trkpt lat="44.03076" lon="5.9818">
        <ele>427</ele>
        <time>2021-12-21T14:04:03.551Z</time>
      </trkpt>
      <trkpt lat="44.03076" lon="5.98178">
        <ele>427</ele>
        <time>2021-12-21T14:04:04.551Z</time>
      </trkpt>
      <trkpt lat="44.03076" lon="5.98177">
        <ele>427</ele>
        <time>2021-12-21T14:04:05.551Z</time>
      </trkpt>
      <trkpt lat="44.03076" lon="5.98175">
        <ele>427</ele>
        <time>2021-12-21T14:04:06.551Z</time>
      </trkpt>
      <trkpt lat="44.03075" lon="5.98174">
        <ele>427</ele>
        <time>2021-12-21T14:04:07.551Z</time>
      </trkpt>
      <trkpt lat="44.03075" lon="5.98173">
        <ele>427</ele>
        <time>2021-12-21T14:04:08.551Z</time>
      </trkpt>
      <trkpt lat="44.03075" lon="5.98171">
        <ele>426</ele>
        <time>2021-12-21T14:04:09.551Z</time>
      </trkpt>
      <trkpt lat="44.03074" lon="5.9817">
        <ele>426</ele>
        <time>2021-12-21T14:04:10.551Z</time>
      </trkpt>
      <trkpt lat="44.03073" lon="5.98169">
        <ele>426</ele>
        <time>2021-12-21T14:04:11.551Z</time>
      </trkpt>
      <trkpt lat="44.03073" lon="5.98167">
        <ele>426</ele>
        <time>2021-12-21T14:04:12.551Z</time>
      </trkpt>
      <trkpt lat="44.03073" lon="5.98165">
        <ele>426</ele>
        <time>2021-12-21T14:04:13.551Z</time>
      </trkpt>
      <trkpt lat="44.03072" lon="5.98164">
        <ele>426</ele>
        <time>2021-12-21T14:04:14.551Z</time>
      </trkpt>
      <trkpt lat="44.03072" lon="5.98163">
        <ele>426</ele>
        <time>2021-12-21T14:04:15.551Z</time>
      </trkpt>
      <trkpt lat="44.03072" lon="5.98162">
        <ele>426</ele>
        <time>2021-12-21T14:04:16.551Z</time>
      </trkpt>
      <trkpt lat="44.03071" lon="5.98161">
        <ele>426</ele>
        <time>2021-12-21T14:04:17.551Z</time>
      </trkpt>
      <trkpt lat="44.0307" lon="5.9816">
        <ele>425</ele>
        <time>2021-12-21T14:04:18.551Z</time>
      </trkpt>
      <trkpt lat="44.0307" lon="5.98159">
        <ele>425</ele>
        <time>2021-12-21T14:04:19.551Z</time>
      </trkpt>
      <trkpt lat="44.0307" lon="5.98159">
        <ele>425</ele>
        <time>2021-12-21T14:04:20.551Z</time>
      </trkpt>
      <trkpt lat="44.0307" lon="5.98158">
        <ele>425</ele>
        <time>2021-12-21T14:04:21.551Z</time>
      </trkpt>
      <trkpt lat="44.03069" lon="5.98158">
        <ele>425</ele>
        <time>2021-12-21T14:04:22.551Z</time>
      </trkpt>
      <trkpt lat="44.03069" lon="5.98158">
        <ele>425</ele>
        <time>2021-12-21T14:04:23.551Z</time>
      </trkpt>
      <trkpt lat="44.03069" lon="5.98158">
        <ele>425</ele>
        <time>2021-12-21T14:04:24.551Z</time>
      </trkpt>
      <trkpt lat="44.03069" lon="5.98157">
        <ele>425</ele>
        <time>2021-12-21T14:04:25.551Z</time>
      </trkpt>
      <trkpt lat="44.03069" lon="5.98157">
        <ele>425</ele>
        <time>2021-12-21T14:04:26.551Z</time>
      </trkpt>
      <trkpt lat="44.03069" lon="5.98157">
        <ele>425</ele>
        <time>2021-12-21T14:04:27.551Z</time>
      </trkpt>
      <trkpt lat="44.03069" lon="5.98157">
        <ele>425</ele>
        <time>2021-12-21T14:04:28.551Z</time>
      </trkpt>
      <trkpt lat="44.03068" lon="5.98157">
        <ele>425</ele>
        <time>2021-12-21T14:04:29.551Z</time>
      </trkpt>
      <trkpt lat="44.03068" lon="5.98156">
        <ele>424</ele>
        <time>2021-12-21T14:04:30.551Z</time>
      </trkpt>
      <trkpt lat="44.03068" lon="5.98156">
        <ele>424</ele>
        <time>2021-12-21T14:04:31.551Z</time>
      </trkpt>
      <trkpt lat="44.03068" lon="5.98156">
        <ele>424</ele>
        <time>2021-12-21T14:04:32.551Z</time>
      </trkpt>
      <trkpt lat="44.03068" lon="5.98156">
        <ele>424</ele>
        <time>2021-12-21T14:04:33.551Z</time>
      </trkpt>
      <trkpt lat="44.03068" lon="5.98156">
        <ele>424</ele>
        <time>2021-12-21T14:04:34.551Z</time>
      </trkpt>
      <trkpt lat="44.03068" lon="5.98155">
        <ele>424</ele>
        <time>2021-12-21T14:04:35.551Z</time>
      </trkpt>
      <trkpt lat="44.03068" lon="5.98155">
        <ele>424</ele>
        <time>2021-12-21T14:04:36.551Z</time>
      </trkpt>
      <trkpt lat="44.03068" lon="5.98155">
        <ele>424</ele>
        <time>2021-12-21T14:04:37.551Z</time>
      </trkpt>
      <trkpt lat="44.03067" lon="5.98155">
        <ele>424</ele>
        <time>2021-12-21T14:04:38.551Z</time>
      </trkpt>
      <trkpt lat="44.03067" lon="5.98155">
        <ele>424</ele>
        <time>2021-12-21T14:04:39.551Z</time>
      </trkpt>
      <trkpt lat="44.03067" lon="5.98155">
        <ele>423</ele>
        <time>2021-12-21T14:04:40.551Z</time>
      </trkpt>
      <trkpt lat="44.03066" lon="5.98154">
        <ele>423</ele>
        <time>2021-12-21T14:04:41.551Z</time>
      </trkpt>
      <trkpt lat="44.03065" lon="5.98152">
        <ele>423</ele>
        <time>2021-12-21T14:04:42.551Z</time>
      </trkpt>
      <trkpt lat="44.03065" lon="5.98151">
        <ele>423</ele>
        <time>2021-12-21T14:04:43.551Z</time>
      </trkpt>
      <trkpt lat="44.03064" lon="5.98149">
        <ele>423</ele>
        <time>2021-12-21T14:04:44.551Z</time>
      </trkpt>
      <trkpt lat="44.03063" lon="5.98148">
        <ele>423</ele>
        <time>2021-12-21T14:04:45.551Z</time>
      </trkpt>
      <trkpt lat="44.03063" lon="5.98146">
        <ele>423</ele>
        <time>2021-12-21T14:04:46.551Z</time>
      </trkpt>
      <trkpt lat="44.03062" lon="5.98145">
        <ele>422</ele>
        <time>2021-12-21T14:04:47.551Z</time>
      </trkpt>
      <trkpt lat="44.03061" lon="5.98144">
        <ele>422</ele>
        <time>2021-12-21T14:04:48.551Z</time>
      </trkpt>
      <trkpt lat="44.0306" lon="5.98142">
        <ele>422</ele>
        <time>2021-12-21T14:04:49.551Z</time>
      </trkpt>
      <trkpt lat="44.0306" lon="5.9814">
        <ele>422</ele>
        <time>2021-12-21T14:04:50.551Z</time>
      </trkpt>
      <trkpt lat="44.03059" lon="5.98139">
        <ele>422</ele>
        <time>2021-12-21T14:04:51.551Z</time>
      </trkpt>
      <trkpt lat="44.03059" lon="5.98137">
        <ele>422</ele>
        <time>2021-12-21T14:04:52.551Z</time>
      </trkpt>
      <trkpt lat="44.03059" lon="5.98135">
        <ele>422</ele>
        <time>2021-12-21T14:04:53.551Z</time>
      </trkpt>
      <trkpt lat="44.03059" lon="5.98134">
        <ele>422</ele>
        <time>2021-12-21T14:04:54.551Z</time>
      </trkpt>
      <trkpt lat="44.03059" lon="5.98132">
        <ele>422</ele>
        <time>2021-12-21T14:04:55.551Z</time>
      </trkpt>
      <trkpt lat="44.03059" lon="5.9813">
        <ele>421</ele>
        <time>2021-12-21T14:04:56.551Z</time>
      </trkpt>
      <trkpt lat="44.03059" lon="5.98129">
        <ele>421</ele>
        <time>2021-12-21T14:04:57.551Z</time>
      </trkpt>
      <trkpt lat="44.03058" lon="5.98127">
        <ele>421</ele>
        <time>2021-12-21T14:04:58.551Z</time>
      </trkpt>
      <trkpt lat="44.03058" lon="5.98125">
        <ele>421</ele>
        <time>2021-12-21T14:04:59.551Z</time>
      </trkpt>
      <trkpt lat="44.03057" lon="5.98123">
        <ele>421</ele>
        <time>2021-12-21T14:05:00.551Z</time>
      </trkpt>
      <trkpt lat="44.03057" lon="5.98122">
        <ele>420</ele>
        <time>2021-12-21T14:05:01.551Z</time>
      </trkpt>
      <trkpt lat="44.03056" lon="5.9812">
        <ele>420</ele>
        <time>2021-12-21T14:05:02.551Z</time>
      </trkpt>
      <trkpt lat="44.03055" lon="5.98118">
        <ele>420</ele>
        <time>2021-12-21T14:05:03.551Z</time>
      </trkpt>
      <trkpt lat="44.03055" lon="5.98116">
        <ele>420</ele>
        <time>2021-12-21T14:05:04.551Z</time>
      </trkpt>
      <trkpt lat="44.03054" lon="5.98114">
        <ele>420</ele>
        <time>2021-12-21T14:05:05.551Z</time>
      </trkpt>
      <trkpt lat="44.03053" lon="5.98112">
        <ele>419</ele>
        <time>2021-12-21T14:05:06.551Z</time>
      </trkpt>
      <trkpt lat="44.03053" lon="5.9811">
        <ele>419</ele>
        <time>2021-12-21T14:05:07.551Z</time>
      </trkpt>
      <trkpt lat="44.03052" lon="5.98109">
        <ele>419</ele>
        <time>2021-12-21T14:05:08.551Z</time>
      </trkpt>
      <trkpt lat="44.03052" lon="5.98107">
        <ele>419</ele>
        <time>2021-12-21T14:05:09.551Z</time>
      </trkpt>
      <trkpt lat="44.03052" lon="5.98106">
        <ele>419</ele>
        <time>2021-12-21T14:05:10.551Z</time>
      </trkpt>
      <trkpt lat="44.03051" lon="5.98104">
        <ele>419</ele>
        <time>2021-12-21T14:05:11.551Z</time>
      </trkpt>
      <trkpt lat="44.03051" lon="5.98103">
        <ele>419</ele>
        <time>2021-12-21T14:05:12.551Z</time>
      </trkpt>
      <trkpt lat="44.03051" lon="5.98101">
        <ele>419</ele>
        <time>2021-12-21T14:05:13.551Z</time>
      </trkpt>
      <trkpt lat="44.03051" lon="5.981">
        <ele>419</ele>
        <time>2021-12-21T14:05:14.551Z</time>
      </trkpt>
      <trkpt lat="44.03051" lon="5.98098">
        <ele>419</ele>
        <time>2021-12-21T14:05:15.551Z</time>
      </trkpt>
      <trkpt lat="44.03051" lon="5.98097">
        <ele>419</ele>
        <time>2021-12-21T14:05:16.551Z</time>
      </trkpt>
      <trkpt lat="44.03051" lon="5.98097">
        <ele>419</ele>
        <time>2021-12-21T14:05:17.551Z</time>
      </trkpt>
      <trkpt lat="44.03051" lon="5.98096">
        <ele>419</ele>
        <time>2021-12-21T14:05:18.551Z</time>
      </trkpt>
      <trkpt lat="44.03051" lon="5.98096">
        <ele>419</ele>
        <time>2021-12-21T14:05:19.551Z</time>
      </trkpt>
      <trkpt lat="44.03051" lon="5.98096">
        <ele>419</ele>
        <time>2021-12-21T14:05:20.551Z</time>
      </trkpt>
      <trkpt lat="44.03051" lon="5.98096">
        <ele>419</ele>
        <time>2021-12-21T14:05:21.551Z</time>
      </trkpt>
      <trkpt lat="44.03052" lon="5.98096">
        <ele>419</ele>
        <time>2021-12-21T14:05:22.551Z</time>
      </trkpt>
      <trkpt lat="44.03052" lon="5.98096">
        <ele>419</ele>
        <time>2021-12-21T14:05:23.551Z</time>
      </trkpt>
      <trkpt lat="44.03052" lon="5.98095">
        <ele>419</ele>
        <time>2021-12-21T14:05:24.551Z</time>
      </trkpt>
      <trkpt lat="44.03052" lon="5.98095">
        <ele>419</ele>
        <time>2021-12-21T14:05:25.551Z</time>
      </trkpt>
      <trkpt lat="44.03052" lon="5.98095">
        <ele>419</ele>
        <time>2021-12-21T14:05:26.551Z</time>
      </trkpt>
      <trkpt lat="44.03052" lon="5.98095">
        <ele>419</ele>
        <time>2021-12-21T14:05:27.551Z</time>
      </trkpt>
      <trkpt lat="44.03053" lon="5.98095">
        <ele>419</ele>
        <time>2021-12-21T14:05:28.551Z</time>
      </trkpt>
      <trkpt lat="44.03053" lon="5.98095">
        <ele>419</ele>
        <time>2021-12-21T14:05:29.551Z</time>
      </trkpt>
      <trkpt lat="44.03053" lon="5.98095">
        <ele>419</ele>
        <time>2021-12-21T14:05:30.551Z</time>
      </trkpt>
      <trkpt lat="44.03053" lon="5.98095">
        <ele>419</ele>
        <time>2021-12-21T14:05:31.551Z</time>
      </trkpt>
      <trkpt lat="44.03053" lon="5.98095">
        <ele>420</ele>
        <time>2021-12-21T14:05:32.551Z</time>
      </trkpt>
      <trkpt lat="44.03053" lon="5.98095">
        <ele>420</ele>
        <time>2021-12-21T14:05:33.551Z</time>
      </trkpt>
      <trkpt lat="44.03053" lon="5.98095">
        <ele>420</ele>
        <time>2021-12-21T14:05:34.551Z</time>
      </trkpt>
      <trkpt lat="44.03053" lon="5.98095">
        <ele>420</ele>
        <time>2021-12-21T14:05:35.551Z</time>
      </trkpt>
      <trkpt lat="44.03053" lon="5.98095">
        <ele>420</ele>
        <time>2021-12-21T14:05:36.551Z</time>
      </trkpt>
      <trkpt lat="44.03053" lon="5.98095">
        <ele>420</ele>
        <time>2021-12-21T14:05:37.551Z</time>
      </trkpt>
      <trkpt lat="44.03053" lon="5.98095">
        <ele>420</ele>
        <time>2021-12-21T14:05:38.551Z</time>
      </trkpt>
      <trkpt lat="44.03053" lon="5.98095">
        <ele>420</ele>
        <time>2021-12-21T14:05:39.551Z</time>
      </trkpt>
      <trkpt lat="44.03053" lon="5.98095">
        <ele>420</ele>
        <time>2021-12-21T14:05:40.551Z</time>
      </trkpt>
      <trkpt lat="44.03053" lon="5.98095">
        <ele>420</ele>
        <time>2021-12-21T14:05:41.551Z</time>
      </trkpt>
      <trkpt lat="44.03053" lon="5.98095">
        <ele>420</ele>
        <time>2021-12-21T14:05:42.551Z</time>
      </trkpt>
      <trkpt lat="44.03053" lon="5.98095">
        <ele>420</ele>
        <time>2021-12-21T14:05:43.551Z</time>
      </trkpt>
      <trkpt lat="44.03053" lon="5.98095">
        <ele>421</ele>
        <time>2021-12-21T14:05:44.551Z</time>
      </trkpt>
      <trkpt lat="44.03053" lon="5.98095">
        <ele>421</ele>
        <time>2021-12-21T14:05:45.551Z</time>
      </trkpt>
      <trkpt lat="44.03053" lon="5.98094">
        <ele>421</ele>
        <time>2021-12-21T14:05:46.551Z</time>
      </trkpt>
      <trkpt lat="44.03052" lon="5.98093">
        <ele>421</ele>
        <time>2021-12-21T14:05:47.551Z</time>
      </trkpt>
      <trkpt lat="44.03052" lon="5.98092">
        <ele>421</ele>
        <time>2021-12-21T14:05:48.551Z</time>
      </trkpt>
      <trkpt lat="44.03052" lon="5.98092">
        <ele>421</ele>
        <time>2021-12-21T14:05:49.551Z</time>
      </trkpt>
      <trkpt lat="44.03052" lon="5.98092">
        <ele>421</ele>
        <time>2021-12-21T14:05:50.551Z</time>
      </trkpt>
      <trkpt lat="44.03052" lon="5.98091">
        <ele>420</ele>
        <time>2021-12-21T14:05:51.551Z</time>
      </trkpt>
      <trkpt lat="44.03052" lon="5.98091">
        <ele>420</ele>
        <time>2021-12-21T14:05:52.551Z</time>
      </trkpt>
      <trkpt lat="44.03052" lon="5.98091">
        <ele>420</ele>
        <time>2021-12-21T14:05:53.551Z</time>
      </trkpt>
      <trkpt lat="44.03052" lon="5.98091">
        <ele>420</ele>
        <time>2021-12-21T14:05:54.551Z</time>
      </trkpt>
      <trkpt lat="44.03052" lon="5.98091">
        <ele>420</ele>
        <time>2021-12-21T14:05:55.551Z</time>
      </trkpt>
      <trkpt lat="44.03052" lon="5.98091">
        <ele>420</ele>
        <time>2021-12-21T14:05:56.551Z</time>
      </trkpt>
      <trkpt lat="44.03052" lon="5.98091">
        <ele>420</ele>
        <time>2021-12-21T14:05:57.551Z</time>
      </trkpt>
      <trkpt lat="44.03052" lon="5.98091">
        <ele>420</ele>
        <time>2021-12-21T14:05:58.551Z</time>
      </trkpt>
      <trkpt lat="44.03052" lon="5.98091">
        <ele>420</ele>
        <time>2021-12-21T14:05:59.551Z</time>
      </trkpt>
      <trkpt lat="44.03053" lon="5.98091">
        <ele>420</ele>
        <time>2021-12-21T14:06:00.551Z</time>
      </trkpt>
      <trkpt lat="44.03053" lon="5.98091">
        <ele>420</ele>
        <time>2021-12-21T14:06:01.551Z</time>
      </trkpt>
      <trkpt lat="44.03053" lon="5.98091">
        <ele>420</ele>
        <time>2021-12-21T14:06:02.551Z</time>
      </trkpt>
      <trkpt lat="44.03053" lon="5.98091">
        <ele>420</ele>
        <time>2021-12-21T14:06:03.551Z</time>
      </trkpt>
      <trkpt lat="44.03053" lon="5.98091">
        <ele>420</ele>
        <time>2021-12-21T14:06:04.551Z</time>
      </trkpt>
      <trkpt lat="44.03053" lon="5.98091">
        <ele>420</ele>
        <time>2021-12-21T14:06:05.551Z</time>
      </trkpt>
      <trkpt lat="44.03053" lon="5.98091">
        <ele>420</ele>
        <time>2021-12-21T14:06:06.551Z</time>
      </trkpt>
      <trkpt lat="44.03053" lon="5.98091">
        <ele>420</ele>
        <time>2021-12-21T14:06:07.551Z</time>
      </trkpt>
      <trkpt lat="44.03054" lon="5.98091">
        <ele>420</ele>
        <time>2021-12-21T14:06:08.551Z</time>
      </trkpt>
      <trkpt lat="44.03054" lon="5.98091">
        <ele>420</ele>
        <time>2021-12-21T14:06:09.551Z</time>
      </trkpt>
      <trkpt lat="44.03054" lon="5.98091">
        <ele>420</ele>
        <time>2021-12-21T14:06:10.551Z</time>
      </trkpt>
      <trkpt lat="44.03054" lon="5.98092">
        <ele>420</ele>
        <time>2021-12-21T14:06:11.551Z</time>
      </trkpt>
      <trkpt lat="44.03054" lon="5.98092">
        <ele>420</ele>
        <time>2021-12-21T14:06:12.551Z</time>
      </trkpt>
      <trkpt lat="44.03054" lon="5.98092">
        <ele>420</ele>
        <time>2021-12-21T14:06:13.551Z</time>
      </trkpt>
      <trkpt lat="44.03054" lon="5.98092">
        <ele>420</ele>
        <time>2021-12-21T14:06:14.551Z</time>
      </trkpt>
      <trkpt lat="44.03054" lon="5.98092">
        <ele>420</ele>
        <time>2021-12-21T14:06:15.551Z</time>
      </trkpt>
      <trkpt lat="44.03054" lon="5.98092">
        <ele>420</ele>
        <time>2021-12-21T14:06:16.551Z</time>
      </trkpt>
      <trkpt lat="44.03055" lon="5.98092">
        <ele>420</ele>
        <time>2021-12-21T14:06:17.551Z</time>
      </trkpt>
      <trkpt lat="44.03055" lon="5.98091">
        <ele>420</ele>
        <time>2021-12-21T14:06:18.551Z</time>
      </trkpt>
      <trkpt lat="44.03055" lon="5.98091">
        <ele>420</ele>
        <time>2021-12-21T14:06:19.551Z</time>
      </trkpt>
      <trkpt lat="44.03055" lon="5.98091">
        <ele>420</ele>
        <time>2021-12-21T14:06:20.551Z</time>
      </trkpt>
      <trkpt lat="44.03055" lon="5.98091">
        <ele>420</ele>
        <time>2021-12-21T14:06:21.551Z</time>
      </trkpt>
      <trkpt lat="44.03055" lon="5.98091">
        <ele>420</ele>
        <time>2021-12-21T14:06:22.551Z</time>
      </trkpt>
      <trkpt lat="44.03056" lon="5.98091">
        <ele>420</ele>
        <time>2021-12-21T14:06:23.551Z</time>
      </trkpt>
      <trkpt lat="44.03056" lon="5.98091">
        <ele>420</ele>
        <time>2021-12-21T14:06:24.551Z</time>
      </trkpt>
      <trkpt lat="44.03056" lon="5.98091">
        <ele>420</ele>
        <time>2021-12-21T14:06:25.551Z</time>
      </trkpt>
      <trkpt lat="44.03056" lon="5.9809">
        <ele>420</ele>
        <time>2021-12-21T14:06:26.551Z</time>
      </trkpt>
      <trkpt lat="44.03056" lon="5.9809">
        <ele>420</ele>
        <time>2021-12-21T14:06:27.551Z</time>
      </trkpt>
      <trkpt lat="44.03056" lon="5.9809">
        <ele>420</ele>
        <time>2021-12-21T14:06:28.551Z</time>
      </trkpt>
      <trkpt lat="44.03056" lon="5.9809">
        <ele>420</ele>
        <time>2021-12-21T14:06:29.551Z</time>
      </trkpt>
      <trkpt lat="44.03056" lon="5.9809">
        <ele>420</ele>
        <time>2021-12-21T14:06:30.551Z</time>
      </trkpt>
      <trkpt lat="44.03056" lon="5.9809">
        <ele>420</ele>
        <time>2021-12-21T14:06:31.551Z</time>
      </trkpt>
      <trkpt lat="44.03056" lon="5.9809">
        <ele>420</ele>
        <time>2021-12-21T14:06:32.551Z</time>
      </trkpt>
      <trkpt lat="44.03055" lon="5.9809">
        <ele>421</ele>
        <time>2021-12-21T14:06:33.551Z</time>
      </trkpt>
      <trkpt lat="44.03055" lon="5.9809">
        <ele>421</ele>
        <time>2021-12-21T14:06:34.551Z</time>
      </trkpt>
      <trkpt lat="44.03055" lon="5.98089">
        <ele>421</ele>
        <time>2021-12-21T14:06:35.551Z</time>
      </trkpt>
      <trkpt lat="44.03055" lon="5.98088">
        <ele>421</ele>
        <time>2021-12-21T14:06:36.551Z</time>
      </trkpt>
      <trkpt lat="44.03055" lon="5.98087">
        <ele>421</ele>
        <time>2021-12-21T14:06:37.551Z</time>
      </trkpt>
      <trkpt lat="44.03054" lon="5.98085">
        <ele>421</ele>
        <time>2021-12-21T14:06:38.551Z</time>
      </trkpt>
      <trkpt lat="44.03054" lon="5.98084">
        <ele>421</ele>
        <time>2021-12-21T14:06:39.551Z</time>
      </trkpt>
      <trkpt lat="44.03053" lon="5.98083">
        <ele>421</ele>
        <time>2021-12-21T14:06:40.551Z</time>
      </trkpt>
      <trkpt lat="44.03053" lon="5.98081">
        <ele>421</ele>
        <time>2021-12-21T14:06:41.551Z</time>
      </trkpt>
      <trkpt lat="44.03052" lon="5.9808">
        <ele>420</ele>
        <time>2021-12-21T14:06:42.551Z</time>
      </trkpt>
      <trkpt lat="44.03051" lon="5.98078">
        <ele>420</ele>
        <time>2021-12-21T14:06:43.551Z</time>
      </trkpt>
      <trkpt lat="44.0305" lon="5.98076">
        <ele>420</ele>
        <time>2021-12-21T14:06:44.551Z</time>
      </trkpt>
      <trkpt lat="44.03049" lon="5.98075">
        <ele>420</ele>
        <time>2021-12-21T14:06:45.551Z</time>
      </trkpt>
      <trkpt lat="44.03049" lon="5.98073">
        <ele>420</ele>
        <time>2021-12-21T14:06:46.551Z</time>
      </trkpt>
      <trkpt lat="44.03048" lon="5.98071">
        <ele>420</ele>
        <time>2021-12-21T14:06:47.551Z</time>
      </trkpt>
      <trkpt lat="44.03047" lon="5.9807">
        <ele>420</ele>
        <time>2021-12-21T14:06:48.551Z</time>
      </trkpt>
      <trkpt lat="44.03046" lon="5.98068">
        <ele>420</ele>
        <time>2021-12-21T14:06:49.551Z</time>
      </trkpt>
      <trkpt lat="44.03046" lon="5.98067">
        <ele>420</ele>
        <time>2021-12-21T14:06:50.551Z</time>
      </trkpt>
      <trkpt lat="44.03045" lon="5.98065">
        <ele>420</ele>
        <time>2021-12-21T14:06:51.551Z</time>
      </trkpt>
      <trkpt lat="44.03044" lon="5.98063">
        <ele>420</ele>
        <time>2021-12-21T14:06:52.551Z</time>
      </trkpt>
      <trkpt lat="44.03043" lon="5.98062">
        <ele>420</ele>
        <time>2021-12-21T14:06:53.551Z</time>
      </trkpt>
      <trkpt lat="44.03042" lon="5.9806">
        <ele>420</ele>
        <time>2021-12-21T14:06:54.551Z</time>
      </trkpt>
      <trkpt lat="44.03041" lon="5.98059">
        <ele>420</ele>
        <time>2021-12-21T14:06:55.551Z</time>
      </trkpt>
      <trkpt lat="44.03041" lon="5.98057">
        <ele>420</ele>
        <time>2021-12-21T14:06:56.551Z</time>
      </trkpt>
      <trkpt lat="44.0304" lon="5.98055">
        <ele>420</ele>
        <time>2021-12-21T14:06:57.551Z</time>
      </trkpt>
      <trkpt lat="44.03039" lon="5.98054">
        <ele>420</ele>
        <time>2021-12-21T14:06:58.551Z</time>
      </trkpt>
      <trkpt lat="44.03038" lon="5.98052">
        <ele>420</ele>
        <time>2021-12-21T14:06:59.551Z</time>
      </trkpt>
      <trkpt lat="44.03037" lon="5.98051">
        <ele>420</ele>
        <time>2021-12-21T14:07:00.551Z</time>
      </trkpt>
      <trkpt lat="44.03036" lon="5.98049">
        <ele>419</ele>
        <time>2021-12-21T14:07:01.551Z</time>
      </trkpt>
      <trkpt lat="44.03035" lon="5.98048">
        <ele>419</ele>
        <time>2021-12-21T14:07:02.551Z</time>
      </trkpt>
      <trkpt lat="44.03034" lon="5.98046">
        <ele>419</ele>
        <time>2021-12-21T14:07:03.551Z</time>
      </trkpt>
      <trkpt lat="44.03033" lon="5.98045">
        <ele>419</ele>
        <time>2021-12-21T14:07:04.551Z</time>
      </trkpt>
      <trkpt lat="44.03032" lon="5.98043">
        <ele>419</ele>
        <time>2021-12-21T14:07:05.551Z</time>
      </trkpt>
      <trkpt lat="44.03032" lon="5.98042">
        <ele>418</ele>
        <time>2021-12-21T14:07:06.551Z</time>
      </trkpt>
      <trkpt lat="44.03031" lon="5.98041">
        <ele>418</ele>
        <time>2021-12-21T14:07:07.551Z</time>
      </trkpt>
      <trkpt lat="44.0303" lon="5.9804">
        <ele>418</ele>
        <time>2021-12-21T14:07:08.551Z</time>
      </trkpt>
      <trkpt lat="44.03029" lon="5.9804">
        <ele>418</ele>
        <time>2021-12-21T14:07:09.551Z</time>
      </trkpt>
      <trkpt lat="44.03029" lon="5.98039">
        <ele>418</ele>
        <time>2021-12-21T14:07:10.551Z</time>
      </trkpt>
      <trkpt lat="44.03029" lon="5.98038">
        <ele>417</ele>
        <time>2021-12-21T14:07:11.551Z</time>
      </trkpt>
      <trkpt lat="44.03028" lon="5.98037">
        <ele>417</ele>
        <time>2021-12-21T14:07:12.551Z</time>
      </trkpt>
      <trkpt lat="44.03028" lon="5.98036">
        <ele>417</ele>
        <time>2021-12-21T14:07:13.551Z</time>
      </trkpt>
      <trkpt lat="44.03028" lon="5.98034">
        <ele>416</ele>
        <time>2021-12-21T14:07:14.551Z</time>
      </trkpt>
      <trkpt lat="44.03028" lon="5.98032">
        <ele>416</ele>
        <time>2021-12-21T14:07:15.551Z</time>
      </trkpt>
      <trkpt lat="44.03027" lon="5.9803">
        <ele>415</ele>
        <time>2021-12-21T14:07:16.551Z</time>
      </trkpt>
      <trkpt lat="44.03027" lon="5.98029">
        <ele>415</ele>
        <time>2021-12-21T14:07:17.551Z</time>
      </trkpt>
      <trkpt lat="44.03026" lon="5.98027">
        <ele>414</ele>
        <time>2021-12-21T14:07:18.551Z</time>
      </trkpt>
      <trkpt lat="44.03026" lon="5.98025">
        <ele>414</ele>
        <time>2021-12-21T14:07:19.551Z</time>
      </trkpt>
      <trkpt lat="44.03025" lon="5.98023">
        <ele>414</ele>
        <time>2021-12-21T14:07:20.551Z</time>
      </trkpt>
      <trkpt lat="44.03024" lon="5.98022">
        <ele>413</ele>
        <time>2021-12-21T14:07:21.551Z</time>
      </trkpt>
      <trkpt lat="44.03023" lon="5.9802">
        <ele>413</ele>
        <time>2021-12-21T14:07:22.551Z</time>
      </trkpt>
      <trkpt lat="44.03023" lon="5.98019">
        <ele>412</ele>
        <time>2021-12-21T14:07:23.551Z</time>
      </trkpt>
      <trkpt lat="44.03022" lon="5.98019">
        <ele>412</ele>
        <time>2021-12-21T14:07:24.551Z</time>
      </trkpt>
      <trkpt lat="44.03022" lon="5.98018">
        <ele>412</ele>
        <time>2021-12-21T14:07:25.551Z</time>
      </trkpt>
      <trkpt lat="44.03022" lon="5.98018">
        <ele>412</ele>
        <time>2021-12-21T14:07:26.551Z</time>
      </trkpt>
      <trkpt lat="44.03022" lon="5.98018">
        <ele>411</ele>
        <time>2021-12-21T14:07:27.551Z</time>
      </trkpt>
      <trkpt lat="44.03023" lon="5.98018">
        <ele>411</ele>
        <time>2021-12-21T14:07:28.551Z</time>
      </trkpt>
      <trkpt lat="44.03023" lon="5.98018">
        <ele>411</ele>
        <time>2021-12-21T14:07:29.551Z</time>
      </trkpt>
      <trkpt lat="44.03023" lon="5.98018">
        <ele>410</ele>
        <time>2021-12-21T14:07:30.551Z</time>
      </trkpt>
      <trkpt lat="44.03023" lon="5.98017">
        <ele>410</ele>
        <time>2021-12-21T14:07:31.551Z</time>
      </trkpt>
      <trkpt lat="44.03023" lon="5.98017">
        <ele>410</ele>
        <time>2021-12-21T14:07:32.551Z</time>
      </trkpt>
      <trkpt lat="44.03023" lon="5.98017">
        <ele>410</ele>
        <time>2021-12-21T14:07:33.551Z</time>
      </trkpt>
      <trkpt lat="44.03023" lon="5.98017">
        <ele>410</ele>
        <time>2021-12-21T14:07:34.551Z</time>
      </trkpt>
      <trkpt lat="44.03023" lon="5.98017">
        <ele>409</ele>
        <time>2021-12-21T14:07:35.551Z</time>
      </trkpt>
      <trkpt lat="44.03023" lon="5.98017">
        <ele>409</ele>
        <time>2021-12-21T14:07:36.551Z</time>
      </trkpt>
      <trkpt lat="44.03023" lon="5.98017">
        <ele>409</ele>
        <time>2021-12-21T14:07:37.551Z</time>
      </trkpt>
      <trkpt lat="44.03023" lon="5.98017">
        <ele>409</ele>
        <time>2021-12-21T14:07:38.551Z</time>
      </trkpt>
      <trkpt lat="44.03024" lon="5.98016">
        <ele>408</ele>
        <time>2021-12-21T14:07:39.551Z</time>
      </trkpt>
      <trkpt lat="44.03024" lon="5.98016">
        <ele>408</ele>
        <time>2021-12-21T14:07:40.551Z</time>
      </trkpt>
      <trkpt lat="44.03024" lon="5.98016">
        <ele>408</ele>
        <time>2021-12-21T14:07:41.551Z</time>
      </trkpt>
      <trkpt lat="44.03024" lon="5.98016">
        <ele>408</ele>
        <time>2021-12-21T14:07:42.551Z</time>
      </trkpt>
      <trkpt lat="44.03024" lon="5.98016">
        <ele>408</ele>
        <time>2021-12-21T14:07:43.551Z</time>
      </trkpt>
      <trkpt lat="44.03024" lon="5.98016">
        <ele>408</ele>
        <time>2021-12-21T14:07:44.551Z</time>
      </trkpt>
      <trkpt lat="44.03025" lon="5.98016">
        <ele>408</ele>
        <time>2021-12-21T14:07:45.551Z</time>
      </trkpt>
      <trkpt lat="44.03025" lon="5.98016">
        <ele>408</ele>
        <time>2021-12-21T14:07:46.551Z</time>
      </trkpt>
      <trkpt lat="44.03025" lon="5.98016">
        <ele>408</ele>
        <time>2021-12-21T14:07:47.551Z</time>
      </trkpt>
      <trkpt lat="44.03025" lon="5.98016">
        <ele>408</ele>
        <time>2021-12-21T14:07:48.551Z</time>
      </trkpt>
      <trkpt lat="44.03025" lon="5.98016">
        <ele>408</ele>
        <time>2021-12-21T14:07:49.551Z</time>
      </trkpt>
      <trkpt lat="44.03025" lon="5.98016">
        <ele>408</ele>
        <time>2021-12-21T14:07:50.551Z</time>
      </trkpt>
      <trkpt lat="44.03025" lon="5.98016">
        <ele>408</ele>
        <time>2021-12-21T14:07:51.551Z</time>
      </trkpt>
      <trkpt lat="44.03026" lon="5.98016">
        <ele>408</ele>
        <time>2021-12-21T14:07:52.551Z</time>
      </trkpt>
      <trkpt lat="44.03026" lon="5.98016">
        <ele>408</ele>
        <time>2021-12-21T14:07:53.551Z</time>
      </trkpt>
      <trkpt lat="44.03026" lon="5.98016">
        <ele>409</ele>
        <time>2021-12-21T14:07:54.551Z</time>
      </trkpt>
      <trkpt lat="44.03026" lon="5.98016">
        <ele>409</ele>
        <time>2021-12-21T14:07:55.551Z</time>
      </trkpt>
      <trkpt lat="44.03026" lon="5.98016">
        <ele>409</ele>
        <time>2021-12-21T14:07:56.551Z</time>
      </trkpt>
      <trkpt lat="44.03026" lon="5.98016">
        <ele>409</ele>
        <time>2021-12-21T14:07:57.551Z</time>
      </trkpt>
      <trkpt lat="44.03027" lon="5.98016">
        <ele>409</ele>
        <time>2021-12-21T14:07:58.551Z</time>
      </trkpt>
      <trkpt lat="44.03027" lon="5.98016">
        <ele>409</ele>
        <time>2021-12-21T14:07:59.551Z</time>
      </trkpt>
      <trkpt lat="44.03027" lon="5.98016">
        <ele>409</ele>
        <time>2021-12-21T14:08:00.551Z</time>
      </trkpt>
      <trkpt lat="44.03027" lon="5.98016">
        <ele>409</ele>
        <time>2021-12-21T14:08:01.551Z</time>
      </trkpt>
      <trkpt lat="44.03028" lon="5.98016">
        <ele>410</ele>
        <time>2021-12-21T14:08:02.551Z</time>
      </trkpt>
      <trkpt lat="44.03028" lon="5.98016">
        <ele>410</ele>
        <time>2021-12-21T14:08:03.551Z</time>
      </trkpt>
      <trkpt lat="44.03028" lon="5.98017">
        <ele>410</ele>
        <time>2021-12-21T14:08:04.551Z</time>
      </trkpt>
      <trkpt lat="44.03028" lon="5.98017">
        <ele>410</ele>
        <time>2021-12-21T14:08:05.551Z</time>
      </trkpt>
      <trkpt lat="44.03029" lon="5.98017">
        <ele>410</ele>
        <time>2021-12-21T14:08:06.551Z</time>
      </trkpt>
      <trkpt lat="44.03029" lon="5.98017">
        <ele>410</ele>
        <time>2021-12-21T14:08:07.551Z</time>
      </trkpt>
      <trkpt lat="44.03029" lon="5.98017">
        <ele>411</ele>
        <time>2021-12-21T14:08:08.551Z</time>
      </trkpt>
      <trkpt lat="44.03029" lon="5.98017">
        <ele>411</ele>
        <time>2021-12-21T14:08:09.551Z</time>
      </trkpt>
      <trkpt lat="44.0303" lon="5.98016">
        <ele>411</ele>
        <time>2021-12-21T14:08:10.551Z</time>
      </trkpt>
      <trkpt lat="44.0303" lon="5.98016">
        <ele>411</ele>
        <time>2021-12-21T14:08:11.551Z</time>
      </trkpt>
      <trkpt lat="44.0303" lon="5.98017">
        <ele>411</ele>
        <time>2021-12-21T14:08:12.551Z</time>
      </trkpt>
      <trkpt lat="44.0303" lon="5.98017">
        <ele>411</ele>
        <time>2021-12-21T14:08:13.551Z</time>
      </trkpt>
      <trkpt lat="44.0303" lon="5.98017">
        <ele>411</ele>
        <time>2021-12-21T14:08:14.551Z</time>
      </trkpt>
      <trkpt lat="44.0303" lon="5.98017">
        <ele>412</ele>
        <time>2021-12-21T14:08:15.551Z</time>
      </trkpt>
      <trkpt lat="44.0303" lon="5.98016">
        <ele>412</ele>
        <time>2021-12-21T14:08:16.551Z</time>
      </trkpt>
      <trkpt lat="44.03029" lon="5.98016">
        <ele>412</ele>
        <time>2021-12-21T14:08:17.551Z</time>
      </trkpt>
      <trkpt lat="44.03029" lon="5.98014">
        <ele>412</ele>
        <time>2021-12-21T14:08:18.551Z</time>
      </trkpt>
      <trkpt lat="44.03028" lon="5.98013">
        <ele>412</ele>
        <time>2021-12-21T14:08:19.551Z</time>
      </trkpt>
      <trkpt lat="44.03027" lon="5.98012">
        <ele>412</ele>
        <time>2021-12-21T14:08:20.551Z</time>
      </trkpt>
      <trkpt lat="44.03026" lon="5.9801">
        <ele>412</ele>
        <time>2021-12-21T14:08:21.551Z</time>
      </trkpt>
      <trkpt lat="44.03026" lon="5.98008">
        <ele>413</ele>
        <time>2021-12-21T14:08:22.551Z</time>
      </trkpt>
      <trkpt lat="44.03026" lon="5.98007">
        <ele>413</ele>
        <time>2021-12-21T14:08:23.551Z</time>
      </trkpt>
      <trkpt lat="44.03025" lon="5.98005">
        <ele>413</ele>
        <time>2021-12-21T14:08:24.551Z</time>
      </trkpt>
      <trkpt lat="44.03025" lon="5.98004">
        <ele>413</ele>
        <time>2021-12-21T14:08:25.551Z</time>
      </trkpt>
      <trkpt lat="44.03024" lon="5.98002">
        <ele>413</ele>
        <time>2021-12-21T14:08:26.551Z</time>
      </trkpt>
      <trkpt lat="44.03024" lon="5.98001">
        <ele>413</ele>
        <time>2021-12-21T14:08:27.551Z</time>
      </trkpt>
      <trkpt lat="44.03024" lon="5.97999">
        <ele>414</ele>
        <time>2021-12-21T14:08:28.551Z</time>
      </trkpt>
      <trkpt lat="44.03024" lon="5.97997">
        <ele>414</ele>
        <time>2021-12-21T14:08:29.551Z</time>
      </trkpt>
      <trkpt lat="44.03024" lon="5.97996">
        <ele>414</ele>
        <time>2021-12-21T14:08:30.551Z</time>
      </trkpt>
      <trkpt lat="44.03024" lon="5.97994">
        <ele>414</ele>
        <time>2021-12-21T14:08:31.551Z</time>
      </trkpt>
      <trkpt lat="44.03024" lon="5.97993">
        <ele>414</ele>
        <time>2021-12-21T14:08:32.551Z</time>
      </trkpt>
      <trkpt lat="44.03024" lon="5.97991">
        <ele>414</ele>
        <time>2021-12-21T14:08:33.551Z</time>
      </trkpt>
      <trkpt lat="44.03024" lon="5.9799">
        <ele>414</ele>
        <time>2021-12-21T14:08:34.551Z</time>
      </trkpt>
      <trkpt lat="44.03024" lon="5.97988">
        <ele>414</ele>
        <time>2021-12-21T14:08:35.551Z</time>
      </trkpt>
      <trkpt lat="44.03024" lon="5.97986">
        <ele>414</ele>
        <time>2021-12-21T14:08:36.551Z</time>
      </trkpt>
      <trkpt lat="44.03024" lon="5.97985">
        <ele>414</ele>
        <time>2021-12-21T14:08:37.551Z</time>
      </trkpt>
      <trkpt lat="44.03023" lon="5.97983">
        <ele>414</ele>
        <time>2021-12-21T14:08:38.551Z</time>
      </trkpt>
      <trkpt lat="44.03023" lon="5.97982">
        <ele>414</ele>
        <time>2021-12-21T14:08:39.551Z</time>
      </trkpt>
      <trkpt lat="44.03023" lon="5.9798">
        <ele>415</ele>
        <time>2021-12-21T14:08:40.551Z</time>
      </trkpt>
      <trkpt lat="44.03023" lon="5.97978">
        <ele>415</ele>
        <time>2021-12-21T14:08:41.551Z</time>
      </trkpt>
      <trkpt lat="44.03022" lon="5.97977">
        <ele>415</ele>
        <time>2021-12-21T14:08:42.551Z</time>
      </trkpt>
      <trkpt lat="44.03022" lon="5.97975">
        <ele>415</ele>
        <time>2021-12-21T14:08:43.551Z</time>
      </trkpt>
      <trkpt lat="44.03022" lon="5.97974">
        <ele>415</ele>
        <time>2021-12-21T14:08:44.551Z</time>
      </trkpt>
      <trkpt lat="44.03022" lon="5.97973">
        <ele>416</ele>
        <time>2021-12-21T14:08:45.551Z</time>
      </trkpt>
      <trkpt lat="44.03021" lon="5.97972">
        <ele>416</ele>
        <time>2021-12-21T14:08:46.551Z</time>
      </trkpt>
      <trkpt lat="44.03021" lon="5.9797">
        <ele>416</ele>
        <time>2021-12-21T14:08:47.551Z</time>
      </trkpt>
      <trkpt lat="44.0302" lon="5.97969">
        <ele>416</ele>
        <time>2021-12-21T14:08:48.551Z</time>
      </trkpt>
      <trkpt lat="44.0302" lon="5.97967">
        <ele>417</ele>
        <time>2021-12-21T14:08:49.551Z</time>
      </trkpt>
      <trkpt lat="44.03019" lon="5.97966">
        <ele>417</ele>
        <time>2021-12-21T14:08:50.551Z</time>
      </trkpt>
      <trkpt lat="44.03019" lon="5.97964">
        <ele>417</ele>
        <time>2021-12-21T14:08:51.551Z</time>
      </trkpt>
      <trkpt lat="44.03018" lon="5.97963">
        <ele>417</ele>
        <time>2021-12-21T14:08:52.551Z</time>
      </trkpt>
      <trkpt lat="44.03018" lon="5.97961">
        <ele>417</ele>
        <time>2021-12-21T14:08:53.551Z</time>
      </trkpt>
      <trkpt lat="44.03018" lon="5.9796">
        <ele>417</ele>
        <time>2021-12-21T14:08:54.551Z</time>
      </trkpt>
      <trkpt lat="44.03018" lon="5.97958">
        <ele>417</ele>
        <time>2021-12-21T14:08:55.551Z</time>
      </trkpt>
      <trkpt lat="44.03018" lon="5.97957">
        <ele>417</ele>
        <time>2021-12-21T14:08:56.551Z</time>
      </trkpt>
      <trkpt lat="44.03018" lon="5.97957">
        <ele>417</ele>
        <time>2021-12-21T14:08:57.551Z</time>
      </trkpt>
      <trkpt lat="44.03018" lon="5.97957">
        <ele>417</ele>
        <time>2021-12-21T14:08:58.551Z</time>
      </trkpt>
      <trkpt lat="44.03018" lon="5.97958">
        <ele>417</ele>
        <time>2021-12-21T14:08:59.551Z</time>
      </trkpt>
      <trkpt lat="44.03019" lon="5.97957">
        <ele>417</ele>
        <time>2021-12-21T14:09:00.551Z</time>
      </trkpt>
      <trkpt lat="44.03018" lon="5.97957">
        <ele>417</ele>
        <time>2021-12-21T14:09:01.551Z</time>
      </trkpt>
      <trkpt lat="44.03018" lon="5.97957">
        <ele>417</ele>
        <time>2021-12-21T14:09:02.551Z</time>
      </trkpt>
      <trkpt lat="44.03018" lon="5.97957">
        <ele>417</ele>
        <time>2021-12-21T14:09:03.551Z</time>
      </trkpt>
      <trkpt lat="44.03018" lon="5.97958">
        <ele>417</ele>
        <time>2021-12-21T14:09:04.551Z</time>
      </trkpt>
      <trkpt lat="44.03018" lon="5.97958">
        <ele>417</ele>
        <time>2021-12-21T14:09:05.551Z</time>
      </trkpt>
      <trkpt lat="44.03018" lon="5.97958">
        <ele>417</ele>
        <time>2021-12-21T14:09:06.551Z</time>
      </trkpt>
      <trkpt lat="44.03018" lon="5.97958">
        <ele>417</ele>
        <time>2021-12-21T14:09:07.551Z</time>
      </trkpt>
      <trkpt lat="44.03018" lon="5.97958">
        <ele>417</ele>
        <time>2021-12-21T14:09:08.551Z</time>
      </trkpt>
      <trkpt lat="44.03018" lon="5.97958">
        <ele>417</ele>
        <time>2021-12-21T14:09:09.551Z</time>
      </trkpt>
      <trkpt lat="44.03018" lon="5.97958">
        <ele>417</ele>
        <time>2021-12-21T14:09:10.551Z</time>
      </trkpt>
      <trkpt lat="44.03018" lon="5.97959">
        <ele>417</ele>
        <time>2021-12-21T14:09:11.551Z</time>
      </trkpt>
      <trkpt lat="44.03018" lon="5.97959">
        <ele>417</ele>
        <time>2021-12-21T14:09:12.551Z</time>
      </trkpt>
      <trkpt lat="44.03018" lon="5.97959">
        <ele>417</ele>
        <time>2021-12-21T14:09:13.551Z</time>
      </trkpt>
      <trkpt lat="44.03018" lon="5.97958">
        <ele>417</ele>
        <time>2021-12-21T14:09:14.551Z</time>
      </trkpt>
      <trkpt lat="44.03017" lon="5.97957">
        <ele>417</ele>
        <time>2021-12-21T14:09:15.551Z</time>
      </trkpt>
      <trkpt lat="44.03016" lon="5.97956">
        <ele>417</ele>
        <time>2021-12-21T14:09:16.551Z</time>
      </trkpt>
      <trkpt lat="44.03015" lon="5.97955">
        <ele>417</ele>
        <time>2021-12-21T14:09:17.551Z</time>
      </trkpt>
      <trkpt lat="44.03015" lon="5.97954">
        <ele>417</ele>
        <time>2021-12-21T14:09:18.551Z</time>
      </trkpt>
      <trkpt lat="44.03014" lon="5.97953">
        <ele>417</ele>
        <time>2021-12-21T14:09:19.551Z</time>
      </trkpt>
      <trkpt lat="44.03013" lon="5.97952">
        <ele>417</ele>
        <time>2021-12-21T14:09:20.551Z</time>
      </trkpt>
      <trkpt lat="44.03013" lon="5.97952">
        <ele>417</ele>
        <time>2021-12-21T14:09:21.551Z</time>
      </trkpt>
      <trkpt lat="44.03013" lon="5.97952">
        <ele>417</ele>
        <time>2021-12-21T14:09:22.551Z</time>
      </trkpt>
      <trkpt lat="44.03013" lon="5.97953">
        <ele>417</ele>
        <time>2021-12-21T14:09:23.551Z</time>
      </trkpt>
      <trkpt lat="44.03013" lon="5.97953">
        <ele>418</ele>
        <time>2021-12-21T14:09:24.551Z</time>
      </trkpt>
      <trkpt lat="44.03013" lon="5.97954">
        <ele>418</ele>
        <time>2021-12-21T14:09:25.551Z</time>
      </trkpt>
      <trkpt lat="44.03013" lon="5.97954">
        <ele>418</ele>
        <time>2021-12-21T14:09:26.551Z</time>
      </trkpt>
      <trkpt lat="44.03013" lon="5.97954">
        <ele>418</ele>
        <time>2021-12-21T14:09:27.551Z</time>
      </trkpt>
      <trkpt lat="44.03013" lon="5.97954">
        <ele>418</ele>
        <time>2021-12-21T14:09:28.551Z</time>
      </trkpt>
      <trkpt lat="44.03012" lon="5.97954">
        <ele>418</ele>
        <time>2021-12-21T14:09:29.551Z</time>
      </trkpt>
      <trkpt lat="44.03012" lon="5.97955">
        <ele>418</ele>
        <time>2021-12-21T14:09:30.551Z</time>
      </trkpt>
      <trkpt lat="44.03012" lon="5.97955">
        <ele>418</ele>
        <time>2021-12-21T14:09:31.551Z</time>
      </trkpt>
      <trkpt lat="44.03011" lon="5.97955">
        <ele>418</ele>
        <time>2021-12-21T14:09:32.551Z</time>
      </trkpt>
      <trkpt lat="44.03011" lon="5.97955">
        <ele>418</ele>
        <time>2021-12-21T14:09:33.551Z</time>
      </trkpt>
      <trkpt lat="44.03011" lon="5.97955">
        <ele>418</ele>
        <time>2021-12-21T14:09:34.551Z</time>
      </trkpt>
      <trkpt lat="44.03011" lon="5.97955">
        <ele>418</ele>
        <time>2021-12-21T14:09:35.551Z</time>
      </trkpt>
      <trkpt lat="44.03011" lon="5.97956">
        <ele>418</ele>
        <time>2021-12-21T14:09:36.551Z</time>
      </trkpt>
      <trkpt lat="44.03011" lon="5.97956">
        <ele>418</ele>
        <time>2021-12-21T14:09:37.551Z</time>
      </trkpt>
      <trkpt lat="44.0301" lon="5.97956">
        <ele>419</ele>
        <time>2021-12-21T14:09:38.551Z</time>
      </trkpt>
      <trkpt lat="44.0301" lon="5.97956">
        <ele>419</ele>
        <time>2021-12-21T14:09:39.551Z</time>
      </trkpt>
      <trkpt lat="44.0301" lon="5.97956">
        <ele>419</ele>
        <time>2021-12-21T14:09:40.551Z</time>
      </trkpt>
      <trkpt lat="44.0301" lon="5.97956">
        <ele>419</ele>
        <time>2021-12-21T14:09:41.551Z</time>
      </trkpt>
      <trkpt lat="44.0301" lon="5.97956">
        <ele>419</ele>
        <time>2021-12-21T14:09:42.551Z</time>
      </trkpt>
      <trkpt lat="44.0301" lon="5.97956">
        <ele>419</ele>
        <time>2021-12-21T14:09:43.551Z</time>
      </trkpt>
      <trkpt lat="44.0301" lon="5.97956">
        <ele>419</ele>
        <time>2021-12-21T14:09:44.551Z</time>
      </trkpt>
      <trkpt lat="44.03009" lon="5.97956">
        <ele>420</ele>
        <time>2021-12-21T14:09:45.551Z</time>
      </trkpt>
      <trkpt lat="44.03009" lon="5.97955">
        <ele>420</ele>
        <time>2021-12-21T14:09:46.551Z</time>
      </trkpt>
      <trkpt lat="44.03008" lon="5.97954">
        <ele>420</ele>
        <time>2021-12-21T14:09:47.551Z</time>
      </trkpt>
      <trkpt lat="44.03008" lon="5.97954">
        <ele>420</ele>
        <time>2021-12-21T14:09:48.551Z</time>
      </trkpt>
      <trkpt lat="44.03008" lon="5.97952">
        <ele>420</ele>
        <time>2021-12-21T14:09:49.551Z</time>
      </trkpt>
      <trkpt lat="44.03008" lon="5.97951">
        <ele>420</ele>
        <time>2021-12-21T14:09:50.551Z</time>
      </trkpt>
      <trkpt lat="44.03008" lon="5.9795">
        <ele>420</ele>
        <time>2021-12-21T14:09:51.551Z</time>
      </trkpt>
      <trkpt lat="44.03008" lon="5.97949">
        <ele>420</ele>
        <time>2021-12-21T14:09:52.551Z</time>
      </trkpt>
      <trkpt lat="44.03007" lon="5.97948">
        <ele>421</ele>
        <time>2021-12-21T14:09:53.551Z</time>
      </trkpt>
      <trkpt lat="44.03007" lon="5.97947">
        <ele>421</ele>
        <time>2021-12-21T14:09:54.551Z</time>
      </trkpt>
      <trkpt lat="44.03007" lon="5.97946">
        <ele>421</ele>
        <time>2021-12-21T14:09:55.551Z</time>
      </trkpt>
      <trkpt lat="44.03006" lon="5.97944">
        <ele>422</ele>
        <time>2021-12-21T14:09:56.551Z</time>
      </trkpt>
      <trkpt lat="44.03006" lon="5.97942">
        <ele>422</ele>
        <time>2021-12-21T14:09:57.551Z</time>
      </trkpt>
      <trkpt lat="44.03006" lon="5.9794">
        <ele>422</ele>
        <time>2021-12-21T14:09:58.551Z</time>
      </trkpt>
      <trkpt lat="44.03005" lon="5.97938">
        <ele>422</ele>
        <time>2021-12-21T14:09:59.551Z</time>
      </trkpt>
      <trkpt lat="44.03005" lon="5.97936">
        <ele>422</ele>
        <time>2021-12-21T14:10:00.551Z</time>
      </trkpt>
      <trkpt lat="44.03005" lon="5.97935">
        <ele>422</ele>
        <time>2021-12-21T14:10:01.551Z</time>
      </trkpt>
      <trkpt lat="44.03004" lon="5.97933">
        <ele>422</ele>
        <time>2021-12-21T14:10:02.551Z</time>
      </trkpt>
      <trkpt lat="44.03004" lon="5.97931">
        <ele>422</ele>
        <time>2021-12-21T14:10:03.551Z</time>
      </trkpt>
      <trkpt lat="44.03003" lon="5.97929">
        <ele>421</ele>
        <time>2021-12-21T14:10:04.551Z</time>
      </trkpt>
      <trkpt lat="44.03003" lon="5.97927">
        <ele>421</ele>
        <time>2021-12-21T14:10:05.551Z</time>
      </trkpt>
      <trkpt lat="44.03003" lon="5.97925">
        <ele>421</ele>
        <time>2021-12-21T14:10:06.551Z</time>
      </trkpt>
      <trkpt lat="44.03002" lon="5.97923">
        <ele>421</ele>
        <time>2021-12-21T14:10:07.551Z</time>
      </trkpt>
      <trkpt lat="44.03002" lon="5.97921">
        <ele>421</ele>
        <time>2021-12-21T14:10:08.551Z</time>
      </trkpt>
      <trkpt lat="44.03002" lon="5.97919">
        <ele>421</ele>
        <time>2021-12-21T14:10:09.551Z</time>
      </trkpt>
      <trkpt lat="44.03001" lon="5.97917">
        <ele>420</ele>
        <time>2021-12-21T14:10:10.551Z</time>
      </trkpt>
      <trkpt lat="44.03001" lon="5.97916">
        <ele>420</ele>
        <time>2021-12-21T14:10:11.551Z</time>
      </trkpt>
      <trkpt lat="44.03" lon="5.97914">
        <ele>420</ele>
        <time>2021-12-21T14:10:12.551Z</time>
      </trkpt>
      <trkpt lat="44.03" lon="5.97913">
        <ele>420</ele>
        <time>2021-12-21T14:10:13.551Z</time>
      </trkpt>
      <trkpt lat="44.03" lon="5.97911">
        <ele>420</ele>
        <time>2021-12-21T14:10:14.551Z</time>
      </trkpt>
      <trkpt lat="44.03" lon="5.9791">
        <ele>420</ele>
        <time>2021-12-21T14:10:15.551Z</time>
      </trkpt>
      <trkpt lat="44.02999" lon="5.97908">
        <ele>420</ele>
        <time>2021-12-21T14:10:16.551Z</time>
      </trkpt>
      <trkpt lat="44.02999" lon="5.97906">
        <ele>420</ele>
        <time>2021-12-21T14:10:17.551Z</time>
      </trkpt>
      <trkpt lat="44.02999" lon="5.97905">
        <ele>420</ele>
        <time>2021-12-21T14:10:18.551Z</time>
      </trkpt>
      <trkpt lat="44.02998" lon="5.97904">
        <ele>420</ele>
        <time>2021-12-21T14:10:19.551Z</time>
      </trkpt>
      <trkpt lat="44.02998" lon="5.97902">
        <ele>420</ele>
        <time>2021-12-21T14:10:20.551Z</time>
      </trkpt>
      <trkpt lat="44.02997" lon="5.97901">
        <ele>420</ele>
        <time>2021-12-21T14:10:21.551Z</time>
      </trkpt>
      <trkpt lat="44.02997" lon="5.97899">
        <ele>421</ele>
        <time>2021-12-21T14:10:22.551Z</time>
      </trkpt>
      <trkpt lat="44.02996" lon="5.97898">
        <ele>421</ele>
        <time>2021-12-21T14:10:23.551Z</time>
      </trkpt>
      <trkpt lat="44.02995" lon="5.97897">
        <ele>421</ele>
        <time>2021-12-21T14:10:24.551Z</time>
      </trkpt>
      <trkpt lat="44.02995" lon="5.97896">
        <ele>421</ele>
        <time>2021-12-21T14:10:25.551Z</time>
      </trkpt>
      <trkpt lat="44.02994" lon="5.97895">
        <ele>421</ele>
        <time>2021-12-21T14:10:26.551Z</time>
      </trkpt>
      <trkpt lat="44.02993" lon="5.97894">
        <ele>421</ele>
        <time>2021-12-21T14:10:27.551Z</time>
      </trkpt>
      <trkpt lat="44.02993" lon="5.97893">
        <ele>421</ele>
        <time>2021-12-21T14:10:28.551Z</time>
      </trkpt>
      <trkpt lat="44.02992" lon="5.97892">
        <ele>421</ele>
        <time>2021-12-21T14:10:29.551Z</time>
      </trkpt>
      <trkpt lat="44.02991" lon="5.97891">
        <ele>421</ele>
        <time>2021-12-21T14:10:30.551Z</time>
      </trkpt>
      <trkpt lat="44.02991" lon="5.9789">
        <ele>422</ele>
        <time>2021-12-21T14:10:31.551Z</time>
      </trkpt>
      <trkpt lat="44.0299" lon="5.97889">
        <ele>422</ele>
        <time>2021-12-21T14:10:32.551Z</time>
      </trkpt>
      <trkpt lat="44.02989" lon="5.97888">
        <ele>422</ele>
        <time>2021-12-21T14:10:33.551Z</time>
      </trkpt>
      <trkpt lat="44.02988" lon="5.97887">
        <ele>422</ele>
        <time>2021-12-21T14:10:34.551Z</time>
      </trkpt>
      <trkpt lat="44.02988" lon="5.97886">
        <ele>422</ele>
        <time>2021-12-21T14:10:35.551Z</time>
      </trkpt>
      <trkpt lat="44.02987" lon="5.97885">
        <ele>422</ele>
        <time>2021-12-21T14:10:36.551Z</time>
      </trkpt>
      <trkpt lat="44.02986" lon="5.97884">
        <ele>422</ele>
        <time>2021-12-21T14:10:37.551Z</time>
      </trkpt>
      <trkpt lat="44.02986" lon="5.97884">
        <ele>422</ele>
        <time>2021-12-21T14:10:38.551Z</time>
      </trkpt>
      <trkpt lat="44.02986" lon="5.97883">
        <ele>422</ele>
        <time>2021-12-21T14:10:39.551Z</time>
      </trkpt>
      <trkpt lat="44.02985" lon="5.97882">
        <ele>422</ele>
        <time>2021-12-21T14:10:40.551Z</time>
      </trkpt>
      <trkpt lat="44.02985" lon="5.97882">
        <ele>422</ele>
        <time>2021-12-21T14:10:41.551Z</time>
      </trkpt>
      <trkpt lat="44.02984" lon="5.97881">
        <ele>423</ele>
        <time>2021-12-21T14:10:42.551Z</time>
      </trkpt>
      <trkpt lat="44.02984" lon="5.97881">
        <ele>423</ele>
        <time>2021-12-21T14:10:43.551Z</time>
      </trkpt>
      <trkpt lat="44.02984" lon="5.9788">
        <ele>423</ele>
        <time>2021-12-21T14:10:44.551Z</time>
      </trkpt>
      <trkpt lat="44.02983" lon="5.97879">
        <ele>423</ele>
        <time>2021-12-21T14:10:45.551Z</time>
      </trkpt>
      <trkpt lat="44.02983" lon="5.97878">
        <ele>423</ele>
        <time>2021-12-21T14:10:46.551Z</time>
      </trkpt>
      <trkpt lat="44.02983" lon="5.97877">
        <ele>423</ele>
        <time>2021-12-21T14:10:47.551Z</time>
      </trkpt>
      <trkpt lat="44.02982" lon="5.97876">
        <ele>423</ele>
        <time>2021-12-21T14:10:48.551Z</time>
      </trkpt>
      <trkpt lat="44.02981" lon="5.97875">
        <ele>423</ele>
        <time>2021-12-21T14:10:49.551Z</time>
      </trkpt>
      <trkpt lat="44.0298" lon="5.97874">
        <ele>423</ele>
        <time>2021-12-21T14:10:50.551Z</time>
      </trkpt>
      <trkpt lat="44.02979" lon="5.97873">
        <ele>423</ele>
        <time>2021-12-21T14:10:51.551Z</time>
      </trkpt>
      <trkpt lat="44.02977" lon="5.97872">
        <ele>423</ele>
        <time>2021-12-21T14:10:52.551Z</time>
      </trkpt>
      <trkpt lat="44.02975" lon="5.97871">
        <ele>423</ele>
        <time>2021-12-21T14:10:53.551Z</time>
      </trkpt>
      <trkpt lat="44.02974" lon="5.9787">
        <ele>423</ele>
        <time>2021-12-21T14:10:54.551Z</time>
      </trkpt>
      <trkpt lat="44.02972" lon="5.97869">
        <ele>422</ele>
        <time>2021-12-21T14:10:55.551Z</time>
      </trkpt>
      <trkpt lat="44.02971" lon="5.97868">
        <ele>422</ele>
        <time>2021-12-21T14:10:56.551Z</time>
      </trkpt>
      <trkpt lat="44.02969" lon="5.97867">
        <ele>422</ele>
        <time>2021-12-21T14:10:57.551Z</time>
      </trkpt>
      <trkpt lat="44.02968" lon="5.97866">
        <ele>422</ele>
        <time>2021-12-21T14:10:58.551Z</time>
      </trkpt>
      <trkpt lat="44.02966" lon="5.97865">
        <ele>422</ele>
        <time>2021-12-21T14:10:59.551Z</time>
      </trkpt>
      <trkpt lat="44.02965" lon="5.97863">
        <ele>422</ele>
        <time>2021-12-21T14:11:00.551Z</time>
      </trkpt>
      <trkpt lat="44.02963" lon="5.97862">
        <ele>421</ele>
        <time>2021-12-21T14:11:01.551Z</time>
      </trkpt>
      <trkpt lat="44.02963" lon="5.9786">
        <ele>421</ele>
        <time>2021-12-21T14:11:02.551Z</time>
      </trkpt>
      <trkpt lat="44.02962" lon="5.97859">
        <ele>421</ele>
        <time>2021-12-21T14:11:03.551Z</time>
      </trkpt>
      <trkpt lat="44.02961" lon="5.97857">
        <ele>421</ele>
        <time>2021-12-21T14:11:04.551Z</time>
      </trkpt>
      <trkpt lat="44.02961" lon="5.97855">
        <ele>420</ele>
        <time>2021-12-21T14:11:05.551Z</time>
      </trkpt>
      <trkpt lat="44.0296" lon="5.97854">
        <ele>420</ele>
        <time>2021-12-21T14:11:06.551Z</time>
      </trkpt>
      <trkpt lat="44.0296" lon="5.97852">
        <ele>420</ele>
        <time>2021-12-21T14:11:07.551Z</time>
      </trkpt>
      <trkpt lat="44.0296" lon="5.9785">
        <ele>420</ele>
        <time>2021-12-21T14:11:08.551Z</time>
      </trkpt>
      <trkpt lat="44.0296" lon="5.97849">
        <ele>420</ele>
        <time>2021-12-21T14:11:09.551Z</time>
      </trkpt>
      <trkpt lat="44.0296" lon="5.97847">
        <ele>420</ele>
        <time>2021-12-21T14:11:10.551Z</time>
      </trkpt>
      <trkpt lat="44.0296" lon="5.97845">
        <ele>420</ele>
        <time>2021-12-21T14:11:11.551Z</time>
      </trkpt>
      <trkpt lat="44.0296" lon="5.97843">
        <ele>420</ele>
        <time>2021-12-21T14:11:12.551Z</time>
      </trkpt>
      <trkpt lat="44.02959" lon="5.9784">
        <ele>420</ele>
        <time>2021-12-21T14:11:13.551Z</time>
      </trkpt>
      <trkpt lat="44.02959" lon="5.97838">
        <ele>420</ele>
        <time>2021-12-21T14:11:14.551Z</time>
      </trkpt>
      <trkpt lat="44.02959" lon="5.97836">
        <ele>420</ele>
        <time>2021-12-21T14:11:15.551Z</time>
      </trkpt>
      <trkpt lat="44.02959" lon="5.97834">
        <ele>420</ele>
        <time>2021-12-21T14:11:16.551Z</time>
      </trkpt>
      <trkpt lat="44.0296" lon="5.97832">
        <ele>420</ele>
        <time>2021-12-21T14:11:17.551Z</time>
      </trkpt>
      <trkpt lat="44.0296" lon="5.9783">
        <ele>420</ele>
        <time>2021-12-21T14:11:18.551Z</time>
      </trkpt>
      <trkpt lat="44.0296" lon="5.97828">
        <ele>420</ele>
        <time>2021-12-21T14:11:19.551Z</time>
      </trkpt>
      <trkpt lat="44.0296" lon="5.97827">
        <ele>420</ele>
        <time>2021-12-21T14:11:20.551Z</time>
      </trkpt>
      <trkpt lat="44.0296" lon="5.97825">
        <ele>420</ele>
        <time>2021-12-21T14:11:21.551Z</time>
      </trkpt>
      <trkpt lat="44.02959" lon="5.97824">
        <ele>420</ele>
        <time>2021-12-21T14:11:22.551Z</time>
      </trkpt>
      <trkpt lat="44.02959" lon="5.97822">
        <ele>420</ele>
        <time>2021-12-21T14:11:23.551Z</time>
      </trkpt>
      <trkpt lat="44.02959" lon="5.97821">
        <ele>420</ele>
        <time>2021-12-21T14:11:24.551Z</time>
      </trkpt>
      <trkpt lat="44.02959" lon="5.9782">
        <ele>420</ele>
        <time>2021-12-21T14:11:25.551Z</time>
      </trkpt>
      <trkpt lat="44.02958" lon="5.97818">
        <ele>421</ele>
        <time>2021-12-21T14:11:26.551Z</time>
      </trkpt>
      <trkpt lat="44.02957" lon="5.97817">
        <ele>421</ele>
        <time>2021-12-21T14:11:27.551Z</time>
      </trkpt>
      <trkpt lat="44.02957" lon="5.97816">
        <ele>421</ele>
        <time>2021-12-21T14:11:28.551Z</time>
      </trkpt>
      <trkpt lat="44.02956" lon="5.97816">
        <ele>421</ele>
        <time>2021-12-21T14:11:29.551Z</time>
      </trkpt>
      <trkpt lat="44.02955" lon="5.97815">
        <ele>421</ele>
        <time>2021-12-21T14:11:30.551Z</time>
      </trkpt>
      <trkpt lat="44.02954" lon="5.97814">
        <ele>421</ele>
        <time>2021-12-21T14:11:31.551Z</time>
      </trkpt>
      <trkpt lat="44.02954" lon="5.97813">
        <ele>421</ele>
        <time>2021-12-21T14:11:32.551Z</time>
      </trkpt>
      <trkpt lat="44.02953" lon="5.97813">
        <ele>421</ele>
        <time>2021-12-21T14:11:33.551Z</time>
      </trkpt>
      <trkpt lat="44.02953" lon="5.97812">
        <ele>421</ele>
        <time>2021-12-21T14:11:34.551Z</time>
      </trkpt>
      <trkpt lat="44.02952" lon="5.97811">
        <ele>421</ele>
        <time>2021-12-21T14:11:35.551Z</time>
      </trkpt>
      <trkpt lat="44.02952" lon="5.97811">
        <ele>422</ele>
        <time>2021-12-21T14:11:36.551Z</time>
      </trkpt>
      <trkpt lat="44.02951" lon="5.9781">
        <ele>422</ele>
        <time>2021-12-21T14:11:37.551Z</time>
      </trkpt>
      <trkpt lat="44.0295" lon="5.9781">
        <ele>422</ele>
        <time>2021-12-21T14:11:38.551Z</time>
      </trkpt>
      <trkpt lat="44.0295" lon="5.9781">
        <ele>422</ele>
        <time>2021-12-21T14:11:39.551Z</time>
      </trkpt>
      <trkpt lat="44.02949" lon="5.9781">
        <ele>422</ele>
        <time>2021-12-21T14:11:40.551Z</time>
      </trkpt>
      <trkpt lat="44.02948" lon="5.9781">
        <ele>423</ele>
        <time>2021-12-21T14:11:41.551Z</time>
      </trkpt>
      <trkpt lat="44.02947" lon="5.9781">
        <ele>423</ele>
        <time>2021-12-21T14:11:42.551Z</time>
      </trkpt>
      <trkpt lat="44.02946" lon="5.97809">
        <ele>423</ele>
        <time>2021-12-21T14:11:43.551Z</time>
      </trkpt>
      <trkpt lat="44.02946" lon="5.97809">
        <ele>423</ele>
        <time>2021-12-21T14:11:44.551Z</time>
      </trkpt>
      <trkpt lat="44.02945" lon="5.97809">
        <ele>423</ele>
        <time>2021-12-21T14:11:45.551Z</time>
      </trkpt>
      <trkpt lat="44.02944" lon="5.97808">
        <ele>424</ele>
        <time>2021-12-21T14:11:46.551Z</time>
      </trkpt>
      <trkpt lat="44.02943" lon="5.97807">
        <ele>424</ele>
        <time>2021-12-21T14:11:47.551Z</time>
      </trkpt>
      <trkpt lat="44.02942" lon="5.97806">
        <ele>424</ele>
        <time>2021-12-21T14:11:48.551Z</time>
      </trkpt>
      <trkpt lat="44.02941" lon="5.97806">
        <ele>424</ele>
        <time>2021-12-21T14:11:49.551Z</time>
      </trkpt>
      <trkpt lat="44.0294" lon="5.97805">
        <ele>424</ele>
        <time>2021-12-21T14:11:50.551Z</time>
      </trkpt>
      <trkpt lat="44.02938" lon="5.97805">
        <ele>425</ele>
        <time>2021-12-21T14:11:51.551Z</time>
      </trkpt>
      <trkpt lat="44.02937" lon="5.97804">
        <ele>425</ele>
        <time>2021-12-21T14:11:52.551Z</time>
      </trkpt>
      <trkpt lat="44.02936" lon="5.97804">
        <ele>425</ele>
        <time>2021-12-21T14:11:53.551Z</time>
      </trkpt>
      <trkpt lat="44.02935" lon="5.97804">
        <ele>425</ele>
        <time>2021-12-21T14:11:54.551Z</time>
      </trkpt>
      <trkpt lat="44.02934" lon="5.97805">
        <ele>425</ele>
        <time>2021-12-21T14:11:55.551Z</time>
      </trkpt>
      <trkpt lat="44.02933" lon="5.97805">
        <ele>425</ele>
        <time>2021-12-21T14:11:56.551Z</time>
      </trkpt>
      <trkpt lat="44.02932" lon="5.97805">
        <ele>425</ele>
        <time>2021-12-21T14:11:57.551Z</time>
      </trkpt>
      <trkpt lat="44.0293" lon="5.97805">
        <ele>426</ele>
        <time>2021-12-21T14:11:58.551Z</time>
      </trkpt>
      <trkpt lat="44.02929" lon="5.97805">
        <ele>426</ele>
        <time>2021-12-21T14:11:59.551Z</time>
      </trkpt>
      <trkpt lat="44.02928" lon="5.97805">
        <ele>426</ele>
        <time>2021-12-21T14:12:00.551Z</time>
      </trkpt>
      <trkpt lat="44.02927" lon="5.97804">
        <ele>426</ele>
        <time>2021-12-21T14:12:01.551Z</time>
      </trkpt>
      <trkpt lat="44.02925" lon="5.97804">
        <ele>426</ele>
        <time>2021-12-21T14:12:02.551Z</time>
      </trkpt>
      <trkpt lat="44.02924" lon="5.97803">
        <ele>426</ele>
        <time>2021-12-21T14:12:03.551Z</time>
      </trkpt>
      <trkpt lat="44.02923" lon="5.97803">
        <ele>426</ele>
        <time>2021-12-21T14:12:04.551Z</time>
      </trkpt>
      <trkpt lat="44.02922" lon="5.97803">
        <ele>426</ele>
        <time>2021-12-21T14:12:05.551Z</time>
      </trkpt>
      <trkpt lat="44.02921" lon="5.97802">
        <ele>426</ele>
        <time>2021-12-21T14:12:06.551Z</time>
      </trkpt>
      <trkpt lat="44.0292" lon="5.97801">
        <ele>426</ele>
        <time>2021-12-21T14:12:07.551Z</time>
      </trkpt>
      <trkpt lat="44.02919" lon="5.97801">
        <ele>426</ele>
        <time>2021-12-21T14:12:08.551Z</time>
      </trkpt>
      <trkpt lat="44.02918" lon="5.97799">
        <ele>426</ele>
        <time>2021-12-21T14:12:09.551Z</time>
      </trkpt>
      <trkpt lat="44.02917" lon="5.97798">
        <ele>426</ele>
        <time>2021-12-21T14:12:10.551Z</time>
      </trkpt>
      <trkpt lat="44.02916" lon="5.97797">
        <ele>426</ele>
        <time>2021-12-21T14:12:11.551Z</time>
      </trkpt>
      <trkpt lat="44.02915" lon="5.97796">
        <ele>426</ele>
        <time>2021-12-21T14:12:12.551Z</time>
      </trkpt>
      <trkpt lat="44.02914" lon="5.97795">
        <ele>426</ele>
        <time>2021-12-21T14:12:13.551Z</time>
      </trkpt>
      <trkpt lat="44.02913" lon="5.97794">
        <ele>426</ele>
        <time>2021-12-21T14:12:14.551Z</time>
      </trkpt>
      <trkpt lat="44.02912" lon="5.97793">
        <ele>426</ele>
        <time>2021-12-21T14:12:15.551Z</time>
      </trkpt>
      <trkpt lat="44.02911" lon="5.97792">
        <ele>426</ele>
        <time>2021-12-21T14:12:16.551Z</time>
      </trkpt>
      <trkpt lat="44.02911" lon="5.97791">
        <ele>426</ele>
        <time>2021-12-21T14:12:17.551Z</time>
      </trkpt>
      <trkpt lat="44.0291" lon="5.97791">
        <ele>426</ele>
        <time>2021-12-21T14:12:18.551Z</time>
      </trkpt>
      <trkpt lat="44.02909" lon="5.97791">
        <ele>426</ele>
        <time>2021-12-21T14:12:19.551Z</time>
      </trkpt>
      <trkpt lat="44.02909" lon="5.97791">
        <ele>426</ele>
        <time>2021-12-21T14:12:20.551Z</time>
      </trkpt>
      <trkpt lat="44.02908" lon="5.9779">
        <ele>426</ele>
        <time>2021-12-21T14:12:21.551Z</time>
      </trkpt>
      <trkpt lat="44.02907" lon="5.9779">
        <ele>427</ele>
        <time>2021-12-21T14:12:22.551Z</time>
      </trkpt>
      <trkpt lat="44.02907" lon="5.97789">
        <ele>427</ele>
        <time>2021-12-21T14:12:23.551Z</time>
      </trkpt>
      <trkpt lat="44.02906" lon="5.97789">
        <ele>427</ele>
        <time>2021-12-21T14:12:24.551Z</time>
      </trkpt>
      <trkpt lat="44.02905" lon="5.97788">
        <ele>427</ele>
        <time>2021-12-21T14:12:25.551Z</time>
      </trkpt>
      <trkpt lat="44.02904" lon="5.97787">
        <ele>427</ele>
        <time>2021-12-21T14:12:26.551Z</time>
      </trkpt>
      <trkpt lat="44.02903" lon="5.97787">
        <ele>427</ele>
        <time>2021-12-21T14:12:27.551Z</time>
      </trkpt>
      <trkpt lat="44.02901" lon="5.97786">
        <ele>427</ele>
        <time>2021-12-21T14:12:28.551Z</time>
      </trkpt>
      <trkpt lat="44.029" lon="5.97785">
        <ele>427</ele>
        <time>2021-12-21T14:12:29.551Z</time>
      </trkpt>
      <trkpt lat="44.02899" lon="5.97784">
        <ele>427</ele>
        <time>2021-12-21T14:12:30.551Z</time>
      </trkpt>
      <trkpt lat="44.02898" lon="5.97783">
        <ele>427</ele>
        <time>2021-12-21T14:12:31.551Z</time>
      </trkpt>
      <trkpt lat="44.02897" lon="5.97783">
        <ele>427</ele>
        <time>2021-12-21T14:12:32.551Z</time>
      </trkpt>
      <trkpt lat="44.02896" lon="5.97782">
        <ele>427</ele>
        <time>2021-12-21T14:12:33.551Z</time>
      </trkpt>
      <trkpt lat="44.02895" lon="5.97781">
        <ele>427</ele>
        <time>2021-12-21T14:12:34.551Z</time>
      </trkpt>
      <trkpt lat="44.02894" lon="5.9778">
        <ele>427</ele>
        <time>2021-12-21T14:12:35.551Z</time>
      </trkpt>
      <trkpt lat="44.02893" lon="5.97779">
        <ele>427</ele>
        <time>2021-12-21T14:12:36.551Z</time>
      </trkpt>
      <trkpt lat="44.02892" lon="5.97778">
        <ele>428</ele>
        <time>2021-12-21T14:12:37.551Z</time>
      </trkpt>
      <trkpt lat="44.02891" lon="5.97778">
        <ele>428</ele>
        <time>2021-12-21T14:12:38.551Z</time>
      </trkpt>
      <trkpt lat="44.02891" lon="5.97777">
        <ele>428</ele>
        <time>2021-12-21T14:12:39.551Z</time>
      </trkpt>
      <trkpt lat="44.0289" lon="5.97776">
        <ele>428</ele>
        <time>2021-12-21T14:12:40.551Z</time>
      </trkpt>
      <trkpt lat="44.02889" lon="5.97776">
        <ele>428</ele>
        <time>2021-12-21T14:12:41.551Z</time>
      </trkpt>
      <trkpt lat="44.02889" lon="5.97776">
        <ele>428</ele>
        <time>2021-12-21T14:12:42.551Z</time>
      </trkpt>
      <trkpt lat="44.02888" lon="5.97776">
        <ele>428</ele>
        <time>2021-12-21T14:12:43.551Z</time>
      </trkpt>
      <trkpt lat="44.02888" lon="5.97775">
        <ele>428</ele>
        <time>2021-12-21T14:12:44.551Z</time>
      </trkpt>
      <trkpt lat="44.02888" lon="5.97775">
        <ele>428</ele>
        <time>2021-12-21T14:12:45.551Z</time>
      </trkpt>
      <trkpt lat="44.02888" lon="5.97775">
        <ele>428</ele>
        <time>2021-12-21T14:12:46.551Z</time>
      </trkpt>
      <trkpt lat="44.02887" lon="5.97775">
        <ele>429</ele>
        <time>2021-12-21T14:12:47.551Z</time>
      </trkpt>
      <trkpt lat="44.02887" lon="5.97775">
        <ele>429</ele>
        <time>2021-12-21T14:12:48.551Z</time>
      </trkpt>
      <trkpt lat="44.02886" lon="5.97774">
        <ele>429</ele>
        <time>2021-12-21T14:12:49.551Z</time>
      </trkpt>
      <trkpt lat="44.02885" lon="5.97773">
        <ele>429</ele>
        <time>2021-12-21T14:12:50.551Z</time>
      </trkpt>
      <trkpt lat="44.02885" lon="5.97772">
        <ele>429</ele>
        <time>2021-12-21T14:12:51.551Z</time>
      </trkpt>
      <trkpt lat="44.02884" lon="5.97771">
        <ele>429</ele>
        <time>2021-12-21T14:12:52.551Z</time>
      </trkpt>
      <trkpt lat="44.02883" lon="5.97771">
        <ele>429</ele>
        <time>2021-12-21T14:12:53.551Z</time>
      </trkpt>
      <trkpt lat="44.02882" lon="5.9777">
        <ele>429</ele>
        <time>2021-12-21T14:12:54.551Z</time>
      </trkpt>
      <trkpt lat="44.02881" lon="5.97769">
        <ele>429</ele>
        <time>2021-12-21T14:12:55.551Z</time>
      </trkpt>
      <trkpt lat="44.0288" lon="5.97768">
        <ele>429</ele>
        <time>2021-12-21T14:12:56.551Z</time>
      </trkpt>
      <trkpt lat="44.02879" lon="5.97767">
        <ele>429</ele>
        <time>2021-12-21T14:12:57.551Z</time>
      </trkpt>
      <trkpt lat="44.02878" lon="5.97767">
        <ele>429</ele>
        <time>2021-12-21T14:12:58.551Z</time>
      </trkpt>
      <trkpt lat="44.02877" lon="5.97766">
        <ele>429</ele>
        <time>2021-12-21T14:12:59.551Z</time>
      </trkpt>
      <trkpt lat="44.02876" lon="5.97766">
        <ele>429</ele>
        <time>2021-12-21T14:13:00.551Z</time>
      </trkpt>
      <trkpt lat="44.02875" lon="5.97766">
        <ele>429</ele>
        <time>2021-12-21T14:13:01.551Z</time>
      </trkpt>
      <trkpt lat="44.02874" lon="5.97765">
        <ele>429</ele>
        <time>2021-12-21T14:13:02.551Z</time>
      </trkpt>
      <trkpt lat="44.02873" lon="5.97765">
        <ele>429</ele>
        <time>2021-12-21T14:13:03.551Z</time>
      </trkpt>
      <trkpt lat="44.02872" lon="5.97765">
        <ele>429</ele>
        <time>2021-12-21T14:13:04.551Z</time>
      </trkpt>
      <trkpt lat="44.02871" lon="5.97764">
        <ele>429</ele>
        <time>2021-12-21T14:13:05.551Z</time>
      </trkpt>
      <trkpt lat="44.0287" lon="5.97763">
        <ele>430</ele>
        <time>2021-12-21T14:13:06.551Z</time>
      </trkpt>
      <trkpt lat="44.02869" lon="5.97763">
        <ele>430</ele>
        <time>2021-12-21T14:13:07.551Z</time>
      </trkpt>
      <trkpt lat="44.02868" lon="5.97762">
        <ele>430</ele>
        <time>2021-12-21T14:13:08.551Z</time>
      </trkpt>
      <trkpt lat="44.02867" lon="5.97761">
        <ele>430</ele>
        <time>2021-12-21T14:13:09.551Z</time>
      </trkpt>
      <trkpt lat="44.02866" lon="5.97761">
        <ele>430</ele>
        <time>2021-12-21T14:13:10.551Z</time>
      </trkpt>
      <trkpt lat="44.02865" lon="5.97759">
        <ele>430</ele>
        <time>2021-12-21T14:13:11.551Z</time>
      </trkpt>
      <trkpt lat="44.02865" lon="5.97758">
        <ele>430</ele>
        <time>2021-12-21T14:13:12.551Z</time>
      </trkpt>
      <trkpt lat="44.02864" lon="5.97756">
        <ele>430</ele>
        <time>2021-12-21T14:13:13.551Z</time>
      </trkpt>
      <trkpt lat="44.02864" lon="5.97754">
        <ele>431</ele>
        <time>2021-12-21T14:13:14.551Z</time>
      </trkpt>
      <trkpt lat="44.02864" lon="5.97752">
        <ele>431</ele>
        <time>2021-12-21T14:13:15.551Z</time>
      </trkpt>
      <trkpt lat="44.02864" lon="5.9775">
        <ele>431</ele>
        <time>2021-12-21T14:13:16.551Z</time>
      </trkpt>
      <trkpt lat="44.02865" lon="5.97749">
        <ele>431</ele>
        <time>2021-12-21T14:13:17.551Z</time>
      </trkpt>
      <trkpt lat="44.02865" lon="5.97747">
        <ele>431</ele>
        <time>2021-12-21T14:13:18.551Z</time>
      </trkpt>
      <trkpt lat="44.02865" lon="5.97745">
        <ele>430</ele>
        <time>2021-12-21T14:13:19.551Z</time>
      </trkpt>
      <trkpt lat="44.02866" lon="5.97744">
        <ele>430</ele>
        <time>2021-12-21T14:13:20.551Z</time>
      </trkpt>
      <trkpt lat="44.02866" lon="5.97742">
        <ele>430</ele>
        <time>2021-12-21T14:13:21.551Z</time>
      </trkpt>
      <trkpt lat="44.02866" lon="5.9774">
        <ele>430</ele>
        <time>2021-12-21T14:13:22.551Z</time>
      </trkpt>
      <trkpt lat="44.02867" lon="5.97739">
        <ele>430</ele>
        <time>2021-12-21T14:13:23.551Z</time>
      </trkpt>
      <trkpt lat="44.02868" lon="5.97738">
        <ele>430</ele>
        <time>2021-12-21T14:13:24.551Z</time>
      </trkpt>
      <trkpt lat="44.02868" lon="5.97736">
        <ele>430</ele>
        <time>2021-12-21T14:13:25.551Z</time>
      </trkpt>
      <trkpt lat="44.02868" lon="5.97735">
        <ele>430</ele>
        <time>2021-12-21T14:13:26.551Z</time>
      </trkpt>
      <trkpt lat="44.02869" lon="5.97733">
        <ele>429</ele>
        <time>2021-12-21T14:13:27.551Z</time>
      </trkpt>
      <trkpt lat="44.02869" lon="5.97732">
        <ele>429</ele>
        <time>2021-12-21T14:13:28.551Z</time>
      </trkpt>
      <trkpt lat="44.0287" lon="5.9773">
        <ele>429</ele>
        <time>2021-12-21T14:13:29.551Z</time>
      </trkpt>
      <trkpt lat="44.02871" lon="5.97729">
        <ele>429</ele>
        <time>2021-12-21T14:13:30.551Z</time>
      </trkpt>
      <trkpt lat="44.02871" lon="5.97727">
        <ele>428</ele>
        <time>2021-12-21T14:13:31.551Z</time>
      </trkpt>
      <trkpt lat="44.02872" lon="5.97725">
        <ele>428</ele>
        <time>2021-12-21T14:13:32.551Z</time>
      </trkpt>
      <trkpt lat="44.02872" lon="5.97724">
        <ele>428</ele>
        <time>2021-12-21T14:13:33.551Z</time>
      </trkpt>
      <trkpt lat="44.02873" lon="5.97722">
        <ele>427</ele>
        <time>2021-12-21T14:13:34.551Z</time>
      </trkpt>
      <trkpt lat="44.02873" lon="5.97721">
        <ele>427</ele>
        <time>2021-12-21T14:13:35.551Z</time>
      </trkpt>
      <trkpt lat="44.02874" lon="5.97719">
        <ele>426</ele>
        <time>2021-12-21T14:13:36.551Z</time>
      </trkpt>
      <trkpt lat="44.02875" lon="5.97718">
        <ele>426</ele>
        <time>2021-12-21T14:13:37.551Z</time>
      </trkpt>
      <trkpt lat="44.02875" lon="5.97717">
        <ele>426</ele>
        <time>2021-12-21T14:13:38.551Z</time>
      </trkpt>
      <trkpt lat="44.02876" lon="5.97715">
        <ele>425</ele>
        <time>2021-12-21T14:13:39.551Z</time>
      </trkpt>
      <trkpt lat="44.02876" lon="5.97714">
        <ele>425</ele>
        <time>2021-12-21T14:13:40.551Z</time>
      </trkpt>
      <trkpt lat="44.02877" lon="5.97712">
        <ele>425</ele>
        <time>2021-12-21T14:13:41.551Z</time>
      </trkpt>
      <trkpt lat="44.02877" lon="5.9771">
        <ele>424</ele>
        <time>2021-12-21T14:13:42.551Z</time>
      </trkpt>
      <trkpt lat="44.02878" lon="5.97709">
        <ele>424</ele>
        <time>2021-12-21T14:13:43.551Z</time>
      </trkpt>
      <trkpt lat="44.02878" lon="5.97708">
        <ele>424</ele>
        <time>2021-12-21T14:13:44.551Z</time>
      </trkpt>
      <trkpt lat="44.02879" lon="5.97707">
        <ele>424</ele>
        <time>2021-12-21T14:13:45.551Z</time>
      </trkpt>
      <trkpt lat="44.0288" lon="5.97705">
        <ele>423</ele>
        <time>2021-12-21T14:13:46.551Z</time>
      </trkpt>
      <trkpt lat="44.02881" lon="5.97704">
        <ele>423</ele>
        <time>2021-12-21T14:13:47.551Z</time>
      </trkpt>
      <trkpt lat="44.02882" lon="5.97702">
        <ele>423</ele>
        <time>2021-12-21T14:13:48.551Z</time>
      </trkpt>
      <trkpt lat="44.02882" lon="5.97701">
        <ele>422</ele>
        <time>2021-12-21T14:13:49.551Z</time>
      </trkpt>
      <trkpt lat="44.02883" lon="5.977">
        <ele>422</ele>
        <time>2021-12-21T14:13:50.551Z</time>
      </trkpt>
      <trkpt lat="44.02884" lon="5.97699">
        <ele>422</ele>
        <time>2021-12-21T14:13:51.551Z</time>
      </trkpt>
      <trkpt lat="44.02885" lon="5.97698">
        <ele>421</ele>
        <time>2021-12-21T14:13:52.551Z</time>
      </trkpt>
      <trkpt lat="44.02886" lon="5.97697">
        <ele>421</ele>
        <time>2021-12-21T14:13:53.551Z</time>
      </trkpt>
      <trkpt lat="44.02887" lon="5.97696">
        <ele>421</ele>
        <time>2021-12-21T14:13:54.551Z</time>
      </trkpt>
      <trkpt lat="44.02888" lon="5.97694">
        <ele>421</ele>
        <time>2021-12-21T14:13:55.551Z</time>
      </trkpt>
      <trkpt lat="44.02888" lon="5.97693">
        <ele>421</ele>
        <time>2021-12-21T14:13:56.551Z</time>
      </trkpt>
      <trkpt lat="44.02889" lon="5.97691">
        <ele>421</ele>
        <time>2021-12-21T14:13:57.551Z</time>
      </trkpt>
      <trkpt lat="44.0289" lon="5.9769">
        <ele>421</ele>
        <time>2021-12-21T14:13:58.551Z</time>
      </trkpt>
      <trkpt lat="44.0289" lon="5.97689">
        <ele>420</ele>
        <time>2021-12-21T14:13:59.551Z</time>
      </trkpt>
      <trkpt lat="44.0289" lon="5.97687">
        <ele>420</ele>
        <time>2021-12-21T14:14:00.551Z</time>
      </trkpt>
      <trkpt lat="44.02891" lon="5.97685">
        <ele>420</ele>
        <time>2021-12-21T14:14:01.551Z</time>
      </trkpt>
      <trkpt lat="44.02891" lon="5.97684">
        <ele>420</ele>
        <time>2021-12-21T14:14:02.551Z</time>
      </trkpt>
      <trkpt lat="44.02891" lon="5.97682">
        <ele>420</ele>
        <time>2021-12-21T14:14:03.551Z</time>
      </trkpt>
      <trkpt lat="44.02891" lon="5.9768">
        <ele>420</ele>
        <time>2021-12-21T14:14:04.551Z</time>
      </trkpt>
      <trkpt lat="44.02891" lon="5.97679">
        <ele>420</ele>
        <time>2021-12-21T14:14:05.551Z</time>
      </trkpt>
      <trkpt lat="44.02891" lon="5.97677">
        <ele>420</ele>
        <time>2021-12-21T14:14:06.551Z</time>
      </trkpt>
      <trkpt lat="44.02891" lon="5.97675">
        <ele>420</ele>
        <time>2021-12-21T14:14:07.551Z</time>
      </trkpt>
      <trkpt lat="44.02892" lon="5.97673">
        <ele>419</ele>
        <time>2021-12-21T14:14:08.551Z</time>
      </trkpt>
      <trkpt lat="44.02892" lon="5.97672">
        <ele>419</ele>
        <time>2021-12-21T14:14:09.551Z</time>
      </trkpt>
      <trkpt lat="44.02893" lon="5.9767">
        <ele>419</ele>
        <time>2021-12-21T14:14:10.551Z</time>
      </trkpt>
      <trkpt lat="44.02893" lon="5.97669">
        <ele>419</ele>
        <time>2021-12-21T14:14:11.551Z</time>
      </trkpt>
      <trkpt lat="44.02894" lon="5.97667">
        <ele>419</ele>
        <time>2021-12-21T14:14:12.551Z</time>
      </trkpt>
      <trkpt lat="44.02895" lon="5.97666">
        <ele>419</ele>
        <time>2021-12-21T14:14:13.551Z</time>
      </trkpt>
      <trkpt lat="44.02896" lon="5.97664">
        <ele>419</ele>
        <time>2021-12-21T14:14:14.551Z</time>
      </trkpt>
      <trkpt lat="44.02896" lon="5.97663">
        <ele>419</ele>
        <time>2021-12-21T14:14:15.551Z</time>
      </trkpt>
      <trkpt lat="44.02897" lon="5.97662">
        <ele>419</ele>
        <time>2021-12-21T14:14:16.551Z</time>
      </trkpt>
      <trkpt lat="44.02897" lon="5.9766">
        <ele>419</ele>
        <time>2021-12-21T14:14:17.551Z</time>
      </trkpt>
      <trkpt lat="44.02898" lon="5.97658">
        <ele>419</ele>
        <time>2021-12-21T14:14:18.551Z</time>
      </trkpt>
      <trkpt lat="44.02899" lon="5.97658">
        <ele>419</ele>
        <time>2021-12-21T14:14:19.551Z</time>
      </trkpt>
      <trkpt lat="44.02899" lon="5.97656">
        <ele>419</ele>
        <time>2021-12-21T14:14:20.551Z</time>
      </trkpt>
      <trkpt lat="44.029" lon="5.97655">
        <ele>419</ele>
        <time>2021-12-21T14:14:21.551Z</time>
      </trkpt>
      <trkpt lat="44.029" lon="5.97653">
        <ele>419</ele>
        <time>2021-12-21T14:14:22.551Z</time>
      </trkpt>
      <trkpt lat="44.029" lon="5.97651">
        <ele>419</ele>
        <time>2021-12-21T14:14:23.551Z</time>
      </trkpt>
      <trkpt lat="44.029" lon="5.9765">
        <ele>419</ele>
        <time>2021-12-21T14:14:24.551Z</time>
      </trkpt>
      <trkpt lat="44.02901" lon="5.97648">
        <ele>419</ele>
        <time>2021-12-21T14:14:25.551Z</time>
      </trkpt>
      <trkpt lat="44.02901" lon="5.97647">
        <ele>419</ele>
        <time>2021-12-21T14:14:26.551Z</time>
      </trkpt>
      <trkpt lat="44.02902" lon="5.97645">
        <ele>419</ele>
        <time>2021-12-21T14:14:27.551Z</time>
      </trkpt>
      <trkpt lat="44.02903" lon="5.97643">
        <ele>419</ele>
        <time>2021-12-21T14:14:28.551Z</time>
      </trkpt>
      <trkpt lat="44.02904" lon="5.97642">
        <ele>419</ele>
        <time>2021-12-21T14:14:29.551Z</time>
      </trkpt>
      <trkpt lat="44.02904" lon="5.9764">
        <ele>419</ele>
        <time>2021-12-21T14:14:30.551Z</time>
      </trkpt>
      <trkpt lat="44.02905" lon="5.97639">
        <ele>419</ele>
        <time>2021-12-21T14:14:31.551Z</time>
      </trkpt>
      <trkpt lat="44.02906" lon="5.97637">
        <ele>419</ele>
        <time>2021-12-21T14:14:32.551Z</time>
      </trkpt>
      <trkpt lat="44.02907" lon="5.97635">
        <ele>419</ele>
        <time>2021-12-21T14:14:33.551Z</time>
      </trkpt>
      <trkpt lat="44.02908" lon="5.97634">
        <ele>419</ele>
        <time>2021-12-21T14:14:34.551Z</time>
      </trkpt>
      <trkpt lat="44.02909" lon="5.97633">
        <ele>418</ele>
        <time>2021-12-21T14:14:35.551Z</time>
      </trkpt>
      <trkpt lat="44.02909" lon="5.97632">
        <ele>418</ele>
        <time>2021-12-21T14:14:36.551Z</time>
      </trkpt>
      <trkpt lat="44.0291" lon="5.9763">
        <ele>418</ele>
        <time>2021-12-21T14:14:37.551Z</time>
      </trkpt>
      <trkpt lat="44.02911" lon="5.97629">
        <ele>418</ele>
        <time>2021-12-21T14:14:38.551Z</time>
      </trkpt>
      <trkpt lat="44.02911" lon="5.97627">
        <ele>418</ele>
        <time>2021-12-21T14:14:39.551Z</time>
      </trkpt>
      <trkpt lat="44.02912" lon="5.97625">
        <ele>418</ele>
        <time>2021-12-21T14:14:40.551Z</time>
      </trkpt>
      <trkpt lat="44.02912" lon="5.97624">
        <ele>418</ele>
        <time>2021-12-21T14:14:41.551Z</time>
      </trkpt>
      <trkpt lat="44.02913" lon="5.97622">
        <ele>418</ele>
        <time>2021-12-21T14:14:42.551Z</time>
      </trkpt>
      <trkpt lat="44.02913" lon="5.9762">
        <ele>418</ele>
        <time>2021-12-21T14:14:43.551Z</time>
      </trkpt>
      <trkpt lat="44.02914" lon="5.97619">
        <ele>418</ele>
        <time>2021-12-21T14:14:44.551Z</time>
      </trkpt>
      <trkpt lat="44.02914" lon="5.97617">
        <ele>418</ele>
        <time>2021-12-21T14:14:45.551Z</time>
      </trkpt>
      <trkpt lat="44.02915" lon="5.97616">
        <ele>418</ele>
        <time>2021-12-21T14:14:46.551Z</time>
      </trkpt>
      <trkpt lat="44.02915" lon="5.97615">
        <ele>418</ele>
        <time>2021-12-21T14:14:47.551Z</time>
      </trkpt>
      <trkpt lat="44.02916" lon="5.97613">
        <ele>418</ele>
        <time>2021-12-21T14:14:48.551Z</time>
      </trkpt>
      <trkpt lat="44.02916" lon="5.97612">
        <ele>418</ele>
        <time>2021-12-21T14:14:49.551Z</time>
      </trkpt>
      <trkpt lat="44.02917" lon="5.9761">
        <ele>418</ele>
        <time>2021-12-21T14:14:50.551Z</time>
      </trkpt>
      <trkpt lat="44.02917" lon="5.97609">
        <ele>418</ele>
        <time>2021-12-21T14:14:51.551Z</time>
      </trkpt>
      <trkpt lat="44.02918" lon="5.97607">
        <ele>418</ele>
        <time>2021-12-21T14:14:52.551Z</time>
      </trkpt>
      <trkpt lat="44.02918" lon="5.97606">
        <ele>418</ele>
        <time>2021-12-21T14:14:53.551Z</time>
      </trkpt>
      <trkpt lat="44.02918" lon="5.97604">
        <ele>418</ele>
        <time>2021-12-21T14:14:54.551Z</time>
      </trkpt>
      <trkpt lat="44.02917" lon="5.97603">
        <ele>418</ele>
        <time>2021-12-21T14:14:55.551Z</time>
      </trkpt>
      <trkpt lat="44.02917" lon="5.97601">
        <ele>418</ele>
        <time>2021-12-21T14:14:56.551Z</time>
      </trkpt>
      <trkpt lat="44.02916" lon="5.97599">
        <ele>419</ele>
        <time>2021-12-21T14:14:57.551Z</time>
      </trkpt>
      <trkpt lat="44.02916" lon="5.97598">
        <ele>419</ele>
        <time>2021-12-21T14:14:58.551Z</time>
      </trkpt>
      <trkpt lat="44.02915" lon="5.97597">
        <ele>419</ele>
        <time>2021-12-21T14:14:59.551Z</time>
      </trkpt>
      <trkpt lat="44.02915" lon="5.97596">
        <ele>419</ele>
        <time>2021-12-21T14:15:00.551Z</time>
      </trkpt>
      <trkpt lat="44.02914" lon="5.97594">
        <ele>419</ele>
        <time>2021-12-21T14:15:01.551Z</time>
      </trkpt>
      <trkpt lat="44.02914" lon="5.97593">
        <ele>419</ele>
        <time>2021-12-21T14:15:02.551Z</time>
      </trkpt>
      <trkpt lat="44.02913" lon="5.97592">
        <ele>419</ele>
        <time>2021-12-21T14:15:03.551Z</time>
      </trkpt>
      <trkpt lat="44.02913" lon="5.9759">
        <ele>420</ele>
        <time>2021-12-21T14:15:04.551Z</time>
      </trkpt>
      <trkpt lat="44.02913" lon="5.97588">
        <ele>420</ele>
        <time>2021-12-21T14:15:05.551Z</time>
      </trkpt>
      <trkpt lat="44.02913" lon="5.97586">
        <ele>420</ele>
        <time>2021-12-21T14:15:06.551Z</time>
      </trkpt>
      <trkpt lat="44.02912" lon="5.97585">
        <ele>419</ele>
        <time>2021-12-21T14:15:07.551Z</time>
      </trkpt>
      <trkpt lat="44.02912" lon="5.97583">
        <ele>419</ele>
        <time>2021-12-21T14:15:08.551Z</time>
      </trkpt>
      <trkpt lat="44.02912" lon="5.97581">
        <ele>419</ele>
        <time>2021-12-21T14:15:09.551Z</time>
      </trkpt>
      <trkpt lat="44.02913" lon="5.9758">
        <ele>419</ele>
        <time>2021-12-21T14:15:10.551Z</time>
      </trkpt>
      <trkpt lat="44.02913" lon="5.97578">
        <ele>419</ele>
        <time>2021-12-21T14:15:11.551Z</time>
      </trkpt>
      <trkpt lat="44.02913" lon="5.97577">
        <ele>419</ele>
        <time>2021-12-21T14:15:12.551Z</time>
      </trkpt>
      <trkpt lat="44.02913" lon="5.97575">
        <ele>419</ele>
        <time>2021-12-21T14:15:13.551Z</time>
      </trkpt>
      <trkpt lat="44.02913" lon="5.97573">
        <ele>419</ele>
        <time>2021-12-21T14:15:14.551Z</time>
      </trkpt>
      <trkpt lat="44.02912" lon="5.97572">
        <ele>419</ele>
        <time>2021-12-21T14:15:15.551Z</time>
      </trkpt>
      <trkpt lat="44.02912" lon="5.9757">
        <ele>418</ele>
        <time>2021-12-21T14:15:16.551Z</time>
      </trkpt>
      <trkpt lat="44.02912" lon="5.97569">
        <ele>418</ele>
        <time>2021-12-21T14:15:17.551Z</time>
      </trkpt>
      <trkpt lat="44.02912" lon="5.97568">
        <ele>418</ele>
        <time>2021-12-21T14:15:18.551Z</time>
      </trkpt>
      <trkpt lat="44.02912" lon="5.97568">
        <ele>418</ele>
        <time>2021-12-21T14:15:19.551Z</time>
      </trkpt>
      <trkpt lat="44.02912" lon="5.97568">
        <ele>418</ele>
        <time>2021-12-21T14:15:20.551Z</time>
      </trkpt>
      <trkpt lat="44.02912" lon="5.97568">
        <ele>418</ele>
        <time>2021-12-21T14:15:21.551Z</time>
      </trkpt>
      <trkpt lat="44.02912" lon="5.97568">
        <ele>418</ele>
        <time>2021-12-21T14:15:22.551Z</time>
      </trkpt>
      <trkpt lat="44.02912" lon="5.97568">
        <ele>418</ele>
        <time>2021-12-21T14:15:23.551Z</time>
      </trkpt>
      <trkpt lat="44.02912" lon="5.97568">
        <ele>418</ele>
        <time>2021-12-21T14:15:24.551Z</time>
      </trkpt>
      <trkpt lat="44.02912" lon="5.97567">
        <ele>418</ele>
        <time>2021-12-21T14:15:25.551Z</time>
      </trkpt>
      <trkpt lat="44.02912" lon="5.97567">
        <ele>418</ele>
        <time>2021-12-21T14:15:26.551Z</time>
      </trkpt>
    </trkseg>
  </trk>
</gpx>